<?xml version="1.0" encoding="UTF-8" standalone="no" ?>
<gpx xmlns="http://www.topografix.com/GPX/1/1" xmlns:xsi="http://www.w3.org/2001/XMLSchema-instance" xsi:schemaLocation="http://www.topografix.com/GPX/1/1 http://www.topografix.com/GPX/1/1/gpx.xsd" version="1.1" creator="VisuGPX - https://www.visugpx.com">
  <metadata>
    <name>01 FD</name>
    <desc><![CDATA[

]]></desc>
  </metadata>
  <trk>
    <name><![CDATA[01 FD]]></name>
    <trkseg>
      <trkpt lat="51.07048" lon="2.516">
        <ele>7.35</ele>
        <time>2021-08-07T05:34:46Z</time>
      </trkpt>
      <trkpt lat="51.07046" lon="2.51597">
        <ele>7.35</ele>
        <time>2021-08-07T05:34:47Z</time>
      </trkpt>
      <trkpt lat="51.07045" lon="2.51591">
        <ele>7.35</ele>
        <time>2021-08-07T05:34:48Z</time>
      </trkpt>
      <trkpt lat="51.07045" lon="2.51586">
        <ele>7.35</ele>
        <time>2021-08-07T05:34:49Z</time>
      </trkpt>
      <trkpt lat="51.07044" lon="2.5158">
        <ele>7.35</ele>
        <time>2021-08-07T05:34:50Z</time>
      </trkpt>
      <trkpt lat="51.07036" lon="2.51513">
        <ele>7.35</ele>
        <time>2021-08-07T05:34:59Z</time>
      </trkpt>
      <trkpt lat="51.07025" lon="2.51427">
        <ele>7.35</ele>
        <time>2021-08-07T05:35:09Z</time>
      </trkpt>
      <trkpt lat="51.07013" lon="2.51319">
        <ele>7.35</ele>
        <time>2021-08-07T05:35:21Z</time>
      </trkpt>
      <trkpt lat="51.0701" lon="2.51301">
        <ele>7.35</ele>
        <time>2021-08-07T05:35:23Z</time>
      </trkpt>
      <trkpt lat="51.07008" lon="2.51292">
        <ele>7.35</ele>
        <time>2021-08-07T05:35:24Z</time>
      </trkpt>
      <trkpt lat="51.07005" lon="2.51283">
        <ele>7.35</ele>
        <time>2021-08-07T05:35:25Z</time>
      </trkpt>
      <trkpt lat="51.06987" lon="2.51221">
        <ele>8.79</ele>
        <time>2021-08-07T05:35:33Z</time>
      </trkpt>
      <trkpt lat="51.06977" lon="2.51186">
        <ele>8.79</ele>
        <time>2021-08-07T05:35:37Z</time>
      </trkpt>
      <trkpt lat="51.06974" lon="2.51179">
        <ele>8.79</ele>
        <time>2021-08-07T05:35:38Z</time>
      </trkpt>
      <trkpt lat="51.06971" lon="2.51173">
        <ele>8.79</ele>
        <time>2021-08-07T05:35:39Z</time>
      </trkpt>
      <trkpt lat="51.06967" lon="2.51166">
        <ele>8.79</ele>
        <time>2021-08-07T05:35:40Z</time>
      </trkpt>
      <trkpt lat="51.06963" lon="2.51157">
        <ele>8.79</ele>
        <time>2021-08-07T05:35:41Z</time>
      </trkpt>
      <trkpt lat="51.06961" lon="2.51148">
        <ele>8.79</ele>
        <time>2021-08-07T05:35:42Z</time>
      </trkpt>
      <trkpt lat="51.06959" lon="2.51139">
        <ele>8.79</ele>
        <time>2021-08-07T05:35:43Z</time>
      </trkpt>
      <trkpt lat="51.06934" lon="2.51038">
        <ele>8.79</ele>
        <time>2021-08-07T05:35:54Z</time>
      </trkpt>
      <trkpt lat="51.06899" lon="2.50919">
        <ele>8.79</ele>
        <time>2021-08-07T05:36:07Z</time>
      </trkpt>
      <trkpt lat="51.0687" lon="2.50826">
        <ele>7.83</ele>
        <time>2021-08-07T05:36:17Z</time>
      </trkpt>
      <trkpt lat="51.06832" lon="2.50708">
        <ele>6.87</ele>
        <time>2021-08-07T05:36:30Z</time>
      </trkpt>
      <trkpt lat="51.06801" lon="2.5061">
        <ele>6.87</ele>
        <time>2021-08-07T05:36:41Z</time>
      </trkpt>
      <trkpt lat="51.06776" lon="2.50513">
        <ele>6.87</ele>
        <time>2021-08-07T05:36:51Z</time>
      </trkpt>
      <trkpt lat="51.06758" lon="2.50429">
        <ele>6.87</ele>
        <time>2021-08-07T05:37:00Z</time>
      </trkpt>
      <trkpt lat="51.06734" lon="2.50304">
        <ele>6.87</ele>
        <time>2021-08-07T05:37:13Z</time>
      </trkpt>
      <trkpt lat="51.06716" lon="2.50184">
        <ele>6.87</ele>
        <time>2021-08-07T05:37:25Z</time>
      </trkpt>
      <trkpt lat="51.06701" lon="2.50077">
        <ele>5.91</ele>
        <time>2021-08-07T05:37:36Z</time>
      </trkpt>
      <trkpt lat="51.06689" lon="2.49996">
        <ele>4.94</ele>
        <time>2021-08-07T05:37:45Z</time>
      </trkpt>
      <trkpt lat="51.06678" lon="2.4992">
        <ele>4.94</ele>
        <time>2021-08-07T05:37:54Z</time>
      </trkpt>
      <trkpt lat="51.06674" lon="2.49896">
        <ele>4.94</ele>
        <time>2021-08-07T05:37:57Z</time>
      </trkpt>
      <trkpt lat="51.06662" lon="2.49805">
        <ele>5.91</ele>
        <time>2021-08-07T05:38:07Z</time>
      </trkpt>
      <trkpt lat="51.06645" lon="2.49691">
        <ele>5.91</ele>
        <time>2021-08-07T05:38:19Z</time>
      </trkpt>
      <trkpt lat="51.06631" lon="2.49594">
        <ele>5.91</ele>
        <time>2021-08-07T05:38:29Z</time>
      </trkpt>
      <trkpt lat="51.06617" lon="2.49496">
        <ele>5.91</ele>
        <time>2021-08-07T05:38:39Z</time>
      </trkpt>
      <trkpt lat="51.06604" lon="2.49402">
        <ele>5.91</ele>
        <time>2021-08-07T05:38:49Z</time>
      </trkpt>
      <trkpt lat="51.06589" lon="2.4933">
        <ele>5.91</ele>
        <time>2021-08-07T05:38:57Z</time>
      </trkpt>
      <trkpt lat="51.06562" lon="2.49225">
        <ele>5.91</ele>
        <time>2021-08-07T05:39:09Z</time>
      </trkpt>
      <trkpt lat="51.06536" lon="2.49131">
        <ele>6.39</ele>
        <time>2021-08-07T05:39:20Z</time>
      </trkpt>
      <trkpt lat="51.06517" lon="2.49062">
        <ele>6.87</ele>
        <time>2021-08-07T05:39:29Z</time>
      </trkpt>
      <trkpt lat="51.06505" lon="2.49016">
        <ele>6.87</ele>
        <time>2021-08-07T05:39:35Z</time>
      </trkpt>
      <trkpt lat="51.06481" lon="2.48927">
        <ele>6.87</ele>
        <time>2021-08-07T05:39:47Z</time>
      </trkpt>
      <trkpt lat="51.06479" lon="2.48921">
        <ele>6.87</ele>
        <time>2021-08-07T05:39:48Z</time>
      </trkpt>
      <trkpt lat="51.06477" lon="2.4891">
        <ele>6.87</ele>
        <time>2021-08-07T05:39:50Z</time>
      </trkpt>
      <trkpt lat="51.06478" lon="2.48905">
        <ele>6.87</ele>
        <time>2021-08-07T05:39:51Z</time>
      </trkpt>
      <trkpt lat="51.06479" lon="2.48887">
        <ele>7.35</ele>
        <time>2021-08-07T05:39:54Z</time>
      </trkpt>
      <trkpt lat="51.06478" lon="2.4888">
        <ele>7.35</ele>
        <time>2021-08-07T05:39:55Z</time>
      </trkpt>
      <trkpt lat="51.06477" lon="2.48874">
        <ele>7.35</ele>
        <time>2021-08-07T05:39:56Z</time>
      </trkpt>
      <trkpt lat="51.0646" lon="2.48817">
        <ele>8.79</ele>
        <time>2021-08-07T05:40:04Z</time>
      </trkpt>
      <trkpt lat="51.06445" lon="2.48751">
        <ele>10.71</ele>
        <time>2021-08-07T05:40:13Z</time>
      </trkpt>
      <trkpt lat="51.06433" lon="2.48708">
        <ele>11.19</ele>
        <time>2021-08-07T05:40:19Z</time>
      </trkpt>
      <trkpt lat="51.06411" lon="2.48637">
        <ele>11.67</ele>
        <time>2021-08-07T05:40:28Z</time>
      </trkpt>
      <trkpt lat="51.06385" lon="2.48548">
        <ele>10.23</ele>
        <time>2021-08-07T05:40:38Z</time>
      </trkpt>
      <trkpt lat="51.06362" lon="2.48472">
        <ele>7.83</ele>
        <time>2021-08-07T05:40:45Z</time>
      </trkpt>
      <trkpt lat="51.06335" lon="2.4837">
        <ele>7.35</ele>
        <time>2021-08-07T05:40:54Z</time>
      </trkpt>
      <trkpt lat="51.06309" lon="2.4827">
        <ele>6.87</ele>
        <time>2021-08-07T05:41:03Z</time>
      </trkpt>
      <trkpt lat="51.06304" lon="2.48242">
        <ele>6.87</ele>
        <time>2021-08-07T05:41:06Z</time>
      </trkpt>
      <trkpt lat="51.06301" lon="2.48236">
        <ele>6.87</ele>
        <time>2021-08-07T05:41:07Z</time>
      </trkpt>
      <trkpt lat="51.06296" lon="2.48232">
        <ele>6.87</ele>
        <time>2021-08-07T05:41:08Z</time>
      </trkpt>
      <trkpt lat="51.06291" lon="2.48232">
        <ele>6.87</ele>
        <time>2021-08-07T05:41:09Z</time>
      </trkpt>
      <trkpt lat="51.06287" lon="2.48232">
        <ele>6.87</ele>
        <time>2021-08-07T05:41:10Z</time>
      </trkpt>
      <trkpt lat="51.06282" lon="2.48232">
        <ele>6.87</ele>
        <time>2021-08-07T05:41:11Z</time>
      </trkpt>
      <trkpt lat="51.06279" lon="2.48229">
        <ele>6.87</ele>
        <time>2021-08-07T05:41:12Z</time>
      </trkpt>
      <trkpt lat="51.06276" lon="2.48224">
        <ele>6.87</ele>
        <time>2021-08-07T05:41:13Z</time>
      </trkpt>
      <trkpt lat="51.0626" lon="2.48197">
        <ele>6.87</ele>
        <time>2021-08-07T05:41:18Z</time>
      </trkpt>
      <trkpt lat="51.06257" lon="2.4819">
        <ele>6.87</ele>
        <time>2021-08-07T05:41:19Z</time>
      </trkpt>
      <trkpt lat="51.06255" lon="2.48182">
        <ele>6.87</ele>
        <time>2021-08-07T05:41:20Z</time>
      </trkpt>
      <trkpt lat="51.06236" lon="2.48114">
        <ele>6.87</ele>
        <time>2021-08-07T05:41:28Z</time>
      </trkpt>
      <trkpt lat="51.06215" lon="2.48033">
        <ele>6.87</ele>
        <time>2021-08-07T05:41:37Z</time>
      </trkpt>
      <trkpt lat="51.06212" lon="2.48024">
        <ele>6.87</ele>
        <time>2021-08-07T05:41:38Z</time>
      </trkpt>
      <trkpt lat="51.06209" lon="2.48016">
        <ele>6.87</ele>
        <time>2021-08-07T05:41:39Z</time>
      </trkpt>
      <trkpt lat="51.06196" lon="2.47994">
        <ele>6.39</ele>
        <time>2021-08-07T05:41:42Z</time>
      </trkpt>
      <trkpt lat="51.06191" lon="2.47987">
        <ele>6.39</ele>
        <time>2021-08-07T05:41:43Z</time>
      </trkpt>
      <trkpt lat="51.06187" lon="2.4798">
        <ele>5.91</ele>
        <time>2021-08-07T05:41:44Z</time>
      </trkpt>
      <trkpt lat="51.06183" lon="2.47972">
        <ele>5.91</ele>
        <time>2021-08-07T05:41:45Z</time>
      </trkpt>
      <trkpt lat="51.06181" lon="2.47963">
        <ele>5.91</ele>
        <time>2021-08-07T05:41:46Z</time>
      </trkpt>
      <trkpt lat="51.06178" lon="2.47954">
        <ele>5.91</ele>
        <time>2021-08-07T05:41:47Z</time>
      </trkpt>
      <trkpt lat="51.06173" lon="2.47937">
        <ele>5.91</ele>
        <time>2021-08-07T05:41:49Z</time>
      </trkpt>
      <trkpt lat="51.06155" lon="2.47875">
        <ele>5.91</ele>
        <time>2021-08-07T05:41:56Z</time>
      </trkpt>
      <trkpt lat="51.06142" lon="2.4782">
        <ele>5.91</ele>
        <time>2021-08-07T05:42:02Z</time>
      </trkpt>
      <trkpt lat="51.06141" lon="2.47811">
        <ele>5.91</ele>
        <time>2021-08-07T05:42:03Z</time>
      </trkpt>
      <trkpt lat="51.06148" lon="2.4778">
        <ele>5.91</ele>
        <time>2021-08-07T05:42:07Z</time>
      </trkpt>
      <trkpt lat="51.06154" lon="2.47769">
        <ele>6.87</ele>
        <time>2021-08-07T05:42:09Z</time>
      </trkpt>
      <trkpt lat="51.06155" lon="2.4776">
        <ele>6.87</ele>
        <time>2021-08-07T05:42:10Z</time>
      </trkpt>
      <trkpt lat="51.06154" lon="2.47754">
        <ele>6.87</ele>
        <time>2021-08-07T05:42:11Z</time>
      </trkpt>
      <trkpt lat="51.06152" lon="2.47746">
        <ele>6.87</ele>
        <time>2021-08-07T05:42:12Z</time>
      </trkpt>
      <trkpt lat="51.0615" lon="2.47739">
        <ele>6.87</ele>
        <time>2021-08-07T05:42:13Z</time>
      </trkpt>
      <trkpt lat="51.06129" lon="2.47668">
        <ele>6.87</ele>
        <time>2021-08-07T05:42:22Z</time>
      </trkpt>
      <trkpt lat="51.06109" lon="2.47592">
        <ele>6.87</ele>
        <time>2021-08-07T05:42:31Z</time>
      </trkpt>
      <trkpt lat="51.0609" lon="2.47519">
        <ele>6.87</ele>
        <time>2021-08-07T05:42:39Z</time>
      </trkpt>
      <trkpt lat="51.06071" lon="2.47445">
        <ele>6.87</ele>
        <time>2021-08-07T05:42:47Z</time>
      </trkpt>
      <trkpt lat="51.06047" lon="2.4736">
        <ele>6.87</ele>
        <time>2021-08-07T05:42:56Z</time>
      </trkpt>
      <trkpt lat="51.0602" lon="2.47271">
        <ele>6.87</ele>
        <time>2021-08-07T05:43:06Z</time>
      </trkpt>
      <trkpt lat="51.05992" lon="2.4718">
        <ele>6.87</ele>
        <time>2021-08-07T05:43:16Z</time>
      </trkpt>
      <trkpt lat="51.05965" lon="2.47103">
        <ele>6.87</ele>
        <time>2021-08-07T05:43:25Z</time>
      </trkpt>
      <trkpt lat="51.05926" lon="2.46995">
        <ele>7.83</ele>
        <time>2021-08-07T05:43:38Z</time>
      </trkpt>
      <trkpt lat="51.05917" lon="2.46971">
        <ele>7.83</ele>
        <time>2021-08-07T05:43:41Z</time>
      </trkpt>
      <trkpt lat="51.05913" lon="2.46965">
        <ele>7.83</ele>
        <time>2021-08-07T05:43:42Z</time>
      </trkpt>
      <trkpt lat="51.05908" lon="2.4696">
        <ele>7.83</ele>
        <time>2021-08-07T05:43:43Z</time>
      </trkpt>
      <trkpt lat="51.05903" lon="2.46957">
        <ele>7.83</ele>
        <time>2021-08-07T05:43:44Z</time>
      </trkpt>
      <trkpt lat="51.05898" lon="2.46953">
        <ele>7.83</ele>
        <time>2021-08-07T05:43:45Z</time>
      </trkpt>
      <trkpt lat="51.05893" lon="2.46947">
        <ele>7.83</ele>
        <time>2021-08-07T05:43:46Z</time>
      </trkpt>
      <trkpt lat="51.0589" lon="2.4694">
        <ele>7.83</ele>
        <time>2021-08-07T05:43:47Z</time>
      </trkpt>
      <trkpt lat="51.05888" lon="2.46931">
        <ele>7.83</ele>
        <time>2021-08-07T05:43:48Z</time>
      </trkpt>
      <trkpt lat="51.05885" lon="2.46923">
        <ele>7.83</ele>
        <time>2021-08-07T05:43:49Z</time>
      </trkpt>
      <trkpt lat="51.05882" lon="2.46915">
        <ele>7.83</ele>
        <time>2021-08-07T05:43:50Z</time>
      </trkpt>
      <trkpt lat="51.0587" lon="2.46874">
        <ele>7.83</ele>
        <time>2021-08-07T05:43:55Z</time>
      </trkpt>
      <trkpt lat="51.05869" lon="2.46865">
        <ele>7.83</ele>
        <time>2021-08-07T05:43:56Z</time>
      </trkpt>
      <trkpt lat="51.05867" lon="2.4684">
        <ele>7.83</ele>
        <time>2021-08-07T05:43:59Z</time>
      </trkpt>
      <trkpt lat="51.05865" lon="2.46832">
        <ele>7.83</ele>
        <time>2021-08-07T05:44:00Z</time>
      </trkpt>
      <trkpt lat="51.05862" lon="2.46825">
        <ele>7.83</ele>
        <time>2021-08-07T05:44:01Z</time>
      </trkpt>
      <trkpt lat="51.05831" lon="2.46742">
        <ele>8.31</ele>
        <time>2021-08-07T05:44:12Z</time>
      </trkpt>
      <trkpt lat="51.05806" lon="2.46677">
        <ele>8.31</ele>
        <time>2021-08-07T05:44:20Z</time>
      </trkpt>
      <trkpt lat="51.05783" lon="2.4661">
        <ele>8.31</ele>
        <time>2021-08-07T05:44:28Z</time>
      </trkpt>
      <trkpt lat="51.05758" lon="2.4654">
        <ele>8.31</ele>
        <time>2021-08-07T05:44:36Z</time>
      </trkpt>
      <trkpt lat="51.05749" lon="2.46513">
        <ele>7.83</ele>
        <time>2021-08-07T05:44:39Z</time>
      </trkpt>
      <trkpt lat="51.05746" lon="2.46506">
        <ele>8.31</ele>
        <time>2021-08-07T05:44:40Z</time>
      </trkpt>
      <trkpt lat="51.05721" lon="2.46426">
        <ele>7.83</ele>
        <time>2021-08-07T05:44:49Z</time>
      </trkpt>
      <trkpt lat="51.05689" lon="2.46316">
        <ele>7.83</ele>
        <time>2021-08-07T05:45:01Z</time>
      </trkpt>
      <trkpt lat="51.05666" lon="2.46211">
        <ele>7.83</ele>
        <time>2021-08-07T05:45:12Z</time>
      </trkpt>
      <trkpt lat="51.05648" lon="2.46106">
        <ele>7.83</ele>
        <time>2021-08-07T05:45:23Z</time>
      </trkpt>
      <trkpt lat="51.05639" lon="2.46021">
        <ele>7.83</ele>
        <time>2021-08-07T05:45:32Z</time>
      </trkpt>
      <trkpt lat="51.05629" lon="2.45924">
        <ele>7.83</ele>
        <time>2021-08-07T05:45:42Z</time>
      </trkpt>
      <trkpt lat="51.05617" lon="2.4581">
        <ele>7.83</ele>
        <time>2021-08-07T05:45:54Z</time>
      </trkpt>
      <trkpt lat="51.05606" lon="2.45707">
        <ele>7.83</ele>
        <time>2021-08-07T05:46:05Z</time>
      </trkpt>
      <trkpt lat="51.05597" lon="2.45612">
        <ele>8.79</ele>
        <time>2021-08-07T05:46:15Z</time>
      </trkpt>
      <trkpt lat="51.05591" lon="2.45566">
        <ele>8.79</ele>
        <time>2021-08-07T05:46:20Z</time>
      </trkpt>
      <trkpt lat="51.05589" lon="2.45557">
        <ele>8.79</ele>
        <time>2021-08-07T05:46:21Z</time>
      </trkpt>
      <trkpt lat="51.05586" lon="2.45549">
        <ele>8.79</ele>
        <time>2021-08-07T05:46:22Z</time>
      </trkpt>
      <trkpt lat="51.05576" lon="2.45526">
        <ele>8.79</ele>
        <time>2021-08-07T05:46:25Z</time>
      </trkpt>
      <trkpt lat="51.05572" lon="2.4552">
        <ele>8.79</ele>
        <time>2021-08-07T05:46:26Z</time>
      </trkpt>
      <trkpt lat="51.05567" lon="2.45517">
        <ele>8.79</ele>
        <time>2021-08-07T05:46:27Z</time>
      </trkpt>
      <trkpt lat="51.05564" lon="2.45513">
        <ele>8.79</ele>
        <time>2021-08-07T05:46:28Z</time>
      </trkpt>
      <trkpt lat="51.05563" lon="2.45508">
        <ele>8.79</ele>
        <time>2021-08-07T05:46:29Z</time>
      </trkpt>
      <trkpt lat="51.05562" lon="2.45501">
        <ele>8.79</ele>
        <time>2021-08-07T05:46:30Z</time>
      </trkpt>
      <trkpt lat="51.05555" lon="2.45445">
        <ele>8.79</ele>
        <time>2021-08-07T05:46:38Z</time>
      </trkpt>
      <trkpt lat="51.05545" lon="2.45355">
        <ele>8.31</ele>
        <time>2021-08-07T05:46:49Z</time>
      </trkpt>
      <trkpt lat="51.05538" lon="2.45273">
        <ele>9.27</ele>
        <time>2021-08-07T05:46:59Z</time>
      </trkpt>
      <trkpt lat="51.05537" lon="2.45197">
        <ele>9.75</ele>
        <time>2021-08-07T05:47:08Z</time>
      </trkpt>
      <trkpt lat="51.05536" lon="2.4511">
        <ele>9.75</ele>
        <time>2021-08-07T05:47:18Z</time>
      </trkpt>
      <trkpt lat="51.05529" lon="2.45031">
        <ele>10.23</ele>
        <time>2021-08-07T05:47:27Z</time>
      </trkpt>
      <trkpt lat="51.05518" lon="2.44935">
        <ele>10.71</ele>
        <time>2021-08-07T05:47:38Z</time>
      </trkpt>
      <trkpt lat="51.05505" lon="2.44856">
        <ele>10.23</ele>
        <time>2021-08-07T05:47:47Z</time>
      </trkpt>
      <trkpt lat="51.05504" lon="2.44847">
        <ele>10.23</ele>
        <time>2021-08-07T05:47:48Z</time>
      </trkpt>
      <trkpt lat="51.05503" lon="2.44838">
        <ele>10.23</ele>
        <time>2021-08-07T05:47:49Z</time>
      </trkpt>
      <trkpt lat="51.05491" lon="2.44737">
        <ele>10.23</ele>
        <time>2021-08-07T05:48:00Z</time>
      </trkpt>
      <trkpt lat="51.05474" lon="2.44652">
        <ele>10.23</ele>
        <time>2021-08-07T05:48:09Z</time>
      </trkpt>
      <trkpt lat="51.05454" lon="2.44568">
        <ele>9.27</ele>
        <time>2021-08-07T05:48:18Z</time>
      </trkpt>
      <trkpt lat="51.05431" lon="2.44481">
        <ele>8.31</ele>
        <time>2021-08-07T05:48:27Z</time>
      </trkpt>
      <trkpt lat="51.05402" lon="2.44388">
        <ele>7.35</ele>
        <time>2021-08-07T05:48:37Z</time>
      </trkpt>
      <trkpt lat="51.05372" lon="2.44284">
        <ele>7.35</ele>
        <time>2021-08-07T05:48:48Z</time>
      </trkpt>
      <trkpt lat="51.05334" lon="2.44164">
        <ele>7.35</ele>
        <time>2021-08-07T05:49:01Z</time>
      </trkpt>
      <trkpt lat="51.05304" lon="2.44064">
        <ele>7.35</ele>
        <time>2021-08-07T05:49:12Z</time>
      </trkpt>
      <trkpt lat="51.05277" lon="2.43976">
        <ele>7.35</ele>
        <time>2021-08-07T05:49:22Z</time>
      </trkpt>
      <trkpt lat="51.05264" lon="2.43932">
        <ele>7.35</ele>
        <time>2021-08-07T05:49:27Z</time>
      </trkpt>
      <trkpt lat="51.05261" lon="2.43923">
        <ele>7.35</ele>
        <time>2021-08-07T05:49:28Z</time>
      </trkpt>
      <trkpt lat="51.05244" lon="2.43865">
        <ele>7.35</ele>
        <time>2021-08-07T05:49:34Z</time>
      </trkpt>
      <trkpt lat="51.05226" lon="2.43803">
        <ele>7.35</ele>
        <time>2021-08-07T05:49:41Z</time>
      </trkpt>
      <trkpt lat="51.052" lon="2.43715">
        <ele>6.87</ele>
        <time>2021-08-07T05:49:51Z</time>
      </trkpt>
      <trkpt lat="51.05166" lon="2.436">
        <ele>6.87</ele>
        <time>2021-08-07T05:50:04Z</time>
      </trkpt>
      <trkpt lat="51.05161" lon="2.43582">
        <ele>6.87</ele>
        <time>2021-08-07T05:50:06Z</time>
      </trkpt>
      <trkpt lat="51.05161" lon="2.43572">
        <ele>6.87</ele>
        <time>2021-08-07T05:50:07Z</time>
      </trkpt>
      <trkpt lat="51.0516" lon="2.43562">
        <ele>6.87</ele>
        <time>2021-08-07T05:50:08Z</time>
      </trkpt>
      <trkpt lat="51.05159" lon="2.43552">
        <ele>6.87</ele>
        <time>2021-08-07T05:50:09Z</time>
      </trkpt>
      <trkpt lat="51.05157" lon="2.43543">
        <ele>6.87</ele>
        <time>2021-08-07T05:50:10Z</time>
      </trkpt>
      <trkpt lat="51.05154" lon="2.43535">
        <ele>6.87</ele>
        <time>2021-08-07T05:50:11Z</time>
      </trkpt>
      <trkpt lat="51.05121" lon="2.43427">
        <ele>6.87</ele>
        <time>2021-08-07T05:50:23Z</time>
      </trkpt>
      <trkpt lat="51.0509" lon="2.43322">
        <ele>6.87</ele>
        <time>2021-08-07T05:50:35Z</time>
      </trkpt>
      <trkpt lat="51.05068" lon="2.43245">
        <ele>6.87</ele>
        <time>2021-08-07T05:50:44Z</time>
      </trkpt>
      <trkpt lat="51.05056" lon="2.4321">
        <ele>6.87</ele>
        <time>2021-08-07T05:50:49Z</time>
      </trkpt>
      <trkpt lat="51.05054" lon="2.43205">
        <ele>6.87</ele>
        <time>2021-08-07T05:50:50Z</time>
      </trkpt>
      <trkpt lat="51.05055" lon="2.432">
        <ele>6.87</ele>
        <time>2021-08-07T05:50:51Z</time>
      </trkpt>
      <trkpt lat="51.05057" lon="2.43197">
        <ele>6.87</ele>
        <time>2021-08-07T05:50:52Z</time>
      </trkpt>
      <trkpt lat="51.05059" lon="2.43195">
        <ele>6.87</ele>
        <time>2021-08-07T05:50:53Z</time>
      </trkpt>
      <trkpt lat="51.05083" lon="2.43177">
        <ele>6.87</ele>
        <time>2021-08-07T05:51:00Z</time>
      </trkpt>
      <trkpt lat="51.0512" lon="2.43165">
        <ele>6.87</ele>
        <time>2021-08-07T05:51:08Z</time>
      </trkpt>
      <trkpt lat="51.05135" lon="2.43163">
        <ele>7.83</ele>
        <time>2021-08-07T05:51:11Z</time>
      </trkpt>
      <trkpt lat="51.05139" lon="2.43164">
        <ele>7.83</ele>
        <time>2021-08-07T05:51:12Z</time>
      </trkpt>
      <trkpt lat="51.05151" lon="2.43167">
        <ele>8.31</ele>
        <time>2021-08-07T05:51:14Z</time>
      </trkpt>
      <trkpt lat="51.05155" lon="2.43166">
        <ele>8.31</ele>
        <time>2021-08-07T05:51:15Z</time>
      </trkpt>
      <trkpt lat="51.05158" lon="2.43164">
        <ele>8.31</ele>
        <time>2021-08-07T05:51:16Z</time>
      </trkpt>
      <trkpt lat="51.05162" lon="2.43159">
        <ele>8.31</ele>
        <time>2021-08-07T05:51:17Z</time>
      </trkpt>
      <trkpt lat="51.05165" lon="2.43153">
        <ele>8.31</ele>
        <time>2021-08-07T05:51:18Z</time>
      </trkpt>
      <trkpt lat="51.05169" lon="2.43147">
        <ele>8.31</ele>
        <time>2021-08-07T05:51:19Z</time>
      </trkpt>
      <trkpt lat="51.05174" lon="2.43142">
        <ele>8.31</ele>
        <time>2021-08-07T05:51:20Z</time>
      </trkpt>
      <trkpt lat="51.05177" lon="2.4314">
        <ele>8.31</ele>
        <time>2021-08-07T05:51:21Z</time>
      </trkpt>
      <trkpt lat="51.05182" lon="2.43137">
        <ele>8.31</ele>
        <time>2021-08-07T05:51:22Z</time>
      </trkpt>
      <trkpt lat="51.05187" lon="2.43134">
        <ele>8.31</ele>
        <time>2021-08-07T05:51:23Z</time>
      </trkpt>
      <trkpt lat="51.05245" lon="2.43103">
        <ele>8.79</ele>
        <time>2021-08-07T05:51:34Z</time>
      </trkpt>
      <trkpt lat="51.05298" lon="2.43073">
        <ele>9.27</ele>
        <time>2021-08-07T05:51:44Z</time>
      </trkpt>
      <trkpt lat="51.05349" lon="2.43044">
        <ele>9.75</ele>
        <time>2021-08-07T05:51:53Z</time>
      </trkpt>
      <trkpt lat="51.05394" lon="2.43018">
        <ele>10.23</ele>
        <time>2021-08-07T05:52:01Z</time>
      </trkpt>
      <trkpt lat="51.05447" lon="2.4299">
        <ele>10.23</ele>
        <time>2021-08-07T05:52:10Z</time>
      </trkpt>
      <trkpt lat="51.05514" lon="2.42954">
        <ele>10.71</ele>
        <time>2021-08-07T05:52:21Z</time>
      </trkpt>
      <trkpt lat="51.0558" lon="2.42917">
        <ele>11.19</ele>
        <time>2021-08-07T05:52:32Z</time>
      </trkpt>
      <trkpt lat="51.05587" lon="2.42917">
        <ele>11.19</ele>
        <time>2021-08-07T05:52:33Z</time>
      </trkpt>
      <trkpt lat="51.05593" lon="2.42917">
        <ele>11.67</ele>
        <time>2021-08-07T05:52:34Z</time>
      </trkpt>
      <trkpt lat="51.056" lon="2.42915">
        <ele>11.67</ele>
        <time>2021-08-07T05:52:35Z</time>
      </trkpt>
      <trkpt lat="51.05605" lon="2.42914">
        <ele>11.67</ele>
        <time>2021-08-07T05:52:36Z</time>
      </trkpt>
      <trkpt lat="51.05669" lon="2.42882">
        <ele>11.67</ele>
        <time>2021-08-07T05:52:47Z</time>
      </trkpt>
      <trkpt lat="51.05673" lon="2.42878">
        <ele>11.67</ele>
        <time>2021-08-07T05:52:48Z</time>
      </trkpt>
      <trkpt lat="51.05674" lon="2.42872">
        <ele>11.67</ele>
        <time>2021-08-07T05:52:49Z</time>
      </trkpt>
      <trkpt lat="51.05674" lon="2.42864">
        <ele>11.67</ele>
        <time>2021-08-07T05:52:50Z</time>
      </trkpt>
      <trkpt lat="51.05674" lon="2.42857">
        <ele>11.67</ele>
        <time>2021-08-07T05:52:51Z</time>
      </trkpt>
      <trkpt lat="51.05674" lon="2.42851">
        <ele>11.67</ele>
        <time>2021-08-07T05:52:52Z</time>
      </trkpt>
      <trkpt lat="51.05675" lon="2.42842">
        <ele>11.67</ele>
        <time>2021-08-07T05:52:53Z</time>
      </trkpt>
      <trkpt lat="51.05674" lon="2.42835">
        <ele>11.67</ele>
        <time>2021-08-07T05:52:54Z</time>
      </trkpt>
      <trkpt lat="51.05673" lon="2.42828">
        <ele>11.67</ele>
        <time>2021-08-07T05:52:55Z</time>
      </trkpt>
      <trkpt lat="51.05671" lon="2.4282">
        <ele>11.67</ele>
        <time>2021-08-07T05:52:56Z</time>
      </trkpt>
      <trkpt lat="51.05669" lon="2.42813">
        <ele>11.67</ele>
        <time>2021-08-07T05:52:57Z</time>
      </trkpt>
      <trkpt lat="51.05648" lon="2.42723">
        <ele>11.67</ele>
        <time>2021-08-07T05:53:08Z</time>
      </trkpt>
      <trkpt lat="51.05625" lon="2.42625">
        <ele>11.67</ele>
        <time>2021-08-07T05:53:19Z</time>
      </trkpt>
      <trkpt lat="51.0561" lon="2.42567">
        <ele>11.67</ele>
        <time>2021-08-07T05:53:26Z</time>
      </trkpt>
      <trkpt lat="51.05605" lon="2.42561">
        <ele>11.67</ele>
        <time>2021-08-07T05:53:27Z</time>
      </trkpt>
      <trkpt lat="51.05602" lon="2.42554">
        <ele>11.67</ele>
        <time>2021-08-07T05:53:28Z</time>
      </trkpt>
      <trkpt lat="51.056" lon="2.42547">
        <ele>11.67</ele>
        <time>2021-08-07T05:53:29Z</time>
      </trkpt>
      <trkpt lat="51.056" lon="2.42538">
        <ele>11.67</ele>
        <time>2021-08-07T05:53:30Z</time>
      </trkpt>
      <trkpt lat="51.05599" lon="2.4253">
        <ele>11.67</ele>
        <time>2021-08-07T05:53:31Z</time>
      </trkpt>
      <trkpt lat="51.05598" lon="2.42519">
        <ele>11.67</ele>
        <time>2021-08-07T05:53:32Z</time>
      </trkpt>
      <trkpt lat="51.05597" lon="2.42511">
        <ele>11.67</ele>
        <time>2021-08-07T05:53:33Z</time>
      </trkpt>
      <trkpt lat="51.05595" lon="2.42503">
        <ele>11.67</ele>
        <time>2021-08-07T05:53:34Z</time>
      </trkpt>
      <trkpt lat="51.05593" lon="2.42494">
        <ele>11.67</ele>
        <time>2021-08-07T05:53:35Z</time>
      </trkpt>
      <trkpt lat="51.05567" lon="2.42387">
        <ele>10.23</ele>
        <time>2021-08-07T05:53:47Z</time>
      </trkpt>
      <trkpt lat="51.05564" lon="2.42368">
        <ele>10.23</ele>
        <time>2021-08-07T05:53:49Z</time>
      </trkpt>
      <trkpt lat="51.05564" lon="2.42359">
        <ele>10.23</ele>
        <time>2021-08-07T05:53:50Z</time>
      </trkpt>
      <trkpt lat="51.05566" lon="2.42352">
        <ele>10.23</ele>
        <time>2021-08-07T05:53:51Z</time>
      </trkpt>
      <trkpt lat="51.0557" lon="2.42325">
        <ele>10.23</ele>
        <time>2021-08-07T05:53:54Z</time>
      </trkpt>
      <trkpt lat="51.0557" lon="2.42316">
        <ele>10.23</ele>
        <time>2021-08-07T05:53:55Z</time>
      </trkpt>
      <trkpt lat="51.05569" lon="2.42306">
        <ele>10.23</ele>
        <time>2021-08-07T05:53:56Z</time>
      </trkpt>
      <trkpt lat="51.05567" lon="2.42297">
        <ele>10.23</ele>
        <time>2021-08-07T05:53:57Z</time>
      </trkpt>
      <trkpt lat="51.05565" lon="2.42287">
        <ele>10.23</ele>
        <time>2021-08-07T05:53:58Z</time>
      </trkpt>
      <trkpt lat="51.05542" lon="2.42175">
        <ele>10.23</ele>
        <time>2021-08-07T05:54:10Z</time>
      </trkpt>
      <trkpt lat="51.05512" lon="2.42032">
        <ele>10.23</ele>
        <time>2021-08-07T05:54:25Z</time>
      </trkpt>
      <trkpt lat="51.05505" lon="2.41994">
        <ele>9.75</ele>
        <time>2021-08-07T05:54:29Z</time>
      </trkpt>
      <trkpt lat="51.05503" lon="2.41983">
        <ele>9.75</ele>
        <time>2021-08-07T05:54:30Z</time>
      </trkpt>
      <trkpt lat="51.05486" lon="2.41906">
        <ele>9.75</ele>
        <time>2021-08-07T05:54:38Z</time>
      </trkpt>
      <trkpt lat="51.05456" lon="2.41761">
        <ele>9.75</ele>
        <time>2021-08-07T05:54:53Z</time>
      </trkpt>
      <trkpt lat="51.05429" lon="2.41627">
        <ele>9.75</ele>
        <time>2021-08-07T05:55:07Z</time>
      </trkpt>
      <trkpt lat="51.05405" lon="2.41511">
        <ele>9.75</ele>
        <time>2021-08-07T05:55:19Z</time>
      </trkpt>
      <trkpt lat="51.05387" lon="2.41424">
        <ele>9.75</ele>
        <time>2021-08-07T05:55:28Z</time>
      </trkpt>
      <trkpt lat="51.0537" lon="2.41336">
        <ele>9.75</ele>
        <time>2021-08-07T05:55:37Z</time>
      </trkpt>
      <trkpt lat="51.05346" lon="2.41219">
        <ele>9.75</ele>
        <time>2021-08-07T05:55:49Z</time>
      </trkpt>
      <trkpt lat="51.05329" lon="2.41167">
        <ele>9.75</ele>
        <time>2021-08-07T05:55:55Z</time>
      </trkpt>
      <trkpt lat="51.05309" lon="2.41075">
        <ele>9.75</ele>
        <time>2021-08-07T05:56:05Z</time>
      </trkpt>
      <trkpt lat="51.05289" lon="2.40976">
        <ele>9.27</ele>
        <time>2021-08-07T05:56:16Z</time>
      </trkpt>
      <trkpt lat="51.05284" lon="2.40947">
        <ele>10.71</ele>
        <time>2021-08-07T05:56:19Z</time>
      </trkpt>
      <trkpt lat="51.0527" lon="2.40854">
        <ele>10.71</ele>
        <time>2021-08-07T05:56:29Z</time>
      </trkpt>
      <trkpt lat="51.05249" lon="2.40743">
        <ele>10.71</ele>
        <time>2021-08-07T05:56:41Z</time>
      </trkpt>
      <trkpt lat="51.05232" lon="2.40653">
        <ele>10.71</ele>
        <time>2021-08-07T05:56:51Z</time>
      </trkpt>
      <trkpt lat="51.05212" lon="2.40551">
        <ele>10.71</ele>
        <time>2021-08-07T05:57:03Z</time>
      </trkpt>
      <trkpt lat="51.05197" lon="2.40466">
        <ele>10.71</ele>
        <time>2021-08-07T05:57:13Z</time>
      </trkpt>
      <trkpt lat="51.0518" lon="2.40362">
        <ele>10.71</ele>
        <time>2021-08-07T05:57:25Z</time>
      </trkpt>
      <trkpt lat="51.05163" lon="2.40272">
        <ele>10.71</ele>
        <time>2021-08-07T05:57:35Z</time>
      </trkpt>
      <trkpt lat="51.05146" lon="2.40176">
        <ele>10.71</ele>
        <time>2021-08-07T05:57:46Z</time>
      </trkpt>
      <trkpt lat="51.05132" lon="2.4008">
        <ele>10.71</ele>
        <time>2021-08-07T05:57:57Z</time>
      </trkpt>
      <trkpt lat="51.0512" lon="2.39997">
        <ele>10.71</ele>
        <time>2021-08-07T05:58:06Z</time>
      </trkpt>
      <trkpt lat="51.05114" lon="2.39949">
        <ele>9.27</ele>
        <time>2021-08-07T05:58:11Z</time>
      </trkpt>
      <trkpt lat="51.05103" lon="2.39871">
        <ele>10.23</ele>
        <time>2021-08-07T05:58:19Z</time>
      </trkpt>
      <trkpt lat="51.05089" lon="2.39766">
        <ele>8.79</ele>
        <time>2021-08-07T05:58:30Z</time>
      </trkpt>
      <trkpt lat="51.05073" lon="2.39666">
        <ele>8.79</ele>
        <time>2021-08-07T05:58:41Z</time>
      </trkpt>
      <trkpt lat="51.05071" lon="2.39656">
        <ele>8.79</ele>
        <time>2021-08-07T05:58:42Z</time>
      </trkpt>
      <trkpt lat="51.05069" lon="2.39638">
        <ele>8.79</ele>
        <time>2021-08-07T05:58:44Z</time>
      </trkpt>
      <trkpt lat="51.0507" lon="2.39629">
        <ele>8.79</ele>
        <time>2021-08-07T05:58:45Z</time>
      </trkpt>
      <trkpt lat="51.0507" lon="2.39619">
        <ele>8.79</ele>
        <time>2021-08-07T05:58:46Z</time>
      </trkpt>
      <trkpt lat="51.0507" lon="2.3961">
        <ele>8.79</ele>
        <time>2021-08-07T05:58:47Z</time>
      </trkpt>
      <trkpt lat="51.05069" lon="2.396">
        <ele>8.79</ele>
        <time>2021-08-07T05:58:48Z</time>
      </trkpt>
      <trkpt lat="51.05067" lon="2.3959">
        <ele>8.79</ele>
        <time>2021-08-07T05:58:49Z</time>
      </trkpt>
      <trkpt lat="51.05052" lon="2.39494">
        <ele>8.79</ele>
        <time>2021-08-07T05:58:59Z</time>
      </trkpt>
      <trkpt lat="51.05037" lon="2.3939">
        <ele>8.79</ele>
        <time>2021-08-07T05:59:10Z</time>
      </trkpt>
      <trkpt lat="51.05025" lon="2.39294">
        <ele>8.79</ele>
        <time>2021-08-07T05:59:20Z</time>
      </trkpt>
      <trkpt lat="51.05014" lon="2.39208">
        <ele>8.79</ele>
        <time>2021-08-07T05:59:29Z</time>
      </trkpt>
      <trkpt lat="51.05001" lon="2.39117">
        <ele>8.31</ele>
        <time>2021-08-07T05:59:38Z</time>
      </trkpt>
      <trkpt lat="51.04988" lon="2.39031">
        <ele>8.31</ele>
        <time>2021-08-07T05:59:47Z</time>
      </trkpt>
      <trkpt lat="51.04977" lon="2.38955">
        <ele>8.79</ele>
        <time>2021-08-07T05:59:55Z</time>
      </trkpt>
      <trkpt lat="51.04976" lon="2.38945">
        <ele>8.79</ele>
        <time>2021-08-07T05:59:56Z</time>
      </trkpt>
      <trkpt lat="51.04967" lon="2.38876">
        <ele>8.79</ele>
        <time>2021-08-07T06:00:04Z</time>
      </trkpt>
      <trkpt lat="51.04952" lon="2.38767">
        <ele>8.79</ele>
        <time>2021-08-07T06:00:16Z</time>
      </trkpt>
      <trkpt lat="51.04949" lon="2.38702">
        <ele>8.79</ele>
        <time>2021-08-07T06:00:23Z</time>
      </trkpt>
      <trkpt lat="51.04938" lon="2.38632">
        <ele>8.79</ele>
        <time>2021-08-07T06:00:31Z</time>
      </trkpt>
      <trkpt lat="51.0492" lon="2.38525">
        <ele>8.79</ele>
        <time>2021-08-07T06:00:43Z</time>
      </trkpt>
      <trkpt lat="51.04905" lon="2.38443">
        <ele>8.79</ele>
        <time>2021-08-07T06:00:52Z</time>
      </trkpt>
      <trkpt lat="51.04887" lon="2.38351">
        <ele>8.79</ele>
        <time>2021-08-07T06:01:02Z</time>
      </trkpt>
      <trkpt lat="51.04872" lon="2.38266">
        <ele>9.27</ele>
        <time>2021-08-07T06:01:11Z</time>
      </trkpt>
      <trkpt lat="51.04861" lon="2.38203">
        <ele>10.23</ele>
        <time>2021-08-07T06:01:19Z</time>
      </trkpt>
      <trkpt lat="51.04852" lon="2.38121">
        <ele>10.23</ele>
        <time>2021-08-07T06:01:29Z</time>
      </trkpt>
      <trkpt lat="51.04849" lon="2.38081">
        <ele>10.23</ele>
        <time>2021-08-07T06:01:34Z</time>
      </trkpt>
      <trkpt lat="51.04847" lon="2.38072">
        <ele>10.23</ele>
        <time>2021-08-07T06:01:35Z</time>
      </trkpt>
      <trkpt lat="51.04841" lon="2.3805">
        <ele>10.23</ele>
        <time>2021-08-07T06:01:38Z</time>
      </trkpt>
      <trkpt lat="51.0484" lon="2.38042">
        <ele>10.23</ele>
        <time>2021-08-07T06:01:39Z</time>
      </trkpt>
      <trkpt lat="51.0483" lon="2.37975">
        <ele>10.71</ele>
        <time>2021-08-07T06:01:48Z</time>
      </trkpt>
      <trkpt lat="51.04825" lon="2.37949">
        <ele>11.19</ele>
        <time>2021-08-07T06:01:52Z</time>
      </trkpt>
      <trkpt lat="51.04818" lon="2.37909">
        <ele>12.15</ele>
        <time>2021-08-07T06:01:58Z</time>
      </trkpt>
      <trkpt lat="51.04817" lon="2.37902">
        <ele>12.63</ele>
        <time>2021-08-07T06:01:59Z</time>
      </trkpt>
      <trkpt lat="51.04806" lon="2.37834">
        <ele>14.08</ele>
        <time>2021-08-07T06:02:09Z</time>
      </trkpt>
      <trkpt lat="51.04804" lon="2.37795">
        <ele>14.56</ele>
        <time>2021-08-07T06:02:15Z</time>
      </trkpt>
      <trkpt lat="51.0481" lon="2.3778">
        <ele>14.56</ele>
        <time>2021-08-07T06:02:18Z</time>
      </trkpt>
      <trkpt lat="51.04812" lon="2.37774">
        <ele>14.56</ele>
        <time>2021-08-07T06:02:19Z</time>
      </trkpt>
      <trkpt lat="51.04819" lon="2.37755">
        <ele>14.56</ele>
        <time>2021-08-07T06:02:22Z</time>
      </trkpt>
      <trkpt lat="51.04822" lon="2.3775">
        <ele>14.56</ele>
        <time>2021-08-07T06:02:23Z</time>
      </trkpt>
      <trkpt lat="51.04825" lon="2.37745">
        <ele>14.56</ele>
        <time>2021-08-07T06:02:24Z</time>
      </trkpt>
      <trkpt lat="51.04828" lon="2.37739">
        <ele>13.12</ele>
        <time>2021-08-07T06:02:25Z</time>
      </trkpt>
      <trkpt lat="51.0483" lon="2.37731">
        <ele>13.12</ele>
        <time>2021-08-07T06:02:26Z</time>
      </trkpt>
      <trkpt lat="51.04832" lon="2.37723">
        <ele>12.63</ele>
        <time>2021-08-07T06:02:27Z</time>
      </trkpt>
      <trkpt lat="51.04834" lon="2.37715">
        <ele>12.63</ele>
        <time>2021-08-07T06:02:28Z</time>
      </trkpt>
      <trkpt lat="51.04838" lon="2.37699">
        <ele>12.63</ele>
        <time>2021-08-07T06:02:30Z</time>
      </trkpt>
      <trkpt lat="51.04836" lon="2.37691">
        <ele>11.67</ele>
        <time>2021-08-07T06:02:31Z</time>
      </trkpt>
      <trkpt lat="51.04833" lon="2.37688">
        <ele>11.67</ele>
        <time>2021-08-07T06:02:32Z</time>
      </trkpt>
      <trkpt lat="51.04829" lon="2.3769">
        <ele>11.19</ele>
        <time>2021-08-07T06:02:33Z</time>
      </trkpt>
      <trkpt lat="51.04828" lon="2.37695">
        <ele>11.19</ele>
        <time>2021-08-07T06:02:34Z</time>
      </trkpt>
      <trkpt lat="51.04828" lon="2.37702">
        <ele>11.19</ele>
        <time>2021-08-07T06:02:35Z</time>
      </trkpt>
      <trkpt lat="51.04828" lon="2.37709">
        <ele>11.19</ele>
        <time>2021-08-07T06:02:36Z</time>
      </trkpt>
      <trkpt lat="51.04827" lon="2.37715">
        <ele>10.23</ele>
        <time>2021-08-07T06:02:37Z</time>
      </trkpt>
      <trkpt lat="51.04825" lon="2.37721">
        <ele>10.23</ele>
        <time>2021-08-07T06:02:38Z</time>
      </trkpt>
      <trkpt lat="51.04814" lon="2.3774">
        <ele>9.27</ele>
        <time>2021-08-07T06:02:41Z</time>
      </trkpt>
      <trkpt lat="51.04812" lon="2.37747">
        <ele>9.27</ele>
        <time>2021-08-07T06:02:42Z</time>
      </trkpt>
      <trkpt lat="51.04808" lon="2.37764">
        <ele>8.79</ele>
        <time>2021-08-07T06:02:44Z</time>
      </trkpt>
      <trkpt lat="51.04804" lon="2.3777">
        <ele>7.83</ele>
        <time>2021-08-07T06:02:45Z</time>
      </trkpt>
      <trkpt lat="51.04799" lon="2.37773">
        <ele>7.83</ele>
        <time>2021-08-07T06:02:46Z</time>
      </trkpt>
      <trkpt lat="51.04759" lon="2.37784">
        <ele>7.83</ele>
        <time>2021-08-07T06:02:53Z</time>
      </trkpt>
      <trkpt lat="51.04744" lon="2.37789">
        <ele>7.83</ele>
        <time>2021-08-07T06:02:56Z</time>
      </trkpt>
      <trkpt lat="51.047" lon="2.37798">
        <ele>7.83</ele>
        <time>2021-08-07T06:03:04Z</time>
      </trkpt>
      <trkpt lat="51.04658" lon="2.37807">
        <ele>7.35</ele>
        <time>2021-08-07T06:03:12Z</time>
      </trkpt>
      <trkpt lat="51.04654" lon="2.37808">
        <ele>7.35</ele>
        <time>2021-08-07T06:03:13Z</time>
      </trkpt>
      <trkpt lat="51.04649" lon="2.37805">
        <ele>7.35</ele>
        <time>2021-08-07T06:03:14Z</time>
      </trkpt>
      <trkpt lat="51.04646" lon="2.37799">
        <ele>7.35</ele>
        <time>2021-08-07T06:03:15Z</time>
      </trkpt>
      <trkpt lat="51.04644" lon="2.37792">
        <ele>7.35</ele>
        <time>2021-08-07T06:03:16Z</time>
      </trkpt>
      <trkpt lat="51.04643" lon="2.37785">
        <ele>7.35</ele>
        <time>2021-08-07T06:03:17Z</time>
      </trkpt>
      <trkpt lat="51.04626" lon="2.37711">
        <ele>7.35</ele>
        <time>2021-08-07T06:03:26Z</time>
      </trkpt>
      <trkpt lat="51.04624" lon="2.37696">
        <ele>7.35</ele>
        <time>2021-08-07T06:03:28Z</time>
      </trkpt>
      <trkpt lat="51.04623" lon="2.37689">
        <ele>8.31</ele>
        <time>2021-08-07T06:03:29Z</time>
      </trkpt>
      <trkpt lat="51.04622" lon="2.37684">
        <ele>8.31</ele>
        <time>2021-08-07T06:03:30Z</time>
      </trkpt>
      <trkpt lat="51.04621" lon="2.37676">
        <ele>8.31</ele>
        <time>2021-08-07T06:03:32Z</time>
      </trkpt>
      <trkpt lat="51.04622" lon="2.37672">
        <ele>8.31</ele>
        <time>2021-08-07T06:03:33Z</time>
      </trkpt>
      <trkpt lat="51.04623" lon="2.37667">
        <ele>8.31</ele>
        <time>2021-08-07T06:03:34Z</time>
      </trkpt>
      <trkpt lat="51.04623" lon="2.37658">
        <ele>8.31</ele>
        <time>2021-08-07T06:03:35Z</time>
      </trkpt>
      <trkpt lat="51.04623" lon="2.37653">
        <ele>8.31</ele>
        <time>2021-08-07T06:03:36Z</time>
      </trkpt>
      <trkpt lat="51.04622" lon="2.37647">
        <ele>8.31</ele>
        <time>2021-08-07T06:03:37Z</time>
      </trkpt>
      <trkpt lat="51.0462" lon="2.37639">
        <ele>8.31</ele>
        <time>2021-08-07T06:03:38Z</time>
      </trkpt>
      <trkpt lat="51.04611" lon="2.376">
        <ele>8.31</ele>
        <time>2021-08-07T06:03:43Z</time>
      </trkpt>
      <trkpt lat="51.04608" lon="2.37596">
        <ele>8.31</ele>
        <time>2021-08-07T06:03:44Z</time>
      </trkpt>
      <trkpt lat="51.04604" lon="2.37592">
        <ele>8.31</ele>
        <time>2021-08-07T06:03:45Z</time>
      </trkpt>
      <trkpt lat="51.046" lon="2.37586">
        <ele>8.31</ele>
        <time>2021-08-07T06:03:46Z</time>
      </trkpt>
      <trkpt lat="51.04598" lon="2.37579">
        <ele>8.31</ele>
        <time>2021-08-07T06:03:47Z</time>
      </trkpt>
      <trkpt lat="51.04596" lon="2.3757">
        <ele>8.31</ele>
        <time>2021-08-07T06:03:48Z</time>
      </trkpt>
      <trkpt lat="51.04595" lon="2.37563">
        <ele>8.31</ele>
        <time>2021-08-07T06:03:49Z</time>
      </trkpt>
      <trkpt lat="51.04587" lon="2.37521">
        <ele>8.31</ele>
        <time>2021-08-07T06:03:54Z</time>
      </trkpt>
      <trkpt lat="51.04572" lon="2.37442">
        <ele>8.31</ele>
        <time>2021-08-07T06:04:03Z</time>
      </trkpt>
      <trkpt lat="51.04569" lon="2.37407">
        <ele>8.31</ele>
        <time>2021-08-07T06:04:07Z</time>
      </trkpt>
      <trkpt lat="51.04568" lon="2.37397">
        <ele>8.31</ele>
        <time>2021-08-07T06:04:08Z</time>
      </trkpt>
      <trkpt lat="51.04568" lon="2.37381">
        <ele>8.31</ele>
        <time>2021-08-07T06:04:10Z</time>
      </trkpt>
      <trkpt lat="51.04566" lon="2.37375">
        <ele>8.31</ele>
        <time>2021-08-07T06:04:11Z</time>
      </trkpt>
      <trkpt lat="51.04562" lon="2.37371">
        <ele>8.31</ele>
        <time>2021-08-07T06:04:12Z</time>
      </trkpt>
      <trkpt lat="51.04558" lon="2.3737">
        <ele>8.31</ele>
        <time>2021-08-07T06:04:13Z</time>
      </trkpt>
      <trkpt lat="51.04553" lon="2.37373">
        <ele>8.79</ele>
        <time>2021-08-07T06:04:14Z</time>
      </trkpt>
      <trkpt lat="51.04549" lon="2.37378">
        <ele>8.79</ele>
        <time>2021-08-07T06:04:15Z</time>
      </trkpt>
      <trkpt lat="51.04545" lon="2.37384">
        <ele>7.35</ele>
        <time>2021-08-07T06:04:16Z</time>
      </trkpt>
      <trkpt lat="51.04541" lon="2.3739">
        <ele>7.35</ele>
        <time>2021-08-07T06:04:17Z</time>
      </trkpt>
      <trkpt lat="51.04537" lon="2.37396">
        <ele>7.35</ele>
        <time>2021-08-07T06:04:18Z</time>
      </trkpt>
      <trkpt lat="51.0451" lon="2.3743">
        <ele>7.83</ele>
        <time>2021-08-07T06:04:25Z</time>
      </trkpt>
      <trkpt lat="51.04484" lon="2.37472">
        <ele>7.35</ele>
        <time>2021-08-07T06:04:32Z</time>
      </trkpt>
      <trkpt lat="51.04477" lon="2.37483">
        <ele>7.35</ele>
        <time>2021-08-07T06:04:34Z</time>
      </trkpt>
      <trkpt lat="51.04445" lon="2.37519">
        <ele>7.35</ele>
        <time>2021-08-07T06:04:41Z</time>
      </trkpt>
      <trkpt lat="51.04432" lon="2.37535">
        <ele>7.35</ele>
        <time>2021-08-07T06:04:44Z</time>
      </trkpt>
      <trkpt lat="51.04423" lon="2.37543">
        <ele>7.35</ele>
        <time>2021-08-07T06:04:46Z</time>
      </trkpt>
      <trkpt lat="51.04419" lon="2.37545">
        <ele>7.35</ele>
        <time>2021-08-07T06:04:47Z</time>
      </trkpt>
      <trkpt lat="51.04367" lon="2.37551">
        <ele>7.83</ele>
        <time>2021-08-07T06:04:56Z</time>
      </trkpt>
      <trkpt lat="51.04316" lon="2.37564">
        <ele>7.35</ele>
        <time>2021-08-07T06:05:05Z</time>
      </trkpt>
      <trkpt lat="51.04312" lon="2.37567">
        <ele>7.35</ele>
        <time>2021-08-07T06:05:06Z</time>
      </trkpt>
      <trkpt lat="51.04275" lon="2.37603">
        <ele>6.87</ele>
        <time>2021-08-07T06:05:14Z</time>
      </trkpt>
      <trkpt lat="51.04248" lon="2.37635">
        <ele>8.31</ele>
        <time>2021-08-07T06:05:21Z</time>
      </trkpt>
      <trkpt lat="51.04226" lon="2.37663">
        <ele>6.87</ele>
        <time>2021-08-07T06:05:27Z</time>
      </trkpt>
      <trkpt lat="51.04183" lon="2.37718">
        <ele>6.87</ele>
        <time>2021-08-07T06:05:36Z</time>
      </trkpt>
      <trkpt lat="51.04156" lon="2.37753">
        <ele>7.35</ele>
        <time>2021-08-07T06:05:42Z</time>
      </trkpt>
      <trkpt lat="51.04118" lon="2.37805">
        <ele>7.83</ele>
        <time>2021-08-07T06:05:51Z</time>
      </trkpt>
      <trkpt lat="51.04103" lon="2.37822">
        <ele>7.83</ele>
        <time>2021-08-07T06:05:54Z</time>
      </trkpt>
      <trkpt lat="51.04098" lon="2.37826">
        <ele>7.83</ele>
        <time>2021-08-07T06:05:55Z</time>
      </trkpt>
      <trkpt lat="51.04082" lon="2.37835">
        <ele>7.83</ele>
        <time>2021-08-07T06:05:58Z</time>
      </trkpt>
      <trkpt lat="51.04076" lon="2.37836">
        <ele>7.83</ele>
        <time>2021-08-07T06:05:59Z</time>
      </trkpt>
      <trkpt lat="51.0407" lon="2.37835">
        <ele>7.83</ele>
        <time>2021-08-07T06:06:00Z</time>
      </trkpt>
      <trkpt lat="51.04065" lon="2.37835">
        <ele>7.83</ele>
        <time>2021-08-07T06:06:01Z</time>
      </trkpt>
      <trkpt lat="51.04059" lon="2.37834">
        <ele>7.83</ele>
        <time>2021-08-07T06:06:02Z</time>
      </trkpt>
      <trkpt lat="51.04002" lon="2.37824">
        <ele>7.83</ele>
        <time>2021-08-07T06:06:12Z</time>
      </trkpt>
      <trkpt lat="51.03962" lon="2.37804">
        <ele>8.79</ele>
        <time>2021-08-07T06:06:20Z</time>
      </trkpt>
      <trkpt lat="51.03925" lon="2.3777">
        <ele>8.79</ele>
        <time>2021-08-07T06:06:28Z</time>
      </trkpt>
      <trkpt lat="51.03901" lon="2.37742">
        <ele>7.35</ele>
        <time>2021-08-07T06:06:33Z</time>
      </trkpt>
      <trkpt lat="51.03897" lon="2.37735">
        <ele>7.35</ele>
        <time>2021-08-07T06:06:34Z</time>
      </trkpt>
      <trkpt lat="51.03893" lon="2.37727">
        <ele>7.35</ele>
        <time>2021-08-07T06:06:35Z</time>
      </trkpt>
      <trkpt lat="51.03891" lon="2.37718">
        <ele>7.35</ele>
        <time>2021-08-07T06:06:36Z</time>
      </trkpt>
      <trkpt lat="51.03888" lon="2.37709">
        <ele>7.35</ele>
        <time>2021-08-07T06:06:37Z</time>
      </trkpt>
      <trkpt lat="51.03861" lon="2.37623">
        <ele>7.35</ele>
        <time>2021-08-07T06:06:47Z</time>
      </trkpt>
      <trkpt lat="51.03841" lon="2.37552">
        <ele>7.35</ele>
        <time>2021-08-07T06:06:55Z</time>
      </trkpt>
      <trkpt lat="51.03839" lon="2.37544">
        <ele>7.35</ele>
        <time>2021-08-07T06:06:56Z</time>
      </trkpt>
      <trkpt lat="51.03805" lon="2.37478">
        <ele>7.35</ele>
        <time>2021-08-07T06:07:05Z</time>
      </trkpt>
      <trkpt lat="51.03765" lon="2.37414">
        <ele>7.35</ele>
        <time>2021-08-07T06:07:14Z</time>
      </trkpt>
      <trkpt lat="51.03726" lon="2.37367">
        <ele>7.35</ele>
        <time>2021-08-07T06:07:22Z</time>
      </trkpt>
      <trkpt lat="51.03675" lon="2.37323">
        <ele>7.35</ele>
        <time>2021-08-07T06:07:32Z</time>
      </trkpt>
      <trkpt lat="51.03623" lon="2.37287">
        <ele>8.79</ele>
        <time>2021-08-07T06:07:42Z</time>
      </trkpt>
      <trkpt lat="51.03618" lon="2.37283">
        <ele>8.79</ele>
        <time>2021-08-07T06:07:43Z</time>
      </trkpt>
      <trkpt lat="51.03614" lon="2.37279">
        <ele>8.79</ele>
        <time>2021-08-07T06:07:44Z</time>
      </trkpt>
      <trkpt lat="51.03573" lon="2.37252">
        <ele>8.79</ele>
        <time>2021-08-07T06:07:53Z</time>
      </trkpt>
      <trkpt lat="51.03569" lon="2.37248">
        <ele>8.79</ele>
        <time>2021-08-07T06:07:54Z</time>
      </trkpt>
      <trkpt lat="51.03565" lon="2.37245">
        <ele>8.79</ele>
        <time>2021-08-07T06:07:55Z</time>
      </trkpt>
      <trkpt lat="51.03561" lon="2.37242">
        <ele>8.79</ele>
        <time>2021-08-07T06:07:56Z</time>
      </trkpt>
      <trkpt lat="51.03515" lon="2.37228">
        <ele>7.83</ele>
        <time>2021-08-07T06:08:05Z</time>
      </trkpt>
      <trkpt lat="51.0345" lon="2.37208">
        <ele>7.83</ele>
        <time>2021-08-07T06:08:17Z</time>
      </trkpt>
      <trkpt lat="51.0339" lon="2.37188">
        <ele>7.83</ele>
        <time>2021-08-07T06:08:28Z</time>
      </trkpt>
      <trkpt lat="51.03314" lon="2.37163">
        <ele>7.83</ele>
        <time>2021-08-07T06:08:42Z</time>
      </trkpt>
      <trkpt lat="51.03276" lon="2.37151">
        <ele>7.83</ele>
        <time>2021-08-07T06:08:49Z</time>
      </trkpt>
      <trkpt lat="51.0327" lon="2.37151">
        <ele>7.83</ele>
        <time>2021-08-07T06:08:50Z</time>
      </trkpt>
      <trkpt lat="51.03265" lon="2.37153">
        <ele>7.35</ele>
        <time>2021-08-07T06:08:51Z</time>
      </trkpt>
      <trkpt lat="51.03246" lon="2.37161">
        <ele>6.87</ele>
        <time>2021-08-07T06:08:55Z</time>
      </trkpt>
      <trkpt lat="51.03241" lon="2.37162">
        <ele>6.87</ele>
        <time>2021-08-07T06:08:56Z</time>
      </trkpt>
      <trkpt lat="51.03211" lon="2.37163">
        <ele>6.87</ele>
        <time>2021-08-07T06:09:02Z</time>
      </trkpt>
      <trkpt lat="51.03208" lon="2.37161">
        <ele>6.87</ele>
        <time>2021-08-07T06:09:03Z</time>
      </trkpt>
      <trkpt lat="51.03199" lon="2.37159">
        <ele>8.31</ele>
        <time>2021-08-07T06:09:08Z</time>
      </trkpt>
      <trkpt lat="51.03185" lon="2.37149">
        <ele>8.31</ele>
        <time>2021-08-07T06:09:12Z</time>
      </trkpt>
      <trkpt lat="51.03183" lon="2.37143">
        <ele>8.31</ele>
        <time>2021-08-07T06:09:13Z</time>
      </trkpt>
      <trkpt lat="51.03181" lon="2.37139">
        <ele>8.31</ele>
        <time>2021-08-07T06:09:14Z</time>
      </trkpt>
      <trkpt lat="51.03179" lon="2.37134">
        <ele>8.31</ele>
        <time>2021-08-07T06:09:15Z</time>
      </trkpt>
      <trkpt lat="51.03177" lon="2.37128">
        <ele>8.31</ele>
        <time>2021-08-07T06:09:16Z</time>
      </trkpt>
      <trkpt lat="51.03174" lon="2.37125">
        <ele>7.83</ele>
        <time>2021-08-07T06:09:17Z</time>
      </trkpt>
      <trkpt lat="51.0317" lon="2.37122">
        <ele>7.83</ele>
        <time>2021-08-07T06:09:18Z</time>
      </trkpt>
      <trkpt lat="51.03166" lon="2.37122">
        <ele>8.31</ele>
        <time>2021-08-07T06:09:19Z</time>
      </trkpt>
      <trkpt lat="51.03163" lon="2.37122">
        <ele>7.83</ele>
        <time>2021-08-07T06:09:20Z</time>
      </trkpt>
      <trkpt lat="51.03158" lon="2.37122">
        <ele>7.83</ele>
        <time>2021-08-07T06:09:21Z</time>
      </trkpt>
      <trkpt lat="51.03153" lon="2.37122">
        <ele>7.83</ele>
        <time>2021-08-07T06:09:22Z</time>
      </trkpt>
      <trkpt lat="51.03143" lon="2.37123">
        <ele>6.87</ele>
        <time>2021-08-07T06:09:24Z</time>
      </trkpt>
      <trkpt lat="51.03102" lon="2.37122">
        <ele>6.87</ele>
        <time>2021-08-07T06:09:32Z</time>
      </trkpt>
      <trkpt lat="51.03098" lon="2.3712">
        <ele>6.87</ele>
        <time>2021-08-07T06:09:33Z</time>
      </trkpt>
      <trkpt lat="51.03089" lon="2.37114">
        <ele>6.87</ele>
        <time>2021-08-07T06:09:35Z</time>
      </trkpt>
      <trkpt lat="51.03085" lon="2.37113">
        <ele>6.87</ele>
        <time>2021-08-07T06:09:36Z</time>
      </trkpt>
      <trkpt lat="51.03081" lon="2.37115">
        <ele>6.87</ele>
        <time>2021-08-07T06:09:37Z</time>
      </trkpt>
      <trkpt lat="51.03077" lon="2.37118">
        <ele>6.87</ele>
        <time>2021-08-07T06:09:38Z</time>
      </trkpt>
      <trkpt lat="51.03072" lon="2.37121">
        <ele>6.87</ele>
        <time>2021-08-07T06:09:39Z</time>
      </trkpt>
      <trkpt lat="51.03069" lon="2.37123">
        <ele>6.87</ele>
        <time>2021-08-07T06:09:40Z</time>
      </trkpt>
      <trkpt lat="51.03063" lon="2.37123">
        <ele>6.87</ele>
        <time>2021-08-07T06:09:41Z</time>
      </trkpt>
      <trkpt lat="51.03058" lon="2.37124">
        <ele>6.87</ele>
        <time>2021-08-07T06:09:42Z</time>
      </trkpt>
      <trkpt lat="51.03044" lon="2.37125">
        <ele>8.31</ele>
        <time>2021-08-07T06:09:45Z</time>
      </trkpt>
      <trkpt lat="51.03039" lon="2.37125">
        <ele>8.31</ele>
        <time>2021-08-07T06:09:46Z</time>
      </trkpt>
      <trkpt lat="51.03019" lon="2.37128">
        <ele>8.31</ele>
        <time>2021-08-07T06:09:50Z</time>
      </trkpt>
      <trkpt lat="51.03015" lon="2.37128">
        <ele>8.31</ele>
        <time>2021-08-07T06:09:51Z</time>
      </trkpt>
      <trkpt lat="51.03011" lon="2.37127">
        <ele>8.31</ele>
        <time>2021-08-07T06:09:52Z</time>
      </trkpt>
      <trkpt lat="51.03006" lon="2.37128">
        <ele>8.31</ele>
        <time>2021-08-07T06:09:53Z</time>
      </trkpt>
      <trkpt lat="51.03001" lon="2.37129">
        <ele>8.31</ele>
        <time>2021-08-07T06:09:54Z</time>
      </trkpt>
      <trkpt lat="51.02965" lon="2.37144">
        <ele>8.79</ele>
        <time>2021-08-07T06:10:02Z</time>
      </trkpt>
      <trkpt lat="51.02942" lon="2.3715">
        <ele>8.79</ele>
        <time>2021-08-07T06:10:09Z</time>
      </trkpt>
      <trkpt lat="51.0294" lon="2.37148">
        <ele>8.79</ele>
        <time>2021-08-07T06:10:10Z</time>
      </trkpt>
      <trkpt lat="51.02938" lon="2.37146">
        <ele>8.79</ele>
        <time>2021-08-07T06:10:11Z</time>
      </trkpt>
      <trkpt lat="51.02936" lon="2.37145">
        <ele>8.79</ele>
        <time>2021-08-07T06:10:12Z</time>
      </trkpt>
      <trkpt lat="51.02934" lon="2.37145">
        <ele>8.79</ele>
        <time>2021-08-07T06:10:13Z</time>
      </trkpt>
      <trkpt lat="51.02932" lon="2.37147">
        <ele>8.79</ele>
        <time>2021-08-07T06:10:14Z</time>
      </trkpt>
      <trkpt lat="51.02931" lon="2.37148">
        <ele>8.79</ele>
        <time>2021-08-07T06:10:15Z</time>
      </trkpt>
      <trkpt lat="51.02929" lon="2.37149">
        <ele>8.79</ele>
        <time>2021-08-07T06:10:16Z</time>
      </trkpt>
      <trkpt lat="51.02928" lon="2.3715">
        <ele>8.79</ele>
        <time>2021-08-07T06:10:17Z</time>
      </trkpt>
      <trkpt lat="51.02926" lon="2.3715">
        <ele>8.79</ele>
        <time>2021-08-07T06:10:23Z</time>
      </trkpt>
      <trkpt lat="51.02926" lon="2.37151">
        <ele>8.79</ele>
        <time>2021-08-07T06:10:28Z</time>
      </trkpt>
      <trkpt lat="51.02924" lon="2.37152">
        <ele>7.35</ele>
        <time>2021-08-07T06:10:29Z</time>
      </trkpt>
      <trkpt lat="51.0291" lon="2.3717">
        <ele>6.87</ele>
        <time>2021-08-07T06:10:35Z</time>
      </trkpt>
      <trkpt lat="51.02906" lon="2.37172">
        <ele>6.87</ele>
        <time>2021-08-07T06:10:36Z</time>
      </trkpt>
      <trkpt lat="51.02876" lon="2.37186">
        <ele>6.39</ele>
        <time>2021-08-07T06:10:42Z</time>
      </trkpt>
      <trkpt lat="51.02828" lon="2.37209">
        <ele>5.91</ele>
        <time>2021-08-07T06:10:50Z</time>
      </trkpt>
      <trkpt lat="51.02764" lon="2.37241">
        <ele>4.94</ele>
        <time>2021-08-07T06:11:01Z</time>
      </trkpt>
      <trkpt lat="51.02717" lon="2.37262">
        <ele>4.94</ele>
        <time>2021-08-07T06:11:09Z</time>
      </trkpt>
      <trkpt lat="51.02646" lon="2.37289">
        <ele>5.42</ele>
        <time>2021-08-07T06:11:21Z</time>
      </trkpt>
      <trkpt lat="51.02592" lon="2.37309">
        <ele>4.46</ele>
        <time>2021-08-07T06:11:30Z</time>
      </trkpt>
      <trkpt lat="51.02571" lon="2.37317">
        <ele>5.91</ele>
        <time>2021-08-07T06:11:34Z</time>
      </trkpt>
      <trkpt lat="51.02523" lon="2.37338">
        <ele>5.91</ele>
        <time>2021-08-07T06:11:43Z</time>
      </trkpt>
      <trkpt lat="51.02475" lon="2.37359">
        <ele>5.91</ele>
        <time>2021-08-07T06:11:52Z</time>
      </trkpt>
      <trkpt lat="51.02423" lon="2.37384">
        <ele>6.39</ele>
        <time>2021-08-07T06:12:03Z</time>
      </trkpt>
      <trkpt lat="51.0242" lon="2.37387">
        <ele>6.39</ele>
        <time>2021-08-07T06:12:04Z</time>
      </trkpt>
      <trkpt lat="51.02417" lon="2.37392">
        <ele>6.39</ele>
        <time>2021-08-07T06:12:05Z</time>
      </trkpt>
      <trkpt lat="51.02415" lon="2.37399">
        <ele>6.39</ele>
        <time>2021-08-07T06:12:06Z</time>
      </trkpt>
      <trkpt lat="51.02415" lon="2.37405">
        <ele>6.39</ele>
        <time>2021-08-07T06:12:07Z</time>
      </trkpt>
      <trkpt lat="51.02414" lon="2.37412">
        <ele>6.87</ele>
        <time>2021-08-07T06:12:08Z</time>
      </trkpt>
      <trkpt lat="51.02407" lon="2.3747">
        <ele>7.35</ele>
        <time>2021-08-07T06:12:17Z</time>
      </trkpt>
      <trkpt lat="51.02403" lon="2.37496">
        <ele>7.35</ele>
        <time>2021-08-07T06:12:21Z</time>
      </trkpt>
      <trkpt lat="51.024" lon="2.375">
        <ele>7.35</ele>
        <time>2021-08-07T06:12:22Z</time>
      </trkpt>
      <trkpt lat="51.02396" lon="2.37502">
        <ele>7.35</ele>
        <time>2021-08-07T06:12:23Z</time>
      </trkpt>
      <trkpt lat="51.02393" lon="2.37503">
        <ele>7.35</ele>
        <time>2021-08-07T06:12:24Z</time>
      </trkpt>
      <trkpt lat="51.02389" lon="2.37506">
        <ele>7.35</ele>
        <time>2021-08-07T06:12:25Z</time>
      </trkpt>
      <trkpt lat="51.02386" lon="2.3751">
        <ele>7.35</ele>
        <time>2021-08-07T06:12:26Z</time>
      </trkpt>
      <trkpt lat="51.02384" lon="2.37515">
        <ele>7.35</ele>
        <time>2021-08-07T06:12:27Z</time>
      </trkpt>
      <trkpt lat="51.02383" lon="2.37523">
        <ele>7.35</ele>
        <time>2021-08-07T06:12:28Z</time>
      </trkpt>
      <trkpt lat="51.02385" lon="2.3753">
        <ele>7.35</ele>
        <time>2021-08-07T06:12:29Z</time>
      </trkpt>
      <trkpt lat="51.02388" lon="2.37536">
        <ele>7.83</ele>
        <time>2021-08-07T06:12:30Z</time>
      </trkpt>
      <trkpt lat="51.02415" lon="2.37604">
        <ele>7.83</ele>
        <time>2021-08-07T06:12:40Z</time>
      </trkpt>
      <trkpt lat="51.02441" lon="2.3767">
        <ele>7.83</ele>
        <time>2021-08-07T06:12:49Z</time>
      </trkpt>
      <trkpt lat="51.02461" lon="2.37717">
        <ele>7.83</ele>
        <time>2021-08-07T06:12:56Z</time>
      </trkpt>
      <trkpt lat="51.02462" lon="2.37724">
        <ele>7.83</ele>
        <time>2021-08-07T06:12:57Z</time>
      </trkpt>
      <trkpt lat="51.02462" lon="2.3773">
        <ele>7.83</ele>
        <time>2021-08-07T06:12:58Z</time>
      </trkpt>
      <trkpt lat="51.02461" lon="2.37735">
        <ele>7.83</ele>
        <time>2021-08-07T06:12:59Z</time>
      </trkpt>
      <trkpt lat="51.02459" lon="2.37738">
        <ele>7.83</ele>
        <time>2021-08-07T06:13:00Z</time>
      </trkpt>
      <trkpt lat="51.02456" lon="2.37741">
        <ele>7.83</ele>
        <time>2021-08-07T06:13:01Z</time>
      </trkpt>
      <trkpt lat="51.02453" lon="2.37743">
        <ele>7.83</ele>
        <time>2021-08-07T06:13:02Z</time>
      </trkpt>
      <trkpt lat="51.02421" lon="2.37763">
        <ele>7.83</ele>
        <time>2021-08-07T06:13:11Z</time>
      </trkpt>
      <trkpt lat="51.02418" lon="2.37764">
        <ele>7.83</ele>
        <time>2021-08-07T06:13:12Z</time>
      </trkpt>
      <trkpt lat="51.02414" lon="2.37761">
        <ele>7.83</ele>
        <time>2021-08-07T06:13:13Z</time>
      </trkpt>
      <trkpt lat="51.02411" lon="2.37755">
        <ele>7.83</ele>
        <time>2021-08-07T06:13:14Z</time>
      </trkpt>
      <trkpt lat="51.02403" lon="2.37738">
        <ele>6.39</ele>
        <time>2021-08-07T06:13:17Z</time>
      </trkpt>
      <trkpt lat="51.02378" lon="2.37675">
        <ele>6.39</ele>
        <time>2021-08-07T06:13:25Z</time>
      </trkpt>
      <trkpt lat="51.02344" lon="2.37623">
        <ele>5.42</ele>
        <time>2021-08-07T06:13:33Z</time>
      </trkpt>
      <trkpt lat="51.02301" lon="2.37571">
        <ele>5.42</ele>
        <time>2021-08-07T06:13:42Z</time>
      </trkpt>
      <trkpt lat="51.02263" lon="2.37552">
        <ele>5.42</ele>
        <time>2021-08-07T06:13:49Z</time>
      </trkpt>
      <trkpt lat="51.02218" lon="2.3756">
        <ele>5.42</ele>
        <time>2021-08-07T06:13:57Z</time>
      </trkpt>
      <trkpt lat="51.02165" lon="2.37585">
        <ele>4.94</ele>
        <time>2021-08-07T06:14:07Z</time>
      </trkpt>
      <trkpt lat="51.02118" lon="2.37608">
        <ele>6.39</ele>
        <time>2021-08-07T06:14:16Z</time>
      </trkpt>
      <trkpt lat="51.02061" lon="2.37634">
        <ele>6.39</ele>
        <time>2021-08-07T06:14:27Z</time>
      </trkpt>
      <trkpt lat="51.02018" lon="2.37656">
        <ele>6.39</ele>
        <time>2021-08-07T06:14:36Z</time>
      </trkpt>
      <trkpt lat="51.01982" lon="2.37672">
        <ele>6.87</ele>
        <time>2021-08-07T06:14:44Z</time>
      </trkpt>
      <trkpt lat="51.01938" lon="2.37689">
        <ele>5.91</ele>
        <time>2021-08-07T06:14:53Z</time>
      </trkpt>
      <trkpt lat="51.01885" lon="2.37715">
        <ele>5.42</ele>
        <time>2021-08-07T06:15:03Z</time>
      </trkpt>
      <trkpt lat="51.01836" lon="2.37741">
        <ele>6.39</ele>
        <time>2021-08-07T06:15:13Z</time>
      </trkpt>
      <trkpt lat="51.01787" lon="2.37764">
        <ele>7.35</ele>
        <time>2021-08-07T06:15:23Z</time>
      </trkpt>
      <trkpt lat="51.01762" lon="2.37777">
        <ele>7.35</ele>
        <time>2021-08-07T06:15:28Z</time>
      </trkpt>
      <trkpt lat="51.01758" lon="2.37779">
        <ele>7.35</ele>
        <time>2021-08-07T06:15:29Z</time>
      </trkpt>
      <trkpt lat="51.01754" lon="2.3778">
        <ele>7.35</ele>
        <time>2021-08-07T06:15:30Z</time>
      </trkpt>
      <trkpt lat="51.01749" lon="2.37782">
        <ele>7.35</ele>
        <time>2021-08-07T06:15:31Z</time>
      </trkpt>
      <trkpt lat="51.01743" lon="2.37785">
        <ele>7.35</ele>
        <time>2021-08-07T06:15:32Z</time>
      </trkpt>
      <trkpt lat="51.01738" lon="2.37788">
        <ele>7.35</ele>
        <time>2021-08-07T06:15:33Z</time>
      </trkpt>
      <trkpt lat="51.01727" lon="2.37793">
        <ele>5.91</ele>
        <time>2021-08-07T06:15:35Z</time>
      </trkpt>
      <trkpt lat="51.01661" lon="2.37826">
        <ele>5.42</ele>
        <time>2021-08-07T06:15:46Z</time>
      </trkpt>
      <trkpt lat="51.01592" lon="2.3786">
        <ele>5.42</ele>
        <time>2021-08-07T06:15:58Z</time>
      </trkpt>
      <trkpt lat="51.01539" lon="2.37885">
        <ele>6.39</ele>
        <time>2021-08-07T06:16:08Z</time>
      </trkpt>
      <trkpt lat="51.01524" lon="2.3789">
        <ele>6.39</ele>
        <time>2021-08-07T06:16:11Z</time>
      </trkpt>
      <trkpt lat="51.01518" lon="2.37892">
        <ele>6.39</ele>
        <time>2021-08-07T06:16:12Z</time>
      </trkpt>
      <trkpt lat="51.0147" lon="2.37915">
        <ele>5.42</ele>
        <time>2021-08-07T06:16:20Z</time>
      </trkpt>
      <trkpt lat="51.01417" lon="2.37939">
        <ele>5.42</ele>
        <time>2021-08-07T06:16:28Z</time>
      </trkpt>
      <trkpt lat="51.01345" lon="2.37973">
        <ele>5.42</ele>
        <time>2021-08-07T06:16:39Z</time>
      </trkpt>
      <trkpt lat="51.0129" lon="2.38006">
        <ele>4.46</ele>
        <time>2021-08-07T06:16:48Z</time>
      </trkpt>
      <trkpt lat="51.01224" lon="2.38036">
        <ele>4.46</ele>
        <time>2021-08-07T06:16:59Z</time>
      </trkpt>
      <trkpt lat="51.01212" lon="2.38038">
        <ele>5.91</ele>
        <time>2021-08-07T06:17:01Z</time>
      </trkpt>
      <trkpt lat="51.01172" lon="2.38053">
        <ele>5.91</ele>
        <time>2021-08-07T06:17:07Z</time>
      </trkpt>
      <trkpt lat="51.01159" lon="2.38059">
        <ele>4.46</ele>
        <time>2021-08-07T06:17:09Z</time>
      </trkpt>
      <trkpt lat="51.01094" lon="2.38088">
        <ele>3.5</ele>
        <time>2021-08-07T06:17:19Z</time>
      </trkpt>
      <trkpt lat="51.0103" lon="2.3811">
        <ele>3.5</ele>
        <time>2021-08-07T06:17:29Z</time>
      </trkpt>
      <trkpt lat="51.00949" lon="2.3814">
        <ele>3.5</ele>
        <time>2021-08-07T06:17:42Z</time>
      </trkpt>
      <trkpt lat="51.00886" lon="2.38162">
        <ele>3.5</ele>
        <time>2021-08-07T06:17:51Z</time>
      </trkpt>
      <trkpt lat="51.00842" lon="2.3818">
        <ele>3.5</ele>
        <time>2021-08-07T06:17:58Z</time>
      </trkpt>
      <trkpt lat="51.00789" lon="2.38199">
        <ele>3.5</ele>
        <time>2021-08-07T06:18:07Z</time>
      </trkpt>
      <trkpt lat="51.00737" lon="2.38218">
        <ele>3.5</ele>
        <time>2021-08-07T06:18:16Z</time>
      </trkpt>
      <trkpt lat="51.0067" lon="2.38245">
        <ele>3.5</ele>
        <time>2021-08-07T06:18:27Z</time>
      </trkpt>
      <trkpt lat="51.00623" lon="2.38261">
        <ele>3.5</ele>
        <time>2021-08-07T06:18:35Z</time>
      </trkpt>
      <trkpt lat="51.00559" lon="2.38285">
        <ele>3.5</ele>
        <time>2021-08-07T06:18:46Z</time>
      </trkpt>
      <trkpt lat="51.00508" lon="2.38305">
        <ele>3.5</ele>
        <time>2021-08-07T06:18:55Z</time>
      </trkpt>
      <trkpt lat="51.0047" lon="2.38324">
        <ele>4.46</ele>
        <time>2021-08-07T06:19:03Z</time>
      </trkpt>
      <trkpt lat="51.0042" lon="2.38346">
        <ele>5.42</ele>
        <time>2021-08-07T06:19:13Z</time>
      </trkpt>
      <trkpt lat="51.00389" lon="2.38361">
        <ele>5.42</ele>
        <time>2021-08-07T06:19:19Z</time>
      </trkpt>
      <trkpt lat="51.00346" lon="2.38377">
        <ele>5.42</ele>
        <time>2021-08-07T06:19:27Z</time>
      </trkpt>
      <trkpt lat="51.00311" lon="2.38394">
        <ele>5.42</ele>
        <time>2021-08-07T06:19:35Z</time>
      </trkpt>
      <trkpt lat="51.00293" lon="2.38405">
        <ele>5.91</ele>
        <time>2021-08-07T06:19:42Z</time>
      </trkpt>
      <trkpt lat="51.00281" lon="2.38413">
        <ele>6.39</ele>
        <time>2021-08-07T06:19:46Z</time>
      </trkpt>
      <trkpt lat="51.00278" lon="2.38417">
        <ele>6.39</ele>
        <time>2021-08-07T06:19:47Z</time>
      </trkpt>
      <trkpt lat="51.00276" lon="2.38422">
        <ele>6.39</ele>
        <time>2021-08-07T06:19:48Z</time>
      </trkpt>
      <trkpt lat="51.00275" lon="2.38427">
        <ele>6.39</ele>
        <time>2021-08-07T06:19:49Z</time>
      </trkpt>
      <trkpt lat="51.00277" lon="2.38434">
        <ele>6.39</ele>
        <time>2021-08-07T06:19:50Z</time>
      </trkpt>
      <trkpt lat="51.00279" lon="2.38439">
        <ele>6.39</ele>
        <time>2021-08-07T06:19:51Z</time>
      </trkpt>
      <trkpt lat="51.00282" lon="2.38445">
        <ele>6.39</ele>
        <time>2021-08-07T06:19:52Z</time>
      </trkpt>
      <trkpt lat="51.00286" lon="2.38452">
        <ele>6.39</ele>
        <time>2021-08-07T06:19:53Z</time>
      </trkpt>
      <trkpt lat="51.0029" lon="2.38458">
        <ele>6.39</ele>
        <time>2021-08-07T06:19:54Z</time>
      </trkpt>
      <trkpt lat="51.00295" lon="2.38464">
        <ele>6.39</ele>
        <time>2021-08-07T06:19:55Z</time>
      </trkpt>
      <trkpt lat="51.00317" lon="2.38489">
        <ele>4.94</ele>
        <time>2021-08-07T06:19:59Z</time>
      </trkpt>
      <trkpt lat="51.00335" lon="2.38511">
        <ele>4.46</ele>
        <time>2021-08-07T06:20:02Z</time>
      </trkpt>
      <trkpt lat="51.00362" lon="2.3857">
        <ele>3.98</ele>
        <time>2021-08-07T06:20:08Z</time>
      </trkpt>
      <trkpt lat="51.00372" lon="2.38614">
        <ele>3.5</ele>
        <time>2021-08-07T06:20:12Z</time>
      </trkpt>
      <trkpt lat="51.00374" lon="2.38625">
        <ele>3.5</ele>
        <time>2021-08-07T06:20:13Z</time>
      </trkpt>
      <trkpt lat="51.00374" lon="2.38686">
        <ele>4.94</ele>
        <time>2021-08-07T06:20:19Z</time>
      </trkpt>
      <trkpt lat="51.00373" lon="2.38695">
        <ele>4.94</ele>
        <time>2021-08-07T06:20:20Z</time>
      </trkpt>
      <trkpt lat="51.00351" lon="2.3881">
        <ele>5.91</ele>
        <time>2021-08-07T06:20:31Z</time>
      </trkpt>
      <trkpt lat="51.00334" lon="2.38917">
        <ele>6.39</ele>
        <time>2021-08-07T06:20:42Z</time>
      </trkpt>
      <trkpt lat="51.00331" lon="2.39009">
        <ele>5.91</ele>
        <time>2021-08-07T06:20:51Z</time>
      </trkpt>
      <trkpt lat="51.00328" lon="2.39105">
        <ele>4.94</ele>
        <time>2021-08-07T06:21:00Z</time>
      </trkpt>
      <trkpt lat="51.00332" lon="2.39176">
        <ele>4.46</ele>
        <time>2021-08-07T06:21:07Z</time>
      </trkpt>
      <trkpt lat="51.00334" lon="2.39185">
        <ele>4.46</ele>
        <time>2021-08-07T06:21:08Z</time>
      </trkpt>
      <trkpt lat="51.00336" lon="2.39195">
        <ele>4.46</ele>
        <time>2021-08-07T06:21:09Z</time>
      </trkpt>
      <trkpt lat="51.00338" lon="2.39205">
        <ele>4.46</ele>
        <time>2021-08-07T06:21:10Z</time>
      </trkpt>
      <trkpt lat="51.00341" lon="2.39215">
        <ele>4.46</ele>
        <time>2021-08-07T06:21:11Z</time>
      </trkpt>
      <trkpt lat="51.00359" lon="2.39293">
        <ele>3.98</ele>
        <time>2021-08-07T06:21:19Z</time>
      </trkpt>
      <trkpt lat="51.0036" lon="2.39357">
        <ele>3.98</ele>
        <time>2021-08-07T06:21:25Z</time>
      </trkpt>
      <trkpt lat="51.00354" lon="2.39434">
        <ele>3.98</ele>
        <time>2021-08-07T06:21:33Z</time>
      </trkpt>
      <trkpt lat="51.00349" lon="2.3949">
        <ele>3.98</ele>
        <time>2021-08-07T06:21:39Z</time>
      </trkpt>
      <trkpt lat="51.00347" lon="2.39499">
        <ele>3.98</ele>
        <time>2021-08-07T06:21:40Z</time>
      </trkpt>
      <trkpt lat="51.00345" lon="2.39508">
        <ele>3.98</ele>
        <time>2021-08-07T06:21:41Z</time>
      </trkpt>
      <trkpt lat="51.00343" lon="2.39518">
        <ele>3.98</ele>
        <time>2021-08-07T06:21:42Z</time>
      </trkpt>
      <trkpt lat="51.00342" lon="2.39525">
        <ele>3.98</ele>
        <time>2021-08-07T06:21:43Z</time>
      </trkpt>
      <trkpt lat="51.00339" lon="2.39529">
        <ele>3.98</ele>
        <time>2021-08-07T06:21:44Z</time>
      </trkpt>
      <trkpt lat="51.00336" lon="2.3953">
        <ele>3.98</ele>
        <time>2021-08-07T06:21:45Z</time>
      </trkpt>
      <trkpt lat="51.00333" lon="2.39531">
        <ele>3.98</ele>
        <time>2021-08-07T06:21:46Z</time>
      </trkpt>
      <trkpt lat="51.0033" lon="2.3953">
        <ele>3.98</ele>
        <time>2021-08-07T06:21:47Z</time>
      </trkpt>
      <trkpt lat="51.00329" lon="2.39529">
        <ele>3.98</ele>
        <time>2021-08-07T06:21:48Z</time>
      </trkpt>
      <trkpt lat="51.00327" lon="2.39531">
        <ele>3.98</ele>
        <time>2021-08-07T06:21:51Z</time>
      </trkpt>
      <trkpt lat="51.00326" lon="2.39532">
        <ele>3.98</ele>
        <time>2021-08-07T06:21:52Z</time>
      </trkpt>
      <trkpt lat="51.00323" lon="2.39535">
        <ele>3.98</ele>
        <time>2021-08-07T06:21:54Z</time>
      </trkpt>
      <trkpt lat="51.0032" lon="2.39536">
        <ele>3.98</ele>
        <time>2021-08-07T06:21:55Z</time>
      </trkpt>
      <trkpt lat="51.00318" lon="2.39538">
        <ele>3.98</ele>
        <time>2021-08-07T06:21:56Z</time>
      </trkpt>
      <trkpt lat="51.00315" lon="2.3954">
        <ele>3.5</ele>
        <time>2021-08-07T06:21:57Z</time>
      </trkpt>
      <trkpt lat="51.00313" lon="2.39543">
        <ele>3.5</ele>
        <time>2021-08-07T06:21:58Z</time>
      </trkpt>
      <trkpt lat="51.00311" lon="2.39546">
        <ele>3.5</ele>
        <time>2021-08-07T06:21:59Z</time>
      </trkpt>
      <trkpt lat="51.00308" lon="2.39549">
        <ele>3.5</ele>
        <time>2021-08-07T06:22:00Z</time>
      </trkpt>
      <trkpt lat="51.00305" lon="2.39552">
        <ele>3.5</ele>
        <time>2021-08-07T06:22:01Z</time>
      </trkpt>
      <trkpt lat="51.00292" lon="2.39559">
        <ele>3.5</ele>
        <time>2021-08-07T06:22:04Z</time>
      </trkpt>
      <trkpt lat="51.00287" lon="2.39562">
        <ele>3.5</ele>
        <time>2021-08-07T06:22:05Z</time>
      </trkpt>
      <trkpt lat="51.00282" lon="2.39567">
        <ele>3.5</ele>
        <time>2021-08-07T06:22:06Z</time>
      </trkpt>
      <trkpt lat="51.00256" lon="2.39596">
        <ele>3.5</ele>
        <time>2021-08-07T06:22:12Z</time>
      </trkpt>
      <trkpt lat="51.0025" lon="2.39599">
        <ele>3.5</ele>
        <time>2021-08-07T06:22:13Z</time>
      </trkpt>
      <trkpt lat="51.00218" lon="2.39615">
        <ele>3.5</ele>
        <time>2021-08-07T06:22:19Z</time>
      </trkpt>
      <trkpt lat="51.00192" lon="2.39631">
        <ele>3.5</ele>
        <time>2021-08-07T06:22:24Z</time>
      </trkpt>
      <trkpt lat="51.00186" lon="2.39636">
        <ele>3.5</ele>
        <time>2021-08-07T06:22:25Z</time>
      </trkpt>
      <trkpt lat="51.00182" lon="2.39641">
        <ele>3.5</ele>
        <time>2021-08-07T06:22:26Z</time>
      </trkpt>
      <trkpt lat="51.00178" lon="2.39649">
        <ele>3.5</ele>
        <time>2021-08-07T06:22:27Z</time>
      </trkpt>
      <trkpt lat="51.00175" lon="2.39656">
        <ele>3.5</ele>
        <time>2021-08-07T06:22:28Z</time>
      </trkpt>
      <trkpt lat="51.00172" lon="2.39664">
        <ele>3.5</ele>
        <time>2021-08-07T06:22:29Z</time>
      </trkpt>
      <trkpt lat="51.00157" lon="2.39692">
        <ele>3.5</ele>
        <time>2021-08-07T06:22:33Z</time>
      </trkpt>
      <trkpt lat="51.00152" lon="2.39698">
        <ele>3.5</ele>
        <time>2021-08-07T06:22:34Z</time>
      </trkpt>
      <trkpt lat="51.00147" lon="2.39702">
        <ele>3.5</ele>
        <time>2021-08-07T06:22:35Z</time>
      </trkpt>
      <trkpt lat="51.00141" lon="2.39706">
        <ele>3.5</ele>
        <time>2021-08-07T06:22:36Z</time>
      </trkpt>
      <trkpt lat="51.00135" lon="2.39709">
        <ele>3.5</ele>
        <time>2021-08-07T06:22:37Z</time>
      </trkpt>
      <trkpt lat="51.0013" lon="2.39711">
        <ele>3.5</ele>
        <time>2021-08-07T06:22:38Z</time>
      </trkpt>
      <trkpt lat="51.00079" lon="2.39724">
        <ele>3.5</ele>
        <time>2021-08-07T06:22:46Z</time>
      </trkpt>
      <trkpt lat="51.00074" lon="2.39726">
        <ele>3.5</ele>
        <time>2021-08-07T06:22:47Z</time>
      </trkpt>
      <trkpt lat="51.00069" lon="2.39729">
        <ele>3.5</ele>
        <time>2021-08-07T06:22:48Z</time>
      </trkpt>
      <trkpt lat="51.00066" lon="2.39734">
        <ele>3.5</ele>
        <time>2021-08-07T06:22:49Z</time>
      </trkpt>
      <trkpt lat="51.00066" lon="2.3974">
        <ele>3.5</ele>
        <time>2021-08-07T06:22:50Z</time>
      </trkpt>
      <trkpt lat="51.00066" lon="2.39746">
        <ele>3.5</ele>
        <time>2021-08-07T06:22:51Z</time>
      </trkpt>
      <trkpt lat="51.00067" lon="2.39753">
        <ele>3.5</ele>
        <time>2021-08-07T06:22:52Z</time>
      </trkpt>
      <trkpt lat="51.00068" lon="2.3976">
        <ele>3.5</ele>
        <time>2021-08-07T06:22:53Z</time>
      </trkpt>
      <trkpt lat="51.00067" lon="2.39767">
        <ele>3.5</ele>
        <time>2021-08-07T06:22:54Z</time>
      </trkpt>
      <trkpt lat="51.00065" lon="2.39774">
        <ele>3.5</ele>
        <time>2021-08-07T06:22:55Z</time>
      </trkpt>
      <trkpt lat="51.00062" lon="2.3978">
        <ele>3.5</ele>
        <time>2021-08-07T06:22:56Z</time>
      </trkpt>
      <trkpt lat="51.00059" lon="2.39785">
        <ele>3.5</ele>
        <time>2021-08-07T06:22:57Z</time>
      </trkpt>
      <trkpt lat="51.00055" lon="2.3979">
        <ele>3.5</ele>
        <time>2021-08-07T06:22:58Z</time>
      </trkpt>
      <trkpt lat="51.00051" lon="2.39796">
        <ele>3.5</ele>
        <time>2021-08-07T06:22:59Z</time>
      </trkpt>
      <trkpt lat="51.00048" lon="2.39802">
        <ele>3.5</ele>
        <time>2021-08-07T06:23:00Z</time>
      </trkpt>
      <trkpt lat="51.00046" lon="2.39809">
        <ele>3.5</ele>
        <time>2021-08-07T06:23:01Z</time>
      </trkpt>
      <trkpt lat="51.00045" lon="2.39818">
        <ele>3.5</ele>
        <time>2021-08-07T06:23:02Z</time>
      </trkpt>
      <trkpt lat="51.00044" lon="2.39827">
        <ele>3.5</ele>
        <time>2021-08-07T06:23:03Z</time>
      </trkpt>
      <trkpt lat="51.00045" lon="2.39836">
        <ele>3.5</ele>
        <time>2021-08-07T06:23:04Z</time>
      </trkpt>
      <trkpt lat="51.00045" lon="2.39844">
        <ele>3.5</ele>
        <time>2021-08-07T06:23:05Z</time>
      </trkpt>
      <trkpt lat="51.00046" lon="2.39852">
        <ele>3.5</ele>
        <time>2021-08-07T06:23:06Z</time>
      </trkpt>
      <trkpt lat="51.00047" lon="2.39861">
        <ele>3.5</ele>
        <time>2021-08-07T06:23:07Z</time>
      </trkpt>
      <trkpt lat="51.00049" lon="2.39869">
        <ele>3.5</ele>
        <time>2021-08-07T06:23:08Z</time>
      </trkpt>
      <trkpt lat="51.00051" lon="2.39878">
        <ele>3.5</ele>
        <time>2021-08-07T06:23:09Z</time>
      </trkpt>
      <trkpt lat="51.00064" lon="2.39931">
        <ele>3.5</ele>
        <time>2021-08-07T06:23:15Z</time>
      </trkpt>
      <trkpt lat="51.0007" lon="2.39995">
        <ele>3.5</ele>
        <time>2021-08-07T06:23:22Z</time>
      </trkpt>
      <trkpt lat="51.00072" lon="2.40038">
        <ele>3.5</ele>
        <time>2021-08-07T06:23:27Z</time>
      </trkpt>
      <trkpt lat="51.00071" lon="2.40047">
        <ele>3.5</ele>
        <time>2021-08-07T06:23:28Z</time>
      </trkpt>
      <trkpt lat="51.0007" lon="2.40055">
        <ele>3.5</ele>
        <time>2021-08-07T06:23:29Z</time>
      </trkpt>
      <trkpt lat="51.00068" lon="2.40061">
        <ele>3.5</ele>
        <time>2021-08-07T06:23:30Z</time>
      </trkpt>
      <trkpt lat="51.00066" lon="2.40067">
        <ele>3.5</ele>
        <time>2021-08-07T06:23:31Z</time>
      </trkpt>
      <trkpt lat="51.00063" lon="2.40075">
        <ele>3.5</ele>
        <time>2021-08-07T06:23:32Z</time>
      </trkpt>
      <trkpt lat="51.00059" lon="2.40082">
        <ele>3.5</ele>
        <time>2021-08-07T06:23:33Z</time>
      </trkpt>
      <trkpt lat="51.00055" lon="2.40088">
        <ele>3.5</ele>
        <time>2021-08-07T06:23:34Z</time>
      </trkpt>
      <trkpt lat="51.00049" lon="2.40092">
        <ele>3.5</ele>
        <time>2021-08-07T06:23:35Z</time>
      </trkpt>
      <trkpt lat="51.00044" lon="2.40094">
        <ele>3.5</ele>
        <time>2021-08-07T06:23:36Z</time>
      </trkpt>
      <trkpt lat="51.00038" lon="2.40097">
        <ele>3.5</ele>
        <time>2021-08-07T06:23:37Z</time>
      </trkpt>
      <trkpt lat="51.00032" lon="2.401">
        <ele>3.5</ele>
        <time>2021-08-07T06:23:38Z</time>
      </trkpt>
      <trkpt lat="51.00027" lon="2.40106">
        <ele>3.5</ele>
        <time>2021-08-07T06:23:39Z</time>
      </trkpt>
      <trkpt lat="51.00022" lon="2.40112">
        <ele>3.5</ele>
        <time>2021-08-07T06:23:40Z</time>
      </trkpt>
      <trkpt lat="51.00019" lon="2.40119">
        <ele>3.5</ele>
        <time>2021-08-07T06:23:41Z</time>
      </trkpt>
      <trkpt lat="51.00016" lon="2.40127">
        <ele>3.5</ele>
        <time>2021-08-07T06:23:42Z</time>
      </trkpt>
      <trkpt lat="51.00016" lon="2.40136">
        <ele>3.5</ele>
        <time>2021-08-07T06:23:43Z</time>
      </trkpt>
      <trkpt lat="51.00016" lon="2.40145">
        <ele>3.5</ele>
        <time>2021-08-07T06:23:44Z</time>
      </trkpt>
      <trkpt lat="51.00017" lon="2.40155">
        <ele>3.5</ele>
        <time>2021-08-07T06:23:45Z</time>
      </trkpt>
      <trkpt lat="51.00021" lon="2.40191">
        <ele>3.5</ele>
        <time>2021-08-07T06:23:49Z</time>
      </trkpt>
      <trkpt lat="51.0002" lon="2.40235">
        <ele>3.5</ele>
        <time>2021-08-07T06:23:54Z</time>
      </trkpt>
      <trkpt lat="51.00018" lon="2.40244">
        <ele>3.5</ele>
        <time>2021-08-07T06:23:55Z</time>
      </trkpt>
      <trkpt lat="51.00015" lon="2.40251">
        <ele>3.5</ele>
        <time>2021-08-07T06:23:56Z</time>
      </trkpt>
      <trkpt lat="51.00011" lon="2.40258">
        <ele>3.5</ele>
        <time>2021-08-07T06:23:57Z</time>
      </trkpt>
      <trkpt lat="51.00007" lon="2.40264">
        <ele>3.5</ele>
        <time>2021-08-07T06:23:58Z</time>
      </trkpt>
      <trkpt lat="50.9998" lon="2.40296">
        <ele>3.5</ele>
        <time>2021-08-07T06:24:04Z</time>
      </trkpt>
      <trkpt lat="50.99942" lon="2.40345">
        <ele>3.5</ele>
        <time>2021-08-07T06:24:12Z</time>
      </trkpt>
      <trkpt lat="50.99919" lon="2.40377">
        <ele>3.5</ele>
        <time>2021-08-07T06:24:17Z</time>
      </trkpt>
      <trkpt lat="50.99916" lon="2.40384">
        <ele>3.5</ele>
        <time>2021-08-07T06:24:18Z</time>
      </trkpt>
      <trkpt lat="50.9991" lon="2.40401">
        <ele>3.5</ele>
        <time>2021-08-07T06:24:20Z</time>
      </trkpt>
      <trkpt lat="50.99909" lon="2.4041">
        <ele>3.5</ele>
        <time>2021-08-07T06:24:21Z</time>
      </trkpt>
      <trkpt lat="50.99908" lon="2.4042">
        <ele>3.5</ele>
        <time>2021-08-07T06:24:22Z</time>
      </trkpt>
      <trkpt lat="50.9991" lon="2.40429">
        <ele>3.5</ele>
        <time>2021-08-07T06:24:23Z</time>
      </trkpt>
      <trkpt lat="50.99912" lon="2.40437">
        <ele>3.5</ele>
        <time>2021-08-07T06:24:24Z</time>
      </trkpt>
      <trkpt lat="50.99915" lon="2.40445">
        <ele>3.5</ele>
        <time>2021-08-07T06:24:25Z</time>
      </trkpt>
      <trkpt lat="50.99917" lon="2.40451">
        <ele>3.5</ele>
        <time>2021-08-07T06:24:26Z</time>
      </trkpt>
      <trkpt lat="50.99919" lon="2.40454">
        <ele>3.5</ele>
        <time>2021-08-07T06:24:27Z</time>
      </trkpt>
      <trkpt lat="50.99928" lon="2.40479">
        <ele>3.5</ele>
        <time>2021-08-07T06:24:34Z</time>
      </trkpt>
      <trkpt lat="50.99936" lon="2.405">
        <ele>3.5</ele>
        <time>2021-08-07T06:24:38Z</time>
      </trkpt>
      <trkpt lat="50.99938" lon="2.40506">
        <ele>3.5</ele>
        <time>2021-08-07T06:24:39Z</time>
      </trkpt>
      <trkpt lat="50.99958" lon="2.40551">
        <ele>3.5</ele>
        <time>2021-08-07T06:24:47Z</time>
      </trkpt>
      <trkpt lat="50.99983" lon="2.40614">
        <ele>3.5</ele>
        <time>2021-08-07T06:24:56Z</time>
      </trkpt>
      <trkpt lat="50.99991" lon="2.40644">
        <ele>3.5</ele>
        <time>2021-08-07T06:25:00Z</time>
      </trkpt>
      <trkpt lat="50.9999" lon="2.40652">
        <ele>3.5</ele>
        <time>2021-08-07T06:25:01Z</time>
      </trkpt>
      <trkpt lat="50.99989" lon="2.40659">
        <ele>3.5</ele>
        <time>2021-08-07T06:25:02Z</time>
      </trkpt>
      <trkpt lat="50.99986" lon="2.40665">
        <ele>3.5</ele>
        <time>2021-08-07T06:25:03Z</time>
      </trkpt>
      <trkpt lat="50.99983" lon="2.40669">
        <ele>3.5</ele>
        <time>2021-08-07T06:25:04Z</time>
      </trkpt>
      <trkpt lat="50.9998" lon="2.40672">
        <ele>3.5</ele>
        <time>2021-08-07T06:25:05Z</time>
      </trkpt>
      <trkpt lat="50.99976" lon="2.40675">
        <ele>3.5</ele>
        <time>2021-08-07T06:25:06Z</time>
      </trkpt>
      <trkpt lat="50.99963" lon="2.40684">
        <ele>3.5</ele>
        <time>2021-08-07T06:25:09Z</time>
      </trkpt>
      <trkpt lat="50.99958" lon="2.40687">
        <ele>3.5</ele>
        <time>2021-08-07T06:25:10Z</time>
      </trkpt>
      <trkpt lat="50.99954" lon="2.40691">
        <ele>3.5</ele>
        <time>2021-08-07T06:25:11Z</time>
      </trkpt>
      <trkpt lat="50.99949" lon="2.40695">
        <ele>3.5</ele>
        <time>2021-08-07T06:25:12Z</time>
      </trkpt>
      <trkpt lat="50.99944" lon="2.40697">
        <ele>3.5</ele>
        <time>2021-08-07T06:25:13Z</time>
      </trkpt>
      <trkpt lat="50.99939" lon="2.40699">
        <ele>3.5</ele>
        <time>2021-08-07T06:25:14Z</time>
      </trkpt>
      <trkpt lat="50.99934" lon="2.40702">
        <ele>3.5</ele>
        <time>2021-08-07T06:25:15Z</time>
      </trkpt>
      <trkpt lat="50.99902" lon="2.40719">
        <ele>3.5</ele>
        <time>2021-08-07T06:25:21Z</time>
      </trkpt>
      <trkpt lat="50.99896" lon="2.40722">
        <ele>3.5</ele>
        <time>2021-08-07T06:25:22Z</time>
      </trkpt>
      <trkpt lat="50.99848" lon="2.40753">
        <ele>3.5</ele>
        <time>2021-08-07T06:25:31Z</time>
      </trkpt>
      <trkpt lat="50.99827" lon="2.40761">
        <ele>3.5</ele>
        <time>2021-08-07T06:25:35Z</time>
      </trkpt>
      <trkpt lat="50.99822" lon="2.4076">
        <ele>3.5</ele>
        <time>2021-08-07T06:25:36Z</time>
      </trkpt>
      <trkpt lat="50.99776" lon="2.40751">
        <ele>3.5</ele>
        <time>2021-08-07T06:25:45Z</time>
      </trkpt>
      <trkpt lat="50.99737" lon="2.40738">
        <ele>3.5</ele>
        <time>2021-08-07T06:25:53Z</time>
      </trkpt>
      <trkpt lat="50.99732" lon="2.40737">
        <ele>3.5</ele>
        <time>2021-08-07T06:25:54Z</time>
      </trkpt>
      <trkpt lat="50.99726" lon="2.40736">
        <ele>3.5</ele>
        <time>2021-08-07T06:25:55Z</time>
      </trkpt>
      <trkpt lat="50.99683" lon="2.40724">
        <ele>3.5</ele>
        <time>2021-08-07T06:26:03Z</time>
      </trkpt>
      <trkpt lat="50.9968" lon="2.40723">
        <ele>3.5</ele>
        <time>2021-08-07T06:26:04Z</time>
      </trkpt>
      <trkpt lat="50.99676" lon="2.40724">
        <ele>3.5</ele>
        <time>2021-08-07T06:26:05Z</time>
      </trkpt>
      <trkpt lat="50.99672" lon="2.40726">
        <ele>3.5</ele>
        <time>2021-08-07T06:26:06Z</time>
      </trkpt>
      <trkpt lat="50.9967" lon="2.40729">
        <ele>3.5</ele>
        <time>2021-08-07T06:26:07Z</time>
      </trkpt>
      <trkpt lat="50.99667" lon="2.40732">
        <ele>3.5</ele>
        <time>2021-08-07T06:26:08Z</time>
      </trkpt>
      <trkpt lat="50.99666" lon="2.40737">
        <ele>3.5</ele>
        <time>2021-08-07T06:26:09Z</time>
      </trkpt>
      <trkpt lat="50.99664" lon="2.40742">
        <ele>3.5</ele>
        <time>2021-08-07T06:26:10Z</time>
      </trkpt>
      <trkpt lat="50.99663" lon="2.40747">
        <ele>3.5</ele>
        <time>2021-08-07T06:26:11Z</time>
      </trkpt>
      <trkpt lat="50.99661" lon="2.40753">
        <ele>3.5</ele>
        <time>2021-08-07T06:26:12Z</time>
      </trkpt>
      <trkpt lat="50.99658" lon="2.40758">
        <ele>3.5</ele>
        <time>2021-08-07T06:26:13Z</time>
      </trkpt>
      <trkpt lat="50.99655" lon="2.40763">
        <ele>3.5</ele>
        <time>2021-08-07T06:26:14Z</time>
      </trkpt>
      <trkpt lat="50.99651" lon="2.40767">
        <ele>3.5</ele>
        <time>2021-08-07T06:26:15Z</time>
      </trkpt>
      <trkpt lat="50.99649" lon="2.40769">
        <ele>3.5</ele>
        <time>2021-08-07T06:26:16Z</time>
      </trkpt>
      <trkpt lat="50.99647" lon="2.40773">
        <ele>3.5</ele>
        <time>2021-08-07T06:26:17Z</time>
      </trkpt>
      <trkpt lat="50.99646" lon="2.40779">
        <ele>3.5</ele>
        <time>2021-08-07T06:26:18Z</time>
      </trkpt>
      <trkpt lat="50.99647" lon="2.40786">
        <ele>3.5</ele>
        <time>2021-08-07T06:26:19Z</time>
      </trkpt>
      <trkpt lat="50.99647" lon="2.40795">
        <ele>3.5</ele>
        <time>2021-08-07T06:26:20Z</time>
      </trkpt>
      <trkpt lat="50.99647" lon="2.40803">
        <ele>3.5</ele>
        <time>2021-08-07T06:26:21Z</time>
      </trkpt>
      <trkpt lat="50.99646" lon="2.40811">
        <ele>3.5</ele>
        <time>2021-08-07T06:26:22Z</time>
      </trkpt>
      <trkpt lat="50.99645" lon="2.4082">
        <ele>3.5</ele>
        <time>2021-08-07T06:26:23Z</time>
      </trkpt>
      <trkpt lat="50.99643" lon="2.40827">
        <ele>3.5</ele>
        <time>2021-08-07T06:26:24Z</time>
      </trkpt>
      <trkpt lat="50.99642" lon="2.40835">
        <ele>3.5</ele>
        <time>2021-08-07T06:26:25Z</time>
      </trkpt>
      <trkpt lat="50.99639" lon="2.40843">
        <ele>3.5</ele>
        <time>2021-08-07T06:26:26Z</time>
      </trkpt>
      <trkpt lat="50.99636" lon="2.40851">
        <ele>3.5</ele>
        <time>2021-08-07T06:26:27Z</time>
      </trkpt>
      <trkpt lat="50.9962" lon="2.40913">
        <ele>3.5</ele>
        <time>2021-08-07T06:26:35Z</time>
      </trkpt>
      <trkpt lat="50.99616" lon="2.4093">
        <ele>3.5</ele>
        <time>2021-08-07T06:26:38Z</time>
      </trkpt>
      <trkpt lat="50.99612" lon="2.40932">
        <ele>3.5</ele>
        <time>2021-08-07T06:26:39Z</time>
      </trkpt>
      <trkpt lat="50.99609" lon="2.40931">
        <ele>3.5</ele>
        <time>2021-08-07T06:26:40Z</time>
      </trkpt>
      <trkpt lat="50.99606" lon="2.40931">
        <ele>3.5</ele>
        <time>2021-08-07T06:26:41Z</time>
      </trkpt>
      <trkpt lat="50.99602" lon="2.40931">
        <ele>3.5</ele>
        <time>2021-08-07T06:26:42Z</time>
      </trkpt>
      <trkpt lat="50.99599" lon="2.40931">
        <ele>3.5</ele>
        <time>2021-08-07T06:26:43Z</time>
      </trkpt>
      <trkpt lat="50.99595" lon="2.40932">
        <ele>3.5</ele>
        <time>2021-08-07T06:26:44Z</time>
      </trkpt>
      <trkpt lat="50.9959" lon="2.40932">
        <ele>3.5</ele>
        <time>2021-08-07T06:26:45Z</time>
      </trkpt>
      <trkpt lat="50.99581" lon="2.40932">
        <ele>3.5</ele>
        <time>2021-08-07T06:26:47Z</time>
      </trkpt>
      <trkpt lat="50.99567" lon="2.40931">
        <ele>3.5</ele>
        <time>2021-08-07T06:26:50Z</time>
      </trkpt>
      <trkpt lat="50.99563" lon="2.40931">
        <ele>3.5</ele>
        <time>2021-08-07T06:26:51Z</time>
      </trkpt>
      <trkpt lat="50.99529" lon="2.40942">
        <ele>3.5</ele>
        <time>2021-08-07T06:26:58Z</time>
      </trkpt>
      <trkpt lat="50.99524" lon="2.40944">
        <ele>3.5</ele>
        <time>2021-08-07T06:26:59Z</time>
      </trkpt>
      <trkpt lat="50.99519" lon="2.40945">
        <ele>3.5</ele>
        <time>2021-08-07T06:27:00Z</time>
      </trkpt>
      <trkpt lat="50.99495" lon="2.40954">
        <ele>3.02</ele>
        <time>2021-08-07T06:27:05Z</time>
      </trkpt>
      <trkpt lat="50.99491" lon="2.40958">
        <ele>3.02</ele>
        <time>2021-08-07T06:27:06Z</time>
      </trkpt>
      <trkpt lat="50.99486" lon="2.40964">
        <ele>3.02</ele>
        <time>2021-08-07T06:27:07Z</time>
      </trkpt>
      <trkpt lat="50.99482" lon="2.40969">
        <ele>2.54</ele>
        <time>2021-08-07T06:27:08Z</time>
      </trkpt>
      <trkpt lat="50.99478" lon="2.40976">
        <ele>2.54</ele>
        <time>2021-08-07T06:27:09Z</time>
      </trkpt>
      <trkpt lat="50.99466" lon="2.40996">
        <ele>2.54</ele>
        <time>2021-08-07T06:27:12Z</time>
      </trkpt>
      <trkpt lat="50.99444" lon="2.41015">
        <ele>2.54</ele>
        <time>2021-08-07T06:27:18Z</time>
      </trkpt>
      <trkpt lat="50.99419" lon="2.41016">
        <ele>2.54</ele>
        <time>2021-08-07T06:27:24Z</time>
      </trkpt>
      <trkpt lat="50.99413" lon="2.41014">
        <ele>2.54</ele>
        <time>2021-08-07T06:27:25Z</time>
      </trkpt>
      <trkpt lat="50.99409" lon="2.41012">
        <ele>2.54</ele>
        <time>2021-08-07T06:27:26Z</time>
      </trkpt>
      <trkpt lat="50.99387" lon="2.41001">
        <ele>3.98</ele>
        <time>2021-08-07T06:27:31Z</time>
      </trkpt>
      <trkpt lat="50.99384" lon="2.41001">
        <ele>3.98</ele>
        <time>2021-08-07T06:27:32Z</time>
      </trkpt>
      <trkpt lat="50.9938" lon="2.41002">
        <ele>3.98</ele>
        <time>2021-08-07T06:27:33Z</time>
      </trkpt>
      <trkpt lat="50.99377" lon="2.41004">
        <ele>3.98</ele>
        <time>2021-08-07T06:27:34Z</time>
      </trkpt>
      <trkpt lat="50.99375" lon="2.41007">
        <ele>3.98</ele>
        <time>2021-08-07T06:27:35Z</time>
      </trkpt>
      <trkpt lat="50.99372" lon="2.41009">
        <ele>3.98</ele>
        <time>2021-08-07T06:27:36Z</time>
      </trkpt>
      <trkpt lat="50.99363" lon="2.41014">
        <ele>3.98</ele>
        <time>2021-08-07T06:27:38Z</time>
      </trkpt>
      <trkpt lat="50.99345" lon="2.41019">
        <ele>3.98</ele>
        <time>2021-08-07T06:27:41Z</time>
      </trkpt>
      <trkpt lat="50.99297" lon="2.41042">
        <ele>3.98</ele>
        <time>2021-08-07T06:27:49Z</time>
      </trkpt>
      <trkpt lat="50.99287" lon="2.41052">
        <ele>3.98</ele>
        <time>2021-08-07T06:27:52Z</time>
      </trkpt>
      <trkpt lat="50.99283" lon="2.41058">
        <ele>3.98</ele>
        <time>2021-08-07T06:27:53Z</time>
      </trkpt>
      <trkpt lat="50.9928" lon="2.41065">
        <ele>3.98</ele>
        <time>2021-08-07T06:27:54Z</time>
      </trkpt>
      <trkpt lat="50.99277" lon="2.41072">
        <ele>3.98</ele>
        <time>2021-08-07T06:27:55Z</time>
      </trkpt>
      <trkpt lat="50.99275" lon="2.4108">
        <ele>3.98</ele>
        <time>2021-08-07T06:27:56Z</time>
      </trkpt>
      <trkpt lat="50.99274" lon="2.41088">
        <ele>3.02</ele>
        <time>2021-08-07T06:27:57Z</time>
      </trkpt>
      <trkpt lat="50.99273" lon="2.41097">
        <ele>3.02</ele>
        <time>2021-08-07T06:27:58Z</time>
      </trkpt>
      <trkpt lat="50.99267" lon="2.41132">
        <ele>3.02</ele>
        <time>2021-08-07T06:28:02Z</time>
      </trkpt>
      <trkpt lat="50.99266" lon="2.41149">
        <ele>3.02</ele>
        <time>2021-08-07T06:28:04Z</time>
      </trkpt>
      <trkpt lat="50.99263" lon="2.41173">
        <ele>3.02</ele>
        <time>2021-08-07T06:28:07Z</time>
      </trkpt>
      <trkpt lat="50.99259" lon="2.41237">
        <ele>3.02</ele>
        <time>2021-08-07T06:28:14Z</time>
      </trkpt>
      <trkpt lat="50.99254" lon="2.41257">
        <ele>3.02</ele>
        <time>2021-08-07T06:28:16Z</time>
      </trkpt>
      <trkpt lat="50.9925" lon="2.41265">
        <ele>3.02</ele>
        <time>2021-08-07T06:28:17Z</time>
      </trkpt>
      <trkpt lat="50.99246" lon="2.41273">
        <ele>3.02</ele>
        <time>2021-08-07T06:28:18Z</time>
      </trkpt>
      <trkpt lat="50.99242" lon="2.41279">
        <ele>3.02</ele>
        <time>2021-08-07T06:28:19Z</time>
      </trkpt>
      <trkpt lat="50.99237" lon="2.41286">
        <ele>3.02</ele>
        <time>2021-08-07T06:28:20Z</time>
      </trkpt>
      <trkpt lat="50.99221" lon="2.41302">
        <ele>3.02</ele>
        <time>2021-08-07T06:28:23Z</time>
      </trkpt>
      <trkpt lat="50.99184" lon="2.41325">
        <ele>3.02</ele>
        <time>2021-08-07T06:28:29Z</time>
      </trkpt>
      <trkpt lat="50.99179" lon="2.41328">
        <ele>3.02</ele>
        <time>2021-08-07T06:28:30Z</time>
      </trkpt>
      <trkpt lat="50.99173" lon="2.41332">
        <ele>3.02</ele>
        <time>2021-08-07T06:28:31Z</time>
      </trkpt>
      <trkpt lat="50.99168" lon="2.41335">
        <ele>3.02</ele>
        <time>2021-08-07T06:28:32Z</time>
      </trkpt>
      <trkpt lat="50.99158" lon="2.41341">
        <ele>3.02</ele>
        <time>2021-08-07T06:28:34Z</time>
      </trkpt>
      <trkpt lat="50.99152" lon="2.41342">
        <ele>3.02</ele>
        <time>2021-08-07T06:28:35Z</time>
      </trkpt>
      <trkpt lat="50.99147" lon="2.41341">
        <ele>3.02</ele>
        <time>2021-08-07T06:28:36Z</time>
      </trkpt>
      <trkpt lat="50.99142" lon="2.41338">
        <ele>3.02</ele>
        <time>2021-08-07T06:28:37Z</time>
      </trkpt>
      <trkpt lat="50.99137" lon="2.41335">
        <ele>3.02</ele>
        <time>2021-08-07T06:28:38Z</time>
      </trkpt>
      <trkpt lat="50.99132" lon="2.41332">
        <ele>3.02</ele>
        <time>2021-08-07T06:28:39Z</time>
      </trkpt>
      <trkpt lat="50.99127" lon="2.4133">
        <ele>3.02</ele>
        <time>2021-08-07T06:28:40Z</time>
      </trkpt>
      <trkpt lat="50.99122" lon="2.41328">
        <ele>3.02</ele>
        <time>2021-08-07T06:28:41Z</time>
      </trkpt>
      <trkpt lat="50.99117" lon="2.41329">
        <ele>3.02</ele>
        <time>2021-08-07T06:28:42Z</time>
      </trkpt>
      <trkpt lat="50.99111" lon="2.4133">
        <ele>3.02</ele>
        <time>2021-08-07T06:28:43Z</time>
      </trkpt>
      <trkpt lat="50.99106" lon="2.41332">
        <ele>3.02</ele>
        <time>2021-08-07T06:28:44Z</time>
      </trkpt>
      <trkpt lat="50.99075" lon="2.41348">
        <ele>2.54</ele>
        <time>2021-08-07T06:28:49Z</time>
      </trkpt>
      <trkpt lat="50.99071" lon="2.41353">
        <ele>2.54</ele>
        <time>2021-08-07T06:28:50Z</time>
      </trkpt>
      <trkpt lat="50.99062" lon="2.41365">
        <ele>2.54</ele>
        <time>2021-08-07T06:28:52Z</time>
      </trkpt>
      <trkpt lat="50.99056" lon="2.4137">
        <ele>2.54</ele>
        <time>2021-08-07T06:28:53Z</time>
      </trkpt>
      <trkpt lat="50.99033" lon="2.4138">
        <ele>2.54</ele>
        <time>2021-08-07T06:28:57Z</time>
      </trkpt>
      <trkpt lat="50.99022" lon="2.41382">
        <ele>2.54</ele>
        <time>2021-08-07T06:28:59Z</time>
      </trkpt>
      <trkpt lat="50.99019" lon="2.41385">
        <ele>2.54</ele>
        <time>2021-08-07T06:29:00Z</time>
      </trkpt>
      <trkpt lat="50.99015" lon="2.41389">
        <ele>2.54</ele>
        <time>2021-08-07T06:29:01Z</time>
      </trkpt>
      <trkpt lat="50.99013" lon="2.41394">
        <ele>2.54</ele>
        <time>2021-08-07T06:29:02Z</time>
      </trkpt>
      <trkpt lat="50.9901" lon="2.41398">
        <ele>2.54</ele>
        <time>2021-08-07T06:29:03Z</time>
      </trkpt>
      <trkpt lat="50.99007" lon="2.41401">
        <ele>2.54</ele>
        <time>2021-08-07T06:29:04Z</time>
      </trkpt>
      <trkpt lat="50.99003" lon="2.41402">
        <ele>2.54</ele>
        <time>2021-08-07T06:29:05Z</time>
      </trkpt>
      <trkpt lat="50.98999" lon="2.41404">
        <ele>2.54</ele>
        <time>2021-08-07T06:29:06Z</time>
      </trkpt>
      <trkpt lat="50.9898" lon="2.41412">
        <ele>2.54</ele>
        <time>2021-08-07T06:29:10Z</time>
      </trkpt>
      <trkpt lat="50.98975" lon="2.41415">
        <ele>2.54</ele>
        <time>2021-08-07T06:29:11Z</time>
      </trkpt>
      <trkpt lat="50.98944" lon="2.41447">
        <ele>2.54</ele>
        <time>2021-08-07T06:29:18Z</time>
      </trkpt>
      <trkpt lat="50.98934" lon="2.41456">
        <ele>2.54</ele>
        <time>2021-08-07T06:29:20Z</time>
      </trkpt>
      <trkpt lat="50.98928" lon="2.4146">
        <ele>2.54</ele>
        <time>2021-08-07T06:29:21Z</time>
      </trkpt>
      <trkpt lat="50.98922" lon="2.41462">
        <ele>2.54</ele>
        <time>2021-08-07T06:29:22Z</time>
      </trkpt>
      <trkpt lat="50.98915" lon="2.41463">
        <ele>2.54</ele>
        <time>2021-08-07T06:29:23Z</time>
      </trkpt>
      <trkpt lat="50.98909" lon="2.41464">
        <ele>2.54</ele>
        <time>2021-08-07T06:29:24Z</time>
      </trkpt>
      <trkpt lat="50.98904" lon="2.41464">
        <ele>2.54</ele>
        <time>2021-08-07T06:29:25Z</time>
      </trkpt>
      <trkpt lat="50.98876" lon="2.41467">
        <ele>2.54</ele>
        <time>2021-08-07T06:29:30Z</time>
      </trkpt>
      <trkpt lat="50.98825" lon="2.41477">
        <ele>3.02</ele>
        <time>2021-08-07T06:29:39Z</time>
      </trkpt>
      <trkpt lat="50.9882" lon="2.41475">
        <ele>2.54</ele>
        <time>2021-08-07T06:29:40Z</time>
      </trkpt>
      <trkpt lat="50.98815" lon="2.41471">
        <ele>3.02</ele>
        <time>2021-08-07T06:29:41Z</time>
      </trkpt>
      <trkpt lat="50.9881" lon="2.41466">
        <ele>3.02</ele>
        <time>2021-08-07T06:29:42Z</time>
      </trkpt>
      <trkpt lat="50.98805" lon="2.41459">
        <ele>3.02</ele>
        <time>2021-08-07T06:29:43Z</time>
      </trkpt>
      <trkpt lat="50.98801" lon="2.41454">
        <ele>3.02</ele>
        <time>2021-08-07T06:29:44Z</time>
      </trkpt>
      <trkpt lat="50.98796" lon="2.41451">
        <ele>3.02</ele>
        <time>2021-08-07T06:29:45Z</time>
      </trkpt>
      <trkpt lat="50.98792" lon="2.41449">
        <ele>3.02</ele>
        <time>2021-08-07T06:29:46Z</time>
      </trkpt>
      <trkpt lat="50.98786" lon="2.41448">
        <ele>3.02</ele>
        <time>2021-08-07T06:29:47Z</time>
      </trkpt>
      <trkpt lat="50.98782" lon="2.41449">
        <ele>3.02</ele>
        <time>2021-08-07T06:29:48Z</time>
      </trkpt>
      <trkpt lat="50.98776" lon="2.41449">
        <ele>3.02</ele>
        <time>2021-08-07T06:29:49Z</time>
      </trkpt>
      <trkpt lat="50.9876" lon="2.41451">
        <ele>2.54</ele>
        <time>2021-08-07T06:29:52Z</time>
      </trkpt>
      <trkpt lat="50.98754" lon="2.4145">
        <ele>2.54</ele>
        <time>2021-08-07T06:29:53Z</time>
      </trkpt>
      <trkpt lat="50.98749" lon="2.41448">
        <ele>2.54</ele>
        <time>2021-08-07T06:29:54Z</time>
      </trkpt>
      <trkpt lat="50.98744" lon="2.41445">
        <ele>2.54</ele>
        <time>2021-08-07T06:29:55Z</time>
      </trkpt>
      <trkpt lat="50.98739" lon="2.41441">
        <ele>2.54</ele>
        <time>2021-08-07T06:29:56Z</time>
      </trkpt>
      <trkpt lat="50.98729" lon="2.41435">
        <ele>2.54</ele>
        <time>2021-08-07T06:29:58Z</time>
      </trkpt>
      <trkpt lat="50.98724" lon="2.41433">
        <ele>2.54</ele>
        <time>2021-08-07T06:29:59Z</time>
      </trkpt>
      <trkpt lat="50.98719" lon="2.41433">
        <ele>2.54</ele>
        <time>2021-08-07T06:30:00Z</time>
      </trkpt>
      <trkpt lat="50.98713" lon="2.41432">
        <ele>2.54</ele>
        <time>2021-08-07T06:30:01Z</time>
      </trkpt>
      <trkpt lat="50.98707" lon="2.41431">
        <ele>2.54</ele>
        <time>2021-08-07T06:30:02Z</time>
      </trkpt>
      <trkpt lat="50.98703" lon="2.41429">
        <ele>2.54</ele>
        <time>2021-08-07T06:30:03Z</time>
      </trkpt>
      <trkpt lat="50.98699" lon="2.41425">
        <ele>2.54</ele>
        <time>2021-08-07T06:30:04Z</time>
      </trkpt>
      <trkpt lat="50.98697" lon="2.41419">
        <ele>2.54</ele>
        <time>2021-08-07T06:30:05Z</time>
      </trkpt>
      <trkpt lat="50.98697" lon="2.41411">
        <ele>2.54</ele>
        <time>2021-08-07T06:30:06Z</time>
      </trkpt>
      <trkpt lat="50.98696" lon="2.41403">
        <ele>2.54</ele>
        <time>2021-08-07T06:30:07Z</time>
      </trkpt>
      <trkpt lat="50.98693" lon="2.4136">
        <ele>2.54</ele>
        <time>2021-08-07T06:30:13Z</time>
      </trkpt>
      <trkpt lat="50.98689" lon="2.41322">
        <ele>2.54</ele>
        <time>2021-08-07T06:30:18Z</time>
      </trkpt>
      <trkpt lat="50.98687" lon="2.41315">
        <ele>2.54</ele>
        <time>2021-08-07T06:30:19Z</time>
      </trkpt>
      <trkpt lat="50.98684" lon="2.41308">
        <ele>2.54</ele>
        <time>2021-08-07T06:30:20Z</time>
      </trkpt>
      <trkpt lat="50.98681" lon="2.41304">
        <ele>2.54</ele>
        <time>2021-08-07T06:30:21Z</time>
      </trkpt>
      <trkpt lat="50.98677" lon="2.413">
        <ele>2.54</ele>
        <time>2021-08-07T06:30:22Z</time>
      </trkpt>
      <trkpt lat="50.98672" lon="2.41296">
        <ele>2.54</ele>
        <time>2021-08-07T06:30:23Z</time>
      </trkpt>
      <trkpt lat="50.98669" lon="2.41295">
        <ele>2.54</ele>
        <time>2021-08-07T06:30:24Z</time>
      </trkpt>
      <trkpt lat="50.98652" lon="2.41282">
        <ele>2.54</ele>
        <time>2021-08-07T06:30:26Z</time>
      </trkpt>
      <trkpt lat="50.98646" lon="2.41282">
        <ele>2.54</ele>
        <time>2021-08-07T06:30:27Z</time>
      </trkpt>
      <trkpt lat="50.9864" lon="2.41282">
        <ele>2.54</ele>
        <time>2021-08-07T06:30:28Z</time>
      </trkpt>
      <trkpt lat="50.98635" lon="2.41283">
        <ele>2.54</ele>
        <time>2021-08-07T06:30:29Z</time>
      </trkpt>
      <trkpt lat="50.98631" lon="2.41287">
        <ele>2.54</ele>
        <time>2021-08-07T06:30:30Z</time>
      </trkpt>
      <trkpt lat="50.98629" lon="2.41293">
        <ele>2.54</ele>
        <time>2021-08-07T06:30:31Z</time>
      </trkpt>
      <trkpt lat="50.98628" lon="2.41298">
        <ele>2.54</ele>
        <time>2021-08-07T06:30:32Z</time>
      </trkpt>
      <trkpt lat="50.98627" lon="2.41305">
        <ele>2.54</ele>
        <time>2021-08-07T06:30:33Z</time>
      </trkpt>
      <trkpt lat="50.98626" lon="2.4131">
        <ele>2.54</ele>
        <time>2021-08-07T06:30:34Z</time>
      </trkpt>
      <trkpt lat="50.98625" lon="2.41316">
        <ele>2.54</ele>
        <time>2021-08-07T06:30:35Z</time>
      </trkpt>
      <trkpt lat="50.98624" lon="2.4132">
        <ele>2.54</ele>
        <time>2021-08-07T06:30:36Z</time>
      </trkpt>
      <trkpt lat="50.98622" lon="2.41326">
        <ele>2.54</ele>
        <time>2021-08-07T06:30:37Z</time>
      </trkpt>
      <trkpt lat="50.98619" lon="2.41331">
        <ele>2.54</ele>
        <time>2021-08-07T06:30:38Z</time>
      </trkpt>
      <trkpt lat="50.98616" lon="2.41332">
        <ele>2.54</ele>
        <time>2021-08-07T06:30:39Z</time>
      </trkpt>
      <trkpt lat="50.98608" lon="2.41332">
        <ele>2.54</ele>
        <time>2021-08-07T06:30:41Z</time>
      </trkpt>
      <trkpt lat="50.98602" lon="2.41332">
        <ele>2.54</ele>
        <time>2021-08-07T06:30:42Z</time>
      </trkpt>
      <trkpt lat="50.98598" lon="2.41333">
        <ele>2.54</ele>
        <time>2021-08-07T06:30:43Z</time>
      </trkpt>
      <trkpt lat="50.98593" lon="2.41337">
        <ele>2.54</ele>
        <time>2021-08-07T06:30:44Z</time>
      </trkpt>
      <trkpt lat="50.98589" lon="2.41342">
        <ele>2.54</ele>
        <time>2021-08-07T06:30:45Z</time>
      </trkpt>
      <trkpt lat="50.98586" lon="2.41347">
        <ele>2.54</ele>
        <time>2021-08-07T06:30:46Z</time>
      </trkpt>
      <trkpt lat="50.98568" lon="2.41393">
        <ele>2.54</ele>
        <time>2021-08-07T06:30:53Z</time>
      </trkpt>
      <trkpt lat="50.98567" lon="2.41401">
        <ele>2.54</ele>
        <time>2021-08-07T06:30:54Z</time>
      </trkpt>
      <trkpt lat="50.98565" lon="2.41408">
        <ele>2.54</ele>
        <time>2021-08-07T06:30:55Z</time>
      </trkpt>
      <trkpt lat="50.98565" lon="2.41414">
        <ele>2.06</ele>
        <time>2021-08-07T06:30:56Z</time>
      </trkpt>
      <trkpt lat="50.98565" lon="2.41423">
        <ele>2.06</ele>
        <time>2021-08-07T06:30:57Z</time>
      </trkpt>
      <trkpt lat="50.98565" lon="2.41431">
        <ele>2.06</ele>
        <time>2021-08-07T06:30:58Z</time>
      </trkpt>
      <trkpt lat="50.98566" lon="2.41439">
        <ele>2.06</ele>
        <time>2021-08-07T06:30:59Z</time>
      </trkpt>
      <trkpt lat="50.98566" lon="2.41446">
        <ele>2.06</ele>
        <time>2021-08-07T06:31:00Z</time>
      </trkpt>
      <trkpt lat="50.98565" lon="2.41461">
        <ele>2.06</ele>
        <time>2021-08-07T06:31:02Z</time>
      </trkpt>
      <trkpt lat="50.98563" lon="2.41485">
        <ele>2.06</ele>
        <time>2021-08-07T06:31:05Z</time>
      </trkpt>
      <trkpt lat="50.98563" lon="2.41494">
        <ele>2.06</ele>
        <time>2021-08-07T06:31:06Z</time>
      </trkpt>
      <trkpt lat="50.98565" lon="2.41502">
        <ele>2.06</ele>
        <time>2021-08-07T06:31:07Z</time>
      </trkpt>
      <trkpt lat="50.98567" lon="2.4151">
        <ele>2.06</ele>
        <time>2021-08-07T06:31:08Z</time>
      </trkpt>
      <trkpt lat="50.98569" lon="2.41519">
        <ele>2.06</ele>
        <time>2021-08-07T06:31:09Z</time>
      </trkpt>
      <trkpt lat="50.98571" lon="2.41527">
        <ele>2.06</ele>
        <time>2021-08-07T06:31:10Z</time>
      </trkpt>
      <trkpt lat="50.98573" lon="2.41537">
        <ele>2.06</ele>
        <time>2021-08-07T06:31:11Z</time>
      </trkpt>
      <trkpt lat="50.98574" lon="2.41546">
        <ele>2.06</ele>
        <time>2021-08-07T06:31:12Z</time>
      </trkpt>
      <trkpt lat="50.98575" lon="2.41556">
        <ele>2.06</ele>
        <time>2021-08-07T06:31:13Z</time>
      </trkpt>
      <trkpt lat="50.98575" lon="2.41565">
        <ele>2.06</ele>
        <time>2021-08-07T06:31:14Z</time>
      </trkpt>
      <trkpt lat="50.98575" lon="2.41573">
        <ele>2.06</ele>
        <time>2021-08-07T06:31:15Z</time>
      </trkpt>
      <trkpt lat="50.98574" lon="2.4158">
        <ele>2.06</ele>
        <time>2021-08-07T06:31:16Z</time>
      </trkpt>
      <trkpt lat="50.98572" lon="2.41587">
        <ele>2.06</ele>
        <time>2021-08-07T06:31:17Z</time>
      </trkpt>
      <trkpt lat="50.98568" lon="2.41592">
        <ele>2.54</ele>
        <time>2021-08-07T06:31:18Z</time>
      </trkpt>
      <trkpt lat="50.98565" lon="2.41594">
        <ele>2.54</ele>
        <time>2021-08-07T06:31:19Z</time>
      </trkpt>
      <trkpt lat="50.9856" lon="2.41596">
        <ele>2.06</ele>
        <time>2021-08-07T06:31:20Z</time>
      </trkpt>
      <trkpt lat="50.98555" lon="2.41597">
        <ele>2.06</ele>
        <time>2021-08-07T06:31:21Z</time>
      </trkpt>
      <trkpt lat="50.98539" lon="2.41601">
        <ele>2.54</ele>
        <time>2021-08-07T06:31:24Z</time>
      </trkpt>
      <trkpt lat="50.98535" lon="2.41602">
        <ele>2.54</ele>
        <time>2021-08-07T06:31:25Z</time>
      </trkpt>
      <trkpt lat="50.9853" lon="2.41606">
        <ele>2.54</ele>
        <time>2021-08-07T06:31:26Z</time>
      </trkpt>
      <trkpt lat="50.98527" lon="2.41609">
        <ele>2.54</ele>
        <time>2021-08-07T06:31:27Z</time>
      </trkpt>
      <trkpt lat="50.98524" lon="2.41614">
        <ele>2.54</ele>
        <time>2021-08-07T06:31:28Z</time>
      </trkpt>
      <trkpt lat="50.98523" lon="2.41618">
        <ele>2.54</ele>
        <time>2021-08-07T06:31:29Z</time>
      </trkpt>
      <trkpt lat="50.98522" lon="2.41622">
        <ele>2.54</ele>
        <time>2021-08-07T06:31:30Z</time>
      </trkpt>
      <trkpt lat="50.98522" lon="2.41626">
        <ele>2.54</ele>
        <time>2021-08-07T06:31:31Z</time>
      </trkpt>
      <trkpt lat="50.98522" lon="2.41632">
        <ele>2.54</ele>
        <time>2021-08-07T06:31:32Z</time>
      </trkpt>
      <trkpt lat="50.98525" lon="2.41639">
        <ele>2.54</ele>
        <time>2021-08-07T06:31:33Z</time>
      </trkpt>
      <trkpt lat="50.98526" lon="2.41648">
        <ele>2.54</ele>
        <time>2021-08-07T06:31:34Z</time>
      </trkpt>
      <trkpt lat="50.98527" lon="2.41657">
        <ele>2.54</ele>
        <time>2021-08-07T06:31:35Z</time>
      </trkpt>
      <trkpt lat="50.98527" lon="2.41666">
        <ele>2.54</ele>
        <time>2021-08-07T06:31:36Z</time>
      </trkpt>
      <trkpt lat="50.98526" lon="2.41684">
        <ele>2.54</ele>
        <time>2021-08-07T06:31:38Z</time>
      </trkpt>
      <trkpt lat="50.98523" lon="2.4172">
        <ele>2.54</ele>
        <time>2021-08-07T06:31:42Z</time>
      </trkpt>
      <trkpt lat="50.98522" lon="2.41729">
        <ele>2.54</ele>
        <time>2021-08-07T06:31:43Z</time>
      </trkpt>
      <trkpt lat="50.98522" lon="2.41738">
        <ele>2.54</ele>
        <time>2021-08-07T06:31:44Z</time>
      </trkpt>
      <trkpt lat="50.98522" lon="2.41747">
        <ele>2.54</ele>
        <time>2021-08-07T06:31:45Z</time>
      </trkpt>
      <trkpt lat="50.98522" lon="2.41757">
        <ele>2.54</ele>
        <time>2021-08-07T06:31:46Z</time>
      </trkpt>
      <trkpt lat="50.98519" lon="2.41774">
        <ele>2.54</ele>
        <time>2021-08-07T06:31:48Z</time>
      </trkpt>
      <trkpt lat="50.98517" lon="2.41783">
        <ele>2.54</ele>
        <time>2021-08-07T06:31:49Z</time>
      </trkpt>
      <trkpt lat="50.98515" lon="2.4179">
        <ele>2.54</ele>
        <time>2021-08-07T06:31:50Z</time>
      </trkpt>
      <trkpt lat="50.98507" lon="2.41813">
        <ele>2.54</ele>
        <time>2021-08-07T06:31:53Z</time>
      </trkpt>
      <trkpt lat="50.98504" lon="2.4182">
        <ele>2.54</ele>
        <time>2021-08-07T06:31:54Z</time>
      </trkpt>
      <trkpt lat="50.98499" lon="2.41824">
        <ele>2.54</ele>
        <time>2021-08-07T06:31:55Z</time>
      </trkpt>
      <trkpt lat="50.98492" lon="2.41829">
        <ele>2.54</ele>
        <time>2021-08-07T06:31:57Z</time>
      </trkpt>
      <trkpt lat="50.98482" lon="2.41834">
        <ele>2.54</ele>
        <time>2021-08-07T06:31:59Z</time>
      </trkpt>
      <trkpt lat="50.98477" lon="2.41836">
        <ele>2.54</ele>
        <time>2021-08-07T06:32:00Z</time>
      </trkpt>
      <trkpt lat="50.98472" lon="2.4184">
        <ele>2.54</ele>
        <time>2021-08-07T06:32:01Z</time>
      </trkpt>
      <trkpt lat="50.98463" lon="2.41848">
        <ele>2.54</ele>
        <time>2021-08-07T06:32:03Z</time>
      </trkpt>
      <trkpt lat="50.98459" lon="2.41853">
        <ele>2.54</ele>
        <time>2021-08-07T06:32:04Z</time>
      </trkpt>
      <trkpt lat="50.98455" lon="2.41858">
        <ele>2.54</ele>
        <time>2021-08-07T06:32:05Z</time>
      </trkpt>
      <trkpt lat="50.98438" lon="2.41873">
        <ele>2.54</ele>
        <time>2021-08-07T06:32:09Z</time>
      </trkpt>
      <trkpt lat="50.98434" lon="2.41878">
        <ele>2.54</ele>
        <time>2021-08-07T06:32:10Z</time>
      </trkpt>
      <trkpt lat="50.98431" lon="2.41884">
        <ele>2.54</ele>
        <time>2021-08-07T06:32:11Z</time>
      </trkpt>
      <trkpt lat="50.98428" lon="2.41889">
        <ele>2.54</ele>
        <time>2021-08-07T06:32:12Z</time>
      </trkpt>
      <trkpt lat="50.98425" lon="2.41895">
        <ele>2.54</ele>
        <time>2021-08-07T06:32:13Z</time>
      </trkpt>
      <trkpt lat="50.98421" lon="2.419">
        <ele>2.54</ele>
        <time>2021-08-07T06:32:14Z</time>
      </trkpt>
      <trkpt lat="50.98417" lon="2.41907">
        <ele>2.54</ele>
        <time>2021-08-07T06:32:15Z</time>
      </trkpt>
      <trkpt lat="50.98413" lon="2.41912">
        <ele>2.54</ele>
        <time>2021-08-07T06:32:16Z</time>
      </trkpt>
      <trkpt lat="50.98408" lon="2.41916">
        <ele>2.54</ele>
        <time>2021-08-07T06:32:17Z</time>
      </trkpt>
      <trkpt lat="50.98404" lon="2.4192">
        <ele>2.54</ele>
        <time>2021-08-07T06:32:18Z</time>
      </trkpt>
      <trkpt lat="50.98399" lon="2.41922">
        <ele>2.54</ele>
        <time>2021-08-07T06:32:19Z</time>
      </trkpt>
      <trkpt lat="50.98357" lon="2.41938">
        <ele>2.54</ele>
        <time>2021-08-07T06:32:27Z</time>
      </trkpt>
      <trkpt lat="50.9833" lon="2.41949">
        <ele>2.54</ele>
        <time>2021-08-07T06:32:32Z</time>
      </trkpt>
      <trkpt lat="50.98305" lon="2.4197">
        <ele>2.54</ele>
        <time>2021-08-07T06:32:37Z</time>
      </trkpt>
      <trkpt lat="50.98285" lon="2.41993">
        <ele>2.54</ele>
        <time>2021-08-07T06:32:41Z</time>
      </trkpt>
      <trkpt lat="50.9828" lon="2.41997">
        <ele>2.54</ele>
        <time>2021-08-07T06:32:42Z</time>
      </trkpt>
      <trkpt lat="50.98274" lon="2.42001">
        <ele>2.54</ele>
        <time>2021-08-07T06:32:43Z</time>
      </trkpt>
      <trkpt lat="50.98264" lon="2.42007">
        <ele>2.06</ele>
        <time>2021-08-07T06:32:45Z</time>
      </trkpt>
      <trkpt lat="50.98259" lon="2.42012">
        <ele>2.06</ele>
        <time>2021-08-07T06:32:46Z</time>
      </trkpt>
      <trkpt lat="50.98254" lon="2.42017">
        <ele>2.06</ele>
        <time>2021-08-07T06:32:47Z</time>
      </trkpt>
      <trkpt lat="50.98246" lon="2.42027">
        <ele>2.06</ele>
        <time>2021-08-07T06:32:49Z</time>
      </trkpt>
      <trkpt lat="50.98241" lon="2.42031">
        <ele>2.06</ele>
        <time>2021-08-07T06:32:50Z</time>
      </trkpt>
      <trkpt lat="50.98235" lon="2.42034">
        <ele>2.06</ele>
        <time>2021-08-07T06:32:51Z</time>
      </trkpt>
      <trkpt lat="50.98219" lon="2.42044">
        <ele>2.06</ele>
        <time>2021-08-07T06:32:54Z</time>
      </trkpt>
      <trkpt lat="50.98214" lon="2.42049">
        <ele>2.06</ele>
        <time>2021-08-07T06:32:55Z</time>
      </trkpt>
      <trkpt lat="50.9821" lon="2.42055">
        <ele>2.06</ele>
        <time>2021-08-07T06:32:56Z</time>
      </trkpt>
      <trkpt lat="50.98207" lon="2.42062">
        <ele>2.06</ele>
        <time>2021-08-07T06:32:57Z</time>
      </trkpt>
      <trkpt lat="50.98204" lon="2.42069">
        <ele>2.06</ele>
        <time>2021-08-07T06:32:58Z</time>
      </trkpt>
      <trkpt lat="50.982" lon="2.42076">
        <ele>2.06</ele>
        <time>2021-08-07T06:32:59Z</time>
      </trkpt>
      <trkpt lat="50.98196" lon="2.42083">
        <ele>2.06</ele>
        <time>2021-08-07T06:33:00Z</time>
      </trkpt>
      <trkpt lat="50.98192" lon="2.42089">
        <ele>2.06</ele>
        <time>2021-08-07T06:33:01Z</time>
      </trkpt>
      <trkpt lat="50.98162" lon="2.42145">
        <ele>2.06</ele>
        <time>2021-08-07T06:33:09Z</time>
      </trkpt>
      <trkpt lat="50.9815" lon="2.42162">
        <ele>2.06</ele>
        <time>2021-08-07T06:33:12Z</time>
      </trkpt>
      <trkpt lat="50.98144" lon="2.42168">
        <ele>2.06</ele>
        <time>2021-08-07T06:33:13Z</time>
      </trkpt>
      <trkpt lat="50.98116" lon="2.42197">
        <ele>2.06</ele>
        <time>2021-08-07T06:33:19Z</time>
      </trkpt>
      <trkpt lat="50.98112" lon="2.42204">
        <ele>2.06</ele>
        <time>2021-08-07T06:33:20Z</time>
      </trkpt>
      <trkpt lat="50.98108" lon="2.4221">
        <ele>2.06</ele>
        <time>2021-08-07T06:33:21Z</time>
      </trkpt>
      <trkpt lat="50.98103" lon="2.42216">
        <ele>2.06</ele>
        <time>2021-08-07T06:33:22Z</time>
      </trkpt>
      <trkpt lat="50.98099" lon="2.42221">
        <ele>2.06</ele>
        <time>2021-08-07T06:33:23Z</time>
      </trkpt>
      <trkpt lat="50.98094" lon="2.42224">
        <ele>2.06</ele>
        <time>2021-08-07T06:33:24Z</time>
      </trkpt>
      <trkpt lat="50.98089" lon="2.42225">
        <ele>2.06</ele>
        <time>2021-08-07T06:33:25Z</time>
      </trkpt>
      <trkpt lat="50.98084" lon="2.42226">
        <ele>2.06</ele>
        <time>2021-08-07T06:33:26Z</time>
      </trkpt>
      <trkpt lat="50.98078" lon="2.42226">
        <ele>2.06</ele>
        <time>2021-08-07T06:33:27Z</time>
      </trkpt>
      <trkpt lat="50.98067" lon="2.42221">
        <ele>2.06</ele>
        <time>2021-08-07T06:33:29Z</time>
      </trkpt>
      <trkpt lat="50.98061" lon="2.42218">
        <ele>2.06</ele>
        <time>2021-08-07T06:33:30Z</time>
      </trkpt>
      <trkpt lat="50.98056" lon="2.42216">
        <ele>2.06</ele>
        <time>2021-08-07T06:33:31Z</time>
      </trkpt>
      <trkpt lat="50.9805" lon="2.42216">
        <ele>2.06</ele>
        <time>2021-08-07T06:33:32Z</time>
      </trkpt>
      <trkpt lat="50.98044" lon="2.42218">
        <ele>2.06</ele>
        <time>2021-08-07T06:33:33Z</time>
      </trkpt>
      <trkpt lat="50.98039" lon="2.4222">
        <ele>2.06</ele>
        <time>2021-08-07T06:33:34Z</time>
      </trkpt>
      <trkpt lat="50.97998" lon="2.42239">
        <ele>2.06</ele>
        <time>2021-08-07T06:33:41Z</time>
      </trkpt>
      <trkpt lat="50.97993" lon="2.42241">
        <ele>2.06</ele>
        <time>2021-08-07T06:33:42Z</time>
      </trkpt>
      <trkpt lat="50.9797" lon="2.42247">
        <ele>2.06</ele>
        <time>2021-08-07T06:33:46Z</time>
      </trkpt>
      <trkpt lat="50.97953" lon="2.4225">
        <ele>2.06</ele>
        <time>2021-08-07T06:33:49Z</time>
      </trkpt>
      <trkpt lat="50.97947" lon="2.42249">
        <ele>2.06</ele>
        <time>2021-08-07T06:33:50Z</time>
      </trkpt>
      <trkpt lat="50.97942" lon="2.42248">
        <ele>2.06</ele>
        <time>2021-08-07T06:33:51Z</time>
      </trkpt>
      <trkpt lat="50.97925" lon="2.42244">
        <ele>2.06</ele>
        <time>2021-08-07T06:33:54Z</time>
      </trkpt>
      <trkpt lat="50.9792" lon="2.42244">
        <ele>2.06</ele>
        <time>2021-08-07T06:33:55Z</time>
      </trkpt>
      <trkpt lat="50.97908" lon="2.42247">
        <ele>2.06</ele>
        <time>2021-08-07T06:33:57Z</time>
      </trkpt>
      <trkpt lat="50.97865" lon="2.4226">
        <ele>3.5</ele>
        <time>2021-08-07T06:34:05Z</time>
      </trkpt>
      <trkpt lat="50.97821" lon="2.42261">
        <ele>3.5</ele>
        <time>2021-08-07T06:34:13Z</time>
      </trkpt>
      <trkpt lat="50.97815" lon="2.4226">
        <ele>3.5</ele>
        <time>2021-08-07T06:34:14Z</time>
      </trkpt>
      <trkpt lat="50.97788" lon="2.42246">
        <ele>3.5</ele>
        <time>2021-08-07T06:34:19Z</time>
      </trkpt>
      <trkpt lat="50.97768" lon="2.42226">
        <ele>3.5</ele>
        <time>2021-08-07T06:34:23Z</time>
      </trkpt>
      <trkpt lat="50.97763" lon="2.42223">
        <ele>3.5</ele>
        <time>2021-08-07T06:34:24Z</time>
      </trkpt>
      <trkpt lat="50.97758" lon="2.42223">
        <ele>3.5</ele>
        <time>2021-08-07T06:34:25Z</time>
      </trkpt>
      <trkpt lat="50.97747" lon="2.42225">
        <ele>3.5</ele>
        <time>2021-08-07T06:34:27Z</time>
      </trkpt>
      <trkpt lat="50.97742" lon="2.42225">
        <ele>3.5</ele>
        <time>2021-08-07T06:34:28Z</time>
      </trkpt>
      <trkpt lat="50.97716" lon="2.42225">
        <ele>3.98</ele>
        <time>2021-08-07T06:34:33Z</time>
      </trkpt>
      <trkpt lat="50.97712" lon="2.42224">
        <ele>3.98</ele>
        <time>2021-08-07T06:34:34Z</time>
      </trkpt>
      <trkpt lat="50.97708" lon="2.42225">
        <ele>4.46</ele>
        <time>2021-08-07T06:34:35Z</time>
      </trkpt>
      <trkpt lat="50.97694" lon="2.42225">
        <ele>4.46</ele>
        <time>2021-08-07T06:34:38Z</time>
      </trkpt>
      <trkpt lat="50.97689" lon="2.42225">
        <ele>4.46</ele>
        <time>2021-08-07T06:34:39Z</time>
      </trkpt>
      <trkpt lat="50.97684" lon="2.42225">
        <ele>4.46</ele>
        <time>2021-08-07T06:34:40Z</time>
      </trkpt>
      <trkpt lat="50.9768" lon="2.42225">
        <ele>4.46</ele>
        <time>2021-08-07T06:34:41Z</time>
      </trkpt>
      <trkpt lat="50.97656" lon="2.42221">
        <ele>4.46</ele>
        <time>2021-08-07T06:34:46Z</time>
      </trkpt>
      <trkpt lat="50.9765" lon="2.42222">
        <ele>4.46</ele>
        <time>2021-08-07T06:34:47Z</time>
      </trkpt>
      <trkpt lat="50.97644" lon="2.42223">
        <ele>4.46</ele>
        <time>2021-08-07T06:34:48Z</time>
      </trkpt>
      <trkpt lat="50.97638" lon="2.42226">
        <ele>4.46</ele>
        <time>2021-08-07T06:34:49Z</time>
      </trkpt>
      <trkpt lat="50.97633" lon="2.4223">
        <ele>4.46</ele>
        <time>2021-08-07T06:34:50Z</time>
      </trkpt>
      <trkpt lat="50.97597" lon="2.42254">
        <ele>4.46</ele>
        <time>2021-08-07T06:34:57Z</time>
      </trkpt>
      <trkpt lat="50.97571" lon="2.42275">
        <ele>4.46</ele>
        <time>2021-08-07T06:35:02Z</time>
      </trkpt>
      <trkpt lat="50.97542" lon="2.42313">
        <ele>3.5</ele>
        <time>2021-08-07T06:35:09Z</time>
      </trkpt>
      <trkpt lat="50.97537" lon="2.42319">
        <ele>3.5</ele>
        <time>2021-08-07T06:35:10Z</time>
      </trkpt>
      <trkpt lat="50.97534" lon="2.42325">
        <ele>3.5</ele>
        <time>2021-08-07T06:35:11Z</time>
      </trkpt>
      <trkpt lat="50.97529" lon="2.4233">
        <ele>3.5</ele>
        <time>2021-08-07T06:35:12Z</time>
      </trkpt>
      <trkpt lat="50.97526" lon="2.42335">
        <ele>3.5</ele>
        <time>2021-08-07T06:35:13Z</time>
      </trkpt>
      <trkpt lat="50.97523" lon="2.42341">
        <ele>3.5</ele>
        <time>2021-08-07T06:35:14Z</time>
      </trkpt>
      <trkpt lat="50.9752" lon="2.42346">
        <ele>4.94</ele>
        <time>2021-08-07T06:35:15Z</time>
      </trkpt>
      <trkpt lat="50.97507" lon="2.42365">
        <ele>5.42</ele>
        <time>2021-08-07T06:35:20Z</time>
      </trkpt>
      <trkpt lat="50.97506" lon="2.42365">
        <ele>5.42</ele>
        <time>2021-08-07T06:35:21Z</time>
      </trkpt>
      <trkpt lat="50.97505" lon="2.42363">
        <ele>5.42</ele>
        <time>2021-08-07T06:35:22Z</time>
      </trkpt>
      <trkpt lat="50.97505" lon="2.4236">
        <ele>5.91</ele>
        <time>2021-08-07T06:35:23Z</time>
      </trkpt>
      <trkpt lat="50.97505" lon="2.42357">
        <ele>5.91</ele>
        <time>2021-08-07T06:35:24Z</time>
      </trkpt>
      <trkpt lat="50.97502" lon="2.42328">
        <ele>6.39</ele>
        <time>2021-08-07T06:35:30Z</time>
      </trkpt>
      <trkpt lat="50.975" lon="2.42323">
        <ele>6.39</ele>
        <time>2021-08-07T06:35:31Z</time>
      </trkpt>
      <trkpt lat="50.97497" lon="2.42321">
        <ele>6.87</ele>
        <time>2021-08-07T06:35:32Z</time>
      </trkpt>
      <trkpt lat="50.97494" lon="2.42321">
        <ele>6.87</ele>
        <time>2021-08-07T06:35:33Z</time>
      </trkpt>
      <trkpt lat="50.97491" lon="2.42323">
        <ele>6.87</ele>
        <time>2021-08-07T06:35:34Z</time>
      </trkpt>
      <trkpt lat="50.97488" lon="2.42326">
        <ele>6.87</ele>
        <time>2021-08-07T06:35:35Z</time>
      </trkpt>
      <trkpt lat="50.97485" lon="2.4233">
        <ele>6.87</ele>
        <time>2021-08-07T06:35:36Z</time>
      </trkpt>
      <trkpt lat="50.97481" lon="2.42335">
        <ele>6.87</ele>
        <time>2021-08-07T06:35:37Z</time>
      </trkpt>
      <trkpt lat="50.9745" lon="2.4238">
        <ele>6.87</ele>
        <time>2021-08-07T06:35:46Z</time>
      </trkpt>
      <trkpt lat="50.9743" lon="2.42407">
        <ele>6.39</ele>
        <time>2021-08-07T06:35:52Z</time>
      </trkpt>
      <trkpt lat="50.97399" lon="2.42451">
        <ele>5.42</ele>
        <time>2021-08-07T06:36:00Z</time>
      </trkpt>
      <trkpt lat="50.97369" lon="2.42489">
        <ele>4.94</ele>
        <time>2021-08-07T06:36:07Z</time>
      </trkpt>
      <trkpt lat="50.9736" lon="2.425">
        <ele>4.94</ele>
        <time>2021-08-07T06:36:09Z</time>
      </trkpt>
      <trkpt lat="50.97317" lon="2.42543">
        <ele>4.94</ele>
        <time>2021-08-07T06:36:17Z</time>
      </trkpt>
      <trkpt lat="50.97308" lon="2.4255">
        <ele>4.94</ele>
        <time>2021-08-07T06:36:19Z</time>
      </trkpt>
      <trkpt lat="50.97275" lon="2.42591">
        <ele>4.94</ele>
        <time>2021-08-07T06:36:27Z</time>
      </trkpt>
      <trkpt lat="50.97241" lon="2.42619">
        <ele>4.94</ele>
        <time>2021-08-07T06:36:34Z</time>
      </trkpt>
      <trkpt lat="50.97207" lon="2.42648">
        <ele>4.94</ele>
        <time>2021-08-07T06:36:41Z</time>
      </trkpt>
      <trkpt lat="50.97201" lon="2.42652">
        <ele>4.94</ele>
        <time>2021-08-07T06:36:42Z</time>
      </trkpt>
      <trkpt lat="50.97172" lon="2.42677">
        <ele>4.94</ele>
        <time>2021-08-07T06:36:48Z</time>
      </trkpt>
      <trkpt lat="50.97167" lon="2.42684">
        <ele>4.94</ele>
        <time>2021-08-07T06:36:49Z</time>
      </trkpt>
      <trkpt lat="50.97165" lon="2.42689">
        <ele>4.94</ele>
        <time>2021-08-07T06:36:50Z</time>
      </trkpt>
      <trkpt lat="50.97162" lon="2.42696">
        <ele>4.94</ele>
        <time>2021-08-07T06:36:51Z</time>
      </trkpt>
      <trkpt lat="50.97159" lon="2.42704">
        <ele>4.94</ele>
        <time>2021-08-07T06:36:52Z</time>
      </trkpt>
      <trkpt lat="50.97155" lon="2.42718">
        <ele>4.94</ele>
        <time>2021-08-07T06:36:54Z</time>
      </trkpt>
      <trkpt lat="50.97156" lon="2.42725">
        <ele>4.46</ele>
        <time>2021-08-07T06:36:55Z</time>
      </trkpt>
      <trkpt lat="50.97158" lon="2.42733">
        <ele>4.46</ele>
        <time>2021-08-07T06:36:56Z</time>
      </trkpt>
      <trkpt lat="50.97164" lon="2.42755">
        <ele>4.46</ele>
        <time>2021-08-07T06:36:59Z</time>
      </trkpt>
      <trkpt lat="50.97182" lon="2.42829">
        <ele>5.42</ele>
        <time>2021-08-07T06:37:08Z</time>
      </trkpt>
      <trkpt lat="50.97204" lon="2.42924">
        <ele>5.42</ele>
        <time>2021-08-07T06:37:19Z</time>
      </trkpt>
      <trkpt lat="50.97216" lon="2.43001">
        <ele>5.42</ele>
        <time>2021-08-07T06:37:27Z</time>
      </trkpt>
      <trkpt lat="50.97215" lon="2.43012">
        <ele>5.42</ele>
        <time>2021-08-07T06:37:28Z</time>
      </trkpt>
      <trkpt lat="50.97214" lon="2.4302">
        <ele>5.42</ele>
        <time>2021-08-07T06:37:29Z</time>
      </trkpt>
      <trkpt lat="50.97213" lon="2.43029">
        <ele>5.42</ele>
        <time>2021-08-07T06:37:30Z</time>
      </trkpt>
      <trkpt lat="50.97194" lon="2.43123">
        <ele>5.42</ele>
        <time>2021-08-07T06:37:40Z</time>
      </trkpt>
      <trkpt lat="50.97183" lon="2.43175">
        <ele>5.91</ele>
        <time>2021-08-07T06:37:46Z</time>
      </trkpt>
      <trkpt lat="50.97182" lon="2.43183">
        <ele>6.39</ele>
        <time>2021-08-07T06:37:47Z</time>
      </trkpt>
      <trkpt lat="50.97181" lon="2.43199">
        <ele>6.87</ele>
        <time>2021-08-07T06:37:49Z</time>
      </trkpt>
      <trkpt lat="50.97186" lon="2.43273">
        <ele>6.87</ele>
        <time>2021-08-07T06:37:58Z</time>
      </trkpt>
      <trkpt lat="50.97188" lon="2.43311">
        <ele>7.35</ele>
        <time>2021-08-07T06:38:04Z</time>
      </trkpt>
      <trkpt lat="50.97186" lon="2.43315">
        <ele>7.35</ele>
        <time>2021-08-07T06:38:05Z</time>
      </trkpt>
      <trkpt lat="50.97184" lon="2.43317">
        <ele>7.83</ele>
        <time>2021-08-07T06:38:06Z</time>
      </trkpt>
      <trkpt lat="50.97181" lon="2.43319">
        <ele>7.83</ele>
        <time>2021-08-07T06:38:07Z</time>
      </trkpt>
      <trkpt lat="50.97178" lon="2.43319">
        <ele>7.83</ele>
        <time>2021-08-07T06:38:08Z</time>
      </trkpt>
      <trkpt lat="50.97174" lon="2.43319">
        <ele>7.83</ele>
        <time>2021-08-07T06:38:09Z</time>
      </trkpt>
      <trkpt lat="50.9717" lon="2.43319">
        <ele>7.83</ele>
        <time>2021-08-07T06:38:10Z</time>
      </trkpt>
      <trkpt lat="50.97166" lon="2.43319">
        <ele>7.83</ele>
        <time>2021-08-07T06:38:11Z</time>
      </trkpt>
      <trkpt lat="50.97158" lon="2.4332">
        <ele>7.83</ele>
        <time>2021-08-07T06:38:13Z</time>
      </trkpt>
      <trkpt lat="50.97149" lon="2.43319">
        <ele>7.83</ele>
        <time>2021-08-07T06:38:15Z</time>
      </trkpt>
      <trkpt lat="50.97145" lon="2.43317">
        <ele>7.83</ele>
        <time>2021-08-07T06:38:16Z</time>
      </trkpt>
      <trkpt lat="50.97133" lon="2.43311">
        <ele>7.83</ele>
        <time>2021-08-07T06:38:19Z</time>
      </trkpt>
      <trkpt lat="50.97116" lon="2.43297">
        <ele>7.83</ele>
        <time>2021-08-07T06:38:23Z</time>
      </trkpt>
      <trkpt lat="50.97106" lon="2.4328">
        <ele>6.39</ele>
        <time>2021-08-07T06:38:26Z</time>
      </trkpt>
      <trkpt lat="50.97093" lon="2.43255">
        <ele>7.35</ele>
        <time>2021-08-07T06:38:30Z</time>
      </trkpt>
      <trkpt lat="50.97084" lon="2.43243">
        <ele>7.83</ele>
        <time>2021-08-07T06:38:33Z</time>
      </trkpt>
      <trkpt lat="50.97081" lon="2.43245">
        <ele>7.83</ele>
        <time>2021-08-07T06:38:34Z</time>
      </trkpt>
      <trkpt lat="50.9706" lon="2.43261">
        <ele>7.83</ele>
        <time>2021-08-07T06:38:40Z</time>
      </trkpt>
      <trkpt lat="50.97052" lon="2.43259">
        <ele>6.39</ele>
        <time>2021-08-07T06:38:42Z</time>
      </trkpt>
      <trkpt lat="50.97048" lon="2.43254">
        <ele>6.39</ele>
        <time>2021-08-07T06:38:43Z</time>
      </trkpt>
      <trkpt lat="50.97045" lon="2.43249">
        <ele>6.39</ele>
        <time>2021-08-07T06:38:44Z</time>
      </trkpt>
      <trkpt lat="50.97023" lon="2.43215">
        <ele>7.35</ele>
        <time>2021-08-07T06:38:50Z</time>
      </trkpt>
      <trkpt lat="50.96995" lon="2.43172">
        <ele>7.83</ele>
        <time>2021-08-07T06:38:58Z</time>
      </trkpt>
      <trkpt lat="50.9699" lon="2.43159">
        <ele>8.31</ele>
        <time>2021-08-07T06:39:01Z</time>
      </trkpt>
      <trkpt lat="50.96986" lon="2.43157">
        <ele>8.31</ele>
        <time>2021-08-07T06:39:02Z</time>
      </trkpt>
      <trkpt lat="50.96981" lon="2.4316">
        <ele>8.31</ele>
        <time>2021-08-07T06:39:03Z</time>
      </trkpt>
      <trkpt lat="50.96978" lon="2.43164">
        <ele>8.31</ele>
        <time>2021-08-07T06:39:04Z</time>
      </trkpt>
      <trkpt lat="50.96974" lon="2.43168">
        <ele>8.31</ele>
        <time>2021-08-07T06:39:05Z</time>
      </trkpt>
      <trkpt lat="50.96967" lon="2.43178">
        <ele>8.31</ele>
        <time>2021-08-07T06:39:07Z</time>
      </trkpt>
      <trkpt lat="50.9694" lon="2.43228">
        <ele>8.31</ele>
        <time>2021-08-07T06:39:16Z</time>
      </trkpt>
      <trkpt lat="50.96932" lon="2.43238">
        <ele>8.31</ele>
        <time>2021-08-07T06:39:18Z</time>
      </trkpt>
      <trkpt lat="50.96919" lon="2.43249">
        <ele>8.79</ele>
        <time>2021-08-07T06:39:21Z</time>
      </trkpt>
      <trkpt lat="50.96915" lon="2.43251">
        <ele>8.79</ele>
        <time>2021-08-07T06:39:22Z</time>
      </trkpt>
      <trkpt lat="50.96906" lon="2.43258">
        <ele>8.79</ele>
        <time>2021-08-07T06:39:24Z</time>
      </trkpt>
      <trkpt lat="50.96901" lon="2.43261">
        <ele>8.79</ele>
        <time>2021-08-07T06:39:25Z</time>
      </trkpt>
      <trkpt lat="50.96896" lon="2.43263">
        <ele>8.79</ele>
        <time>2021-08-07T06:39:26Z</time>
      </trkpt>
      <trkpt lat="50.96855" lon="2.43271">
        <ele>7.35</ele>
        <time>2021-08-07T06:39:34Z</time>
      </trkpt>
      <trkpt lat="50.96839" lon="2.4328">
        <ele>7.35</ele>
        <time>2021-08-07T06:39:38Z</time>
      </trkpt>
      <trkpt lat="50.96836" lon="2.43282">
        <ele>8.79</ele>
        <time>2021-08-07T06:39:39Z</time>
      </trkpt>
      <trkpt lat="50.96831" lon="2.43283">
        <ele>8.79</ele>
        <time>2021-08-07T06:39:40Z</time>
      </trkpt>
      <trkpt lat="50.96815" lon="2.43292">
        <ele>8.79</ele>
        <time>2021-08-07T06:39:44Z</time>
      </trkpt>
      <trkpt lat="50.96811" lon="2.43294">
        <ele>7.35</ele>
        <time>2021-08-07T06:39:45Z</time>
      </trkpt>
      <trkpt lat="50.96807" lon="2.43295">
        <ele>7.35</ele>
        <time>2021-08-07T06:39:46Z</time>
      </trkpt>
      <trkpt lat="50.96802" lon="2.43295">
        <ele>7.83</ele>
        <time>2021-08-07T06:39:47Z</time>
      </trkpt>
      <trkpt lat="50.96799" lon="2.43293">
        <ele>7.35</ele>
        <time>2021-08-07T06:39:48Z</time>
      </trkpt>
      <trkpt lat="50.96795" lon="2.4329">
        <ele>7.35</ele>
        <time>2021-08-07T06:39:49Z</time>
      </trkpt>
      <trkpt lat="50.96791" lon="2.43285">
        <ele>7.35</ele>
        <time>2021-08-07T06:39:50Z</time>
      </trkpt>
      <trkpt lat="50.96787" lon="2.43281">
        <ele>7.35</ele>
        <time>2021-08-07T06:39:51Z</time>
      </trkpt>
      <trkpt lat="50.96776" lon="2.43265">
        <ele>8.79</ele>
        <time>2021-08-07T06:39:54Z</time>
      </trkpt>
      <trkpt lat="50.96765" lon="2.4325">
        <ele>6.39</ele>
        <time>2021-08-07T06:39:57Z</time>
      </trkpt>
      <trkpt lat="50.96736" lon="2.43221">
        <ele>7.83</ele>
        <time>2021-08-07T06:40:04Z</time>
      </trkpt>
      <trkpt lat="50.96732" lon="2.43218">
        <ele>7.83</ele>
        <time>2021-08-07T06:40:05Z</time>
      </trkpt>
      <trkpt lat="50.96727" lon="2.43216">
        <ele>7.83</ele>
        <time>2021-08-07T06:40:06Z</time>
      </trkpt>
      <trkpt lat="50.96722" lon="2.43216">
        <ele>7.83</ele>
        <time>2021-08-07T06:40:07Z</time>
      </trkpt>
      <trkpt lat="50.96716" lon="2.43217">
        <ele>7.83</ele>
        <time>2021-08-07T06:40:08Z</time>
      </trkpt>
      <trkpt lat="50.96711" lon="2.43219">
        <ele>7.83</ele>
        <time>2021-08-07T06:40:09Z</time>
      </trkpt>
      <trkpt lat="50.96706" lon="2.43221">
        <ele>7.83</ele>
        <time>2021-08-07T06:40:10Z</time>
      </trkpt>
      <trkpt lat="50.96674" lon="2.43234">
        <ele>7.83</ele>
        <time>2021-08-07T06:40:16Z</time>
      </trkpt>
      <trkpt lat="50.96663" lon="2.43236">
        <ele>7.83</ele>
        <time>2021-08-07T06:40:18Z</time>
      </trkpt>
      <trkpt lat="50.96626" lon="2.4323">
        <ele>6.39</ele>
        <time>2021-08-07T06:40:25Z</time>
      </trkpt>
      <trkpt lat="50.96583" lon="2.43222">
        <ele>5.91</ele>
        <time>2021-08-07T06:40:33Z</time>
      </trkpt>
      <trkpt lat="50.96553" lon="2.4322">
        <ele>5.91</ele>
        <time>2021-08-07T06:40:39Z</time>
      </trkpt>
      <trkpt lat="50.9651" lon="2.43212">
        <ele>5.91</ele>
        <time>2021-08-07T06:40:48Z</time>
      </trkpt>
      <trkpt lat="50.96465" lon="2.43206">
        <ele>5.42</ele>
        <time>2021-08-07T06:40:57Z</time>
      </trkpt>
      <trkpt lat="50.9646" lon="2.43204">
        <ele>5.42</ele>
        <time>2021-08-07T06:40:58Z</time>
      </trkpt>
      <trkpt lat="50.96457" lon="2.43201">
        <ele>5.42</ele>
        <time>2021-08-07T06:40:59Z</time>
      </trkpt>
      <trkpt lat="50.96454" lon="2.43199">
        <ele>6.39</ele>
        <time>2021-08-07T06:41:00Z</time>
      </trkpt>
      <trkpt lat="50.96452" lon="2.43197">
        <ele>6.39</ele>
        <time>2021-08-07T06:41:01Z</time>
      </trkpt>
      <trkpt lat="50.96449" lon="2.43195">
        <ele>6.39</ele>
        <time>2021-08-07T06:41:02Z</time>
      </trkpt>
      <trkpt lat="50.96445" lon="2.43195">
        <ele>6.87</ele>
        <time>2021-08-07T06:41:03Z</time>
      </trkpt>
      <trkpt lat="50.96442" lon="2.43196">
        <ele>6.87</ele>
        <time>2021-08-07T06:41:04Z</time>
      </trkpt>
      <trkpt lat="50.96434" lon="2.43199">
        <ele>6.87</ele>
        <time>2021-08-07T06:41:06Z</time>
      </trkpt>
      <trkpt lat="50.96392" lon="2.43224">
        <ele>6.87</ele>
        <time>2021-08-07T06:41:15Z</time>
      </trkpt>
      <trkpt lat="50.96388" lon="2.43227">
        <ele>6.87</ele>
        <time>2021-08-07T06:41:16Z</time>
      </trkpt>
      <trkpt lat="50.96372" lon="2.43239">
        <ele>6.87</ele>
        <time>2021-08-07T06:41:20Z</time>
      </trkpt>
      <trkpt lat="50.96372" lon="2.43243">
        <ele>6.87</ele>
        <time>2021-08-07T06:41:21Z</time>
      </trkpt>
      <trkpt lat="50.96374" lon="2.43244">
        <ele>6.87</ele>
        <time>2021-08-07T06:41:22Z</time>
      </trkpt>
      <trkpt lat="50.96377" lon="2.43244">
        <ele>6.87</ele>
        <time>2021-08-07T06:41:23Z</time>
      </trkpt>
      <trkpt lat="50.9638" lon="2.43241">
        <ele>6.87</ele>
        <time>2021-08-07T06:41:24Z</time>
      </trkpt>
      <trkpt lat="50.96382" lon="2.43235">
        <ele>6.87</ele>
        <time>2021-08-07T06:41:25Z</time>
      </trkpt>
      <trkpt lat="50.96383" lon="2.4323">
        <ele>6.87</ele>
        <time>2021-08-07T06:41:26Z</time>
      </trkpt>
      <trkpt lat="50.96383" lon="2.43224">
        <ele>7.35</ele>
        <time>2021-08-07T06:41:27Z</time>
      </trkpt>
      <trkpt lat="50.96384" lon="2.43219">
        <ele>7.35</ele>
        <time>2021-08-07T06:41:28Z</time>
      </trkpt>
      <trkpt lat="50.96384" lon="2.43212">
        <ele>7.35</ele>
        <time>2021-08-07T06:41:29Z</time>
      </trkpt>
      <trkpt lat="50.96383" lon="2.432">
        <ele>7.35</ele>
        <time>2021-08-07T06:41:31Z</time>
      </trkpt>
      <trkpt lat="50.96378" lon="2.43165">
        <ele>5.91</ele>
        <time>2021-08-07T06:41:36Z</time>
      </trkpt>
      <trkpt lat="50.96363" lon="2.43115">
        <ele>4.94</ele>
        <time>2021-08-07T06:41:44Z</time>
      </trkpt>
      <trkpt lat="50.96354" lon="2.43088">
        <ele>4.94</ele>
        <time>2021-08-07T06:41:48Z</time>
      </trkpt>
      <trkpt lat="50.96351" lon="2.43082">
        <ele>4.94</ele>
        <time>2021-08-07T06:41:49Z</time>
      </trkpt>
      <trkpt lat="50.96348" lon="2.43078">
        <ele>4.94</ele>
        <time>2021-08-07T06:41:50Z</time>
      </trkpt>
      <trkpt lat="50.96344" lon="2.43075">
        <ele>4.94</ele>
        <time>2021-08-07T06:41:51Z</time>
      </trkpt>
      <trkpt lat="50.96341" lon="2.43073">
        <ele>4.94</ele>
        <time>2021-08-07T06:41:52Z</time>
      </trkpt>
      <trkpt lat="50.96338" lon="2.43069">
        <ele>4.94</ele>
        <time>2021-08-07T06:41:53Z</time>
      </trkpt>
      <trkpt lat="50.96332" lon="2.43065">
        <ele>5.91</ele>
        <time>2021-08-07T06:41:55Z</time>
      </trkpt>
      <trkpt lat="50.96328" lon="2.43064">
        <ele>5.91</ele>
        <time>2021-08-07T06:41:56Z</time>
      </trkpt>
      <trkpt lat="50.96324" lon="2.43064">
        <ele>5.91</ele>
        <time>2021-08-07T06:41:57Z</time>
      </trkpt>
      <trkpt lat="50.96319" lon="2.43065">
        <ele>5.91</ele>
        <time>2021-08-07T06:41:58Z</time>
      </trkpt>
      <trkpt lat="50.96284" lon="2.43078">
        <ele>4.94</ele>
        <time>2021-08-07T06:42:05Z</time>
      </trkpt>
      <trkpt lat="50.96232" lon="2.43092">
        <ele>4.46</ele>
        <time>2021-08-07T06:42:15Z</time>
      </trkpt>
      <trkpt lat="50.96181" lon="2.43102">
        <ele>4.46</ele>
        <time>2021-08-07T06:42:25Z</time>
      </trkpt>
      <trkpt lat="50.96146" lon="2.43107">
        <ele>4.46</ele>
        <time>2021-08-07T06:42:32Z</time>
      </trkpt>
      <trkpt lat="50.9614" lon="2.43108">
        <ele>4.46</ele>
        <time>2021-08-07T06:42:33Z</time>
      </trkpt>
      <trkpt lat="50.96125" lon="2.43108">
        <ele>4.46</ele>
        <time>2021-08-07T06:42:36Z</time>
      </trkpt>
      <trkpt lat="50.96114" lon="2.43105">
        <ele>4.46</ele>
        <time>2021-08-07T06:42:38Z</time>
      </trkpt>
      <trkpt lat="50.96109" lon="2.43106">
        <ele>4.46</ele>
        <time>2021-08-07T06:42:39Z</time>
      </trkpt>
      <trkpt lat="50.96089" lon="2.43109">
        <ele>5.42</ele>
        <time>2021-08-07T06:42:43Z</time>
      </trkpt>
      <trkpt lat="50.96083" lon="2.43111">
        <ele>5.42</ele>
        <time>2021-08-07T06:42:44Z</time>
      </trkpt>
      <trkpt lat="50.96079" lon="2.43114">
        <ele>5.42</ele>
        <time>2021-08-07T06:42:45Z</time>
      </trkpt>
      <trkpt lat="50.96074" lon="2.43116">
        <ele>5.42</ele>
        <time>2021-08-07T06:42:46Z</time>
      </trkpt>
      <trkpt lat="50.96063" lon="2.43117">
        <ele>5.42</ele>
        <time>2021-08-07T06:42:48Z</time>
      </trkpt>
      <trkpt lat="50.96052" lon="2.43116">
        <ele>5.42</ele>
        <time>2021-08-07T06:42:50Z</time>
      </trkpt>
      <trkpt lat="50.96047" lon="2.43119">
        <ele>5.42</ele>
        <time>2021-08-07T06:42:51Z</time>
      </trkpt>
      <trkpt lat="50.96039" lon="2.43128">
        <ele>5.42</ele>
        <time>2021-08-07T06:42:53Z</time>
      </trkpt>
      <trkpt lat="50.96034" lon="2.43133">
        <ele>5.42</ele>
        <time>2021-08-07T06:42:54Z</time>
      </trkpt>
      <trkpt lat="50.96031" lon="2.43137">
        <ele>5.42</ele>
        <time>2021-08-07T06:42:55Z</time>
      </trkpt>
      <trkpt lat="50.96027" lon="2.43141">
        <ele>5.42</ele>
        <time>2021-08-07T06:42:56Z</time>
      </trkpt>
      <trkpt lat="50.96022" lon="2.43143">
        <ele>5.42</ele>
        <time>2021-08-07T06:42:57Z</time>
      </trkpt>
      <trkpt lat="50.96017" lon="2.43144">
        <ele>5.42</ele>
        <time>2021-08-07T06:42:58Z</time>
      </trkpt>
      <trkpt lat="50.96012" lon="2.43144">
        <ele>4.46</ele>
        <time>2021-08-07T06:42:59Z</time>
      </trkpt>
      <trkpt lat="50.96007" lon="2.4314">
        <ele>4.46</ele>
        <time>2021-08-07T06:43:00Z</time>
      </trkpt>
      <trkpt lat="50.96003" lon="2.43135">
        <ele>4.46</ele>
        <time>2021-08-07T06:43:01Z</time>
      </trkpt>
      <trkpt lat="50.96" lon="2.43128">
        <ele>4.46</ele>
        <time>2021-08-07T06:43:02Z</time>
      </trkpt>
      <trkpt lat="50.95998" lon="2.43121">
        <ele>4.46</ele>
        <time>2021-08-07T06:43:03Z</time>
      </trkpt>
      <trkpt lat="50.95996" lon="2.43114">
        <ele>4.46</ele>
        <time>2021-08-07T06:43:04Z</time>
      </trkpt>
      <trkpt lat="50.95993" lon="2.43108">
        <ele>4.46</ele>
        <time>2021-08-07T06:43:05Z</time>
      </trkpt>
      <trkpt lat="50.95989" lon="2.43103">
        <ele>4.46</ele>
        <time>2021-08-07T06:43:06Z</time>
      </trkpt>
      <trkpt lat="50.95984" lon="2.43101">
        <ele>4.46</ele>
        <time>2021-08-07T06:43:07Z</time>
      </trkpt>
      <trkpt lat="50.95979" lon="2.43099">
        <ele>4.46</ele>
        <time>2021-08-07T06:43:08Z</time>
      </trkpt>
      <trkpt lat="50.95974" lon="2.43098">
        <ele>4.46</ele>
        <time>2021-08-07T06:43:09Z</time>
      </trkpt>
      <trkpt lat="50.95969" lon="2.43097">
        <ele>4.46</ele>
        <time>2021-08-07T06:43:10Z</time>
      </trkpt>
      <trkpt lat="50.95939" lon="2.43091">
        <ele>4.46</ele>
        <time>2021-08-07T06:43:16Z</time>
      </trkpt>
      <trkpt lat="50.9591" lon="2.43081">
        <ele>5.91</ele>
        <time>2021-08-07T06:43:22Z</time>
      </trkpt>
      <trkpt lat="50.95862" lon="2.43061">
        <ele>5.91</ele>
        <time>2021-08-07T06:43:32Z</time>
      </trkpt>
      <trkpt lat="50.95815" lon="2.43037">
        <ele>6.39</ele>
        <time>2021-08-07T06:43:42Z</time>
      </trkpt>
      <trkpt lat="50.95773" lon="2.43012">
        <ele>7.35</ele>
        <time>2021-08-07T06:43:51Z</time>
      </trkpt>
      <trkpt lat="50.95732" lon="2.42986">
        <ele>7.35</ele>
        <time>2021-08-07T06:44:00Z</time>
      </trkpt>
      <trkpt lat="50.95692" lon="2.42956">
        <ele>7.35</ele>
        <time>2021-08-07T06:44:09Z</time>
      </trkpt>
      <trkpt lat="50.95656" lon="2.42925">
        <ele>7.83</ele>
        <time>2021-08-07T06:44:17Z</time>
      </trkpt>
      <trkpt lat="50.9564" lon="2.4291">
        <ele>8.31</ele>
        <time>2021-08-07T06:44:21Z</time>
      </trkpt>
      <trkpt lat="50.95591" lon="2.42861">
        <ele>8.79</ele>
        <time>2021-08-07T06:44:31Z</time>
      </trkpt>
      <trkpt lat="50.95562" lon="2.42824">
        <ele>8.79</ele>
        <time>2021-08-07T06:44:38Z</time>
      </trkpt>
      <trkpt lat="50.95558" lon="2.4282">
        <ele>8.79</ele>
        <time>2021-08-07T06:44:39Z</time>
      </trkpt>
      <trkpt lat="50.95553" lon="2.42815">
        <ele>8.79</ele>
        <time>2021-08-07T06:44:40Z</time>
      </trkpt>
      <trkpt lat="50.955" lon="2.42762">
        <ele>8.79</ele>
        <time>2021-08-07T06:44:51Z</time>
      </trkpt>
      <trkpt lat="50.9545" lon="2.42709">
        <ele>9.27</ele>
        <time>2021-08-07T06:45:02Z</time>
      </trkpt>
      <trkpt lat="50.95445" lon="2.42705">
        <ele>9.27</ele>
        <time>2021-08-07T06:45:03Z</time>
      </trkpt>
      <trkpt lat="50.95435" lon="2.42698">
        <ele>9.27</ele>
        <time>2021-08-07T06:45:05Z</time>
      </trkpt>
      <trkpt lat="50.95426" lon="2.4269">
        <ele>9.27</ele>
        <time>2021-08-07T06:45:07Z</time>
      </trkpt>
      <trkpt lat="50.95421" lon="2.42685">
        <ele>9.27</ele>
        <time>2021-08-07T06:45:08Z</time>
      </trkpt>
      <trkpt lat="50.95417" lon="2.42679">
        <ele>9.27</ele>
        <time>2021-08-07T06:45:09Z</time>
      </trkpt>
      <trkpt lat="50.95414" lon="2.42672">
        <ele>9.27</ele>
        <time>2021-08-07T06:45:10Z</time>
      </trkpt>
      <trkpt lat="50.9541" lon="2.42666">
        <ele>9.27</ele>
        <time>2021-08-07T06:45:11Z</time>
      </trkpt>
      <trkpt lat="50.95407" lon="2.42661">
        <ele>9.27</ele>
        <time>2021-08-07T06:45:12Z</time>
      </trkpt>
      <trkpt lat="50.95402" lon="2.42656">
        <ele>9.27</ele>
        <time>2021-08-07T06:45:13Z</time>
      </trkpt>
      <trkpt lat="50.95398" lon="2.42652">
        <ele>9.27</ele>
        <time>2021-08-07T06:45:14Z</time>
      </trkpt>
      <trkpt lat="50.95386" lon="2.42638">
        <ele>9.27</ele>
        <time>2021-08-07T06:45:17Z</time>
      </trkpt>
      <trkpt lat="50.95383" lon="2.42633">
        <ele>9.27</ele>
        <time>2021-08-07T06:45:18Z</time>
      </trkpt>
      <trkpt lat="50.9538" lon="2.42628">
        <ele>9.75</ele>
        <time>2021-08-07T06:45:19Z</time>
      </trkpt>
      <trkpt lat="50.95376" lon="2.42625">
        <ele>9.75</ele>
        <time>2021-08-07T06:45:20Z</time>
      </trkpt>
      <trkpt lat="50.95372" lon="2.42624">
        <ele>9.75</ele>
        <time>2021-08-07T06:45:21Z</time>
      </trkpt>
      <trkpt lat="50.95368" lon="2.42621">
        <ele>9.75</ele>
        <time>2021-08-07T06:45:22Z</time>
      </trkpt>
      <trkpt lat="50.95364" lon="2.4262">
        <ele>9.75</ele>
        <time>2021-08-07T06:45:23Z</time>
      </trkpt>
      <trkpt lat="50.95359" lon="2.42621">
        <ele>9.75</ele>
        <time>2021-08-07T06:45:24Z</time>
      </trkpt>
      <trkpt lat="50.95355" lon="2.42622">
        <ele>10.23</ele>
        <time>2021-08-07T06:45:25Z</time>
      </trkpt>
      <trkpt lat="50.95337" lon="2.4263">
        <ele>10.23</ele>
        <time>2021-08-07T06:45:29Z</time>
      </trkpt>
      <trkpt lat="50.95333" lon="2.42631">
        <ele>10.23</ele>
        <time>2021-08-07T06:45:30Z</time>
      </trkpt>
      <trkpt lat="50.95285" lon="2.42628">
        <ele>10.71</ele>
        <time>2021-08-07T06:45:40Z</time>
      </trkpt>
      <trkpt lat="50.95241" lon="2.42622">
        <ele>11.19</ele>
        <time>2021-08-07T06:45:49Z</time>
      </trkpt>
      <trkpt lat="50.9522" lon="2.42616">
        <ele>11.67</ele>
        <time>2021-08-07T06:45:55Z</time>
      </trkpt>
      <trkpt lat="50.95208" lon="2.42609">
        <ele>11.19</ele>
        <time>2021-08-07T06:45:58Z</time>
      </trkpt>
      <trkpt lat="50.95205" lon="2.42604">
        <ele>11.67</ele>
        <time>2021-08-07T06:45:59Z</time>
      </trkpt>
      <trkpt lat="50.95201" lon="2.42597">
        <ele>11.67</ele>
        <time>2021-08-07T06:46:00Z</time>
      </trkpt>
      <trkpt lat="50.9517" lon="2.4254">
        <ele>11.67</ele>
        <time>2021-08-07T06:46:09Z</time>
      </trkpt>
      <trkpt lat="50.95135" lon="2.42477">
        <ele>11.67</ele>
        <time>2021-08-07T06:46:19Z</time>
      </trkpt>
      <trkpt lat="50.95111" lon="2.4243">
        <ele>11.67</ele>
        <time>2021-08-07T06:46:26Z</time>
      </trkpt>
      <trkpt lat="50.95109" lon="2.4242">
        <ele>11.67</ele>
        <time>2021-08-07T06:46:27Z</time>
      </trkpt>
      <trkpt lat="50.95108" lon="2.42412">
        <ele>11.67</ele>
        <time>2021-08-07T06:46:28Z</time>
      </trkpt>
      <trkpt lat="50.95109" lon="2.42402">
        <ele>11.67</ele>
        <time>2021-08-07T06:46:29Z</time>
      </trkpt>
      <trkpt lat="50.95111" lon="2.42394">
        <ele>11.67</ele>
        <time>2021-08-07T06:46:30Z</time>
      </trkpt>
      <trkpt lat="50.95114" lon="2.42386">
        <ele>11.67</ele>
        <time>2021-08-07T06:46:31Z</time>
      </trkpt>
      <trkpt lat="50.95116" lon="2.42378">
        <ele>11.67</ele>
        <time>2021-08-07T06:46:32Z</time>
      </trkpt>
      <trkpt lat="50.95122" lon="2.42353">
        <ele>11.67</ele>
        <time>2021-08-07T06:46:35Z</time>
      </trkpt>
      <trkpt lat="50.95123" lon="2.42344">
        <ele>11.67</ele>
        <time>2021-08-07T06:46:36Z</time>
      </trkpt>
      <trkpt lat="50.95121" lon="2.42335">
        <ele>11.67</ele>
        <time>2021-08-07T06:46:37Z</time>
      </trkpt>
      <trkpt lat="50.95118" lon="2.42328">
        <ele>11.67</ele>
        <time>2021-08-07T06:46:38Z</time>
      </trkpt>
      <trkpt lat="50.95113" lon="2.42321">
        <ele>11.67</ele>
        <time>2021-08-07T06:46:39Z</time>
      </trkpt>
      <trkpt lat="50.95109" lon="2.42316">
        <ele>11.67</ele>
        <time>2021-08-07T06:46:40Z</time>
      </trkpt>
      <trkpt lat="50.95105" lon="2.42311">
        <ele>11.67</ele>
        <time>2021-08-07T06:46:41Z</time>
      </trkpt>
      <trkpt lat="50.95078" lon="2.42286">
        <ele>11.67</ele>
        <time>2021-08-07T06:46:47Z</time>
      </trkpt>
      <trkpt lat="50.95075" lon="2.42284">
        <ele>11.67</ele>
        <time>2021-08-07T06:46:48Z</time>
      </trkpt>
      <trkpt lat="50.95071" lon="2.42285">
        <ele>11.67</ele>
        <time>2021-08-07T06:46:49Z</time>
      </trkpt>
      <trkpt lat="50.9507" lon="2.42288">
        <ele>11.67</ele>
        <time>2021-08-07T06:46:50Z</time>
      </trkpt>
      <trkpt lat="50.95068" lon="2.42293">
        <ele>11.67</ele>
        <time>2021-08-07T06:46:51Z</time>
      </trkpt>
      <trkpt lat="50.95066" lon="2.42298">
        <ele>11.67</ele>
        <time>2021-08-07T06:46:52Z</time>
      </trkpt>
      <trkpt lat="50.95064" lon="2.42304">
        <ele>11.67</ele>
        <time>2021-08-07T06:46:53Z</time>
      </trkpt>
      <trkpt lat="50.95057" lon="2.42328">
        <ele>11.67</ele>
        <time>2021-08-07T06:46:59Z</time>
      </trkpt>
      <trkpt lat="50.95055" lon="2.42335">
        <ele>11.67</ele>
        <time>2021-08-07T06:47:01Z</time>
      </trkpt>
      <trkpt lat="50.95054" lon="2.42339">
        <ele>11.67</ele>
        <time>2021-08-07T06:47:02Z</time>
      </trkpt>
      <trkpt lat="50.95054" lon="2.42344">
        <ele>11.67</ele>
        <time>2021-08-07T06:47:03Z</time>
      </trkpt>
      <trkpt lat="50.95052" lon="2.4235">
        <ele>11.67</ele>
        <time>2021-08-07T06:47:04Z</time>
      </trkpt>
      <trkpt lat="50.9505" lon="2.42355">
        <ele>11.67</ele>
        <time>2021-08-07T06:47:05Z</time>
      </trkpt>
      <trkpt lat="50.95049" lon="2.42362">
        <ele>10.23</ele>
        <time>2021-08-07T06:47:06Z</time>
      </trkpt>
      <trkpt lat="50.95047" lon="2.42368">
        <ele>10.23</ele>
        <time>2021-08-07T06:47:07Z</time>
      </trkpt>
      <trkpt lat="50.95029" lon="2.42438">
        <ele>10.71</ele>
        <time>2021-08-07T06:47:17Z</time>
      </trkpt>
      <trkpt lat="50.95007" lon="2.42519">
        <ele>11.67</ele>
        <time>2021-08-07T06:47:28Z</time>
      </trkpt>
      <trkpt lat="50.94991" lon="2.42583">
        <ele>12.15</ele>
        <time>2021-08-07T06:47:37Z</time>
      </trkpt>
      <trkpt lat="50.94969" lon="2.42665">
        <ele>13.12</ele>
        <time>2021-08-07T06:47:48Z</time>
      </trkpt>
      <trkpt lat="50.94948" lon="2.42738">
        <ele>13.12</ele>
        <time>2021-08-07T06:47:58Z</time>
      </trkpt>
      <trkpt lat="50.94918" lon="2.42815">
        <ele>13.12</ele>
        <time>2021-08-07T06:48:09Z</time>
      </trkpt>
      <trkpt lat="50.94884" lon="2.42883">
        <ele>13.12</ele>
        <time>2021-08-07T06:48:20Z</time>
      </trkpt>
      <trkpt lat="50.94849" lon="2.42948">
        <ele>13.12</ele>
        <time>2021-08-07T06:48:31Z</time>
      </trkpt>
      <trkpt lat="50.94838" lon="2.42964">
        <ele>13.6</ele>
        <time>2021-08-07T06:48:35Z</time>
      </trkpt>
      <trkpt lat="50.94836" lon="2.42964">
        <ele>13.6</ele>
        <time>2021-08-07T06:48:36Z</time>
      </trkpt>
      <trkpt lat="50.94834" lon="2.42963">
        <ele>13.6</ele>
        <time>2021-08-07T06:48:37Z</time>
      </trkpt>
      <trkpt lat="50.94833" lon="2.42961">
        <ele>13.6</ele>
        <time>2021-08-07T06:48:38Z</time>
      </trkpt>
      <trkpt lat="50.94832" lon="2.42959">
        <ele>13.6</ele>
        <time>2021-08-07T06:48:39Z</time>
      </trkpt>
      <trkpt lat="50.9483" lon="2.42958">
        <ele>13.6</ele>
        <time>2021-08-07T06:48:40Z</time>
      </trkpt>
      <trkpt lat="50.94828" lon="2.42957">
        <ele>13.6</ele>
        <time>2021-08-07T06:48:41Z</time>
      </trkpt>
      <trkpt lat="50.94824" lon="2.42955">
        <ele>13.6</ele>
        <time>2021-08-07T06:48:42Z</time>
      </trkpt>
      <trkpt lat="50.94821" lon="2.42952">
        <ele>13.6</ele>
        <time>2021-08-07T06:48:43Z</time>
      </trkpt>
      <trkpt lat="50.94788" lon="2.42927">
        <ele>13.6</ele>
        <time>2021-08-07T06:48:51Z</time>
      </trkpt>
      <trkpt lat="50.94741" lon="2.42897">
        <ele>13.6</ele>
        <time>2021-08-07T06:49:02Z</time>
      </trkpt>
      <trkpt lat="50.94702" lon="2.42874">
        <ele>14.08</ele>
        <time>2021-08-07T06:49:11Z</time>
      </trkpt>
      <trkpt lat="50.94698" lon="2.42872">
        <ele>14.08</ele>
        <time>2021-08-07T06:49:12Z</time>
      </trkpt>
      <trkpt lat="50.94666" lon="2.42848">
        <ele>14.56</ele>
        <time>2021-08-07T06:49:19Z</time>
      </trkpt>
      <trkpt lat="50.9462" lon="2.42821">
        <ele>15.04</ele>
        <time>2021-08-07T06:49:30Z</time>
      </trkpt>
      <trkpt lat="50.94565" lon="2.42791">
        <ele>16</ele>
        <time>2021-08-07T06:49:43Z</time>
      </trkpt>
      <trkpt lat="50.94515" lon="2.42766">
        <ele>16.96</ele>
        <time>2021-08-07T06:49:54Z</time>
      </trkpt>
      <trkpt lat="50.9447" lon="2.42742">
        <ele>16.48</ele>
        <time>2021-08-07T06:50:04Z</time>
      </trkpt>
      <trkpt lat="50.94427" lon="2.42715">
        <ele>16.96</ele>
        <time>2021-08-07T06:50:14Z</time>
      </trkpt>
      <trkpt lat="50.94376" lon="2.4268">
        <ele>17.44</ele>
        <time>2021-08-07T06:50:26Z</time>
      </trkpt>
      <trkpt lat="50.94342" lon="2.42655">
        <ele>17.92</ele>
        <time>2021-08-07T06:50:34Z</time>
      </trkpt>
      <trkpt lat="50.943" lon="2.42625">
        <ele>17.92</ele>
        <time>2021-08-07T06:50:44Z</time>
      </trkpt>
      <trkpt lat="50.94255" lon="2.42606">
        <ele>18.4</ele>
        <time>2021-08-07T06:50:54Z</time>
      </trkpt>
      <trkpt lat="50.94218" lon="2.42594">
        <ele>18.88</ele>
        <time>2021-08-07T06:51:02Z</time>
      </trkpt>
      <trkpt lat="50.94171" lon="2.42581">
        <ele>19.36</ele>
        <time>2021-08-07T06:51:12Z</time>
      </trkpt>
      <trkpt lat="50.94162" lon="2.42577">
        <ele>19.36</ele>
        <time>2021-08-07T06:51:14Z</time>
      </trkpt>
      <trkpt lat="50.94148" lon="2.42569">
        <ele>19.36</ele>
        <time>2021-08-07T06:51:17Z</time>
      </trkpt>
      <trkpt lat="50.94144" lon="2.42567">
        <ele>19.36</ele>
        <time>2021-08-07T06:51:18Z</time>
      </trkpt>
      <trkpt lat="50.94127" lon="2.42555">
        <ele>19.84</ele>
        <time>2021-08-07T06:51:22Z</time>
      </trkpt>
      <trkpt lat="50.94077" lon="2.42518">
        <ele>20.81</ele>
        <time>2021-08-07T06:51:34Z</time>
      </trkpt>
      <trkpt lat="50.9404" lon="2.42495">
        <ele>20.81</ele>
        <time>2021-08-07T06:51:43Z</time>
      </trkpt>
      <trkpt lat="50.94008" lon="2.42476">
        <ele>21.77</ele>
        <time>2021-08-07T06:51:51Z</time>
      </trkpt>
      <trkpt lat="50.93978" lon="2.42461">
        <ele>22.73</ele>
        <time>2021-08-07T06:51:59Z</time>
      </trkpt>
      <trkpt lat="50.93973" lon="2.42459">
        <ele>22.73</ele>
        <time>2021-08-07T06:52:00Z</time>
      </trkpt>
      <trkpt lat="50.93939" lon="2.42442">
        <ele>23.21</ele>
        <time>2021-08-07T06:52:09Z</time>
      </trkpt>
      <trkpt lat="50.93915" lon="2.42424">
        <ele>24.17</ele>
        <time>2021-08-07T06:52:16Z</time>
      </trkpt>
      <trkpt lat="50.93907" lon="2.42417">
        <ele>24.17</ele>
        <time>2021-08-07T06:52:18Z</time>
      </trkpt>
      <trkpt lat="50.93903" lon="2.42413">
        <ele>24.17</ele>
        <time>2021-08-07T06:52:19Z</time>
      </trkpt>
      <trkpt lat="50.9387" lon="2.42393">
        <ele>25.13</ele>
        <time>2021-08-07T06:52:27Z</time>
      </trkpt>
      <trkpt lat="50.93836" lon="2.42369">
        <ele>26.09</ele>
        <time>2021-08-07T06:52:35Z</time>
      </trkpt>
      <trkpt lat="50.93788" lon="2.42338">
        <ele>28.02</ele>
        <time>2021-08-07T06:52:46Z</time>
      </trkpt>
      <trkpt lat="50.9378" lon="2.42333">
        <ele>28.02</ele>
        <time>2021-08-07T06:52:48Z</time>
      </trkpt>
      <trkpt lat="50.93776" lon="2.4233">
        <ele>28.5</ele>
        <time>2021-08-07T06:52:49Z</time>
      </trkpt>
      <trkpt lat="50.93734" lon="2.423">
        <ele>29.94</ele>
        <time>2021-08-07T06:52:59Z</time>
      </trkpt>
      <trkpt lat="50.93719" lon="2.42285">
        <ele>30.42</ele>
        <time>2021-08-07T06:53:03Z</time>
      </trkpt>
      <trkpt lat="50.93709" lon="2.42272">
        <ele>30.42</ele>
        <time>2021-08-07T06:53:06Z</time>
      </trkpt>
      <trkpt lat="50.93706" lon="2.42268">
        <ele>30.42</ele>
        <time>2021-08-07T06:53:07Z</time>
      </trkpt>
      <trkpt lat="50.93696" lon="2.42255">
        <ele>30.9</ele>
        <time>2021-08-07T06:53:10Z</time>
      </trkpt>
      <trkpt lat="50.93692" lon="2.42251">
        <ele>30.9</ele>
        <time>2021-08-07T06:53:11Z</time>
      </trkpt>
      <trkpt lat="50.93687" lon="2.42247">
        <ele>31.38</ele>
        <time>2021-08-07T06:53:12Z</time>
      </trkpt>
      <trkpt lat="50.93683" lon="2.42245">
        <ele>31.38</ele>
        <time>2021-08-07T06:53:13Z</time>
      </trkpt>
      <trkpt lat="50.93679" lon="2.42243">
        <ele>31.38</ele>
        <time>2021-08-07T06:53:14Z</time>
      </trkpt>
      <trkpt lat="50.93674" lon="2.42241">
        <ele>31.86</ele>
        <time>2021-08-07T06:53:15Z</time>
      </trkpt>
      <trkpt lat="50.9366" lon="2.42236">
        <ele>32.34</ele>
        <time>2021-08-07T06:53:18Z</time>
      </trkpt>
      <trkpt lat="50.93656" lon="2.42236">
        <ele>32.34</ele>
        <time>2021-08-07T06:53:19Z</time>
      </trkpt>
      <trkpt lat="50.93653" lon="2.42237">
        <ele>32.34</ele>
        <time>2021-08-07T06:53:20Z</time>
      </trkpt>
      <trkpt lat="50.93625" lon="2.42239">
        <ele>32.34</ele>
        <time>2021-08-07T06:53:26Z</time>
      </trkpt>
      <trkpt lat="50.9362" lon="2.4224">
        <ele>32.82</ele>
        <time>2021-08-07T06:53:27Z</time>
      </trkpt>
      <trkpt lat="50.93615" lon="2.42244">
        <ele>32.82</ele>
        <time>2021-08-07T06:53:28Z</time>
      </trkpt>
      <trkpt lat="50.93604" lon="2.42255">
        <ele>32.82</ele>
        <time>2021-08-07T06:53:31Z</time>
      </trkpt>
      <trkpt lat="50.936" lon="2.42257">
        <ele>32.82</ele>
        <time>2021-08-07T06:53:32Z</time>
      </trkpt>
      <trkpt lat="50.93586" lon="2.42262">
        <ele>33.3</ele>
        <time>2021-08-07T06:53:35Z</time>
      </trkpt>
      <trkpt lat="50.93582" lon="2.42261">
        <ele>33.3</ele>
        <time>2021-08-07T06:53:36Z</time>
      </trkpt>
      <trkpt lat="50.93578" lon="2.4226">
        <ele>33.3</ele>
        <time>2021-08-07T06:53:37Z</time>
      </trkpt>
      <trkpt lat="50.93549" lon="2.42252">
        <ele>32.34</ele>
        <time>2021-08-07T06:53:43Z</time>
      </trkpt>
      <trkpt lat="50.93538" lon="2.42254">
        <ele>31.86</ele>
        <time>2021-08-07T06:53:45Z</time>
      </trkpt>
      <trkpt lat="50.93492" lon="2.42256">
        <ele>28.5</ele>
        <time>2021-08-07T06:53:52Z</time>
      </trkpt>
      <trkpt lat="50.93486" lon="2.42256">
        <ele>28.5</ele>
        <time>2021-08-07T06:53:53Z</time>
      </trkpt>
      <trkpt lat="50.93449" lon="2.42259">
        <ele>26.57</ele>
        <time>2021-08-07T06:53:58Z</time>
      </trkpt>
      <trkpt lat="50.93387" lon="2.42263">
        <ele>24.65</ele>
        <time>2021-08-07T06:54:06Z</time>
      </trkpt>
      <trkpt lat="50.93335" lon="2.42266">
        <ele>22.73</ele>
        <time>2021-08-07T06:54:13Z</time>
      </trkpt>
      <trkpt lat="50.93258" lon="2.4227">
        <ele>20.32</ele>
        <time>2021-08-07T06:54:23Z</time>
      </trkpt>
      <trkpt lat="50.93198" lon="2.42273">
        <ele>18.88</ele>
        <time>2021-08-07T06:54:31Z</time>
      </trkpt>
      <trkpt lat="50.93114" lon="2.42278">
        <ele>17.44</ele>
        <time>2021-08-07T06:54:42Z</time>
      </trkpt>
      <trkpt lat="50.93045" lon="2.42284">
        <ele>16</ele>
        <time>2021-08-07T06:54:51Z</time>
      </trkpt>
      <trkpt lat="50.92986" lon="2.42287">
        <ele>16</ele>
        <time>2021-08-07T06:54:59Z</time>
      </trkpt>
      <trkpt lat="50.92922" lon="2.42293">
        <ele>16</ele>
        <time>2021-08-07T06:55:09Z</time>
      </trkpt>
      <trkpt lat="50.92868" lon="2.42302">
        <ele>16</ele>
        <time>2021-08-07T06:55:18Z</time>
      </trkpt>
      <trkpt lat="50.92851" lon="2.42306">
        <ele>17.44</ele>
        <time>2021-08-07T06:55:21Z</time>
      </trkpt>
      <trkpt lat="50.9279" lon="2.42325">
        <ele>18.4</ele>
        <time>2021-08-07T06:55:32Z</time>
      </trkpt>
      <trkpt lat="50.92741" lon="2.42339">
        <ele>18.88</ele>
        <time>2021-08-07T06:55:41Z</time>
      </trkpt>
      <trkpt lat="50.92699" lon="2.42358">
        <ele>18.88</ele>
        <time>2021-08-07T06:55:49Z</time>
      </trkpt>
      <trkpt lat="50.92674" lon="2.42375">
        <ele>17.92</ele>
        <time>2021-08-07T06:55:54Z</time>
      </trkpt>
      <trkpt lat="50.92669" lon="2.42377">
        <ele>17.92</ele>
        <time>2021-08-07T06:55:55Z</time>
      </trkpt>
      <trkpt lat="50.92664" lon="2.42379">
        <ele>17.92</ele>
        <time>2021-08-07T06:55:56Z</time>
      </trkpt>
      <trkpt lat="50.92659" lon="2.42379">
        <ele>17.92</ele>
        <time>2021-08-07T06:55:57Z</time>
      </trkpt>
      <trkpt lat="50.92653" lon="2.42379">
        <ele>17.92</ele>
        <time>2021-08-07T06:55:58Z</time>
      </trkpt>
      <trkpt lat="50.92648" lon="2.42378">
        <ele>18.88</ele>
        <time>2021-08-07T06:55:59Z</time>
      </trkpt>
      <trkpt lat="50.92643" lon="2.42376">
        <ele>18.88</ele>
        <time>2021-08-07T06:56:00Z</time>
      </trkpt>
      <trkpt lat="50.92637" lon="2.42374">
        <ele>18.88</ele>
        <time>2021-08-07T06:56:01Z</time>
      </trkpt>
      <trkpt lat="50.92573" lon="2.42346">
        <ele>19.84</ele>
        <time>2021-08-07T06:56:13Z</time>
      </trkpt>
      <trkpt lat="50.92514" lon="2.42332">
        <ele>19.84</ele>
        <time>2021-08-07T06:56:24Z</time>
      </trkpt>
      <trkpt lat="50.92475" lon="2.42328">
        <ele>20.32</ele>
        <time>2021-08-07T06:56:32Z</time>
      </trkpt>
      <trkpt lat="50.9241" lon="2.42321">
        <ele>21.29</ele>
        <time>2021-08-07T06:56:45Z</time>
      </trkpt>
      <trkpt lat="50.92349" lon="2.42312">
        <ele>22.25</ele>
        <time>2021-08-07T06:56:57Z</time>
      </trkpt>
      <trkpt lat="50.92304" lon="2.42299">
        <ele>22.25</ele>
        <time>2021-08-07T06:57:06Z</time>
      </trkpt>
      <trkpt lat="50.9229" lon="2.4229">
        <ele>23.21</ele>
        <time>2021-08-07T06:57:09Z</time>
      </trkpt>
      <trkpt lat="50.92278" lon="2.42278">
        <ele>23.21</ele>
        <time>2021-08-07T06:57:12Z</time>
      </trkpt>
      <trkpt lat="50.92247" lon="2.42238">
        <ele>23.69</ele>
        <time>2021-08-07T06:57:20Z</time>
      </trkpt>
      <trkpt lat="50.92243" lon="2.42233">
        <ele>23.69</ele>
        <time>2021-08-07T06:57:21Z</time>
      </trkpt>
      <trkpt lat="50.92202" lon="2.42202">
        <ele>23.69</ele>
        <time>2021-08-07T06:57:30Z</time>
      </trkpt>
      <trkpt lat="50.92159" lon="2.42168">
        <ele>24.65</ele>
        <time>2021-08-07T06:57:40Z</time>
      </trkpt>
      <trkpt lat="50.92113" lon="2.42134">
        <ele>24.65</ele>
        <time>2021-08-07T06:57:50Z</time>
      </trkpt>
      <trkpt lat="50.92066" lon="2.42109">
        <ele>25.13</ele>
        <time>2021-08-07T06:58:00Z</time>
      </trkpt>
      <trkpt lat="50.92012" lon="2.42095">
        <ele>26.57</ele>
        <time>2021-08-07T06:58:11Z</time>
      </trkpt>
      <trkpt lat="50.91968" lon="2.42082">
        <ele>26.09</ele>
        <time>2021-08-07T06:58:20Z</time>
      </trkpt>
      <trkpt lat="50.91929" lon="2.42071">
        <ele>26.09</ele>
        <time>2021-08-07T06:58:28Z</time>
      </trkpt>
      <trkpt lat="50.91905" lon="2.4206">
        <ele>26.09</ele>
        <time>2021-08-07T06:58:33Z</time>
      </trkpt>
      <trkpt lat="50.91887" lon="2.42049">
        <ele>26.09</ele>
        <time>2021-08-07T06:58:37Z</time>
      </trkpt>
      <trkpt lat="50.91856" lon="2.42031">
        <ele>27.05</ele>
        <time>2021-08-07T06:58:44Z</time>
      </trkpt>
      <trkpt lat="50.91842" lon="2.42026">
        <ele>27.05</ele>
        <time>2021-08-07T06:58:47Z</time>
      </trkpt>
      <trkpt lat="50.91819" lon="2.42025">
        <ele>27.05</ele>
        <time>2021-08-07T06:58:52Z</time>
      </trkpt>
      <trkpt lat="50.91814" lon="2.42027">
        <ele>27.05</ele>
        <time>2021-08-07T06:58:53Z</time>
      </trkpt>
      <trkpt lat="50.91805" lon="2.4203">
        <ele>27.05</ele>
        <time>2021-08-07T06:58:55Z</time>
      </trkpt>
      <trkpt lat="50.91765" lon="2.42045">
        <ele>27.53</ele>
        <time>2021-08-07T06:59:04Z</time>
      </trkpt>
      <trkpt lat="50.91733" lon="2.42044">
        <ele>28.5</ele>
        <time>2021-08-07T06:59:11Z</time>
      </trkpt>
      <trkpt lat="50.91728" lon="2.42042">
        <ele>28.5</ele>
        <time>2021-08-07T06:59:12Z</time>
      </trkpt>
      <trkpt lat="50.91724" lon="2.4204">
        <ele>28.5</ele>
        <time>2021-08-07T06:59:13Z</time>
      </trkpt>
      <trkpt lat="50.91719" lon="2.42038">
        <ele>28.5</ele>
        <time>2021-08-07T06:59:14Z</time>
      </trkpt>
      <trkpt lat="50.91715" lon="2.42036">
        <ele>28.5</ele>
        <time>2021-08-07T06:59:15Z</time>
      </trkpt>
      <trkpt lat="50.91679" lon="2.42018">
        <ele>28.98</ele>
        <time>2021-08-07T06:59:23Z</time>
      </trkpt>
      <trkpt lat="50.91624" lon="2.41987">
        <ele>30.9</ele>
        <time>2021-08-07T06:59:36Z</time>
      </trkpt>
      <trkpt lat="50.91597" lon="2.41977">
        <ele>30.42</ele>
        <time>2021-08-07T06:59:42Z</time>
      </trkpt>
      <trkpt lat="50.91592" lon="2.41977">
        <ele>30.42</ele>
        <time>2021-08-07T06:59:43Z</time>
      </trkpt>
      <trkpt lat="50.91588" lon="2.41977">
        <ele>30.42</ele>
        <time>2021-08-07T06:59:44Z</time>
      </trkpt>
      <trkpt lat="50.91583" lon="2.41979">
        <ele>30.42</ele>
        <time>2021-08-07T06:59:45Z</time>
      </trkpt>
      <trkpt lat="50.91578" lon="2.41982">
        <ele>30.42</ele>
        <time>2021-08-07T06:59:46Z</time>
      </trkpt>
      <trkpt lat="50.91574" lon="2.41985">
        <ele>30.42</ele>
        <time>2021-08-07T06:59:47Z</time>
      </trkpt>
      <trkpt lat="50.91524" lon="2.42005">
        <ele>30.42</ele>
        <time>2021-08-07T06:59:58Z</time>
      </trkpt>
      <trkpt lat="50.91475" lon="2.42023">
        <ele>30.9</ele>
        <time>2021-08-07T07:00:09Z</time>
      </trkpt>
      <trkpt lat="50.91453" lon="2.42026">
        <ele>31.38</ele>
        <time>2021-08-07T07:00:14Z</time>
      </trkpt>
      <trkpt lat="50.91448" lon="2.42024">
        <ele>31.86</ele>
        <time>2021-08-07T07:00:15Z</time>
      </trkpt>
      <trkpt lat="50.91408" lon="2.42006">
        <ele>32.34</ele>
        <time>2021-08-07T07:00:24Z</time>
      </trkpt>
      <trkpt lat="50.91366" lon="2.41986">
        <ele>32.34</ele>
        <time>2021-08-07T07:00:33Z</time>
      </trkpt>
      <trkpt lat="50.9133" lon="2.41972">
        <ele>32.34</ele>
        <time>2021-08-07T07:00:41Z</time>
      </trkpt>
      <trkpt lat="50.91325" lon="2.41972">
        <ele>32.34</ele>
        <time>2021-08-07T07:00:42Z</time>
      </trkpt>
      <trkpt lat="50.91279" lon="2.41979">
        <ele>32.34</ele>
        <time>2021-08-07T07:00:51Z</time>
      </trkpt>
      <trkpt lat="50.91218" lon="2.41991">
        <ele>30.9</ele>
        <time>2021-08-07T07:01:03Z</time>
      </trkpt>
      <trkpt lat="50.91201" lon="2.41991">
        <ele>30.9</ele>
        <time>2021-08-07T07:01:07Z</time>
      </trkpt>
      <trkpt lat="50.91183" lon="2.41989">
        <ele>30.9</ele>
        <time>2021-08-07T07:01:12Z</time>
      </trkpt>
      <trkpt lat="50.91175" lon="2.41985">
        <ele>31.38</ele>
        <time>2021-08-07T07:01:14Z</time>
      </trkpt>
      <trkpt lat="50.9117" lon="2.41981">
        <ele>31.38</ele>
        <time>2021-08-07T07:01:15Z</time>
      </trkpt>
      <trkpt lat="50.91166" lon="2.41977">
        <ele>31.38</ele>
        <time>2021-08-07T07:01:16Z</time>
      </trkpt>
      <trkpt lat="50.91129" lon="2.41932">
        <ele>30.9</ele>
        <time>2021-08-07T07:01:25Z</time>
      </trkpt>
      <trkpt lat="50.91105" lon="2.41909">
        <ele>30.9</ele>
        <time>2021-08-07T07:01:30Z</time>
      </trkpt>
      <trkpt lat="50.91099" lon="2.41907">
        <ele>30.9</ele>
        <time>2021-08-07T07:01:31Z</time>
      </trkpt>
      <trkpt lat="50.91093" lon="2.41907">
        <ele>30.42</ele>
        <time>2021-08-07T07:01:32Z</time>
      </trkpt>
      <trkpt lat="50.91087" lon="2.41907">
        <ele>30.9</ele>
        <time>2021-08-07T07:01:33Z</time>
      </trkpt>
      <trkpt lat="50.91081" lon="2.41909">
        <ele>29.94</ele>
        <time>2021-08-07T07:01:34Z</time>
      </trkpt>
      <trkpt lat="50.91016" lon="2.41932">
        <ele>29.46</ele>
        <time>2021-08-07T07:01:45Z</time>
      </trkpt>
      <trkpt lat="50.90992" lon="2.41941">
        <ele>28.98</ele>
        <time>2021-08-07T07:01:49Z</time>
      </trkpt>
      <trkpt lat="50.90969" lon="2.41945">
        <ele>28.98</ele>
        <time>2021-08-07T07:01:53Z</time>
      </trkpt>
      <trkpt lat="50.90945" lon="2.41942">
        <ele>28.98</ele>
        <time>2021-08-07T07:01:57Z</time>
      </trkpt>
      <trkpt lat="50.90894" lon="2.41919">
        <ele>28.98</ele>
        <time>2021-08-07T07:02:06Z</time>
      </trkpt>
      <trkpt lat="50.90838" lon="2.41903">
        <ele>28.98</ele>
        <time>2021-08-07T07:02:16Z</time>
      </trkpt>
      <trkpt lat="50.90781" lon="2.41871">
        <ele>28.5</ele>
        <time>2021-08-07T07:02:26Z</time>
      </trkpt>
      <trkpt lat="50.90738" lon="2.41838">
        <ele>28.02</ele>
        <time>2021-08-07T07:02:34Z</time>
      </trkpt>
      <trkpt lat="50.90711" lon="2.41817">
        <ele>28.5</ele>
        <time>2021-08-07T07:02:39Z</time>
      </trkpt>
      <trkpt lat="50.90667" lon="2.418">
        <ele>28.02</ele>
        <time>2021-08-07T07:02:47Z</time>
      </trkpt>
      <trkpt lat="50.90624" lon="2.41787">
        <ele>28.02</ele>
        <time>2021-08-07T07:02:55Z</time>
      </trkpt>
      <trkpt lat="50.90577" lon="2.4177">
        <ele>28.02</ele>
        <time>2021-08-07T07:03:04Z</time>
      </trkpt>
      <trkpt lat="50.90533" lon="2.41751">
        <ele>28.02</ele>
        <time>2021-08-07T07:03:12Z</time>
      </trkpt>
      <trkpt lat="50.90461" lon="2.41719">
        <ele>26.57</ele>
        <time>2021-08-07T07:03:25Z</time>
      </trkpt>
      <trkpt lat="50.904" lon="2.41691">
        <ele>25.61</ele>
        <time>2021-08-07T07:03:36Z</time>
      </trkpt>
      <trkpt lat="50.90357" lon="2.41669">
        <ele>25.61</ele>
        <time>2021-08-07T07:03:44Z</time>
      </trkpt>
      <trkpt lat="50.90301" lon="2.41641">
        <ele>25.61</ele>
        <time>2021-08-07T07:03:54Z</time>
      </trkpt>
      <trkpt lat="50.90244" lon="2.41618">
        <ele>25.61</ele>
        <time>2021-08-07T07:04:04Z</time>
      </trkpt>
      <trkpt lat="50.90191" lon="2.41602">
        <ele>25.61</ele>
        <time>2021-08-07T07:04:13Z</time>
      </trkpt>
      <trkpt lat="50.90179" lon="2.41599">
        <ele>25.61</ele>
        <time>2021-08-07T07:04:15Z</time>
      </trkpt>
      <trkpt lat="50.90122" lon="2.41571">
        <ele>25.61</ele>
        <time>2021-08-07T07:04:25Z</time>
      </trkpt>
      <trkpt lat="50.90116" lon="2.41568">
        <ele>25.61</ele>
        <time>2021-08-07T07:04:26Z</time>
      </trkpt>
      <trkpt lat="50.90058" lon="2.41539">
        <ele>24.17</ele>
        <time>2021-08-07T07:04:36Z</time>
      </trkpt>
      <trkpt lat="50.90011" lon="2.41526">
        <ele>23.69</ele>
        <time>2021-08-07T07:04:44Z</time>
      </trkpt>
      <trkpt lat="50.8995" lon="2.41511">
        <ele>23.69</ele>
        <time>2021-08-07T07:04:55Z</time>
      </trkpt>
      <trkpt lat="50.89934" lon="2.41506">
        <ele>24.65</ele>
        <time>2021-08-07T07:04:58Z</time>
      </trkpt>
      <trkpt lat="50.89881" lon="2.41492">
        <ele>25.61</ele>
        <time>2021-08-07T07:05:08Z</time>
      </trkpt>
      <trkpt lat="50.89877" lon="2.41493">
        <ele>25.61</ele>
        <time>2021-08-07T07:05:09Z</time>
      </trkpt>
      <trkpt lat="50.89873" lon="2.41496">
        <ele>25.61</ele>
        <time>2021-08-07T07:05:10Z</time>
      </trkpt>
      <trkpt lat="50.8987" lon="2.41501">
        <ele>25.61</ele>
        <time>2021-08-07T07:05:11Z</time>
      </trkpt>
      <trkpt lat="50.89867" lon="2.41504">
        <ele>24.17</ele>
        <time>2021-08-07T07:05:12Z</time>
      </trkpt>
      <trkpt lat="50.89864" lon="2.41509">
        <ele>24.17</ele>
        <time>2021-08-07T07:05:13Z</time>
      </trkpt>
      <trkpt lat="50.89861" lon="2.41513">
        <ele>24.17</ele>
        <time>2021-08-07T07:05:14Z</time>
      </trkpt>
      <trkpt lat="50.89858" lon="2.41516">
        <ele>24.17</ele>
        <time>2021-08-07T07:05:15Z</time>
      </trkpt>
      <trkpt lat="50.89826" lon="2.41551">
        <ele>23.69</ele>
        <time>2021-08-07T07:05:25Z</time>
      </trkpt>
      <trkpt lat="50.89807" lon="2.41569">
        <ele>22.73</ele>
        <time>2021-08-07T07:05:30Z</time>
      </trkpt>
      <trkpt lat="50.89789" lon="2.41578">
        <ele>23.21</ele>
        <time>2021-08-07T07:05:34Z</time>
      </trkpt>
      <trkpt lat="50.89784" lon="2.41579">
        <ele>24.17</ele>
        <time>2021-08-07T07:05:35Z</time>
      </trkpt>
      <trkpt lat="50.89738" lon="2.41589">
        <ele>24.17</ele>
        <time>2021-08-07T07:05:45Z</time>
      </trkpt>
      <trkpt lat="50.89711" lon="2.41604">
        <ele>22.73</ele>
        <time>2021-08-07T07:05:51Z</time>
      </trkpt>
      <trkpt lat="50.89664" lon="2.41634">
        <ele>22.73</ele>
        <time>2021-08-07T07:06:01Z</time>
      </trkpt>
      <trkpt lat="50.89612" lon="2.41675">
        <ele>22.25</ele>
        <time>2021-08-07T07:06:12Z</time>
      </trkpt>
      <trkpt lat="50.896" lon="2.41688">
        <ele>22.25</ele>
        <time>2021-08-07T07:06:15Z</time>
      </trkpt>
      <trkpt lat="50.89596" lon="2.41694">
        <ele>22.25</ele>
        <time>2021-08-07T07:06:16Z</time>
      </trkpt>
      <trkpt lat="50.89579" lon="2.41722">
        <ele>22.25</ele>
        <time>2021-08-07T07:06:21Z</time>
      </trkpt>
      <trkpt lat="50.89556" lon="2.41775">
        <ele>22.25</ele>
        <time>2021-08-07T07:06:29Z</time>
      </trkpt>
      <trkpt lat="50.89544" lon="2.41801">
        <ele>22.25</ele>
        <time>2021-08-07T07:06:33Z</time>
      </trkpt>
      <trkpt lat="50.89509" lon="2.41849">
        <ele>22.25</ele>
        <time>2021-08-07T07:06:42Z</time>
      </trkpt>
      <trkpt lat="50.89454" lon="2.41912">
        <ele>21.29</ele>
        <time>2021-08-07T07:06:55Z</time>
      </trkpt>
      <trkpt lat="50.89413" lon="2.41969">
        <ele>21.29</ele>
        <time>2021-08-07T07:07:05Z</time>
      </trkpt>
      <trkpt lat="50.89371" lon="2.42013">
        <ele>21.29</ele>
        <time>2021-08-07T07:07:14Z</time>
      </trkpt>
      <trkpt lat="50.89358" lon="2.4203">
        <ele>20.81</ele>
        <time>2021-08-07T07:07:17Z</time>
      </trkpt>
      <trkpt lat="50.89355" lon="2.42037">
        <ele>20.81</ele>
        <time>2021-08-07T07:07:18Z</time>
      </trkpt>
      <trkpt lat="50.89352" lon="2.42045">
        <ele>20.81</ele>
        <time>2021-08-07T07:07:19Z</time>
      </trkpt>
      <trkpt lat="50.89351" lon="2.42053">
        <ele>20.81</ele>
        <time>2021-08-07T07:07:20Z</time>
      </trkpt>
      <trkpt lat="50.8935" lon="2.42061">
        <ele>20.32</ele>
        <time>2021-08-07T07:07:21Z</time>
      </trkpt>
      <trkpt lat="50.89347" lon="2.42084">
        <ele>20.32</ele>
        <time>2021-08-07T07:07:24Z</time>
      </trkpt>
      <trkpt lat="50.89341" lon="2.42114">
        <ele>20.32</ele>
        <time>2021-08-07T07:07:28Z</time>
      </trkpt>
      <trkpt lat="50.89339" lon="2.42121">
        <ele>20.32</ele>
        <time>2021-08-07T07:07:29Z</time>
      </trkpt>
      <trkpt lat="50.89334" lon="2.42137">
        <ele>20.32</ele>
        <time>2021-08-07T07:07:31Z</time>
      </trkpt>
      <trkpt lat="50.89312" lon="2.42213">
        <ele>19.84</ele>
        <time>2021-08-07T07:07:40Z</time>
      </trkpt>
      <trkpt lat="50.89282" lon="2.42281">
        <ele>19.84</ele>
        <time>2021-08-07T07:07:49Z</time>
      </trkpt>
      <trkpt lat="50.89243" lon="2.42366">
        <ele>19.84</ele>
        <time>2021-08-07T07:08:01Z</time>
      </trkpt>
      <trkpt lat="50.89239" lon="2.42372">
        <ele>19.84</ele>
        <time>2021-08-07T07:08:02Z</time>
      </trkpt>
      <trkpt lat="50.89235" lon="2.42378">
        <ele>19.84</ele>
        <time>2021-08-07T07:08:03Z</time>
      </trkpt>
      <trkpt lat="50.89231" lon="2.42383">
        <ele>20.81</ele>
        <time>2021-08-07T07:08:04Z</time>
      </trkpt>
      <trkpt lat="50.89226" lon="2.42386">
        <ele>20.81</ele>
        <time>2021-08-07T07:08:05Z</time>
      </trkpt>
      <trkpt lat="50.89221" lon="2.4239">
        <ele>20.81</ele>
        <time>2021-08-07T07:08:06Z</time>
      </trkpt>
      <trkpt lat="50.89216" lon="2.42393">
        <ele>20.81</ele>
        <time>2021-08-07T07:08:07Z</time>
      </trkpt>
      <trkpt lat="50.89207" lon="2.42397">
        <ele>21.29</ele>
        <time>2021-08-07T07:08:09Z</time>
      </trkpt>
      <trkpt lat="50.89158" lon="2.4241">
        <ele>21.29</ele>
        <time>2021-08-07T07:08:18Z</time>
      </trkpt>
      <trkpt lat="50.89118" lon="2.42428">
        <ele>21.29</ele>
        <time>2021-08-07T07:08:25Z</time>
      </trkpt>
      <trkpt lat="50.89113" lon="2.42432">
        <ele>21.29</ele>
        <time>2021-08-07T07:08:26Z</time>
      </trkpt>
      <trkpt lat="50.89103" lon="2.42444">
        <ele>21.29</ele>
        <time>2021-08-07T07:08:28Z</time>
      </trkpt>
      <trkpt lat="50.89081" lon="2.42475">
        <ele>20.32</ele>
        <time>2021-08-07T07:08:33Z</time>
      </trkpt>
      <trkpt lat="50.89043" lon="2.42535">
        <ele>19.36</ele>
        <time>2021-08-07T07:08:42Z</time>
      </trkpt>
      <trkpt lat="50.89022" lon="2.42568">
        <ele>19.36</ele>
        <time>2021-08-07T07:08:47Z</time>
      </trkpt>
      <trkpt lat="50.89005" lon="2.42606">
        <ele>19.36</ele>
        <time>2021-08-07T07:08:52Z</time>
      </trkpt>
      <trkpt lat="50.89001" lon="2.42612">
        <ele>19.36</ele>
        <time>2021-08-07T07:08:53Z</time>
      </trkpt>
      <trkpt lat="50.88996" lon="2.42618">
        <ele>18.88</ele>
        <time>2021-08-07T07:08:54Z</time>
      </trkpt>
      <trkpt lat="50.88955" lon="2.42652">
        <ele>18.4</ele>
        <time>2021-08-07T07:09:02Z</time>
      </trkpt>
      <trkpt lat="50.88929" lon="2.42679">
        <ele>19.36</ele>
        <time>2021-08-07T07:09:08Z</time>
      </trkpt>
      <trkpt lat="50.88924" lon="2.42684">
        <ele>19.36</ele>
        <time>2021-08-07T07:09:09Z</time>
      </trkpt>
      <trkpt lat="50.88896" lon="2.42714">
        <ele>19.36</ele>
        <time>2021-08-07T07:09:15Z</time>
      </trkpt>
      <trkpt lat="50.88868" lon="2.42742">
        <ele>17.92</ele>
        <time>2021-08-07T07:09:20Z</time>
      </trkpt>
      <trkpt lat="50.88811" lon="2.42804">
        <ele>17.44</ele>
        <time>2021-08-07T07:09:31Z</time>
      </trkpt>
      <trkpt lat="50.88756" lon="2.42869">
        <ele>16.96</ele>
        <time>2021-08-07T07:09:42Z</time>
      </trkpt>
      <trkpt lat="50.88717" lon="2.42919">
        <ele>16.96</ele>
        <time>2021-08-07T07:09:50Z</time>
      </trkpt>
      <trkpt lat="50.88678" lon="2.42974">
        <ele>16.48</ele>
        <time>2021-08-07T07:09:59Z</time>
      </trkpt>
      <trkpt lat="50.88644" lon="2.43015">
        <ele>16.48</ele>
        <time>2021-08-07T07:10:07Z</time>
      </trkpt>
      <trkpt lat="50.88636" lon="2.43025">
        <ele>16.48</ele>
        <time>2021-08-07T07:10:09Z</time>
      </trkpt>
      <trkpt lat="50.8863" lon="2.43035">
        <ele>16.48</ele>
        <time>2021-08-07T07:10:11Z</time>
      </trkpt>
      <trkpt lat="50.88628" lon="2.43042">
        <ele>16.48</ele>
        <time>2021-08-07T07:10:12Z</time>
      </trkpt>
      <trkpt lat="50.88625" lon="2.43059">
        <ele>17.44</ele>
        <time>2021-08-07T07:10:15Z</time>
      </trkpt>
      <trkpt lat="50.8861" lon="2.43101">
        <ele>17.44</ele>
        <time>2021-08-07T07:10:22Z</time>
      </trkpt>
      <trkpt lat="50.88598" lon="2.43136">
        <ele>16.48</ele>
        <time>2021-08-07T07:10:29Z</time>
      </trkpt>
      <trkpt lat="50.88594" lon="2.43151">
        <ele>16.48</ele>
        <time>2021-08-07T07:10:32Z</time>
      </trkpt>
      <trkpt lat="50.88592" lon="2.43153">
        <ele>16.48</ele>
        <time>2021-08-07T07:10:33Z</time>
      </trkpt>
      <trkpt lat="50.8859" lon="2.43154">
        <ele>16.48</ele>
        <time>2021-08-07T07:10:34Z</time>
      </trkpt>
      <trkpt lat="50.88587" lon="2.43156">
        <ele>16.48</ele>
        <time>2021-08-07T07:10:35Z</time>
      </trkpt>
      <trkpt lat="50.88586" lon="2.43158">
        <ele>16.48</ele>
        <time>2021-08-07T07:10:36Z</time>
      </trkpt>
      <trkpt lat="50.88585" lon="2.4316">
        <ele>16.48</ele>
        <time>2021-08-07T07:10:37Z</time>
      </trkpt>
      <trkpt lat="50.88584" lon="2.43167">
        <ele>16.48</ele>
        <time>2021-08-07T07:10:43Z</time>
      </trkpt>
      <trkpt lat="50.88587" lon="2.43165">
        <ele>16.48</ele>
        <time>2021-08-07T07:10:52Z</time>
      </trkpt>
      <trkpt lat="50.88594" lon="2.43157">
        <ele>16</ele>
        <time>2021-08-07T07:11:13Z</time>
      </trkpt>
      <trkpt lat="50.88604" lon="2.43152">
        <ele>16</ele>
        <time>2021-08-07T07:11:30Z</time>
      </trkpt>
      <trkpt lat="50.88611" lon="2.43151">
        <ele>16</ele>
        <time>2021-08-07T07:11:49Z</time>
      </trkpt>
      <trkpt lat="50.88618" lon="2.43152">
        <ele>16</ele>
        <time>2021-08-07T07:12:14Z</time>
      </trkpt>
      <trkpt lat="50.88624" lon="2.43152">
        <ele>16</ele>
        <time>2021-08-07T07:12:32Z</time>
      </trkpt>
      <trkpt lat="50.88625" lon="2.43152">
        <ele>16</ele>
        <time>2021-08-07T07:12:58Z</time>
      </trkpt>
      <trkpt lat="50.88627" lon="2.43155">
        <ele>16</ele>
        <time>2021-08-07T07:13:23Z</time>
      </trkpt>
      <trkpt lat="50.88628" lon="2.43157">
        <ele>16</ele>
        <time>2021-08-07T07:13:33Z</time>
      </trkpt>
      <trkpt lat="50.88629" lon="2.43161">
        <ele>16</ele>
        <time>2021-08-07T07:13:51Z</time>
      </trkpt>
      <trkpt lat="50.88629" lon="2.43164">
        <ele>16</ele>
        <time>2021-08-07T07:13:57Z</time>
      </trkpt>
      <trkpt lat="50.88628" lon="2.43164">
        <ele>16</ele>
        <time>2021-08-07T07:14:02Z</time>
      </trkpt>
      <trkpt lat="50.88624" lon="2.43183">
        <ele>16</ele>
        <time>2021-08-07T07:14:07Z</time>
      </trkpt>
      <trkpt lat="50.88598" lon="2.43214">
        <ele>15.04</ele>
        <time>2021-08-07T07:14:14Z</time>
      </trkpt>
      <trkpt lat="50.8859" lon="2.43221">
        <ele>15.04</ele>
        <time>2021-08-07T07:14:16Z</time>
      </trkpt>
      <trkpt lat="50.88584" lon="2.43227">
        <ele>15.04</ele>
        <time>2021-08-07T07:14:17Z</time>
      </trkpt>
      <trkpt lat="50.88578" lon="2.43232">
        <ele>15.04</ele>
        <time>2021-08-07T07:14:18Z</time>
      </trkpt>
      <trkpt lat="50.88561" lon="2.43242">
        <ele>15.04</ele>
        <time>2021-08-07T07:14:21Z</time>
      </trkpt>
      <trkpt lat="50.88539" lon="2.43252">
        <ele>15.04</ele>
        <time>2021-08-07T07:14:25Z</time>
      </trkpt>
      <trkpt lat="50.88535" lon="2.43254">
        <ele>15.04</ele>
        <time>2021-08-07T07:14:26Z</time>
      </trkpt>
      <trkpt lat="50.8853" lon="2.43254">
        <ele>15.04</ele>
        <time>2021-08-07T07:14:27Z</time>
      </trkpt>
      <trkpt lat="50.88525" lon="2.43253">
        <ele>15.04</ele>
        <time>2021-08-07T07:14:28Z</time>
      </trkpt>
      <trkpt lat="50.88519" lon="2.43252">
        <ele>14.56</ele>
        <time>2021-08-07T07:14:29Z</time>
      </trkpt>
      <trkpt lat="50.88514" lon="2.4325">
        <ele>14.56</ele>
        <time>2021-08-07T07:14:30Z</time>
      </trkpt>
      <trkpt lat="50.88509" lon="2.43249">
        <ele>14.56</ele>
        <time>2021-08-07T07:14:31Z</time>
      </trkpt>
      <trkpt lat="50.88468" lon="2.43235">
        <ele>14.56</ele>
        <time>2021-08-07T07:14:39Z</time>
      </trkpt>
      <trkpt lat="50.88463" lon="2.43232">
        <ele>14.08</ele>
        <time>2021-08-07T07:14:40Z</time>
      </trkpt>
      <trkpt lat="50.88434" lon="2.43209">
        <ele>14.08</ele>
        <time>2021-08-07T07:14:47Z</time>
      </trkpt>
      <trkpt lat="50.88409" lon="2.43182">
        <ele>14.08</ele>
        <time>2021-08-07T07:14:53Z</time>
      </trkpt>
      <trkpt lat="50.88388" lon="2.43159">
        <ele>14.08</ele>
        <time>2021-08-07T07:14:58Z</time>
      </trkpt>
      <trkpt lat="50.88383" lon="2.43155">
        <ele>14.08</ele>
        <time>2021-08-07T07:14:59Z</time>
      </trkpt>
      <trkpt lat="50.88378" lon="2.43153">
        <ele>14.08</ele>
        <time>2021-08-07T07:15:00Z</time>
      </trkpt>
      <trkpt lat="50.88373" lon="2.43152">
        <ele>14.08</ele>
        <time>2021-08-07T07:15:01Z</time>
      </trkpt>
      <trkpt lat="50.88369" lon="2.4315">
        <ele>14.08</ele>
        <time>2021-08-07T07:15:02Z</time>
      </trkpt>
      <trkpt lat="50.88354" lon="2.43145">
        <ele>14.08</ele>
        <time>2021-08-07T07:15:05Z</time>
      </trkpt>
      <trkpt lat="50.88335" lon="2.43138">
        <ele>15.52</ele>
        <time>2021-08-07T07:15:09Z</time>
      </trkpt>
      <trkpt lat="50.88326" lon="2.43134">
        <ele>15.52</ele>
        <time>2021-08-07T07:15:11Z</time>
      </trkpt>
      <trkpt lat="50.88321" lon="2.43132">
        <ele>15.52</ele>
        <time>2021-08-07T07:15:12Z</time>
      </trkpt>
      <trkpt lat="50.88317" lon="2.4313">
        <ele>16</ele>
        <time>2021-08-07T07:15:13Z</time>
      </trkpt>
      <trkpt lat="50.8827" lon="2.43111">
        <ele>16</ele>
        <time>2021-08-07T07:15:23Z</time>
      </trkpt>
      <trkpt lat="50.8823" lon="2.43093">
        <ele>16</ele>
        <time>2021-08-07T07:15:31Z</time>
      </trkpt>
      <trkpt lat="50.88193" lon="2.43075">
        <ele>16.48</ele>
        <time>2021-08-07T07:15:39Z</time>
      </trkpt>
      <trkpt lat="50.88161" lon="2.43066">
        <ele>16.96</ele>
        <time>2021-08-07T07:15:46Z</time>
      </trkpt>
      <trkpt lat="50.88156" lon="2.43067">
        <ele>16.96</ele>
        <time>2021-08-07T07:15:47Z</time>
      </trkpt>
      <trkpt lat="50.88152" lon="2.43069">
        <ele>16.96</ele>
        <time>2021-08-07T07:15:48Z</time>
      </trkpt>
      <trkpt lat="50.88148" lon="2.43073">
        <ele>16.96</ele>
        <time>2021-08-07T07:15:49Z</time>
      </trkpt>
      <trkpt lat="50.88144" lon="2.43077">
        <ele>16.96</ele>
        <time>2021-08-07T07:15:50Z</time>
      </trkpt>
      <trkpt lat="50.88107" lon="2.43108">
        <ele>16.96</ele>
        <time>2021-08-07T07:15:59Z</time>
      </trkpt>
      <trkpt lat="50.88074" lon="2.43132">
        <ele>17.44</ele>
        <time>2021-08-07T07:16:07Z</time>
      </trkpt>
      <trkpt lat="50.88038" lon="2.43144">
        <ele>17.92</ele>
        <time>2021-08-07T07:16:15Z</time>
      </trkpt>
      <trkpt lat="50.88033" lon="2.43144">
        <ele>17.92</ele>
        <time>2021-08-07T07:16:16Z</time>
      </trkpt>
      <trkpt lat="50.87988" lon="2.43141">
        <ele>17.92</ele>
        <time>2021-08-07T07:16:25Z</time>
      </trkpt>
      <trkpt lat="50.87953" lon="2.43156">
        <ele>17.92</ele>
        <time>2021-08-07T07:16:33Z</time>
      </trkpt>
      <trkpt lat="50.87919" lon="2.43174">
        <ele>17.92</ele>
        <time>2021-08-07T07:16:41Z</time>
      </trkpt>
      <trkpt lat="50.87915" lon="2.43176">
        <ele>17.92</ele>
        <time>2021-08-07T07:16:42Z</time>
      </trkpt>
      <trkpt lat="50.87906" lon="2.43181">
        <ele>17.92</ele>
        <time>2021-08-07T07:16:44Z</time>
      </trkpt>
      <trkpt lat="50.87901" lon="2.43184">
        <ele>17.92</ele>
        <time>2021-08-07T07:16:45Z</time>
      </trkpt>
      <trkpt lat="50.87859" lon="2.43212">
        <ele>18.88</ele>
        <time>2021-08-07T07:16:55Z</time>
      </trkpt>
      <trkpt lat="50.87855" lon="2.43214">
        <ele>18.88</ele>
        <time>2021-08-07T07:16:56Z</time>
      </trkpt>
      <trkpt lat="50.8785" lon="2.43214">
        <ele>18.88</ele>
        <time>2021-08-07T07:16:57Z</time>
      </trkpt>
      <trkpt lat="50.87846" lon="2.43214">
        <ele>18.88</ele>
        <time>2021-08-07T07:16:58Z</time>
      </trkpt>
      <trkpt lat="50.87841" lon="2.43213">
        <ele>18.88</ele>
        <time>2021-08-07T07:16:59Z</time>
      </trkpt>
      <trkpt lat="50.87836" lon="2.43212">
        <ele>18.88</ele>
        <time>2021-08-07T07:17:00Z</time>
      </trkpt>
      <trkpt lat="50.87805" lon="2.43204">
        <ele>19.36</ele>
        <time>2021-08-07T07:17:07Z</time>
      </trkpt>
      <trkpt lat="50.87764" lon="2.43197">
        <ele>19.36</ele>
        <time>2021-08-07T07:17:16Z</time>
      </trkpt>
      <trkpt lat="50.87725" lon="2.4319">
        <ele>19.36</ele>
        <time>2021-08-07T07:17:24Z</time>
      </trkpt>
      <trkpt lat="50.87683" lon="2.43182">
        <ele>19.84</ele>
        <time>2021-08-07T07:17:33Z</time>
      </trkpt>
      <trkpt lat="50.87641" lon="2.43171">
        <ele>19.84</ele>
        <time>2021-08-07T07:17:42Z</time>
      </trkpt>
      <trkpt lat="50.87636" lon="2.43171">
        <ele>19.84</ele>
        <time>2021-08-07T07:17:43Z</time>
      </trkpt>
      <trkpt lat="50.8758" lon="2.43165">
        <ele>19.84</ele>
        <time>2021-08-07T07:17:54Z</time>
      </trkpt>
      <trkpt lat="50.87564" lon="2.43166">
        <ele>19.84</ele>
        <time>2021-08-07T07:17:57Z</time>
      </trkpt>
      <trkpt lat="50.87559" lon="2.43169">
        <ele>19.84</ele>
        <time>2021-08-07T07:17:58Z</time>
      </trkpt>
      <trkpt lat="50.87554" lon="2.43172">
        <ele>19.84</ele>
        <time>2021-08-07T07:17:59Z</time>
      </trkpt>
      <trkpt lat="50.87549" lon="2.43175">
        <ele>19.84</ele>
        <time>2021-08-07T07:18:00Z</time>
      </trkpt>
      <trkpt lat="50.87545" lon="2.43179">
        <ele>19.84</ele>
        <time>2021-08-07T07:18:01Z</time>
      </trkpt>
      <trkpt lat="50.87499" lon="2.43218">
        <ele>19.84</ele>
        <time>2021-08-07T07:18:11Z</time>
      </trkpt>
      <trkpt lat="50.87494" lon="2.4322">
        <ele>19.84</ele>
        <time>2021-08-07T07:18:12Z</time>
      </trkpt>
      <trkpt lat="50.8749" lon="2.43222">
        <ele>19.84</ele>
        <time>2021-08-07T07:18:13Z</time>
      </trkpt>
      <trkpt lat="50.87485" lon="2.43224">
        <ele>19.84</ele>
        <time>2021-08-07T07:18:14Z</time>
      </trkpt>
      <trkpt lat="50.87481" lon="2.43226">
        <ele>19.84</ele>
        <time>2021-08-07T07:18:15Z</time>
      </trkpt>
      <trkpt lat="50.87476" lon="2.43229">
        <ele>19.84</ele>
        <time>2021-08-07T07:18:16Z</time>
      </trkpt>
      <trkpt lat="50.87433" lon="2.43259">
        <ele>19.84</ele>
        <time>2021-08-07T07:18:26Z</time>
      </trkpt>
      <trkpt lat="50.8737" lon="2.43308">
        <ele>20.81</ele>
        <time>2021-08-07T07:18:41Z</time>
      </trkpt>
      <trkpt lat="50.87325" lon="2.43345">
        <ele>21.29</ele>
        <time>2021-08-07T07:18:52Z</time>
      </trkpt>
      <trkpt lat="50.87321" lon="2.43349">
        <ele>21.29</ele>
        <time>2021-08-07T07:18:53Z</time>
      </trkpt>
      <trkpt lat="50.87317" lon="2.43354">
        <ele>21.29</ele>
        <time>2021-08-07T07:18:54Z</time>
      </trkpt>
      <trkpt lat="50.87313" lon="2.43359">
        <ele>22.25</ele>
        <time>2021-08-07T07:18:55Z</time>
      </trkpt>
      <trkpt lat="50.87281" lon="2.43393">
        <ele>22.25</ele>
        <time>2021-08-07T07:19:03Z</time>
      </trkpt>
      <trkpt lat="50.87277" lon="2.43398">
        <ele>22.25</ele>
        <time>2021-08-07T07:19:04Z</time>
      </trkpt>
      <trkpt lat="50.87274" lon="2.43403">
        <ele>22.25</ele>
        <time>2021-08-07T07:19:05Z</time>
      </trkpt>
      <trkpt lat="50.8727" lon="2.43407">
        <ele>22.25</ele>
        <time>2021-08-07T07:19:06Z</time>
      </trkpt>
      <trkpt lat="50.87265" lon="2.43411">
        <ele>22.25</ele>
        <time>2021-08-07T07:19:07Z</time>
      </trkpt>
      <trkpt lat="50.87219" lon="2.43454">
        <ele>22.73</ele>
        <time>2021-08-07T07:19:18Z</time>
      </trkpt>
      <trkpt lat="50.87199" lon="2.43474">
        <ele>24.17</ele>
        <time>2021-08-07T07:19:23Z</time>
      </trkpt>
      <trkpt lat="50.87187" lon="2.43486">
        <ele>22.73</ele>
        <time>2021-08-07T07:19:26Z</time>
      </trkpt>
      <trkpt lat="50.8715" lon="2.43522">
        <ele>22.73</ele>
        <time>2021-08-07T07:19:36Z</time>
      </trkpt>
      <trkpt lat="50.87146" lon="2.43527">
        <ele>24.17</ele>
        <time>2021-08-07T07:19:39Z</time>
      </trkpt>
      <trkpt lat="50.87145" lon="2.43528">
        <ele>24.17</ele>
        <time>2021-08-07T07:19:47Z</time>
      </trkpt>
      <trkpt lat="50.87144" lon="2.43529">
        <ele>24.17</ele>
        <time>2021-08-07T07:20:09Z</time>
      </trkpt>
      <trkpt lat="50.87144" lon="2.43529">
        <ele>24.17</ele>
        <time>2021-08-07T07:20:27Z</time>
      </trkpt>
      <trkpt lat="50.87144" lon="2.4353">
        <ele>24.17</ele>
        <time>2021-08-07T07:20:45Z</time>
      </trkpt>
      <trkpt lat="50.87144" lon="2.4353">
        <ele>24.17</ele>
        <time>2021-08-07T07:21:11Z</time>
      </trkpt>
      <trkpt lat="50.87144" lon="2.43529">
        <ele>24.17</ele>
        <time>2021-08-07T07:21:25Z</time>
      </trkpt>
      <trkpt lat="50.87145" lon="2.43528">
        <ele>24.17</ele>
        <time>2021-08-07T07:21:40Z</time>
      </trkpt>
      <trkpt lat="50.87143" lon="2.43532">
        <ele>24.17</ele>
        <time>2021-08-07T07:22:00Z</time>
      </trkpt>
      <trkpt lat="50.87144" lon="2.43531">
        <ele>24.17</ele>
        <time>2021-08-07T07:22:09Z</time>
      </trkpt>
      <trkpt lat="50.87146" lon="2.43528">
        <ele>24.17</ele>
        <time>2021-08-07T07:22:21Z</time>
      </trkpt>
      <trkpt lat="50.87145" lon="2.43528">
        <ele>24.17</ele>
        <time>2021-08-07T07:22:25Z</time>
      </trkpt>
      <trkpt lat="50.87144" lon="2.43527">
        <ele>24.17</ele>
        <time>2021-08-07T07:22:26Z</time>
      </trkpt>
      <trkpt lat="50.87143" lon="2.43527">
        <ele>24.17</ele>
        <time>2021-08-07T07:22:27Z</time>
      </trkpt>
      <trkpt lat="50.87141" lon="2.43528">
        <ele>24.17</ele>
        <time>2021-08-07T07:22:28Z</time>
      </trkpt>
      <trkpt lat="50.87139" lon="2.43529">
        <ele>24.17</ele>
        <time>2021-08-07T07:22:29Z</time>
      </trkpt>
      <trkpt lat="50.87137" lon="2.4353">
        <ele>24.17</ele>
        <time>2021-08-07T07:22:30Z</time>
      </trkpt>
      <trkpt lat="50.87111" lon="2.43541">
        <ele>24.17</ele>
        <time>2021-08-07T07:22:37Z</time>
      </trkpt>
      <trkpt lat="50.8709" lon="2.4355">
        <ele>24.17</ele>
        <time>2021-08-07T07:22:43Z</time>
      </trkpt>
      <trkpt lat="50.87069" lon="2.43562">
        <ele>22.73</ele>
        <time>2021-08-07T07:22:49Z</time>
      </trkpt>
      <trkpt lat="50.87022" lon="2.43596">
        <ele>22.25</ele>
        <time>2021-08-07T07:23:00Z</time>
      </trkpt>
      <trkpt lat="50.86979" lon="2.43629">
        <ele>22.25</ele>
        <time>2021-08-07T07:23:10Z</time>
      </trkpt>
      <trkpt lat="50.86953" lon="2.43646">
        <ele>22.73</ele>
        <time>2021-08-07T07:23:16Z</time>
      </trkpt>
      <trkpt lat="50.86949" lon="2.43648">
        <ele>23.69</ele>
        <time>2021-08-07T07:23:17Z</time>
      </trkpt>
      <trkpt lat="50.86944" lon="2.43648">
        <ele>23.69</ele>
        <time>2021-08-07T07:23:18Z</time>
      </trkpt>
      <trkpt lat="50.86941" lon="2.43645">
        <ele>23.69</ele>
        <time>2021-08-07T07:23:19Z</time>
      </trkpt>
      <trkpt lat="50.86936" lon="2.43639">
        <ele>24.17</ele>
        <time>2021-08-07T07:23:20Z</time>
      </trkpt>
      <trkpt lat="50.86934" lon="2.43636">
        <ele>24.17</ele>
        <time>2021-08-07T07:23:21Z</time>
      </trkpt>
      <trkpt lat="50.8693" lon="2.43632">
        <ele>24.17</ele>
        <time>2021-08-07T07:23:22Z</time>
      </trkpt>
      <trkpt lat="50.86926" lon="2.4363">
        <ele>24.17</ele>
        <time>2021-08-07T07:23:23Z</time>
      </trkpt>
      <trkpt lat="50.8692" lon="2.4363">
        <ele>24.17</ele>
        <time>2021-08-07T07:23:24Z</time>
      </trkpt>
      <trkpt lat="50.86916" lon="2.43631">
        <ele>24.17</ele>
        <time>2021-08-07T07:23:25Z</time>
      </trkpt>
      <trkpt lat="50.86911" lon="2.43633">
        <ele>24.17</ele>
        <time>2021-08-07T07:23:26Z</time>
      </trkpt>
      <trkpt lat="50.86907" lon="2.43636">
        <ele>24.17</ele>
        <time>2021-08-07T07:23:27Z</time>
      </trkpt>
      <trkpt lat="50.86901" lon="2.4364">
        <ele>24.17</ele>
        <time>2021-08-07T07:23:28Z</time>
      </trkpt>
      <trkpt lat="50.86865" lon="2.43663">
        <ele>23.69</ele>
        <time>2021-08-07T07:23:36Z</time>
      </trkpt>
      <trkpt lat="50.86824" lon="2.4369">
        <ele>23.69</ele>
        <time>2021-08-07T07:23:45Z</time>
      </trkpt>
      <trkpt lat="50.86819" lon="2.43691">
        <ele>23.69</ele>
        <time>2021-08-07T07:23:46Z</time>
      </trkpt>
      <trkpt lat="50.86814" lon="2.43691">
        <ele>23.69</ele>
        <time>2021-08-07T07:23:47Z</time>
      </trkpt>
      <trkpt lat="50.86809" lon="2.4369">
        <ele>23.69</ele>
        <time>2021-08-07T07:23:48Z</time>
      </trkpt>
      <trkpt lat="50.86804" lon="2.43689">
        <ele>23.69</ele>
        <time>2021-08-07T07:23:49Z</time>
      </trkpt>
      <trkpt lat="50.86794" lon="2.43688">
        <ele>23.69</ele>
        <time>2021-08-07T07:23:51Z</time>
      </trkpt>
      <trkpt lat="50.86789" lon="2.43689">
        <ele>23.69</ele>
        <time>2021-08-07T07:23:52Z</time>
      </trkpt>
      <trkpt lat="50.86779" lon="2.43692">
        <ele>23.69</ele>
        <time>2021-08-07T07:23:54Z</time>
      </trkpt>
      <trkpt lat="50.86774" lon="2.43695">
        <ele>23.69</ele>
        <time>2021-08-07T07:23:55Z</time>
      </trkpt>
      <trkpt lat="50.86744" lon="2.43716">
        <ele>23.69</ele>
        <time>2021-08-07T07:24:01Z</time>
      </trkpt>
      <trkpt lat="50.86716" lon="2.43738">
        <ele>24.17</ele>
        <time>2021-08-07T07:24:07Z</time>
      </trkpt>
      <trkpt lat="50.86655" lon="2.43776">
        <ele>24.17</ele>
        <time>2021-08-07T07:24:19Z</time>
      </trkpt>
      <trkpt lat="50.8665" lon="2.43777">
        <ele>24.17</ele>
        <time>2021-08-07T07:24:20Z</time>
      </trkpt>
      <trkpt lat="50.86624" lon="2.43785">
        <ele>24.17</ele>
        <time>2021-08-07T07:24:25Z</time>
      </trkpt>
      <trkpt lat="50.86619" lon="2.43788">
        <ele>24.17</ele>
        <time>2021-08-07T07:24:26Z</time>
      </trkpt>
      <trkpt lat="50.86615" lon="2.43792">
        <ele>24.17</ele>
        <time>2021-08-07T07:24:27Z</time>
      </trkpt>
      <trkpt lat="50.8657" lon="2.43839">
        <ele>24.17</ele>
        <time>2021-08-07T07:24:37Z</time>
      </trkpt>
      <trkpt lat="50.86548" lon="2.4386">
        <ele>24.17</ele>
        <time>2021-08-07T07:24:42Z</time>
      </trkpt>
      <trkpt lat="50.86543" lon="2.43862">
        <ele>24.17</ele>
        <time>2021-08-07T07:24:43Z</time>
      </trkpt>
      <trkpt lat="50.86538" lon="2.43863">
        <ele>24.17</ele>
        <time>2021-08-07T07:24:44Z</time>
      </trkpt>
      <trkpt lat="50.86524" lon="2.43866">
        <ele>25.13</ele>
        <time>2021-08-07T07:24:47Z</time>
      </trkpt>
      <trkpt lat="50.86518" lon="2.43868">
        <ele>25.13</ele>
        <time>2021-08-07T07:24:48Z</time>
      </trkpt>
      <trkpt lat="50.86514" lon="2.4387">
        <ele>25.13</ele>
        <time>2021-08-07T07:24:49Z</time>
      </trkpt>
      <trkpt lat="50.86471" lon="2.43903">
        <ele>24.65</ele>
        <time>2021-08-07T07:24:58Z</time>
      </trkpt>
      <trkpt lat="50.86443" lon="2.43926">
        <ele>23.21</ele>
        <time>2021-08-07T07:25:04Z</time>
      </trkpt>
      <trkpt lat="50.86407" lon="2.43951">
        <ele>24.65</ele>
        <time>2021-08-07T07:25:12Z</time>
      </trkpt>
      <trkpt lat="50.86402" lon="2.43953">
        <ele>25.13</ele>
        <time>2021-08-07T07:25:13Z</time>
      </trkpt>
      <trkpt lat="50.86397" lon="2.43953">
        <ele>25.13</ele>
        <time>2021-08-07T07:25:14Z</time>
      </trkpt>
      <trkpt lat="50.86353" lon="2.43961">
        <ele>25.13</ele>
        <time>2021-08-07T07:25:23Z</time>
      </trkpt>
      <trkpt lat="50.86291" lon="2.43964">
        <ele>25.13</ele>
        <time>2021-08-07T07:25:35Z</time>
      </trkpt>
      <trkpt lat="50.86261" lon="2.43966">
        <ele>25.13</ele>
        <time>2021-08-07T07:25:41Z</time>
      </trkpt>
      <trkpt lat="50.86256" lon="2.43967">
        <ele>25.13</ele>
        <time>2021-08-07T07:25:42Z</time>
      </trkpt>
      <trkpt lat="50.86251" lon="2.4397">
        <ele>25.13</ele>
        <time>2021-08-07T07:25:43Z</time>
      </trkpt>
      <trkpt lat="50.86246" lon="2.43973">
        <ele>25.13</ele>
        <time>2021-08-07T07:25:44Z</time>
      </trkpt>
      <trkpt lat="50.86241" lon="2.43977">
        <ele>25.13</ele>
        <time>2021-08-07T07:25:45Z</time>
      </trkpt>
      <trkpt lat="50.86196" lon="2.44022">
        <ele>22.73</ele>
        <time>2021-08-07T07:25:54Z</time>
      </trkpt>
      <trkpt lat="50.86146" lon="2.44077">
        <ele>22.25</ele>
        <time>2021-08-07T07:26:04Z</time>
      </trkpt>
      <trkpt lat="50.86088" lon="2.4414">
        <ele>20.32</ele>
        <time>2021-08-07T07:26:15Z</time>
      </trkpt>
      <trkpt lat="50.86033" lon="2.44201">
        <ele>19.84</ele>
        <time>2021-08-07T07:26:26Z</time>
      </trkpt>
      <trkpt lat="50.85988" lon="2.44253">
        <ele>19.84</ele>
        <time>2021-08-07T07:26:36Z</time>
      </trkpt>
      <trkpt lat="50.85985" lon="2.44258">
        <ele>19.84</ele>
        <time>2021-08-07T07:26:37Z</time>
      </trkpt>
      <trkpt lat="50.85981" lon="2.4426">
        <ele>19.84</ele>
        <time>2021-08-07T07:26:38Z</time>
      </trkpt>
      <trkpt lat="50.85977" lon="2.44259">
        <ele>19.84</ele>
        <time>2021-08-07T07:26:39Z</time>
      </trkpt>
      <trkpt lat="50.85973" lon="2.44255">
        <ele>19.84</ele>
        <time>2021-08-07T07:26:40Z</time>
      </trkpt>
      <trkpt lat="50.8597" lon="2.44251">
        <ele>20.81</ele>
        <time>2021-08-07T07:26:41Z</time>
      </trkpt>
      <trkpt lat="50.85968" lon="2.44246">
        <ele>20.81</ele>
        <time>2021-08-07T07:26:42Z</time>
      </trkpt>
      <trkpt lat="50.85965" lon="2.4424">
        <ele>20.81</ele>
        <time>2021-08-07T07:26:43Z</time>
      </trkpt>
      <trkpt lat="50.85939" lon="2.44185">
        <ele>20.81</ele>
        <time>2021-08-07T07:26:51Z</time>
      </trkpt>
      <trkpt lat="50.85922" lon="2.44152">
        <ele>19.36</ele>
        <time>2021-08-07T07:26:56Z</time>
      </trkpt>
      <trkpt lat="50.85878" lon="2.4407">
        <ele>19.36</ele>
        <time>2021-08-07T07:27:08Z</time>
      </trkpt>
      <trkpt lat="50.85838" lon="2.44008">
        <ele>21.29</ele>
        <time>2021-08-07T07:27:18Z</time>
      </trkpt>
      <trkpt lat="50.85805" lon="2.43954">
        <ele>21.77</ele>
        <time>2021-08-07T07:27:27Z</time>
      </trkpt>
      <trkpt lat="50.85778" lon="2.43916">
        <ele>21.77</ele>
        <time>2021-08-07T07:27:34Z</time>
      </trkpt>
      <trkpt lat="50.85773" lon="2.43913">
        <ele>21.77</ele>
        <time>2021-08-07T07:27:35Z</time>
      </trkpt>
      <trkpt lat="50.85751" lon="2.43898">
        <ele>21.77</ele>
        <time>2021-08-07T07:27:40Z</time>
      </trkpt>
      <trkpt lat="50.85747" lon="2.43892">
        <ele>21.77</ele>
        <time>2021-08-07T07:27:41Z</time>
      </trkpt>
      <trkpt lat="50.85743" lon="2.43885">
        <ele>21.77</ele>
        <time>2021-08-07T07:27:42Z</time>
      </trkpt>
      <trkpt lat="50.85712" lon="2.43817">
        <ele>21.77</ele>
        <time>2021-08-07T07:27:51Z</time>
      </trkpt>
      <trkpt lat="50.85696" lon="2.43785">
        <ele>21.77</ele>
        <time>2021-08-07T07:27:56Z</time>
      </trkpt>
      <trkpt lat="50.85693" lon="2.4378">
        <ele>22.25</ele>
        <time>2021-08-07T07:27:57Z</time>
      </trkpt>
      <trkpt lat="50.8569" lon="2.43777">
        <ele>22.25</ele>
        <time>2021-08-07T07:27:58Z</time>
      </trkpt>
      <trkpt lat="50.85687" lon="2.43775">
        <ele>22.25</ele>
        <time>2021-08-07T07:27:59Z</time>
      </trkpt>
      <trkpt lat="50.85683" lon="2.43774">
        <ele>22.25</ele>
        <time>2021-08-07T07:28:00Z</time>
      </trkpt>
      <trkpt lat="50.85679" lon="2.43775">
        <ele>22.25</ele>
        <time>2021-08-07T07:28:01Z</time>
      </trkpt>
      <trkpt lat="50.85674" lon="2.43778">
        <ele>22.25</ele>
        <time>2021-08-07T07:28:02Z</time>
      </trkpt>
      <trkpt lat="50.8567" lon="2.43782">
        <ele>22.25</ele>
        <time>2021-08-07T07:28:03Z</time>
      </trkpt>
      <trkpt lat="50.85666" lon="2.43787">
        <ele>22.25</ele>
        <time>2021-08-07T07:28:04Z</time>
      </trkpt>
      <trkpt lat="50.85662" lon="2.43792">
        <ele>22.25</ele>
        <time>2021-08-07T07:28:05Z</time>
      </trkpt>
      <trkpt lat="50.85658" lon="2.43798">
        <ele>22.25</ele>
        <time>2021-08-07T07:28:06Z</time>
      </trkpt>
      <trkpt lat="50.85638" lon="2.43824">
        <ele>22.25</ele>
        <time>2021-08-07T07:28:11Z</time>
      </trkpt>
      <trkpt lat="50.85607" lon="2.43863">
        <ele>22.25</ele>
        <time>2021-08-07T07:28:18Z</time>
      </trkpt>
      <trkpt lat="50.85565" lon="2.43913">
        <ele>23.21</ele>
        <time>2021-08-07T07:28:28Z</time>
      </trkpt>
      <trkpt lat="50.85526" lon="2.4396">
        <ele>23.21</ele>
        <time>2021-08-07T07:28:37Z</time>
      </trkpt>
      <trkpt lat="50.85501" lon="2.43988">
        <ele>23.21</ele>
        <time>2021-08-07T07:28:43Z</time>
      </trkpt>
      <trkpt lat="50.85498" lon="2.43991">
        <ele>23.21</ele>
        <time>2021-08-07T07:28:44Z</time>
      </trkpt>
      <trkpt lat="50.85494" lon="2.43992">
        <ele>23.21</ele>
        <time>2021-08-07T07:28:45Z</time>
      </trkpt>
      <trkpt lat="50.8549" lon="2.43988">
        <ele>23.21</ele>
        <time>2021-08-07T07:28:46Z</time>
      </trkpt>
      <trkpt lat="50.85487" lon="2.43983">
        <ele>23.21</ele>
        <time>2021-08-07T07:28:47Z</time>
      </trkpt>
      <trkpt lat="50.85485" lon="2.43977">
        <ele>23.21</ele>
        <time>2021-08-07T07:28:48Z</time>
      </trkpt>
      <trkpt lat="50.85482" lon="2.43969">
        <ele>23.21</ele>
        <time>2021-08-07T07:28:49Z</time>
      </trkpt>
      <trkpt lat="50.8547" lon="2.43931">
        <ele>23.21</ele>
        <time>2021-08-07T07:28:54Z</time>
      </trkpt>
      <trkpt lat="50.85467" lon="2.43924">
        <ele>22.73</ele>
        <time>2021-08-07T07:28:55Z</time>
      </trkpt>
      <trkpt lat="50.85464" lon="2.43917">
        <ele>22.73</ele>
        <time>2021-08-07T07:28:56Z</time>
      </trkpt>
      <trkpt lat="50.8546" lon="2.43911">
        <ele>22.73</ele>
        <time>2021-08-07T07:28:57Z</time>
      </trkpt>
      <trkpt lat="50.85456" lon="2.43905">
        <ele>22.73</ele>
        <time>2021-08-07T07:28:58Z</time>
      </trkpt>
      <trkpt lat="50.85453" lon="2.43899">
        <ele>22.73</ele>
        <time>2021-08-07T07:28:59Z</time>
      </trkpt>
      <trkpt lat="50.85449" lon="2.43896">
        <ele>22.73</ele>
        <time>2021-08-07T07:29:00Z</time>
      </trkpt>
      <trkpt lat="50.85444" lon="2.43898">
        <ele>22.73</ele>
        <time>2021-08-07T07:29:01Z</time>
      </trkpt>
      <trkpt lat="50.85439" lon="2.43901">
        <ele>22.73</ele>
        <time>2021-08-07T07:29:02Z</time>
      </trkpt>
      <trkpt lat="50.85434" lon="2.43906">
        <ele>22.73</ele>
        <time>2021-08-07T07:29:03Z</time>
      </trkpt>
      <trkpt lat="50.8543" lon="2.43911">
        <ele>22.73</ele>
        <time>2021-08-07T07:29:04Z</time>
      </trkpt>
      <trkpt lat="50.85425" lon="2.43916">
        <ele>23.21</ele>
        <time>2021-08-07T07:29:05Z</time>
      </trkpt>
      <trkpt lat="50.8539" lon="2.43955">
        <ele>23.21</ele>
        <time>2021-08-07T07:29:13Z</time>
      </trkpt>
      <trkpt lat="50.85362" lon="2.43974">
        <ele>22.25</ele>
        <time>2021-08-07T07:29:19Z</time>
      </trkpt>
      <trkpt lat="50.85357" lon="2.43976">
        <ele>22.25</ele>
        <time>2021-08-07T07:29:20Z</time>
      </trkpt>
      <trkpt lat="50.85317" lon="2.43981">
        <ele>23.69</ele>
        <time>2021-08-07T07:29:28Z</time>
      </trkpt>
      <trkpt lat="50.85269" lon="2.43982">
        <ele>21.77</ele>
        <time>2021-08-07T07:29:37Z</time>
      </trkpt>
      <trkpt lat="50.85215" lon="2.43985">
        <ele>21.29</ele>
        <time>2021-08-07T07:29:46Z</time>
      </trkpt>
      <trkpt lat="50.85172" lon="2.43982">
        <ele>20.81</ele>
        <time>2021-08-07T07:29:53Z</time>
      </trkpt>
      <trkpt lat="50.85166" lon="2.43979">
        <ele>20.81</ele>
        <time>2021-08-07T07:29:54Z</time>
      </trkpt>
      <trkpt lat="50.8516" lon="2.43976">
        <ele>20.81</ele>
        <time>2021-08-07T07:29:55Z</time>
      </trkpt>
      <trkpt lat="50.85149" lon="2.43967">
        <ele>20.81</ele>
        <time>2021-08-07T07:29:57Z</time>
      </trkpt>
      <trkpt lat="50.8513" lon="2.43942">
        <ele>22.25</ele>
        <time>2021-08-07T07:30:01Z</time>
      </trkpt>
      <trkpt lat="50.85101" lon="2.43913">
        <ele>22.73</ele>
        <time>2021-08-07T07:30:07Z</time>
      </trkpt>
      <trkpt lat="50.85058" lon="2.43893">
        <ele>23.21</ele>
        <time>2021-08-07T07:30:15Z</time>
      </trkpt>
      <trkpt lat="50.85053" lon="2.43892">
        <ele>23.21</ele>
        <time>2021-08-07T07:30:16Z</time>
      </trkpt>
      <trkpt lat="50.85036" lon="2.4389">
        <ele>23.21</ele>
        <time>2021-08-07T07:30:19Z</time>
      </trkpt>
      <trkpt lat="50.85031" lon="2.43887">
        <ele>23.21</ele>
        <time>2021-08-07T07:30:20Z</time>
      </trkpt>
      <trkpt lat="50.85026" lon="2.43882">
        <ele>23.21</ele>
        <time>2021-08-07T07:30:21Z</time>
      </trkpt>
      <trkpt lat="50.85021" lon="2.43877">
        <ele>23.21</ele>
        <time>2021-08-07T07:30:22Z</time>
      </trkpt>
      <trkpt lat="50.85017" lon="2.4387">
        <ele>23.21</ele>
        <time>2021-08-07T07:30:23Z</time>
      </trkpt>
      <trkpt lat="50.85013" lon="2.43863">
        <ele>23.21</ele>
        <time>2021-08-07T07:30:24Z</time>
      </trkpt>
      <trkpt lat="50.8501" lon="2.43855">
        <ele>23.21</ele>
        <time>2021-08-07T07:30:25Z</time>
      </trkpt>
      <trkpt lat="50.85006" lon="2.43847">
        <ele>23.21</ele>
        <time>2021-08-07T07:30:26Z</time>
      </trkpt>
      <trkpt lat="50.8497" lon="2.4376">
        <ele>21.29</ele>
        <time>2021-08-07T07:30:37Z</time>
      </trkpt>
      <trkpt lat="50.84941" lon="2.43677">
        <ele>21.29</ele>
        <time>2021-08-07T07:30:47Z</time>
      </trkpt>
      <trkpt lat="50.84936" lon="2.43661">
        <ele>21.29</ele>
        <time>2021-08-07T07:30:49Z</time>
      </trkpt>
      <trkpt lat="50.84913" lon="2.43581">
        <ele>20.81</ele>
        <time>2021-08-07T07:30:58Z</time>
      </trkpt>
      <trkpt lat="50.84895" lon="2.43532">
        <ele>20.81</ele>
        <time>2021-08-07T07:31:04Z</time>
      </trkpt>
      <trkpt lat="50.8486" lon="2.43482">
        <ele>20.32</ele>
        <time>2021-08-07T07:31:12Z</time>
      </trkpt>
      <trkpt lat="50.84856" lon="2.43474">
        <ele>20.32</ele>
        <time>2021-08-07T07:31:13Z</time>
      </trkpt>
      <trkpt lat="50.84853" lon="2.43466">
        <ele>20.32</ele>
        <time>2021-08-07T07:31:14Z</time>
      </trkpt>
      <trkpt lat="50.84834" lon="2.43401">
        <ele>21.77</ele>
        <time>2021-08-07T07:31:22Z</time>
      </trkpt>
      <trkpt lat="50.8483" lon="2.43386">
        <ele>21.77</ele>
        <time>2021-08-07T07:31:24Z</time>
      </trkpt>
      <trkpt lat="50.84827" lon="2.43377">
        <ele>21.77</ele>
        <time>2021-08-07T07:31:26Z</time>
      </trkpt>
      <trkpt lat="50.84823" lon="2.43375">
        <ele>21.77</ele>
        <time>2021-08-07T07:31:27Z</time>
      </trkpt>
      <trkpt lat="50.84819" lon="2.43375">
        <ele>21.77</ele>
        <time>2021-08-07T07:31:28Z</time>
      </trkpt>
      <trkpt lat="50.84815" lon="2.43376">
        <ele>21.77</ele>
        <time>2021-08-07T07:31:29Z</time>
      </trkpt>
      <trkpt lat="50.8481" lon="2.43378">
        <ele>21.77</ele>
        <time>2021-08-07T07:31:30Z</time>
      </trkpt>
      <trkpt lat="50.84805" lon="2.43382">
        <ele>21.77</ele>
        <time>2021-08-07T07:31:31Z</time>
      </trkpt>
      <trkpt lat="50.84757" lon="2.43414">
        <ele>21.77</ele>
        <time>2021-08-07T07:31:41Z</time>
      </trkpt>
      <trkpt lat="50.84705" lon="2.43446">
        <ele>21.77</ele>
        <time>2021-08-07T07:31:52Z</time>
      </trkpt>
      <trkpt lat="50.84649" lon="2.43483">
        <ele>23.21</ele>
        <time>2021-08-07T07:32:04Z</time>
      </trkpt>
      <trkpt lat="50.84614" lon="2.43504">
        <ele>21.77</ele>
        <time>2021-08-07T07:32:11Z</time>
      </trkpt>
      <trkpt lat="50.84542" lon="2.4355">
        <ele>19.84</ele>
        <time>2021-08-07T07:32:25Z</time>
      </trkpt>
      <trkpt lat="50.84526" lon="2.43559">
        <ele>21.29</ele>
        <time>2021-08-07T07:32:28Z</time>
      </trkpt>
      <trkpt lat="50.84458" lon="2.43602">
        <ele>21.77</ele>
        <time>2021-08-07T07:32:42Z</time>
      </trkpt>
      <trkpt lat="50.84399" lon="2.43638">
        <ele>21.77</ele>
        <time>2021-08-07T07:32:53Z</time>
      </trkpt>
      <trkpt lat="50.84376" lon="2.4365">
        <ele>20.32</ele>
        <time>2021-08-07T07:32:57Z</time>
      </trkpt>
      <trkpt lat="50.84326" lon="2.43677">
        <ele>19.36</ele>
        <time>2021-08-07T07:33:06Z</time>
      </trkpt>
      <trkpt lat="50.84276" lon="2.4371">
        <ele>18.88</ele>
        <time>2021-08-07T07:33:16Z</time>
      </trkpt>
      <trkpt lat="50.84222" lon="2.43751">
        <ele>19.84</ele>
        <time>2021-08-07T07:33:28Z</time>
      </trkpt>
      <trkpt lat="50.84218" lon="2.43754">
        <ele>19.84</ele>
        <time>2021-08-07T07:33:29Z</time>
      </trkpt>
      <trkpt lat="50.84213" lon="2.43758">
        <ele>19.84</ele>
        <time>2021-08-07T07:33:30Z</time>
      </trkpt>
      <trkpt lat="50.84166" lon="2.43792">
        <ele>21.29</ele>
        <time>2021-08-07T07:33:41Z</time>
      </trkpt>
      <trkpt lat="50.84119" lon="2.43826">
        <ele>21.77</ele>
        <time>2021-08-07T07:33:52Z</time>
      </trkpt>
      <trkpt lat="50.8407" lon="2.43861">
        <ele>22.73</ele>
        <time>2021-08-07T07:34:04Z</time>
      </trkpt>
      <trkpt lat="50.84028" lon="2.43888">
        <ele>23.69</ele>
        <time>2021-08-07T07:34:14Z</time>
      </trkpt>
      <trkpt lat="50.84025" lon="2.4389">
        <ele>23.69</ele>
        <time>2021-08-07T07:34:15Z</time>
      </trkpt>
      <trkpt lat="50.83985" lon="2.43918">
        <ele>25.13</ele>
        <time>2021-08-07T07:34:25Z</time>
      </trkpt>
      <trkpt lat="50.83945" lon="2.43945">
        <ele>26.09</ele>
        <time>2021-08-07T07:34:36Z</time>
      </trkpt>
      <trkpt lat="50.83904" lon="2.43972">
        <ele>26.57</ele>
        <time>2021-08-07T07:34:47Z</time>
      </trkpt>
      <trkpt lat="50.83873" lon="2.43994">
        <ele>27.05</ele>
        <time>2021-08-07T07:34:55Z</time>
      </trkpt>
      <trkpt lat="50.83837" lon="2.44017">
        <ele>28.5</ele>
        <time>2021-08-07T07:35:04Z</time>
      </trkpt>
      <trkpt lat="50.83833" lon="2.4402">
        <ele>28.5</ele>
        <time>2021-08-07T07:35:05Z</time>
      </trkpt>
      <trkpt lat="50.8379" lon="2.44048">
        <ele>29.94</ele>
        <time>2021-08-07T07:35:16Z</time>
      </trkpt>
      <trkpt lat="50.83771" lon="2.44062">
        <ele>29.94</ele>
        <time>2021-08-07T07:35:21Z</time>
      </trkpt>
      <trkpt lat="50.83739" lon="2.44083">
        <ele>30.9</ele>
        <time>2021-08-07T07:35:30Z</time>
      </trkpt>
      <trkpt lat="50.83702" lon="2.44107">
        <ele>31.38</ele>
        <time>2021-08-07T07:35:40Z</time>
      </trkpt>
      <trkpt lat="50.8366" lon="2.44136">
        <ele>32.82</ele>
        <time>2021-08-07T07:35:51Z</time>
      </trkpt>
      <trkpt lat="50.83613" lon="2.44166">
        <ele>34.26</ele>
        <time>2021-08-07T07:36:04Z</time>
      </trkpt>
      <trkpt lat="50.83585" lon="2.44185">
        <ele>34.74</ele>
        <time>2021-08-07T07:36:12Z</time>
      </trkpt>
      <trkpt lat="50.83553" lon="2.44206">
        <ele>35.23</ele>
        <time>2021-08-07T07:36:21Z</time>
      </trkpt>
      <trkpt lat="50.83523" lon="2.44225">
        <ele>37.15</ele>
        <time>2021-08-07T07:36:30Z</time>
      </trkpt>
      <trkpt lat="50.83479" lon="2.44254">
        <ele>39.07</ele>
        <time>2021-08-07T07:36:43Z</time>
      </trkpt>
      <trkpt lat="50.83442" lon="2.44279">
        <ele>40.51</ele>
        <time>2021-08-07T07:36:54Z</time>
      </trkpt>
      <trkpt lat="50.83424" lon="2.44287">
        <ele>41.47</ele>
        <time>2021-08-07T07:36:59Z</time>
      </trkpt>
      <trkpt lat="50.83421" lon="2.44284">
        <ele>41.47</ele>
        <time>2021-08-07T07:37:00Z</time>
      </trkpt>
      <trkpt lat="50.83418" lon="2.4428">
        <ele>42.44</ele>
        <time>2021-08-07T07:37:01Z</time>
      </trkpt>
      <trkpt lat="50.83398" lon="2.44256">
        <ele>41.95</ele>
        <time>2021-08-07T07:37:08Z</time>
      </trkpt>
      <trkpt lat="50.8338" lon="2.4424">
        <ele>42.44</ele>
        <time>2021-08-07T07:37:15Z</time>
      </trkpt>
      <trkpt lat="50.83362" lon="2.44231">
        <ele>42.44</ele>
        <time>2021-08-07T07:37:20Z</time>
      </trkpt>
      <trkpt lat="50.83317" lon="2.44209">
        <ele>43.4</ele>
        <time>2021-08-07T07:37:33Z</time>
      </trkpt>
      <trkpt lat="50.83284" lon="2.44193">
        <ele>44.84</ele>
        <time>2021-08-07T07:37:42Z</time>
      </trkpt>
      <trkpt lat="50.83265" lon="2.44185">
        <ele>44.84</ele>
        <time>2021-08-07T07:37:47Z</time>
      </trkpt>
      <trkpt lat="50.83261" lon="2.44183">
        <ele>44.84</ele>
        <time>2021-08-07T07:37:48Z</time>
      </trkpt>
      <trkpt lat="50.83221" lon="2.44165">
        <ele>45.32</ele>
        <time>2021-08-07T07:37:58Z</time>
      </trkpt>
      <trkpt lat="50.83188" lon="2.4415">
        <ele>44.36</ele>
        <time>2021-08-07T07:38:06Z</time>
      </trkpt>
      <trkpt lat="50.83146" lon="2.44128">
        <ele>44.36</ele>
        <time>2021-08-07T07:38:16Z</time>
      </trkpt>
      <trkpt lat="50.83096" lon="2.44104">
        <ele>45.32</ele>
        <time>2021-08-07T07:38:28Z</time>
      </trkpt>
      <trkpt lat="50.83092" lon="2.44101">
        <ele>45.32</ele>
        <time>2021-08-07T07:38:29Z</time>
      </trkpt>
      <trkpt lat="50.83063" lon="2.44084">
        <ele>46.28</ele>
        <time>2021-08-07T07:38:36Z</time>
      </trkpt>
      <trkpt lat="50.83026" lon="2.44075">
        <ele>46.76</ele>
        <time>2021-08-07T07:38:45Z</time>
      </trkpt>
      <trkpt lat="50.82996" lon="2.44072">
        <ele>47.24</ele>
        <time>2021-08-07T07:38:53Z</time>
      </trkpt>
      <trkpt lat="50.82975" lon="2.4407">
        <ele>48.2</ele>
        <time>2021-08-07T07:38:59Z</time>
      </trkpt>
      <trkpt lat="50.82942" lon="2.44071">
        <ele>49.16</ele>
        <time>2021-08-07T07:39:09Z</time>
      </trkpt>
      <trkpt lat="50.8292" lon="2.44072">
        <ele>50.13</ele>
        <time>2021-08-07T07:39:16Z</time>
      </trkpt>
      <trkpt lat="50.82891" lon="2.44071">
        <ele>51.09</ele>
        <time>2021-08-07T07:39:25Z</time>
      </trkpt>
      <trkpt lat="50.82855" lon="2.44068">
        <ele>52.05</ele>
        <time>2021-08-07T07:39:35Z</time>
      </trkpt>
      <trkpt lat="50.82814" lon="2.44059">
        <ele>51.57</ele>
        <time>2021-08-07T07:39:46Z</time>
      </trkpt>
      <trkpt lat="50.82783" lon="2.44052">
        <ele>51.57</ele>
        <time>2021-08-07T07:39:54Z</time>
      </trkpt>
      <trkpt lat="50.82739" lon="2.44035">
        <ele>52.05</ele>
        <time>2021-08-07T07:40:05Z</time>
      </trkpt>
      <trkpt lat="50.82704" lon="2.44016">
        <ele>52.05</ele>
        <time>2021-08-07T07:40:14Z</time>
      </trkpt>
      <trkpt lat="50.82656" lon="2.43991">
        <ele>52.05</ele>
        <time>2021-08-07T07:40:26Z</time>
      </trkpt>
      <trkpt lat="50.82653" lon="2.43989">
        <ele>52.05</ele>
        <time>2021-08-07T07:40:27Z</time>
      </trkpt>
      <trkpt lat="50.82649" lon="2.43987">
        <ele>52.05</ele>
        <time>2021-08-07T07:40:28Z</time>
      </trkpt>
      <trkpt lat="50.82645" lon="2.43986">
        <ele>52.53</ele>
        <time>2021-08-07T07:40:29Z</time>
      </trkpt>
      <trkpt lat="50.82641" lon="2.43984">
        <ele>52.53</ele>
        <time>2021-08-07T07:40:30Z</time>
      </trkpt>
      <trkpt lat="50.82637" lon="2.43982">
        <ele>52.53</ele>
        <time>2021-08-07T07:40:31Z</time>
      </trkpt>
      <trkpt lat="50.82602" lon="2.43964">
        <ele>53.01</ele>
        <time>2021-08-07T07:40:40Z</time>
      </trkpt>
      <trkpt lat="50.82582" lon="2.43956">
        <ele>53.01</ele>
        <time>2021-08-07T07:40:45Z</time>
      </trkpt>
      <trkpt lat="50.82578" lon="2.43955">
        <ele>53.01</ele>
        <time>2021-08-07T07:40:46Z</time>
      </trkpt>
      <trkpt lat="50.82557" lon="2.43949">
        <ele>53.49</ele>
        <time>2021-08-07T07:40:51Z</time>
      </trkpt>
      <trkpt lat="50.82553" lon="2.43948">
        <ele>53.49</ele>
        <time>2021-08-07T07:40:52Z</time>
      </trkpt>
      <trkpt lat="50.82541" lon="2.43944">
        <ele>53.49</ele>
        <time>2021-08-07T07:40:55Z</time>
      </trkpt>
      <trkpt lat="50.82532" lon="2.43943">
        <ele>53.49</ele>
        <time>2021-08-07T07:40:57Z</time>
      </trkpt>
      <trkpt lat="50.82498" lon="2.43931">
        <ele>52.05</ele>
        <time>2021-08-07T07:41:05Z</time>
      </trkpt>
      <trkpt lat="50.8248" lon="2.43925">
        <ele>51.09</ele>
        <time>2021-08-07T07:41:09Z</time>
      </trkpt>
      <trkpt lat="50.82475" lon="2.43924">
        <ele>51.09</ele>
        <time>2021-08-07T07:41:10Z</time>
      </trkpt>
      <trkpt lat="50.82466" lon="2.43922">
        <ele>50.61</ele>
        <time>2021-08-07T07:41:12Z</time>
      </trkpt>
      <trkpt lat="50.82461" lon="2.43921">
        <ele>50.61</ele>
        <time>2021-08-07T07:41:13Z</time>
      </trkpt>
      <trkpt lat="50.82456" lon="2.43921">
        <ele>50.61</ele>
        <time>2021-08-07T07:41:14Z</time>
      </trkpt>
      <trkpt lat="50.82429" lon="2.43914">
        <ele>50.13</ele>
        <time>2021-08-07T07:41:20Z</time>
      </trkpt>
      <trkpt lat="50.82424" lon="2.43914">
        <ele>50.61</ele>
        <time>2021-08-07T07:41:21Z</time>
      </trkpt>
      <trkpt lat="50.8239" lon="2.43912">
        <ele>49.16</ele>
        <time>2021-08-07T07:41:28Z</time>
      </trkpt>
      <trkpt lat="50.82375" lon="2.4391">
        <ele>50.61</ele>
        <time>2021-08-07T07:41:31Z</time>
      </trkpt>
      <trkpt lat="50.82337" lon="2.43896">
        <ele>50.61</ele>
        <time>2021-08-07T07:41:39Z</time>
      </trkpt>
      <trkpt lat="50.82301" lon="2.43865">
        <ele>50.61</ele>
        <time>2021-08-07T07:41:48Z</time>
      </trkpt>
      <trkpt lat="50.82284" lon="2.43851">
        <ele>50.61</ele>
        <time>2021-08-07T07:41:52Z</time>
      </trkpt>
      <trkpt lat="50.8228" lon="2.43848">
        <ele>50.61</ele>
        <time>2021-08-07T07:41:53Z</time>
      </trkpt>
      <trkpt lat="50.82276" lon="2.43846">
        <ele>50.61</ele>
        <time>2021-08-07T07:41:54Z</time>
      </trkpt>
      <trkpt lat="50.82245" lon="2.43835">
        <ele>51.57</ele>
        <time>2021-08-07T07:42:02Z</time>
      </trkpt>
      <trkpt lat="50.82198" lon="2.43811">
        <ele>52.05</ele>
        <time>2021-08-07T07:42:13Z</time>
      </trkpt>
      <trkpt lat="50.82154" lon="2.43789">
        <ele>52.05</ele>
        <time>2021-08-07T07:42:23Z</time>
      </trkpt>
      <trkpt lat="50.82109" lon="2.43774">
        <ele>53.01</ele>
        <time>2021-08-07T07:42:33Z</time>
      </trkpt>
      <trkpt lat="50.82061" lon="2.43772">
        <ele>54.45</ele>
        <time>2021-08-07T07:42:44Z</time>
      </trkpt>
      <trkpt lat="50.82045" lon="2.43774">
        <ele>54.93</ele>
        <time>2021-08-07T07:42:48Z</time>
      </trkpt>
      <trkpt lat="50.82041" lon="2.43775">
        <ele>54.93</ele>
        <time>2021-08-07T07:42:49Z</time>
      </trkpt>
      <trkpt lat="50.82037" lon="2.43775">
        <ele>55.41</ele>
        <time>2021-08-07T07:42:50Z</time>
      </trkpt>
      <trkpt lat="50.82033" lon="2.43775">
        <ele>55.41</ele>
        <time>2021-08-07T07:42:51Z</time>
      </trkpt>
      <trkpt lat="50.82029" lon="2.43775">
        <ele>55.41</ele>
        <time>2021-08-07T07:42:52Z</time>
      </trkpt>
      <trkpt lat="50.82025" lon="2.43776">
        <ele>55.41</ele>
        <time>2021-08-07T07:42:53Z</time>
      </trkpt>
      <trkpt lat="50.82021" lon="2.43777">
        <ele>55.41</ele>
        <time>2021-08-07T07:42:54Z</time>
      </trkpt>
      <trkpt lat="50.8199" lon="2.43782">
        <ele>56.37</ele>
        <time>2021-08-07T07:43:02Z</time>
      </trkpt>
      <trkpt lat="50.81949" lon="2.43784">
        <ele>57.82</ele>
        <time>2021-08-07T07:43:12Z</time>
      </trkpt>
      <trkpt lat="50.81911" lon="2.43781">
        <ele>59.74</ele>
        <time>2021-08-07T07:43:22Z</time>
      </trkpt>
      <trkpt lat="50.81865" lon="2.43778">
        <ele>60.22</ele>
        <time>2021-08-07T07:43:34Z</time>
      </trkpt>
      <trkpt lat="50.81846" lon="2.43784">
        <ele>60.22</ele>
        <time>2021-08-07T07:43:39Z</time>
      </trkpt>
      <trkpt lat="50.81834" lon="2.43786">
        <ele>61.66</ele>
        <time>2021-08-07T07:43:42Z</time>
      </trkpt>
      <trkpt lat="50.81801" lon="2.43786">
        <ele>62.14</ele>
        <time>2021-08-07T07:43:50Z</time>
      </trkpt>
      <trkpt lat="50.81784" lon="2.43785">
        <ele>62.62</ele>
        <time>2021-08-07T07:43:54Z</time>
      </trkpt>
      <trkpt lat="50.81776" lon="2.43787">
        <ele>62.62</ele>
        <time>2021-08-07T07:43:56Z</time>
      </trkpt>
      <trkpt lat="50.81772" lon="2.43786">
        <ele>62.62</ele>
        <time>2021-08-07T07:43:57Z</time>
      </trkpt>
      <trkpt lat="50.81729" lon="2.43774">
        <ele>63.58</ele>
        <time>2021-08-07T07:44:07Z</time>
      </trkpt>
      <trkpt lat="50.81688" lon="2.43761">
        <ele>64.07</ele>
        <time>2021-08-07T07:44:15Z</time>
      </trkpt>
      <trkpt lat="50.81635" lon="2.43743">
        <ele>63.58</ele>
        <time>2021-08-07T07:44:25Z</time>
      </trkpt>
      <trkpt lat="50.81588" lon="2.43738">
        <ele>62.62</ele>
        <time>2021-08-07T07:44:34Z</time>
      </trkpt>
      <trkpt lat="50.81544" lon="2.43738">
        <ele>61.18</ele>
        <time>2021-08-07T07:44:42Z</time>
      </trkpt>
      <trkpt lat="50.81493" lon="2.43732">
        <ele>59.26</ele>
        <time>2021-08-07T07:44:50Z</time>
      </trkpt>
      <trkpt lat="50.8144" lon="2.43706">
        <ele>57.82</ele>
        <time>2021-08-07T07:44:59Z</time>
      </trkpt>
      <trkpt lat="50.81383" lon="2.43677">
        <ele>57.34</ele>
        <time>2021-08-07T07:45:09Z</time>
      </trkpt>
      <trkpt lat="50.81332" lon="2.43656">
        <ele>56.86</ele>
        <time>2021-08-07T07:45:18Z</time>
      </trkpt>
      <trkpt lat="50.81275" lon="2.43625">
        <ele>55.41</ele>
        <time>2021-08-07T07:45:28Z</time>
      </trkpt>
      <trkpt lat="50.81219" lon="2.43581">
        <ele>54.45</ele>
        <time>2021-08-07T07:45:38Z</time>
      </trkpt>
      <trkpt lat="50.81166" lon="2.43543">
        <ele>52.05</ele>
        <time>2021-08-07T07:45:47Z</time>
      </trkpt>
      <trkpt lat="50.8114" lon="2.43535">
        <ele>51.57</ele>
        <time>2021-08-07T07:45:51Z</time>
      </trkpt>
      <trkpt lat="50.81134" lon="2.43536">
        <ele>51.57</ele>
        <time>2021-08-07T07:45:52Z</time>
      </trkpt>
      <trkpt lat="50.81126" lon="2.43538">
        <ele>50.61</ele>
        <time>2021-08-07T07:45:53Z</time>
      </trkpt>
      <trkpt lat="50.8112" lon="2.4354">
        <ele>50.61</ele>
        <time>2021-08-07T07:45:54Z</time>
      </trkpt>
      <trkpt lat="50.81114" lon="2.43544">
        <ele>49.65</ele>
        <time>2021-08-07T07:45:55Z</time>
      </trkpt>
      <trkpt lat="50.81107" lon="2.43549">
        <ele>49.16</ele>
        <time>2021-08-07T07:45:56Z</time>
      </trkpt>
      <trkpt lat="50.81101" lon="2.43554">
        <ele>49.16</ele>
        <time>2021-08-07T07:45:57Z</time>
      </trkpt>
      <trkpt lat="50.81094" lon="2.43559">
        <ele>48.68</ele>
        <time>2021-08-07T07:45:58Z</time>
      </trkpt>
      <trkpt lat="50.81074" lon="2.43572">
        <ele>47.72</ele>
        <time>2021-08-07T07:46:01Z</time>
      </trkpt>
      <trkpt lat="50.81068" lon="2.43575">
        <ele>47.72</ele>
        <time>2021-08-07T07:46:02Z</time>
      </trkpt>
      <trkpt lat="50.81054" lon="2.43579">
        <ele>47.24</ele>
        <time>2021-08-07T07:46:04Z</time>
      </trkpt>
      <trkpt lat="50.81047" lon="2.43579">
        <ele>47.24</ele>
        <time>2021-08-07T07:46:05Z</time>
      </trkpt>
      <trkpt lat="50.80985" lon="2.4357">
        <ele>45.8</ele>
        <time>2021-08-07T07:46:14Z</time>
      </trkpt>
      <trkpt lat="50.80919" lon="2.43547">
        <ele>43.4</ele>
        <time>2021-08-07T07:46:24Z</time>
      </trkpt>
      <trkpt lat="50.80878" lon="2.43546">
        <ele>41.95</ele>
        <time>2021-08-07T07:46:30Z</time>
      </trkpt>
      <trkpt lat="50.80872" lon="2.43549">
        <ele>41.95</ele>
        <time>2021-08-07T07:46:31Z</time>
      </trkpt>
      <trkpt lat="50.80813" lon="2.43577">
        <ele>40.03</ele>
        <time>2021-08-07T07:46:40Z</time>
      </trkpt>
      <trkpt lat="50.80764" lon="2.43597">
        <ele>39.07</ele>
        <time>2021-08-07T07:46:48Z</time>
      </trkpt>
      <trkpt lat="50.80721" lon="2.43616">
        <ele>38.59</ele>
        <time>2021-08-07T07:46:56Z</time>
      </trkpt>
      <trkpt lat="50.80715" lon="2.43622">
        <ele>38.59</ele>
        <time>2021-08-07T07:46:59Z</time>
      </trkpt>
      <trkpt lat="50.80714" lon="2.43627">
        <ele>38.59</ele>
        <time>2021-08-07T07:47:00Z</time>
      </trkpt>
      <trkpt lat="50.80713" lon="2.43633">
        <ele>38.59</ele>
        <time>2021-08-07T07:47:01Z</time>
      </trkpt>
      <trkpt lat="50.80707" lon="2.43683">
        <ele>38.59</ele>
        <time>2021-08-07T07:47:07Z</time>
      </trkpt>
      <trkpt lat="50.80696" lon="2.43782">
        <ele>37.15</ele>
        <time>2021-08-07T07:47:17Z</time>
      </trkpt>
      <trkpt lat="50.80683" lon="2.43878">
        <ele>37.15</ele>
        <time>2021-08-07T07:47:27Z</time>
      </trkpt>
      <trkpt lat="50.80669" lon="2.43953">
        <ele>38.11</ele>
        <time>2021-08-07T07:47:36Z</time>
      </trkpt>
      <trkpt lat="50.80667" lon="2.43966">
        <ele>38.11</ele>
        <time>2021-08-07T07:47:38Z</time>
      </trkpt>
      <trkpt lat="50.80666" lon="2.43972">
        <ele>38.11</ele>
        <time>2021-08-07T07:47:39Z</time>
      </trkpt>
      <trkpt lat="50.80665" lon="2.43977">
        <ele>38.11</ele>
        <time>2021-08-07T07:47:40Z</time>
      </trkpt>
      <trkpt lat="50.80663" lon="2.43982">
        <ele>38.11</ele>
        <time>2021-08-07T07:47:41Z</time>
      </trkpt>
      <trkpt lat="50.80662" lon="2.43984">
        <ele>38.11</ele>
        <time>2021-08-07T07:47:42Z</time>
      </trkpt>
      <trkpt lat="50.8066" lon="2.43986">
        <ele>38.11</ele>
        <time>2021-08-07T07:47:43Z</time>
      </trkpt>
      <trkpt lat="50.80657" lon="2.43988">
        <ele>38.11</ele>
        <time>2021-08-07T07:47:44Z</time>
      </trkpt>
      <trkpt lat="50.80655" lon="2.43988">
        <ele>38.11</ele>
        <time>2021-08-07T07:47:45Z</time>
      </trkpt>
      <trkpt lat="50.80652" lon="2.43987">
        <ele>38.11</ele>
        <time>2021-08-07T07:47:46Z</time>
      </trkpt>
      <trkpt lat="50.80648" lon="2.43985">
        <ele>38.11</ele>
        <time>2021-08-07T07:47:47Z</time>
      </trkpt>
      <trkpt lat="50.8062" lon="2.4397">
        <ele>36.67</ele>
        <time>2021-08-07T07:47:53Z</time>
      </trkpt>
      <trkpt lat="50.80576" lon="2.43944">
        <ele>35.23</ele>
        <time>2021-08-07T07:48:01Z</time>
      </trkpt>
      <trkpt lat="50.8053" lon="2.43907">
        <ele>33.78</ele>
        <time>2021-08-07T07:48:10Z</time>
      </trkpt>
      <trkpt lat="50.80479" lon="2.43853">
        <ele>33.78</ele>
        <time>2021-08-07T07:48:21Z</time>
      </trkpt>
      <trkpt lat="50.8047" lon="2.43843">
        <ele>35.23</ele>
        <time>2021-08-07T07:48:23Z</time>
      </trkpt>
      <trkpt lat="50.80425" lon="2.43797">
        <ele>34.74</ele>
        <time>2021-08-07T07:48:33Z</time>
      </trkpt>
      <trkpt lat="50.80395" lon="2.43767">
        <ele>35.23</ele>
        <time>2021-08-07T07:48:40Z</time>
      </trkpt>
      <trkpt lat="50.80391" lon="2.43763">
        <ele>35.23</ele>
        <time>2021-08-07T07:48:41Z</time>
      </trkpt>
      <trkpt lat="50.80354" lon="2.43725">
        <ele>36.19</ele>
        <time>2021-08-07T07:48:50Z</time>
      </trkpt>
      <trkpt lat="50.80318" lon="2.43687">
        <ele>36.67</ele>
        <time>2021-08-07T07:48:59Z</time>
      </trkpt>
      <trkpt lat="50.80283" lon="2.43649">
        <ele>36.67</ele>
        <time>2021-08-07T07:49:08Z</time>
      </trkpt>
      <trkpt lat="50.80237" lon="2.43601">
        <ele>36.67</ele>
        <time>2021-08-07T07:49:19Z</time>
      </trkpt>
      <trkpt lat="50.80192" lon="2.43564">
        <ele>36.67</ele>
        <time>2021-08-07T07:49:29Z</time>
      </trkpt>
      <trkpt lat="50.80138" lon="2.43526">
        <ele>37.15</ele>
        <time>2021-08-07T07:49:40Z</time>
      </trkpt>
      <trkpt lat="50.80071" lon="2.43482">
        <ele>36.19</ele>
        <time>2021-08-07T07:49:53Z</time>
      </trkpt>
      <trkpt lat="50.80016" lon="2.43458">
        <ele>36.19</ele>
        <time>2021-08-07T07:50:03Z</time>
      </trkpt>
      <trkpt lat="50.79966" lon="2.43453">
        <ele>35.23</ele>
        <time>2021-08-07T07:50:11Z</time>
      </trkpt>
      <trkpt lat="50.79915" lon="2.43468">
        <ele>34.26</ele>
        <time>2021-08-07T07:50:18Z</time>
      </trkpt>
      <trkpt lat="50.79846" lon="2.43506">
        <ele>30.9</ele>
        <time>2021-08-07T07:50:27Z</time>
      </trkpt>
      <trkpt lat="50.79779" lon="2.43529">
        <ele>29.46</ele>
        <time>2021-08-07T07:50:35Z</time>
      </trkpt>
      <trkpt lat="50.79725" lon="2.43523">
        <ele>29.46</ele>
        <time>2021-08-07T07:50:42Z</time>
      </trkpt>
      <trkpt lat="50.79669" lon="2.43494">
        <ele>29.46</ele>
        <time>2021-08-07T07:50:50Z</time>
      </trkpt>
      <trkpt lat="50.79617" lon="2.43454">
        <ele>29.46</ele>
        <time>2021-08-07T07:50:58Z</time>
      </trkpt>
      <trkpt lat="50.79594" lon="2.43433">
        <ele>28.5</ele>
        <time>2021-08-07T07:51:02Z</time>
      </trkpt>
      <trkpt lat="50.79589" lon="2.4343">
        <ele>28.5</ele>
        <time>2021-08-07T07:51:03Z</time>
      </trkpt>
      <trkpt lat="50.79585" lon="2.4343">
        <ele>28.5</ele>
        <time>2021-08-07T07:51:04Z</time>
      </trkpt>
      <trkpt lat="50.79581" lon="2.43432">
        <ele>28.5</ele>
        <time>2021-08-07T07:51:05Z</time>
      </trkpt>
      <trkpt lat="50.79577" lon="2.43436">
        <ele>28.5</ele>
        <time>2021-08-07T07:51:06Z</time>
      </trkpt>
      <trkpt lat="50.79575" lon="2.43442">
        <ele>29.94</ele>
        <time>2021-08-07T07:51:07Z</time>
      </trkpt>
      <trkpt lat="50.79573" lon="2.43448">
        <ele>30.42</ele>
        <time>2021-08-07T07:51:08Z</time>
      </trkpt>
      <trkpt lat="50.79571" lon="2.43455">
        <ele>30.42</ele>
        <time>2021-08-07T07:51:09Z</time>
      </trkpt>
      <trkpt lat="50.7957" lon="2.43463">
        <ele>30.42</ele>
        <time>2021-08-07T07:51:10Z</time>
      </trkpt>
      <trkpt lat="50.79555" lon="2.43531">
        <ele>30.9</ele>
        <time>2021-08-07T07:51:19Z</time>
      </trkpt>
      <trkpt lat="50.7955" lon="2.43553">
        <ele>30.9</ele>
        <time>2021-08-07T07:51:22Z</time>
      </trkpt>
      <trkpt lat="50.79522" lon="2.43639">
        <ele>32.34</ele>
        <time>2021-08-07T07:51:34Z</time>
      </trkpt>
      <trkpt lat="50.79494" lon="2.43725">
        <ele>33.78</ele>
        <time>2021-08-07T07:51:46Z</time>
      </trkpt>
      <trkpt lat="50.79467" lon="2.43811">
        <ele>33.3</ele>
        <time>2021-08-07T07:51:57Z</time>
      </trkpt>
      <trkpt lat="50.79438" lon="2.43902">
        <ele>34.26</ele>
        <time>2021-08-07T07:52:09Z</time>
      </trkpt>
      <trkpt lat="50.79414" lon="2.43978">
        <ele>34.74</ele>
        <time>2021-08-07T07:52:19Z</time>
      </trkpt>
      <trkpt lat="50.79386" lon="2.44063">
        <ele>36.19</ele>
        <time>2021-08-07T07:52:30Z</time>
      </trkpt>
      <trkpt lat="50.79363" lon="2.44103">
        <ele>37.15</ele>
        <time>2021-08-07T07:52:36Z</time>
      </trkpt>
      <trkpt lat="50.79323" lon="2.44152">
        <ele>37.63</ele>
        <time>2021-08-07T07:52:45Z</time>
      </trkpt>
      <trkpt lat="50.79294" lon="2.44204">
        <ele>37.63</ele>
        <time>2021-08-07T07:52:53Z</time>
      </trkpt>
      <trkpt lat="50.79276" lon="2.44267">
        <ele>38.59</ele>
        <time>2021-08-07T07:53:01Z</time>
      </trkpt>
      <trkpt lat="50.79267" lon="2.44347">
        <ele>39.55</ele>
        <time>2021-08-07T07:53:11Z</time>
      </trkpt>
      <trkpt lat="50.79261" lon="2.44407">
        <ele>41.95</ele>
        <time>2021-08-07T07:53:19Z</time>
      </trkpt>
      <trkpt lat="50.79247" lon="2.44466">
        <ele>42.92</ele>
        <time>2021-08-07T07:53:28Z</time>
      </trkpt>
      <trkpt lat="50.79241" lon="2.44494">
        <ele>44.84</ele>
        <time>2021-08-07T07:53:33Z</time>
      </trkpt>
      <trkpt lat="50.79243" lon="2.44498">
        <ele>44.84</ele>
        <time>2021-08-07T07:53:34Z</time>
      </trkpt>
      <trkpt lat="50.79247" lon="2.44501">
        <ele>44.84</ele>
        <time>2021-08-07T07:53:35Z</time>
      </trkpt>
      <trkpt lat="50.7925" lon="2.44504">
        <ele>44.84</ele>
        <time>2021-08-07T07:53:36Z</time>
      </trkpt>
      <trkpt lat="50.79254" lon="2.44507">
        <ele>44.84</ele>
        <time>2021-08-07T07:53:37Z</time>
      </trkpt>
      <trkpt lat="50.79257" lon="2.4451">
        <ele>44.84</ele>
        <time>2021-08-07T07:53:38Z</time>
      </trkpt>
      <trkpt lat="50.79261" lon="2.44514">
        <ele>44.84</ele>
        <time>2021-08-07T07:53:39Z</time>
      </trkpt>
      <trkpt lat="50.79264" lon="2.4452">
        <ele>44.84</ele>
        <time>2021-08-07T07:53:40Z</time>
      </trkpt>
      <trkpt lat="50.79266" lon="2.44527">
        <ele>44.84</ele>
        <time>2021-08-07T07:53:41Z</time>
      </trkpt>
      <trkpt lat="50.79265" lon="2.44536">
        <ele>44.84</ele>
        <time>2021-08-07T07:53:42Z</time>
      </trkpt>
      <trkpt lat="50.79264" lon="2.44543">
        <ele>43.4</ele>
        <time>2021-08-07T07:53:43Z</time>
      </trkpt>
      <trkpt lat="50.79261" lon="2.44551">
        <ele>43.4</ele>
        <time>2021-08-07T07:53:44Z</time>
      </trkpt>
      <trkpt lat="50.79259" lon="2.4456">
        <ele>43.4</ele>
        <time>2021-08-07T07:53:45Z</time>
      </trkpt>
      <trkpt lat="50.79257" lon="2.44568">
        <ele>43.4</ele>
        <time>2021-08-07T07:53:46Z</time>
      </trkpt>
      <trkpt lat="50.79237" lon="2.44628">
        <ele>42.92</ele>
        <time>2021-08-07T07:53:53Z</time>
      </trkpt>
      <trkpt lat="50.79213" lon="2.44696">
        <ele>43.4</ele>
        <time>2021-08-07T07:54:01Z</time>
      </trkpt>
      <trkpt lat="50.79203" lon="2.4472">
        <ele>43.4</ele>
        <time>2021-08-07T07:54:04Z</time>
      </trkpt>
      <trkpt lat="50.792" lon="2.44728">
        <ele>43.4</ele>
        <time>2021-08-07T07:54:05Z</time>
      </trkpt>
      <trkpt lat="50.79173" lon="2.44806">
        <ele>41.95</ele>
        <time>2021-08-07T07:54:14Z</time>
      </trkpt>
      <trkpt lat="50.79144" lon="2.44887">
        <ele>42.92</ele>
        <time>2021-08-07T07:54:23Z</time>
      </trkpt>
      <trkpt lat="50.7911" lon="2.44979">
        <ele>41.95</ele>
        <time>2021-08-07T07:54:33Z</time>
      </trkpt>
      <trkpt lat="50.79082" lon="2.45055">
        <ele>40.03</ele>
        <time>2021-08-07T07:54:41Z</time>
      </trkpt>
      <trkpt lat="50.79049" lon="2.45152">
        <ele>39.55</ele>
        <time>2021-08-07T07:54:51Z</time>
      </trkpt>
      <trkpt lat="50.79017" lon="2.45255">
        <ele>38.59</ele>
        <time>2021-08-07T07:55:01Z</time>
      </trkpt>
      <trkpt lat="50.78989" lon="2.45355">
        <ele>36.67</ele>
        <time>2021-08-07T07:55:10Z</time>
      </trkpt>
      <trkpt lat="50.78968" lon="2.45429">
        <ele>36.19</ele>
        <time>2021-08-07T07:55:17Z</time>
      </trkpt>
      <trkpt lat="50.78936" lon="2.45518">
        <ele>37.63</ele>
        <time>2021-08-07T07:55:27Z</time>
      </trkpt>
      <trkpt lat="50.78916" lon="2.45577">
        <ele>39.07</ele>
        <time>2021-08-07T07:55:35Z</time>
      </trkpt>
      <trkpt lat="50.78905" lon="2.456">
        <ele>40.03</ele>
        <time>2021-08-07T07:55:40Z</time>
      </trkpt>
      <trkpt lat="50.78902" lon="2.456">
        <ele>40.51</ele>
        <time>2021-08-07T07:55:41Z</time>
      </trkpt>
      <trkpt lat="50.78899" lon="2.45598">
        <ele>40.51</ele>
        <time>2021-08-07T07:55:42Z</time>
      </trkpt>
      <trkpt lat="50.78896" lon="2.45596">
        <ele>40.51</ele>
        <time>2021-08-07T07:55:43Z</time>
      </trkpt>
      <trkpt lat="50.78893" lon="2.45594">
        <ele>40.51</ele>
        <time>2021-08-07T07:55:44Z</time>
      </trkpt>
      <trkpt lat="50.78868" lon="2.45578">
        <ele>40.51</ele>
        <time>2021-08-07T07:55:51Z</time>
      </trkpt>
      <trkpt lat="50.78863" lon="2.45577">
        <ele>39.07</ele>
        <time>2021-08-07T07:55:52Z</time>
      </trkpt>
      <trkpt lat="50.78859" lon="2.45581">
        <ele>39.07</ele>
        <time>2021-08-07T07:55:53Z</time>
      </trkpt>
      <trkpt lat="50.78856" lon="2.45586">
        <ele>39.07</ele>
        <time>2021-08-07T07:55:54Z</time>
      </trkpt>
      <trkpt lat="50.78837" lon="2.45642">
        <ele>38.59</ele>
        <time>2021-08-07T07:56:03Z</time>
      </trkpt>
      <trkpt lat="50.78824" lon="2.45684">
        <ele>40.03</ele>
        <time>2021-08-07T07:56:10Z</time>
      </trkpt>
      <trkpt lat="50.78814" lon="2.45715">
        <ele>40.51</ele>
        <time>2021-08-07T07:56:15Z</time>
      </trkpt>
      <trkpt lat="50.78794" lon="2.45778">
        <ele>40.99</ele>
        <time>2021-08-07T07:56:24Z</time>
      </trkpt>
      <trkpt lat="50.78781" lon="2.45821">
        <ele>40.51</ele>
        <time>2021-08-07T07:56:30Z</time>
      </trkpt>
      <trkpt lat="50.78779" lon="2.45828">
        <ele>40.51</ele>
        <time>2021-08-07T07:56:31Z</time>
      </trkpt>
      <trkpt lat="50.78756" lon="2.45893">
        <ele>40.51</ele>
        <time>2021-08-07T07:56:40Z</time>
      </trkpt>
      <trkpt lat="50.78728" lon="2.45972">
        <ele>40.51</ele>
        <time>2021-08-07T07:56:51Z</time>
      </trkpt>
      <trkpt lat="50.78716" lon="2.46004">
        <ele>40.99</ele>
        <time>2021-08-07T07:56:56Z</time>
      </trkpt>
      <trkpt lat="50.78713" lon="2.4601">
        <ele>40.99</ele>
        <time>2021-08-07T07:56:57Z</time>
      </trkpt>
      <trkpt lat="50.78711" lon="2.46015">
        <ele>40.99</ele>
        <time>2021-08-07T07:56:58Z</time>
      </trkpt>
      <trkpt lat="50.78708" lon="2.4602">
        <ele>40.99</ele>
        <time>2021-08-07T07:56:59Z</time>
      </trkpt>
      <trkpt lat="50.78706" lon="2.46024">
        <ele>40.99</ele>
        <time>2021-08-07T07:57:00Z</time>
      </trkpt>
      <trkpt lat="50.78705" lon="2.46029">
        <ele>40.99</ele>
        <time>2021-08-07T07:57:01Z</time>
      </trkpt>
      <trkpt lat="50.78705" lon="2.46035">
        <ele>40.99</ele>
        <time>2021-08-07T07:57:02Z</time>
      </trkpt>
      <trkpt lat="50.78707" lon="2.4604">
        <ele>40.99</ele>
        <time>2021-08-07T07:57:03Z</time>
      </trkpt>
      <trkpt lat="50.78709" lon="2.46043">
        <ele>40.99</ele>
        <time>2021-08-07T07:57:04Z</time>
      </trkpt>
      <trkpt lat="50.78712" lon="2.46047">
        <ele>40.99</ele>
        <time>2021-08-07T07:57:05Z</time>
      </trkpt>
      <trkpt lat="50.78721" lon="2.46061">
        <ele>40.99</ele>
        <time>2021-08-07T07:57:08Z</time>
      </trkpt>
      <trkpt lat="50.78724" lon="2.46066">
        <ele>40.99</ele>
        <time>2021-08-07T07:57:09Z</time>
      </trkpt>
      <trkpt lat="50.7873" lon="2.46075">
        <ele>40.99</ele>
        <time>2021-08-07T07:57:11Z</time>
      </trkpt>
      <trkpt lat="50.78756" lon="2.46119">
        <ele>41.95</ele>
        <time>2021-08-07T07:57:19Z</time>
      </trkpt>
      <trkpt lat="50.78792" lon="2.46174">
        <ele>43.4</ele>
        <time>2021-08-07T07:57:29Z</time>
      </trkpt>
      <trkpt lat="50.78828" lon="2.4623">
        <ele>43.88</ele>
        <time>2021-08-07T07:57:39Z</time>
      </trkpt>
      <trkpt lat="50.78841" lon="2.46244">
        <ele>44.36</ele>
        <time>2021-08-07T07:57:42Z</time>
      </trkpt>
      <trkpt lat="50.78883" lon="2.46275">
        <ele>44.36</ele>
        <time>2021-08-07T07:57:51Z</time>
      </trkpt>
      <trkpt lat="50.78893" lon="2.4628">
        <ele>44.36</ele>
        <time>2021-08-07T07:57:53Z</time>
      </trkpt>
      <trkpt lat="50.78897" lon="2.46283">
        <ele>44.36</ele>
        <time>2021-08-07T07:57:54Z</time>
      </trkpt>
      <trkpt lat="50.78902" lon="2.46289">
        <ele>44.36</ele>
        <time>2021-08-07T07:57:55Z</time>
      </trkpt>
      <trkpt lat="50.78906" lon="2.46296">
        <ele>44.36</ele>
        <time>2021-08-07T07:57:56Z</time>
      </trkpt>
      <trkpt lat="50.78908" lon="2.46304">
        <ele>44.36</ele>
        <time>2021-08-07T07:57:57Z</time>
      </trkpt>
      <trkpt lat="50.78909" lon="2.46313">
        <ele>44.36</ele>
        <time>2021-08-07T07:57:58Z</time>
      </trkpt>
      <trkpt lat="50.78911" lon="2.46324">
        <ele>43.4</ele>
        <time>2021-08-07T07:57:59Z</time>
      </trkpt>
      <trkpt lat="50.78912" lon="2.46334">
        <ele>43.4</ele>
        <time>2021-08-07T07:58:00Z</time>
      </trkpt>
      <trkpt lat="50.7892" lon="2.46435">
        <ele>40.03</ele>
        <time>2021-08-07T07:58:09Z</time>
      </trkpt>
      <trkpt lat="50.7893" lon="2.46552">
        <ele>39.07</ele>
        <time>2021-08-07T07:58:19Z</time>
      </trkpt>
      <trkpt lat="50.78933" lon="2.46576">
        <ele>39.07</ele>
        <time>2021-08-07T07:58:21Z</time>
      </trkpt>
      <trkpt lat="50.78936" lon="2.46586">
        <ele>39.07</ele>
        <time>2021-08-07T07:58:22Z</time>
      </trkpt>
      <trkpt lat="50.78948" lon="2.46625">
        <ele>40.03</ele>
        <time>2021-08-07T07:58:26Z</time>
      </trkpt>
      <trkpt lat="50.78951" lon="2.46632">
        <ele>40.03</ele>
        <time>2021-08-07T07:58:27Z</time>
      </trkpt>
      <trkpt lat="50.78956" lon="2.46639">
        <ele>40.99</ele>
        <time>2021-08-07T07:58:28Z</time>
      </trkpt>
      <trkpt lat="50.78961" lon="2.46646">
        <ele>41.47</ele>
        <time>2021-08-07T07:58:29Z</time>
      </trkpt>
      <trkpt lat="50.78965" lon="2.46649">
        <ele>41.47</ele>
        <time>2021-08-07T07:58:30Z</time>
      </trkpt>
      <trkpt lat="50.7897" lon="2.46654">
        <ele>41.95</ele>
        <time>2021-08-07T07:58:31Z</time>
      </trkpt>
      <trkpt lat="50.78998" lon="2.46683">
        <ele>43.4</ele>
        <time>2021-08-07T07:58:38Z</time>
      </trkpt>
      <trkpt lat="50.79001" lon="2.46687">
        <ele>43.4</ele>
        <time>2021-08-07T07:58:39Z</time>
      </trkpt>
      <trkpt lat="50.79004" lon="2.4669">
        <ele>43.88</ele>
        <time>2021-08-07T07:58:40Z</time>
      </trkpt>
      <trkpt lat="50.79007" lon="2.46694">
        <ele>43.88</ele>
        <time>2021-08-07T07:58:41Z</time>
      </trkpt>
      <trkpt lat="50.7901" lon="2.46697">
        <ele>44.36</ele>
        <time>2021-08-07T07:58:42Z</time>
      </trkpt>
      <trkpt lat="50.79012" lon="2.46699">
        <ele>44.36</ele>
        <time>2021-08-07T07:58:43Z</time>
      </trkpt>
      <trkpt lat="50.79015" lon="2.46702">
        <ele>44.84</ele>
        <time>2021-08-07T07:58:44Z</time>
      </trkpt>
      <trkpt lat="50.79032" lon="2.46727">
        <ele>45.8</ele>
        <time>2021-08-07T07:58:51Z</time>
      </trkpt>
      <trkpt lat="50.79048" lon="2.46753">
        <ele>47.72</ele>
        <time>2021-08-07T07:58:59Z</time>
      </trkpt>
      <trkpt lat="50.79071" lon="2.46785">
        <ele>50.13</ele>
        <time>2021-08-07T07:59:09Z</time>
      </trkpt>
      <trkpt lat="50.79088" lon="2.46812">
        <ele>51.57</ele>
        <time>2021-08-07T07:59:17Z</time>
      </trkpt>
      <trkpt lat="50.79107" lon="2.46844">
        <ele>53.49</ele>
        <time>2021-08-07T07:59:26Z</time>
      </trkpt>
      <trkpt lat="50.79121" lon="2.46874">
        <ele>55.41</ele>
        <time>2021-08-07T07:59:34Z</time>
      </trkpt>
      <trkpt lat="50.79135" lon="2.46909">
        <ele>57.34</ele>
        <time>2021-08-07T07:59:43Z</time>
      </trkpt>
      <trkpt lat="50.79143" lon="2.46938">
        <ele>59.26</ele>
        <time>2021-08-07T07:59:51Z</time>
      </trkpt>
      <trkpt lat="50.79146" lon="2.46968">
        <ele>60.22</ele>
        <time>2021-08-07T07:59:59Z</time>
      </trkpt>
      <trkpt lat="50.7915" lon="2.47001">
        <ele>62.14</ele>
        <time>2021-08-07T08:00:08Z</time>
      </trkpt>
      <trkpt lat="50.79156" lon="2.47042">
        <ele>64.07</ele>
        <time>2021-08-07T08:00:19Z</time>
      </trkpt>
      <trkpt lat="50.79162" lon="2.47084">
        <ele>65.03</ele>
        <time>2021-08-07T08:00:29Z</time>
      </trkpt>
      <trkpt lat="50.79174" lon="2.47122">
        <ele>66.47</ele>
        <time>2021-08-07T08:00:39Z</time>
      </trkpt>
      <trkpt lat="50.79189" lon="2.47153">
        <ele>68.39</ele>
        <time>2021-08-07T08:00:48Z</time>
      </trkpt>
      <trkpt lat="50.79199" lon="2.47177">
        <ele>69.35</ele>
        <time>2021-08-07T08:00:55Z</time>
      </trkpt>
      <trkpt lat="50.79215" lon="2.47211">
        <ele>71.27</ele>
        <time>2021-08-07T08:01:05Z</time>
      </trkpt>
      <trkpt lat="50.79228" lon="2.47245">
        <ele>72.72</ele>
        <time>2021-08-07T08:01:14Z</time>
      </trkpt>
      <trkpt lat="50.79246" lon="2.47288">
        <ele>73.68</ele>
        <time>2021-08-07T08:01:24Z</time>
      </trkpt>
      <trkpt lat="50.79267" lon="2.47332">
        <ele>73.68</ele>
        <time>2021-08-07T08:01:33Z</time>
      </trkpt>
      <trkpt lat="50.7929" lon="2.4736">
        <ele>75.12</ele>
        <time>2021-08-07T08:01:41Z</time>
      </trkpt>
      <trkpt lat="50.79318" lon="2.47384">
        <ele>76.08</ele>
        <time>2021-08-07T08:01:49Z</time>
      </trkpt>
      <trkpt lat="50.79354" lon="2.47413">
        <ele>77.52</ele>
        <time>2021-08-07T08:01:59Z</time>
      </trkpt>
      <trkpt lat="50.79382" lon="2.47434">
        <ele>78.97</ele>
        <time>2021-08-07T08:02:07Z</time>
      </trkpt>
      <trkpt lat="50.79418" lon="2.47469">
        <ele>80.41</ele>
        <time>2021-08-07T08:02:18Z</time>
      </trkpt>
      <trkpt lat="50.79449" lon="2.47509">
        <ele>80.89</ele>
        <time>2021-08-07T08:02:27Z</time>
      </trkpt>
      <trkpt lat="50.79486" lon="2.47567">
        <ele>80.89</ele>
        <time>2021-08-07T08:02:38Z</time>
      </trkpt>
      <trkpt lat="50.79515" lon="2.47613">
        <ele>80.89</ele>
        <time>2021-08-07T08:02:46Z</time>
      </trkpt>
      <trkpt lat="50.79539" lon="2.47652">
        <ele>80.89</ele>
        <time>2021-08-07T08:02:52Z</time>
      </trkpt>
      <trkpt lat="50.7957" lon="2.4769">
        <ele>82.33</ele>
        <time>2021-08-07T08:03:00Z</time>
      </trkpt>
      <trkpt lat="50.79574" lon="2.47694">
        <ele>82.33</ele>
        <time>2021-08-07T08:03:01Z</time>
      </trkpt>
      <trkpt lat="50.79577" lon="2.47697">
        <ele>82.33</ele>
        <time>2021-08-07T08:03:02Z</time>
      </trkpt>
      <trkpt lat="50.79605" lon="2.47722">
        <ele>83.77</ele>
        <time>2021-08-07T08:03:10Z</time>
      </trkpt>
      <trkpt lat="50.79629" lon="2.47746">
        <ele>85.21</ele>
        <time>2021-08-07T08:03:18Z</time>
      </trkpt>
      <trkpt lat="50.79653" lon="2.47772">
        <ele>87.62</ele>
        <time>2021-08-07T08:03:27Z</time>
      </trkpt>
      <trkpt lat="50.79668" lon="2.47791">
        <ele>89.54</ele>
        <time>2021-08-07T08:03:35Z</time>
      </trkpt>
      <trkpt lat="50.7968" lon="2.47807">
        <ele>91.46</ele>
        <time>2021-08-07T08:03:43Z</time>
      </trkpt>
      <trkpt lat="50.7969" lon="2.47825">
        <ele>93.39</ele>
        <time>2021-08-07T08:03:51Z</time>
      </trkpt>
      <trkpt lat="50.79704" lon="2.47847">
        <ele>96.27</ele>
        <time>2021-08-07T08:04:01Z</time>
      </trkpt>
      <trkpt lat="50.79718" lon="2.47868">
        <ele>98.67</ele>
        <time>2021-08-07T08:04:11Z</time>
      </trkpt>
      <trkpt lat="50.79731" lon="2.47886">
        <ele>100.11</ele>
        <time>2021-08-07T08:04:20Z</time>
      </trkpt>
      <trkpt lat="50.79744" lon="2.47902">
        <ele>102.52</ele>
        <time>2021-08-07T08:04:29Z</time>
      </trkpt>
      <trkpt lat="50.79755" lon="2.47918">
        <ele>104.44</ele>
        <time>2021-08-07T08:04:37Z</time>
      </trkpt>
      <trkpt lat="50.7977" lon="2.47942">
        <ele>106.36</ele>
        <time>2021-08-07T08:04:48Z</time>
      </trkpt>
      <trkpt lat="50.79774" lon="2.47951">
        <ele>106.84</ele>
        <time>2021-08-07T08:04:52Z</time>
      </trkpt>
      <trkpt lat="50.79776" lon="2.47953">
        <ele>107.81</ele>
        <time>2021-08-07T08:04:53Z</time>
      </trkpt>
      <trkpt lat="50.79788" lon="2.47973">
        <ele>109.25</ele>
        <time>2021-08-07T08:05:02Z</time>
      </trkpt>
      <trkpt lat="50.79803" lon="2.47992">
        <ele>111.17</ele>
        <time>2021-08-07T08:05:12Z</time>
      </trkpt>
      <trkpt lat="50.79816" lon="2.48004">
        <ele>113.09</ele>
        <time>2021-08-07T08:05:21Z</time>
      </trkpt>
      <trkpt lat="50.79822" lon="2.48009">
        <ele>114.05</ele>
        <time>2021-08-07T08:05:25Z</time>
      </trkpt>
      <trkpt lat="50.79823" lon="2.48011">
        <ele>114.05</ele>
        <time>2021-08-07T08:05:26Z</time>
      </trkpt>
      <trkpt lat="50.79824" lon="2.48012">
        <ele>114.53</ele>
        <time>2021-08-07T08:05:27Z</time>
      </trkpt>
      <trkpt lat="50.79825" lon="2.48013">
        <ele>114.53</ele>
        <time>2021-08-07T08:05:28Z</time>
      </trkpt>
      <trkpt lat="50.79827" lon="2.48014">
        <ele>115.01</ele>
        <time>2021-08-07T08:05:29Z</time>
      </trkpt>
      <trkpt lat="50.79828" lon="2.48015">
        <ele>115.01</ele>
        <time>2021-08-07T08:05:30Z</time>
      </trkpt>
      <trkpt lat="50.7983" lon="2.48017">
        <ele>115.01</ele>
        <time>2021-08-07T08:05:31Z</time>
      </trkpt>
      <trkpt lat="50.79831" lon="2.48019">
        <ele>115.01</ele>
        <time>2021-08-07T08:05:32Z</time>
      </trkpt>
      <trkpt lat="50.79833" lon="2.4802">
        <ele>115.01</ele>
        <time>2021-08-07T08:05:33Z</time>
      </trkpt>
      <trkpt lat="50.79834" lon="2.48021">
        <ele>115.5</ele>
        <time>2021-08-07T08:05:34Z</time>
      </trkpt>
      <trkpt lat="50.79835" lon="2.48023">
        <ele>115.5</ele>
        <time>2021-08-07T08:05:35Z</time>
      </trkpt>
      <trkpt lat="50.79847" lon="2.48035">
        <ele>116.94</ele>
        <time>2021-08-07T08:05:43Z</time>
      </trkpt>
      <trkpt lat="50.79851" lon="2.48039">
        <ele>117.42</ele>
        <time>2021-08-07T08:05:46Z</time>
      </trkpt>
      <trkpt lat="50.79852" lon="2.4804">
        <ele>117.42</ele>
        <time>2021-08-07T08:05:47Z</time>
      </trkpt>
      <trkpt lat="50.79854" lon="2.48041">
        <ele>117.42</ele>
        <time>2021-08-07T08:05:48Z</time>
      </trkpt>
      <trkpt lat="50.79855" lon="2.48043">
        <ele>117.9</ele>
        <time>2021-08-07T08:05:49Z</time>
      </trkpt>
      <trkpt lat="50.79856" lon="2.48044">
        <ele>117.9</ele>
        <time>2021-08-07T08:05:50Z</time>
      </trkpt>
      <trkpt lat="50.79869" lon="2.48056">
        <ele>119.34</ele>
        <time>2021-08-07T08:05:58Z</time>
      </trkpt>
      <trkpt lat="50.79881" lon="2.48069">
        <ele>121.26</ele>
        <time>2021-08-07T08:06:06Z</time>
      </trkpt>
      <trkpt lat="50.79894" lon="2.48082">
        <ele>123.19</ele>
        <time>2021-08-07T08:06:16Z</time>
      </trkpt>
      <trkpt lat="50.79909" lon="2.48093">
        <ele>125.11</ele>
        <time>2021-08-07T08:06:25Z</time>
      </trkpt>
      <trkpt lat="50.79921" lon="2.48103">
        <ele>127.03</ele>
        <time>2021-08-07T08:06:33Z</time>
      </trkpt>
      <trkpt lat="50.79934" lon="2.48119">
        <ele>129.92</ele>
        <time>2021-08-07T08:06:42Z</time>
      </trkpt>
      <trkpt lat="50.79948" lon="2.48135">
        <ele>130.88</ele>
        <time>2021-08-07T08:06:51Z</time>
      </trkpt>
      <trkpt lat="50.79959" lon="2.48153">
        <ele>133.28</ele>
        <time>2021-08-07T08:06:59Z</time>
      </trkpt>
      <trkpt lat="50.7997" lon="2.48175">
        <ele>134.72</ele>
        <time>2021-08-07T08:07:09Z</time>
      </trkpt>
      <trkpt lat="50.79974" lon="2.48186">
        <ele>135.68</ele>
        <time>2021-08-07T08:07:14Z</time>
      </trkpt>
      <trkpt lat="50.79976" lon="2.48188">
        <ele>136.16</ele>
        <time>2021-08-07T08:07:15Z</time>
      </trkpt>
      <trkpt lat="50.79977" lon="2.4819">
        <ele>136.16</ele>
        <time>2021-08-07T08:07:16Z</time>
      </trkpt>
      <trkpt lat="50.79987" lon="2.48212">
        <ele>138.57</ele>
        <time>2021-08-07T08:07:24Z</time>
      </trkpt>
      <trkpt lat="50.79993" lon="2.4824">
        <ele>140.97</ele>
        <time>2021-08-07T08:07:34Z</time>
      </trkpt>
      <trkpt lat="50.79998" lon="2.48265">
        <ele>142.41</ele>
        <time>2021-08-07T08:07:43Z</time>
      </trkpt>
      <trkpt lat="50.79998" lon="2.48273">
        <ele>142.89</ele>
        <time>2021-08-07T08:07:46Z</time>
      </trkpt>
      <trkpt lat="50.79997" lon="2.48275">
        <ele>142.89</ele>
        <time>2021-08-07T08:07:47Z</time>
      </trkpt>
      <trkpt lat="50.79997" lon="2.48279">
        <ele>142.89</ele>
        <time>2021-08-07T08:07:48Z</time>
      </trkpt>
      <trkpt lat="50.79995" lon="2.48283">
        <ele>142.89</ele>
        <time>2021-08-07T08:07:49Z</time>
      </trkpt>
      <trkpt lat="50.79994" lon="2.48286">
        <ele>142.89</ele>
        <time>2021-08-07T08:07:50Z</time>
      </trkpt>
      <trkpt lat="50.79991" lon="2.48291">
        <ele>141.45</ele>
        <time>2021-08-07T08:07:51Z</time>
      </trkpt>
      <trkpt lat="50.79988" lon="2.48295">
        <ele>141.45</ele>
        <time>2021-08-07T08:07:52Z</time>
      </trkpt>
      <trkpt lat="50.79985" lon="2.483">
        <ele>141.45</ele>
        <time>2021-08-07T08:07:53Z</time>
      </trkpt>
      <trkpt lat="50.79961" lon="2.4835">
        <ele>140.97</ele>
        <time>2021-08-07T08:08:01Z</time>
      </trkpt>
      <trkpt lat="50.79939" lon="2.48408">
        <ele>140.49</ele>
        <time>2021-08-07T08:08:10Z</time>
      </trkpt>
      <trkpt lat="50.79935" lon="2.48418">
        <ele>141.93</ele>
        <time>2021-08-07T08:08:12Z</time>
      </trkpt>
      <trkpt lat="50.79924" lon="2.48457">
        <ele>142.41</ele>
        <time>2021-08-07T08:08:20Z</time>
      </trkpt>
      <trkpt lat="50.79923" lon="2.48461">
        <ele>142.41</ele>
        <time>2021-08-07T08:08:22Z</time>
      </trkpt>
      <trkpt lat="50.79924" lon="2.48463">
        <ele>142.41</ele>
        <time>2021-08-07T08:08:23Z</time>
      </trkpt>
      <trkpt lat="50.79926" lon="2.48464">
        <ele>142.41</ele>
        <time>2021-08-07T08:08:24Z</time>
      </trkpt>
      <trkpt lat="50.79936" lon="2.48469">
        <ele>143.85</ele>
        <time>2021-08-07T08:08:30Z</time>
      </trkpt>
      <trkpt lat="50.7995" lon="2.48475">
        <ele>146.26</ele>
        <time>2021-08-07T08:08:38Z</time>
      </trkpt>
      <trkpt lat="50.79964" lon="2.4848">
        <ele>147.7</ele>
        <time>2021-08-07T08:08:44Z</time>
      </trkpt>
      <trkpt lat="50.79974" lon="2.48483">
        <ele>149.62</ele>
        <time>2021-08-07T08:08:49Z</time>
      </trkpt>
      <trkpt lat="50.79975" lon="2.48482">
        <ele>149.62</ele>
        <time>2021-08-07T08:08:50Z</time>
      </trkpt>
      <trkpt lat="50.79977" lon="2.48482">
        <ele>150.1</ele>
        <time>2021-08-07T08:08:51Z</time>
      </trkpt>
      <trkpt lat="50.79978" lon="2.48482">
        <ele>150.58</ele>
        <time>2021-08-07T08:08:52Z</time>
      </trkpt>
      <trkpt lat="50.7998" lon="2.48482">
        <ele>151.06</ele>
        <time>2021-08-07T08:08:53Z</time>
      </trkpt>
      <trkpt lat="50.79981" lon="2.48482">
        <ele>151.54</ele>
        <time>2021-08-07T08:08:54Z</time>
      </trkpt>
      <trkpt lat="50.79998" lon="2.48498">
        <ele>154.43</ele>
        <time>2021-08-07T08:09:02Z</time>
      </trkpt>
      <trkpt lat="50.80016" lon="2.48517">
        <ele>155.87</ele>
        <time>2021-08-07T08:09:10Z</time>
      </trkpt>
      <trkpt lat="50.80016" lon="2.4852">
        <ele>155.87</ele>
        <time>2021-08-07T08:09:11Z</time>
      </trkpt>
      <trkpt lat="50.80011" lon="2.48546">
        <ele>155.87</ele>
        <time>2021-08-07T08:09:18Z</time>
      </trkpt>
      <trkpt lat="50.79999" lon="2.48587">
        <ele>155.39</ele>
        <time>2021-08-07T08:09:26Z</time>
      </trkpt>
      <trkpt lat="50.79995" lon="2.48598">
        <ele>154.43</ele>
        <time>2021-08-07T08:09:28Z</time>
      </trkpt>
      <trkpt lat="50.79977" lon="2.4865">
        <ele>153.47</ele>
        <time>2021-08-07T08:09:36Z</time>
      </trkpt>
      <trkpt lat="50.79974" lon="2.48655">
        <ele>153.47</ele>
        <time>2021-08-07T08:09:37Z</time>
      </trkpt>
      <trkpt lat="50.79956" lon="2.48685">
        <ele>153.47</ele>
        <time>2021-08-07T08:09:44Z</time>
      </trkpt>
      <trkpt lat="50.79953" lon="2.4869">
        <ele>152.99</ele>
        <time>2021-08-07T08:09:45Z</time>
      </trkpt>
      <trkpt lat="50.79931" lon="2.48718">
        <ele>153.47</ele>
        <time>2021-08-07T08:09:53Z</time>
      </trkpt>
      <trkpt lat="50.79918" lon="2.48739">
        <ele>153.47</ele>
        <time>2021-08-07T08:09:59Z</time>
      </trkpt>
      <trkpt lat="50.799" lon="2.48774">
        <ele>152.99</ele>
        <time>2021-08-07T08:10:06Z</time>
      </trkpt>
      <trkpt lat="50.79874" lon="2.48824">
        <ele>151.54</ele>
        <time>2021-08-07T08:10:16Z</time>
      </trkpt>
      <trkpt lat="50.79846" lon="2.48874">
        <ele>151.54</ele>
        <time>2021-08-07T08:10:25Z</time>
      </trkpt>
      <trkpt lat="50.79823" lon="2.48931">
        <ele>150.58</ele>
        <time>2021-08-07T08:10:33Z</time>
      </trkpt>
      <trkpt lat="50.79819" lon="2.48942">
        <ele>150.1</ele>
        <time>2021-08-07T08:10:35Z</time>
      </trkpt>
      <trkpt lat="50.79816" lon="2.48948">
        <ele>150.1</ele>
        <time>2021-08-07T08:10:36Z</time>
      </trkpt>
      <trkpt lat="50.79811" lon="2.48959">
        <ele>150.1</ele>
        <time>2021-08-07T08:10:38Z</time>
      </trkpt>
      <trkpt lat="50.7981" lon="2.48966">
        <ele>149.62</ele>
        <time>2021-08-07T08:10:39Z</time>
      </trkpt>
      <trkpt lat="50.79809" lon="2.48972">
        <ele>149.62</ele>
        <time>2021-08-07T08:10:40Z</time>
      </trkpt>
      <trkpt lat="50.79809" lon="2.48991">
        <ele>149.14</ele>
        <time>2021-08-07T08:10:43Z</time>
      </trkpt>
      <trkpt lat="50.7981" lon="2.48997">
        <ele>149.14</ele>
        <time>2021-08-07T08:10:44Z</time>
      </trkpt>
      <trkpt lat="50.79812" lon="2.49004">
        <ele>149.14</ele>
        <time>2021-08-07T08:10:45Z</time>
      </trkpt>
      <trkpt lat="50.79816" lon="2.49018">
        <ele>149.14</ele>
        <time>2021-08-07T08:10:47Z</time>
      </trkpt>
      <trkpt lat="50.7984" lon="2.49079">
        <ele>147.22</ele>
        <time>2021-08-07T08:10:56Z</time>
      </trkpt>
      <trkpt lat="50.79845" lon="2.49084">
        <ele>147.22</ele>
        <time>2021-08-07T08:10:57Z</time>
      </trkpt>
      <trkpt lat="50.7985" lon="2.49088">
        <ele>145.78</ele>
        <time>2021-08-07T08:10:58Z</time>
      </trkpt>
      <trkpt lat="50.79856" lon="2.49089">
        <ele>145.78</ele>
        <time>2021-08-07T08:10:59Z</time>
      </trkpt>
      <trkpt lat="50.79861" lon="2.49091">
        <ele>145.3</ele>
        <time>2021-08-07T08:11:00Z</time>
      </trkpt>
      <trkpt lat="50.79897" lon="2.49105">
        <ele>143.37</ele>
        <time>2021-08-07T08:11:06Z</time>
      </trkpt>
      <trkpt lat="50.79916" lon="2.49116">
        <ele>142.41</ele>
        <time>2021-08-07T08:11:09Z</time>
      </trkpt>
      <trkpt lat="50.7992" lon="2.49123">
        <ele>142.41</ele>
        <time>2021-08-07T08:11:10Z</time>
      </trkpt>
      <trkpt lat="50.79924" lon="2.49131">
        <ele>141.93</ele>
        <time>2021-08-07T08:11:11Z</time>
      </trkpt>
      <trkpt lat="50.79925" lon="2.49139">
        <ele>141.93</ele>
        <time>2021-08-07T08:11:12Z</time>
      </trkpt>
      <trkpt lat="50.79925" lon="2.49148">
        <ele>141.45</ele>
        <time>2021-08-07T08:11:13Z</time>
      </trkpt>
      <trkpt lat="50.79924" lon="2.49157">
        <ele>140.49</ele>
        <time>2021-08-07T08:11:14Z</time>
      </trkpt>
      <trkpt lat="50.79921" lon="2.49164">
        <ele>140.01</ele>
        <time>2021-08-07T08:11:15Z</time>
      </trkpt>
      <trkpt lat="50.79917" lon="2.49171">
        <ele>139.53</ele>
        <time>2021-08-07T08:11:16Z</time>
      </trkpt>
      <trkpt lat="50.79912" lon="2.49177">
        <ele>139.53</ele>
        <time>2021-08-07T08:11:17Z</time>
      </trkpt>
      <trkpt lat="50.79907" lon="2.49183">
        <ele>139.53</ele>
        <time>2021-08-07T08:11:18Z</time>
      </trkpt>
      <trkpt lat="50.79886" lon="2.49207">
        <ele>138.09</ele>
        <time>2021-08-07T08:11:22Z</time>
      </trkpt>
      <trkpt lat="50.79836" lon="2.49264">
        <ele>135.2</ele>
        <time>2021-08-07T08:11:31Z</time>
      </trkpt>
      <trkpt lat="50.7983" lon="2.49271">
        <ele>134.72</ele>
        <time>2021-08-07T08:11:32Z</time>
      </trkpt>
      <trkpt lat="50.79785" lon="2.49324">
        <ele>132.8</ele>
        <time>2021-08-07T08:11:41Z</time>
      </trkpt>
      <trkpt lat="50.79772" lon="2.49341">
        <ele>132.8</ele>
        <time>2021-08-07T08:11:44Z</time>
      </trkpt>
      <trkpt lat="50.79768" lon="2.49349">
        <ele>132.32</ele>
        <time>2021-08-07T08:11:45Z</time>
      </trkpt>
      <trkpt lat="50.79765" lon="2.49357">
        <ele>132.32</ele>
        <time>2021-08-07T08:11:46Z</time>
      </trkpt>
      <trkpt lat="50.79762" lon="2.49366">
        <ele>131.36</ele>
        <time>2021-08-07T08:11:47Z</time>
      </trkpt>
      <trkpt lat="50.7976" lon="2.49377">
        <ele>131.36</ele>
        <time>2021-08-07T08:11:48Z</time>
      </trkpt>
      <trkpt lat="50.79758" lon="2.49384">
        <ele>130.88</ele>
        <time>2021-08-07T08:11:49Z</time>
      </trkpt>
      <trkpt lat="50.79742" lon="2.49468">
        <ele>127.51</ele>
        <time>2021-08-07T08:11:57Z</time>
      </trkpt>
      <trkpt lat="50.79742" lon="2.49492">
        <ele>126.55</ele>
        <time>2021-08-07T08:11:59Z</time>
      </trkpt>
      <trkpt lat="50.79749" lon="2.49555">
        <ele>125.11</ele>
        <time>2021-08-07T08:12:04Z</time>
      </trkpt>
      <trkpt lat="50.79751" lon="2.49566">
        <ele>124.63</ele>
        <time>2021-08-07T08:12:05Z</time>
      </trkpt>
      <trkpt lat="50.79766" lon="2.49616">
        <ele>122.22</ele>
        <time>2021-08-07T08:12:09Z</time>
      </trkpt>
      <trkpt lat="50.79771" lon="2.49625">
        <ele>122.22</ele>
        <time>2021-08-07T08:12:10Z</time>
      </trkpt>
      <trkpt lat="50.7979" lon="2.49655">
        <ele>121.26</ele>
        <time>2021-08-07T08:12:13Z</time>
      </trkpt>
      <trkpt lat="50.79798" lon="2.49664">
        <ele>120.78</ele>
        <time>2021-08-07T08:12:14Z</time>
      </trkpt>
      <trkpt lat="50.79805" lon="2.49669">
        <ele>120.3</ele>
        <time>2021-08-07T08:12:15Z</time>
      </trkpt>
      <trkpt lat="50.79829" lon="2.49683">
        <ele>119.82</ele>
        <time>2021-08-07T08:12:18Z</time>
      </trkpt>
      <trkpt lat="50.79836" lon="2.49685">
        <ele>119.82</ele>
        <time>2021-08-07T08:12:19Z</time>
      </trkpt>
      <trkpt lat="50.79844" lon="2.49684">
        <ele>119.82</ele>
        <time>2021-08-07T08:12:20Z</time>
      </trkpt>
      <trkpt lat="50.7985" lon="2.49682">
        <ele>119.82</ele>
        <time>2021-08-07T08:12:21Z</time>
      </trkpt>
      <trkpt lat="50.79857" lon="2.49679">
        <ele>118.86</ele>
        <time>2021-08-07T08:12:22Z</time>
      </trkpt>
      <trkpt lat="50.79871" lon="2.49674">
        <ele>118.86</ele>
        <time>2021-08-07T08:12:24Z</time>
      </trkpt>
      <trkpt lat="50.79879" lon="2.49674">
        <ele>117.9</ele>
        <time>2021-08-07T08:12:25Z</time>
      </trkpt>
      <trkpt lat="50.79886" lon="2.49677">
        <ele>116.94</ele>
        <time>2021-08-07T08:12:26Z</time>
      </trkpt>
      <trkpt lat="50.79893" lon="2.49682">
        <ele>116.46</ele>
        <time>2021-08-07T08:12:27Z</time>
      </trkpt>
      <trkpt lat="50.79901" lon="2.49688">
        <ele>116.46</ele>
        <time>2021-08-07T08:12:28Z</time>
      </trkpt>
      <trkpt lat="50.79933" lon="2.49715">
        <ele>114.53</ele>
        <time>2021-08-07T08:12:33Z</time>
      </trkpt>
      <trkpt lat="50.7994" lon="2.49719">
        <ele>114.53</ele>
        <time>2021-08-07T08:12:34Z</time>
      </trkpt>
      <trkpt lat="50.79956" lon="2.49727">
        <ele>114.53</ele>
        <time>2021-08-07T08:12:38Z</time>
      </trkpt>
      <trkpt lat="50.7996" lon="2.49727">
        <ele>114.53</ele>
        <time>2021-08-07T08:12:43Z</time>
      </trkpt>
      <trkpt lat="50.79961" lon="2.49724">
        <ele>114.53</ele>
        <time>2021-08-07T08:12:47Z</time>
      </trkpt>
      <trkpt lat="50.79961" lon="2.49721">
        <ele>114.53</ele>
        <time>2021-08-07T08:12:48Z</time>
      </trkpt>
      <trkpt lat="50.79959" lon="2.49719">
        <ele>114.53</ele>
        <time>2021-08-07T08:12:49Z</time>
      </trkpt>
      <trkpt lat="50.79958" lon="2.49718">
        <ele>114.53</ele>
        <time>2021-08-07T08:12:50Z</time>
      </trkpt>
      <trkpt lat="50.79955" lon="2.49719">
        <ele>114.53</ele>
        <time>2021-08-07T08:12:51Z</time>
      </trkpt>
      <trkpt lat="50.79945" lon="2.49718">
        <ele>114.53</ele>
        <time>2021-08-07T08:12:54Z</time>
      </trkpt>
      <trkpt lat="50.79941" lon="2.49716">
        <ele>114.53</ele>
        <time>2021-08-07T08:12:55Z</time>
      </trkpt>
      <trkpt lat="50.79932" lon="2.49711">
        <ele>114.53</ele>
        <time>2021-08-07T08:12:57Z</time>
      </trkpt>
      <trkpt lat="50.799" lon="2.49684">
        <ele>116.94</ele>
        <time>2021-08-07T08:13:05Z</time>
      </trkpt>
      <trkpt lat="50.79894" lon="2.49683">
        <ele>117.42</ele>
        <time>2021-08-07T08:13:07Z</time>
      </trkpt>
      <trkpt lat="50.79891" lon="2.49684">
        <ele>117.42</ele>
        <time>2021-08-07T08:13:08Z</time>
      </trkpt>
      <trkpt lat="50.79886" lon="2.49689">
        <ele>117.42</ele>
        <time>2021-08-07T08:13:10Z</time>
      </trkpt>
      <trkpt lat="50.79875" lon="2.49698">
        <ele>114.05</ele>
        <time>2021-08-07T08:13:12Z</time>
      </trkpt>
      <trkpt lat="50.7987" lon="2.49702">
        <ele>112.13</ele>
        <time>2021-08-07T08:13:13Z</time>
      </trkpt>
      <trkpt lat="50.79864" lon="2.4971">
        <ele>110.69</ele>
        <time>2021-08-07T08:13:14Z</time>
      </trkpt>
      <trkpt lat="50.79858" lon="2.4972">
        <ele>109.25</ele>
        <time>2021-08-07T08:13:15Z</time>
      </trkpt>
      <trkpt lat="50.79853" lon="2.49729">
        <ele>107.81</ele>
        <time>2021-08-07T08:13:16Z</time>
      </trkpt>
      <trkpt lat="50.79849" lon="2.49738">
        <ele>107.32</ele>
        <time>2021-08-07T08:13:17Z</time>
      </trkpt>
      <trkpt lat="50.79846" lon="2.49747">
        <ele>106.84</ele>
        <time>2021-08-07T08:13:18Z</time>
      </trkpt>
      <trkpt lat="50.79844" lon="2.49755">
        <ele>105.88</ele>
        <time>2021-08-07T08:13:19Z</time>
      </trkpt>
      <trkpt lat="50.79843" lon="2.49762">
        <ele>104.92</ele>
        <time>2021-08-07T08:13:20Z</time>
      </trkpt>
      <trkpt lat="50.79844" lon="2.4977">
        <ele>104.92</ele>
        <time>2021-08-07T08:13:21Z</time>
      </trkpt>
      <trkpt lat="50.79844" lon="2.49779">
        <ele>103.48</ele>
        <time>2021-08-07T08:13:22Z</time>
      </trkpt>
      <trkpt lat="50.79845" lon="2.49786">
        <ele>103</ele>
        <time>2021-08-07T08:13:23Z</time>
      </trkpt>
      <trkpt lat="50.79845" lon="2.49794">
        <ele>102.52</ele>
        <time>2021-08-07T08:13:24Z</time>
      </trkpt>
      <trkpt lat="50.79845" lon="2.498">
        <ele>102.04</ele>
        <time>2021-08-07T08:13:25Z</time>
      </trkpt>
      <trkpt lat="50.79846" lon="2.49827">
        <ele>100.11</ele>
        <time>2021-08-07T08:13:30Z</time>
      </trkpt>
      <trkpt lat="50.79846" lon="2.4983">
        <ele>100.6</ele>
        <time>2021-08-07T08:13:31Z</time>
      </trkpt>
      <trkpt lat="50.79845" lon="2.49832">
        <ele>99.63</ele>
        <time>2021-08-07T08:13:32Z</time>
      </trkpt>
      <trkpt lat="50.79843" lon="2.49836">
        <ele>99.15</ele>
        <time>2021-08-07T08:13:34Z</time>
      </trkpt>
      <trkpt lat="50.79843" lon="2.49839">
        <ele>99.15</ele>
        <time>2021-08-07T08:13:35Z</time>
      </trkpt>
      <trkpt lat="50.79846" lon="2.49869">
        <ele>95.79</ele>
        <time>2021-08-07T08:13:41Z</time>
      </trkpt>
      <trkpt lat="50.79845" lon="2.49886">
        <ele>94.83</ele>
        <time>2021-08-07T08:13:44Z</time>
      </trkpt>
      <trkpt lat="50.79845" lon="2.49896">
        <ele>92.42</ele>
        <time>2021-08-07T08:13:46Z</time>
      </trkpt>
      <trkpt lat="50.79845" lon="2.499">
        <ele>91.94</ele>
        <time>2021-08-07T08:13:47Z</time>
      </trkpt>
      <trkpt lat="50.79844" lon="2.49903">
        <ele>91.94</ele>
        <time>2021-08-07T08:13:48Z</time>
      </trkpt>
      <trkpt lat="50.79844" lon="2.49905">
        <ele>91.94</ele>
        <time>2021-08-07T08:13:49Z</time>
      </trkpt>
      <trkpt lat="50.79843" lon="2.49907">
        <ele>91.94</ele>
        <time>2021-08-07T08:13:50Z</time>
      </trkpt>
      <trkpt lat="50.79841" lon="2.49908">
        <ele>91.94</ele>
        <time>2021-08-07T08:13:51Z</time>
      </trkpt>
      <trkpt lat="50.79825" lon="2.49914">
        <ele>90.02</ele>
        <time>2021-08-07T08:13:57Z</time>
      </trkpt>
      <trkpt lat="50.79784" lon="2.49924">
        <ele>87.14</ele>
        <time>2021-08-07T08:14:06Z</time>
      </trkpt>
      <trkpt lat="50.79781" lon="2.49926">
        <ele>87.14</ele>
        <time>2021-08-07T08:14:07Z</time>
      </trkpt>
      <trkpt lat="50.79778" lon="2.49929">
        <ele>87.14</ele>
        <time>2021-08-07T08:14:08Z</time>
      </trkpt>
      <trkpt lat="50.79777" lon="2.49934">
        <ele>87.14</ele>
        <time>2021-08-07T08:14:09Z</time>
      </trkpt>
      <trkpt lat="50.79784" lon="2.49963">
        <ele>85.21</ele>
        <time>2021-08-07T08:14:15Z</time>
      </trkpt>
      <trkpt lat="50.79793" lon="2.49996">
        <ele>85.21</ele>
        <time>2021-08-07T08:14:21Z</time>
      </trkpt>
      <trkpt lat="50.79794" lon="2.50002">
        <ele>85.21</ele>
        <time>2021-08-07T08:14:22Z</time>
      </trkpt>
      <trkpt lat="50.79795" lon="2.50009">
        <ele>85.21</ele>
        <time>2021-08-07T08:14:23Z</time>
      </trkpt>
      <trkpt lat="50.79795" lon="2.50015">
        <ele>85.21</ele>
        <time>2021-08-07T08:14:24Z</time>
      </trkpt>
      <trkpt lat="50.79794" lon="2.50022">
        <ele>84.25</ele>
        <time>2021-08-07T08:14:25Z</time>
      </trkpt>
      <trkpt lat="50.79793" lon="2.5003">
        <ele>83.77</ele>
        <time>2021-08-07T08:14:26Z</time>
      </trkpt>
      <trkpt lat="50.79792" lon="2.50038">
        <ele>83.77</ele>
        <time>2021-08-07T08:14:27Z</time>
      </trkpt>
      <trkpt lat="50.7979" lon="2.5006">
        <ele>81.85</ele>
        <time>2021-08-07T08:14:30Z</time>
      </trkpt>
      <trkpt lat="50.79788" lon="2.50076">
        <ele>81.85</ele>
        <time>2021-08-07T08:14:32Z</time>
      </trkpt>
      <trkpt lat="50.79787" lon="2.50083">
        <ele>81.85</ele>
        <time>2021-08-07T08:14:33Z</time>
      </trkpt>
      <trkpt lat="50.79786" lon="2.50092">
        <ele>81.85</ele>
        <time>2021-08-07T08:14:34Z</time>
      </trkpt>
      <trkpt lat="50.79786" lon="2.50099">
        <ele>82.81</ele>
        <time>2021-08-07T08:14:35Z</time>
      </trkpt>
      <trkpt lat="50.79785" lon="2.50107">
        <ele>82.81</ele>
        <time>2021-08-07T08:14:36Z</time>
      </trkpt>
      <trkpt lat="50.79775" lon="2.50161">
        <ele>80.41</ele>
        <time>2021-08-07T08:14:43Z</time>
      </trkpt>
      <trkpt lat="50.79772" lon="2.50169">
        <ele>80.41</ele>
        <time>2021-08-07T08:14:44Z</time>
      </trkpt>
      <trkpt lat="50.79759" lon="2.50199">
        <ele>81.37</ele>
        <time>2021-08-07T08:14:48Z</time>
      </trkpt>
      <trkpt lat="50.79739" lon="2.50245">
        <ele>81.37</ele>
        <time>2021-08-07T08:14:54Z</time>
      </trkpt>
      <trkpt lat="50.79733" lon="2.50259">
        <ele>81.37</ele>
        <time>2021-08-07T08:14:56Z</time>
      </trkpt>
      <trkpt lat="50.79728" lon="2.50273">
        <ele>81.37</ele>
        <time>2021-08-07T08:14:58Z</time>
      </trkpt>
      <trkpt lat="50.79726" lon="2.50281">
        <ele>81.37</ele>
        <time>2021-08-07T08:14:59Z</time>
      </trkpt>
      <trkpt lat="50.79725" lon="2.50288">
        <ele>81.37</ele>
        <time>2021-08-07T08:15:00Z</time>
      </trkpt>
      <trkpt lat="50.79725" lon="2.50295">
        <ele>81.37</ele>
        <time>2021-08-07T08:15:01Z</time>
      </trkpt>
      <trkpt lat="50.79727" lon="2.50302">
        <ele>81.85</ele>
        <time>2021-08-07T08:15:02Z</time>
      </trkpt>
      <trkpt lat="50.79729" lon="2.50308">
        <ele>81.85</ele>
        <time>2021-08-07T08:15:03Z</time>
      </trkpt>
      <trkpt lat="50.7973" lon="2.50312">
        <ele>82.33</ele>
        <time>2021-08-07T08:15:04Z</time>
      </trkpt>
      <trkpt lat="50.79731" lon="2.50316">
        <ele>83.29</ele>
        <time>2021-08-07T08:15:05Z</time>
      </trkpt>
      <trkpt lat="50.79732" lon="2.5032">
        <ele>84.25</ele>
        <time>2021-08-07T08:15:06Z</time>
      </trkpt>
      <trkpt lat="50.79732" lon="2.50323">
        <ele>84.25</ele>
        <time>2021-08-07T08:15:07Z</time>
      </trkpt>
      <trkpt lat="50.79731" lon="2.50327">
        <ele>84.25</ele>
        <time>2021-08-07T08:15:08Z</time>
      </trkpt>
      <trkpt lat="50.7973" lon="2.5033">
        <ele>84.25</ele>
        <time>2021-08-07T08:15:09Z</time>
      </trkpt>
      <trkpt lat="50.79728" lon="2.50333">
        <ele>84.25</ele>
        <time>2021-08-07T08:15:10Z</time>
      </trkpt>
      <trkpt lat="50.79725" lon="2.50337">
        <ele>84.25</ele>
        <time>2021-08-07T08:15:11Z</time>
      </trkpt>
      <trkpt lat="50.79718" lon="2.50351">
        <ele>84.25</ele>
        <time>2021-08-07T08:15:14Z</time>
      </trkpt>
      <trkpt lat="50.79718" lon="2.50358">
        <ele>84.25</ele>
        <time>2021-08-07T08:15:15Z</time>
      </trkpt>
      <trkpt lat="50.79719" lon="2.50364">
        <ele>84.25</ele>
        <time>2021-08-07T08:15:16Z</time>
      </trkpt>
      <trkpt lat="50.79721" lon="2.50368">
        <ele>84.25</ele>
        <time>2021-08-07T08:15:17Z</time>
      </trkpt>
      <trkpt lat="50.79723" lon="2.50371">
        <ele>84.25</ele>
        <time>2021-08-07T08:15:18Z</time>
      </trkpt>
      <trkpt lat="50.79725" lon="2.50374">
        <ele>84.25</ele>
        <time>2021-08-07T08:15:19Z</time>
      </trkpt>
      <trkpt lat="50.79727" lon="2.50377">
        <ele>84.25</ele>
        <time>2021-08-07T08:15:20Z</time>
      </trkpt>
      <trkpt lat="50.79732" lon="2.50388">
        <ele>84.25</ele>
        <time>2021-08-07T08:15:23Z</time>
      </trkpt>
      <trkpt lat="50.79732" lon="2.50392">
        <ele>84.73</ele>
        <time>2021-08-07T08:15:24Z</time>
      </trkpt>
      <trkpt lat="50.79732" lon="2.50395">
        <ele>84.73</ele>
        <time>2021-08-07T08:15:25Z</time>
      </trkpt>
      <trkpt lat="50.79731" lon="2.50399">
        <ele>84.73</ele>
        <time>2021-08-07T08:15:26Z</time>
      </trkpt>
      <trkpt lat="50.7973" lon="2.50404">
        <ele>84.73</ele>
        <time>2021-08-07T08:15:27Z</time>
      </trkpt>
      <trkpt lat="50.79715" lon="2.50444">
        <ele>84.73</ele>
        <time>2021-08-07T08:15:35Z</time>
      </trkpt>
      <trkpt lat="50.79702" lon="2.50485">
        <ele>86.18</ele>
        <time>2021-08-07T08:15:43Z</time>
      </trkpt>
      <trkpt lat="50.79704" lon="2.50489">
        <ele>86.66</ele>
        <time>2021-08-07T08:15:44Z</time>
      </trkpt>
      <trkpt lat="50.79706" lon="2.50491">
        <ele>86.66</ele>
        <time>2021-08-07T08:15:45Z</time>
      </trkpt>
      <trkpt lat="50.79708" lon="2.50493">
        <ele>86.66</ele>
        <time>2021-08-07T08:15:46Z</time>
      </trkpt>
      <trkpt lat="50.79711" lon="2.50495">
        <ele>86.66</ele>
        <time>2021-08-07T08:15:47Z</time>
      </trkpt>
      <trkpt lat="50.79713" lon="2.50498">
        <ele>86.66</ele>
        <time>2021-08-07T08:15:48Z</time>
      </trkpt>
      <trkpt lat="50.79715" lon="2.505">
        <ele>86.66</ele>
        <time>2021-08-07T08:15:49Z</time>
      </trkpt>
      <trkpt lat="50.79717" lon="2.50502">
        <ele>86.66</ele>
        <time>2021-08-07T08:15:50Z</time>
      </trkpt>
      <trkpt lat="50.7972" lon="2.50504">
        <ele>86.66</ele>
        <time>2021-08-07T08:15:51Z</time>
      </trkpt>
      <trkpt lat="50.79738" lon="2.50521">
        <ele>89.06</ele>
        <time>2021-08-07T08:16:00Z</time>
      </trkpt>
      <trkpt lat="50.79751" lon="2.50532">
        <ele>91.46</ele>
        <time>2021-08-07T08:16:08Z</time>
      </trkpt>
      <trkpt lat="50.79758" lon="2.50545">
        <ele>93.39</ele>
        <time>2021-08-07T08:16:15Z</time>
      </trkpt>
      <trkpt lat="50.7976" lon="2.50552">
        <ele>93.87</ele>
        <time>2021-08-07T08:16:18Z</time>
      </trkpt>
      <trkpt lat="50.79759" lon="2.50554">
        <ele>94.35</ele>
        <time>2021-08-07T08:16:19Z</time>
      </trkpt>
      <trkpt lat="50.79759" lon="2.50557">
        <ele>94.35</ele>
        <time>2021-08-07T08:16:20Z</time>
      </trkpt>
      <trkpt lat="50.7976" lon="2.5056">
        <ele>94.35</ele>
        <time>2021-08-07T08:16:21Z</time>
      </trkpt>
      <trkpt lat="50.7976" lon="2.50563">
        <ele>94.35</ele>
        <time>2021-08-07T08:16:22Z</time>
      </trkpt>
      <trkpt lat="50.7976" lon="2.50566">
        <ele>95.31</ele>
        <time>2021-08-07T08:16:23Z</time>
      </trkpt>
      <trkpt lat="50.7976" lon="2.50569">
        <ele>95.31</ele>
        <time>2021-08-07T08:16:24Z</time>
      </trkpt>
      <trkpt lat="50.7976" lon="2.50572">
        <ele>95.31</ele>
        <time>2021-08-07T08:16:25Z</time>
      </trkpt>
      <trkpt lat="50.7976" lon="2.50574">
        <ele>95.79</ele>
        <time>2021-08-07T08:16:26Z</time>
      </trkpt>
      <trkpt lat="50.7976" lon="2.50577">
        <ele>96.27</ele>
        <time>2021-08-07T08:16:27Z</time>
      </trkpt>
      <trkpt lat="50.7976" lon="2.5058">
        <ele>96.27</ele>
        <time>2021-08-07T08:16:28Z</time>
      </trkpt>
      <trkpt lat="50.79766" lon="2.50605">
        <ele>97.71</ele>
        <time>2021-08-07T08:16:36Z</time>
      </trkpt>
      <trkpt lat="50.79775" lon="2.50637">
        <ele>98.19</ele>
        <time>2021-08-07T08:16:44Z</time>
      </trkpt>
      <trkpt lat="50.79791" lon="2.50684">
        <ele>98.19</ele>
        <time>2021-08-07T08:16:52Z</time>
      </trkpt>
      <trkpt lat="50.798" lon="2.50716">
        <ele>96.27</ele>
        <time>2021-08-07T08:16:58Z</time>
      </trkpt>
      <trkpt lat="50.79802" lon="2.50722">
        <ele>96.27</ele>
        <time>2021-08-07T08:16:59Z</time>
      </trkpt>
      <trkpt lat="50.79818" lon="2.50751">
        <ele>95.31</ele>
        <time>2021-08-07T08:17:04Z</time>
      </trkpt>
      <trkpt lat="50.79821" lon="2.50758">
        <ele>95.31</ele>
        <time>2021-08-07T08:17:05Z</time>
      </trkpt>
      <trkpt lat="50.79856" lon="2.50816">
        <ele>94.83</ele>
        <time>2021-08-07T08:17:13Z</time>
      </trkpt>
      <trkpt lat="50.79883" lon="2.50848">
        <ele>96.75</ele>
        <time>2021-08-07T08:17:20Z</time>
      </trkpt>
      <trkpt lat="50.79904" lon="2.50866">
        <ele>97.23</ele>
        <time>2021-08-07T08:17:27Z</time>
      </trkpt>
      <trkpt lat="50.79913" lon="2.50881">
        <ele>97.71</ele>
        <time>2021-08-07T08:17:31Z</time>
      </trkpt>
      <trkpt lat="50.79925" lon="2.50906">
        <ele>96.27</ele>
        <time>2021-08-07T08:17:35Z</time>
      </trkpt>
      <trkpt lat="50.79928" lon="2.50914">
        <ele>96.27</ele>
        <time>2021-08-07T08:17:36Z</time>
      </trkpt>
      <trkpt lat="50.79932" lon="2.50922">
        <ele>96.27</ele>
        <time>2021-08-07T08:17:37Z</time>
      </trkpt>
      <trkpt lat="50.79936" lon="2.50929">
        <ele>96.27</ele>
        <time>2021-08-07T08:17:38Z</time>
      </trkpt>
      <trkpt lat="50.79965" lon="2.50964">
        <ele>96.27</ele>
        <time>2021-08-07T08:17:44Z</time>
      </trkpt>
      <trkpt lat="50.79986" lon="2.50992">
        <ele>97.23</ele>
        <time>2021-08-07T08:17:49Z</time>
      </trkpt>
      <trkpt lat="50.79991" lon="2.50996">
        <ele>97.23</ele>
        <time>2021-08-07T08:17:50Z</time>
      </trkpt>
      <trkpt lat="50.80014" lon="2.51012">
        <ele>98.19</ele>
        <time>2021-08-07T08:17:55Z</time>
      </trkpt>
      <trkpt lat="50.80035" lon="2.51021">
        <ele>98.67</ele>
        <time>2021-08-07T08:17:59Z</time>
      </trkpt>
      <trkpt lat="50.80051" lon="2.51016">
        <ele>100.11</ele>
        <time>2021-08-07T08:18:04Z</time>
      </trkpt>
      <trkpt lat="50.80054" lon="2.51015">
        <ele>100.11</ele>
        <time>2021-08-07T08:18:07Z</time>
      </trkpt>
      <trkpt lat="50.80056" lon="2.51015">
        <ele>100.11</ele>
        <time>2021-08-07T08:18:08Z</time>
      </trkpt>
      <trkpt lat="50.80058" lon="2.51014">
        <ele>100.6</ele>
        <time>2021-08-07T08:18:12Z</time>
      </trkpt>
      <trkpt lat="50.80057" lon="2.51014">
        <ele>100.6</ele>
        <time>2021-08-07T08:18:17Z</time>
      </trkpt>
      <trkpt lat="50.80055" lon="2.51016">
        <ele>100.6</ele>
        <time>2021-08-07T08:18:22Z</time>
      </trkpt>
      <trkpt lat="50.80052" lon="2.51016">
        <ele>100.6</ele>
        <time>2021-08-07T08:18:25Z</time>
      </trkpt>
      <trkpt lat="50.80051" lon="2.51014">
        <ele>100.6</ele>
        <time>2021-08-07T08:18:27Z</time>
      </trkpt>
      <trkpt lat="50.80051" lon="2.51011">
        <ele>100.6</ele>
        <time>2021-08-07T08:18:28Z</time>
      </trkpt>
      <trkpt lat="50.80051" lon="2.51009">
        <ele>100.6</ele>
        <time>2021-08-07T08:18:29Z</time>
      </trkpt>
      <trkpt lat="50.80052" lon="2.50999">
        <ele>102.52</ele>
        <time>2021-08-07T08:18:36Z</time>
      </trkpt>
      <trkpt lat="50.80053" lon="2.50994">
        <ele>103</ele>
        <time>2021-08-07T08:18:38Z</time>
      </trkpt>
      <trkpt lat="50.80055" lon="2.50993">
        <ele>103.48</ele>
        <time>2021-08-07T08:18:39Z</time>
      </trkpt>
      <trkpt lat="50.80057" lon="2.50992">
        <ele>103.48</ele>
        <time>2021-08-07T08:18:40Z</time>
      </trkpt>
      <trkpt lat="50.80058" lon="2.50991">
        <ele>103.48</ele>
        <time>2021-08-07T08:18:41Z</time>
      </trkpt>
      <trkpt lat="50.80059" lon="2.50989">
        <ele>103.96</ele>
        <time>2021-08-07T08:18:42Z</time>
      </trkpt>
      <trkpt lat="50.80061" lon="2.50988">
        <ele>103.96</ele>
        <time>2021-08-07T08:18:43Z</time>
      </trkpt>
      <trkpt lat="50.80062" lon="2.50987">
        <ele>103.96</ele>
        <time>2021-08-07T08:18:44Z</time>
      </trkpt>
      <trkpt lat="50.80077" lon="2.50982">
        <ele>103.96</ele>
        <time>2021-08-07T08:18:51Z</time>
      </trkpt>
      <trkpt lat="50.80088" lon="2.50981">
        <ele>103.96</ele>
        <time>2021-08-07T08:18:55Z</time>
      </trkpt>
      <trkpt lat="50.8009" lon="2.50983">
        <ele>103.96</ele>
        <time>2021-08-07T08:18:56Z</time>
      </trkpt>
      <trkpt lat="50.80107" lon="2.50994">
        <ele>102.52</ele>
        <time>2021-08-07T08:19:02Z</time>
      </trkpt>
      <trkpt lat="50.80132" lon="2.51009">
        <ele>101.08</ele>
        <time>2021-08-07T08:19:09Z</time>
      </trkpt>
      <trkpt lat="50.80143" lon="2.51017">
        <ele>101.08</ele>
        <time>2021-08-07T08:19:12Z</time>
      </trkpt>
      <trkpt lat="50.80146" lon="2.5102">
        <ele>101.08</ele>
        <time>2021-08-07T08:19:13Z</time>
      </trkpt>
      <trkpt lat="50.80176" lon="2.5105">
        <ele>102.52</ele>
        <time>2021-08-07T08:19:21Z</time>
      </trkpt>
      <trkpt lat="50.80189" lon="2.51072">
        <ele>103</ele>
        <time>2021-08-07T08:19:26Z</time>
      </trkpt>
      <trkpt lat="50.80202" lon="2.51115">
        <ele>100.11</ele>
        <time>2021-08-07T08:19:31Z</time>
      </trkpt>
      <trkpt lat="50.8022" lon="2.51156">
        <ele>96.27</ele>
        <time>2021-08-07T08:19:35Z</time>
      </trkpt>
      <trkpt lat="50.80225" lon="2.51166">
        <ele>96.27</ele>
        <time>2021-08-07T08:19:36Z</time>
      </trkpt>
      <trkpt lat="50.80248" lon="2.51207">
        <ele>94.35</ele>
        <time>2021-08-07T08:19:41Z</time>
      </trkpt>
      <trkpt lat="50.8025" lon="2.51213">
        <ele>93.87</ele>
        <time>2021-08-07T08:19:42Z</time>
      </trkpt>
      <trkpt lat="50.80252" lon="2.5122">
        <ele>93.87</ele>
        <time>2021-08-07T08:19:43Z</time>
      </trkpt>
      <trkpt lat="50.80254" lon="2.51225">
        <ele>93.87</ele>
        <time>2021-08-07T08:19:44Z</time>
      </trkpt>
      <trkpt lat="50.80258" lon="2.51235">
        <ele>93.87</ele>
        <time>2021-08-07T08:19:46Z</time>
      </trkpt>
      <trkpt lat="50.8026" lon="2.51241">
        <ele>93.39</ele>
        <time>2021-08-07T08:19:47Z</time>
      </trkpt>
      <trkpt lat="50.80262" lon="2.51247">
        <ele>92.42</ele>
        <time>2021-08-07T08:19:48Z</time>
      </trkpt>
      <trkpt lat="50.80282" lon="2.51297">
        <ele>89.06</ele>
        <time>2021-08-07T08:19:54Z</time>
      </trkpt>
      <trkpt lat="50.80302" lon="2.51353">
        <ele>86.18</ele>
        <time>2021-08-07T08:19:59Z</time>
      </trkpt>
      <trkpt lat="50.80318" lon="2.51419">
        <ele>83.29</ele>
        <time>2021-08-07T08:20:04Z</time>
      </trkpt>
      <trkpt lat="50.80331" lon="2.51475">
        <ele>79.45</ele>
        <time>2021-08-07T08:20:08Z</time>
      </trkpt>
      <trkpt lat="50.80334" lon="2.51488">
        <ele>79.45</ele>
        <time>2021-08-07T08:20:09Z</time>
      </trkpt>
      <trkpt lat="50.80348" lon="2.51545">
        <ele>76.08</ele>
        <time>2021-08-07T08:20:13Z</time>
      </trkpt>
      <trkpt lat="50.80354" lon="2.5157">
        <ele>75.6</ele>
        <time>2021-08-07T08:20:15Z</time>
      </trkpt>
      <trkpt lat="50.80361" lon="2.51598">
        <ele>74.16</ele>
        <time>2021-08-07T08:20:18Z</time>
      </trkpt>
      <trkpt lat="50.80361" lon="2.51605">
        <ele>74.64</ele>
        <time>2021-08-07T08:20:19Z</time>
      </trkpt>
      <trkpt lat="50.80359" lon="2.51611">
        <ele>74.64</ele>
        <time>2021-08-07T08:20:20Z</time>
      </trkpt>
      <trkpt lat="50.80355" lon="2.51614">
        <ele>74.64</ele>
        <time>2021-08-07T08:20:21Z</time>
      </trkpt>
      <trkpt lat="50.80351" lon="2.51616">
        <ele>74.64</ele>
        <time>2021-08-07T08:20:22Z</time>
      </trkpt>
      <trkpt lat="50.80347" lon="2.51618">
        <ele>74.64</ele>
        <time>2021-08-07T08:20:23Z</time>
      </trkpt>
      <trkpt lat="50.80342" lon="2.5162">
        <ele>74.64</ele>
        <time>2021-08-07T08:20:24Z</time>
      </trkpt>
      <trkpt lat="50.80337" lon="2.51622">
        <ele>74.16</ele>
        <time>2021-08-07T08:20:25Z</time>
      </trkpt>
      <trkpt lat="50.80332" lon="2.51625">
        <ele>73.68</ele>
        <time>2021-08-07T08:20:26Z</time>
      </trkpt>
      <trkpt lat="50.80309" lon="2.51636">
        <ele>71.27</ele>
        <time>2021-08-07T08:20:32Z</time>
      </trkpt>
      <trkpt lat="50.80309" lon="2.51636">
        <ele>71.27</ele>
        <time>2021-08-07T08:20:33Z</time>
      </trkpt>
      <trkpt lat="50.80308" lon="2.51639">
        <ele>71.27</ele>
        <time>2021-08-07T08:20:34Z</time>
      </trkpt>
      <trkpt lat="50.80299" lon="2.51669">
        <ele>68.39</ele>
        <time>2021-08-07T08:20:40Z</time>
      </trkpt>
      <trkpt lat="50.80287" lon="2.51716">
        <ele>65.51</ele>
        <time>2021-08-07T08:20:46Z</time>
      </trkpt>
      <trkpt lat="50.80285" lon="2.51724">
        <ele>65.51</ele>
        <time>2021-08-07T08:20:47Z</time>
      </trkpt>
      <trkpt lat="50.80282" lon="2.51742">
        <ele>65.03</ele>
        <time>2021-08-07T08:20:49Z</time>
      </trkpt>
      <trkpt lat="50.80282" lon="2.51752">
        <ele>65.03</ele>
        <time>2021-08-07T08:20:50Z</time>
      </trkpt>
      <trkpt lat="50.80282" lon="2.51763">
        <ele>64.55</ele>
        <time>2021-08-07T08:20:51Z</time>
      </trkpt>
      <trkpt lat="50.80285" lon="2.51823">
        <ele>63.58</ele>
        <time>2021-08-07T08:20:56Z</time>
      </trkpt>
      <trkpt lat="50.80287" lon="2.51833">
        <ele>63.58</ele>
        <time>2021-08-07T08:20:57Z</time>
      </trkpt>
      <trkpt lat="50.803" lon="2.51896">
        <ele>63.58</ele>
        <time>2021-08-07T08:21:03Z</time>
      </trkpt>
      <trkpt lat="50.80317" lon="2.51981">
        <ele>60.7</ele>
        <time>2021-08-07T08:21:11Z</time>
      </trkpt>
      <trkpt lat="50.80321" lon="2.52016">
        <ele>60.22</ele>
        <time>2021-08-07T08:21:14Z</time>
      </trkpt>
      <trkpt lat="50.80319" lon="2.52028">
        <ele>59.74</ele>
        <time>2021-08-07T08:21:15Z</time>
      </trkpt>
      <trkpt lat="50.80316" lon="2.52038">
        <ele>59.26</ele>
        <time>2021-08-07T08:21:16Z</time>
      </trkpt>
      <trkpt lat="50.80293" lon="2.521">
        <ele>56.37</ele>
        <time>2021-08-07T08:21:22Z</time>
      </trkpt>
      <trkpt lat="50.80291" lon="2.52112">
        <ele>55.41</ele>
        <time>2021-08-07T08:21:23Z</time>
      </trkpt>
      <trkpt lat="50.8029" lon="2.52124">
        <ele>55.41</ele>
        <time>2021-08-07T08:21:24Z</time>
      </trkpt>
      <trkpt lat="50.80287" lon="2.52163">
        <ele>53.97</ele>
        <time>2021-08-07T08:21:27Z</time>
      </trkpt>
      <trkpt lat="50.80285" lon="2.52202">
        <ele>52.05</ele>
        <time>2021-08-07T08:21:30Z</time>
      </trkpt>
      <trkpt lat="50.80281" lon="2.52274">
        <ele>48.68</ele>
        <time>2021-08-07T08:21:35Z</time>
      </trkpt>
      <trkpt lat="50.80281" lon="2.52289">
        <ele>48.68</ele>
        <time>2021-08-07T08:21:36Z</time>
      </trkpt>
      <trkpt lat="50.80281" lon="2.52379">
        <ele>45.8</ele>
        <time>2021-08-07T08:21:42Z</time>
      </trkpt>
      <trkpt lat="50.80289" lon="2.52538">
        <ele>44.36</ele>
        <time>2021-08-07T08:21:53Z</time>
      </trkpt>
      <trkpt lat="50.80288" lon="2.52552">
        <ele>44.36</ele>
        <time>2021-08-07T08:21:54Z</time>
      </trkpt>
      <trkpt lat="50.80285" lon="2.52562">
        <ele>43.88</ele>
        <time>2021-08-07T08:21:55Z</time>
      </trkpt>
      <trkpt lat="50.80281" lon="2.52572">
        <ele>42.92</ele>
        <time>2021-08-07T08:21:56Z</time>
      </trkpt>
      <trkpt lat="50.80275" lon="2.5258">
        <ele>42.92</ele>
        <time>2021-08-07T08:21:57Z</time>
      </trkpt>
      <trkpt lat="50.80269" lon="2.52587">
        <ele>42.44</ele>
        <time>2021-08-07T08:21:58Z</time>
      </trkpt>
      <trkpt lat="50.80262" lon="2.52594">
        <ele>42.44</ele>
        <time>2021-08-07T08:21:59Z</time>
      </trkpt>
      <trkpt lat="50.80256" lon="2.52602">
        <ele>41.95</ele>
        <time>2021-08-07T08:22:00Z</time>
      </trkpt>
      <trkpt lat="50.8025" lon="2.52612">
        <ele>41.47</ele>
        <time>2021-08-07T08:22:01Z</time>
      </trkpt>
      <trkpt lat="50.80246" lon="2.52622">
        <ele>40.51</ele>
        <time>2021-08-07T08:22:02Z</time>
      </trkpt>
      <trkpt lat="50.80242" lon="2.52632">
        <ele>40.51</ele>
        <time>2021-08-07T08:22:03Z</time>
      </trkpt>
      <trkpt lat="50.80238" lon="2.52644">
        <ele>40.03</ele>
        <time>2021-08-07T08:22:04Z</time>
      </trkpt>
      <trkpt lat="50.8022" lon="2.52698">
        <ele>39.55</ele>
        <time>2021-08-07T08:22:09Z</time>
      </trkpt>
      <trkpt lat="50.80218" lon="2.52709">
        <ele>39.55</ele>
        <time>2021-08-07T08:22:10Z</time>
      </trkpt>
      <trkpt lat="50.80197" lon="2.52809">
        <ele>39.07</ele>
        <time>2021-08-07T08:22:19Z</time>
      </trkpt>
      <trkpt lat="50.80188" lon="2.52849">
        <ele>39.07</ele>
        <time>2021-08-07T08:22:23Z</time>
      </trkpt>
      <trkpt lat="50.80187" lon="2.52859">
        <ele>39.07</ele>
        <time>2021-08-07T08:22:24Z</time>
      </trkpt>
      <trkpt lat="50.80187" lon="2.52868">
        <ele>39.07</ele>
        <time>2021-08-07T08:22:25Z</time>
      </trkpt>
      <trkpt lat="50.80187" lon="2.52878">
        <ele>39.07</ele>
        <time>2021-08-07T08:22:26Z</time>
      </trkpt>
      <trkpt lat="50.80188" lon="2.52888">
        <ele>38.59</ele>
        <time>2021-08-07T08:22:27Z</time>
      </trkpt>
      <trkpt lat="50.80189" lon="2.52906">
        <ele>38.59</ele>
        <time>2021-08-07T08:22:29Z</time>
      </trkpt>
      <trkpt lat="50.80188" lon="2.52915">
        <ele>39.55</ele>
        <time>2021-08-07T08:22:30Z</time>
      </trkpt>
      <trkpt lat="50.8018" lon="2.52968">
        <ele>38.11</ele>
        <time>2021-08-07T08:22:36Z</time>
      </trkpt>
      <trkpt lat="50.80156" lon="2.53043">
        <ele>38.11</ele>
        <time>2021-08-07T08:22:45Z</time>
      </trkpt>
      <trkpt lat="50.80123" lon="2.53113">
        <ele>37.63</ele>
        <time>2021-08-07T08:22:54Z</time>
      </trkpt>
      <trkpt lat="50.8008" lon="2.532">
        <ele>35.71</ele>
        <time>2021-08-07T08:23:05Z</time>
      </trkpt>
      <trkpt lat="50.80047" lon="2.53277">
        <ele>35.23</ele>
        <time>2021-08-07T08:23:14Z</time>
      </trkpt>
      <trkpt lat="50.80011" lon="2.5337">
        <ele>33.78</ele>
        <time>2021-08-07T08:23:24Z</time>
      </trkpt>
      <trkpt lat="50.7998" lon="2.53463">
        <ele>31.86</ele>
        <time>2021-08-07T08:23:33Z</time>
      </trkpt>
      <trkpt lat="50.79977" lon="2.53473">
        <ele>30.9</ele>
        <time>2021-08-07T08:23:34Z</time>
      </trkpt>
      <trkpt lat="50.79972" lon="2.53494">
        <ele>30.9</ele>
        <time>2021-08-07T08:23:36Z</time>
      </trkpt>
      <trkpt lat="50.79959" lon="2.53534">
        <ele>30.42</ele>
        <time>2021-08-07T08:23:40Z</time>
      </trkpt>
      <trkpt lat="50.79944" lon="2.53583">
        <ele>29.94</ele>
        <time>2021-08-07T08:23:45Z</time>
      </trkpt>
      <trkpt lat="50.7994" lon="2.53589">
        <ele>29.94</ele>
        <time>2021-08-07T08:23:46Z</time>
      </trkpt>
      <trkpt lat="50.79936" lon="2.53595">
        <ele>29.94</ele>
        <time>2021-08-07T08:23:47Z</time>
      </trkpt>
      <trkpt lat="50.79931" lon="2.536">
        <ele>29.94</ele>
        <time>2021-08-07T08:23:48Z</time>
      </trkpt>
      <trkpt lat="50.79926" lon="2.53605">
        <ele>29.94</ele>
        <time>2021-08-07T08:23:49Z</time>
      </trkpt>
      <trkpt lat="50.79899" lon="2.53631">
        <ele>32.34</ele>
        <time>2021-08-07T08:23:55Z</time>
      </trkpt>
      <trkpt lat="50.79888" lon="2.53643">
        <ele>33.3</ele>
        <time>2021-08-07T08:23:58Z</time>
      </trkpt>
      <trkpt lat="50.79884" lon="2.53647">
        <ele>33.78</ele>
        <time>2021-08-07T08:23:59Z</time>
      </trkpt>
      <trkpt lat="50.7988" lon="2.53651">
        <ele>33.78</ele>
        <time>2021-08-07T08:24:00Z</time>
      </trkpt>
      <trkpt lat="50.79877" lon="2.53655">
        <ele>33.78</ele>
        <time>2021-08-07T08:24:01Z</time>
      </trkpt>
      <trkpt lat="50.79874" lon="2.5366">
        <ele>33.78</ele>
        <time>2021-08-07T08:24:02Z</time>
      </trkpt>
      <trkpt lat="50.79872" lon="2.53665">
        <ele>33.78</ele>
        <time>2021-08-07T08:24:03Z</time>
      </trkpt>
      <trkpt lat="50.79871" lon="2.53672">
        <ele>33.78</ele>
        <time>2021-08-07T08:24:04Z</time>
      </trkpt>
      <trkpt lat="50.79871" lon="2.53678">
        <ele>33.78</ele>
        <time>2021-08-07T08:24:05Z</time>
      </trkpt>
      <trkpt lat="50.79872" lon="2.53684">
        <ele>33.78</ele>
        <time>2021-08-07T08:24:06Z</time>
      </trkpt>
      <trkpt lat="50.79872" lon="2.53691">
        <ele>33.78</ele>
        <time>2021-08-07T08:24:07Z</time>
      </trkpt>
      <trkpt lat="50.79873" lon="2.53698">
        <ele>33.78</ele>
        <time>2021-08-07T08:24:08Z</time>
      </trkpt>
      <trkpt lat="50.79884" lon="2.53768">
        <ele>33.78</ele>
        <time>2021-08-07T08:24:18Z</time>
      </trkpt>
      <trkpt lat="50.79885" lon="2.53783">
        <ele>33.78</ele>
        <time>2021-08-07T08:24:21Z</time>
      </trkpt>
      <trkpt lat="50.79887" lon="2.53784">
        <ele>33.78</ele>
        <time>2021-08-07T08:24:22Z</time>
      </trkpt>
      <trkpt lat="50.79886" lon="2.53777">
        <ele>33.78</ele>
        <time>2021-08-07T08:24:26Z</time>
      </trkpt>
      <trkpt lat="50.79885" lon="2.53778">
        <ele>33.78</ele>
        <time>2021-08-07T08:24:28Z</time>
      </trkpt>
      <trkpt lat="50.79888" lon="2.53789">
        <ele>33.78</ele>
        <time>2021-08-07T08:24:34Z</time>
      </trkpt>
      <trkpt lat="50.79888" lon="2.53793">
        <ele>33.78</ele>
        <time>2021-08-07T08:24:35Z</time>
      </trkpt>
      <trkpt lat="50.79889" lon="2.53798">
        <ele>33.78</ele>
        <time>2021-08-07T08:24:36Z</time>
      </trkpt>
      <trkpt lat="50.7989" lon="2.53804">
        <ele>33.78</ele>
        <time>2021-08-07T08:24:37Z</time>
      </trkpt>
      <trkpt lat="50.79894" lon="2.53848">
        <ele>33.78</ele>
        <time>2021-08-07T08:24:44Z</time>
      </trkpt>
      <trkpt lat="50.7989" lon="2.53855">
        <ele>33.78</ele>
        <time>2021-08-07T08:24:46Z</time>
      </trkpt>
      <trkpt lat="50.79887" lon="2.53856">
        <ele>33.78</ele>
        <time>2021-08-07T08:24:47Z</time>
      </trkpt>
      <trkpt lat="50.7987" lon="2.53861">
        <ele>33.78</ele>
        <time>2021-08-07T08:24:53Z</time>
      </trkpt>
      <trkpt lat="50.79862" lon="2.53865">
        <ele>34.26</ele>
        <time>2021-08-07T08:24:59Z</time>
      </trkpt>
      <trkpt lat="50.79863" lon="2.53865">
        <ele>34.26</ele>
        <time>2021-08-07T08:25:01Z</time>
      </trkpt>
      <trkpt lat="50.79862" lon="2.53889">
        <ele>34.26</ele>
        <time>2021-08-07T08:25:08Z</time>
      </trkpt>
      <trkpt lat="50.79863" lon="2.53925">
        <ele>34.74</ele>
        <time>2021-08-07T08:25:16Z</time>
      </trkpt>
      <trkpt lat="50.79862" lon="2.53928">
        <ele>34.74</ele>
        <time>2021-08-07T08:25:24Z</time>
      </trkpt>
      <trkpt lat="50.79864" lon="2.5393">
        <ele>34.74</ele>
        <time>2021-08-07T08:25:29Z</time>
      </trkpt>
      <trkpt lat="50.79865" lon="2.5393">
        <ele>34.74</ele>
        <time>2021-08-07T08:25:30Z</time>
      </trkpt>
      <trkpt lat="50.79867" lon="2.5393">
        <ele>34.74</ele>
        <time>2021-08-07T08:25:31Z</time>
      </trkpt>
      <trkpt lat="50.79868" lon="2.5393">
        <ele>34.74</ele>
        <time>2021-08-07T08:25:32Z</time>
      </trkpt>
      <trkpt lat="50.7987" lon="2.53929">
        <ele>34.74</ele>
        <time>2021-08-07T08:25:33Z</time>
      </trkpt>
      <trkpt lat="50.79874" lon="2.5393">
        <ele>34.74</ele>
        <time>2021-08-07T08:25:38Z</time>
      </trkpt>
      <trkpt lat="50.79874" lon="2.53931">
        <ele>35.23</ele>
        <time>2021-08-07T08:25:55Z</time>
      </trkpt>
      <trkpt lat="50.79875" lon="2.53929">
        <ele>35.23</ele>
        <time>2021-08-07T08:26:07Z</time>
      </trkpt>
      <trkpt lat="50.79875" lon="2.53927">
        <ele>35.23</ele>
        <time>2021-08-07T08:26:20Z</time>
      </trkpt>
      <trkpt lat="50.79876" lon="2.53925">
        <ele>35.23</ele>
        <time>2021-08-07T08:26:30Z</time>
      </trkpt>
      <trkpt lat="50.79876" lon="2.53925">
        <ele>35.23</ele>
        <time>2021-08-07T08:26:41Z</time>
      </trkpt>
      <trkpt lat="50.79875" lon="2.53926">
        <ele>35.23</ele>
        <time>2021-08-07T08:26:49Z</time>
      </trkpt>
      <trkpt lat="50.79874" lon="2.53927">
        <ele>35.23</ele>
        <time>2021-08-07T08:27:00Z</time>
      </trkpt>
      <trkpt lat="50.79874" lon="2.53923">
        <ele>35.71</ele>
        <time>2021-08-07T08:27:09Z</time>
      </trkpt>
      <trkpt lat="50.79873" lon="2.53922">
        <ele>35.71</ele>
        <time>2021-08-07T08:27:10Z</time>
      </trkpt>
      <trkpt lat="50.79871" lon="2.53921">
        <ele>35.71</ele>
        <time>2021-08-07T08:27:11Z</time>
      </trkpt>
      <trkpt lat="50.7987" lon="2.53921">
        <ele>35.71</ele>
        <time>2021-08-07T08:27:12Z</time>
      </trkpt>
      <trkpt lat="50.79868" lon="2.53922">
        <ele>35.71</ele>
        <time>2021-08-07T08:27:13Z</time>
      </trkpt>
      <trkpt lat="50.79866" lon="2.53922">
        <ele>34.74</ele>
        <time>2021-08-07T08:27:14Z</time>
      </trkpt>
      <trkpt lat="50.79864" lon="2.53922">
        <ele>34.74</ele>
        <time>2021-08-07T08:27:15Z</time>
      </trkpt>
      <trkpt lat="50.79862" lon="2.53919">
        <ele>34.74</ele>
        <time>2021-08-07T08:27:16Z</time>
      </trkpt>
      <trkpt lat="50.79862" lon="2.53916">
        <ele>34.26</ele>
        <time>2021-08-07T08:27:17Z</time>
      </trkpt>
      <trkpt lat="50.79861" lon="2.53912">
        <ele>34.26</ele>
        <time>2021-08-07T08:27:18Z</time>
      </trkpt>
      <trkpt lat="50.79862" lon="2.53907">
        <ele>34.26</ele>
        <time>2021-08-07T08:27:19Z</time>
      </trkpt>
      <trkpt lat="50.79862" lon="2.53902">
        <ele>34.26</ele>
        <time>2021-08-07T08:27:20Z</time>
      </trkpt>
      <trkpt lat="50.79866" lon="2.53861">
        <ele>34.26</ele>
        <time>2021-08-07T08:27:28Z</time>
      </trkpt>
      <trkpt lat="50.79868" lon="2.53859">
        <ele>34.26</ele>
        <time>2021-08-07T08:27:29Z</time>
      </trkpt>
      <trkpt lat="50.79871" lon="2.53854">
        <ele>34.26</ele>
        <time>2021-08-07T08:27:31Z</time>
      </trkpt>
      <trkpt lat="50.79871" lon="2.53852">
        <ele>34.26</ele>
        <time>2021-08-07T08:27:32Z</time>
      </trkpt>
      <trkpt lat="50.79871" lon="2.5385">
        <ele>33.78</ele>
        <time>2021-08-07T08:27:37Z</time>
      </trkpt>
      <trkpt lat="50.79872" lon="2.53833">
        <ele>33.78</ele>
        <time>2021-08-07T08:27:44Z</time>
      </trkpt>
      <trkpt lat="50.79873" lon="2.53831">
        <ele>33.78</ele>
        <time>2021-08-07T08:27:45Z</time>
      </trkpt>
      <trkpt lat="50.79874" lon="2.53832">
        <ele>33.78</ele>
        <time>2021-08-07T08:27:46Z</time>
      </trkpt>
      <trkpt lat="50.79875" lon="2.53834">
        <ele>33.78</ele>
        <time>2021-08-07T08:27:47Z</time>
      </trkpt>
      <trkpt lat="50.79874" lon="2.53836">
        <ele>33.78</ele>
        <time>2021-08-07T08:27:48Z</time>
      </trkpt>
      <trkpt lat="50.79872" lon="2.53839">
        <ele>33.78</ele>
        <time>2021-08-07T08:27:49Z</time>
      </trkpt>
      <trkpt lat="50.79869" lon="2.53848">
        <ele>33.78</ele>
        <time>2021-08-07T08:27:52Z</time>
      </trkpt>
      <trkpt lat="50.7987" lon="2.53851">
        <ele>33.78</ele>
        <time>2021-08-07T08:27:53Z</time>
      </trkpt>
      <trkpt lat="50.7987" lon="2.53853">
        <ele>33.78</ele>
        <time>2021-08-07T08:27:54Z</time>
      </trkpt>
      <trkpt lat="50.79872" lon="2.53856">
        <ele>33.78</ele>
        <time>2021-08-07T08:27:55Z</time>
      </trkpt>
      <trkpt lat="50.79875" lon="2.53858">
        <ele>33.78</ele>
        <time>2021-08-07T08:27:56Z</time>
      </trkpt>
      <trkpt lat="50.79878" lon="2.53857">
        <ele>33.78</ele>
        <time>2021-08-07T08:27:57Z</time>
      </trkpt>
      <trkpt lat="50.79881" lon="2.53855">
        <ele>33.78</ele>
        <time>2021-08-07T08:27:58Z</time>
      </trkpt>
      <trkpt lat="50.79885" lon="2.53854">
        <ele>33.78</ele>
        <time>2021-08-07T08:27:59Z</time>
      </trkpt>
      <trkpt lat="50.79905" lon="2.53852">
        <ele>33.78</ele>
        <time>2021-08-07T08:28:05Z</time>
      </trkpt>
      <trkpt lat="50.79913" lon="2.53865">
        <ele>32.82</ele>
        <time>2021-08-07T08:28:08Z</time>
      </trkpt>
      <trkpt lat="50.79915" lon="2.53871">
        <ele>32.82</ele>
        <time>2021-08-07T08:28:09Z</time>
      </trkpt>
      <trkpt lat="50.79917" lon="2.53877">
        <ele>32.82</ele>
        <time>2021-08-07T08:28:10Z</time>
      </trkpt>
      <trkpt lat="50.79918" lon="2.53884">
        <ele>32.82</ele>
        <time>2021-08-07T08:28:11Z</time>
      </trkpt>
      <trkpt lat="50.79919" lon="2.53891">
        <ele>32.82</ele>
        <time>2021-08-07T08:28:12Z</time>
      </trkpt>
      <trkpt lat="50.7992" lon="2.53899">
        <ele>32.82</ele>
        <time>2021-08-07T08:28:13Z</time>
      </trkpt>
      <trkpt lat="50.79921" lon="2.53931">
        <ele>32.34</ele>
        <time>2021-08-07T08:28:17Z</time>
      </trkpt>
      <trkpt lat="50.7992" lon="2.53938">
        <ele>32.34</ele>
        <time>2021-08-07T08:28:18Z</time>
      </trkpt>
      <trkpt lat="50.79917" lon="2.53944">
        <ele>32.34</ele>
        <time>2021-08-07T08:28:19Z</time>
      </trkpt>
      <trkpt lat="50.79913" lon="2.53948">
        <ele>32.34</ele>
        <time>2021-08-07T08:28:20Z</time>
      </trkpt>
      <trkpt lat="50.7991" lon="2.53951">
        <ele>32.34</ele>
        <time>2021-08-07T08:28:21Z</time>
      </trkpt>
      <trkpt lat="50.79881" lon="2.53971">
        <ele>33.78</ele>
        <time>2021-08-07T08:28:29Z</time>
      </trkpt>
      <trkpt lat="50.79873" lon="2.53976">
        <ele>33.78</ele>
        <time>2021-08-07T08:28:31Z</time>
      </trkpt>
      <trkpt lat="50.7987" lon="2.53978">
        <ele>34.26</ele>
        <time>2021-08-07T08:28:32Z</time>
      </trkpt>
      <trkpt lat="50.79868" lon="2.53983">
        <ele>34.26</ele>
        <time>2021-08-07T08:28:33Z</time>
      </trkpt>
      <trkpt lat="50.79867" lon="2.53989">
        <ele>34.26</ele>
        <time>2021-08-07T08:28:34Z</time>
      </trkpt>
      <trkpt lat="50.79867" lon="2.53995">
        <ele>34.26</ele>
        <time>2021-08-07T08:28:35Z</time>
      </trkpt>
      <trkpt lat="50.79866" lon="2.54002">
        <ele>34.26</ele>
        <time>2021-08-07T08:28:36Z</time>
      </trkpt>
      <trkpt lat="50.79866" lon="2.54012">
        <ele>34.26</ele>
        <time>2021-08-07T08:28:38Z</time>
      </trkpt>
      <trkpt lat="50.79864" lon="2.54017">
        <ele>34.26</ele>
        <time>2021-08-07T08:28:39Z</time>
      </trkpt>
      <trkpt lat="50.79863" lon="2.54021">
        <ele>34.74</ele>
        <time>2021-08-07T08:28:40Z</time>
      </trkpt>
      <trkpt lat="50.79863" lon="2.54024">
        <ele>35.23</ele>
        <time>2021-08-07T08:28:44Z</time>
      </trkpt>
      <trkpt lat="50.79864" lon="2.54028">
        <ele>35.23</ele>
        <time>2021-08-07T08:29:04Z</time>
      </trkpt>
      <trkpt lat="50.79864" lon="2.54029">
        <ele>35.23</ele>
        <time>2021-08-07T08:29:07Z</time>
      </trkpt>
      <trkpt lat="50.79864" lon="2.54031">
        <ele>35.23</ele>
        <time>2021-08-07T08:29:08Z</time>
      </trkpt>
      <trkpt lat="50.79865" lon="2.54032">
        <ele>33.78</ele>
        <time>2021-08-07T08:29:09Z</time>
      </trkpt>
      <trkpt lat="50.79866" lon="2.54034">
        <ele>34.26</ele>
        <time>2021-08-07T08:29:10Z</time>
      </trkpt>
      <trkpt lat="50.79867" lon="2.54034">
        <ele>34.26</ele>
        <time>2021-08-07T08:29:11Z</time>
      </trkpt>
      <trkpt lat="50.79868" lon="2.54033">
        <ele>34.26</ele>
        <time>2021-08-07T08:29:12Z</time>
      </trkpt>
      <trkpt lat="50.79869" lon="2.5403">
        <ele>33.78</ele>
        <time>2021-08-07T08:29:13Z</time>
      </trkpt>
      <trkpt lat="50.79869" lon="2.54027">
        <ele>33.78</ele>
        <time>2021-08-07T08:29:14Z</time>
      </trkpt>
      <trkpt lat="50.7987" lon="2.54024">
        <ele>33.78</ele>
        <time>2021-08-07T08:29:15Z</time>
      </trkpt>
      <trkpt lat="50.79866" lon="2.54001">
        <ele>33.78</ele>
        <time>2021-08-07T08:29:20Z</time>
      </trkpt>
      <trkpt lat="50.79861" lon="2.53975">
        <ele>34.26</ele>
        <time>2021-08-07T08:29:27Z</time>
      </trkpt>
      <trkpt lat="50.7986" lon="2.53975">
        <ele>34.26</ele>
        <time>2021-08-07T08:29:33Z</time>
      </trkpt>
      <trkpt lat="50.7986" lon="2.53971">
        <ele>34.26</ele>
        <time>2021-08-07T08:29:40Z</time>
      </trkpt>
      <trkpt lat="50.7986" lon="2.53971">
        <ele>35.23</ele>
        <time>2021-08-07T08:29:42Z</time>
      </trkpt>
      <trkpt lat="50.79861" lon="2.53973">
        <ele>35.23</ele>
        <time>2021-08-07T08:29:58Z</time>
      </trkpt>
      <trkpt lat="50.7986" lon="2.53972">
        <ele>35.23</ele>
        <time>2021-08-07T08:30:14Z</time>
      </trkpt>
      <trkpt lat="50.7986" lon="2.53971">
        <ele>35.23</ele>
        <time>2021-08-07T08:30:32Z</time>
      </trkpt>
      <trkpt lat="50.7986" lon="2.53973">
        <ele>35.23</ele>
        <time>2021-08-07T08:30:48Z</time>
      </trkpt>
      <trkpt lat="50.7986" lon="2.53972">
        <ele>35.23</ele>
        <time>2021-08-07T08:31:08Z</time>
      </trkpt>
      <trkpt lat="50.7986" lon="2.53971">
        <ele>35.23</ele>
        <time>2021-08-07T08:31:33Z</time>
      </trkpt>
      <trkpt lat="50.7986" lon="2.5397">
        <ele>35.23</ele>
        <time>2021-08-07T08:31:51Z</time>
      </trkpt>
      <trkpt lat="50.7986" lon="2.53971">
        <ele>35.23</ele>
        <time>2021-08-07T08:32:08Z</time>
      </trkpt>
      <trkpt lat="50.79859" lon="2.53971">
        <ele>35.23</ele>
        <time>2021-08-07T08:32:29Z</time>
      </trkpt>
      <trkpt lat="50.79858" lon="2.53971">
        <ele>35.71</ele>
        <time>2021-08-07T08:32:59Z</time>
      </trkpt>
      <trkpt lat="50.7986" lon="2.53972">
        <ele>35.71</ele>
        <time>2021-08-07T08:33:26Z</time>
      </trkpt>
      <trkpt lat="50.79861" lon="2.53973">
        <ele>34.26</ele>
        <time>2021-08-07T08:33:53Z</time>
      </trkpt>
      <trkpt lat="50.79862" lon="2.53974">
        <ele>34.26</ele>
        <time>2021-08-07T08:34:06Z</time>
      </trkpt>
      <trkpt lat="50.79864" lon="2.53974">
        <ele>34.26</ele>
        <time>2021-08-07T08:34:09Z</time>
      </trkpt>
      <trkpt lat="50.79865" lon="2.53975">
        <ele>34.26</ele>
        <time>2021-08-07T08:34:13Z</time>
      </trkpt>
      <trkpt lat="50.79862" lon="2.5397">
        <ele>34.26</ele>
        <time>2021-08-07T08:34:28Z</time>
      </trkpt>
      <trkpt lat="50.7986" lon="2.53974">
        <ele>34.26</ele>
        <time>2021-08-07T08:34:47Z</time>
      </trkpt>
      <trkpt lat="50.7986" lon="2.53973">
        <ele>35.71</ele>
        <time>2021-08-07T08:35:12Z</time>
      </trkpt>
      <trkpt lat="50.79861" lon="2.53973">
        <ele>35.71</ele>
        <time>2021-08-07T08:35:33Z</time>
      </trkpt>
      <trkpt lat="50.79861" lon="2.53972">
        <ele>35.71</ele>
        <time>2021-08-07T08:36:02Z</time>
      </trkpt>
      <trkpt lat="50.7986" lon="2.53973">
        <ele>35.71</ele>
        <time>2021-08-07T08:36:24Z</time>
      </trkpt>
      <trkpt lat="50.7986" lon="2.53973">
        <ele>35.23</ele>
        <time>2021-08-07T08:36:42Z</time>
      </trkpt>
      <trkpt lat="50.79859" lon="2.53972">
        <ele>35.23</ele>
        <time>2021-08-07T08:37:05Z</time>
      </trkpt>
      <trkpt lat="50.7986" lon="2.53972">
        <ele>35.23</ele>
        <time>2021-08-07T08:37:29Z</time>
      </trkpt>
      <trkpt lat="50.79859" lon="2.53974">
        <ele>35.23</ele>
        <time>2021-08-07T08:37:47Z</time>
      </trkpt>
      <trkpt lat="50.79859" lon="2.53975">
        <ele>35.23</ele>
        <time>2021-08-07T08:38:07Z</time>
      </trkpt>
      <trkpt lat="50.7986" lon="2.53973">
        <ele>35.23</ele>
        <time>2021-08-07T08:38:23Z</time>
      </trkpt>
      <trkpt lat="50.79859" lon="2.53974">
        <ele>35.23</ele>
        <time>2021-08-07T08:38:42Z</time>
      </trkpt>
      <trkpt lat="50.79858" lon="2.53974">
        <ele>35.23</ele>
        <time>2021-08-07T08:38:59Z</time>
      </trkpt>
      <trkpt lat="50.7986" lon="2.53972">
        <ele>35.23</ele>
        <time>2021-08-07T08:39:15Z</time>
      </trkpt>
      <trkpt lat="50.7986" lon="2.53971">
        <ele>35.23</ele>
        <time>2021-08-07T08:39:33Z</time>
      </trkpt>
      <trkpt lat="50.79859" lon="2.53972">
        <ele>35.23</ele>
        <time>2021-08-07T08:39:52Z</time>
      </trkpt>
      <trkpt lat="50.79859" lon="2.53972">
        <ele>34.74</ele>
        <time>2021-08-07T08:40:08Z</time>
      </trkpt>
      <trkpt lat="50.7986" lon="2.53971">
        <ele>34.74</ele>
        <time>2021-08-07T08:40:28Z</time>
      </trkpt>
      <trkpt lat="50.7986" lon="2.53971">
        <ele>34.74</ele>
        <time>2021-08-07T08:40:41Z</time>
      </trkpt>
      <trkpt lat="50.79859" lon="2.53971">
        <ele>34.74</ele>
        <time>2021-08-07T08:40:56Z</time>
      </trkpt>
      <trkpt lat="50.7986" lon="2.5397">
        <ele>34.74</ele>
        <time>2021-08-07T08:41:08Z</time>
      </trkpt>
      <trkpt lat="50.7986" lon="2.53969">
        <ele>34.74</ele>
        <time>2021-08-07T08:41:27Z</time>
      </trkpt>
      <trkpt lat="50.7986" lon="2.53972">
        <ele>34.74</ele>
        <time>2021-08-07T08:41:46Z</time>
      </trkpt>
      <trkpt lat="50.79861" lon="2.53972">
        <ele>34.74</ele>
        <time>2021-08-07T08:42:05Z</time>
      </trkpt>
      <trkpt lat="50.79861" lon="2.53972">
        <ele>34.74</ele>
        <time>2021-08-07T08:42:20Z</time>
      </trkpt>
      <trkpt lat="50.7986" lon="2.53972">
        <ele>34.74</ele>
        <time>2021-08-07T08:42:40Z</time>
      </trkpt>
      <trkpt lat="50.79859" lon="2.53973">
        <ele>34.74</ele>
        <time>2021-08-07T08:42:58Z</time>
      </trkpt>
      <trkpt lat="50.79859" lon="2.53973">
        <ele>34.74</ele>
        <time>2021-08-07T08:43:18Z</time>
      </trkpt>
      <trkpt lat="50.7986" lon="2.53972">
        <ele>34.74</ele>
        <time>2021-08-07T08:43:31Z</time>
      </trkpt>
      <trkpt lat="50.7986" lon="2.53973">
        <ele>34.74</ele>
        <time>2021-08-07T08:43:45Z</time>
      </trkpt>
      <trkpt lat="50.79861" lon="2.53973">
        <ele>34.74</ele>
        <time>2021-08-07T08:44:07Z</time>
      </trkpt>
      <trkpt lat="50.7986" lon="2.53973">
        <ele>34.74</ele>
        <time>2021-08-07T08:44:23Z</time>
      </trkpt>
      <trkpt lat="50.7986" lon="2.53974">
        <ele>34.26</ele>
        <time>2021-08-07T08:44:38Z</time>
      </trkpt>
      <trkpt lat="50.7986" lon="2.53972">
        <ele>34.26</ele>
        <time>2021-08-07T08:44:57Z</time>
      </trkpt>
      <trkpt lat="50.7986" lon="2.53972">
        <ele>34.26</ele>
        <time>2021-08-07T08:45:08Z</time>
      </trkpt>
      <trkpt lat="50.7986" lon="2.53969">
        <ele>34.26</ele>
        <time>2021-08-07T08:45:10Z</time>
      </trkpt>
      <trkpt lat="50.79861" lon="2.53966">
        <ele>34.26</ele>
        <time>2021-08-07T08:45:11Z</time>
      </trkpt>
      <trkpt lat="50.7986" lon="2.53936">
        <ele>34.26</ele>
        <time>2021-08-07T08:45:18Z</time>
      </trkpt>
      <trkpt lat="50.79858" lon="2.53932">
        <ele>34.26</ele>
        <time>2021-08-07T08:45:19Z</time>
      </trkpt>
      <trkpt lat="50.79856" lon="2.53929">
        <ele>34.26</ele>
        <time>2021-08-07T08:45:20Z</time>
      </trkpt>
      <trkpt lat="50.79854" lon="2.53927">
        <ele>34.74</ele>
        <time>2021-08-07T08:45:21Z</time>
      </trkpt>
      <trkpt lat="50.79851" lon="2.53927">
        <ele>34.74</ele>
        <time>2021-08-07T08:45:22Z</time>
      </trkpt>
      <trkpt lat="50.79849" lon="2.53927">
        <ele>35.23</ele>
        <time>2021-08-07T08:45:23Z</time>
      </trkpt>
      <trkpt lat="50.79847" lon="2.53928">
        <ele>35.23</ele>
        <time>2021-08-07T08:45:24Z</time>
      </trkpt>
      <trkpt lat="50.79845" lon="2.53929">
        <ele>35.23</ele>
        <time>2021-08-07T08:45:25Z</time>
      </trkpt>
      <trkpt lat="50.79842" lon="2.5393">
        <ele>36.19</ele>
        <time>2021-08-07T08:45:26Z</time>
      </trkpt>
      <trkpt lat="50.7984" lon="2.53931">
        <ele>36.19</ele>
        <time>2021-08-07T08:45:27Z</time>
      </trkpt>
      <trkpt lat="50.79835" lon="2.53932">
        <ele>34.74</ele>
        <time>2021-08-07T08:45:29Z</time>
      </trkpt>
      <trkpt lat="50.79829" lon="2.53932">
        <ele>34.74</ele>
        <time>2021-08-07T08:45:34Z</time>
      </trkpt>
      <trkpt lat="50.79828" lon="2.53932">
        <ele>35.71</ele>
        <time>2021-08-07T08:45:41Z</time>
      </trkpt>
      <trkpt lat="50.79827" lon="2.53931">
        <ele>35.71</ele>
        <time>2021-08-07T08:45:48Z</time>
      </trkpt>
      <trkpt lat="50.79825" lon="2.53938">
        <ele>35.71</ele>
        <time>2021-08-07T08:46:00Z</time>
      </trkpt>
      <trkpt lat="50.79823" lon="2.53941">
        <ele>35.71</ele>
        <time>2021-08-07T08:46:16Z</time>
      </trkpt>
      <trkpt lat="50.79824" lon="2.53946">
        <ele>35.71</ele>
        <time>2021-08-07T08:46:33Z</time>
      </trkpt>
      <trkpt lat="50.79823" lon="2.53948">
        <ele>35.71</ele>
        <time>2021-08-07T08:46:45Z</time>
      </trkpt>
      <trkpt lat="50.79822" lon="2.5395">
        <ele>35.71</ele>
        <time>2021-08-07T08:46:59Z</time>
      </trkpt>
      <trkpt lat="50.79821" lon="2.53948">
        <ele>35.71</ele>
        <time>2021-08-07T08:47:16Z</time>
      </trkpt>
      <trkpt lat="50.79821" lon="2.53943">
        <ele>35.71</ele>
        <time>2021-08-07T08:47:29Z</time>
      </trkpt>
      <trkpt lat="50.7982" lon="2.53944">
        <ele>35.71</ele>
        <time>2021-08-07T08:47:42Z</time>
      </trkpt>
      <trkpt lat="50.7982" lon="2.53942">
        <ele>35.71</ele>
        <time>2021-08-07T08:47:58Z</time>
      </trkpt>
      <trkpt lat="50.79821" lon="2.53943">
        <ele>35.71</ele>
        <time>2021-08-07T08:48:07Z</time>
      </trkpt>
      <trkpt lat="50.79824" lon="2.53945">
        <ele>35.71</ele>
        <time>2021-08-07T08:48:27Z</time>
      </trkpt>
      <trkpt lat="50.79823" lon="2.53946">
        <ele>35.71</ele>
        <time>2021-08-07T08:48:31Z</time>
      </trkpt>
      <trkpt lat="50.7982" lon="2.53945">
        <ele>35.71</ele>
        <time>2021-08-07T08:48:32Z</time>
      </trkpt>
      <trkpt lat="50.79818" lon="2.53944">
        <ele>35.71</ele>
        <time>2021-08-07T08:48:33Z</time>
      </trkpt>
      <trkpt lat="50.79819" lon="2.53943">
        <ele>35.71</ele>
        <time>2021-08-07T08:48:37Z</time>
      </trkpt>
      <trkpt lat="50.79819" lon="2.53945">
        <ele>34.26</ele>
        <time>2021-08-07T08:48:41Z</time>
      </trkpt>
      <trkpt lat="50.79821" lon="2.53953">
        <ele>34.26</ele>
        <time>2021-08-07T08:48:58Z</time>
      </trkpt>
      <trkpt lat="50.79823" lon="2.53946">
        <ele>34.26</ele>
        <time>2021-08-07T08:49:13Z</time>
      </trkpt>
      <trkpt lat="50.79826" lon="2.53939">
        <ele>34.26</ele>
        <time>2021-08-07T08:49:29Z</time>
      </trkpt>
      <trkpt lat="50.79827" lon="2.53943">
        <ele>34.26</ele>
        <time>2021-08-07T08:49:38Z</time>
      </trkpt>
      <trkpt lat="50.79826" lon="2.53944">
        <ele>34.26</ele>
        <time>2021-08-07T08:49:51Z</time>
      </trkpt>
      <trkpt lat="50.79825" lon="2.53946">
        <ele>34.26</ele>
        <time>2021-08-07T08:50:07Z</time>
      </trkpt>
      <trkpt lat="50.79824" lon="2.5395">
        <ele>34.26</ele>
        <time>2021-08-07T08:50:21Z</time>
      </trkpt>
      <trkpt lat="50.79826" lon="2.53947">
        <ele>34.26</ele>
        <time>2021-08-07T08:50:35Z</time>
      </trkpt>
      <trkpt lat="50.79826" lon="2.53944">
        <ele>33.78</ele>
        <time>2021-08-07T08:50:56Z</time>
      </trkpt>
      <trkpt lat="50.79826" lon="2.53946">
        <ele>33.78</ele>
        <time>2021-08-07T08:51:12Z</time>
      </trkpt>
      <trkpt lat="50.79826" lon="2.53944">
        <ele>33.78</ele>
        <time>2021-08-07T08:51:25Z</time>
      </trkpt>
      <trkpt lat="50.79825" lon="2.53942">
        <ele>33.78</ele>
        <time>2021-08-07T08:51:39Z</time>
      </trkpt>
      <trkpt lat="50.79825" lon="2.53943">
        <ele>33.78</ele>
        <time>2021-08-07T08:51:57Z</time>
      </trkpt>
      <trkpt lat="50.79826" lon="2.53945">
        <ele>33.3</ele>
        <time>2021-08-07T08:52:11Z</time>
      </trkpt>
      <trkpt lat="50.79826" lon="2.53945">
        <ele>34.74</ele>
        <time>2021-08-07T08:52:14Z</time>
      </trkpt>
      <trkpt lat="50.79826" lon="2.53944">
        <ele>34.74</ele>
        <time>2021-08-07T08:52:30Z</time>
      </trkpt>
      <trkpt lat="50.79826" lon="2.53943">
        <ele>34.74</ele>
        <time>2021-08-07T08:52:48Z</time>
      </trkpt>
      <trkpt lat="50.79827" lon="2.53942">
        <ele>34.74</ele>
        <time>2021-08-07T08:52:52Z</time>
      </trkpt>
      <trkpt lat="50.79828" lon="2.5394">
        <ele>35.23</ele>
        <time>2021-08-07T08:52:58Z</time>
      </trkpt>
      <trkpt lat="50.79834" lon="2.53935">
        <ele>33.78</ele>
        <time>2021-08-07T08:53:06Z</time>
      </trkpt>
      <trkpt lat="50.79851" lon="2.53928">
        <ele>33.78</ele>
        <time>2021-08-07T08:53:12Z</time>
      </trkpt>
      <trkpt lat="50.79855" lon="2.5393">
        <ele>33.78</ele>
        <time>2021-08-07T08:53:13Z</time>
      </trkpt>
      <trkpt lat="50.79858" lon="2.53934">
        <ele>33.3</ele>
        <time>2021-08-07T08:53:14Z</time>
      </trkpt>
      <trkpt lat="50.7986" lon="2.5394">
        <ele>33.3</ele>
        <time>2021-08-07T08:53:15Z</time>
      </trkpt>
      <trkpt lat="50.7986" lon="2.53947">
        <ele>33.3</ele>
        <time>2021-08-07T08:53:16Z</time>
      </trkpt>
      <trkpt lat="50.79861" lon="2.53954">
        <ele>33.3</ele>
        <time>2021-08-07T08:53:17Z</time>
      </trkpt>
      <trkpt lat="50.79863" lon="2.53961">
        <ele>32.34</ele>
        <time>2021-08-07T08:53:18Z</time>
      </trkpt>
      <trkpt lat="50.79869" lon="2.54018">
        <ele>32.34</ele>
        <time>2021-08-07T08:53:26Z</time>
      </trkpt>
      <trkpt lat="50.79868" lon="2.54031">
        <ele>31.86</ele>
        <time>2021-08-07T08:53:28Z</time>
      </trkpt>
      <trkpt lat="50.79866" lon="2.54037">
        <ele>31.86</ele>
        <time>2021-08-07T08:53:29Z</time>
      </trkpt>
      <trkpt lat="50.79863" lon="2.54042">
        <ele>31.86</ele>
        <time>2021-08-07T08:53:30Z</time>
      </trkpt>
      <trkpt lat="50.79838" lon="2.54056">
        <ele>31.86</ele>
        <time>2021-08-07T08:53:37Z</time>
      </trkpt>
      <trkpt lat="50.79827" lon="2.54063">
        <ele>33.3</ele>
        <time>2021-08-07T08:53:40Z</time>
      </trkpt>
      <trkpt lat="50.79823" lon="2.54065">
        <ele>33.3</ele>
        <time>2021-08-07T08:53:41Z</time>
      </trkpt>
      <trkpt lat="50.7982" lon="2.54068">
        <ele>33.3</ele>
        <time>2021-08-07T08:53:42Z</time>
      </trkpt>
      <trkpt lat="50.79787" lon="2.54091">
        <ele>33.3</ele>
        <time>2021-08-07T08:53:50Z</time>
      </trkpt>
      <trkpt lat="50.79766" lon="2.54107">
        <ele>33.3</ele>
        <time>2021-08-07T08:53:55Z</time>
      </trkpt>
      <trkpt lat="50.79729" lon="2.54149">
        <ele>33.3</ele>
        <time>2021-08-07T08:54:04Z</time>
      </trkpt>
      <trkpt lat="50.7969" lon="2.54196">
        <ele>32.34</ele>
        <time>2021-08-07T08:54:13Z</time>
      </trkpt>
      <trkpt lat="50.79648" lon="2.54244">
        <ele>31.86</ele>
        <time>2021-08-07T08:54:22Z</time>
      </trkpt>
      <trkpt lat="50.79586" lon="2.54309">
        <ele>29.94</ele>
        <time>2021-08-07T08:54:34Z</time>
      </trkpt>
      <trkpt lat="50.79572" lon="2.54327">
        <ele>29.94</ele>
        <time>2021-08-07T08:54:37Z</time>
      </trkpt>
      <trkpt lat="50.79568" lon="2.54336">
        <ele>29.94</ele>
        <time>2021-08-07T08:54:38Z</time>
      </trkpt>
      <trkpt lat="50.79566" lon="2.54344">
        <ele>29.94</ele>
        <time>2021-08-07T08:54:39Z</time>
      </trkpt>
      <trkpt lat="50.79565" lon="2.54354">
        <ele>29.94</ele>
        <time>2021-08-07T08:54:40Z</time>
      </trkpt>
      <trkpt lat="50.79566" lon="2.54363">
        <ele>29.94</ele>
        <time>2021-08-07T08:54:41Z</time>
      </trkpt>
      <trkpt lat="50.79567" lon="2.54372">
        <ele>29.94</ele>
        <time>2021-08-07T08:54:42Z</time>
      </trkpt>
      <trkpt lat="50.79568" lon="2.54381">
        <ele>29.94</ele>
        <time>2021-08-07T08:54:43Z</time>
      </trkpt>
      <trkpt lat="50.79579" lon="2.54437">
        <ele>29.94</ele>
        <time>2021-08-07T08:54:49Z</time>
      </trkpt>
      <trkpt lat="50.7958" lon="2.54446">
        <ele>29.94</ele>
        <time>2021-08-07T08:54:50Z</time>
      </trkpt>
      <trkpt lat="50.79581" lon="2.54483">
        <ele>31.38</ele>
        <time>2021-08-07T08:54:54Z</time>
      </trkpt>
      <trkpt lat="50.79579" lon="2.54492">
        <ele>31.38</ele>
        <time>2021-08-07T08:54:55Z</time>
      </trkpt>
      <trkpt lat="50.79568" lon="2.54549">
        <ele>31.86</ele>
        <time>2021-08-07T08:55:02Z</time>
      </trkpt>
      <trkpt lat="50.79559" lon="2.54608">
        <ele>32.82</ele>
        <time>2021-08-07T08:55:09Z</time>
      </trkpt>
      <trkpt lat="50.79559" lon="2.54616">
        <ele>32.82</ele>
        <time>2021-08-07T08:55:10Z</time>
      </trkpt>
      <trkpt lat="50.79559" lon="2.54625">
        <ele>32.82</ele>
        <time>2021-08-07T08:55:11Z</time>
      </trkpt>
      <trkpt lat="50.7956" lon="2.54634">
        <ele>32.82</ele>
        <time>2021-08-07T08:55:12Z</time>
      </trkpt>
      <trkpt lat="50.79561" lon="2.54642">
        <ele>32.34</ele>
        <time>2021-08-07T08:55:13Z</time>
      </trkpt>
      <trkpt lat="50.79562" lon="2.5465">
        <ele>33.3</ele>
        <time>2021-08-07T08:55:14Z</time>
      </trkpt>
      <trkpt lat="50.79564" lon="2.54659">
        <ele>33.3</ele>
        <time>2021-08-07T08:55:15Z</time>
      </trkpt>
      <trkpt lat="50.7958" lon="2.54736">
        <ele>33.3</ele>
        <time>2021-08-07T08:55:24Z</time>
      </trkpt>
      <trkpt lat="50.79598" lon="2.54833">
        <ele>33.3</ele>
        <time>2021-08-07T08:55:34Z</time>
      </trkpt>
      <trkpt lat="50.79608" lon="2.54883">
        <ele>31.86</ele>
        <time>2021-08-07T08:55:39Z</time>
      </trkpt>
      <trkpt lat="50.79628" lon="2.54983">
        <ele>31.86</ele>
        <time>2021-08-07T08:55:49Z</time>
      </trkpt>
      <trkpt lat="50.79646" lon="2.55071">
        <ele>31.86</ele>
        <time>2021-08-07T08:55:58Z</time>
      </trkpt>
      <trkpt lat="50.7966" lon="2.55149">
        <ele>31.86</ele>
        <time>2021-08-07T08:56:06Z</time>
      </trkpt>
      <trkpt lat="50.79674" lon="2.55217">
        <ele>31.38</ele>
        <time>2021-08-07T08:56:13Z</time>
      </trkpt>
      <trkpt lat="50.79688" lon="2.55445">
        <ele>30.9</ele>
        <time>2021-08-07T08:56:34Z</time>
      </trkpt>
      <trkpt lat="50.79688" lon="2.55456">
        <ele>30.9</ele>
        <time>2021-08-07T08:56:35Z</time>
      </trkpt>
      <trkpt lat="50.79695" lon="2.55567">
        <ele>30.9</ele>
        <time>2021-08-07T08:56:45Z</time>
      </trkpt>
      <trkpt lat="50.7969" lon="2.5562">
        <ele>29.94</ele>
        <time>2021-08-07T08:56:50Z</time>
      </trkpt>
      <trkpt lat="50.7968" lon="2.55675">
        <ele>31.38</ele>
        <time>2021-08-07T08:56:56Z</time>
      </trkpt>
      <trkpt lat="50.7968" lon="2.55679">
        <ele>31.86</ele>
        <time>2021-08-07T08:56:57Z</time>
      </trkpt>
      <trkpt lat="50.79681" lon="2.55678">
        <ele>31.86</ele>
        <time>2021-08-07T08:56:58Z</time>
      </trkpt>
      <trkpt lat="50.79682" lon="2.55676">
        <ele>31.86</ele>
        <time>2021-08-07T08:56:59Z</time>
      </trkpt>
      <trkpt lat="50.79682" lon="2.55672">
        <ele>31.86</ele>
        <time>2021-08-07T08:57:00Z</time>
      </trkpt>
      <trkpt lat="50.79683" lon="2.55669">
        <ele>31.86</ele>
        <time>2021-08-07T08:57:01Z</time>
      </trkpt>
      <trkpt lat="50.79684" lon="2.55665">
        <ele>31.86</ele>
        <time>2021-08-07T08:57:02Z</time>
      </trkpt>
      <trkpt lat="50.79686" lon="2.55661">
        <ele>31.86</ele>
        <time>2021-08-07T08:57:03Z</time>
      </trkpt>
      <trkpt lat="50.7969" lon="2.55657">
        <ele>31.86</ele>
        <time>2021-08-07T08:57:04Z</time>
      </trkpt>
      <trkpt lat="50.79694" lon="2.55655">
        <ele>31.86</ele>
        <time>2021-08-07T08:57:05Z</time>
      </trkpt>
      <trkpt lat="50.79699" lon="2.55653">
        <ele>30.9</ele>
        <time>2021-08-07T08:57:06Z</time>
      </trkpt>
      <trkpt lat="50.79704" lon="2.55653">
        <ele>30.9</ele>
        <time>2021-08-07T08:57:07Z</time>
      </trkpt>
      <trkpt lat="50.79709" lon="2.55654">
        <ele>30.42</ele>
        <time>2021-08-07T08:57:08Z</time>
      </trkpt>
      <trkpt lat="50.79713" lon="2.55659">
        <ele>29.94</ele>
        <time>2021-08-07T08:57:09Z</time>
      </trkpt>
      <trkpt lat="50.79716" lon="2.55667">
        <ele>29.94</ele>
        <time>2021-08-07T08:57:10Z</time>
      </trkpt>
      <trkpt lat="50.79719" lon="2.55675">
        <ele>29.46</ele>
        <time>2021-08-07T08:57:11Z</time>
      </trkpt>
      <trkpt lat="50.79721" lon="2.55683">
        <ele>29.46</ele>
        <time>2021-08-07T08:57:12Z</time>
      </trkpt>
      <trkpt lat="50.79724" lon="2.55692">
        <ele>29.46</ele>
        <time>2021-08-07T08:57:13Z</time>
      </trkpt>
      <trkpt lat="50.79748" lon="2.55769">
        <ele>29.46</ele>
        <time>2021-08-07T08:57:22Z</time>
      </trkpt>
      <trkpt lat="50.79773" lon="2.55828">
        <ele>28.98</ele>
        <time>2021-08-07T08:57:29Z</time>
      </trkpt>
      <trkpt lat="50.79806" lon="2.55908">
        <ele>28.98</ele>
        <time>2021-08-07T08:57:38Z</time>
      </trkpt>
      <trkpt lat="50.79813" lon="2.55919">
        <ele>28.98</ele>
        <time>2021-08-07T08:57:40Z</time>
      </trkpt>
      <trkpt lat="50.79816" lon="2.55924">
        <ele>28.98</ele>
        <time>2021-08-07T08:57:41Z</time>
      </trkpt>
      <trkpt lat="50.79841" lon="2.55972">
        <ele>28.98</ele>
        <time>2021-08-07T08:57:50Z</time>
      </trkpt>
      <trkpt lat="50.79864" lon="2.56028">
        <ele>28.5</ele>
        <time>2021-08-07T08:57:59Z</time>
      </trkpt>
      <trkpt lat="50.79881" lon="2.56079">
        <ele>28.5</ele>
        <time>2021-08-07T08:58:07Z</time>
      </trkpt>
      <trkpt lat="50.799" lon="2.56143">
        <ele>27.53</ele>
        <time>2021-08-07T08:58:17Z</time>
      </trkpt>
      <trkpt lat="50.79911" lon="2.56174">
        <ele>27.53</ele>
        <time>2021-08-07T08:58:22Z</time>
      </trkpt>
      <trkpt lat="50.79916" lon="2.56185">
        <ele>27.53</ele>
        <time>2021-08-07T08:58:24Z</time>
      </trkpt>
      <trkpt lat="50.79919" lon="2.56193">
        <ele>27.53</ele>
        <time>2021-08-07T08:58:26Z</time>
      </trkpt>
      <trkpt lat="50.79933" lon="2.5623">
        <ele>26.57</ele>
        <time>2021-08-07T08:58:32Z</time>
      </trkpt>
      <trkpt lat="50.79946" lon="2.56277">
        <ele>26.57</ele>
        <time>2021-08-07T08:58:40Z</time>
      </trkpt>
      <trkpt lat="50.79954" lon="2.56305">
        <ele>26.57</ele>
        <time>2021-08-07T08:58:46Z</time>
      </trkpt>
      <trkpt lat="50.79966" lon="2.56337">
        <ele>26.09</ele>
        <time>2021-08-07T08:58:53Z</time>
      </trkpt>
      <trkpt lat="50.79985" lon="2.56391">
        <ele>25.13</ele>
        <time>2021-08-07T08:59:01Z</time>
      </trkpt>
      <trkpt lat="50.80005" lon="2.56454">
        <ele>24.65</ele>
        <time>2021-08-07T08:59:09Z</time>
      </trkpt>
      <trkpt lat="50.80006" lon="2.56461">
        <ele>24.65</ele>
        <time>2021-08-07T08:59:10Z</time>
      </trkpt>
      <trkpt lat="50.80008" lon="2.5647">
        <ele>24.65</ele>
        <time>2021-08-07T08:59:11Z</time>
      </trkpt>
      <trkpt lat="50.80011" lon="2.56476">
        <ele>24.65</ele>
        <time>2021-08-07T08:59:12Z</time>
      </trkpt>
      <trkpt lat="50.80015" lon="2.56481">
        <ele>24.65</ele>
        <time>2021-08-07T08:59:13Z</time>
      </trkpt>
      <trkpt lat="50.80019" lon="2.56483">
        <ele>24.65</ele>
        <time>2021-08-07T08:59:14Z</time>
      </trkpt>
      <trkpt lat="50.80025" lon="2.56484">
        <ele>24.65</ele>
        <time>2021-08-07T08:59:15Z</time>
      </trkpt>
      <trkpt lat="50.80036" lon="2.56486">
        <ele>24.17</ele>
        <time>2021-08-07T08:59:17Z</time>
      </trkpt>
      <trkpt lat="50.8009" lon="2.56503">
        <ele>24.17</ele>
        <time>2021-08-07T08:59:26Z</time>
      </trkpt>
      <trkpt lat="50.80155" lon="2.56517">
        <ele>24.17</ele>
        <time>2021-08-07T08:59:37Z</time>
      </trkpt>
      <trkpt lat="50.80159" lon="2.56521">
        <ele>24.17</ele>
        <time>2021-08-07T08:59:38Z</time>
      </trkpt>
      <trkpt lat="50.80163" lon="2.56527">
        <ele>24.17</ele>
        <time>2021-08-07T08:59:39Z</time>
      </trkpt>
      <trkpt lat="50.80166" lon="2.56534">
        <ele>24.17</ele>
        <time>2021-08-07T08:59:40Z</time>
      </trkpt>
      <trkpt lat="50.80167" lon="2.56542">
        <ele>24.17</ele>
        <time>2021-08-07T08:59:41Z</time>
      </trkpt>
      <trkpt lat="50.80167" lon="2.5655">
        <ele>24.17</ele>
        <time>2021-08-07T08:59:42Z</time>
      </trkpt>
      <trkpt lat="50.80169" lon="2.5658">
        <ele>24.17</ele>
        <time>2021-08-07T08:59:47Z</time>
      </trkpt>
      <trkpt lat="50.80179" lon="2.56613">
        <ele>25.13</ele>
        <time>2021-08-07T08:59:55Z</time>
      </trkpt>
      <trkpt lat="50.80191" lon="2.56641">
        <ele>25.13</ele>
        <time>2021-08-07T09:00:02Z</time>
      </trkpt>
      <trkpt lat="50.8021" lon="2.56685">
        <ele>25.61</ele>
        <time>2021-08-07T09:00:12Z</time>
      </trkpt>
      <trkpt lat="50.80224" lon="2.56718">
        <ele>25.61</ele>
        <time>2021-08-07T09:00:20Z</time>
      </trkpt>
      <trkpt lat="50.80236" lon="2.56743">
        <ele>26.09</ele>
        <time>2021-08-07T09:00:28Z</time>
      </trkpt>
      <trkpt lat="50.80248" lon="2.56765">
        <ele>26.57</ele>
        <time>2021-08-07T09:00:35Z</time>
      </trkpt>
      <trkpt lat="50.80266" lon="2.568">
        <ele>26.57</ele>
        <time>2021-08-07T09:00:45Z</time>
      </trkpt>
      <trkpt lat="50.80276" lon="2.56824">
        <ele>27.05</ele>
        <time>2021-08-07T09:00:52Z</time>
      </trkpt>
      <trkpt lat="50.80288" lon="2.56859">
        <ele>27.05</ele>
        <time>2021-08-07T09:01:01Z</time>
      </trkpt>
      <trkpt lat="50.80298" lon="2.56887">
        <ele>27.05</ele>
        <time>2021-08-07T09:01:08Z</time>
      </trkpt>
      <trkpt lat="50.80311" lon="2.56925">
        <ele>27.05</ele>
        <time>2021-08-07T09:01:17Z</time>
      </trkpt>
      <trkpt lat="50.80321" lon="2.56958">
        <ele>27.05</ele>
        <time>2021-08-07T09:01:25Z</time>
      </trkpt>
      <trkpt lat="50.80328" lon="2.56977">
        <ele>27.05</ele>
        <time>2021-08-07T09:01:30Z</time>
      </trkpt>
      <trkpt lat="50.80337" lon="2.57003">
        <ele>27.05</ele>
        <time>2021-08-07T09:01:37Z</time>
      </trkpt>
      <trkpt lat="50.80348" lon="2.57036">
        <ele>27.05</ele>
        <time>2021-08-07T09:01:44Z</time>
      </trkpt>
      <trkpt lat="50.8036" lon="2.57066">
        <ele>26.57</ele>
        <time>2021-08-07T09:01:51Z</time>
      </trkpt>
      <trkpt lat="50.80363" lon="2.57076">
        <ele>25.61</ele>
        <time>2021-08-07T09:01:53Z</time>
      </trkpt>
      <trkpt lat="50.80376" lon="2.57113">
        <ele>25.61</ele>
        <time>2021-08-07T09:02:01Z</time>
      </trkpt>
      <trkpt lat="50.80392" lon="2.57156">
        <ele>25.13</ele>
        <time>2021-08-07T09:02:09Z</time>
      </trkpt>
      <trkpt lat="50.80414" lon="2.57215">
        <ele>23.21</ele>
        <time>2021-08-07T09:02:18Z</time>
      </trkpt>
      <trkpt lat="50.80429" lon="2.57254">
        <ele>22.73</ele>
        <time>2021-08-07T09:02:25Z</time>
      </trkpt>
      <trkpt lat="50.80428" lon="2.57258">
        <ele>22.73</ele>
        <time>2021-08-07T09:02:26Z</time>
      </trkpt>
      <trkpt lat="50.80425" lon="2.57262">
        <ele>22.25</ele>
        <time>2021-08-07T09:02:27Z</time>
      </trkpt>
      <trkpt lat="50.80419" lon="2.57277">
        <ele>22.25</ele>
        <time>2021-08-07T09:02:30Z</time>
      </trkpt>
      <trkpt lat="50.8042" lon="2.57282">
        <ele>21.77</ele>
        <time>2021-08-07T09:02:31Z</time>
      </trkpt>
      <trkpt lat="50.80431" lon="2.57332">
        <ele>21.29</ele>
        <time>2021-08-07T09:02:38Z</time>
      </trkpt>
      <trkpt lat="50.80438" lon="2.57352">
        <ele>21.29</ele>
        <time>2021-08-07T09:02:41Z</time>
      </trkpt>
      <trkpt lat="50.80445" lon="2.57363">
        <ele>21.29</ele>
        <time>2021-08-07T09:02:43Z</time>
      </trkpt>
      <trkpt lat="50.80481" lon="2.57407">
        <ele>21.29</ele>
        <time>2021-08-07T09:02:53Z</time>
      </trkpt>
      <trkpt lat="50.8051" lon="2.57446">
        <ele>21.29</ele>
        <time>2021-08-07T09:03:02Z</time>
      </trkpt>
      <trkpt lat="50.80513" lon="2.57451">
        <ele>21.29</ele>
        <time>2021-08-07T09:03:03Z</time>
      </trkpt>
      <trkpt lat="50.80515" lon="2.57456">
        <ele>21.29</ele>
        <time>2021-08-07T09:03:04Z</time>
      </trkpt>
      <trkpt lat="50.80519" lon="2.5746">
        <ele>21.29</ele>
        <time>2021-08-07T09:03:05Z</time>
      </trkpt>
      <trkpt lat="50.80531" lon="2.57477">
        <ele>20.81</ele>
        <time>2021-08-07T09:03:09Z</time>
      </trkpt>
      <trkpt lat="50.80534" lon="2.57481">
        <ele>20.81</ele>
        <time>2021-08-07T09:03:10Z</time>
      </trkpt>
      <trkpt lat="50.80538" lon="2.57485">
        <ele>20.81</ele>
        <time>2021-08-07T09:03:11Z</time>
      </trkpt>
      <trkpt lat="50.80574" lon="2.57511">
        <ele>20.32</ele>
        <time>2021-08-07T09:03:20Z</time>
      </trkpt>
      <trkpt lat="50.80584" lon="2.5752">
        <ele>20.32</ele>
        <time>2021-08-07T09:03:23Z</time>
      </trkpt>
      <trkpt lat="50.80585" lon="2.57525">
        <ele>20.32</ele>
        <time>2021-08-07T09:03:24Z</time>
      </trkpt>
      <trkpt lat="50.80586" lon="2.57529">
        <ele>20.32</ele>
        <time>2021-08-07T09:03:25Z</time>
      </trkpt>
      <trkpt lat="50.80595" lon="2.57548">
        <ele>20.32</ele>
        <time>2021-08-07T09:03:29Z</time>
      </trkpt>
      <trkpt lat="50.80602" lon="2.57554">
        <ele>21.29</ele>
        <time>2021-08-07T09:03:31Z</time>
      </trkpt>
      <trkpt lat="50.80605" lon="2.57551">
        <ele>21.29</ele>
        <time>2021-08-07T09:03:32Z</time>
      </trkpt>
      <trkpt lat="50.80619" lon="2.57525">
        <ele>22.73</ele>
        <time>2021-08-07T09:03:39Z</time>
      </trkpt>
      <trkpt lat="50.80626" lon="2.57517">
        <ele>23.21</ele>
        <time>2021-08-07T09:03:42Z</time>
      </trkpt>
      <trkpt lat="50.80629" lon="2.57517">
        <ele>23.69</ele>
        <time>2021-08-07T09:03:43Z</time>
      </trkpt>
      <trkpt lat="50.80631" lon="2.57519">
        <ele>23.21</ele>
        <time>2021-08-07T09:03:44Z</time>
      </trkpt>
      <trkpt lat="50.80635" lon="2.57522">
        <ele>23.69</ele>
        <time>2021-08-07T09:03:45Z</time>
      </trkpt>
      <trkpt lat="50.80638" lon="2.57525">
        <ele>23.69</ele>
        <time>2021-08-07T09:03:46Z</time>
      </trkpt>
      <trkpt lat="50.80641" lon="2.57529">
        <ele>23.69</ele>
        <time>2021-08-07T09:03:47Z</time>
      </trkpt>
      <trkpt lat="50.80643" lon="2.57533">
        <ele>23.69</ele>
        <time>2021-08-07T09:03:48Z</time>
      </trkpt>
      <trkpt lat="50.80652" lon="2.57551">
        <ele>23.69</ele>
        <time>2021-08-07T09:03:51Z</time>
      </trkpt>
      <trkpt lat="50.8066" lon="2.5758">
        <ele>23.69</ele>
        <time>2021-08-07T09:03:55Z</time>
      </trkpt>
      <trkpt lat="50.8066" lon="2.57588">
        <ele>23.69</ele>
        <time>2021-08-07T09:03:56Z</time>
      </trkpt>
      <trkpt lat="50.8066" lon="2.57596">
        <ele>23.69</ele>
        <time>2021-08-07T09:03:57Z</time>
      </trkpt>
      <trkpt lat="50.8066" lon="2.57602">
        <ele>21.77</ele>
        <time>2021-08-07T09:03:58Z</time>
      </trkpt>
      <trkpt lat="50.80662" lon="2.57607">
        <ele>21.77</ele>
        <time>2021-08-07T09:03:59Z</time>
      </trkpt>
      <trkpt lat="50.80666" lon="2.57609">
        <ele>21.77</ele>
        <time>2021-08-07T09:04:00Z</time>
      </trkpt>
      <trkpt lat="50.8067" lon="2.5761">
        <ele>21.77</ele>
        <time>2021-08-07T09:04:01Z</time>
      </trkpt>
      <trkpt lat="50.80674" lon="2.57611">
        <ele>21.77</ele>
        <time>2021-08-07T09:04:02Z</time>
      </trkpt>
      <trkpt lat="50.80716" lon="2.57628">
        <ele>21.77</ele>
        <time>2021-08-07T09:04:11Z</time>
      </trkpt>
      <trkpt lat="50.80756" lon="2.57659">
        <ele>23.21</ele>
        <time>2021-08-07T09:04:20Z</time>
      </trkpt>
      <trkpt lat="50.8076" lon="2.57664">
        <ele>23.21</ele>
        <time>2021-08-07T09:04:21Z</time>
      </trkpt>
      <trkpt lat="50.80775" lon="2.57684">
        <ele>23.21</ele>
        <time>2021-08-07T09:04:25Z</time>
      </trkpt>
      <trkpt lat="50.80777" lon="2.57688">
        <ele>23.69</ele>
        <time>2021-08-07T09:04:26Z</time>
      </trkpt>
      <trkpt lat="50.8078" lon="2.57694">
        <ele>23.21</ele>
        <time>2021-08-07T09:04:28Z</time>
      </trkpt>
      <trkpt lat="50.80782" lon="2.57696">
        <ele>23.21</ele>
        <time>2021-08-07T09:04:29Z</time>
      </trkpt>
      <trkpt lat="50.80785" lon="2.57697">
        <ele>23.69</ele>
        <time>2021-08-07T09:04:30Z</time>
      </trkpt>
      <trkpt lat="50.80814" lon="2.57698">
        <ele>23.69</ele>
        <time>2021-08-07T09:04:37Z</time>
      </trkpt>
      <trkpt lat="50.80862" lon="2.5771">
        <ele>24.65</ele>
        <time>2021-08-07T09:04:47Z</time>
      </trkpt>
      <trkpt lat="50.80897" lon="2.57724">
        <ele>25.13</ele>
        <time>2021-08-07T09:04:55Z</time>
      </trkpt>
      <trkpt lat="50.80901" lon="2.57728">
        <ele>25.13</ele>
        <time>2021-08-07T09:04:56Z</time>
      </trkpt>
      <trkpt lat="50.80904" lon="2.57734">
        <ele>25.13</ele>
        <time>2021-08-07T09:04:57Z</time>
      </trkpt>
      <trkpt lat="50.80905" lon="2.57741">
        <ele>25.13</ele>
        <time>2021-08-07T09:04:58Z</time>
      </trkpt>
      <trkpt lat="50.80906" lon="2.57747">
        <ele>25.13</ele>
        <time>2021-08-07T09:04:59Z</time>
      </trkpt>
      <trkpt lat="50.80907" lon="2.57754">
        <ele>25.13</ele>
        <time>2021-08-07T09:05:00Z</time>
      </trkpt>
      <trkpt lat="50.80909" lon="2.57798">
        <ele>23.69</ele>
        <time>2021-08-07T09:05:05Z</time>
      </trkpt>
      <trkpt lat="50.80917" lon="2.57871">
        <ele>23.69</ele>
        <time>2021-08-07T09:05:13Z</time>
      </trkpt>
      <trkpt lat="50.80924" lon="2.57942">
        <ele>23.69</ele>
        <time>2021-08-07T09:05:21Z</time>
      </trkpt>
      <trkpt lat="50.80931" lon="2.5802">
        <ele>23.21</ele>
        <time>2021-08-07T09:05:31Z</time>
      </trkpt>
      <trkpt lat="50.80934" lon="2.58062">
        <ele>23.21</ele>
        <time>2021-08-07T09:05:38Z</time>
      </trkpt>
      <trkpt lat="50.80932" lon="2.58064">
        <ele>22.73</ele>
        <time>2021-08-07T09:05:39Z</time>
      </trkpt>
      <trkpt lat="50.80929" lon="2.58065">
        <ele>22.73</ele>
        <time>2021-08-07T09:05:40Z</time>
      </trkpt>
      <trkpt lat="50.80927" lon="2.58066">
        <ele>22.73</ele>
        <time>2021-08-07T09:05:41Z</time>
      </trkpt>
      <trkpt lat="50.80924" lon="2.58067">
        <ele>22.73</ele>
        <time>2021-08-07T09:05:42Z</time>
      </trkpt>
      <trkpt lat="50.80917" lon="2.58073">
        <ele>21.77</ele>
        <time>2021-08-07T09:05:45Z</time>
      </trkpt>
      <trkpt lat="50.80916" lon="2.58077">
        <ele>21.77</ele>
        <time>2021-08-07T09:05:46Z</time>
      </trkpt>
      <trkpt lat="50.80916" lon="2.58082">
        <ele>21.77</ele>
        <time>2021-08-07T09:05:47Z</time>
      </trkpt>
      <trkpt lat="50.80916" lon="2.58086">
        <ele>21.77</ele>
        <time>2021-08-07T09:05:48Z</time>
      </trkpt>
      <trkpt lat="50.80916" lon="2.58091">
        <ele>21.77</ele>
        <time>2021-08-07T09:05:49Z</time>
      </trkpt>
      <trkpt lat="50.80916" lon="2.58096">
        <ele>21.77</ele>
        <time>2021-08-07T09:05:50Z</time>
      </trkpt>
      <trkpt lat="50.80916" lon="2.58101">
        <ele>21.77</ele>
        <time>2021-08-07T09:05:51Z</time>
      </trkpt>
      <trkpt lat="50.80917" lon="2.58105">
        <ele>21.77</ele>
        <time>2021-08-07T09:05:52Z</time>
      </trkpt>
      <trkpt lat="50.80917" lon="2.5811">
        <ele>21.77</ele>
        <time>2021-08-07T09:05:53Z</time>
      </trkpt>
      <trkpt lat="50.80919" lon="2.58121">
        <ele>21.77</ele>
        <time>2021-08-07T09:05:56Z</time>
      </trkpt>
      <trkpt lat="50.80922" lon="2.58122">
        <ele>21.77</ele>
        <time>2021-08-07T09:05:57Z</time>
      </trkpt>
      <trkpt lat="50.80924" lon="2.58122">
        <ele>21.77</ele>
        <time>2021-08-07T09:05:58Z</time>
      </trkpt>
      <trkpt lat="50.80927" lon="2.58121">
        <ele>21.77</ele>
        <time>2021-08-07T09:05:59Z</time>
      </trkpt>
      <trkpt lat="50.80929" lon="2.58121">
        <ele>21.77</ele>
        <time>2021-08-07T09:06:00Z</time>
      </trkpt>
      <trkpt lat="50.80932" lon="2.58121">
        <ele>21.77</ele>
        <time>2021-08-07T09:06:01Z</time>
      </trkpt>
      <trkpt lat="50.80935" lon="2.58124">
        <ele>21.77</ele>
        <time>2021-08-07T09:06:02Z</time>
      </trkpt>
      <trkpt lat="50.80937" lon="2.58127">
        <ele>22.25</ele>
        <time>2021-08-07T09:06:03Z</time>
      </trkpt>
      <trkpt lat="50.80938" lon="2.58132">
        <ele>21.77</ele>
        <time>2021-08-07T09:06:04Z</time>
      </trkpt>
      <trkpt lat="50.80938" lon="2.58137">
        <ele>21.77</ele>
        <time>2021-08-07T09:06:05Z</time>
      </trkpt>
      <trkpt lat="50.80939" lon="2.58142">
        <ele>21.77</ele>
        <time>2021-08-07T09:06:06Z</time>
      </trkpt>
      <trkpt lat="50.80939" lon="2.58148">
        <ele>21.77</ele>
        <time>2021-08-07T09:06:07Z</time>
      </trkpt>
      <trkpt lat="50.80939" lon="2.58153">
        <ele>22.25</ele>
        <time>2021-08-07T09:06:08Z</time>
      </trkpt>
      <trkpt lat="50.80942" lon="2.58188">
        <ele>21.77</ele>
        <time>2021-08-07T09:06:16Z</time>
      </trkpt>
      <trkpt lat="50.80945" lon="2.58233">
        <ele>21.77</ele>
        <time>2021-08-07T09:06:25Z</time>
      </trkpt>
      <trkpt lat="50.80945" lon="2.58237">
        <ele>21.77</ele>
        <time>2021-08-07T09:06:26Z</time>
      </trkpt>
      <trkpt lat="50.80943" lon="2.58241">
        <ele>21.77</ele>
        <time>2021-08-07T09:06:27Z</time>
      </trkpt>
      <trkpt lat="50.80937" lon="2.58247">
        <ele>21.77</ele>
        <time>2021-08-07T09:06:33Z</time>
      </trkpt>
      <trkpt lat="50.80937" lon="2.58242">
        <ele>21.77</ele>
        <time>2021-08-07T09:06:37Z</time>
      </trkpt>
      <trkpt lat="50.80937" lon="2.5824">
        <ele>21.77</ele>
        <time>2021-08-07T09:06:38Z</time>
      </trkpt>
      <trkpt lat="50.80937" lon="2.58238">
        <ele>21.77</ele>
        <time>2021-08-07T09:06:39Z</time>
      </trkpt>
      <trkpt lat="50.80937" lon="2.58237">
        <ele>21.77</ele>
        <time>2021-08-07T09:06:40Z</time>
      </trkpt>
      <trkpt lat="50.80938" lon="2.58233">
        <ele>21.77</ele>
        <time>2021-08-07T09:06:47Z</time>
      </trkpt>
      <trkpt lat="50.80939" lon="2.58235">
        <ele>21.77</ele>
        <time>2021-08-07T09:06:50Z</time>
      </trkpt>
      <trkpt lat="50.80944" lon="2.58235">
        <ele>21.77</ele>
        <time>2021-08-07T09:06:57Z</time>
      </trkpt>
      <trkpt lat="50.80942" lon="2.58234">
        <ele>21.77</ele>
        <time>2021-08-07T09:07:10Z</time>
      </trkpt>
      <trkpt lat="50.80944" lon="2.58234">
        <ele>21.77</ele>
        <time>2021-08-07T09:07:28Z</time>
      </trkpt>
      <trkpt lat="50.8095" lon="2.58235">
        <ele>21.77</ele>
        <time>2021-08-07T09:07:44Z</time>
      </trkpt>
      <trkpt lat="50.80947" lon="2.58235">
        <ele>21.77</ele>
        <time>2021-08-07T09:08:02Z</time>
      </trkpt>
      <trkpt lat="50.80944" lon="2.58236">
        <ele>21.77</ele>
        <time>2021-08-07T09:08:14Z</time>
      </trkpt>
      <trkpt lat="50.80941" lon="2.58233">
        <ele>21.77</ele>
        <time>2021-08-07T09:08:28Z</time>
      </trkpt>
      <trkpt lat="50.8094" lon="2.58233">
        <ele>21.77</ele>
        <time>2021-08-07T09:08:39Z</time>
      </trkpt>
      <trkpt lat="50.8094" lon="2.58232">
        <ele>21.77</ele>
        <time>2021-08-07T09:08:52Z</time>
      </trkpt>
      <trkpt lat="50.80937" lon="2.58232">
        <ele>21.77</ele>
        <time>2021-08-07T09:09:04Z</time>
      </trkpt>
      <trkpt lat="50.80936" lon="2.5823">
        <ele>21.77</ele>
        <time>2021-08-07T09:09:24Z</time>
      </trkpt>
      <trkpt lat="50.80938" lon="2.58233">
        <ele>21.77</ele>
        <time>2021-08-07T09:09:45Z</time>
      </trkpt>
      <trkpt lat="50.80932" lon="2.58234">
        <ele>22.73</ele>
        <time>2021-08-07T09:10:04Z</time>
      </trkpt>
      <trkpt lat="50.80938" lon="2.58227">
        <ele>22.73</ele>
        <time>2021-08-07T09:10:24Z</time>
      </trkpt>
      <trkpt lat="50.80936" lon="2.58228">
        <ele>22.73</ele>
        <time>2021-08-07T09:10:45Z</time>
      </trkpt>
      <trkpt lat="50.80934" lon="2.58238">
        <ele>22.73</ele>
        <time>2021-08-07T09:11:04Z</time>
      </trkpt>
      <trkpt lat="50.80942" lon="2.58235">
        <ele>22.73</ele>
        <time>2021-08-07T09:11:24Z</time>
      </trkpt>
      <trkpt lat="50.80939" lon="2.58237">
        <ele>22.73</ele>
        <time>2021-08-07T09:11:38Z</time>
      </trkpt>
      <trkpt lat="50.80939" lon="2.58237">
        <ele>22.73</ele>
        <time>2021-08-07T09:11:55Z</time>
      </trkpt>
      <trkpt lat="50.80942" lon="2.58235">
        <ele>22.73</ele>
        <time>2021-08-07T09:12:11Z</time>
      </trkpt>
      <trkpt lat="50.80937" lon="2.58235">
        <ele>22.73</ele>
        <time>2021-08-07T09:12:25Z</time>
      </trkpt>
      <trkpt lat="50.80936" lon="2.58237">
        <ele>22.73</ele>
        <time>2021-08-07T09:12:42Z</time>
      </trkpt>
      <trkpt lat="50.80937" lon="2.58236">
        <ele>22.73</ele>
        <time>2021-08-07T09:12:57Z</time>
      </trkpt>
      <trkpt lat="50.80934" lon="2.58236">
        <ele>22.73</ele>
        <time>2021-08-07T09:13:12Z</time>
      </trkpt>
      <trkpt lat="50.80934" lon="2.58236">
        <ele>22.73</ele>
        <time>2021-08-07T09:13:19Z</time>
      </trkpt>
      <trkpt lat="50.80937" lon="2.58239">
        <ele>22.73</ele>
        <time>2021-08-07T09:13:26Z</time>
      </trkpt>
      <trkpt lat="50.80939" lon="2.5824">
        <ele>22.73</ele>
        <time>2021-08-07T09:13:27Z</time>
      </trkpt>
      <trkpt lat="50.80938" lon="2.5824">
        <ele>22.73</ele>
        <time>2021-08-07T09:13:31Z</time>
      </trkpt>
      <trkpt lat="50.80936" lon="2.58237">
        <ele>22.73</ele>
        <time>2021-08-07T09:13:46Z</time>
      </trkpt>
      <trkpt lat="50.80937" lon="2.58235">
        <ele>22.73</ele>
        <time>2021-08-07T09:14:02Z</time>
      </trkpt>
      <trkpt lat="50.80939" lon="2.58236">
        <ele>22.73</ele>
        <time>2021-08-07T09:14:17Z</time>
      </trkpt>
      <trkpt lat="50.8094" lon="2.58236">
        <ele>22.73</ele>
        <time>2021-08-07T09:14:33Z</time>
      </trkpt>
      <trkpt lat="50.80939" lon="2.58238">
        <ele>22.73</ele>
        <time>2021-08-07T09:14:47Z</time>
      </trkpt>
      <trkpt lat="50.80941" lon="2.58239">
        <ele>22.73</ele>
        <time>2021-08-07T09:14:56Z</time>
      </trkpt>
      <trkpt lat="50.80943" lon="2.58248">
        <ele>21.29</ele>
        <time>2021-08-07T09:15:03Z</time>
      </trkpt>
      <trkpt lat="50.80947" lon="2.58264">
        <ele>21.29</ele>
        <time>2021-08-07T09:15:09Z</time>
      </trkpt>
      <trkpt lat="50.80942" lon="2.58293">
        <ele>20.81</ele>
        <time>2021-08-07T09:15:16Z</time>
      </trkpt>
      <trkpt lat="50.80942" lon="2.58334">
        <ele>20.81</ele>
        <time>2021-08-07T09:15:23Z</time>
      </trkpt>
      <trkpt lat="50.80946" lon="2.58393">
        <ele>20.81</ele>
        <time>2021-08-07T09:15:31Z</time>
      </trkpt>
      <trkpt lat="50.80948" lon="2.58444">
        <ele>20.81</ele>
        <time>2021-08-07T09:15:39Z</time>
      </trkpt>
      <trkpt lat="50.80949" lon="2.5845">
        <ele>20.81</ele>
        <time>2021-08-07T09:15:40Z</time>
      </trkpt>
      <trkpt lat="50.80949" lon="2.58457">
        <ele>22.25</ele>
        <time>2021-08-07T09:15:41Z</time>
      </trkpt>
      <trkpt lat="50.80956" lon="2.58526">
        <ele>23.21</ele>
        <time>2021-08-07T09:15:52Z</time>
      </trkpt>
      <trkpt lat="50.80959" lon="2.5858">
        <ele>24.65</ele>
        <time>2021-08-07T09:16:01Z</time>
      </trkpt>
      <trkpt lat="50.80963" lon="2.58642">
        <ele>25.13</ele>
        <time>2021-08-07T09:16:12Z</time>
      </trkpt>
      <trkpt lat="50.80963" lon="2.58653">
        <ele>25.13</ele>
        <time>2021-08-07T09:16:14Z</time>
      </trkpt>
      <trkpt lat="50.80963" lon="2.58658">
        <ele>25.13</ele>
        <time>2021-08-07T09:16:15Z</time>
      </trkpt>
      <trkpt lat="50.80964" lon="2.58663">
        <ele>25.13</ele>
        <time>2021-08-07T09:16:16Z</time>
      </trkpt>
      <trkpt lat="50.80965" lon="2.58667">
        <ele>25.13</ele>
        <time>2021-08-07T09:16:17Z</time>
      </trkpt>
      <trkpt lat="50.80965" lon="2.58673">
        <ele>25.13</ele>
        <time>2021-08-07T09:16:18Z</time>
      </trkpt>
      <trkpt lat="50.80966" lon="2.58678">
        <ele>25.13</ele>
        <time>2021-08-07T09:16:19Z</time>
      </trkpt>
      <trkpt lat="50.80969" lon="2.58713">
        <ele>26.57</ele>
        <time>2021-08-07T09:16:27Z</time>
      </trkpt>
      <trkpt lat="50.80969" lon="2.58722">
        <ele>27.05</ele>
        <time>2021-08-07T09:16:31Z</time>
      </trkpt>
      <trkpt lat="50.8097" lon="2.58723">
        <ele>27.05</ele>
        <time>2021-08-07T09:16:46Z</time>
      </trkpt>
      <trkpt lat="50.8097" lon="2.58724">
        <ele>27.05</ele>
        <time>2021-08-07T09:17:09Z</time>
      </trkpt>
      <trkpt lat="50.80969" lon="2.58723">
        <ele>27.05</ele>
        <time>2021-08-07T09:17:27Z</time>
      </trkpt>
      <trkpt lat="50.80969" lon="2.58723">
        <ele>27.05</ele>
        <time>2021-08-07T09:17:47Z</time>
      </trkpt>
      <trkpt lat="50.8097" lon="2.58723">
        <ele>27.05</ele>
        <time>2021-08-07T09:18:12Z</time>
      </trkpt>
      <trkpt lat="50.8097" lon="2.58723">
        <ele>27.05</ele>
        <time>2021-08-07T09:18:28Z</time>
      </trkpt>
      <trkpt lat="50.80971" lon="2.58726">
        <ele>27.05</ele>
        <time>2021-08-07T09:18:45Z</time>
      </trkpt>
      <trkpt lat="50.8097" lon="2.58726">
        <ele>27.05</ele>
        <time>2021-08-07T09:18:58Z</time>
      </trkpt>
      <trkpt lat="50.80971" lon="2.58727">
        <ele>27.05</ele>
        <time>2021-08-07T09:18:59Z</time>
      </trkpt>
      <trkpt lat="50.80972" lon="2.58729">
        <ele>27.05</ele>
        <time>2021-08-07T09:19:00Z</time>
      </trkpt>
      <trkpt lat="50.80973" lon="2.58731">
        <ele>27.05</ele>
        <time>2021-08-07T09:19:01Z</time>
      </trkpt>
      <trkpt lat="50.80974" lon="2.58734">
        <ele>27.05</ele>
        <time>2021-08-07T09:19:02Z</time>
      </trkpt>
      <trkpt lat="50.80975" lon="2.58738">
        <ele>27.05</ele>
        <time>2021-08-07T09:19:03Z</time>
      </trkpt>
      <trkpt lat="50.80975" lon="2.58743">
        <ele>27.05</ele>
        <time>2021-08-07T09:19:04Z</time>
      </trkpt>
      <trkpt lat="50.80975" lon="2.58749">
        <ele>27.05</ele>
        <time>2021-08-07T09:19:05Z</time>
      </trkpt>
      <trkpt lat="50.80976" lon="2.58762">
        <ele>27.53</ele>
        <time>2021-08-07T09:19:08Z</time>
      </trkpt>
      <trkpt lat="50.80978" lon="2.58762">
        <ele>27.53</ele>
        <time>2021-08-07T09:19:09Z</time>
      </trkpt>
      <trkpt lat="50.80979" lon="2.5876">
        <ele>27.53</ele>
        <time>2021-08-07T09:19:10Z</time>
      </trkpt>
      <trkpt lat="50.8098" lon="2.58756">
        <ele>27.53</ele>
        <time>2021-08-07T09:19:11Z</time>
      </trkpt>
      <trkpt lat="50.80979" lon="2.58751">
        <ele>27.53</ele>
        <time>2021-08-07T09:19:12Z</time>
      </trkpt>
      <trkpt lat="50.80977" lon="2.58746">
        <ele>27.53</ele>
        <time>2021-08-07T09:19:13Z</time>
      </trkpt>
      <trkpt lat="50.80971" lon="2.58714">
        <ele>27.53</ele>
        <time>2021-08-07T09:19:19Z</time>
      </trkpt>
      <trkpt lat="50.80968" lon="2.58709">
        <ele>27.53</ele>
        <time>2021-08-07T09:19:20Z</time>
      </trkpt>
      <trkpt lat="50.80965" lon="2.58709">
        <ele>27.53</ele>
        <time>2021-08-07T09:19:21Z</time>
      </trkpt>
      <trkpt lat="50.80962" lon="2.5871">
        <ele>26.09</ele>
        <time>2021-08-07T09:19:22Z</time>
      </trkpt>
      <trkpt lat="50.80959" lon="2.58712">
        <ele>25.61</ele>
        <time>2021-08-07T09:19:23Z</time>
      </trkpt>
      <trkpt lat="50.80955" lon="2.58716">
        <ele>25.61</ele>
        <time>2021-08-07T09:19:24Z</time>
      </trkpt>
      <trkpt lat="50.80953" lon="2.58719">
        <ele>25.61</ele>
        <time>2021-08-07T09:19:25Z</time>
      </trkpt>
      <trkpt lat="50.80949" lon="2.58724">
        <ele>25.13</ele>
        <time>2021-08-07T09:19:26Z</time>
      </trkpt>
      <trkpt lat="50.80938" lon="2.58741">
        <ele>26.57</ele>
        <time>2021-08-07T09:19:30Z</time>
      </trkpt>
      <trkpt lat="50.80923" lon="2.58762">
        <ele>26.57</ele>
        <time>2021-08-07T09:19:35Z</time>
      </trkpt>
      <trkpt lat="50.80914" lon="2.58775">
        <ele>27.53</ele>
        <time>2021-08-07T09:19:38Z</time>
      </trkpt>
      <trkpt lat="50.80899" lon="2.588">
        <ele>28.02</ele>
        <time>2021-08-07T09:19:43Z</time>
      </trkpt>
      <trkpt lat="50.80897" lon="2.58805">
        <ele>28.02</ele>
        <time>2021-08-07T09:19:44Z</time>
      </trkpt>
      <trkpt lat="50.80884" lon="2.58845">
        <ele>28.02</ele>
        <time>2021-08-07T09:19:50Z</time>
      </trkpt>
      <trkpt lat="50.8086" lon="2.58918">
        <ele>26.09</ele>
        <time>2021-08-07T09:20:00Z</time>
      </trkpt>
      <trkpt lat="50.80836" lon="2.58987">
        <ele>26.09</ele>
        <time>2021-08-07T09:20:09Z</time>
      </trkpt>
      <trkpt lat="50.80805" lon="2.59065">
        <ele>25.13</ele>
        <time>2021-08-07T09:20:19Z</time>
      </trkpt>
      <trkpt lat="50.80792" lon="2.59094">
        <ele>25.13</ele>
        <time>2021-08-07T09:20:23Z</time>
      </trkpt>
      <trkpt lat="50.80756" lon="2.59163">
        <ele>24.17</ele>
        <time>2021-08-07T09:20:33Z</time>
      </trkpt>
      <trkpt lat="50.80749" lon="2.59177">
        <ele>24.17</ele>
        <time>2021-08-07T09:20:35Z</time>
      </trkpt>
      <trkpt lat="50.80743" lon="2.59192">
        <ele>24.17</ele>
        <time>2021-08-07T09:20:37Z</time>
      </trkpt>
      <trkpt lat="50.80739" lon="2.59196">
        <ele>24.17</ele>
        <time>2021-08-07T09:20:38Z</time>
      </trkpt>
      <trkpt lat="50.80734" lon="2.59197">
        <ele>23.69</ele>
        <time>2021-08-07T09:20:39Z</time>
      </trkpt>
      <trkpt lat="50.80728" lon="2.59194">
        <ele>23.69</ele>
        <time>2021-08-07T09:20:40Z</time>
      </trkpt>
      <trkpt lat="50.80725" lon="2.5919">
        <ele>25.13</ele>
        <time>2021-08-07T09:20:41Z</time>
      </trkpt>
      <trkpt lat="50.80721" lon="2.59186">
        <ele>25.13</ele>
        <time>2021-08-07T09:20:42Z</time>
      </trkpt>
      <trkpt lat="50.80718" lon="2.5918">
        <ele>25.13</ele>
        <time>2021-08-07T09:20:43Z</time>
      </trkpt>
      <trkpt lat="50.80715" lon="2.59175">
        <ele>26.09</ele>
        <time>2021-08-07T09:20:44Z</time>
      </trkpt>
      <trkpt lat="50.80712" lon="2.59169">
        <ele>26.57</ele>
        <time>2021-08-07T09:20:45Z</time>
      </trkpt>
      <trkpt lat="50.80701" lon="2.5915">
        <ele>26.09</ele>
        <time>2021-08-07T09:20:49Z</time>
      </trkpt>
      <trkpt lat="50.80677" lon="2.5911">
        <ele>27.53</ele>
        <time>2021-08-07T09:20:57Z</time>
      </trkpt>
      <trkpt lat="50.80646" lon="2.59049">
        <ele>28.5</ele>
        <time>2021-08-07T09:21:08Z</time>
      </trkpt>
      <trkpt lat="50.80643" lon="2.59044">
        <ele>28.5</ele>
        <time>2021-08-07T09:21:09Z</time>
      </trkpt>
      <trkpt lat="50.80639" lon="2.5904">
        <ele>28.5</ele>
        <time>2021-08-07T09:21:10Z</time>
      </trkpt>
      <trkpt lat="50.80634" lon="2.59037">
        <ele>28.5</ele>
        <time>2021-08-07T09:21:11Z</time>
      </trkpt>
      <trkpt lat="50.8063" lon="2.59035">
        <ele>28.5</ele>
        <time>2021-08-07T09:21:12Z</time>
      </trkpt>
      <trkpt lat="50.80626" lon="2.59034">
        <ele>28.5</ele>
        <time>2021-08-07T09:21:13Z</time>
      </trkpt>
      <trkpt lat="50.80622" lon="2.59034">
        <ele>28.5</ele>
        <time>2021-08-07T09:21:14Z</time>
      </trkpt>
      <trkpt lat="50.80617" lon="2.59035">
        <ele>28.5</ele>
        <time>2021-08-07T09:21:15Z</time>
      </trkpt>
      <trkpt lat="50.80613" lon="2.59036">
        <ele>28.5</ele>
        <time>2021-08-07T09:21:16Z</time>
      </trkpt>
      <trkpt lat="50.80608" lon="2.59036">
        <ele>28.5</ele>
        <time>2021-08-07T09:21:17Z</time>
      </trkpt>
      <trkpt lat="50.80604" lon="2.59035">
        <ele>28.98</ele>
        <time>2021-08-07T09:21:18Z</time>
      </trkpt>
      <trkpt lat="50.806" lon="2.59033">
        <ele>28.98</ele>
        <time>2021-08-07T09:21:19Z</time>
      </trkpt>
      <trkpt lat="50.80596" lon="2.59029">
        <ele>28.98</ele>
        <time>2021-08-07T09:21:20Z</time>
      </trkpt>
      <trkpt lat="50.80593" lon="2.59023">
        <ele>28.98</ele>
        <time>2021-08-07T09:21:21Z</time>
      </trkpt>
      <trkpt lat="50.8059" lon="2.59017">
        <ele>28.98</ele>
        <time>2021-08-07T09:21:22Z</time>
      </trkpt>
      <trkpt lat="50.80571" lon="2.58988">
        <ele>29.46</ele>
        <time>2021-08-07T09:21:29Z</time>
      </trkpt>
      <trkpt lat="50.80568" lon="2.5899">
        <ele>29.46</ele>
        <time>2021-08-07T09:21:30Z</time>
      </trkpt>
      <trkpt lat="50.80565" lon="2.58993">
        <ele>29.46</ele>
        <time>2021-08-07T09:21:31Z</time>
      </trkpt>
      <trkpt lat="50.80562" lon="2.58998">
        <ele>29.46</ele>
        <time>2021-08-07T09:21:32Z</time>
      </trkpt>
      <trkpt lat="50.80559" lon="2.59003">
        <ele>29.46</ele>
        <time>2021-08-07T09:21:33Z</time>
      </trkpt>
      <trkpt lat="50.80556" lon="2.59008">
        <ele>29.46</ele>
        <time>2021-08-07T09:21:34Z</time>
      </trkpt>
      <trkpt lat="50.80521" lon="2.59055">
        <ele>27.53</ele>
        <time>2021-08-07T09:21:43Z</time>
      </trkpt>
      <trkpt lat="50.80509" lon="2.5907">
        <ele>27.53</ele>
        <time>2021-08-07T09:21:46Z</time>
      </trkpt>
      <trkpt lat="50.80488" lon="2.59105">
        <ele>29.46</ele>
        <time>2021-08-07T09:21:53Z</time>
      </trkpt>
      <trkpt lat="50.80487" lon="2.59109">
        <ele>29.46</ele>
        <time>2021-08-07T09:21:54Z</time>
      </trkpt>
      <trkpt lat="50.80471" lon="2.5914">
        <ele>29.46</ele>
        <time>2021-08-07T09:22:00Z</time>
      </trkpt>
      <trkpt lat="50.80468" lon="2.59146">
        <ele>29.46</ele>
        <time>2021-08-07T09:22:01Z</time>
      </trkpt>
      <trkpt lat="50.80443" lon="2.59204">
        <ele>29.46</ele>
        <time>2021-08-07T09:22:10Z</time>
      </trkpt>
      <trkpt lat="50.8044" lon="2.59209">
        <ele>29.94</ele>
        <time>2021-08-07T09:22:11Z</time>
      </trkpt>
      <trkpt lat="50.80408" lon="2.59248">
        <ele>29.94</ele>
        <time>2021-08-07T09:22:19Z</time>
      </trkpt>
      <trkpt lat="50.80377" lon="2.59286">
        <ele>30.9</ele>
        <time>2021-08-07T09:22:27Z</time>
      </trkpt>
      <trkpt lat="50.80335" lon="2.5934">
        <ele>30.9</ele>
        <time>2021-08-07T09:22:37Z</time>
      </trkpt>
      <trkpt lat="50.80322" lon="2.59357">
        <ele>29.46</ele>
        <time>2021-08-07T09:22:40Z</time>
      </trkpt>
      <trkpt lat="50.80284" lon="2.59416">
        <ele>31.38</ele>
        <time>2021-08-07T09:22:51Z</time>
      </trkpt>
      <trkpt lat="50.80257" lon="2.59473">
        <ele>32.34</ele>
        <time>2021-08-07T09:23:00Z</time>
      </trkpt>
      <trkpt lat="50.80233" lon="2.59554">
        <ele>32.34</ele>
        <time>2021-08-07T09:23:11Z</time>
      </trkpt>
      <trkpt lat="50.80218" lon="2.59588">
        <ele>30.9</ele>
        <time>2021-08-07T09:23:16Z</time>
      </trkpt>
      <trkpt lat="50.80194" lon="2.59639">
        <ele>30.9</ele>
        <time>2021-08-07T09:23:23Z</time>
      </trkpt>
      <trkpt lat="50.80162" lon="2.59717">
        <ele>29.46</ele>
        <time>2021-08-07T09:23:32Z</time>
      </trkpt>
      <trkpt lat="50.80122" lon="2.59808">
        <ele>27.53</ele>
        <time>2021-08-07T09:23:42Z</time>
      </trkpt>
      <trkpt lat="50.80091" lon="2.59864">
        <ele>27.53</ele>
        <time>2021-08-07T09:23:49Z</time>
      </trkpt>
      <trkpt lat="50.80079" lon="2.59882">
        <ele>28.98</ele>
        <time>2021-08-07T09:23:52Z</time>
      </trkpt>
      <trkpt lat="50.80061" lon="2.59909">
        <ele>30.42</ele>
        <time>2021-08-07T09:23:57Z</time>
      </trkpt>
      <trkpt lat="50.8003" lon="2.59964">
        <ele>31.38</ele>
        <time>2021-08-07T09:24:07Z</time>
      </trkpt>
      <trkpt lat="50.79995" lon="2.60006">
        <ele>31.86</ele>
        <time>2021-08-07T09:24:16Z</time>
      </trkpt>
      <trkpt lat="50.79983" lon="2.60016">
        <ele>30.9</ele>
        <time>2021-08-07T09:24:19Z</time>
      </trkpt>
      <trkpt lat="50.7996" lon="2.60029">
        <ele>32.82</ele>
        <time>2021-08-07T09:24:25Z</time>
      </trkpt>
      <trkpt lat="50.79928" lon="2.60051">
        <ele>34.26</ele>
        <time>2021-08-07T09:24:34Z</time>
      </trkpt>
      <trkpt lat="50.79892" lon="2.60077">
        <ele>34.74</ele>
        <time>2021-08-07T09:24:44Z</time>
      </trkpt>
      <trkpt lat="50.79865" lon="2.601">
        <ele>34.74</ele>
        <time>2021-08-07T09:24:52Z</time>
      </trkpt>
      <trkpt lat="50.79858" lon="2.60115">
        <ele>35.71</ele>
        <time>2021-08-07T09:24:55Z</time>
      </trkpt>
      <trkpt lat="50.79857" lon="2.60121">
        <ele>35.71</ele>
        <time>2021-08-07T09:24:56Z</time>
      </trkpt>
      <trkpt lat="50.79857" lon="2.60127">
        <ele>36.19</ele>
        <time>2021-08-07T09:24:57Z</time>
      </trkpt>
      <trkpt lat="50.79855" lon="2.60179">
        <ele>36.19</ele>
        <time>2021-08-07T09:25:04Z</time>
      </trkpt>
      <trkpt lat="50.79854" lon="2.60186">
        <ele>36.19</ele>
        <time>2021-08-07T09:25:05Z</time>
      </trkpt>
      <trkpt lat="50.79853" lon="2.60193">
        <ele>36.19</ele>
        <time>2021-08-07T09:25:06Z</time>
      </trkpt>
      <trkpt lat="50.79851" lon="2.602">
        <ele>36.19</ele>
        <time>2021-08-07T09:25:07Z</time>
      </trkpt>
      <trkpt lat="50.79849" lon="2.60207">
        <ele>36.19</ele>
        <time>2021-08-07T09:25:08Z</time>
      </trkpt>
      <trkpt lat="50.79846" lon="2.60213">
        <ele>36.19</ele>
        <time>2021-08-07T09:25:09Z</time>
      </trkpt>
      <trkpt lat="50.79844" lon="2.60219">
        <ele>36.19</ele>
        <time>2021-08-07T09:25:10Z</time>
      </trkpt>
      <trkpt lat="50.79817" lon="2.60267">
        <ele>36.67</ele>
        <time>2021-08-07T09:25:19Z</time>
      </trkpt>
      <trkpt lat="50.79792" lon="2.60304">
        <ele>38.11</ele>
        <time>2021-08-07T09:25:27Z</time>
      </trkpt>
      <trkpt lat="50.79774" lon="2.60308">
        <ele>38.11</ele>
        <time>2021-08-07T09:25:32Z</time>
      </trkpt>
      <trkpt lat="50.79736" lon="2.60324">
        <ele>38.59</ele>
        <time>2021-08-07T09:25:42Z</time>
      </trkpt>
      <trkpt lat="50.79702" lon="2.60346">
        <ele>40.03</ele>
        <time>2021-08-07T09:25:51Z</time>
      </trkpt>
      <trkpt lat="50.79661" lon="2.6038">
        <ele>38.59</ele>
        <time>2021-08-07T09:26:01Z</time>
      </trkpt>
      <trkpt lat="50.79614" lon="2.60423">
        <ele>37.15</ele>
        <time>2021-08-07T09:26:11Z</time>
      </trkpt>
      <trkpt lat="50.79567" lon="2.60467">
        <ele>35.71</ele>
        <time>2021-08-07T09:26:20Z</time>
      </trkpt>
      <trkpt lat="50.79511" lon="2.60515">
        <ele>34.74</ele>
        <time>2021-08-07T09:26:30Z</time>
      </trkpt>
      <trkpt lat="50.7946" lon="2.60535">
        <ele>33.78</ele>
        <time>2021-08-07T09:26:38Z</time>
      </trkpt>
      <trkpt lat="50.79448" lon="2.60542">
        <ele>33.3</ele>
        <time>2021-08-07T09:26:40Z</time>
      </trkpt>
      <trkpt lat="50.79442" lon="2.60546">
        <ele>33.3</ele>
        <time>2021-08-07T09:26:41Z</time>
      </trkpt>
      <trkpt lat="50.79436" lon="2.60552">
        <ele>33.3</ele>
        <time>2021-08-07T09:26:42Z</time>
      </trkpt>
      <trkpt lat="50.79426" lon="2.60563">
        <ele>34.74</ele>
        <time>2021-08-07T09:26:44Z</time>
      </trkpt>
      <trkpt lat="50.79421" lon="2.6057">
        <ele>34.74</ele>
        <time>2021-08-07T09:26:45Z</time>
      </trkpt>
      <trkpt lat="50.79417" lon="2.60578">
        <ele>34.74</ele>
        <time>2021-08-07T09:26:46Z</time>
      </trkpt>
      <trkpt lat="50.79414" lon="2.60586">
        <ele>34.74</ele>
        <time>2021-08-07T09:26:47Z</time>
      </trkpt>
      <trkpt lat="50.79411" lon="2.60595">
        <ele>34.74</ele>
        <time>2021-08-07T09:26:48Z</time>
      </trkpt>
      <trkpt lat="50.79409" lon="2.60603">
        <ele>34.74</ele>
        <time>2021-08-07T09:26:49Z</time>
      </trkpt>
      <trkpt lat="50.79407" lon="2.60611">
        <ele>34.74</ele>
        <time>2021-08-07T09:26:50Z</time>
      </trkpt>
      <trkpt lat="50.79398" lon="2.60652">
        <ele>34.74</ele>
        <time>2021-08-07T09:26:55Z</time>
      </trkpt>
      <trkpt lat="50.79396" lon="2.60658">
        <ele>34.74</ele>
        <time>2021-08-07T09:26:56Z</time>
      </trkpt>
      <trkpt lat="50.79393" lon="2.60664">
        <ele>34.74</ele>
        <time>2021-08-07T09:26:57Z</time>
      </trkpt>
      <trkpt lat="50.79389" lon="2.60669">
        <ele>34.74</ele>
        <time>2021-08-07T09:26:58Z</time>
      </trkpt>
      <trkpt lat="50.79385" lon="2.60674">
        <ele>34.74</ele>
        <time>2021-08-07T09:26:59Z</time>
      </trkpt>
      <trkpt lat="50.79381" lon="2.60677">
        <ele>34.74</ele>
        <time>2021-08-07T09:27:00Z</time>
      </trkpt>
      <trkpt lat="50.79376" lon="2.6068">
        <ele>34.74</ele>
        <time>2021-08-07T09:27:01Z</time>
      </trkpt>
      <trkpt lat="50.79372" lon="2.60682">
        <ele>35.23</ele>
        <time>2021-08-07T09:27:02Z</time>
      </trkpt>
      <trkpt lat="50.79363" lon="2.60686">
        <ele>35.23</ele>
        <time>2021-08-07T09:27:04Z</time>
      </trkpt>
      <trkpt lat="50.79359" lon="2.60688">
        <ele>35.23</ele>
        <time>2021-08-07T09:27:05Z</time>
      </trkpt>
      <trkpt lat="50.79355" lon="2.60689">
        <ele>35.23</ele>
        <time>2021-08-07T09:27:06Z</time>
      </trkpt>
      <trkpt lat="50.79351" lon="2.60694">
        <ele>36.19</ele>
        <time>2021-08-07T09:27:07Z</time>
      </trkpt>
      <trkpt lat="50.7935" lon="2.60699">
        <ele>36.67</ele>
        <time>2021-08-07T09:27:08Z</time>
      </trkpt>
      <trkpt lat="50.7935" lon="2.60706">
        <ele>36.67</ele>
        <time>2021-08-07T09:27:09Z</time>
      </trkpt>
      <trkpt lat="50.79352" lon="2.60712">
        <ele>37.15</ele>
        <time>2021-08-07T09:27:10Z</time>
      </trkpt>
      <trkpt lat="50.79354" lon="2.60719">
        <ele>37.15</ele>
        <time>2021-08-07T09:27:11Z</time>
      </trkpt>
      <trkpt lat="50.79356" lon="2.60726">
        <ele>37.15</ele>
        <time>2021-08-07T09:27:12Z</time>
      </trkpt>
      <trkpt lat="50.79382" lon="2.60799">
        <ele>35.23</ele>
        <time>2021-08-07T09:27:22Z</time>
      </trkpt>
      <trkpt lat="50.79412" lon="2.60879">
        <ele>34.26</ele>
        <time>2021-08-07T09:27:32Z</time>
      </trkpt>
      <trkpt lat="50.79436" lon="2.6094">
        <ele>33.3</ele>
        <time>2021-08-07T09:27:39Z</time>
      </trkpt>
      <trkpt lat="50.79469" lon="2.60992">
        <ele>33.3</ele>
        <time>2021-08-07T09:27:46Z</time>
      </trkpt>
      <trkpt lat="50.79483" lon="2.61017">
        <ele>32.82</ele>
        <time>2021-08-07T09:27:49Z</time>
      </trkpt>
      <trkpt lat="50.79487" lon="2.61026">
        <ele>32.34</ele>
        <time>2021-08-07T09:27:50Z</time>
      </trkpt>
      <trkpt lat="50.7949" lon="2.61036">
        <ele>32.34</ele>
        <time>2021-08-07T09:27:51Z</time>
      </trkpt>
      <trkpt lat="50.79493" lon="2.61047">
        <ele>32.34</ele>
        <time>2021-08-07T09:27:52Z</time>
      </trkpt>
      <trkpt lat="50.79496" lon="2.61056">
        <ele>32.34</ele>
        <time>2021-08-07T09:27:53Z</time>
      </trkpt>
      <trkpt lat="50.79503" lon="2.61093">
        <ele>33.78</ele>
        <time>2021-08-07T09:27:57Z</time>
      </trkpt>
      <trkpt lat="50.79517" lon="2.61164">
        <ele>37.15</ele>
        <time>2021-08-07T09:28:06Z</time>
      </trkpt>
      <trkpt lat="50.79518" lon="2.61171">
        <ele>37.15</ele>
        <time>2021-08-07T09:28:07Z</time>
      </trkpt>
      <trkpt lat="50.7952" lon="2.61178">
        <ele>37.15</ele>
        <time>2021-08-07T09:28:08Z</time>
      </trkpt>
      <trkpt lat="50.79534" lon="2.6125">
        <ele>38.11</ele>
        <time>2021-08-07T09:28:18Z</time>
      </trkpt>
      <trkpt lat="50.79539" lon="2.61282">
        <ele>38.59</ele>
        <time>2021-08-07T09:28:22Z</time>
      </trkpt>
      <trkpt lat="50.7954" lon="2.61291">
        <ele>39.07</ele>
        <time>2021-08-07T09:28:23Z</time>
      </trkpt>
      <trkpt lat="50.79556" lon="2.61371">
        <ele>37.63</ele>
        <time>2021-08-07T09:28:32Z</time>
      </trkpt>
      <trkpt lat="50.79568" lon="2.61434">
        <ele>35.71</ele>
        <time>2021-08-07T09:28:38Z</time>
      </trkpt>
      <trkpt lat="50.79585" lon="2.61519">
        <ele>32.34</ele>
        <time>2021-08-07T09:28:45Z</time>
      </trkpt>
      <trkpt lat="50.79597" lon="2.61582">
        <ele>30.42</ele>
        <time>2021-08-07T09:28:50Z</time>
      </trkpt>
      <trkpt lat="50.79609" lon="2.61645">
        <ele>28.98</ele>
        <time>2021-08-07T09:28:55Z</time>
      </trkpt>
      <trkpt lat="50.79616" lon="2.6173">
        <ele>28.98</ele>
        <time>2021-08-07T09:29:02Z</time>
      </trkpt>
      <trkpt lat="50.7962" lon="2.61798">
        <ele>31.38</ele>
        <time>2021-08-07T09:29:09Z</time>
      </trkpt>
      <trkpt lat="50.79621" lon="2.61805">
        <ele>31.86</ele>
        <time>2021-08-07T09:29:10Z</time>
      </trkpt>
      <trkpt lat="50.79622" lon="2.61812">
        <ele>31.86</ele>
        <time>2021-08-07T09:29:11Z</time>
      </trkpt>
      <trkpt lat="50.79623" lon="2.61819">
        <ele>33.3</ele>
        <time>2021-08-07T09:29:12Z</time>
      </trkpt>
      <trkpt lat="50.7964" lon="2.61902">
        <ele>35.71</ele>
        <time>2021-08-07T09:29:24Z</time>
      </trkpt>
      <trkpt lat="50.79657" lon="2.61983">
        <ele>37.63</ele>
        <time>2021-08-07T09:29:35Z</time>
      </trkpt>
      <trkpt lat="50.79659" lon="2.62047">
        <ele>38.11</ele>
        <time>2021-08-07T09:29:43Z</time>
      </trkpt>
      <trkpt lat="50.79666" lon="2.62122">
        <ele>39.07</ele>
        <time>2021-08-07T09:29:53Z</time>
      </trkpt>
      <trkpt lat="50.79668" lon="2.62197">
        <ele>40.51</ele>
        <time>2021-08-07T09:30:03Z</time>
      </trkpt>
      <trkpt lat="50.79664" lon="2.62273">
        <ele>40.99</ele>
        <time>2021-08-07T09:30:13Z</time>
      </trkpt>
      <trkpt lat="50.79666" lon="2.62335">
        <ele>41.47</ele>
        <time>2021-08-07T09:30:21Z</time>
      </trkpt>
      <trkpt lat="50.7968" lon="2.62399">
        <ele>43.88</ele>
        <time>2021-08-07T09:30:30Z</time>
      </trkpt>
      <trkpt lat="50.79704" lon="2.62466">
        <ele>45.8</ele>
        <time>2021-08-07T09:30:40Z</time>
      </trkpt>
      <trkpt lat="50.79716" lon="2.62499">
        <ele>46.28</ele>
        <time>2021-08-07T09:30:45Z</time>
      </trkpt>
      <trkpt lat="50.7973" lon="2.62565">
        <ele>47.24</ele>
        <time>2021-08-07T09:30:54Z</time>
      </trkpt>
      <trkpt lat="50.79737" lon="2.62594">
        <ele>47.24</ele>
        <time>2021-08-07T09:30:58Z</time>
      </trkpt>
      <trkpt lat="50.7974" lon="2.62599">
        <ele>48.2</ele>
        <time>2021-08-07T09:30:59Z</time>
      </trkpt>
      <trkpt lat="50.79743" lon="2.62604">
        <ele>48.68</ele>
        <time>2021-08-07T09:31:00Z</time>
      </trkpt>
      <trkpt lat="50.79747" lon="2.62607">
        <ele>48.68</ele>
        <time>2021-08-07T09:31:01Z</time>
      </trkpt>
      <trkpt lat="50.79752" lon="2.6261">
        <ele>49.16</ele>
        <time>2021-08-07T09:31:02Z</time>
      </trkpt>
      <trkpt lat="50.79757" lon="2.6261">
        <ele>49.16</ele>
        <time>2021-08-07T09:31:03Z</time>
      </trkpt>
      <trkpt lat="50.79762" lon="2.6261">
        <ele>49.16</ele>
        <time>2021-08-07T09:31:04Z</time>
      </trkpt>
      <trkpt lat="50.79791" lon="2.62614">
        <ele>47.72</ele>
        <time>2021-08-07T09:31:09Z</time>
      </trkpt>
      <trkpt lat="50.79797" lon="2.62615">
        <ele>47.72</ele>
        <time>2021-08-07T09:31:10Z</time>
      </trkpt>
      <trkpt lat="50.79824" lon="2.62618">
        <ele>44.84</ele>
        <time>2021-08-07T09:31:14Z</time>
      </trkpt>
      <trkpt lat="50.79831" lon="2.62623">
        <ele>43.88</ele>
        <time>2021-08-07T09:31:15Z</time>
      </trkpt>
      <trkpt lat="50.79837" lon="2.62632">
        <ele>42.44</ele>
        <time>2021-08-07T09:31:16Z</time>
      </trkpt>
      <trkpt lat="50.79842" lon="2.62642">
        <ele>42.44</ele>
        <time>2021-08-07T09:31:17Z</time>
      </trkpt>
      <trkpt lat="50.79844" lon="2.62652">
        <ele>42.44</ele>
        <time>2021-08-07T09:31:18Z</time>
      </trkpt>
      <trkpt lat="50.79844" lon="2.62661">
        <ele>42.44</ele>
        <time>2021-08-07T09:31:19Z</time>
      </trkpt>
      <trkpt lat="50.79842" lon="2.62671">
        <ele>42.44</ele>
        <time>2021-08-07T09:31:20Z</time>
      </trkpt>
      <trkpt lat="50.7984" lon="2.62677">
        <ele>42.44</ele>
        <time>2021-08-07T09:31:21Z</time>
      </trkpt>
      <trkpt lat="50.79838" lon="2.62683">
        <ele>43.4</ele>
        <time>2021-08-07T09:31:22Z</time>
      </trkpt>
      <trkpt lat="50.79822" lon="2.62727">
        <ele>45.8</ele>
        <time>2021-08-07T09:31:30Z</time>
      </trkpt>
      <trkpt lat="50.79802" lon="2.62778">
        <ele>48.68</ele>
        <time>2021-08-07T09:31:40Z</time>
      </trkpt>
      <trkpt lat="50.79785" lon="2.62826">
        <ele>50.61</ele>
        <time>2021-08-07T09:31:49Z</time>
      </trkpt>
      <trkpt lat="50.79767" lon="2.62875">
        <ele>52.05</ele>
        <time>2021-08-07T09:31:58Z</time>
      </trkpt>
      <trkpt lat="50.79766" lon="2.62881">
        <ele>52.05</ele>
        <time>2021-08-07T09:31:59Z</time>
      </trkpt>
      <trkpt lat="50.79741" lon="2.62956">
        <ele>53.49</ele>
        <time>2021-08-07T09:32:11Z</time>
      </trkpt>
      <trkpt lat="50.7973" lon="2.62995">
        <ele>53.97</ele>
        <time>2021-08-07T09:32:17Z</time>
      </trkpt>
      <trkpt lat="50.79708" lon="2.63064">
        <ele>52.53</ele>
        <time>2021-08-07T09:32:27Z</time>
      </trkpt>
      <trkpt lat="50.79689" lon="2.63125">
        <ele>52.05</ele>
        <time>2021-08-07T09:32:35Z</time>
      </trkpt>
      <trkpt lat="50.7966" lon="2.63214">
        <ele>50.61</ele>
        <time>2021-08-07T09:32:46Z</time>
      </trkpt>
      <trkpt lat="50.79648" lon="2.63245">
        <ele>50.61</ele>
        <time>2021-08-07T09:32:50Z</time>
      </trkpt>
      <trkpt lat="50.79617" lon="2.63328">
        <ele>49.16</ele>
        <time>2021-08-07T09:33:00Z</time>
      </trkpt>
      <trkpt lat="50.79594" lon="2.63423">
        <ele>49.16</ele>
        <time>2021-08-07T09:33:10Z</time>
      </trkpt>
      <trkpt lat="50.7959" lon="2.63442">
        <ele>49.16</ele>
        <time>2021-08-07T09:33:12Z</time>
      </trkpt>
      <trkpt lat="50.79578" lon="2.63492">
        <ele>49.16</ele>
        <time>2021-08-07T09:33:18Z</time>
      </trkpt>
      <trkpt lat="50.79576" lon="2.63499">
        <ele>49.16</ele>
        <time>2021-08-07T09:33:19Z</time>
      </trkpt>
      <trkpt lat="50.79574" lon="2.63507">
        <ele>49.16</ele>
        <time>2021-08-07T09:33:20Z</time>
      </trkpt>
      <trkpt lat="50.79566" lon="2.63539">
        <ele>50.61</ele>
        <time>2021-08-07T09:33:24Z</time>
      </trkpt>
      <trkpt lat="50.79545" lon="2.63619">
        <ele>52.05</ele>
        <time>2021-08-07T09:33:35Z</time>
      </trkpt>
      <trkpt lat="50.79543" lon="2.63627">
        <ele>52.05</ele>
        <time>2021-08-07T09:33:36Z</time>
      </trkpt>
      <trkpt lat="50.79523" lon="2.6369">
        <ele>52.53</ele>
        <time>2021-08-07T09:33:45Z</time>
      </trkpt>
      <trkpt lat="50.795" lon="2.63752">
        <ele>52.53</ele>
        <time>2021-08-07T09:33:54Z</time>
      </trkpt>
      <trkpt lat="50.79469" lon="2.6383">
        <ele>53.01</ele>
        <time>2021-08-07T09:34:05Z</time>
      </trkpt>
      <trkpt lat="50.7944" lon="2.63898">
        <ele>52.05</ele>
        <time>2021-08-07T09:34:14Z</time>
      </trkpt>
      <trkpt lat="50.79408" lon="2.63982">
        <ele>49.65</ele>
        <time>2021-08-07T09:34:24Z</time>
      </trkpt>
      <trkpt lat="50.79389" lon="2.64034">
        <ele>50.13</ele>
        <time>2021-08-07T09:34:30Z</time>
      </trkpt>
      <trkpt lat="50.79363" lon="2.64105">
        <ele>48.2</ele>
        <time>2021-08-07T09:34:38Z</time>
      </trkpt>
      <trkpt lat="50.79345" lon="2.64171">
        <ele>46.76</ele>
        <time>2021-08-07T09:34:45Z</time>
      </trkpt>
      <trkpt lat="50.79319" lon="2.64245">
        <ele>45.8</ele>
        <time>2021-08-07T09:34:54Z</time>
      </trkpt>
      <trkpt lat="50.79317" lon="2.64255">
        <ele>45.8</ele>
        <time>2021-08-07T09:34:57Z</time>
      </trkpt>
      <trkpt lat="50.79318" lon="2.64259">
        <ele>45.8</ele>
        <time>2021-08-07T09:34:58Z</time>
      </trkpt>
      <trkpt lat="50.7932" lon="2.64262">
        <ele>45.8</ele>
        <time>2021-08-07T09:34:59Z</time>
      </trkpt>
      <trkpt lat="50.79323" lon="2.64265">
        <ele>45.8</ele>
        <time>2021-08-07T09:35:00Z</time>
      </trkpt>
      <trkpt lat="50.79327" lon="2.64268">
        <ele>45.32</ele>
        <time>2021-08-07T09:35:01Z</time>
      </trkpt>
      <trkpt lat="50.7933" lon="2.6427">
        <ele>45.32</ele>
        <time>2021-08-07T09:35:02Z</time>
      </trkpt>
      <trkpt lat="50.79337" lon="2.64274">
        <ele>45.32</ele>
        <time>2021-08-07T09:35:03Z</time>
      </trkpt>
      <trkpt lat="50.79365" lon="2.64298">
        <ele>44.84</ele>
        <time>2021-08-07T09:35:09Z</time>
      </trkpt>
      <trkpt lat="50.79366" lon="2.64305">
        <ele>44.36</ele>
        <time>2021-08-07T09:35:10Z</time>
      </trkpt>
      <trkpt lat="50.79365" lon="2.64315">
        <ele>43.88</ele>
        <time>2021-08-07T09:35:11Z</time>
      </trkpt>
      <trkpt lat="50.79362" lon="2.64322">
        <ele>43.88</ele>
        <time>2021-08-07T09:35:12Z</time>
      </trkpt>
      <trkpt lat="50.7936" lon="2.64329">
        <ele>43.88</ele>
        <time>2021-08-07T09:35:13Z</time>
      </trkpt>
      <trkpt lat="50.79339" lon="2.64392">
        <ele>42.44</ele>
        <time>2021-08-07T09:35:21Z</time>
      </trkpt>
      <trkpt lat="50.7934" lon="2.64402">
        <ele>42.44</ele>
        <time>2021-08-07T09:35:22Z</time>
      </trkpt>
      <trkpt lat="50.79342" lon="2.6441">
        <ele>42.44</ele>
        <time>2021-08-07T09:35:23Z</time>
      </trkpt>
      <trkpt lat="50.79345" lon="2.64418">
        <ele>41.95</ele>
        <time>2021-08-07T09:35:24Z</time>
      </trkpt>
      <trkpt lat="50.79349" lon="2.64425">
        <ele>41.95</ele>
        <time>2021-08-07T09:35:25Z</time>
      </trkpt>
      <trkpt lat="50.79367" lon="2.64465">
        <ele>41.95</ele>
        <time>2021-08-07T09:35:31Z</time>
      </trkpt>
      <trkpt lat="50.79365" lon="2.6447">
        <ele>41.95</ele>
        <time>2021-08-07T09:35:32Z</time>
      </trkpt>
      <trkpt lat="50.79363" lon="2.64474">
        <ele>41.95</ele>
        <time>2021-08-07T09:35:33Z</time>
      </trkpt>
      <trkpt lat="50.79352" lon="2.64491">
        <ele>41.95</ele>
        <time>2021-08-07T09:35:37Z</time>
      </trkpt>
      <trkpt lat="50.79338" lon="2.64519">
        <ele>41.95</ele>
        <time>2021-08-07T09:35:42Z</time>
      </trkpt>
      <trkpt lat="50.79336" lon="2.64524">
        <ele>41.95</ele>
        <time>2021-08-07T09:35:43Z</time>
      </trkpt>
      <trkpt lat="50.79335" lon="2.64529">
        <ele>41.95</ele>
        <time>2021-08-07T09:35:44Z</time>
      </trkpt>
      <trkpt lat="50.79335" lon="2.64533">
        <ele>43.4</ele>
        <time>2021-08-07T09:35:45Z</time>
      </trkpt>
      <trkpt lat="50.79335" lon="2.64537">
        <ele>43.4</ele>
        <time>2021-08-07T09:35:46Z</time>
      </trkpt>
      <trkpt lat="50.79336" lon="2.64543">
        <ele>43.4</ele>
        <time>2021-08-07T09:35:47Z</time>
      </trkpt>
      <trkpt lat="50.79336" lon="2.64548">
        <ele>43.4</ele>
        <time>2021-08-07T09:35:48Z</time>
      </trkpt>
      <trkpt lat="50.79337" lon="2.64554">
        <ele>43.4</ele>
        <time>2021-08-07T09:35:49Z</time>
      </trkpt>
      <trkpt lat="50.79346" lon="2.64587">
        <ele>43.88</ele>
        <time>2021-08-07T09:35:55Z</time>
      </trkpt>
      <trkpt lat="50.79345" lon="2.64592">
        <ele>43.88</ele>
        <time>2021-08-07T09:35:56Z</time>
      </trkpt>
      <trkpt lat="50.79342" lon="2.64595">
        <ele>43.88</ele>
        <time>2021-08-07T09:35:57Z</time>
      </trkpt>
      <trkpt lat="50.79334" lon="2.64604">
        <ele>43.88</ele>
        <time>2021-08-07T09:36:00Z</time>
      </trkpt>
      <trkpt lat="50.79334" lon="2.64607">
        <ele>44.84</ele>
        <time>2021-08-07T09:36:01Z</time>
      </trkpt>
      <trkpt lat="50.79335" lon="2.64611">
        <ele>44.84</ele>
        <time>2021-08-07T09:36:02Z</time>
      </trkpt>
      <trkpt lat="50.79337" lon="2.64615">
        <ele>44.84</ele>
        <time>2021-08-07T09:36:03Z</time>
      </trkpt>
      <trkpt lat="50.7934" lon="2.64618">
        <ele>44.84</ele>
        <time>2021-08-07T09:36:04Z</time>
      </trkpt>
      <trkpt lat="50.79343" lon="2.64623">
        <ele>44.84</ele>
        <time>2021-08-07T09:36:05Z</time>
      </trkpt>
      <trkpt lat="50.7937" lon="2.64655">
        <ele>44.84</ele>
        <time>2021-08-07T09:36:12Z</time>
      </trkpt>
      <trkpt lat="50.79394" lon="2.64685">
        <ele>44.84</ele>
        <time>2021-08-07T09:36:18Z</time>
      </trkpt>
      <trkpt lat="50.79416" lon="2.64714">
        <ele>44.84</ele>
        <time>2021-08-07T09:36:24Z</time>
      </trkpt>
      <trkpt lat="50.79451" lon="2.64747">
        <ele>44.84</ele>
        <time>2021-08-07T09:36:31Z</time>
      </trkpt>
      <trkpt lat="50.79487" lon="2.64783">
        <ele>43.88</ele>
        <time>2021-08-07T09:36:39Z</time>
      </trkpt>
      <trkpt lat="50.79492" lon="2.64794">
        <ele>43.88</ele>
        <time>2021-08-07T09:36:43Z</time>
      </trkpt>
      <trkpt lat="50.79493" lon="2.64795">
        <ele>43.88</ele>
        <time>2021-08-07T09:36:50Z</time>
      </trkpt>
      <trkpt lat="50.79493" lon="2.64795">
        <ele>44.84</ele>
        <time>2021-08-07T09:36:52Z</time>
      </trkpt>
      <trkpt lat="50.79493" lon="2.64793">
        <ele>44.84</ele>
        <time>2021-08-07T09:36:57Z</time>
      </trkpt>
      <trkpt lat="50.79491" lon="2.64787">
        <ele>44.84</ele>
        <time>2021-08-07T09:37:02Z</time>
      </trkpt>
      <trkpt lat="50.79489" lon="2.64782">
        <ele>44.84</ele>
        <time>2021-08-07T09:37:06Z</time>
      </trkpt>
      <trkpt lat="50.79486" lon="2.64777">
        <ele>44.84</ele>
        <time>2021-08-07T09:37:12Z</time>
      </trkpt>
      <trkpt lat="50.79477" lon="2.64768">
        <ele>43.4</ele>
        <time>2021-08-07T09:37:18Z</time>
      </trkpt>
      <trkpt lat="50.7947" lon="2.64756">
        <ele>44.84</ele>
        <time>2021-08-07T09:37:22Z</time>
      </trkpt>
      <trkpt lat="50.7947" lon="2.64753">
        <ele>44.84</ele>
        <time>2021-08-07T09:37:23Z</time>
      </trkpt>
      <trkpt lat="50.79472" lon="2.6475">
        <ele>44.84</ele>
        <time>2021-08-07T09:37:28Z</time>
      </trkpt>
      <trkpt lat="50.79473" lon="2.64751">
        <ele>44.84</ele>
        <time>2021-08-07T09:37:34Z</time>
      </trkpt>
      <trkpt lat="50.79476" lon="2.64753">
        <ele>44.84</ele>
        <time>2021-08-07T09:37:37Z</time>
      </trkpt>
      <trkpt lat="50.79477" lon="2.64755">
        <ele>44.84</ele>
        <time>2021-08-07T09:37:38Z</time>
      </trkpt>
      <trkpt lat="50.79478" lon="2.64755">
        <ele>44.84</ele>
        <time>2021-08-07T09:37:39Z</time>
      </trkpt>
      <trkpt lat="50.79481" lon="2.64756">
        <ele>44.84</ele>
        <time>2021-08-07T09:37:40Z</time>
      </trkpt>
      <trkpt lat="50.79483" lon="2.64758">
        <ele>44.84</ele>
        <time>2021-08-07T09:37:41Z</time>
      </trkpt>
      <trkpt lat="50.79486" lon="2.6476">
        <ele>44.84</ele>
        <time>2021-08-07T09:37:42Z</time>
      </trkpt>
      <trkpt lat="50.79494" lon="2.64767">
        <ele>44.84</ele>
        <time>2021-08-07T09:37:44Z</time>
      </trkpt>
      <trkpt lat="50.79501" lon="2.64775">
        <ele>43.4</ele>
        <time>2021-08-07T09:37:46Z</time>
      </trkpt>
      <trkpt lat="50.79504" lon="2.6478">
        <ele>42.92</ele>
        <time>2021-08-07T09:37:47Z</time>
      </trkpt>
      <trkpt lat="50.79531" lon="2.64825">
        <ele>42.92</ele>
        <time>2021-08-07T09:37:55Z</time>
      </trkpt>
      <trkpt lat="50.79541" lon="2.64842">
        <ele>42.92</ele>
        <time>2021-08-07T09:37:58Z</time>
      </trkpt>
      <trkpt lat="50.79546" lon="2.64847">
        <ele>42.92</ele>
        <time>2021-08-07T09:37:59Z</time>
      </trkpt>
      <trkpt lat="50.79551" lon="2.64852">
        <ele>42.92</ele>
        <time>2021-08-07T09:38:00Z</time>
      </trkpt>
      <trkpt lat="50.79583" lon="2.64881">
        <ele>43.4</ele>
        <time>2021-08-07T09:38:07Z</time>
      </trkpt>
      <trkpt lat="50.79599" lon="2.64894">
        <ele>43.4</ele>
        <time>2021-08-07T09:38:12Z</time>
      </trkpt>
      <trkpt lat="50.79604" lon="2.64897">
        <ele>43.4</ele>
        <time>2021-08-07T09:38:13Z</time>
      </trkpt>
      <trkpt lat="50.79608" lon="2.649">
        <ele>43.4</ele>
        <time>2021-08-07T09:38:14Z</time>
      </trkpt>
      <trkpt lat="50.79621" lon="2.64914">
        <ele>43.4</ele>
        <time>2021-08-07T09:38:17Z</time>
      </trkpt>
      <trkpt lat="50.79625" lon="2.6492">
        <ele>43.4</ele>
        <time>2021-08-07T09:38:18Z</time>
      </trkpt>
      <trkpt lat="50.79662" lon="2.64969">
        <ele>43.4</ele>
        <time>2021-08-07T09:38:26Z</time>
      </trkpt>
      <trkpt lat="50.79673" lon="2.64981">
        <ele>43.4</ele>
        <time>2021-08-07T09:38:28Z</time>
      </trkpt>
      <trkpt lat="50.79679" lon="2.64986">
        <ele>43.4</ele>
        <time>2021-08-07T09:38:29Z</time>
      </trkpt>
      <trkpt lat="50.79689" lon="2.64994">
        <ele>43.4</ele>
        <time>2021-08-07T09:38:31Z</time>
      </trkpt>
      <trkpt lat="50.79725" lon="2.65032">
        <ele>43.4</ele>
        <time>2021-08-07T09:38:38Z</time>
      </trkpt>
      <trkpt lat="50.7974" lon="2.65055">
        <ele>43.4</ele>
        <time>2021-08-07T09:38:43Z</time>
      </trkpt>
      <trkpt lat="50.7974" lon="2.65059">
        <ele>43.4</ele>
        <time>2021-08-07T09:38:44Z</time>
      </trkpt>
      <trkpt lat="50.79738" lon="2.65063">
        <ele>43.4</ele>
        <time>2021-08-07T09:38:45Z</time>
      </trkpt>
      <trkpt lat="50.79736" lon="2.65065">
        <ele>43.4</ele>
        <time>2021-08-07T09:38:46Z</time>
      </trkpt>
      <trkpt lat="50.79734" lon="2.65068">
        <ele>43.4</ele>
        <time>2021-08-07T09:38:47Z</time>
      </trkpt>
      <trkpt lat="50.79728" lon="2.65075">
        <ele>44.84</ele>
        <time>2021-08-07T09:38:49Z</time>
      </trkpt>
      <trkpt lat="50.79703" lon="2.65113">
        <ele>45.32</ele>
        <time>2021-08-07T09:38:58Z</time>
      </trkpt>
      <trkpt lat="50.79678" lon="2.65152">
        <ele>46.28</ele>
        <time>2021-08-07T09:39:07Z</time>
      </trkpt>
      <trkpt lat="50.79657" lon="2.65186">
        <ele>47.72</ele>
        <time>2021-08-07T09:39:15Z</time>
      </trkpt>
      <trkpt lat="50.79629" lon="2.65228">
        <ele>48.68</ele>
        <time>2021-08-07T09:39:25Z</time>
      </trkpt>
      <trkpt lat="50.79605" lon="2.65264">
        <ele>50.13</ele>
        <time>2021-08-07T09:39:35Z</time>
      </trkpt>
      <trkpt lat="50.7959" lon="2.65286">
        <ele>51.57</ele>
        <time>2021-08-07T09:39:42Z</time>
      </trkpt>
      <trkpt lat="50.79573" lon="2.6529">
        <ele>52.05</ele>
        <time>2021-08-07T09:39:47Z</time>
      </trkpt>
      <trkpt lat="50.79557" lon="2.65279">
        <ele>52.05</ele>
        <time>2021-08-07T09:39:52Z</time>
      </trkpt>
      <trkpt lat="50.79552" lon="2.65265">
        <ele>50.61</ele>
        <time>2021-08-07T09:39:57Z</time>
      </trkpt>
      <trkpt lat="50.79546" lon="2.65248">
        <ele>49.65</ele>
        <time>2021-08-07T09:40:00Z</time>
      </trkpt>
      <trkpt lat="50.79542" lon="2.65243">
        <ele>49.65</ele>
        <time>2021-08-07T09:40:01Z</time>
      </trkpt>
      <trkpt lat="50.79538" lon="2.65241">
        <ele>49.65</ele>
        <time>2021-08-07T09:40:02Z</time>
      </trkpt>
      <trkpt lat="50.79533" lon="2.6524">
        <ele>48.68</ele>
        <time>2021-08-07T09:40:03Z</time>
      </trkpt>
      <trkpt lat="50.79527" lon="2.65241">
        <ele>48.2</ele>
        <time>2021-08-07T09:40:04Z</time>
      </trkpt>
      <trkpt lat="50.79523" lon="2.65243">
        <ele>48.2</ele>
        <time>2021-08-07T09:40:05Z</time>
      </trkpt>
      <trkpt lat="50.79518" lon="2.65248">
        <ele>48.2</ele>
        <time>2021-08-07T09:40:06Z</time>
      </trkpt>
      <trkpt lat="50.79514" lon="2.65252">
        <ele>47.72</ele>
        <time>2021-08-07T09:40:07Z</time>
      </trkpt>
      <trkpt lat="50.7951" lon="2.65259">
        <ele>47.72</ele>
        <time>2021-08-07T09:40:08Z</time>
      </trkpt>
      <trkpt lat="50.79494" lon="2.65278">
        <ele>47.24</ele>
        <time>2021-08-07T09:40:13Z</time>
      </trkpt>
      <trkpt lat="50.79468" lon="2.65307">
        <ele>46.76</ele>
        <time>2021-08-07T09:40:21Z</time>
      </trkpt>
      <trkpt lat="50.7946" lon="2.65325">
        <ele>47.72</ele>
        <time>2021-08-07T09:40:25Z</time>
      </trkpt>
      <trkpt lat="50.79445" lon="2.6536">
        <ele>49.65</ele>
        <time>2021-08-07T09:40:34Z</time>
      </trkpt>
      <trkpt lat="50.79426" lon="2.65389">
        <ele>51.57</ele>
        <time>2021-08-07T09:40:43Z</time>
      </trkpt>
      <trkpt lat="50.79409" lon="2.65401">
        <ele>52.53</ele>
        <time>2021-08-07T09:40:50Z</time>
      </trkpt>
      <trkpt lat="50.79381" lon="2.65419">
        <ele>53.97</ele>
        <time>2021-08-07T09:41:01Z</time>
      </trkpt>
      <trkpt lat="50.79359" lon="2.65431">
        <ele>55.41</ele>
        <time>2021-08-07T09:41:10Z</time>
      </trkpt>
      <trkpt lat="50.79339" lon="2.65442">
        <ele>55.89</ele>
        <time>2021-08-07T09:41:18Z</time>
      </trkpt>
      <trkpt lat="50.79315" lon="2.65456">
        <ele>57.34</ele>
        <time>2021-08-07T09:41:28Z</time>
      </trkpt>
      <trkpt lat="50.79297" lon="2.65466">
        <ele>58.3</ele>
        <time>2021-08-07T09:41:36Z</time>
      </trkpt>
      <trkpt lat="50.79284" lon="2.65472">
        <ele>59.74</ele>
        <time>2021-08-07T09:41:42Z</time>
      </trkpt>
      <trkpt lat="50.79268" lon="2.65482">
        <ele>60.7</ele>
        <time>2021-08-07T09:41:50Z</time>
      </trkpt>
      <trkpt lat="50.79265" lon="2.65485">
        <ele>60.7</ele>
        <time>2021-08-07T09:41:52Z</time>
      </trkpt>
      <trkpt lat="50.79262" lon="2.65486">
        <ele>61.18</ele>
        <time>2021-08-07T09:41:53Z</time>
      </trkpt>
      <trkpt lat="50.79256" lon="2.65491">
        <ele>62.14</ele>
        <time>2021-08-07T09:41:57Z</time>
      </trkpt>
      <trkpt lat="50.79254" lon="2.65491">
        <ele>62.14</ele>
        <time>2021-08-07T09:41:58Z</time>
      </trkpt>
      <trkpt lat="50.79241" lon="2.65499">
        <ele>62.62</ele>
        <time>2021-08-07T09:42:05Z</time>
      </trkpt>
      <trkpt lat="50.79223" lon="2.65511">
        <ele>64.07</ele>
        <time>2021-08-07T09:42:13Z</time>
      </trkpt>
      <trkpt lat="50.79201" lon="2.65525">
        <ele>65.51</ele>
        <time>2021-08-07T09:42:23Z</time>
      </trkpt>
      <trkpt lat="50.79182" lon="2.65539">
        <ele>66.47</ele>
        <time>2021-08-07T09:42:33Z</time>
      </trkpt>
      <trkpt lat="50.79163" lon="2.65549">
        <ele>68.39</ele>
        <time>2021-08-07T09:42:42Z</time>
      </trkpt>
      <trkpt lat="50.79147" lon="2.65559">
        <ele>70.31</ele>
        <time>2021-08-07T09:42:50Z</time>
      </trkpt>
      <trkpt lat="50.79133" lon="2.65571">
        <ele>72.24</ele>
        <time>2021-08-07T09:42:58Z</time>
      </trkpt>
      <trkpt lat="50.79118" lon="2.65586">
        <ele>74.16</ele>
        <time>2021-08-07T09:43:07Z</time>
      </trkpt>
      <trkpt lat="50.79105" lon="2.65597">
        <ele>76.08</ele>
        <time>2021-08-07T09:43:14Z</time>
      </trkpt>
      <trkpt lat="50.79103" lon="2.65598">
        <ele>76.56</ele>
        <time>2021-08-07T09:43:15Z</time>
      </trkpt>
      <trkpt lat="50.79101" lon="2.65599">
        <ele>76.56</ele>
        <time>2021-08-07T09:43:16Z</time>
      </trkpt>
      <trkpt lat="50.79099" lon="2.65601">
        <ele>76.56</ele>
        <time>2021-08-07T09:43:17Z</time>
      </trkpt>
      <trkpt lat="50.79086" lon="2.65613">
        <ele>78</ele>
        <time>2021-08-07T09:43:24Z</time>
      </trkpt>
      <trkpt lat="50.79062" lon="2.65632">
        <ele>78.48</ele>
        <time>2021-08-07T09:43:35Z</time>
      </trkpt>
      <trkpt lat="50.79033" lon="2.65652">
        <ele>78.48</ele>
        <time>2021-08-07T09:43:44Z</time>
      </trkpt>
      <trkpt lat="50.79004" lon="2.65672">
        <ele>78.97</ele>
        <time>2021-08-07T09:43:55Z</time>
      </trkpt>
      <trkpt lat="50.78992" lon="2.65682">
        <ele>79.93</ele>
        <time>2021-08-07T09:44:01Z</time>
      </trkpt>
      <trkpt lat="50.7898" lon="2.65691">
        <ele>80.89</ele>
        <time>2021-08-07T09:44:07Z</time>
      </trkpt>
      <trkpt lat="50.78963" lon="2.65699">
        <ele>82.81</ele>
        <time>2021-08-07T09:44:15Z</time>
      </trkpt>
      <trkpt lat="50.78961" lon="2.657">
        <ele>82.81</ele>
        <time>2021-08-07T09:44:16Z</time>
      </trkpt>
      <trkpt lat="50.7896" lon="2.65701">
        <ele>83.29</ele>
        <time>2021-08-07T09:44:17Z</time>
      </trkpt>
      <trkpt lat="50.78944" lon="2.65706">
        <ele>84.25</ele>
        <time>2021-08-07T09:44:24Z</time>
      </trkpt>
      <trkpt lat="50.78943" lon="2.65705">
        <ele>84.25</ele>
        <time>2021-08-07T09:44:25Z</time>
      </trkpt>
      <trkpt lat="50.7894" lon="2.65704">
        <ele>84.73</ele>
        <time>2021-08-07T09:44:28Z</time>
      </trkpt>
      <trkpt lat="50.78926" lon="2.65704">
        <ele>86.18</ele>
        <time>2021-08-07T09:44:35Z</time>
      </trkpt>
      <trkpt lat="50.78924" lon="2.65704">
        <ele>86.18</ele>
        <time>2021-08-07T09:44:36Z</time>
      </trkpt>
      <trkpt lat="50.78923" lon="2.65704">
        <ele>87.14</ele>
        <time>2021-08-07T09:44:37Z</time>
      </trkpt>
      <trkpt lat="50.78921" lon="2.65705">
        <ele>87.14</ele>
        <time>2021-08-07T09:44:38Z</time>
      </trkpt>
      <trkpt lat="50.78919" lon="2.65705">
        <ele>87.14</ele>
        <time>2021-08-07T09:44:39Z</time>
      </trkpt>
      <trkpt lat="50.78917" lon="2.65706">
        <ele>87.62</ele>
        <time>2021-08-07T09:44:40Z</time>
      </trkpt>
      <trkpt lat="50.78915" lon="2.65706">
        <ele>87.62</ele>
        <time>2021-08-07T09:44:41Z</time>
      </trkpt>
      <trkpt lat="50.78913" lon="2.65707">
        <ele>87.62</ele>
        <time>2021-08-07T09:44:42Z</time>
      </trkpt>
      <trkpt lat="50.78911" lon="2.65709">
        <ele>88.1</ele>
        <time>2021-08-07T09:44:43Z</time>
      </trkpt>
      <trkpt lat="50.78897" lon="2.65717">
        <ele>89.06</ele>
        <time>2021-08-07T09:44:50Z</time>
      </trkpt>
      <trkpt lat="50.78881" lon="2.65724">
        <ele>90.02</ele>
        <time>2021-08-07T09:44:57Z</time>
      </trkpt>
      <trkpt lat="50.78867" lon="2.65729">
        <ele>90.98</ele>
        <time>2021-08-07T09:45:03Z</time>
      </trkpt>
      <trkpt lat="50.78853" lon="2.65732">
        <ele>91.94</ele>
        <time>2021-08-07T09:45:09Z</time>
      </trkpt>
      <trkpt lat="50.78838" lon="2.6574">
        <ele>93.87</ele>
        <time>2021-08-07T09:45:17Z</time>
      </trkpt>
      <trkpt lat="50.78822" lon="2.6575">
        <ele>95.31</ele>
        <time>2021-08-07T09:45:25Z</time>
      </trkpt>
      <trkpt lat="50.7882" lon="2.6575">
        <ele>95.79</ele>
        <time>2021-08-07T09:45:26Z</time>
      </trkpt>
      <trkpt lat="50.78808" lon="2.65748">
        <ele>97.23</ele>
        <time>2021-08-07T09:45:33Z</time>
      </trkpt>
      <trkpt lat="50.78804" lon="2.65748">
        <ele>97.23</ele>
        <time>2021-08-07T09:45:35Z</time>
      </trkpt>
      <trkpt lat="50.78797" lon="2.65742">
        <ele>98.67</ele>
        <time>2021-08-07T09:45:40Z</time>
      </trkpt>
      <trkpt lat="50.78796" lon="2.65739">
        <ele>99.15</ele>
        <time>2021-08-07T09:45:41Z</time>
      </trkpt>
      <trkpt lat="50.78795" lon="2.65737">
        <ele>99.15</ele>
        <time>2021-08-07T09:45:42Z</time>
      </trkpt>
      <trkpt lat="50.78794" lon="2.65734">
        <ele>99.15</ele>
        <time>2021-08-07T09:45:43Z</time>
      </trkpt>
      <trkpt lat="50.78793" lon="2.65732">
        <ele>99.63</ele>
        <time>2021-08-07T09:45:44Z</time>
      </trkpt>
      <trkpt lat="50.7879" lon="2.65728">
        <ele>99.63</ele>
        <time>2021-08-07T09:45:46Z</time>
      </trkpt>
      <trkpt lat="50.78783" lon="2.6571">
        <ele>102.04</ele>
        <time>2021-08-07T09:45:55Z</time>
      </trkpt>
      <trkpt lat="50.78782" lon="2.65708">
        <ele>102.04</ele>
        <time>2021-08-07T09:45:56Z</time>
      </trkpt>
      <trkpt lat="50.78782" lon="2.65706">
        <ele>102.04</ele>
        <time>2021-08-07T09:45:57Z</time>
      </trkpt>
      <trkpt lat="50.78781" lon="2.65704">
        <ele>102.04</ele>
        <time>2021-08-07T09:45:58Z</time>
      </trkpt>
      <trkpt lat="50.78779" lon="2.65703">
        <ele>102.04</ele>
        <time>2021-08-07T09:45:59Z</time>
      </trkpt>
      <trkpt lat="50.78778" lon="2.65702">
        <ele>102.52</ele>
        <time>2021-08-07T09:46:00Z</time>
      </trkpt>
      <trkpt lat="50.78765" lon="2.65709">
        <ele>103.48</ele>
        <time>2021-08-07T09:46:06Z</time>
      </trkpt>
      <trkpt lat="50.78756" lon="2.65715">
        <ele>103.96</ele>
        <time>2021-08-07T09:46:12Z</time>
      </trkpt>
      <trkpt lat="50.78747" lon="2.65722">
        <ele>105.4</ele>
        <time>2021-08-07T09:46:19Z</time>
      </trkpt>
      <trkpt lat="50.78734" lon="2.65735">
        <ele>106.84</ele>
        <time>2021-08-07T09:46:28Z</time>
      </trkpt>
      <trkpt lat="50.78724" lon="2.6574">
        <ele>108.29</ele>
        <time>2021-08-07T09:46:33Z</time>
      </trkpt>
      <trkpt lat="50.78714" lon="2.65743">
        <ele>108.29</ele>
        <time>2021-08-07T09:46:40Z</time>
      </trkpt>
      <trkpt lat="50.78713" lon="2.65744">
        <ele>108.29</ele>
        <time>2021-08-07T09:46:41Z</time>
      </trkpt>
      <trkpt lat="50.78706" lon="2.65727">
        <ele>109.73</ele>
        <time>2021-08-07T09:46:50Z</time>
      </trkpt>
      <trkpt lat="50.78701" lon="2.65714">
        <ele>110.21</ele>
        <time>2021-08-07T09:46:55Z</time>
      </trkpt>
      <trkpt lat="50.78692" lon="2.65695">
        <ele>111.17</ele>
        <time>2021-08-07T09:47:02Z</time>
      </trkpt>
      <trkpt lat="50.78686" lon="2.65679">
        <ele>111.17</ele>
        <time>2021-08-07T09:47:06Z</time>
      </trkpt>
      <trkpt lat="50.78683" lon="2.65678">
        <ele>111.17</ele>
        <time>2021-08-07T09:47:07Z</time>
      </trkpt>
      <trkpt lat="50.7868" lon="2.6568">
        <ele>111.17</ele>
        <time>2021-08-07T09:47:08Z</time>
      </trkpt>
      <trkpt lat="50.78678" lon="2.65684">
        <ele>111.17</ele>
        <time>2021-08-07T09:47:09Z</time>
      </trkpt>
      <trkpt lat="50.78677" lon="2.65687">
        <ele>111.17</ele>
        <time>2021-08-07T09:47:10Z</time>
      </trkpt>
      <trkpt lat="50.78666" lon="2.6571">
        <ele>113.57</ele>
        <time>2021-08-07T09:47:20Z</time>
      </trkpt>
      <trkpt lat="50.7866" lon="2.65719">
        <ele>114.05</ele>
        <time>2021-08-07T09:47:25Z</time>
      </trkpt>
      <trkpt lat="50.78659" lon="2.6572">
        <ele>114.05</ele>
        <time>2021-08-07T09:47:26Z</time>
      </trkpt>
      <trkpt lat="50.78657" lon="2.65725">
        <ele>114.53</ele>
        <time>2021-08-07T09:47:29Z</time>
      </trkpt>
      <trkpt lat="50.78656" lon="2.65726">
        <ele>114.53</ele>
        <time>2021-08-07T09:47:30Z</time>
      </trkpt>
      <trkpt lat="50.78656" lon="2.65728">
        <ele>114.53</ele>
        <time>2021-08-07T09:47:31Z</time>
      </trkpt>
      <trkpt lat="50.78655" lon="2.6573">
        <ele>114.53</ele>
        <time>2021-08-07T09:47:32Z</time>
      </trkpt>
      <trkpt lat="50.78654" lon="2.65732">
        <ele>115.01</ele>
        <time>2021-08-07T09:47:33Z</time>
      </trkpt>
      <trkpt lat="50.78653" lon="2.65734">
        <ele>115.01</ele>
        <time>2021-08-07T09:47:34Z</time>
      </trkpt>
      <trkpt lat="50.78651" lon="2.65736">
        <ele>115.5</ele>
        <time>2021-08-07T09:47:35Z</time>
      </trkpt>
      <trkpt lat="50.78648" lon="2.65746">
        <ele>116.94</ele>
        <time>2021-08-07T09:47:40Z</time>
      </trkpt>
      <trkpt lat="50.78647" lon="2.65747">
        <ele>117.42</ele>
        <time>2021-08-07T09:47:41Z</time>
      </trkpt>
      <trkpt lat="50.78647" lon="2.6575">
        <ele>117.42</ele>
        <time>2021-08-07T09:47:42Z</time>
      </trkpt>
      <trkpt lat="50.78646" lon="2.65752">
        <ele>117.9</ele>
        <time>2021-08-07T09:47:43Z</time>
      </trkpt>
      <trkpt lat="50.78645" lon="2.65754">
        <ele>118.38</ele>
        <time>2021-08-07T09:47:44Z</time>
      </trkpt>
      <trkpt lat="50.78645" lon="2.65756">
        <ele>118.38</ele>
        <time>2021-08-07T09:47:45Z</time>
      </trkpt>
      <trkpt lat="50.78644" lon="2.65757">
        <ele>118.38</ele>
        <time>2021-08-07T09:47:46Z</time>
      </trkpt>
      <trkpt lat="50.78643" lon="2.65759">
        <ele>118.38</ele>
        <time>2021-08-07T09:47:47Z</time>
      </trkpt>
      <trkpt lat="50.78638" lon="2.65775">
        <ele>119.34</ele>
        <time>2021-08-07T09:47:54Z</time>
      </trkpt>
      <trkpt lat="50.78635" lon="2.65796">
        <ele>120.3</ele>
        <time>2021-08-07T09:48:02Z</time>
      </trkpt>
      <trkpt lat="50.7863" lon="2.65816">
        <ele>122.22</ele>
        <time>2021-08-07T09:48:11Z</time>
      </trkpt>
      <trkpt lat="50.78628" lon="2.65828">
        <ele>122.71</ele>
        <time>2021-08-07T09:48:16Z</time>
      </trkpt>
      <trkpt lat="50.78628" lon="2.65848">
        <ele>123.67</ele>
        <time>2021-08-07T09:48:23Z</time>
      </trkpt>
      <trkpt lat="50.78626" lon="2.65867">
        <ele>124.15</ele>
        <time>2021-08-07T09:48:30Z</time>
      </trkpt>
      <trkpt lat="50.78624" lon="2.6588">
        <ele>125.11</ele>
        <time>2021-08-07T09:48:35Z</time>
      </trkpt>
      <trkpt lat="50.78624" lon="2.65883">
        <ele>125.59</ele>
        <time>2021-08-07T09:48:36Z</time>
      </trkpt>
      <trkpt lat="50.78624" lon="2.65886">
        <ele>125.59</ele>
        <time>2021-08-07T09:48:37Z</time>
      </trkpt>
      <trkpt lat="50.78624" lon="2.65889">
        <ele>125.59</ele>
        <time>2021-08-07T09:48:38Z</time>
      </trkpt>
      <trkpt lat="50.78624" lon="2.65892">
        <ele>126.07</ele>
        <time>2021-08-07T09:48:39Z</time>
      </trkpt>
      <trkpt lat="50.78623" lon="2.65895">
        <ele>126.07</ele>
        <time>2021-08-07T09:48:40Z</time>
      </trkpt>
      <trkpt lat="50.7862" lon="2.65922">
        <ele>127.03</ele>
        <time>2021-08-07T09:48:48Z</time>
      </trkpt>
      <trkpt lat="50.7862" lon="2.65952">
        <ele>127.99</ele>
        <time>2021-08-07T09:48:56Z</time>
      </trkpt>
      <trkpt lat="50.78622" lon="2.65954">
        <ele>127.99</ele>
        <time>2021-08-07T09:48:57Z</time>
      </trkpt>
      <trkpt lat="50.78624" lon="2.65956">
        <ele>127.99</ele>
        <time>2021-08-07T09:48:58Z</time>
      </trkpt>
      <trkpt lat="50.78641" lon="2.65969">
        <ele>126.07</ele>
        <time>2021-08-07T09:49:04Z</time>
      </trkpt>
      <trkpt lat="50.78646" lon="2.65978">
        <ele>125.11</ele>
        <time>2021-08-07T09:49:06Z</time>
      </trkpt>
      <trkpt lat="50.78647" lon="2.65984">
        <ele>125.11</ele>
        <time>2021-08-07T09:49:07Z</time>
      </trkpt>
      <trkpt lat="50.78647" lon="2.6599">
        <ele>125.11</ele>
        <time>2021-08-07T09:49:08Z</time>
      </trkpt>
      <trkpt lat="50.78646" lon="2.65994">
        <ele>125.11</ele>
        <time>2021-08-07T09:49:09Z</time>
      </trkpt>
      <trkpt lat="50.78645" lon="2.65997">
        <ele>125.11</ele>
        <time>2021-08-07T09:49:10Z</time>
      </trkpt>
      <trkpt lat="50.78644" lon="2.66001">
        <ele>125.11</ele>
        <time>2021-08-07T09:49:11Z</time>
      </trkpt>
      <trkpt lat="50.78643" lon="2.66004">
        <ele>125.11</ele>
        <time>2021-08-07T09:49:12Z</time>
      </trkpt>
      <trkpt lat="50.78635" lon="2.6603">
        <ele>127.03</ele>
        <time>2021-08-07T09:49:20Z</time>
      </trkpt>
      <trkpt lat="50.78627" lon="2.66053">
        <ele>128.95</ele>
        <time>2021-08-07T09:49:28Z</time>
      </trkpt>
      <trkpt lat="50.78621" lon="2.66075">
        <ele>129.92</ele>
        <time>2021-08-07T09:49:35Z</time>
      </trkpt>
      <trkpt lat="50.78614" lon="2.66095">
        <ele>130.88</ele>
        <time>2021-08-07T09:49:42Z</time>
      </trkpt>
      <trkpt lat="50.78614" lon="2.66118">
        <ele>131.84</ele>
        <time>2021-08-07T09:49:49Z</time>
      </trkpt>
      <trkpt lat="50.78621" lon="2.66152">
        <ele>133.28</ele>
        <time>2021-08-07T09:49:58Z</time>
      </trkpt>
      <trkpt lat="50.78624" lon="2.66175">
        <ele>133.76</ele>
        <time>2021-08-07T09:50:04Z</time>
      </trkpt>
      <trkpt lat="50.78628" lon="2.66211">
        <ele>134.72</ele>
        <time>2021-08-07T09:50:13Z</time>
      </trkpt>
      <trkpt lat="50.78629" lon="2.66246">
        <ele>135.68</ele>
        <time>2021-08-07T09:50:21Z</time>
      </trkpt>
      <trkpt lat="50.78631" lon="2.66271">
        <ele>137.13</ele>
        <time>2021-08-07T09:50:27Z</time>
      </trkpt>
      <trkpt lat="50.78634" lon="2.66306">
        <ele>138.09</ele>
        <time>2021-08-07T09:50:35Z</time>
      </trkpt>
      <trkpt lat="50.78639" lon="2.66342">
        <ele>139.05</ele>
        <time>2021-08-07T09:50:43Z</time>
      </trkpt>
      <trkpt lat="50.78644" lon="2.66383">
        <ele>140.49</ele>
        <time>2021-08-07T09:50:53Z</time>
      </trkpt>
      <trkpt lat="50.78648" lon="2.6642">
        <ele>142.41</ele>
        <time>2021-08-07T09:51:02Z</time>
      </trkpt>
      <trkpt lat="50.78647" lon="2.66424">
        <ele>142.89</ele>
        <time>2021-08-07T09:51:03Z</time>
      </trkpt>
      <trkpt lat="50.78647" lon="2.66428">
        <ele>142.89</ele>
        <time>2021-08-07T09:51:04Z</time>
      </trkpt>
      <trkpt lat="50.78651" lon="2.66467">
        <ele>144.34</ele>
        <time>2021-08-07T09:51:14Z</time>
      </trkpt>
      <trkpt lat="50.7865" lon="2.66508">
        <ele>146.26</ele>
        <time>2021-08-07T09:51:24Z</time>
      </trkpt>
      <trkpt lat="50.78651" lon="2.66535">
        <ele>148.18</ele>
        <time>2021-08-07T09:51:31Z</time>
      </trkpt>
      <trkpt lat="50.78651" lon="2.66566">
        <ele>149.62</ele>
        <time>2021-08-07T09:51:39Z</time>
      </trkpt>
      <trkpt lat="50.78645" lon="2.66594">
        <ele>150.58</ele>
        <time>2021-08-07T09:51:47Z</time>
      </trkpt>
      <trkpt lat="50.78643" lon="2.66596">
        <ele>151.06</ele>
        <time>2021-08-07T09:51:48Z</time>
      </trkpt>
      <trkpt lat="50.78627" lon="2.66613">
        <ele>152.51</ele>
        <time>2021-08-07T09:51:56Z</time>
      </trkpt>
      <trkpt lat="50.78608" lon="2.66621">
        <ele>153.95</ele>
        <time>2021-08-07T09:52:04Z</time>
      </trkpt>
      <trkpt lat="50.78586" lon="2.66617">
        <ele>155.87</ele>
        <time>2021-08-07T09:52:13Z</time>
      </trkpt>
      <trkpt lat="50.78567" lon="2.66611">
        <ele>157.31</ele>
        <time>2021-08-07T09:52:21Z</time>
      </trkpt>
      <trkpt lat="50.78547" lon="2.66609">
        <ele>158.27</ele>
        <time>2021-08-07T09:52:29Z</time>
      </trkpt>
      <trkpt lat="50.78528" lon="2.66608">
        <ele>159.24</ele>
        <time>2021-08-07T09:52:35Z</time>
      </trkpt>
      <trkpt lat="50.78504" lon="2.6661">
        <ele>160.2</ele>
        <time>2021-08-07T09:52:43Z</time>
      </trkpt>
      <trkpt lat="50.78479" lon="2.66612">
        <ele>161.16</ele>
        <time>2021-08-07T09:52:51Z</time>
      </trkpt>
      <trkpt lat="50.78454" lon="2.66632">
        <ele>162.12</ele>
        <time>2021-08-07T09:52:59Z</time>
      </trkpt>
      <trkpt lat="50.78439" lon="2.66673">
        <ele>162.12</ele>
        <time>2021-08-07T09:53:07Z</time>
      </trkpt>
      <trkpt lat="50.78432" lon="2.66695">
        <ele>162.12</ele>
        <time>2021-08-07T09:53:11Z</time>
      </trkpt>
      <trkpt lat="50.78431" lon="2.66701">
        <ele>162.12</ele>
        <time>2021-08-07T09:53:12Z</time>
      </trkpt>
      <trkpt lat="50.7843" lon="2.66707">
        <ele>162.12</ele>
        <time>2021-08-07T09:53:13Z</time>
      </trkpt>
      <trkpt lat="50.78421" lon="2.66741">
        <ele>162.6</ele>
        <time>2021-08-07T09:53:20Z</time>
      </trkpt>
      <trkpt lat="50.78418" lon="2.66755">
        <ele>163.08</ele>
        <time>2021-08-07T09:53:23Z</time>
      </trkpt>
      <trkpt lat="50.78416" lon="2.66759">
        <ele>163.08</ele>
        <time>2021-08-07T09:53:24Z</time>
      </trkpt>
      <trkpt lat="50.78414" lon="2.66763">
        <ele>163.08</ele>
        <time>2021-08-07T09:53:25Z</time>
      </trkpt>
      <trkpt lat="50.7841" lon="2.66769">
        <ele>163.08</ele>
        <time>2021-08-07T09:53:26Z</time>
      </trkpt>
      <trkpt lat="50.78407" lon="2.66775">
        <ele>163.08</ele>
        <time>2021-08-07T09:53:27Z</time>
      </trkpt>
      <trkpt lat="50.78404" lon="2.66781">
        <ele>163.08</ele>
        <time>2021-08-07T09:53:28Z</time>
      </trkpt>
      <trkpt lat="50.784" lon="2.66793">
        <ele>162.12</ele>
        <time>2021-08-07T09:53:30Z</time>
      </trkpt>
      <trkpt lat="50.78391" lon="2.6682">
        <ele>163.08</ele>
        <time>2021-08-07T09:53:35Z</time>
      </trkpt>
      <trkpt lat="50.78377" lon="2.66872">
        <ele>163.08</ele>
        <time>2021-08-07T09:53:44Z</time>
      </trkpt>
      <trkpt lat="50.78374" lon="2.66911">
        <ele>161.64</ele>
        <time>2021-08-07T09:53:49Z</time>
      </trkpt>
      <trkpt lat="50.78372" lon="2.66928">
        <ele>161.16</ele>
        <time>2021-08-07T09:53:51Z</time>
      </trkpt>
      <trkpt lat="50.78372" lon="2.66936">
        <ele>160.68</ele>
        <time>2021-08-07T09:53:52Z</time>
      </trkpt>
      <trkpt lat="50.78373" lon="2.66943">
        <ele>160.68</ele>
        <time>2021-08-07T09:53:53Z</time>
      </trkpt>
      <trkpt lat="50.78373" lon="2.6695">
        <ele>160.68</ele>
        <time>2021-08-07T09:53:54Z</time>
      </trkpt>
      <trkpt lat="50.78373" lon="2.66956">
        <ele>160.2</ele>
        <time>2021-08-07T09:53:55Z</time>
      </trkpt>
      <trkpt lat="50.78371" lon="2.66962">
        <ele>160.68</ele>
        <time>2021-08-07T09:53:56Z</time>
      </trkpt>
      <trkpt lat="50.7837" lon="2.66968">
        <ele>159.72</ele>
        <time>2021-08-07T09:53:57Z</time>
      </trkpt>
      <trkpt lat="50.78369" lon="2.66975">
        <ele>159.24</ele>
        <time>2021-08-07T09:53:58Z</time>
      </trkpt>
      <trkpt lat="50.78369" lon="2.66988">
        <ele>158.27</ele>
        <time>2021-08-07T09:54:00Z</time>
      </trkpt>
      <trkpt lat="50.78364" lon="2.67026">
        <ele>158.27</ele>
        <time>2021-08-07T09:54:06Z</time>
      </trkpt>
      <trkpt lat="50.78362" lon="2.67039">
        <ele>158.27</ele>
        <time>2021-08-07T09:54:08Z</time>
      </trkpt>
      <trkpt lat="50.78362" lon="2.67045">
        <ele>157.79</ele>
        <time>2021-08-07T09:54:09Z</time>
      </trkpt>
      <trkpt lat="50.78361" lon="2.67057">
        <ele>157.31</ele>
        <time>2021-08-07T09:54:14Z</time>
      </trkpt>
      <trkpt lat="50.78362" lon="2.67059">
        <ele>157.31</ele>
        <time>2021-08-07T09:54:20Z</time>
      </trkpt>
      <trkpt lat="50.78363" lon="2.67059">
        <ele>157.31</ele>
        <time>2021-08-07T09:54:21Z</time>
      </trkpt>
      <trkpt lat="50.78366" lon="2.67066">
        <ele>156.83</ele>
        <time>2021-08-07T09:54:25Z</time>
      </trkpt>
      <trkpt lat="50.78366" lon="2.67069">
        <ele>155.87</ele>
        <time>2021-08-07T09:54:26Z</time>
      </trkpt>
      <trkpt lat="50.78367" lon="2.67072">
        <ele>155.39</ele>
        <time>2021-08-07T09:54:27Z</time>
      </trkpt>
      <trkpt lat="50.78367" lon="2.67075">
        <ele>155.39</ele>
        <time>2021-08-07T09:54:28Z</time>
      </trkpt>
      <trkpt lat="50.78367" lon="2.67078">
        <ele>154.43</ele>
        <time>2021-08-07T09:54:29Z</time>
      </trkpt>
      <trkpt lat="50.78366" lon="2.6708">
        <ele>153.47</ele>
        <time>2021-08-07T09:54:30Z</time>
      </trkpt>
      <trkpt lat="50.78366" lon="2.67082">
        <ele>153.47</ele>
        <time>2021-08-07T09:54:31Z</time>
      </trkpt>
      <trkpt lat="50.78365" lon="2.67083">
        <ele>153.47</ele>
        <time>2021-08-07T09:54:32Z</time>
      </trkpt>
      <trkpt lat="50.78363" lon="2.67084">
        <ele>153.47</ele>
        <time>2021-08-07T09:54:33Z</time>
      </trkpt>
      <trkpt lat="50.78361" lon="2.67085">
        <ele>153.47</ele>
        <time>2021-08-07T09:54:34Z</time>
      </trkpt>
      <trkpt lat="50.7836" lon="2.67085">
        <ele>153.47</ele>
        <time>2021-08-07T09:54:35Z</time>
      </trkpt>
      <trkpt lat="50.78358" lon="2.67086">
        <ele>153.47</ele>
        <time>2021-08-07T09:54:36Z</time>
      </trkpt>
      <trkpt lat="50.78356" lon="2.67087">
        <ele>153.47</ele>
        <time>2021-08-07T09:54:37Z</time>
      </trkpt>
      <trkpt lat="50.78354" lon="2.67088">
        <ele>153.47</ele>
        <time>2021-08-07T09:54:38Z</time>
      </trkpt>
      <trkpt lat="50.7834" lon="2.67096">
        <ele>154.91</ele>
        <time>2021-08-07T09:54:45Z</time>
      </trkpt>
      <trkpt lat="50.78311" lon="2.67103">
        <ele>154.91</ele>
        <time>2021-08-07T09:54:54Z</time>
      </trkpt>
      <trkpt lat="50.78291" lon="2.67104">
        <ele>154.91</ele>
        <time>2021-08-07T09:55:00Z</time>
      </trkpt>
      <trkpt lat="50.78272" lon="2.67093">
        <ele>153.47</ele>
        <time>2021-08-07T09:55:06Z</time>
      </trkpt>
      <trkpt lat="50.78257" lon="2.67093">
        <ele>152.99</ele>
        <time>2021-08-07T09:55:11Z</time>
      </trkpt>
      <trkpt lat="50.78255" lon="2.67096">
        <ele>152.99</ele>
        <time>2021-08-07T09:55:12Z</time>
      </trkpt>
      <trkpt lat="50.78254" lon="2.67101">
        <ele>152.03</ele>
        <time>2021-08-07T09:55:13Z</time>
      </trkpt>
      <trkpt lat="50.78253" lon="2.67105">
        <ele>152.03</ele>
        <time>2021-08-07T09:55:14Z</time>
      </trkpt>
      <trkpt lat="50.78252" lon="2.6711">
        <ele>152.03</ele>
        <time>2021-08-07T09:55:15Z</time>
      </trkpt>
      <trkpt lat="50.78252" lon="2.67115">
        <ele>152.03</ele>
        <time>2021-08-07T09:55:16Z</time>
      </trkpt>
      <trkpt lat="50.78247" lon="2.6716">
        <ele>152.03</ele>
        <time>2021-08-07T09:55:24Z</time>
      </trkpt>
      <trkpt lat="50.78241" lon="2.67199">
        <ele>151.54</ele>
        <time>2021-08-07T09:55:30Z</time>
      </trkpt>
      <trkpt lat="50.78239" lon="2.67206">
        <ele>151.06</ele>
        <time>2021-08-07T09:55:31Z</time>
      </trkpt>
      <trkpt lat="50.78238" lon="2.67211">
        <ele>151.06</ele>
        <time>2021-08-07T09:55:32Z</time>
      </trkpt>
      <trkpt lat="50.78237" lon="2.67216">
        <ele>150.58</ele>
        <time>2021-08-07T09:55:33Z</time>
      </trkpt>
      <trkpt lat="50.78236" lon="2.6722">
        <ele>150.58</ele>
        <time>2021-08-07T09:55:34Z</time>
      </trkpt>
      <trkpt lat="50.78236" lon="2.67224">
        <ele>149.62</ele>
        <time>2021-08-07T09:55:35Z</time>
      </trkpt>
      <trkpt lat="50.78225" lon="2.67249">
        <ele>146.74</ele>
        <time>2021-08-07T09:55:40Z</time>
      </trkpt>
      <trkpt lat="50.78222" lon="2.67252">
        <ele>145.78</ele>
        <time>2021-08-07T09:55:41Z</time>
      </trkpt>
      <trkpt lat="50.78218" lon="2.67254">
        <ele>145.3</ele>
        <time>2021-08-07T09:55:42Z</time>
      </trkpt>
      <trkpt lat="50.78214" lon="2.67257">
        <ele>144.82</ele>
        <time>2021-08-07T09:55:43Z</time>
      </trkpt>
      <trkpt lat="50.78199" lon="2.67261">
        <ele>141.45</ele>
        <time>2021-08-07T09:55:47Z</time>
      </trkpt>
      <trkpt lat="50.78193" lon="2.67261">
        <ele>140.49</ele>
        <time>2021-08-07T09:55:49Z</time>
      </trkpt>
      <trkpt lat="50.78191" lon="2.67261">
        <ele>140.01</ele>
        <time>2021-08-07T09:55:50Z</time>
      </trkpt>
      <trkpt lat="50.78188" lon="2.67263">
        <ele>139.05</ele>
        <time>2021-08-07T09:55:51Z</time>
      </trkpt>
      <trkpt lat="50.78186" lon="2.67268">
        <ele>138.57</ele>
        <time>2021-08-07T09:55:52Z</time>
      </trkpt>
      <trkpt lat="50.78185" lon="2.67273">
        <ele>137.61</ele>
        <time>2021-08-07T09:55:53Z</time>
      </trkpt>
      <trkpt lat="50.78183" lon="2.67277">
        <ele>136.64</ele>
        <time>2021-08-07T09:55:54Z</time>
      </trkpt>
      <trkpt lat="50.7818" lon="2.6728">
        <ele>135.68</ele>
        <time>2021-08-07T09:55:55Z</time>
      </trkpt>
      <trkpt lat="50.78177" lon="2.67282">
        <ele>134.72</ele>
        <time>2021-08-07T09:55:56Z</time>
      </trkpt>
      <trkpt lat="50.78173" lon="2.67284">
        <ele>133.76</ele>
        <time>2021-08-07T09:55:57Z</time>
      </trkpt>
      <trkpt lat="50.78168" lon="2.67287">
        <ele>131.84</ele>
        <time>2021-08-07T09:55:58Z</time>
      </trkpt>
      <trkpt lat="50.78162" lon="2.6729">
        <ele>130.88</ele>
        <time>2021-08-07T09:55:59Z</time>
      </trkpt>
      <trkpt lat="50.78146" lon="2.67297">
        <ele>127.51</ele>
        <time>2021-08-07T09:56:01Z</time>
      </trkpt>
      <trkpt lat="50.78118" lon="2.67306">
        <ele>124.63</ele>
        <time>2021-08-07T09:56:06Z</time>
      </trkpt>
      <trkpt lat="50.78113" lon="2.67309">
        <ele>124.63</ele>
        <time>2021-08-07T09:56:07Z</time>
      </trkpt>
      <trkpt lat="50.78111" lon="2.67314">
        <ele>124.63</ele>
        <time>2021-08-07T09:56:08Z</time>
      </trkpt>
      <trkpt lat="50.78109" lon="2.67321">
        <ele>123.67</ele>
        <time>2021-08-07T09:56:09Z</time>
      </trkpt>
      <trkpt lat="50.78107" lon="2.67375">
        <ele>121.74</ele>
        <time>2021-08-07T09:56:15Z</time>
      </trkpt>
      <trkpt lat="50.78108" lon="2.67397">
        <ele>119.82</ele>
        <time>2021-08-07T09:56:17Z</time>
      </trkpt>
      <trkpt lat="50.7811" lon="2.6741">
        <ele>118.86</ele>
        <time>2021-08-07T09:56:18Z</time>
      </trkpt>
      <trkpt lat="50.78112" lon="2.67424">
        <ele>118.38</ele>
        <time>2021-08-07T09:56:19Z</time>
      </trkpt>
      <trkpt lat="50.78116" lon="2.67437">
        <ele>116.94</ele>
        <time>2021-08-07T09:56:20Z</time>
      </trkpt>
      <trkpt lat="50.7812" lon="2.67451">
        <ele>115.98</ele>
        <time>2021-08-07T09:56:21Z</time>
      </trkpt>
      <trkpt lat="50.78126" lon="2.67464">
        <ele>114.53</ele>
        <time>2021-08-07T09:56:22Z</time>
      </trkpt>
      <trkpt lat="50.78133" lon="2.67477">
        <ele>113.57</ele>
        <time>2021-08-07T09:56:23Z</time>
      </trkpt>
      <trkpt lat="50.7814" lon="2.67489">
        <ele>112.61</ele>
        <time>2021-08-07T09:56:24Z</time>
      </trkpt>
      <trkpt lat="50.78148" lon="2.675">
        <ele>111.65</ele>
        <time>2021-08-07T09:56:25Z</time>
      </trkpt>
      <trkpt lat="50.78172" lon="2.67539">
        <ele>108.77</ele>
        <time>2021-08-07T09:56:28Z</time>
      </trkpt>
      <trkpt lat="50.78179" lon="2.67553">
        <ele>107.81</ele>
        <time>2021-08-07T09:56:29Z</time>
      </trkpt>
      <trkpt lat="50.78184" lon="2.6757">
        <ele>105.88</ele>
        <time>2021-08-07T09:56:30Z</time>
      </trkpt>
      <trkpt lat="50.78188" lon="2.67586">
        <ele>104.92</ele>
        <time>2021-08-07T09:56:31Z</time>
      </trkpt>
      <trkpt lat="50.7819" lon="2.67603">
        <ele>103.96</ele>
        <time>2021-08-07T09:56:32Z</time>
      </trkpt>
      <trkpt lat="50.78191" lon="2.6762">
        <ele>103.48</ele>
        <time>2021-08-07T09:56:33Z</time>
      </trkpt>
      <trkpt lat="50.78193" lon="2.6765">
        <ele>102.52</ele>
        <time>2021-08-07T09:56:35Z</time>
      </trkpt>
      <trkpt lat="50.78193" lon="2.67702">
        <ele>101.08</ele>
        <time>2021-08-07T09:56:39Z</time>
      </trkpt>
      <trkpt lat="50.78191" lon="2.67714">
        <ele>100.6</ele>
        <time>2021-08-07T09:56:40Z</time>
      </trkpt>
      <trkpt lat="50.78188" lon="2.67726">
        <ele>100.6</ele>
        <time>2021-08-07T09:56:41Z</time>
      </trkpt>
      <trkpt lat="50.78183" lon="2.67737">
        <ele>99.15</ele>
        <time>2021-08-07T09:56:42Z</time>
      </trkpt>
      <trkpt lat="50.78177" lon="2.67747">
        <ele>98.67</ele>
        <time>2021-08-07T09:56:43Z</time>
      </trkpt>
      <trkpt lat="50.78171" lon="2.67757">
        <ele>97.71</ele>
        <time>2021-08-07T09:56:44Z</time>
      </trkpt>
      <trkpt lat="50.78165" lon="2.67767">
        <ele>97.23</ele>
        <time>2021-08-07T09:56:45Z</time>
      </trkpt>
      <trkpt lat="50.78116" lon="2.67831">
        <ele>96.75</ele>
        <time>2021-08-07T09:56:53Z</time>
      </trkpt>
      <trkpt lat="50.78057" lon="2.6789">
        <ele>94.35</ele>
        <time>2021-08-07T09:57:02Z</time>
      </trkpt>
      <trkpt lat="50.78026" lon="2.67915">
        <ele>93.87</ele>
        <time>2021-08-07T09:57:07Z</time>
      </trkpt>
      <trkpt lat="50.78022" lon="2.6792">
        <ele>93.87</ele>
        <time>2021-08-07T09:57:08Z</time>
      </trkpt>
      <trkpt lat="50.7802" lon="2.67927">
        <ele>93.87</ele>
        <time>2021-08-07T09:57:09Z</time>
      </trkpt>
      <trkpt lat="50.78019" lon="2.67933">
        <ele>93.87</ele>
        <time>2021-08-07T09:57:10Z</time>
      </trkpt>
      <trkpt lat="50.7802" lon="2.67937">
        <ele>93.87</ele>
        <time>2021-08-07T09:57:11Z</time>
      </trkpt>
      <trkpt lat="50.7802" lon="2.67942">
        <ele>93.87</ele>
        <time>2021-08-07T09:57:12Z</time>
      </trkpt>
      <trkpt lat="50.78021" lon="2.67946">
        <ele>94.83</ele>
        <time>2021-08-07T09:57:13Z</time>
      </trkpt>
      <trkpt lat="50.78022" lon="2.67951">
        <ele>94.83</ele>
        <time>2021-08-07T09:57:14Z</time>
      </trkpt>
      <trkpt lat="50.78028" lon="2.67997">
        <ele>93.87</ele>
        <time>2021-08-07T09:57:22Z</time>
      </trkpt>
      <trkpt lat="50.78032" lon="2.68036">
        <ele>90.02</ele>
        <time>2021-08-07T09:57:26Z</time>
      </trkpt>
      <trkpt lat="50.78035" lon="2.68065">
        <ele>88.1</ele>
        <time>2021-08-07T09:57:29Z</time>
      </trkpt>
      <trkpt lat="50.78039" lon="2.68094">
        <ele>86.18</ele>
        <time>2021-08-07T09:57:33Z</time>
      </trkpt>
      <trkpt lat="50.78039" lon="2.68102">
        <ele>86.18</ele>
        <time>2021-08-07T09:57:34Z</time>
      </trkpt>
      <trkpt lat="50.78044" lon="2.68156">
        <ele>83.29</ele>
        <time>2021-08-07T09:57:40Z</time>
      </trkpt>
      <trkpt lat="50.78053" lon="2.68228">
        <ele>80.41</ele>
        <time>2021-08-07T09:57:47Z</time>
      </trkpt>
      <trkpt lat="50.78055" lon="2.68283">
        <ele>77.04</ele>
        <time>2021-08-07T09:57:52Z</time>
      </trkpt>
      <trkpt lat="50.78056" lon="2.68294">
        <ele>77.04</ele>
        <time>2021-08-07T09:57:53Z</time>
      </trkpt>
      <trkpt lat="50.78058" lon="2.68357">
        <ele>75.12</ele>
        <time>2021-08-07T09:57:59Z</time>
      </trkpt>
      <trkpt lat="50.78063" lon="2.68399">
        <ele>74.64</ele>
        <time>2021-08-07T09:58:04Z</time>
      </trkpt>
      <trkpt lat="50.78066" lon="2.68437">
        <ele>73.68</ele>
        <time>2021-08-07T09:58:10Z</time>
      </trkpt>
      <trkpt lat="50.78065" lon="2.68462">
        <ele>72.24</ele>
        <time>2021-08-07T09:58:14Z</time>
      </trkpt>
      <trkpt lat="50.78068" lon="2.6849">
        <ele>71.27</ele>
        <time>2021-08-07T09:58:18Z</time>
      </trkpt>
      <trkpt lat="50.78073" lon="2.68532">
        <ele>69.35</ele>
        <time>2021-08-07T09:58:24Z</time>
      </trkpt>
      <trkpt lat="50.78073" lon="2.6854">
        <ele>69.35</ele>
        <time>2021-08-07T09:58:25Z</time>
      </trkpt>
      <trkpt lat="50.78074" lon="2.68546">
        <ele>68.87</ele>
        <time>2021-08-07T09:58:26Z</time>
      </trkpt>
      <trkpt lat="50.7808" lon="2.6862">
        <ele>67.43</ele>
        <time>2021-08-07T09:58:35Z</time>
      </trkpt>
      <trkpt lat="50.78079" lon="2.6864">
        <ele>66.95</ele>
        <time>2021-08-07T09:58:37Z</time>
      </trkpt>
      <trkpt lat="50.78075" lon="2.68719">
        <ele>65.51</ele>
        <time>2021-08-07T09:58:46Z</time>
      </trkpt>
      <trkpt lat="50.78077" lon="2.68788">
        <ele>64.07</ele>
        <time>2021-08-07T09:58:54Z</time>
      </trkpt>
      <trkpt lat="50.78076" lon="2.68806">
        <ele>63.58</ele>
        <time>2021-08-07T09:58:56Z</time>
      </trkpt>
      <trkpt lat="50.7807" lon="2.68888">
        <ele>61.66</ele>
        <time>2021-08-07T09:59:04Z</time>
      </trkpt>
      <trkpt lat="50.78063" lon="2.68975">
        <ele>59.26</ele>
        <time>2021-08-07T09:59:12Z</time>
      </trkpt>
      <trkpt lat="50.78061" lon="2.68985">
        <ele>58.78</ele>
        <time>2021-08-07T09:59:13Z</time>
      </trkpt>
      <trkpt lat="50.78054" lon="2.69024">
        <ele>57.82</ele>
        <time>2021-08-07T09:59:18Z</time>
      </trkpt>
      <trkpt lat="50.78067" lon="2.69046">
        <ele>57.82</ele>
        <time>2021-08-07T09:59:23Z</time>
      </trkpt>
      <trkpt lat="50.78073" lon="2.69057">
        <ele>57.82</ele>
        <time>2021-08-07T09:59:25Z</time>
      </trkpt>
      <trkpt lat="50.78087" lon="2.69099">
        <ele>59.26</ele>
        <time>2021-08-07T09:59:33Z</time>
      </trkpt>
      <trkpt lat="50.78095" lon="2.69134">
        <ele>60.7</ele>
        <time>2021-08-07T09:59:41Z</time>
      </trkpt>
      <trkpt lat="50.78104" lon="2.69173">
        <ele>63.1</ele>
        <time>2021-08-07T09:59:51Z</time>
      </trkpt>
      <trkpt lat="50.7811" lon="2.69189">
        <ele>65.03</ele>
        <time>2021-08-07T09:59:55Z</time>
      </trkpt>
      <trkpt lat="50.78121" lon="2.69229">
        <ele>65.51</ele>
        <time>2021-08-07T10:00:03Z</time>
      </trkpt>
      <trkpt lat="50.78142" lon="2.69281">
        <ele>65.51</ele>
        <time>2021-08-07T10:00:12Z</time>
      </trkpt>
      <trkpt lat="50.78147" lon="2.69294">
        <ele>64.07</ele>
        <time>2021-08-07T10:00:14Z</time>
      </trkpt>
      <trkpt lat="50.78179" lon="2.69368">
        <ele>62.62</ele>
        <time>2021-08-07T10:00:24Z</time>
      </trkpt>
      <trkpt lat="50.78212" lon="2.6944">
        <ele>61.66</ele>
        <time>2021-08-07T10:00:33Z</time>
      </trkpt>
      <trkpt lat="50.78249" lon="2.69513">
        <ele>59.74</ele>
        <time>2021-08-07T10:00:42Z</time>
      </trkpt>
      <trkpt lat="50.78256" lon="2.69529">
        <ele>59.74</ele>
        <time>2021-08-07T10:00:45Z</time>
      </trkpt>
      <trkpt lat="50.78255" lon="2.69532">
        <ele>59.26</ele>
        <time>2021-08-07T10:00:46Z</time>
      </trkpt>
      <trkpt lat="50.78253" lon="2.69536">
        <ele>59.26</ele>
        <time>2021-08-07T10:00:47Z</time>
      </trkpt>
      <trkpt lat="50.78251" lon="2.6954">
        <ele>58.3</ele>
        <time>2021-08-07T10:00:48Z</time>
      </trkpt>
      <trkpt lat="50.78247" lon="2.69544">
        <ele>58.3</ele>
        <time>2021-08-07T10:00:49Z</time>
      </trkpt>
      <trkpt lat="50.78244" lon="2.69548">
        <ele>58.3</ele>
        <time>2021-08-07T10:00:50Z</time>
      </trkpt>
      <trkpt lat="50.78223" lon="2.69572">
        <ele>57.34</ele>
        <time>2021-08-07T10:00:55Z</time>
      </trkpt>
      <trkpt lat="50.78218" lon="2.69577">
        <ele>57.34</ele>
        <time>2021-08-07T10:00:56Z</time>
      </trkpt>
      <trkpt lat="50.78205" lon="2.69593">
        <ele>58.78</ele>
        <time>2021-08-07T10:00:59Z</time>
      </trkpt>
      <trkpt lat="50.78193" lon="2.69608">
        <ele>56.86</ele>
        <time>2021-08-07T10:01:02Z</time>
      </trkpt>
      <trkpt lat="50.78166" lon="2.6964">
        <ele>53.97</ele>
        <time>2021-08-07T10:01:09Z</time>
      </trkpt>
      <trkpt lat="50.78153" lon="2.69655">
        <ele>56.37</ele>
        <time>2021-08-07T10:01:12Z</time>
      </trkpt>
      <trkpt lat="50.78106" lon="2.69711">
        <ele>54.93</ele>
        <time>2021-08-07T10:01:22Z</time>
      </trkpt>
      <trkpt lat="50.78056" lon="2.69769">
        <ele>53.49</ele>
        <time>2021-08-07T10:01:31Z</time>
      </trkpt>
      <trkpt lat="50.77992" lon="2.69846">
        <ele>50.13</ele>
        <time>2021-08-07T10:01:42Z</time>
      </trkpt>
      <trkpt lat="50.7796" lon="2.69883">
        <ele>48.68</ele>
        <time>2021-08-07T10:01:47Z</time>
      </trkpt>
      <trkpt lat="50.77888" lon="2.69971">
        <ele>46.76</ele>
        <time>2021-08-07T10:01:58Z</time>
      </trkpt>
      <trkpt lat="50.77831" lon="2.70039">
        <ele>43.4</ele>
        <time>2021-08-07T10:02:06Z</time>
      </trkpt>
      <trkpt lat="50.77817" lon="2.70056">
        <ele>42.92</ele>
        <time>2021-08-07T10:02:08Z</time>
      </trkpt>
      <trkpt lat="50.77749" lon="2.70136">
        <ele>42.44</ele>
        <time>2021-08-07T10:02:18Z</time>
      </trkpt>
      <trkpt lat="50.7771" lon="2.7017">
        <ele>43.88</ele>
        <time>2021-08-07T10:02:24Z</time>
      </trkpt>
      <trkpt lat="50.77669" lon="2.70195">
        <ele>44.36</ele>
        <time>2021-08-07T10:02:31Z</time>
      </trkpt>
      <trkpt lat="50.77636" lon="2.70217">
        <ele>44.84</ele>
        <time>2021-08-07T10:02:38Z</time>
      </trkpt>
      <trkpt lat="50.77631" lon="2.7022">
        <ele>44.84</ele>
        <time>2021-08-07T10:02:39Z</time>
      </trkpt>
      <trkpt lat="50.77616" lon="2.70233">
        <ele>45.8</ele>
        <time>2021-08-07T10:02:43Z</time>
      </trkpt>
      <trkpt lat="50.77616" lon="2.70237">
        <ele>45.8</ele>
        <time>2021-08-07T10:02:44Z</time>
      </trkpt>
      <trkpt lat="50.77617" lon="2.70242">
        <ele>45.8</ele>
        <time>2021-08-07T10:02:45Z</time>
      </trkpt>
      <trkpt lat="50.77622" lon="2.7027">
        <ele>45.8</ele>
        <time>2021-08-07T10:02:50Z</time>
      </trkpt>
      <trkpt lat="50.77624" lon="2.70283">
        <ele>45.8</ele>
        <time>2021-08-07T10:02:52Z</time>
      </trkpt>
      <trkpt lat="50.77639" lon="2.70353">
        <ele>45.8</ele>
        <time>2021-08-07T10:03:02Z</time>
      </trkpt>
      <trkpt lat="50.77646" lon="2.7039">
        <ele>44.84</ele>
        <time>2021-08-07T10:03:07Z</time>
      </trkpt>
      <trkpt lat="50.77654" lon="2.70429">
        <ele>43.88</ele>
        <time>2021-08-07T10:03:12Z</time>
      </trkpt>
      <trkpt lat="50.77655" lon="2.70437">
        <ele>43.4</ele>
        <time>2021-08-07T10:03:13Z</time>
      </trkpt>
      <trkpt lat="50.77672" lon="2.70522">
        <ele>41.95</ele>
        <time>2021-08-07T10:03:24Z</time>
      </trkpt>
      <trkpt lat="50.77677" lon="2.70536">
        <ele>40.99</ele>
        <time>2021-08-07T10:03:26Z</time>
      </trkpt>
      <trkpt lat="50.77681" lon="2.7054">
        <ele>40.51</ele>
        <time>2021-08-07T10:03:27Z</time>
      </trkpt>
      <trkpt lat="50.77686" lon="2.70542">
        <ele>40.51</ele>
        <time>2021-08-07T10:03:28Z</time>
      </trkpt>
      <trkpt lat="50.77696" lon="2.70545">
        <ele>40.99</ele>
        <time>2021-08-07T10:03:30Z</time>
      </trkpt>
      <trkpt lat="50.777" lon="2.70551">
        <ele>40.99</ele>
        <time>2021-08-07T10:03:31Z</time>
      </trkpt>
      <trkpt lat="50.77702" lon="2.70558">
        <ele>40.03</ele>
        <time>2021-08-07T10:03:32Z</time>
      </trkpt>
      <trkpt lat="50.77704" lon="2.70566">
        <ele>40.03</ele>
        <time>2021-08-07T10:03:33Z</time>
      </trkpt>
      <trkpt lat="50.77706" lon="2.70573">
        <ele>40.03</ele>
        <time>2021-08-07T10:03:34Z</time>
      </trkpt>
      <trkpt lat="50.77708" lon="2.7058">
        <ele>39.55</ele>
        <time>2021-08-07T10:03:35Z</time>
      </trkpt>
      <trkpt lat="50.7771" lon="2.70594">
        <ele>39.55</ele>
        <time>2021-08-07T10:03:37Z</time>
      </trkpt>
      <trkpt lat="50.77711" lon="2.70602">
        <ele>39.55</ele>
        <time>2021-08-07T10:03:38Z</time>
      </trkpt>
      <trkpt lat="50.77715" lon="2.70624">
        <ele>39.07</ele>
        <time>2021-08-07T10:03:41Z</time>
      </trkpt>
      <trkpt lat="50.77724" lon="2.70652">
        <ele>39.07</ele>
        <time>2021-08-07T10:03:45Z</time>
      </trkpt>
      <trkpt lat="50.77728" lon="2.70672">
        <ele>39.07</ele>
        <time>2021-08-07T10:03:48Z</time>
      </trkpt>
      <trkpt lat="50.77733" lon="2.70725">
        <ele>40.51</ele>
        <time>2021-08-07T10:03:57Z</time>
      </trkpt>
      <trkpt lat="50.77734" lon="2.70752">
        <ele>40.51</ele>
        <time>2021-08-07T10:04:03Z</time>
      </trkpt>
      <trkpt lat="50.77734" lon="2.70755">
        <ele>40.51</ele>
        <time>2021-08-07T10:04:04Z</time>
      </trkpt>
      <trkpt lat="50.77734" lon="2.70771">
        <ele>40.99</ele>
        <time>2021-08-07T10:04:10Z</time>
      </trkpt>
      <trkpt lat="50.77734" lon="2.70772">
        <ele>40.99</ele>
        <time>2021-08-07T10:04:11Z</time>
      </trkpt>
      <trkpt lat="50.77736" lon="2.70795">
        <ele>41.95</ele>
        <time>2021-08-07T10:04:22Z</time>
      </trkpt>
      <trkpt lat="50.77736" lon="2.70797">
        <ele>41.95</ele>
        <time>2021-08-07T10:04:23Z</time>
      </trkpt>
      <trkpt lat="50.77736" lon="2.70799">
        <ele>41.95</ele>
        <time>2021-08-07T10:04:24Z</time>
      </trkpt>
      <trkpt lat="50.77736" lon="2.70801">
        <ele>41.95</ele>
        <time>2021-08-07T10:04:25Z</time>
      </trkpt>
      <trkpt lat="50.77737" lon="2.70804">
        <ele>41.95</ele>
        <time>2021-08-07T10:04:26Z</time>
      </trkpt>
      <trkpt lat="50.77737" lon="2.70806">
        <ele>42.44</ele>
        <time>2021-08-07T10:04:27Z</time>
      </trkpt>
      <trkpt lat="50.77737" lon="2.70808">
        <ele>42.44</ele>
        <time>2021-08-07T10:04:28Z</time>
      </trkpt>
      <trkpt lat="50.7774" lon="2.70823">
        <ele>43.4</ele>
        <time>2021-08-07T10:04:35Z</time>
      </trkpt>
      <trkpt lat="50.77742" lon="2.70836">
        <ele>45.8</ele>
        <time>2021-08-07T10:04:42Z</time>
      </trkpt>
      <trkpt lat="50.77743" lon="2.70838">
        <ele>45.8</ele>
        <time>2021-08-07T10:04:43Z</time>
      </trkpt>
      <trkpt lat="50.77748" lon="2.7086">
        <ele>47.72</ele>
        <time>2021-08-07T10:04:54Z</time>
      </trkpt>
      <trkpt lat="50.77754" lon="2.70879">
        <ele>50.13</ele>
        <time>2021-08-07T10:05:04Z</time>
      </trkpt>
      <trkpt lat="50.77756" lon="2.70898">
        <ele>50.61</ele>
        <time>2021-08-07T10:05:13Z</time>
      </trkpt>
      <trkpt lat="50.77756" lon="2.709">
        <ele>50.61</ele>
        <time>2021-08-07T10:05:14Z</time>
      </trkpt>
      <trkpt lat="50.7776" lon="2.7092">
        <ele>51.57</ele>
        <time>2021-08-07T10:05:23Z</time>
      </trkpt>
      <trkpt lat="50.77761" lon="2.70935">
        <ele>52.05</ele>
        <time>2021-08-07T10:05:29Z</time>
      </trkpt>
      <trkpt lat="50.77762" lon="2.70937">
        <ele>52.05</ele>
        <time>2021-08-07T10:05:30Z</time>
      </trkpt>
      <trkpt lat="50.77764" lon="2.70957">
        <ele>52.53</ele>
        <time>2021-08-07T10:05:39Z</time>
      </trkpt>
      <trkpt lat="50.77766" lon="2.70975">
        <ele>53.97</ele>
        <time>2021-08-07T10:05:47Z</time>
      </trkpt>
      <trkpt lat="50.77766" lon="2.70978">
        <ele>53.97</ele>
        <time>2021-08-07T10:05:48Z</time>
      </trkpt>
      <trkpt lat="50.77767" lon="2.7098">
        <ele>53.97</ele>
        <time>2021-08-07T10:05:49Z</time>
      </trkpt>
      <trkpt lat="50.77767" lon="2.70982">
        <ele>54.45</ele>
        <time>2021-08-07T10:05:50Z</time>
      </trkpt>
      <trkpt lat="50.77767" lon="2.70984">
        <ele>54.45</ele>
        <time>2021-08-07T10:05:51Z</time>
      </trkpt>
      <trkpt lat="50.77768" lon="2.70986">
        <ele>54.45</ele>
        <time>2021-08-07T10:05:52Z</time>
      </trkpt>
      <trkpt lat="50.77768" lon="2.70989">
        <ele>54.45</ele>
        <time>2021-08-07T10:05:53Z</time>
      </trkpt>
      <trkpt lat="50.77768" lon="2.7099">
        <ele>54.93</ele>
        <time>2021-08-07T10:05:54Z</time>
      </trkpt>
      <trkpt lat="50.77769" lon="2.70993">
        <ele>54.93</ele>
        <time>2021-08-07T10:05:55Z</time>
      </trkpt>
      <trkpt lat="50.77769" lon="2.70995">
        <ele>55.41</ele>
        <time>2021-08-07T10:05:56Z</time>
      </trkpt>
      <trkpt lat="50.7777" lon="2.70997">
        <ele>55.89</ele>
        <time>2021-08-07T10:05:57Z</time>
      </trkpt>
      <trkpt lat="50.7777" lon="2.70999">
        <ele>55.41</ele>
        <time>2021-08-07T10:05:58Z</time>
      </trkpt>
      <trkpt lat="50.77771" lon="2.71001">
        <ele>55.41</ele>
        <time>2021-08-07T10:05:59Z</time>
      </trkpt>
      <trkpt lat="50.77771" lon="2.71003">
        <ele>55.41</ele>
        <time>2021-08-07T10:06:00Z</time>
      </trkpt>
      <trkpt lat="50.77771" lon="2.71005">
        <ele>56.37</ele>
        <time>2021-08-07T10:06:01Z</time>
      </trkpt>
      <trkpt lat="50.77771" lon="2.71007">
        <ele>56.37</ele>
        <time>2021-08-07T10:06:02Z</time>
      </trkpt>
      <trkpt lat="50.77773" lon="2.71022">
        <ele>57.34</ele>
        <time>2021-08-07T10:06:09Z</time>
      </trkpt>
      <trkpt lat="50.77774" lon="2.71024">
        <ele>57.34</ele>
        <time>2021-08-07T10:06:10Z</time>
      </trkpt>
      <trkpt lat="50.77774" lon="2.71026">
        <ele>57.34</ele>
        <time>2021-08-07T10:06:11Z</time>
      </trkpt>
      <trkpt lat="50.77774" lon="2.71028">
        <ele>57.34</ele>
        <time>2021-08-07T10:06:12Z</time>
      </trkpt>
      <trkpt lat="50.77775" lon="2.7103">
        <ele>57.82</ele>
        <time>2021-08-07T10:06:13Z</time>
      </trkpt>
      <trkpt lat="50.77775" lon="2.71032">
        <ele>58.3</ele>
        <time>2021-08-07T10:06:14Z</time>
      </trkpt>
      <trkpt lat="50.77776" lon="2.71034">
        <ele>58.78</ele>
        <time>2021-08-07T10:06:15Z</time>
      </trkpt>
      <trkpt lat="50.77776" lon="2.71036">
        <ele>58.78</ele>
        <time>2021-08-07T10:06:16Z</time>
      </trkpt>
      <trkpt lat="50.77777" lon="2.71039">
        <ele>59.26</ele>
        <time>2021-08-07T10:06:18Z</time>
      </trkpt>
      <trkpt lat="50.77777" lon="2.71041">
        <ele>59.26</ele>
        <time>2021-08-07T10:06:19Z</time>
      </trkpt>
      <trkpt lat="50.77778" lon="2.71043">
        <ele>59.26</ele>
        <time>2021-08-07T10:06:20Z</time>
      </trkpt>
      <trkpt lat="50.77778" lon="2.71045">
        <ele>59.26</ele>
        <time>2021-08-07T10:06:21Z</time>
      </trkpt>
      <trkpt lat="50.77778" lon="2.71047">
        <ele>59.26</ele>
        <time>2021-08-07T10:06:22Z</time>
      </trkpt>
      <trkpt lat="50.77778" lon="2.71049">
        <ele>60.22</ele>
        <time>2021-08-07T10:06:23Z</time>
      </trkpt>
      <trkpt lat="50.77778" lon="2.71052">
        <ele>60.7</ele>
        <time>2021-08-07T10:06:24Z</time>
      </trkpt>
      <trkpt lat="50.77781" lon="2.71071">
        <ele>62.14</ele>
        <time>2021-08-07T10:06:33Z</time>
      </trkpt>
      <trkpt lat="50.77782" lon="2.71081">
        <ele>62.62</ele>
        <time>2021-08-07T10:06:38Z</time>
      </trkpt>
      <trkpt lat="50.77782" lon="2.71083">
        <ele>62.62</ele>
        <time>2021-08-07T10:06:39Z</time>
      </trkpt>
      <trkpt lat="50.77783" lon="2.7109">
        <ele>63.1</ele>
        <time>2021-08-07T10:06:42Z</time>
      </trkpt>
      <trkpt lat="50.77784" lon="2.71092">
        <ele>63.1</ele>
        <time>2021-08-07T10:06:43Z</time>
      </trkpt>
      <trkpt lat="50.77784" lon="2.71094">
        <ele>63.58</ele>
        <time>2021-08-07T10:06:44Z</time>
      </trkpt>
      <trkpt lat="50.77784" lon="2.71096">
        <ele>63.58</ele>
        <time>2021-08-07T10:06:45Z</time>
      </trkpt>
      <trkpt lat="50.77784" lon="2.71098">
        <ele>63.58</ele>
        <time>2021-08-07T10:06:46Z</time>
      </trkpt>
      <trkpt lat="50.77785" lon="2.71101">
        <ele>64.07</ele>
        <time>2021-08-07T10:06:47Z</time>
      </trkpt>
      <trkpt lat="50.77785" lon="2.71103">
        <ele>64.55</ele>
        <time>2021-08-07T10:06:48Z</time>
      </trkpt>
      <trkpt lat="50.77785" lon="2.71105">
        <ele>65.03</ele>
        <time>2021-08-07T10:06:49Z</time>
      </trkpt>
      <trkpt lat="50.77785" lon="2.71107">
        <ele>65.03</ele>
        <time>2021-08-07T10:06:50Z</time>
      </trkpt>
      <trkpt lat="50.77786" lon="2.7111">
        <ele>65.03</ele>
        <time>2021-08-07T10:06:51Z</time>
      </trkpt>
      <trkpt lat="50.77786" lon="2.71112">
        <ele>65.51</ele>
        <time>2021-08-07T10:06:52Z</time>
      </trkpt>
      <trkpt lat="50.77786" lon="2.71114">
        <ele>65.51</ele>
        <time>2021-08-07T10:06:53Z</time>
      </trkpt>
      <trkpt lat="50.77786" lon="2.71116">
        <ele>66.47</ele>
        <time>2021-08-07T10:06:54Z</time>
      </trkpt>
      <trkpt lat="50.77786" lon="2.71118">
        <ele>66.47</ele>
        <time>2021-08-07T10:06:55Z</time>
      </trkpt>
      <trkpt lat="50.77787" lon="2.71121">
        <ele>66.47</ele>
        <time>2021-08-07T10:06:56Z</time>
      </trkpt>
      <trkpt lat="50.77787" lon="2.71123">
        <ele>66.47</ele>
        <time>2021-08-07T10:06:57Z</time>
      </trkpt>
      <trkpt lat="50.77787" lon="2.71125">
        <ele>66.47</ele>
        <time>2021-08-07T10:06:58Z</time>
      </trkpt>
      <trkpt lat="50.7779" lon="2.71142">
        <ele>68.39</ele>
        <time>2021-08-07T10:07:06Z</time>
      </trkpt>
      <trkpt lat="50.77794" lon="2.71165">
        <ele>70.31</ele>
        <time>2021-08-07T10:07:16Z</time>
      </trkpt>
      <trkpt lat="50.77799" lon="2.71185">
        <ele>70.79</ele>
        <time>2021-08-07T10:07:25Z</time>
      </trkpt>
      <trkpt lat="50.77806" lon="2.71209">
        <ele>72.24</ele>
        <time>2021-08-07T10:07:34Z</time>
      </trkpt>
      <trkpt lat="50.77815" lon="2.71235">
        <ele>72.72</ele>
        <time>2021-08-07T10:07:43Z</time>
      </trkpt>
      <trkpt lat="50.77826" lon="2.71265">
        <ele>74.64</ele>
        <time>2021-08-07T10:07:54Z</time>
      </trkpt>
      <trkpt lat="50.77832" lon="2.71284">
        <ele>75.6</ele>
        <time>2021-08-07T10:08:00Z</time>
      </trkpt>
      <trkpt lat="50.7784" lon="2.71306">
        <ele>76.56</ele>
        <time>2021-08-07T10:08:07Z</time>
      </trkpt>
      <trkpt lat="50.77846" lon="2.71335">
        <ele>76.56</ele>
        <time>2021-08-07T10:08:16Z</time>
      </trkpt>
      <trkpt lat="50.77853" lon="2.71355">
        <ele>76.08</ele>
        <time>2021-08-07T10:08:23Z</time>
      </trkpt>
      <trkpt lat="50.77856" lon="2.7136">
        <ele>76.08</ele>
        <time>2021-08-07T10:08:25Z</time>
      </trkpt>
      <trkpt lat="50.77867" lon="2.7139">
        <ele>76.08</ele>
        <time>2021-08-07T10:08:33Z</time>
      </trkpt>
      <trkpt lat="50.77881" lon="2.71428">
        <ele>76.56</ele>
        <time>2021-08-07T10:08:42Z</time>
      </trkpt>
      <trkpt lat="50.77895" lon="2.71467">
        <ele>77.04</ele>
        <time>2021-08-07T10:08:51Z</time>
      </trkpt>
      <trkpt lat="50.77909" lon="2.71502">
        <ele>77.52</ele>
        <time>2021-08-07T10:08:59Z</time>
      </trkpt>
      <trkpt lat="50.7792" lon="2.71554">
        <ele>77.52</ele>
        <time>2021-08-07T10:09:09Z</time>
      </trkpt>
      <trkpt lat="50.77929" lon="2.71604">
        <ele>78</ele>
        <time>2021-08-07T10:09:20Z</time>
      </trkpt>
      <trkpt lat="50.77933" lon="2.71634">
        <ele>78.48</ele>
        <time>2021-08-07T10:09:27Z</time>
      </trkpt>
      <trkpt lat="50.77935" lon="2.71661">
        <ele>78.48</ele>
        <time>2021-08-07T10:09:33Z</time>
      </trkpt>
      <trkpt lat="50.77944" lon="2.71704">
        <ele>79.45</ele>
        <time>2021-08-07T10:09:43Z</time>
      </trkpt>
      <trkpt lat="50.77953" lon="2.71744">
        <ele>79.93</ele>
        <time>2021-08-07T10:09:53Z</time>
      </trkpt>
      <trkpt lat="50.7796" lon="2.71772">
        <ele>81.37</ele>
        <time>2021-08-07T10:10:03Z</time>
      </trkpt>
      <trkpt lat="50.77965" lon="2.71796">
        <ele>83.29</ele>
        <time>2021-08-07T10:10:14Z</time>
      </trkpt>
      <trkpt lat="50.77969" lon="2.71816">
        <ele>84.73</ele>
        <time>2021-08-07T10:10:23Z</time>
      </trkpt>
      <trkpt lat="50.77973" lon="2.7184">
        <ele>86.66</ele>
        <time>2021-08-07T10:10:34Z</time>
      </trkpt>
      <trkpt lat="50.77976" lon="2.71861">
        <ele>88.1</ele>
        <time>2021-08-07T10:10:44Z</time>
      </trkpt>
      <trkpt lat="50.7798" lon="2.71885">
        <ele>90.02</ele>
        <time>2021-08-07T10:10:55Z</time>
      </trkpt>
      <trkpt lat="50.77983" lon="2.71905">
        <ele>90.98</ele>
        <time>2021-08-07T10:11:04Z</time>
      </trkpt>
      <trkpt lat="50.77984" lon="2.71919">
        <ele>90.98</ele>
        <time>2021-08-07T10:11:10Z</time>
      </trkpt>
      <trkpt lat="50.77984" lon="2.71943">
        <ele>89.54</ele>
        <time>2021-08-07T10:11:15Z</time>
      </trkpt>
      <trkpt lat="50.77986" lon="2.71966">
        <ele>89.54</ele>
        <time>2021-08-07T10:11:22Z</time>
      </trkpt>
      <trkpt lat="50.77996" lon="2.71993">
        <ele>91.94</ele>
        <time>2021-08-07T10:11:31Z</time>
      </trkpt>
      <trkpt lat="50.78002" lon="2.72019">
        <ele>94.83</ele>
        <time>2021-08-07T10:11:40Z</time>
      </trkpt>
      <trkpt lat="50.78004" lon="2.72045">
        <ele>95.79</ele>
        <time>2021-08-07T10:11:49Z</time>
      </trkpt>
      <trkpt lat="50.78005" lon="2.72065">
        <ele>97.23</ele>
        <time>2021-08-07T10:11:56Z</time>
      </trkpt>
      <trkpt lat="50.78003" lon="2.72083">
        <ele>98.67</ele>
        <time>2021-08-07T10:12:03Z</time>
      </trkpt>
      <trkpt lat="50.78" lon="2.72104">
        <ele>99.63</ele>
        <time>2021-08-07T10:12:11Z</time>
      </trkpt>
      <trkpt lat="50.77999" lon="2.72107">
        <ele>99.63</ele>
        <time>2021-08-07T10:12:12Z</time>
      </trkpt>
      <trkpt lat="50.77999" lon="2.7211">
        <ele>100.11</ele>
        <time>2021-08-07T10:12:13Z</time>
      </trkpt>
      <trkpt lat="50.77998" lon="2.72112">
        <ele>100.11</ele>
        <time>2021-08-07T10:12:14Z</time>
      </trkpt>
      <trkpt lat="50.77998" lon="2.72115">
        <ele>100.6</ele>
        <time>2021-08-07T10:12:15Z</time>
      </trkpt>
      <trkpt lat="50.77998" lon="2.72117">
        <ele>100.6</ele>
        <time>2021-08-07T10:12:16Z</time>
      </trkpt>
      <trkpt lat="50.77998" lon="2.7212">
        <ele>101.08</ele>
        <time>2021-08-07T10:12:17Z</time>
      </trkpt>
      <trkpt lat="50.77998" lon="2.72137">
        <ele>102.52</ele>
        <time>2021-08-07T10:12:23Z</time>
      </trkpt>
      <trkpt lat="50.77998" lon="2.72141">
        <ele>102.52</ele>
        <time>2021-08-07T10:12:24Z</time>
      </trkpt>
      <trkpt lat="50.77998" lon="2.72144">
        <ele>103</ele>
        <time>2021-08-07T10:12:25Z</time>
      </trkpt>
      <trkpt lat="50.77999" lon="2.72148">
        <ele>103</ele>
        <time>2021-08-07T10:12:26Z</time>
      </trkpt>
      <trkpt lat="50.77999" lon="2.72151">
        <ele>103</ele>
        <time>2021-08-07T10:12:27Z</time>
      </trkpt>
      <trkpt lat="50.77999" lon="2.72155">
        <ele>103</ele>
        <time>2021-08-07T10:12:28Z</time>
      </trkpt>
      <trkpt lat="50.78" lon="2.72159">
        <ele>103</ele>
        <time>2021-08-07T10:12:29Z</time>
      </trkpt>
      <trkpt lat="50.78001" lon="2.72162">
        <ele>103.96</ele>
        <time>2021-08-07T10:12:30Z</time>
      </trkpt>
      <trkpt lat="50.78001" lon="2.72165">
        <ele>104.44</ele>
        <time>2021-08-07T10:12:31Z</time>
      </trkpt>
      <trkpt lat="50.78002" lon="2.72169">
        <ele>104.44</ele>
        <time>2021-08-07T10:12:32Z</time>
      </trkpt>
      <trkpt lat="50.78002" lon="2.72172">
        <ele>104.92</ele>
        <time>2021-08-07T10:12:33Z</time>
      </trkpt>
      <trkpt lat="50.78009" lon="2.72204">
        <ele>107.32</ele>
        <time>2021-08-07T10:12:43Z</time>
      </trkpt>
      <trkpt lat="50.7802" lon="2.72242">
        <ele>109.73</ele>
        <time>2021-08-07T10:12:55Z</time>
      </trkpt>
      <trkpt lat="50.78025" lon="2.72256">
        <ele>110.69</ele>
        <time>2021-08-07T10:13:00Z</time>
      </trkpt>
      <trkpt lat="50.78026" lon="2.72262">
        <ele>110.69</ele>
        <time>2021-08-07T10:13:02Z</time>
      </trkpt>
      <trkpt lat="50.78027" lon="2.72264">
        <ele>111.17</ele>
        <time>2021-08-07T10:13:03Z</time>
      </trkpt>
      <trkpt lat="50.78026" lon="2.72266">
        <ele>111.17</ele>
        <time>2021-08-07T10:13:04Z</time>
      </trkpt>
      <trkpt lat="50.78025" lon="2.72267">
        <ele>111.17</ele>
        <time>2021-08-07T10:13:05Z</time>
      </trkpt>
      <trkpt lat="50.78024" lon="2.72267">
        <ele>111.17</ele>
        <time>2021-08-07T10:13:06Z</time>
      </trkpt>
      <trkpt lat="50.78022" lon="2.72266">
        <ele>111.17</ele>
        <time>2021-08-07T10:13:07Z</time>
      </trkpt>
      <trkpt lat="50.78011" lon="2.72264">
        <ele>109.25</ele>
        <time>2021-08-07T10:13:11Z</time>
      </trkpt>
      <trkpt lat="50.77989" lon="2.72268">
        <ele>105.88</ele>
        <time>2021-08-07T10:13:16Z</time>
      </trkpt>
      <trkpt lat="50.7798" lon="2.7228">
        <ele>103.48</ele>
        <time>2021-08-07T10:13:21Z</time>
      </trkpt>
      <trkpt lat="50.77975" lon="2.72283">
        <ele>101.56</ele>
        <time>2021-08-07T10:13:25Z</time>
      </trkpt>
      <trkpt lat="50.77963" lon="2.7228">
        <ele>99.15</ele>
        <time>2021-08-07T10:13:31Z</time>
      </trkpt>
      <trkpt lat="50.77928" lon="2.72281">
        <ele>96.27</ele>
        <time>2021-08-07T10:13:38Z</time>
      </trkpt>
      <trkpt lat="50.77911" lon="2.72281">
        <ele>94.35</ele>
        <time>2021-08-07T10:13:41Z</time>
      </trkpt>
      <trkpt lat="50.77882" lon="2.7228">
        <ele>91.46</ele>
        <time>2021-08-07T10:13:45Z</time>
      </trkpt>
      <trkpt lat="50.77844" lon="2.7228">
        <ele>89.54</ele>
        <time>2021-08-07T10:13:51Z</time>
      </trkpt>
      <trkpt lat="50.7784" lon="2.72279">
        <ele>89.54</ele>
        <time>2021-08-07T10:13:52Z</time>
      </trkpt>
      <trkpt lat="50.77837" lon="2.72278">
        <ele>89.54</ele>
        <time>2021-08-07T10:13:53Z</time>
      </trkpt>
      <trkpt lat="50.77821" lon="2.72271">
        <ele>86.18</ele>
        <time>2021-08-07T10:13:57Z</time>
      </trkpt>
      <trkpt lat="50.77817" lon="2.72267">
        <ele>85.69</ele>
        <time>2021-08-07T10:13:58Z</time>
      </trkpt>
      <trkpt lat="50.77808" lon="2.72258">
        <ele>83.77</ele>
        <time>2021-08-07T10:14:00Z</time>
      </trkpt>
      <trkpt lat="50.77787" lon="2.72242">
        <ele>80.89</ele>
        <time>2021-08-07T10:14:03Z</time>
      </trkpt>
      <trkpt lat="50.77765" lon="2.72224">
        <ele>76.56</ele>
        <time>2021-08-07T10:14:06Z</time>
      </trkpt>
      <trkpt lat="50.77751" lon="2.72211">
        <ele>75.6</ele>
        <time>2021-08-07T10:14:08Z</time>
      </trkpt>
      <trkpt lat="50.77746" lon="2.72203">
        <ele>74.64</ele>
        <time>2021-08-07T10:14:09Z</time>
      </trkpt>
      <trkpt lat="50.77731" lon="2.72185">
        <ele>71.76</ele>
        <time>2021-08-07T10:14:11Z</time>
      </trkpt>
      <trkpt lat="50.77722" lon="2.72178">
        <ele>70.31</ele>
        <time>2021-08-07T10:14:12Z</time>
      </trkpt>
      <trkpt lat="50.77711" lon="2.72173">
        <ele>70.31</ele>
        <time>2021-08-07T10:14:13Z</time>
      </trkpt>
      <trkpt lat="50.7769" lon="2.72161">
        <ele>67.43</ele>
        <time>2021-08-07T10:14:15Z</time>
      </trkpt>
      <trkpt lat="50.77671" lon="2.72152">
        <ele>64.07</ele>
        <time>2021-08-07T10:14:17Z</time>
      </trkpt>
      <trkpt lat="50.77652" lon="2.72147">
        <ele>62.14</ele>
        <time>2021-08-07T10:14:19Z</time>
      </trkpt>
      <trkpt lat="50.77642" lon="2.72146">
        <ele>61.66</ele>
        <time>2021-08-07T10:14:20Z</time>
      </trkpt>
      <trkpt lat="50.77614" lon="2.72144">
        <ele>57.82</ele>
        <time>2021-08-07T10:14:23Z</time>
      </trkpt>
      <trkpt lat="50.77604" lon="2.72144">
        <ele>57.82</ele>
        <time>2021-08-07T10:14:24Z</time>
      </trkpt>
      <trkpt lat="50.77585" lon="2.72143">
        <ele>56.37</ele>
        <time>2021-08-07T10:14:26Z</time>
      </trkpt>
      <trkpt lat="50.77556" lon="2.72143">
        <ele>52.53</ele>
        <time>2021-08-07T10:14:29Z</time>
      </trkpt>
      <trkpt lat="50.77533" lon="2.72144">
        <ele>51.09</ele>
        <time>2021-08-07T10:14:32Z</time>
      </trkpt>
      <trkpt lat="50.77503" lon="2.72146">
        <ele>49.65</ele>
        <time>2021-08-07T10:14:37Z</time>
      </trkpt>
      <trkpt lat="50.77483" lon="2.72151">
        <ele>47.72</ele>
        <time>2021-08-07T10:14:40Z</time>
      </trkpt>
      <trkpt lat="50.77455" lon="2.72158">
        <ele>47.24</ele>
        <time>2021-08-07T10:14:44Z</time>
      </trkpt>
      <trkpt lat="50.77448" lon="2.72156">
        <ele>46.76</ele>
        <time>2021-08-07T10:14:45Z</time>
      </trkpt>
      <trkpt lat="50.77444" lon="2.72152">
        <ele>46.76</ele>
        <time>2021-08-07T10:14:46Z</time>
      </trkpt>
      <trkpt lat="50.7744" lon="2.72145">
        <ele>46.76</ele>
        <time>2021-08-07T10:14:47Z</time>
      </trkpt>
      <trkpt lat="50.77438" lon="2.72137">
        <ele>46.76</ele>
        <time>2021-08-07T10:14:48Z</time>
      </trkpt>
      <trkpt lat="50.77437" lon="2.72128">
        <ele>46.76</ele>
        <time>2021-08-07T10:14:49Z</time>
      </trkpt>
      <trkpt lat="50.77437" lon="2.7212">
        <ele>46.28</ele>
        <time>2021-08-07T10:14:50Z</time>
      </trkpt>
      <trkpt lat="50.77437" lon="2.72111">
        <ele>46.28</ele>
        <time>2021-08-07T10:14:51Z</time>
      </trkpt>
      <trkpt lat="50.77437" lon="2.72103">
        <ele>46.28</ele>
        <time>2021-08-07T10:14:52Z</time>
      </trkpt>
      <trkpt lat="50.77435" lon="2.72044">
        <ele>45.32</ele>
        <time>2021-08-07T10:15:00Z</time>
      </trkpt>
      <trkpt lat="50.77432" lon="2.72041">
        <ele>45.32</ele>
        <time>2021-08-07T10:15:01Z</time>
      </trkpt>
      <trkpt lat="50.77429" lon="2.7204">
        <ele>45.32</ele>
        <time>2021-08-07T10:15:02Z</time>
      </trkpt>
      <trkpt lat="50.77425" lon="2.7204">
        <ele>45.32</ele>
        <time>2021-08-07T10:15:03Z</time>
      </trkpt>
      <trkpt lat="50.77421" lon="2.72041">
        <ele>45.32</ele>
        <time>2021-08-07T10:15:04Z</time>
      </trkpt>
      <trkpt lat="50.77416" lon="2.72043">
        <ele>44.36</ele>
        <time>2021-08-07T10:15:05Z</time>
      </trkpt>
      <trkpt lat="50.77366" lon="2.72061">
        <ele>42.92</ele>
        <time>2021-08-07T10:15:14Z</time>
      </trkpt>
      <trkpt lat="50.77323" lon="2.72076">
        <ele>41.47</ele>
        <time>2021-08-07T10:15:22Z</time>
      </trkpt>
      <trkpt lat="50.77318" lon="2.72077">
        <ele>41.95</ele>
        <time>2021-08-07T10:15:23Z</time>
      </trkpt>
      <trkpt lat="50.77312" lon="2.72077">
        <ele>41.95</ele>
        <time>2021-08-07T10:15:24Z</time>
      </trkpt>
      <trkpt lat="50.77309" lon="2.72079">
        <ele>41.47</ele>
        <time>2021-08-07T10:15:25Z</time>
      </trkpt>
      <trkpt lat="50.77306" lon="2.72084">
        <ele>41.95</ele>
        <time>2021-08-07T10:15:26Z</time>
      </trkpt>
      <trkpt lat="50.77305" lon="2.7209">
        <ele>43.4</ele>
        <time>2021-08-07T10:15:27Z</time>
      </trkpt>
      <trkpt lat="50.77304" lon="2.72095">
        <ele>43.4</ele>
        <time>2021-08-07T10:15:28Z</time>
      </trkpt>
      <trkpt lat="50.77304" lon="2.721">
        <ele>43.4</ele>
        <time>2021-08-07T10:15:29Z</time>
      </trkpt>
      <trkpt lat="50.77305" lon="2.72107">
        <ele>43.4</ele>
        <time>2021-08-07T10:15:30Z</time>
      </trkpt>
      <trkpt lat="50.77304" lon="2.72126">
        <ele>43.4</ele>
        <time>2021-08-07T10:15:33Z</time>
      </trkpt>
      <trkpt lat="50.77303" lon="2.72189">
        <ele>43.4</ele>
        <time>2021-08-07T10:15:42Z</time>
      </trkpt>
      <trkpt lat="50.77301" lon="2.72211">
        <ele>43.4</ele>
        <time>2021-08-07T10:15:45Z</time>
      </trkpt>
      <trkpt lat="50.77301" lon="2.72218">
        <ele>43.4</ele>
        <time>2021-08-07T10:15:46Z</time>
      </trkpt>
      <trkpt lat="50.77303" lon="2.72225">
        <ele>43.4</ele>
        <time>2021-08-07T10:15:47Z</time>
      </trkpt>
      <trkpt lat="50.77306" lon="2.7223">
        <ele>43.4</ele>
        <time>2021-08-07T10:15:48Z</time>
      </trkpt>
      <trkpt lat="50.77309" lon="2.72234">
        <ele>43.4</ele>
        <time>2021-08-07T10:15:49Z</time>
      </trkpt>
      <trkpt lat="50.77312" lon="2.72238">
        <ele>43.4</ele>
        <time>2021-08-07T10:15:50Z</time>
      </trkpt>
      <trkpt lat="50.77315" lon="2.72243">
        <ele>43.4</ele>
        <time>2021-08-07T10:15:51Z</time>
      </trkpt>
      <trkpt lat="50.77338" lon="2.7229">
        <ele>43.88</ele>
        <time>2021-08-07T10:16:00Z</time>
      </trkpt>
      <trkpt lat="50.77348" lon="2.72347">
        <ele>44.84</ele>
        <time>2021-08-07T10:16:09Z</time>
      </trkpt>
      <trkpt lat="50.77349" lon="2.72384">
        <ele>46.28</ele>
        <time>2021-08-07T10:16:16Z</time>
      </trkpt>
      <trkpt lat="50.77351" lon="2.72432">
        <ele>46.76</ele>
        <time>2021-08-07T10:16:25Z</time>
      </trkpt>
      <trkpt lat="50.77357" lon="2.72477">
        <ele>47.72</ele>
        <time>2021-08-07T10:16:34Z</time>
      </trkpt>
      <trkpt lat="50.77361" lon="2.72529">
        <ele>49.16</ele>
        <time>2021-08-07T10:16:44Z</time>
      </trkpt>
      <trkpt lat="50.77363" lon="2.72566">
        <ele>50.61</ele>
        <time>2021-08-07T10:16:53Z</time>
      </trkpt>
      <trkpt lat="50.77374" lon="2.72597">
        <ele>51.57</ele>
        <time>2021-08-07T10:17:02Z</time>
      </trkpt>
      <trkpt lat="50.77386" lon="2.72622">
        <ele>52.53</ele>
        <time>2021-08-07T10:17:10Z</time>
      </trkpt>
      <trkpt lat="50.77396" lon="2.72646">
        <ele>53.01</ele>
        <time>2021-08-07T10:17:17Z</time>
      </trkpt>
      <trkpt lat="50.77396" lon="2.72652">
        <ele>53.49</ele>
        <time>2021-08-07T10:17:19Z</time>
      </trkpt>
      <trkpt lat="50.77396" lon="2.72655">
        <ele>53.49</ele>
        <time>2021-08-07T10:17:20Z</time>
      </trkpt>
      <trkpt lat="50.77394" lon="2.72657">
        <ele>53.97</ele>
        <time>2021-08-07T10:17:21Z</time>
      </trkpt>
      <trkpt lat="50.77393" lon="2.72658">
        <ele>53.97</ele>
        <time>2021-08-07T10:17:22Z</time>
      </trkpt>
      <trkpt lat="50.77392" lon="2.7266">
        <ele>54.45</ele>
        <time>2021-08-07T10:17:23Z</time>
      </trkpt>
      <trkpt lat="50.77391" lon="2.72661">
        <ele>54.45</ele>
        <time>2021-08-07T10:17:24Z</time>
      </trkpt>
      <trkpt lat="50.77391" lon="2.72662">
        <ele>54.45</ele>
        <time>2021-08-07T10:17:25Z</time>
      </trkpt>
      <trkpt lat="50.7739" lon="2.72664">
        <ele>55.41</ele>
        <time>2021-08-07T10:17:26Z</time>
      </trkpt>
      <trkpt lat="50.77387" lon="2.7267">
        <ele>56.37</ele>
        <time>2021-08-07T10:17:30Z</time>
      </trkpt>
      <trkpt lat="50.77386" lon="2.72671">
        <ele>56.37</ele>
        <time>2021-08-07T10:17:31Z</time>
      </trkpt>
      <trkpt lat="50.77385" lon="2.72673">
        <ele>56.37</ele>
        <time>2021-08-07T10:17:32Z</time>
      </trkpt>
      <trkpt lat="50.7738" lon="2.72691">
        <ele>57.82</ele>
        <time>2021-08-07T10:17:41Z</time>
      </trkpt>
      <trkpt lat="50.77379" lon="2.72693">
        <ele>58.3</ele>
        <time>2021-08-07T10:17:42Z</time>
      </trkpt>
      <trkpt lat="50.77379" lon="2.72696">
        <ele>58.3</ele>
        <time>2021-08-07T10:17:43Z</time>
      </trkpt>
      <trkpt lat="50.77378" lon="2.72698">
        <ele>58.78</ele>
        <time>2021-08-07T10:17:44Z</time>
      </trkpt>
      <trkpt lat="50.77378" lon="2.727">
        <ele>58.78</ele>
        <time>2021-08-07T10:17:45Z</time>
      </trkpt>
      <trkpt lat="50.77378" lon="2.72702">
        <ele>58.78</ele>
        <time>2021-08-07T10:17:46Z</time>
      </trkpt>
      <trkpt lat="50.77376" lon="2.72721">
        <ele>60.22</ele>
        <time>2021-08-07T10:17:55Z</time>
      </trkpt>
      <trkpt lat="50.77375" lon="2.72723">
        <ele>60.22</ele>
        <time>2021-08-07T10:17:56Z</time>
      </trkpt>
      <trkpt lat="50.77375" lon="2.72725">
        <ele>60.22</ele>
        <time>2021-08-07T10:17:57Z</time>
      </trkpt>
      <trkpt lat="50.77374" lon="2.72727">
        <ele>60.22</ele>
        <time>2021-08-07T10:17:58Z</time>
      </trkpt>
      <trkpt lat="50.77374" lon="2.72729">
        <ele>61.18</ele>
        <time>2021-08-07T10:17:59Z</time>
      </trkpt>
      <trkpt lat="50.77369" lon="2.72741">
        <ele>62.62</ele>
        <time>2021-08-07T10:18:07Z</time>
      </trkpt>
      <trkpt lat="50.77364" lon="2.72751">
        <ele>64.07</ele>
        <time>2021-08-07T10:18:15Z</time>
      </trkpt>
      <trkpt lat="50.77357" lon="2.72757">
        <ele>65.03</ele>
        <time>2021-08-07T10:18:22Z</time>
      </trkpt>
      <trkpt lat="50.77353" lon="2.72765">
        <ele>66.47</ele>
        <time>2021-08-07T10:18:30Z</time>
      </trkpt>
      <trkpt lat="50.77349" lon="2.72772">
        <ele>67.91</ele>
        <time>2021-08-07T10:18:37Z</time>
      </trkpt>
      <trkpt lat="50.77347" lon="2.72775">
        <ele>67.91</ele>
        <time>2021-08-07T10:18:39Z</time>
      </trkpt>
      <trkpt lat="50.77344" lon="2.72779">
        <ele>69.35</ele>
        <time>2021-08-07T10:18:42Z</time>
      </trkpt>
      <trkpt lat="50.77341" lon="2.72783">
        <ele>69.83</ele>
        <time>2021-08-07T10:18:45Z</time>
      </trkpt>
      <trkpt lat="50.7734" lon="2.72785">
        <ele>69.83</ele>
        <time>2021-08-07T10:18:46Z</time>
      </trkpt>
      <trkpt lat="50.77336" lon="2.72793">
        <ele>70.31</ele>
        <time>2021-08-07T10:18:51Z</time>
      </trkpt>
      <trkpt lat="50.77335" lon="2.72795">
        <ele>70.31</ele>
        <time>2021-08-07T10:18:52Z</time>
      </trkpt>
      <trkpt lat="50.77335" lon="2.72806">
        <ele>71.76</ele>
        <time>2021-08-07T10:18:59Z</time>
      </trkpt>
      <trkpt lat="50.77335" lon="2.72816">
        <ele>73.68</ele>
        <time>2021-08-07T10:19:05Z</time>
      </trkpt>
      <trkpt lat="50.77336" lon="2.72819">
        <ele>74.16</ele>
        <time>2021-08-07T10:19:06Z</time>
      </trkpt>
      <trkpt lat="50.77336" lon="2.72821">
        <ele>74.16</ele>
        <time>2021-08-07T10:19:07Z</time>
      </trkpt>
      <trkpt lat="50.77337" lon="2.72835">
        <ele>74.64</ele>
        <time>2021-08-07T10:19:14Z</time>
      </trkpt>
      <trkpt lat="50.77339" lon="2.72849">
        <ele>75.6</ele>
        <time>2021-08-07T10:19:22Z</time>
      </trkpt>
      <trkpt lat="50.7734" lon="2.72856">
        <ele>76.56</ele>
        <time>2021-08-07T10:19:29Z</time>
      </trkpt>
      <trkpt lat="50.7734" lon="2.72868">
        <ele>76.56</ele>
        <time>2021-08-07T10:19:43Z</time>
      </trkpt>
      <trkpt lat="50.7734" lon="2.72871">
        <ele>76.56</ele>
        <time>2021-08-07T10:19:45Z</time>
      </trkpt>
      <trkpt lat="50.7734" lon="2.72873">
        <ele>76.56</ele>
        <time>2021-08-07T10:19:46Z</time>
      </trkpt>
      <trkpt lat="50.7734" lon="2.72875">
        <ele>77.04</ele>
        <time>2021-08-07T10:19:47Z</time>
      </trkpt>
      <trkpt lat="50.77339" lon="2.72881">
        <ele>77.52</ele>
        <time>2021-08-07T10:19:50Z</time>
      </trkpt>
      <trkpt lat="50.77338" lon="2.72883">
        <ele>78</ele>
        <time>2021-08-07T10:19:51Z</time>
      </trkpt>
      <trkpt lat="50.77335" lon="2.72888">
        <ele>78.48</ele>
        <time>2021-08-07T10:19:54Z</time>
      </trkpt>
      <trkpt lat="50.77334" lon="2.7289">
        <ele>79.45</ele>
        <time>2021-08-07T10:19:55Z</time>
      </trkpt>
      <trkpt lat="50.77329" lon="2.72902">
        <ele>80.41</ele>
        <time>2021-08-07T10:20:02Z</time>
      </trkpt>
      <trkpt lat="50.77327" lon="2.72908">
        <ele>81.37</ele>
        <time>2021-08-07T10:20:06Z</time>
      </trkpt>
      <trkpt lat="50.77322" lon="2.72924">
        <ele>82.33</ele>
        <time>2021-08-07T10:20:14Z</time>
      </trkpt>
      <trkpt lat="50.77318" lon="2.72938">
        <ele>83.29</ele>
        <time>2021-08-07T10:20:21Z</time>
      </trkpt>
      <trkpt lat="50.77314" lon="2.72963">
        <ele>83.77</ele>
        <time>2021-08-07T10:20:29Z</time>
      </trkpt>
      <trkpt lat="50.7731" lon="2.72984">
        <ele>84.25</ele>
        <time>2021-08-07T10:20:35Z</time>
      </trkpt>
      <trkpt lat="50.77305" lon="2.73008">
        <ele>84.25</ele>
        <time>2021-08-07T10:20:43Z</time>
      </trkpt>
      <trkpt lat="50.77301" lon="2.73024">
        <ele>84.25</ele>
        <time>2021-08-07T10:20:49Z</time>
      </trkpt>
      <trkpt lat="50.77302" lon="2.73031">
        <ele>84.25</ele>
        <time>2021-08-07T10:20:55Z</time>
      </trkpt>
      <trkpt lat="50.77302" lon="2.73034">
        <ele>84.25</ele>
        <time>2021-08-07T10:20:56Z</time>
      </trkpt>
      <trkpt lat="50.77302" lon="2.73037">
        <ele>84.25</ele>
        <time>2021-08-07T10:20:57Z</time>
      </trkpt>
      <trkpt lat="50.77302" lon="2.73041">
        <ele>84.25</ele>
        <time>2021-08-07T10:20:58Z</time>
      </trkpt>
      <trkpt lat="50.773" lon="2.73056">
        <ele>84.25</ele>
        <time>2021-08-07T10:21:03Z</time>
      </trkpt>
      <trkpt lat="50.77301" lon="2.73088">
        <ele>84.25</ele>
        <time>2021-08-07T10:21:11Z</time>
      </trkpt>
      <trkpt lat="50.77309" lon="2.73126">
        <ele>85.69</ele>
        <time>2021-08-07T10:21:21Z</time>
      </trkpt>
      <trkpt lat="50.77315" lon="2.73158">
        <ele>87.14</ele>
        <time>2021-08-07T10:21:28Z</time>
      </trkpt>
      <trkpt lat="50.77317" lon="2.73186">
        <ele>88.1</ele>
        <time>2021-08-07T10:21:35Z</time>
      </trkpt>
      <trkpt lat="50.77322" lon="2.73225">
        <ele>89.06</ele>
        <time>2021-08-07T10:21:44Z</time>
      </trkpt>
      <trkpt lat="50.77324" lon="2.73265">
        <ele>90.02</ele>
        <time>2021-08-07T10:21:52Z</time>
      </trkpt>
      <trkpt lat="50.77325" lon="2.73299">
        <ele>90.5</ele>
        <time>2021-08-07T10:21:59Z</time>
      </trkpt>
      <trkpt lat="50.77327" lon="2.73343">
        <ele>90.5</ele>
        <time>2021-08-07T10:22:07Z</time>
      </trkpt>
      <trkpt lat="50.77323" lon="2.73376">
        <ele>91.46</ele>
        <time>2021-08-07T10:22:14Z</time>
      </trkpt>
      <trkpt lat="50.77308" lon="2.73391">
        <ele>91.46</ele>
        <time>2021-08-07T10:22:19Z</time>
      </trkpt>
      <trkpt lat="50.77304" lon="2.73414">
        <ele>91.46</ele>
        <time>2021-08-07T10:22:23Z</time>
      </trkpt>
      <trkpt lat="50.77292" lon="2.73464">
        <ele>91.46</ele>
        <time>2021-08-07T10:22:31Z</time>
      </trkpt>
      <trkpt lat="50.77268" lon="2.73526">
        <ele>91.46</ele>
        <time>2021-08-07T10:22:41Z</time>
      </trkpt>
      <trkpt lat="50.77243" lon="2.73594">
        <ele>91.94</ele>
        <time>2021-08-07T10:22:52Z</time>
      </trkpt>
      <trkpt lat="50.77234" lon="2.73633">
        <ele>92.42</ele>
        <time>2021-08-07T10:22:58Z</time>
      </trkpt>
      <trkpt lat="50.77233" lon="2.73646">
        <ele>93.87</ele>
        <time>2021-08-07T10:23:00Z</time>
      </trkpt>
      <trkpt lat="50.77228" lon="2.73668">
        <ele>92.42</ele>
        <time>2021-08-07T10:23:03Z</time>
      </trkpt>
      <trkpt lat="50.77224" lon="2.73691">
        <ele>92.42</ele>
        <time>2021-08-07T10:23:06Z</time>
      </trkpt>
      <trkpt lat="50.77213" lon="2.73754">
        <ele>93.87</ele>
        <time>2021-08-07T10:23:15Z</time>
      </trkpt>
      <trkpt lat="50.77193" lon="2.73823">
        <ele>93.87</ele>
        <time>2021-08-07T10:23:25Z</time>
      </trkpt>
      <trkpt lat="50.77191" lon="2.73839">
        <ele>93.87</ele>
        <time>2021-08-07T10:23:27Z</time>
      </trkpt>
      <trkpt lat="50.77191" lon="2.73847">
        <ele>93.87</ele>
        <time>2021-08-07T10:23:28Z</time>
      </trkpt>
      <trkpt lat="50.77193" lon="2.73893">
        <ele>93.87</ele>
        <time>2021-08-07T10:23:34Z</time>
      </trkpt>
      <trkpt lat="50.77193" lon="2.739">
        <ele>93.87</ele>
        <time>2021-08-07T10:23:35Z</time>
      </trkpt>
      <trkpt lat="50.77194" lon="2.73907">
        <ele>93.87</ele>
        <time>2021-08-07T10:23:36Z</time>
      </trkpt>
      <trkpt lat="50.77195" lon="2.73913">
        <ele>93.87</ele>
        <time>2021-08-07T10:23:37Z</time>
      </trkpt>
      <trkpt lat="50.77195" lon="2.7392">
        <ele>93.87</ele>
        <time>2021-08-07T10:23:38Z</time>
      </trkpt>
      <trkpt lat="50.77196" lon="2.73927">
        <ele>93.87</ele>
        <time>2021-08-07T10:23:39Z</time>
      </trkpt>
      <trkpt lat="50.77197" lon="2.73965">
        <ele>94.35</ele>
        <time>2021-08-07T10:23:46Z</time>
      </trkpt>
      <trkpt lat="50.77197" lon="2.73965">
        <ele>94.35</ele>
        <time>2021-08-07T10:23:50Z</time>
      </trkpt>
      <trkpt lat="50.77197" lon="2.73964">
        <ele>94.35</ele>
        <time>2021-08-07T10:24:10Z</time>
      </trkpt>
      <trkpt lat="50.77196" lon="2.73966">
        <ele>94.35</ele>
        <time>2021-08-07T10:24:18Z</time>
      </trkpt>
      <trkpt lat="50.77195" lon="2.73968">
        <ele>94.35</ele>
        <time>2021-08-07T10:24:19Z</time>
      </trkpt>
      <trkpt lat="50.77193" lon="2.7397">
        <ele>94.35</ele>
        <time>2021-08-07T10:24:20Z</time>
      </trkpt>
      <trkpt lat="50.77191" lon="2.73971">
        <ele>94.35</ele>
        <time>2021-08-07T10:24:21Z</time>
      </trkpt>
      <trkpt lat="50.77189" lon="2.73973">
        <ele>94.35</ele>
        <time>2021-08-07T10:24:22Z</time>
      </trkpt>
      <trkpt lat="50.77185" lon="2.73975">
        <ele>92.9</ele>
        <time>2021-08-07T10:24:23Z</time>
      </trkpt>
      <trkpt lat="50.77182" lon="2.73977">
        <ele>92.9</ele>
        <time>2021-08-07T10:24:24Z</time>
      </trkpt>
      <trkpt lat="50.77147" lon="2.73998">
        <ele>90.98</ele>
        <time>2021-08-07T10:24:32Z</time>
      </trkpt>
      <trkpt lat="50.77126" lon="2.74013">
        <ele>89.06</ele>
        <time>2021-08-07T10:24:36Z</time>
      </trkpt>
      <trkpt lat="50.77078" lon="2.74047">
        <ele>87.14</ele>
        <time>2021-08-07T10:24:44Z</time>
      </trkpt>
      <trkpt lat="50.77017" lon="2.74088">
        <ele>85.21</ele>
        <time>2021-08-07T10:24:53Z</time>
      </trkpt>
      <trkpt lat="50.76994" lon="2.74099">
        <ele>83.29</ele>
        <time>2021-08-07T10:24:56Z</time>
      </trkpt>
      <trkpt lat="50.76937" lon="2.74123">
        <ele>81.85</ele>
        <time>2021-08-07T10:25:04Z</time>
      </trkpt>
      <trkpt lat="50.76926" lon="2.74126">
        <ele>81.85</ele>
        <time>2021-08-07T10:25:06Z</time>
      </trkpt>
      <trkpt lat="50.76922" lon="2.74123">
        <ele>81.85</ele>
        <time>2021-08-07T10:25:07Z</time>
      </trkpt>
      <trkpt lat="50.76919" lon="2.74117">
        <ele>81.85</ele>
        <time>2021-08-07T10:25:08Z</time>
      </trkpt>
      <trkpt lat="50.76916" lon="2.74112">
        <ele>81.85</ele>
        <time>2021-08-07T10:25:09Z</time>
      </trkpt>
      <trkpt lat="50.76914" lon="2.74105">
        <ele>81.85</ele>
        <time>2021-08-07T10:25:10Z</time>
      </trkpt>
      <trkpt lat="50.76889" lon="2.74055">
        <ele>79.45</ele>
        <time>2021-08-07T10:25:17Z</time>
      </trkpt>
      <trkpt lat="50.76854" lon="2.73995">
        <ele>75.6</ele>
        <time>2021-08-07T10:25:24Z</time>
      </trkpt>
      <trkpt lat="50.76848" lon="2.73986">
        <ele>75.6</ele>
        <time>2021-08-07T10:25:25Z</time>
      </trkpt>
      <trkpt lat="50.76831" lon="2.73957">
        <ele>73.68</ele>
        <time>2021-08-07T10:25:28Z</time>
      </trkpt>
      <trkpt lat="50.76795" lon="2.73883">
        <ele>70.79</ele>
        <time>2021-08-07T10:25:35Z</time>
      </trkpt>
      <trkpt lat="50.76736" lon="2.73766">
        <ele>67.91</ele>
        <time>2021-08-07T10:25:46Z</time>
      </trkpt>
      <trkpt lat="50.76727" lon="2.73747">
        <ele>67.91</ele>
        <time>2021-08-07T10:25:48Z</time>
      </trkpt>
      <trkpt lat="50.76721" lon="2.73738">
        <ele>67.43</ele>
        <time>2021-08-07T10:25:49Z</time>
      </trkpt>
      <trkpt lat="50.76688" lon="2.73683">
        <ele>66.47</ele>
        <time>2021-08-07T10:25:56Z</time>
      </trkpt>
      <trkpt lat="50.76656" lon="2.73631">
        <ele>65.51</ele>
        <time>2021-08-07T10:26:05Z</time>
      </trkpt>
      <trkpt lat="50.76626" lon="2.73585">
        <ele>64.07</ele>
        <time>2021-08-07T10:26:13Z</time>
      </trkpt>
      <trkpt lat="50.76617" lon="2.73574">
        <ele>64.07</ele>
        <time>2021-08-07T10:26:15Z</time>
      </trkpt>
      <trkpt lat="50.76609" lon="2.73567">
        <ele>64.07</ele>
        <time>2021-08-07T10:26:17Z</time>
      </trkpt>
      <trkpt lat="50.76605" lon="2.73564">
        <ele>64.07</ele>
        <time>2021-08-07T10:26:18Z</time>
      </trkpt>
      <trkpt lat="50.76601" lon="2.7356">
        <ele>64.07</ele>
        <time>2021-08-07T10:26:19Z</time>
      </trkpt>
      <trkpt lat="50.76597" lon="2.73558">
        <ele>64.07</ele>
        <time>2021-08-07T10:26:20Z</time>
      </trkpt>
      <trkpt lat="50.76593" lon="2.73557">
        <ele>64.07</ele>
        <time>2021-08-07T10:26:21Z</time>
      </trkpt>
      <trkpt lat="50.76578" lon="2.73547">
        <ele>64.07</ele>
        <time>2021-08-07T10:26:26Z</time>
      </trkpt>
      <trkpt lat="50.76553" lon="2.73537">
        <ele>64.55</ele>
        <time>2021-08-07T10:26:33Z</time>
      </trkpt>
      <trkpt lat="50.76545" lon="2.73533">
        <ele>64.55</ele>
        <time>2021-08-07T10:26:35Z</time>
      </trkpt>
      <trkpt lat="50.76541" lon="2.73531">
        <ele>64.55</ele>
        <time>2021-08-07T10:26:36Z</time>
      </trkpt>
      <trkpt lat="50.76537" lon="2.7353">
        <ele>64.55</ele>
        <time>2021-08-07T10:26:37Z</time>
      </trkpt>
      <trkpt lat="50.76533" lon="2.73529">
        <ele>64.55</ele>
        <time>2021-08-07T10:26:38Z</time>
      </trkpt>
      <trkpt lat="50.76528" lon="2.73527">
        <ele>64.55</ele>
        <time>2021-08-07T10:26:39Z</time>
      </trkpt>
      <trkpt lat="50.76524" lon="2.73525">
        <ele>64.55</ele>
        <time>2021-08-07T10:26:40Z</time>
      </trkpt>
      <trkpt lat="50.7652" lon="2.73523">
        <ele>64.55</ele>
        <time>2021-08-07T10:26:41Z</time>
      </trkpt>
      <trkpt lat="50.76516" lon="2.73522">
        <ele>64.55</ele>
        <time>2021-08-07T10:26:42Z</time>
      </trkpt>
      <trkpt lat="50.76473" lon="2.73498">
        <ele>62.62</ele>
        <time>2021-08-07T10:26:51Z</time>
      </trkpt>
      <trkpt lat="50.76459" lon="2.73489">
        <ele>62.62</ele>
        <time>2021-08-07T10:26:54Z</time>
      </trkpt>
      <trkpt lat="50.7643" lon="2.73469">
        <ele>62.62</ele>
        <time>2021-08-07T10:27:01Z</time>
      </trkpt>
      <trkpt lat="50.76415" lon="2.73456">
        <ele>62.62</ele>
        <time>2021-08-07T10:27:05Z</time>
      </trkpt>
      <trkpt lat="50.76411" lon="2.73453">
        <ele>64.07</ele>
        <time>2021-08-07T10:27:06Z</time>
      </trkpt>
      <trkpt lat="50.76395" lon="2.73437">
        <ele>63.58</ele>
        <time>2021-08-07T10:27:12Z</time>
      </trkpt>
      <trkpt lat="50.7637" lon="2.7343">
        <ele>64.55</ele>
        <time>2021-08-07T10:27:20Z</time>
      </trkpt>
      <trkpt lat="50.76352" lon="2.7343">
        <ele>65.99</ele>
        <time>2021-08-07T10:27:27Z</time>
      </trkpt>
      <trkpt lat="50.7633" lon="2.73448">
        <ele>66.95</ele>
        <time>2021-08-07T10:27:37Z</time>
      </trkpt>
      <trkpt lat="50.76316" lon="2.7346">
        <ele>68.39</ele>
        <time>2021-08-07T10:27:44Z</time>
      </trkpt>
      <trkpt lat="50.76299" lon="2.73475">
        <ele>68.87</ele>
        <time>2021-08-07T10:27:52Z</time>
      </trkpt>
      <trkpt lat="50.7628" lon="2.73495">
        <ele>68.87</ele>
        <time>2021-08-07T10:28:00Z</time>
      </trkpt>
      <trkpt lat="50.76265" lon="2.73513">
        <ele>68.87</ele>
        <time>2021-08-07T10:28:06Z</time>
      </trkpt>
      <trkpt lat="50.76249" lon="2.73528">
        <ele>68.87</ele>
        <time>2021-08-07T10:28:11Z</time>
      </trkpt>
      <trkpt lat="50.76221" lon="2.73563">
        <ele>66.47</ele>
        <time>2021-08-07T10:28:20Z</time>
      </trkpt>
      <trkpt lat="50.7621" lon="2.73576">
        <ele>65.51</ele>
        <time>2021-08-07T10:28:23Z</time>
      </trkpt>
      <trkpt lat="50.76188" lon="2.73599">
        <ele>63.58</ele>
        <time>2021-08-07T10:28:28Z</time>
      </trkpt>
      <trkpt lat="50.76136" lon="2.73646">
        <ele>60.7</ele>
        <time>2021-08-07T10:28:37Z</time>
      </trkpt>
      <trkpt lat="50.7613" lon="2.73652">
        <ele>59.74</ele>
        <time>2021-08-07T10:28:38Z</time>
      </trkpt>
      <trkpt lat="50.76126" lon="2.73659">
        <ele>60.22</ele>
        <time>2021-08-07T10:28:39Z</time>
      </trkpt>
      <trkpt lat="50.76121" lon="2.73665">
        <ele>59.26</ele>
        <time>2021-08-07T10:28:40Z</time>
      </trkpt>
      <trkpt lat="50.76116" lon="2.7367">
        <ele>58.78</ele>
        <time>2021-08-07T10:28:41Z</time>
      </trkpt>
      <trkpt lat="50.76111" lon="2.73674">
        <ele>58.78</ele>
        <time>2021-08-07T10:28:42Z</time>
      </trkpt>
      <trkpt lat="50.76106" lon="2.73677">
        <ele>57.82</ele>
        <time>2021-08-07T10:28:43Z</time>
      </trkpt>
      <trkpt lat="50.761" lon="2.7368">
        <ele>56.86</ele>
        <time>2021-08-07T10:28:44Z</time>
      </trkpt>
      <trkpt lat="50.76093" lon="2.73681">
        <ele>56.86</ele>
        <time>2021-08-07T10:28:45Z</time>
      </trkpt>
      <trkpt lat="50.76087" lon="2.73681">
        <ele>56.86</ele>
        <time>2021-08-07T10:28:46Z</time>
      </trkpt>
      <trkpt lat="50.76081" lon="2.73681">
        <ele>56.86</ele>
        <time>2021-08-07T10:28:47Z</time>
      </trkpt>
      <trkpt lat="50.76074" lon="2.73679">
        <ele>56.86</ele>
        <time>2021-08-07T10:28:48Z</time>
      </trkpt>
      <trkpt lat="50.76028" lon="2.73658">
        <ele>54.93</ele>
        <time>2021-08-07T10:28:56Z</time>
      </trkpt>
      <trkpt lat="50.76019" lon="2.73649">
        <ele>56.37</ele>
        <time>2021-08-07T10:28:58Z</time>
      </trkpt>
      <trkpt lat="50.76013" lon="2.73644">
        <ele>56.37</ele>
        <time>2021-08-07T10:28:59Z</time>
      </trkpt>
      <trkpt lat="50.75995" lon="2.73622">
        <ele>56.37</ele>
        <time>2021-08-07T10:29:03Z</time>
      </trkpt>
      <trkpt lat="50.75991" lon="2.73615">
        <ele>56.37</ele>
        <time>2021-08-07T10:29:04Z</time>
      </trkpt>
      <trkpt lat="50.75987" lon="2.73608">
        <ele>56.37</ele>
        <time>2021-08-07T10:29:05Z</time>
      </trkpt>
      <trkpt lat="50.75978" lon="2.73594">
        <ele>54.93</ele>
        <time>2021-08-07T10:29:07Z</time>
      </trkpt>
      <trkpt lat="50.75971" lon="2.73579">
        <ele>53.49</ele>
        <time>2021-08-07T10:29:09Z</time>
      </trkpt>
      <trkpt lat="50.75968" lon="2.73571">
        <ele>53.49</ele>
        <time>2021-08-07T10:29:10Z</time>
      </trkpt>
      <trkpt lat="50.75947" lon="2.73494">
        <ele>53.01</ele>
        <time>2021-08-07T10:29:18Z</time>
      </trkpt>
      <trkpt lat="50.75934" lon="2.73442">
        <ele>51.57</ele>
        <time>2021-08-07T10:29:23Z</time>
      </trkpt>
      <trkpt lat="50.75915" lon="2.73386">
        <ele>48.68</ele>
        <time>2021-08-07T10:29:28Z</time>
      </trkpt>
      <trkpt lat="50.75885" lon="2.73323">
        <ele>45.8</ele>
        <time>2021-08-07T10:29:34Z</time>
      </trkpt>
      <trkpt lat="50.75872" lon="2.73298">
        <ele>43.88</ele>
        <time>2021-08-07T10:29:37Z</time>
      </trkpt>
      <trkpt lat="50.75868" lon="2.73294">
        <ele>43.4</ele>
        <time>2021-08-07T10:29:38Z</time>
      </trkpt>
      <trkpt lat="50.75862" lon="2.73293">
        <ele>43.88</ele>
        <time>2021-08-07T10:29:39Z</time>
      </trkpt>
      <trkpt lat="50.75857" lon="2.73293">
        <ele>43.88</ele>
        <time>2021-08-07T10:29:40Z</time>
      </trkpt>
      <trkpt lat="50.75852" lon="2.73295">
        <ele>43.88</ele>
        <time>2021-08-07T10:29:41Z</time>
      </trkpt>
      <trkpt lat="50.75847" lon="2.73297">
        <ele>43.4</ele>
        <time>2021-08-07T10:29:42Z</time>
      </trkpt>
      <trkpt lat="50.75793" lon="2.73318">
        <ele>39.55</ele>
        <time>2021-08-07T10:29:50Z</time>
      </trkpt>
      <trkpt lat="50.75786" lon="2.7332">
        <ele>39.07</ele>
        <time>2021-08-07T10:29:51Z</time>
      </trkpt>
      <trkpt lat="50.75748" lon="2.73334">
        <ele>37.15</ele>
        <time>2021-08-07T10:29:56Z</time>
      </trkpt>
      <trkpt lat="50.75703" lon="2.73348">
        <ele>35.23</ele>
        <time>2021-08-07T10:30:02Z</time>
      </trkpt>
      <trkpt lat="50.75638" lon="2.73369">
        <ele>34.26</ele>
        <time>2021-08-07T10:30:11Z</time>
      </trkpt>
      <trkpt lat="50.75596" lon="2.73382">
        <ele>31.86</ele>
        <time>2021-08-07T10:30:17Z</time>
      </trkpt>
      <trkpt lat="50.75582" lon="2.73387">
        <ele>33.3</ele>
        <time>2021-08-07T10:30:19Z</time>
      </trkpt>
      <trkpt lat="50.75538" lon="2.7341">
        <ele>34.26</ele>
        <time>2021-08-07T10:30:26Z</time>
      </trkpt>
      <trkpt lat="50.75515" lon="2.73423">
        <ele>32.82</ele>
        <time>2021-08-07T10:30:30Z</time>
      </trkpt>
      <trkpt lat="50.75463" lon="2.73451">
        <ele>32.34</ele>
        <time>2021-08-07T10:30:39Z</time>
      </trkpt>
      <trkpt lat="50.75414" lon="2.73477">
        <ele>32.34</ele>
        <time>2021-08-07T10:30:49Z</time>
      </trkpt>
      <trkpt lat="50.75401" lon="2.73486">
        <ele>34.26</ele>
        <time>2021-08-07T10:30:52Z</time>
      </trkpt>
      <trkpt lat="50.75398" lon="2.73488">
        <ele>34.26</ele>
        <time>2021-08-07T10:30:53Z</time>
      </trkpt>
      <trkpt lat="50.75365" lon="2.73513">
        <ele>36.19</ele>
        <time>2021-08-07T10:31:02Z</time>
      </trkpt>
      <trkpt lat="50.75336" lon="2.73533">
        <ele>36.67</ele>
        <time>2021-08-07T10:31:11Z</time>
      </trkpt>
      <trkpt lat="50.75313" lon="2.73552">
        <ele>38.11</ele>
        <time>2021-08-07T10:31:19Z</time>
      </trkpt>
      <trkpt lat="50.75291" lon="2.73571">
        <ele>39.07</ele>
        <time>2021-08-07T10:31:28Z</time>
      </trkpt>
      <trkpt lat="50.75273" lon="2.73587">
        <ele>40.03</ele>
        <time>2021-08-07T10:31:35Z</time>
      </trkpt>
      <trkpt lat="50.7527" lon="2.73586">
        <ele>40.03</ele>
        <time>2021-08-07T10:31:36Z</time>
      </trkpt>
      <trkpt lat="50.75267" lon="2.73582">
        <ele>40.03</ele>
        <time>2021-08-07T10:31:37Z</time>
      </trkpt>
      <trkpt lat="50.75265" lon="2.73578">
        <ele>40.03</ele>
        <time>2021-08-07T10:31:38Z</time>
      </trkpt>
      <trkpt lat="50.75262" lon="2.73574">
        <ele>40.03</ele>
        <time>2021-08-07T10:31:39Z</time>
      </trkpt>
      <trkpt lat="50.7526" lon="2.73569">
        <ele>40.03</ele>
        <time>2021-08-07T10:31:40Z</time>
      </trkpt>
      <trkpt lat="50.75241" lon="2.73539">
        <ele>40.03</ele>
        <time>2021-08-07T10:31:46Z</time>
      </trkpt>
      <trkpt lat="50.75223" lon="2.73505">
        <ele>40.03</ele>
        <time>2021-08-07T10:31:52Z</time>
      </trkpt>
      <trkpt lat="50.75219" lon="2.735">
        <ele>40.03</ele>
        <time>2021-08-07T10:31:53Z</time>
      </trkpt>
      <trkpt lat="50.75215" lon="2.73497">
        <ele>40.03</ele>
        <time>2021-08-07T10:31:54Z</time>
      </trkpt>
      <trkpt lat="50.75211" lon="2.73494">
        <ele>40.03</ele>
        <time>2021-08-07T10:31:55Z</time>
      </trkpt>
      <trkpt lat="50.75206" lon="2.73491">
        <ele>40.03</ele>
        <time>2021-08-07T10:31:56Z</time>
      </trkpt>
      <trkpt lat="50.75201" lon="2.73489">
        <ele>40.03</ele>
        <time>2021-08-07T10:31:57Z</time>
      </trkpt>
      <trkpt lat="50.75196" lon="2.73487">
        <ele>40.03</ele>
        <time>2021-08-07T10:31:58Z</time>
      </trkpt>
      <trkpt lat="50.75191" lon="2.73485">
        <ele>40.03</ele>
        <time>2021-08-07T10:31:59Z</time>
      </trkpt>
      <trkpt lat="50.75186" lon="2.73483">
        <ele>40.03</ele>
        <time>2021-08-07T10:32:00Z</time>
      </trkpt>
      <trkpt lat="50.7516" lon="2.73469">
        <ele>38.59</ele>
        <time>2021-08-07T10:32:05Z</time>
      </trkpt>
      <trkpt lat="50.75103" lon="2.73436">
        <ele>38.11</ele>
        <time>2021-08-07T10:32:16Z</time>
      </trkpt>
      <trkpt lat="50.7506" lon="2.73415">
        <ele>38.11</ele>
        <time>2021-08-07T10:32:24Z</time>
      </trkpt>
      <trkpt lat="50.75055" lon="2.73411">
        <ele>38.11</ele>
        <time>2021-08-07T10:32:25Z</time>
      </trkpt>
      <trkpt lat="50.75046" lon="2.734">
        <ele>38.11</ele>
        <time>2021-08-07T10:32:27Z</time>
      </trkpt>
      <trkpt lat="50.75038" lon="2.73387">
        <ele>37.63</ele>
        <time>2021-08-07T10:32:29Z</time>
      </trkpt>
      <trkpt lat="50.75035" lon="2.73378">
        <ele>37.63</ele>
        <time>2021-08-07T10:32:30Z</time>
      </trkpt>
      <trkpt lat="50.75032" lon="2.73368">
        <ele>37.63</ele>
        <time>2021-08-07T10:32:31Z</time>
      </trkpt>
      <trkpt lat="50.7503" lon="2.73358">
        <ele>36.67</ele>
        <time>2021-08-07T10:32:32Z</time>
      </trkpt>
      <trkpt lat="50.75029" lon="2.73346">
        <ele>36.19</ele>
        <time>2021-08-07T10:32:33Z</time>
      </trkpt>
      <trkpt lat="50.75027" lon="2.73334">
        <ele>35.23</ele>
        <time>2021-08-07T10:32:34Z</time>
      </trkpt>
      <trkpt lat="50.75021" lon="2.73296">
        <ele>33.3</ele>
        <time>2021-08-07T10:32:37Z</time>
      </trkpt>
      <trkpt lat="50.75014" lon="2.73242">
        <ele>31.38</ele>
        <time>2021-08-07T10:32:41Z</time>
      </trkpt>
      <trkpt lat="50.75008" lon="2.7321">
        <ele>30.9</ele>
        <time>2021-08-07T10:32:44Z</time>
      </trkpt>
      <trkpt lat="50.75005" lon="2.73205">
        <ele>30.9</ele>
        <time>2021-08-07T10:32:45Z</time>
      </trkpt>
      <trkpt lat="50.75002" lon="2.73203">
        <ele>29.94</ele>
        <time>2021-08-07T10:32:46Z</time>
      </trkpt>
      <trkpt lat="50.74998" lon="2.73204">
        <ele>29.94</ele>
        <time>2021-08-07T10:32:47Z</time>
      </trkpt>
      <trkpt lat="50.74995" lon="2.73207">
        <ele>29.94</ele>
        <time>2021-08-07T10:32:48Z</time>
      </trkpt>
      <trkpt lat="50.74992" lon="2.73211">
        <ele>29.94</ele>
        <time>2021-08-07T10:32:49Z</time>
      </trkpt>
      <trkpt lat="50.7499" lon="2.73216">
        <ele>29.94</ele>
        <time>2021-08-07T10:32:50Z</time>
      </trkpt>
      <trkpt lat="50.74988" lon="2.73219">
        <ele>29.94</ele>
        <time>2021-08-07T10:32:51Z</time>
      </trkpt>
      <trkpt lat="50.74985" lon="2.73222">
        <ele>29.94</ele>
        <time>2021-08-07T10:32:52Z</time>
      </trkpt>
      <trkpt lat="50.74982" lon="2.73225">
        <ele>29.94</ele>
        <time>2021-08-07T10:32:53Z</time>
      </trkpt>
      <trkpt lat="50.7498" lon="2.73227">
        <ele>29.94</ele>
        <time>2021-08-07T10:32:54Z</time>
      </trkpt>
      <trkpt lat="50.74977" lon="2.73229">
        <ele>29.94</ele>
        <time>2021-08-07T10:32:55Z</time>
      </trkpt>
      <trkpt lat="50.7497" lon="2.73233">
        <ele>31.38</ele>
        <time>2021-08-07T10:32:57Z</time>
      </trkpt>
      <trkpt lat="50.74955" lon="2.73242">
        <ele>31.38</ele>
        <time>2021-08-07T10:33:01Z</time>
      </trkpt>
      <trkpt lat="50.74952" lon="2.73245">
        <ele>31.38</ele>
        <time>2021-08-07T10:33:02Z</time>
      </trkpt>
      <trkpt lat="50.74949" lon="2.7325">
        <ele>31.38</ele>
        <time>2021-08-07T10:33:03Z</time>
      </trkpt>
      <trkpt lat="50.74947" lon="2.73255">
        <ele>31.38</ele>
        <time>2021-08-07T10:33:04Z</time>
      </trkpt>
      <trkpt lat="50.74946" lon="2.7326">
        <ele>31.38</ele>
        <time>2021-08-07T10:33:05Z</time>
      </trkpt>
      <trkpt lat="50.7494" lon="2.73271">
        <ele>32.34</ele>
        <time>2021-08-07T10:33:08Z</time>
      </trkpt>
      <trkpt lat="50.74937" lon="2.7327">
        <ele>32.34</ele>
        <time>2021-08-07T10:33:09Z</time>
      </trkpt>
      <trkpt lat="50.74934" lon="2.73268">
        <ele>32.34</ele>
        <time>2021-08-07T10:33:10Z</time>
      </trkpt>
      <trkpt lat="50.7493" lon="2.73265">
        <ele>30.9</ele>
        <time>2021-08-07T10:33:11Z</time>
      </trkpt>
      <trkpt lat="50.74926" lon="2.73262">
        <ele>30.9</ele>
        <time>2021-08-07T10:33:12Z</time>
      </trkpt>
      <trkpt lat="50.74921" lon="2.73261">
        <ele>30.9</ele>
        <time>2021-08-07T10:33:13Z</time>
      </trkpt>
      <trkpt lat="50.74917" lon="2.73261">
        <ele>30.9</ele>
        <time>2021-08-07T10:33:14Z</time>
      </trkpt>
      <trkpt lat="50.74912" lon="2.73263">
        <ele>30.9</ele>
        <time>2021-08-07T10:33:15Z</time>
      </trkpt>
      <trkpt lat="50.74869" lon="2.73281">
        <ele>30.42</ele>
        <time>2021-08-07T10:33:24Z</time>
      </trkpt>
      <trkpt lat="50.74865" lon="2.73282">
        <ele>30.42</ele>
        <time>2021-08-07T10:33:25Z</time>
      </trkpt>
      <trkpt lat="50.74841" lon="2.73287">
        <ele>30.42</ele>
        <time>2021-08-07T10:33:30Z</time>
      </trkpt>
      <trkpt lat="50.74831" lon="2.73289">
        <ele>30.42</ele>
        <time>2021-08-07T10:33:32Z</time>
      </trkpt>
      <trkpt lat="50.74822" lon="2.7329">
        <ele>30.42</ele>
        <time>2021-08-07T10:33:34Z</time>
      </trkpt>
      <trkpt lat="50.74813" lon="2.73291">
        <ele>30.42</ele>
        <time>2021-08-07T10:33:36Z</time>
      </trkpt>
      <trkpt lat="50.74775" lon="2.73305">
        <ele>30.42</ele>
        <time>2021-08-07T10:33:44Z</time>
      </trkpt>
      <trkpt lat="50.74765" lon="2.73309">
        <ele>30.42</ele>
        <time>2021-08-07T10:33:46Z</time>
      </trkpt>
      <trkpt lat="50.74756" lon="2.73314">
        <ele>30.42</ele>
        <time>2021-08-07T10:33:48Z</time>
      </trkpt>
      <trkpt lat="50.74734" lon="2.73325">
        <ele>30.42</ele>
        <time>2021-08-07T10:33:53Z</time>
      </trkpt>
      <trkpt lat="50.74725" lon="2.73332">
        <ele>30.42</ele>
        <time>2021-08-07T10:33:55Z</time>
      </trkpt>
      <trkpt lat="50.74721" lon="2.73334">
        <ele>30.42</ele>
        <time>2021-08-07T10:33:56Z</time>
      </trkpt>
      <trkpt lat="50.74716" lon="2.73335">
        <ele>30.42</ele>
        <time>2021-08-07T10:33:57Z</time>
      </trkpt>
      <trkpt lat="50.74711" lon="2.73335">
        <ele>30.42</ele>
        <time>2021-08-07T10:33:58Z</time>
      </trkpt>
      <trkpt lat="50.74707" lon="2.73336">
        <ele>30.42</ele>
        <time>2021-08-07T10:33:59Z</time>
      </trkpt>
      <trkpt lat="50.74671" lon="2.73339">
        <ele>30.42</ele>
        <time>2021-08-07T10:34:07Z</time>
      </trkpt>
      <trkpt lat="50.74663" lon="2.73341">
        <ele>30.42</ele>
        <time>2021-08-07T10:34:09Z</time>
      </trkpt>
      <trkpt lat="50.74654" lon="2.73344">
        <ele>30.42</ele>
        <time>2021-08-07T10:34:11Z</time>
      </trkpt>
      <trkpt lat="50.7465" lon="2.73347">
        <ele>30.42</ele>
        <time>2021-08-07T10:34:12Z</time>
      </trkpt>
      <trkpt lat="50.74647" lon="2.73351">
        <ele>30.42</ele>
        <time>2021-08-07T10:34:13Z</time>
      </trkpt>
      <trkpt lat="50.74629" lon="2.7337">
        <ele>30.42</ele>
        <time>2021-08-07T10:34:18Z</time>
      </trkpt>
      <trkpt lat="50.74621" lon="2.73375">
        <ele>30.42</ele>
        <time>2021-08-07T10:34:20Z</time>
      </trkpt>
      <trkpt lat="50.74606" lon="2.73379">
        <ele>30.42</ele>
        <time>2021-08-07T10:34:24Z</time>
      </trkpt>
      <trkpt lat="50.74604" lon="2.73375">
        <ele>31.38</ele>
        <time>2021-08-07T10:34:25Z</time>
      </trkpt>
      <trkpt lat="50.74602" lon="2.73372">
        <ele>31.38</ele>
        <time>2021-08-07T10:34:26Z</time>
      </trkpt>
      <trkpt lat="50.74601" lon="2.73367">
        <ele>31.38</ele>
        <time>2021-08-07T10:34:27Z</time>
      </trkpt>
      <trkpt lat="50.74601" lon="2.73361">
        <ele>31.38</ele>
        <time>2021-08-07T10:34:28Z</time>
      </trkpt>
      <trkpt lat="50.74601" lon="2.73356">
        <ele>31.38</ele>
        <time>2021-08-07T10:34:29Z</time>
      </trkpt>
      <trkpt lat="50.74601" lon="2.73353">
        <ele>31.38</ele>
        <time>2021-08-07T10:34:30Z</time>
      </trkpt>
      <trkpt lat="50.746" lon="2.73349">
        <ele>31.38</ele>
        <time>2021-08-07T10:34:35Z</time>
      </trkpt>
      <trkpt lat="50.746" lon="2.73347">
        <ele>31.38</ele>
        <time>2021-08-07T10:34:39Z</time>
      </trkpt>
      <trkpt lat="50.74595" lon="2.7334">
        <ele>29.94</ele>
        <time>2021-08-07T10:34:42Z</time>
      </trkpt>
      <trkpt lat="50.74592" lon="2.7334">
        <ele>29.94</ele>
        <time>2021-08-07T10:34:43Z</time>
      </trkpt>
      <trkpt lat="50.74563" lon="2.73351">
        <ele>29.94</ele>
        <time>2021-08-07T10:34:51Z</time>
      </trkpt>
      <trkpt lat="50.74523" lon="2.73363">
        <ele>29.94</ele>
        <time>2021-08-07T10:35:01Z</time>
      </trkpt>
      <trkpt lat="50.74489" lon="2.73367">
        <ele>31.38</ele>
        <time>2021-08-07T10:35:10Z</time>
      </trkpt>
      <trkpt lat="50.74485" lon="2.73368">
        <ele>31.38</ele>
        <time>2021-08-07T10:35:11Z</time>
      </trkpt>
      <trkpt lat="50.74449" lon="2.73372">
        <ele>31.86</ele>
        <time>2021-08-07T10:35:21Z</time>
      </trkpt>
      <trkpt lat="50.74415" lon="2.73374">
        <ele>33.3</ele>
        <time>2021-08-07T10:35:31Z</time>
      </trkpt>
      <trkpt lat="50.74382" lon="2.73377">
        <ele>34.74</ele>
        <time>2021-08-07T10:35:41Z</time>
      </trkpt>
      <trkpt lat="50.74352" lon="2.73377">
        <ele>36.67</ele>
        <time>2021-08-07T10:35:52Z</time>
      </trkpt>
      <trkpt lat="50.7433" lon="2.73378">
        <ele>37.63</ele>
        <time>2021-08-07T10:36:01Z</time>
      </trkpt>
      <trkpt lat="50.74307" lon="2.7338">
        <ele>40.03</ele>
        <time>2021-08-07T10:36:10Z</time>
      </trkpt>
      <trkpt lat="50.74282" lon="2.73383">
        <ele>41.47</ele>
        <time>2021-08-07T10:36:20Z</time>
      </trkpt>
      <trkpt lat="50.7426" lon="2.73384">
        <ele>42.92</ele>
        <time>2021-08-07T10:36:29Z</time>
      </trkpt>
      <trkpt lat="50.7424" lon="2.73385">
        <ele>43.88</ele>
        <time>2021-08-07T10:36:37Z</time>
      </trkpt>
      <trkpt lat="50.74225" lon="2.73386">
        <ele>45.32</ele>
        <time>2021-08-07T10:36:43Z</time>
      </trkpt>
      <trkpt lat="50.74203" lon="2.73388">
        <ele>46.28</ele>
        <time>2021-08-07T10:36:52Z</time>
      </trkpt>
      <trkpt lat="50.74183" lon="2.73391">
        <ele>47.24</ele>
        <time>2021-08-07T10:37:00Z</time>
      </trkpt>
      <trkpt lat="50.7416" lon="2.73399">
        <ele>48.68</ele>
        <time>2021-08-07T10:37:08Z</time>
      </trkpt>
      <trkpt lat="50.74131" lon="2.73409">
        <ele>49.16</ele>
        <time>2021-08-07T10:37:17Z</time>
      </trkpt>
      <trkpt lat="50.74114" lon="2.73417">
        <ele>49.16</ele>
        <time>2021-08-07T10:37:23Z</time>
      </trkpt>
      <trkpt lat="50.7409" lon="2.73428">
        <ele>50.61</ele>
        <time>2021-08-07T10:37:31Z</time>
      </trkpt>
      <trkpt lat="50.74075" lon="2.73435">
        <ele>50.61</ele>
        <time>2021-08-07T10:37:36Z</time>
      </trkpt>
      <trkpt lat="50.74072" lon="2.73433">
        <ele>50.61</ele>
        <time>2021-08-07T10:37:37Z</time>
      </trkpt>
      <trkpt lat="50.7407" lon="2.73431">
        <ele>50.61</ele>
        <time>2021-08-07T10:37:38Z</time>
      </trkpt>
      <trkpt lat="50.74067" lon="2.73431">
        <ele>50.61</ele>
        <time>2021-08-07T10:37:39Z</time>
      </trkpt>
      <trkpt lat="50.74064" lon="2.73432">
        <ele>50.61</ele>
        <time>2021-08-07T10:37:40Z</time>
      </trkpt>
      <trkpt lat="50.74061" lon="2.73433">
        <ele>51.09</ele>
        <time>2021-08-07T10:37:41Z</time>
      </trkpt>
      <trkpt lat="50.74045" lon="2.73433">
        <ele>51.09</ele>
        <time>2021-08-07T10:37:47Z</time>
      </trkpt>
      <trkpt lat="50.74041" lon="2.73434">
        <ele>52.05</ele>
        <time>2021-08-07T10:37:53Z</time>
      </trkpt>
      <trkpt lat="50.74043" lon="2.73433">
        <ele>52.05</ele>
        <time>2021-08-07T10:38:04Z</time>
      </trkpt>
      <trkpt lat="50.74045" lon="2.73434">
        <ele>52.05</ele>
        <time>2021-08-07T10:38:24Z</time>
      </trkpt>
      <trkpt lat="50.7404" lon="2.73428">
        <ele>52.05</ele>
        <time>2021-08-07T10:38:47Z</time>
      </trkpt>
      <trkpt lat="50.74037" lon="2.73427">
        <ele>52.05</ele>
        <time>2021-08-07T10:39:07Z</time>
      </trkpt>
      <trkpt lat="50.74039" lon="2.73429">
        <ele>52.05</ele>
        <time>2021-08-07T10:39:25Z</time>
      </trkpt>
      <trkpt lat="50.74039" lon="2.73432">
        <ele>52.05</ele>
        <time>2021-08-07T10:39:45Z</time>
      </trkpt>
      <trkpt lat="50.74036" lon="2.73431">
        <ele>52.05</ele>
        <time>2021-08-07T10:40:09Z</time>
      </trkpt>
      <trkpt lat="50.74035" lon="2.73428">
        <ele>52.05</ele>
        <time>2021-08-07T10:40:29Z</time>
      </trkpt>
      <trkpt lat="50.74039" lon="2.73433">
        <ele>52.05</ele>
        <time>2021-08-07T10:40:51Z</time>
      </trkpt>
      <trkpt lat="50.74041" lon="2.73434">
        <ele>52.05</ele>
        <time>2021-08-07T10:41:18Z</time>
      </trkpt>
      <trkpt lat="50.74039" lon="2.73431">
        <ele>52.05</ele>
        <time>2021-08-07T10:41:41Z</time>
      </trkpt>
      <trkpt lat="50.74038" lon="2.7343">
        <ele>52.05</ele>
        <time>2021-08-07T10:42:02Z</time>
      </trkpt>
      <trkpt lat="50.7404" lon="2.7343">
        <ele>51.57</ele>
        <time>2021-08-07T10:42:20Z</time>
      </trkpt>
      <trkpt lat="50.74042" lon="2.73432">
        <ele>51.57</ele>
        <time>2021-08-07T10:42:27Z</time>
      </trkpt>
      <trkpt lat="50.74043" lon="2.73431">
        <ele>51.57</ele>
        <time>2021-08-07T10:42:28Z</time>
      </trkpt>
      <trkpt lat="50.74044" lon="2.7343">
        <ele>51.57</ele>
        <time>2021-08-07T10:42:29Z</time>
      </trkpt>
      <trkpt lat="50.74046" lon="2.73429">
        <ele>51.57</ele>
        <time>2021-08-07T10:42:30Z</time>
      </trkpt>
      <trkpt lat="50.74048" lon="2.73429">
        <ele>51.57</ele>
        <time>2021-08-07T10:42:31Z</time>
      </trkpt>
      <trkpt lat="50.7405" lon="2.73429">
        <ele>51.57</ele>
        <time>2021-08-07T10:42:32Z</time>
      </trkpt>
      <trkpt lat="50.74053" lon="2.73429">
        <ele>51.57</ele>
        <time>2021-08-07T10:42:33Z</time>
      </trkpt>
      <trkpt lat="50.74056" lon="2.73428">
        <ele>51.57</ele>
        <time>2021-08-07T10:42:34Z</time>
      </trkpt>
      <trkpt lat="50.74058" lon="2.73427">
        <ele>51.57</ele>
        <time>2021-08-07T10:42:35Z</time>
      </trkpt>
      <trkpt lat="50.7406" lon="2.73424">
        <ele>51.57</ele>
        <time>2021-08-07T10:42:36Z</time>
      </trkpt>
      <trkpt lat="50.7406" lon="2.7342">
        <ele>51.57</ele>
        <time>2021-08-07T10:42:37Z</time>
      </trkpt>
      <trkpt lat="50.7406" lon="2.73416">
        <ele>51.57</ele>
        <time>2021-08-07T10:42:38Z</time>
      </trkpt>
      <trkpt lat="50.7406" lon="2.73411">
        <ele>51.57</ele>
        <time>2021-08-07T10:42:39Z</time>
      </trkpt>
      <trkpt lat="50.74059" lon="2.73406">
        <ele>51.57</ele>
        <time>2021-08-07T10:42:40Z</time>
      </trkpt>
      <trkpt lat="50.74058" lon="2.73401">
        <ele>51.57</ele>
        <time>2021-08-07T10:42:41Z</time>
      </trkpt>
      <trkpt lat="50.74057" lon="2.73396">
        <ele>51.57</ele>
        <time>2021-08-07T10:42:42Z</time>
      </trkpt>
      <trkpt lat="50.74041" lon="2.73341">
        <ele>51.57</ele>
        <time>2021-08-07T10:42:51Z</time>
      </trkpt>
      <trkpt lat="50.74036" lon="2.73328">
        <ele>50.61</ele>
        <time>2021-08-07T10:42:53Z</time>
      </trkpt>
      <trkpt lat="50.74031" lon="2.73315">
        <ele>50.13</ele>
        <time>2021-08-07T10:42:55Z</time>
      </trkpt>
      <trkpt lat="50.74027" lon="2.73309">
        <ele>50.13</ele>
        <time>2021-08-07T10:42:56Z</time>
      </trkpt>
      <trkpt lat="50.74023" lon="2.73305">
        <ele>50.13</ele>
        <time>2021-08-07T10:42:57Z</time>
      </trkpt>
      <trkpt lat="50.74018" lon="2.73304">
        <ele>50.13</ele>
        <time>2021-08-07T10:42:58Z</time>
      </trkpt>
      <trkpt lat="50.74015" lon="2.73304">
        <ele>50.13</ele>
        <time>2021-08-07T10:42:59Z</time>
      </trkpt>
      <trkpt lat="50.74011" lon="2.73304">
        <ele>50.13</ele>
        <time>2021-08-07T10:43:00Z</time>
      </trkpt>
      <trkpt lat="50.74006" lon="2.73305">
        <ele>50.13</ele>
        <time>2021-08-07T10:43:01Z</time>
      </trkpt>
      <trkpt lat="50.74003" lon="2.73306">
        <ele>50.13</ele>
        <time>2021-08-07T10:43:02Z</time>
      </trkpt>
      <trkpt lat="50.74001" lon="2.73305">
        <ele>50.13</ele>
        <time>2021-08-07T10:43:03Z</time>
      </trkpt>
      <trkpt lat="50.73999" lon="2.73303">
        <ele>50.13</ele>
        <time>2021-08-07T10:43:04Z</time>
      </trkpt>
      <trkpt lat="50.73998" lon="2.73301">
        <ele>50.13</ele>
        <time>2021-08-07T10:43:05Z</time>
      </trkpt>
      <trkpt lat="50.73996" lon="2.733">
        <ele>50.13</ele>
        <time>2021-08-07T10:43:06Z</time>
      </trkpt>
      <trkpt lat="50.73994" lon="2.73301">
        <ele>50.13</ele>
        <time>2021-08-07T10:43:07Z</time>
      </trkpt>
      <trkpt lat="50.73993" lon="2.73305">
        <ele>50.13</ele>
        <time>2021-08-07T10:43:08Z</time>
      </trkpt>
      <trkpt lat="50.73991" lon="2.73309">
        <ele>50.13</ele>
        <time>2021-08-07T10:43:09Z</time>
      </trkpt>
      <trkpt lat="50.73978" lon="2.73325">
        <ele>51.57</ele>
        <time>2021-08-07T10:43:14Z</time>
      </trkpt>
      <trkpt lat="50.73976" lon="2.73325">
        <ele>52.05</ele>
        <time>2021-08-07T10:43:15Z</time>
      </trkpt>
      <trkpt lat="50.73975" lon="2.73323">
        <ele>52.05</ele>
        <time>2021-08-07T10:43:16Z</time>
      </trkpt>
      <trkpt lat="50.73976" lon="2.73321">
        <ele>52.05</ele>
        <time>2021-08-07T10:43:17Z</time>
      </trkpt>
      <trkpt lat="50.73978" lon="2.73319">
        <ele>52.05</ele>
        <time>2021-08-07T10:43:18Z</time>
      </trkpt>
      <trkpt lat="50.73981" lon="2.73317">
        <ele>52.05</ele>
        <time>2021-08-07T10:43:19Z</time>
      </trkpt>
      <trkpt lat="50.73984" lon="2.73315">
        <ele>52.05</ele>
        <time>2021-08-07T10:43:20Z</time>
      </trkpt>
      <trkpt lat="50.73987" lon="2.73314">
        <ele>50.61</ele>
        <time>2021-08-07T10:43:21Z</time>
      </trkpt>
      <trkpt lat="50.7399" lon="2.73312">
        <ele>50.61</ele>
        <time>2021-08-07T10:43:22Z</time>
      </trkpt>
      <trkpt lat="50.73992" lon="2.73312">
        <ele>50.61</ele>
        <time>2021-08-07T10:43:23Z</time>
      </trkpt>
      <trkpt lat="50.73994" lon="2.7331">
        <ele>50.61</ele>
        <time>2021-08-07T10:43:24Z</time>
      </trkpt>
      <trkpt lat="50.73996" lon="2.73306">
        <ele>50.61</ele>
        <time>2021-08-07T10:43:25Z</time>
      </trkpt>
      <trkpt lat="50.73996" lon="2.73301">
        <ele>50.61</ele>
        <time>2021-08-07T10:43:26Z</time>
      </trkpt>
      <trkpt lat="50.73995" lon="2.73296">
        <ele>50.61</ele>
        <time>2021-08-07T10:43:27Z</time>
      </trkpt>
      <trkpt lat="50.73993" lon="2.73291">
        <ele>50.61</ele>
        <time>2021-08-07T10:43:28Z</time>
      </trkpt>
      <trkpt lat="50.73991" lon="2.73286">
        <ele>50.61</ele>
        <time>2021-08-07T10:43:29Z</time>
      </trkpt>
      <trkpt lat="50.73973" lon="2.73238">
        <ele>50.13</ele>
        <time>2021-08-07T10:43:36Z</time>
      </trkpt>
      <trkpt lat="50.73968" lon="2.73224">
        <ele>48.68</ele>
        <time>2021-08-07T10:43:38Z</time>
      </trkpt>
      <trkpt lat="50.73958" lon="2.73203">
        <ele>49.16</ele>
        <time>2021-08-07T10:43:43Z</time>
      </trkpt>
      <trkpt lat="50.73955" lon="2.73203">
        <ele>49.16</ele>
        <time>2021-08-07T10:43:44Z</time>
      </trkpt>
      <trkpt lat="50.73952" lon="2.73205">
        <ele>49.16</ele>
        <time>2021-08-07T10:43:45Z</time>
      </trkpt>
      <trkpt lat="50.7395" lon="2.73207">
        <ele>49.16</ele>
        <time>2021-08-07T10:43:46Z</time>
      </trkpt>
      <trkpt lat="50.73948" lon="2.73211">
        <ele>49.16</ele>
        <time>2021-08-07T10:43:47Z</time>
      </trkpt>
      <trkpt lat="50.73945" lon="2.73215">
        <ele>49.16</ele>
        <time>2021-08-07T10:43:48Z</time>
      </trkpt>
      <trkpt lat="50.73942" lon="2.73219">
        <ele>49.16</ele>
        <time>2021-08-07T10:43:49Z</time>
      </trkpt>
      <trkpt lat="50.73927" lon="2.73238">
        <ele>49.16</ele>
        <time>2021-08-07T10:43:54Z</time>
      </trkpt>
      <trkpt lat="50.73894" lon="2.73283">
        <ele>49.16</ele>
        <time>2021-08-07T10:44:04Z</time>
      </trkpt>
      <trkpt lat="50.73886" lon="2.73294">
        <ele>49.16</ele>
        <time>2021-08-07T10:44:08Z</time>
      </trkpt>
      <trkpt lat="50.73886" lon="2.73298">
        <ele>49.16</ele>
        <time>2021-08-07T10:44:09Z</time>
      </trkpt>
      <trkpt lat="50.73886" lon="2.73303">
        <ele>49.16</ele>
        <time>2021-08-07T10:44:10Z</time>
      </trkpt>
      <trkpt lat="50.73889" lon="2.73314">
        <ele>49.16</ele>
        <time>2021-08-07T10:44:12Z</time>
      </trkpt>
      <trkpt lat="50.73915" lon="2.7338">
        <ele>49.16</ele>
        <time>2021-08-07T10:44:23Z</time>
      </trkpt>
      <trkpt lat="50.73939" lon="2.73447">
        <ele>49.16</ele>
        <time>2021-08-07T10:44:33Z</time>
      </trkpt>
      <trkpt lat="50.73954" lon="2.73499">
        <ele>49.16</ele>
        <time>2021-08-07T10:44:41Z</time>
      </trkpt>
      <trkpt lat="50.73955" lon="2.73523">
        <ele>49.16</ele>
        <time>2021-08-07T10:44:48Z</time>
      </trkpt>
      <trkpt lat="50.73949" lon="2.73547">
        <ele>48.68</ele>
        <time>2021-08-07T10:44:53Z</time>
      </trkpt>
      <trkpt lat="50.73942" lon="2.73564">
        <ele>48.68</ele>
        <time>2021-08-07T10:44:56Z</time>
      </trkpt>
      <trkpt lat="50.73938" lon="2.73569">
        <ele>48.68</ele>
        <time>2021-08-07T10:44:57Z</time>
      </trkpt>
      <trkpt lat="50.7393" lon="2.7358">
        <ele>48.2</ele>
        <time>2021-08-07T10:44:59Z</time>
      </trkpt>
      <trkpt lat="50.73926" lon="2.73586">
        <ele>47.72</ele>
        <time>2021-08-07T10:45:00Z</time>
      </trkpt>
      <trkpt lat="50.7388" lon="2.73644">
        <ele>45.8</ele>
        <time>2021-08-07T10:45:09Z</time>
      </trkpt>
      <trkpt lat="50.73823" lon="2.7372">
        <ele>43.4</ele>
        <time>2021-08-07T10:45:19Z</time>
      </trkpt>
      <trkpt lat="50.73759" lon="2.73809">
        <ele>40.99</ele>
        <time>2021-08-07T10:45:30Z</time>
      </trkpt>
      <trkpt lat="50.73692" lon="2.73899">
        <ele>37.15</ele>
        <time>2021-08-07T10:45:41Z</time>
      </trkpt>
      <trkpt lat="50.73637" lon="2.73973">
        <ele>36.19</ele>
        <time>2021-08-07T10:45:50Z</time>
      </trkpt>
      <trkpt lat="50.73578" lon="2.74054">
        <ele>34.26</ele>
        <time>2021-08-07T10:46:00Z</time>
      </trkpt>
      <trkpt lat="50.73524" lon="2.74125">
        <ele>32.82</ele>
        <time>2021-08-07T10:46:09Z</time>
      </trkpt>
      <trkpt lat="50.73461" lon="2.74204">
        <ele>30.9</ele>
        <time>2021-08-07T10:46:19Z</time>
      </trkpt>
      <trkpt lat="50.73432" lon="2.7424">
        <ele>29.46</ele>
        <time>2021-08-07T10:46:24Z</time>
      </trkpt>
      <trkpt lat="50.73373" lon="2.74311">
        <ele>28.5</ele>
        <time>2021-08-07T10:46:34Z</time>
      </trkpt>
      <trkpt lat="50.73322" lon="2.74373">
        <ele>27.53</ele>
        <time>2021-08-07T10:46:43Z</time>
      </trkpt>
      <trkpt lat="50.73269" lon="2.74437">
        <ele>26.09</ele>
        <time>2021-08-07T10:46:53Z</time>
      </trkpt>
      <trkpt lat="50.73211" lon="2.74506">
        <ele>25.61</ele>
        <time>2021-08-07T10:47:04Z</time>
      </trkpt>
      <trkpt lat="50.73177" lon="2.74548">
        <ele>26.09</ele>
        <time>2021-08-07T10:47:11Z</time>
      </trkpt>
      <trkpt lat="50.73119" lon="2.74623">
        <ele>26.57</ele>
        <time>2021-08-07T10:47:23Z</time>
      </trkpt>
      <trkpt lat="50.7309" lon="2.74658">
        <ele>26.57</ele>
        <time>2021-08-07T10:47:29Z</time>
      </trkpt>
      <trkpt lat="50.73085" lon="2.74662">
        <ele>25.13</ele>
        <time>2021-08-07T10:47:30Z</time>
      </trkpt>
      <trkpt lat="50.73054" lon="2.74684">
        <ele>24.65</ele>
        <time>2021-08-07T10:47:36Z</time>
      </trkpt>
      <trkpt lat="50.73048" lon="2.74685">
        <ele>24.65</ele>
        <time>2021-08-07T10:47:37Z</time>
      </trkpt>
      <trkpt lat="50.73043" lon="2.74685">
        <ele>24.65</ele>
        <time>2021-08-07T10:47:38Z</time>
      </trkpt>
      <trkpt lat="50.73038" lon="2.74685">
        <ele>24.65</ele>
        <time>2021-08-07T10:47:39Z</time>
      </trkpt>
      <trkpt lat="50.73033" lon="2.74685">
        <ele>24.65</ele>
        <time>2021-08-07T10:47:40Z</time>
      </trkpt>
      <trkpt lat="50.73028" lon="2.74686">
        <ele>24.65</ele>
        <time>2021-08-07T10:47:41Z</time>
      </trkpt>
      <trkpt lat="50.73024" lon="2.74688">
        <ele>24.65</ele>
        <time>2021-08-07T10:47:42Z</time>
      </trkpt>
      <trkpt lat="50.7302" lon="2.74691">
        <ele>24.65</ele>
        <time>2021-08-07T10:47:43Z</time>
      </trkpt>
      <trkpt lat="50.73018" lon="2.74697">
        <ele>24.65</ele>
        <time>2021-08-07T10:47:44Z</time>
      </trkpt>
      <trkpt lat="50.73016" lon="2.74703">
        <ele>25.61</ele>
        <time>2021-08-07T10:47:45Z</time>
      </trkpt>
      <trkpt lat="50.73015" lon="2.7471">
        <ele>25.61</ele>
        <time>2021-08-07T10:47:46Z</time>
      </trkpt>
      <trkpt lat="50.73016" lon="2.74718">
        <ele>26.57</ele>
        <time>2021-08-07T10:47:47Z</time>
      </trkpt>
      <trkpt lat="50.73018" lon="2.74725">
        <ele>26.57</ele>
        <time>2021-08-07T10:47:48Z</time>
      </trkpt>
      <trkpt lat="50.73021" lon="2.74731">
        <ele>26.57</ele>
        <time>2021-08-07T10:47:49Z</time>
      </trkpt>
      <trkpt lat="50.73025" lon="2.74735">
        <ele>26.57</ele>
        <time>2021-08-07T10:47:50Z</time>
      </trkpt>
      <trkpt lat="50.7303" lon="2.74737">
        <ele>26.57</ele>
        <time>2021-08-07T10:47:51Z</time>
      </trkpt>
      <trkpt lat="50.73035" lon="2.74739">
        <ele>26.57</ele>
        <time>2021-08-07T10:47:52Z</time>
      </trkpt>
      <trkpt lat="50.7304" lon="2.74742">
        <ele>26.57</ele>
        <time>2021-08-07T10:47:53Z</time>
      </trkpt>
      <trkpt lat="50.73044" lon="2.74746">
        <ele>26.57</ele>
        <time>2021-08-07T10:47:54Z</time>
      </trkpt>
      <trkpt lat="50.73049" lon="2.74752">
        <ele>26.57</ele>
        <time>2021-08-07T10:47:55Z</time>
      </trkpt>
      <trkpt lat="50.73052" lon="2.74757">
        <ele>26.57</ele>
        <time>2021-08-07T10:47:56Z</time>
      </trkpt>
      <trkpt lat="50.73055" lon="2.74762">
        <ele>25.13</ele>
        <time>2021-08-07T10:47:57Z</time>
      </trkpt>
      <trkpt lat="50.73058" lon="2.74768">
        <ele>24.65</ele>
        <time>2021-08-07T10:47:58Z</time>
      </trkpt>
      <trkpt lat="50.73062" lon="2.74775">
        <ele>24.65</ele>
        <time>2021-08-07T10:47:59Z</time>
      </trkpt>
      <trkpt lat="50.73096" lon="2.74841">
        <ele>24.65</ele>
        <time>2021-08-07T10:48:09Z</time>
      </trkpt>
      <trkpt lat="50.73103" lon="2.74853">
        <ele>24.65</ele>
        <time>2021-08-07T10:48:11Z</time>
      </trkpt>
      <trkpt lat="50.73127" lon="2.74899">
        <ele>24.65</ele>
        <time>2021-08-07T10:48:19Z</time>
      </trkpt>
      <trkpt lat="50.73135" lon="2.74927">
        <ele>26.09</ele>
        <time>2021-08-07T10:48:25Z</time>
      </trkpt>
      <trkpt lat="50.73136" lon="2.7493">
        <ele>26.09</ele>
        <time>2021-08-07T10:48:26Z</time>
      </trkpt>
      <trkpt lat="50.73135" lon="2.74952">
        <ele>26.09</ele>
        <time>2021-08-07T10:48:31Z</time>
      </trkpt>
      <trkpt lat="50.73128" lon="2.74991">
        <ele>26.09</ele>
        <time>2021-08-07T10:48:38Z</time>
      </trkpt>
      <trkpt lat="50.73117" lon="2.75042">
        <ele>26.09</ele>
        <time>2021-08-07T10:48:46Z</time>
      </trkpt>
      <trkpt lat="50.73108" lon="2.75088">
        <ele>26.57</ele>
        <time>2021-08-07T10:48:53Z</time>
      </trkpt>
      <trkpt lat="50.73093" lon="2.75177">
        <ele>27.05</ele>
        <time>2021-08-07T10:49:05Z</time>
      </trkpt>
      <trkpt lat="50.73092" lon="2.75183">
        <ele>27.53</ele>
        <time>2021-08-07T10:49:06Z</time>
      </trkpt>
      <trkpt lat="50.7309" lon="2.7519">
        <ele>27.53</ele>
        <time>2021-08-07T10:49:07Z</time>
      </trkpt>
      <trkpt lat="50.73083" lon="2.75234">
        <ele>27.53</ele>
        <time>2021-08-07T10:49:13Z</time>
      </trkpt>
      <trkpt lat="50.73081" lon="2.75241">
        <ele>27.53</ele>
        <time>2021-08-07T10:49:14Z</time>
      </trkpt>
      <trkpt lat="50.73079" lon="2.75255">
        <ele>27.53</ele>
        <time>2021-08-07T10:49:16Z</time>
      </trkpt>
      <trkpt lat="50.73077" lon="2.75261">
        <ele>27.53</ele>
        <time>2021-08-07T10:49:17Z</time>
      </trkpt>
      <trkpt lat="50.73075" lon="2.75268">
        <ele>25.61</ele>
        <time>2021-08-07T10:49:18Z</time>
      </trkpt>
      <trkpt lat="50.73074" lon="2.75275">
        <ele>25.61</ele>
        <time>2021-08-07T10:49:19Z</time>
      </trkpt>
      <trkpt lat="50.73072" lon="2.75283">
        <ele>25.61</ele>
        <time>2021-08-07T10:49:20Z</time>
      </trkpt>
      <trkpt lat="50.73071" lon="2.7529">
        <ele>25.61</ele>
        <time>2021-08-07T10:49:21Z</time>
      </trkpt>
      <trkpt lat="50.7307" lon="2.75297">
        <ele>26.57</ele>
        <time>2021-08-07T10:49:22Z</time>
      </trkpt>
      <trkpt lat="50.73068" lon="2.75305">
        <ele>26.57</ele>
        <time>2021-08-07T10:49:23Z</time>
      </trkpt>
      <trkpt lat="50.73067" lon="2.75311">
        <ele>27.05</ele>
        <time>2021-08-07T10:49:24Z</time>
      </trkpt>
      <trkpt lat="50.73056" lon="2.75374">
        <ele>28.02</ele>
        <time>2021-08-07T10:49:33Z</time>
      </trkpt>
      <trkpt lat="50.73053" lon="2.75388">
        <ele>28.02</ele>
        <time>2021-08-07T10:49:35Z</time>
      </trkpt>
      <trkpt lat="50.73052" lon="2.75393">
        <ele>28.02</ele>
        <time>2021-08-07T10:49:36Z</time>
      </trkpt>
      <trkpt lat="50.73045" lon="2.75424">
        <ele>28.02</ele>
        <time>2021-08-07T10:49:42Z</time>
      </trkpt>
      <trkpt lat="50.73043" lon="2.75426">
        <ele>28.02</ele>
        <time>2021-08-07T10:49:43Z</time>
      </trkpt>
      <trkpt lat="50.73033" lon="2.75429">
        <ele>26.57</ele>
        <time>2021-08-07T10:49:46Z</time>
      </trkpt>
      <trkpt lat="50.73029" lon="2.7543">
        <ele>26.57</ele>
        <time>2021-08-07T10:49:47Z</time>
      </trkpt>
      <trkpt lat="50.73025" lon="2.75431">
        <ele>26.57</ele>
        <time>2021-08-07T10:49:48Z</time>
      </trkpt>
      <trkpt lat="50.73021" lon="2.75432">
        <ele>26.57</ele>
        <time>2021-08-07T10:49:49Z</time>
      </trkpt>
      <trkpt lat="50.73017" lon="2.75434">
        <ele>26.57</ele>
        <time>2021-08-07T10:49:50Z</time>
      </trkpt>
      <trkpt lat="50.73014" lon="2.75435">
        <ele>26.57</ele>
        <time>2021-08-07T10:49:51Z</time>
      </trkpt>
      <trkpt lat="50.7301" lon="2.75437">
        <ele>26.09</ele>
        <time>2021-08-07T10:49:52Z</time>
      </trkpt>
      <trkpt lat="50.72991" lon="2.75445">
        <ele>25.61</ele>
        <time>2021-08-07T10:49:57Z</time>
      </trkpt>
      <trkpt lat="50.72963" lon="2.75455">
        <ele>25.61</ele>
        <time>2021-08-07T10:50:04Z</time>
      </trkpt>
      <trkpt lat="50.72959" lon="2.75456">
        <ele>25.61</ele>
        <time>2021-08-07T10:50:05Z</time>
      </trkpt>
      <trkpt lat="50.72954" lon="2.75458">
        <ele>25.61</ele>
        <time>2021-08-07T10:50:06Z</time>
      </trkpt>
      <trkpt lat="50.72938" lon="2.75463">
        <ele>26.09</ele>
        <time>2021-08-07T10:50:11Z</time>
      </trkpt>
      <trkpt lat="50.72924" lon="2.75468">
        <ele>27.05</ele>
        <time>2021-08-07T10:50:17Z</time>
      </trkpt>
      <trkpt lat="50.72903" lon="2.75474">
        <ele>24.65</ele>
        <time>2021-08-07T10:50:22Z</time>
      </trkpt>
      <trkpt lat="50.72887" lon="2.75481">
        <ele>23.69</ele>
        <time>2021-08-07T10:50:26Z</time>
      </trkpt>
      <trkpt lat="50.72885" lon="2.75486">
        <ele>23.69</ele>
        <time>2021-08-07T10:50:27Z</time>
      </trkpt>
      <trkpt lat="50.72885" lon="2.75492">
        <ele>23.69</ele>
        <time>2021-08-07T10:50:28Z</time>
      </trkpt>
      <trkpt lat="50.72886" lon="2.75496">
        <ele>23.69</ele>
        <time>2021-08-07T10:50:29Z</time>
      </trkpt>
      <trkpt lat="50.72887" lon="2.75501">
        <ele>23.69</ele>
        <time>2021-08-07T10:50:30Z</time>
      </trkpt>
      <trkpt lat="50.72887" lon="2.75504">
        <ele>23.69</ele>
        <time>2021-08-07T10:50:31Z</time>
      </trkpt>
      <trkpt lat="50.72888" lon="2.75508">
        <ele>23.69</ele>
        <time>2021-08-07T10:50:32Z</time>
      </trkpt>
      <trkpt lat="50.72889" lon="2.75512">
        <ele>23.69</ele>
        <time>2021-08-07T10:50:33Z</time>
      </trkpt>
      <trkpt lat="50.72893" lon="2.75539">
        <ele>23.69</ele>
        <time>2021-08-07T10:50:40Z</time>
      </trkpt>
      <trkpt lat="50.72896" lon="2.75559">
        <ele>23.69</ele>
        <time>2021-08-07T10:50:47Z</time>
      </trkpt>
      <trkpt lat="50.72898" lon="2.75563">
        <ele>23.69</ele>
        <time>2021-08-07T10:50:49Z</time>
      </trkpt>
      <trkpt lat="50.72898" lon="2.75566">
        <ele>23.69</ele>
        <time>2021-08-07T10:50:50Z</time>
      </trkpt>
      <trkpt lat="50.72901" lon="2.75595">
        <ele>23.69</ele>
        <time>2021-08-07T10:50:57Z</time>
      </trkpt>
      <trkpt lat="50.72909" lon="2.75631">
        <ele>23.69</ele>
        <time>2021-08-07T10:51:04Z</time>
      </trkpt>
      <trkpt lat="50.72918" lon="2.75675">
        <ele>23.69</ele>
        <time>2021-08-07T10:51:12Z</time>
      </trkpt>
      <trkpt lat="50.72924" lon="2.75702">
        <ele>23.69</ele>
        <time>2021-08-07T10:51:17Z</time>
      </trkpt>
      <trkpt lat="50.72933" lon="2.75739">
        <ele>23.69</ele>
        <time>2021-08-07T10:51:24Z</time>
      </trkpt>
      <trkpt lat="50.72938" lon="2.75757">
        <ele>23.69</ele>
        <time>2021-08-07T10:51:29Z</time>
      </trkpt>
      <trkpt lat="50.7294" lon="2.75763">
        <ele>23.69</ele>
        <time>2021-08-07T10:51:31Z</time>
      </trkpt>
      <trkpt lat="50.7294" lon="2.75767">
        <ele>23.69</ele>
        <time>2021-08-07T10:51:32Z</time>
      </trkpt>
      <trkpt lat="50.7294" lon="2.7577">
        <ele>23.69</ele>
        <time>2021-08-07T10:51:33Z</time>
      </trkpt>
      <trkpt lat="50.72941" lon="2.75775">
        <ele>23.69</ele>
        <time>2021-08-07T10:51:34Z</time>
      </trkpt>
      <trkpt lat="50.72941" lon="2.7578">
        <ele>23.69</ele>
        <time>2021-08-07T10:51:35Z</time>
      </trkpt>
      <trkpt lat="50.72942" lon="2.75785">
        <ele>23.69</ele>
        <time>2021-08-07T10:51:36Z</time>
      </trkpt>
      <trkpt lat="50.72943" lon="2.75788">
        <ele>23.69</ele>
        <time>2021-08-07T10:51:37Z</time>
      </trkpt>
      <trkpt lat="50.72944" lon="2.75792">
        <ele>23.69</ele>
        <time>2021-08-07T10:51:38Z</time>
      </trkpt>
      <trkpt lat="50.72945" lon="2.75795">
        <ele>23.69</ele>
        <time>2021-08-07T10:51:39Z</time>
      </trkpt>
      <trkpt lat="50.7295" lon="2.75819">
        <ele>23.69</ele>
        <time>2021-08-07T10:51:45Z</time>
      </trkpt>
      <trkpt lat="50.72954" lon="2.75839">
        <ele>23.69</ele>
        <time>2021-08-07T10:51:52Z</time>
      </trkpt>
      <trkpt lat="50.72955" lon="2.75842">
        <ele>23.69</ele>
        <time>2021-08-07T10:51:53Z</time>
      </trkpt>
      <trkpt lat="50.72955" lon="2.75844">
        <ele>23.69</ele>
        <time>2021-08-07T10:51:54Z</time>
      </trkpt>
      <trkpt lat="50.7296" lon="2.75868">
        <ele>23.69</ele>
        <time>2021-08-07T10:52:00Z</time>
      </trkpt>
      <trkpt lat="50.72965" lon="2.75896">
        <ele>23.69</ele>
        <time>2021-08-07T10:52:06Z</time>
      </trkpt>
      <trkpt lat="50.72969" lon="2.75908">
        <ele>23.69</ele>
        <time>2021-08-07T10:52:10Z</time>
      </trkpt>
      <trkpt lat="50.72969" lon="2.7591">
        <ele>23.69</ele>
        <time>2021-08-07T10:52:11Z</time>
      </trkpt>
      <trkpt lat="50.72969" lon="2.75913">
        <ele>23.69</ele>
        <time>2021-08-07T10:52:12Z</time>
      </trkpt>
      <trkpt lat="50.7297" lon="2.75916">
        <ele>23.69</ele>
        <time>2021-08-07T10:52:13Z</time>
      </trkpt>
      <trkpt lat="50.7297" lon="2.75919">
        <ele>23.69</ele>
        <time>2021-08-07T10:52:14Z</time>
      </trkpt>
      <trkpt lat="50.72971" lon="2.75922">
        <ele>23.69</ele>
        <time>2021-08-07T10:52:15Z</time>
      </trkpt>
      <trkpt lat="50.72972" lon="2.75925">
        <ele>23.69</ele>
        <time>2021-08-07T10:52:16Z</time>
      </trkpt>
      <trkpt lat="50.72972" lon="2.75927">
        <ele>23.69</ele>
        <time>2021-08-07T10:52:17Z</time>
      </trkpt>
      <trkpt lat="50.72973" lon="2.75931">
        <ele>23.69</ele>
        <time>2021-08-07T10:52:18Z</time>
      </trkpt>
      <trkpt lat="50.72977" lon="2.75946">
        <ele>23.69</ele>
        <time>2021-08-07T10:52:23Z</time>
      </trkpt>
      <trkpt lat="50.72982" lon="2.7597">
        <ele>23.69</ele>
        <time>2021-08-07T10:52:31Z</time>
      </trkpt>
      <trkpt lat="50.72983" lon="2.75973">
        <ele>23.69</ele>
        <time>2021-08-07T10:52:32Z</time>
      </trkpt>
      <trkpt lat="50.72985" lon="2.7598">
        <ele>23.69</ele>
        <time>2021-08-07T10:52:38Z</time>
      </trkpt>
      <trkpt lat="50.72986" lon="2.75985">
        <ele>23.69</ele>
        <time>2021-08-07T10:52:44Z</time>
      </trkpt>
      <trkpt lat="50.72989" lon="2.75997">
        <ele>23.69</ele>
        <time>2021-08-07T10:52:50Z</time>
      </trkpt>
      <trkpt lat="50.72992" lon="2.76009">
        <ele>24.65</ele>
        <time>2021-08-07T10:52:56Z</time>
      </trkpt>
      <trkpt lat="50.72993" lon="2.76011">
        <ele>24.65</ele>
        <time>2021-08-07T10:52:57Z</time>
      </trkpt>
      <trkpt lat="50.72994" lon="2.76013">
        <ele>24.65</ele>
        <time>2021-08-07T10:52:58Z</time>
      </trkpt>
      <trkpt lat="50.72997" lon="2.76033">
        <ele>24.65</ele>
        <time>2021-08-07T10:53:05Z</time>
      </trkpt>
      <trkpt lat="50.72999" lon="2.76037">
        <ele>24.65</ele>
        <time>2021-08-07T10:53:10Z</time>
      </trkpt>
      <trkpt lat="50.73001" lon="2.7604">
        <ele>24.65</ele>
        <time>2021-08-07T10:53:22Z</time>
      </trkpt>
      <trkpt lat="50.73004" lon="2.76047">
        <ele>24.65</ele>
        <time>2021-08-07T10:53:33Z</time>
      </trkpt>
      <trkpt lat="50.73007" lon="2.76061">
        <ele>24.65</ele>
        <time>2021-08-07T10:53:40Z</time>
      </trkpt>
      <trkpt lat="50.73009" lon="2.7607">
        <ele>23.69</ele>
        <time>2021-08-07T10:53:44Z</time>
      </trkpt>
      <trkpt lat="50.7301" lon="2.76072">
        <ele>23.69</ele>
        <time>2021-08-07T10:53:45Z</time>
      </trkpt>
      <trkpt lat="50.7301" lon="2.76075">
        <ele>22.73</ele>
        <time>2021-08-07T10:53:46Z</time>
      </trkpt>
      <trkpt lat="50.7301" lon="2.76078">
        <ele>22.73</ele>
        <time>2021-08-07T10:53:47Z</time>
      </trkpt>
      <trkpt lat="50.7301" lon="2.76081">
        <ele>22.73</ele>
        <time>2021-08-07T10:53:48Z</time>
      </trkpt>
      <trkpt lat="50.73011" lon="2.76083">
        <ele>22.73</ele>
        <time>2021-08-07T10:53:49Z</time>
      </trkpt>
      <trkpt lat="50.73016" lon="2.76106">
        <ele>22.73</ele>
        <time>2021-08-07T10:53:56Z</time>
      </trkpt>
      <trkpt lat="50.73017" lon="2.76108">
        <ele>22.73</ele>
        <time>2021-08-07T10:53:57Z</time>
      </trkpt>
      <trkpt lat="50.73017" lon="2.76113">
        <ele>22.73</ele>
        <time>2021-08-07T10:53:59Z</time>
      </trkpt>
      <trkpt lat="50.73018" lon="2.76126">
        <ele>24.65</ele>
        <time>2021-08-07T10:54:06Z</time>
      </trkpt>
      <trkpt lat="50.73024" lon="2.76152">
        <ele>24.17</ele>
        <time>2021-08-07T10:54:14Z</time>
      </trkpt>
      <trkpt lat="50.73024" lon="2.76154">
        <ele>24.17</ele>
        <time>2021-08-07T10:54:15Z</time>
      </trkpt>
      <trkpt lat="50.73024" lon="2.76157">
        <ele>24.17</ele>
        <time>2021-08-07T10:54:16Z</time>
      </trkpt>
      <trkpt lat="50.73024" lon="2.7616">
        <ele>24.17</ele>
        <time>2021-08-07T10:54:17Z</time>
      </trkpt>
      <trkpt lat="50.73024" lon="2.76163">
        <ele>24.17</ele>
        <time>2021-08-07T10:54:18Z</time>
      </trkpt>
      <trkpt lat="50.73031" lon="2.76185">
        <ele>25.13</ele>
        <time>2021-08-07T10:54:25Z</time>
      </trkpt>
      <trkpt lat="50.73031" lon="2.76189">
        <ele>25.13</ele>
        <time>2021-08-07T10:54:26Z</time>
      </trkpt>
      <trkpt lat="50.7303" lon="2.76233">
        <ele>25.13</ele>
        <time>2021-08-07T10:54:34Z</time>
      </trkpt>
      <trkpt lat="50.73024" lon="2.76265">
        <ele>25.61</ele>
        <time>2021-08-07T10:54:39Z</time>
      </trkpt>
      <trkpt lat="50.73017" lon="2.76312">
        <ele>24.17</ele>
        <time>2021-08-07T10:54:46Z</time>
      </trkpt>
      <trkpt lat="50.73016" lon="2.76318">
        <ele>23.21</ele>
        <time>2021-08-07T10:54:47Z</time>
      </trkpt>
      <trkpt lat="50.73007" lon="2.76364">
        <ele>23.21</ele>
        <time>2021-08-07T10:54:55Z</time>
      </trkpt>
      <trkpt lat="50.73" lon="2.76418">
        <ele>23.21</ele>
        <time>2021-08-07T10:55:04Z</time>
      </trkpt>
      <trkpt lat="50.72992" lon="2.76461">
        <ele>23.21</ele>
        <time>2021-08-07T10:55:12Z</time>
      </trkpt>
      <trkpt lat="50.72991" lon="2.76467">
        <ele>23.21</ele>
        <time>2021-08-07T10:55:13Z</time>
      </trkpt>
      <trkpt lat="50.72981" lon="2.76526">
        <ele>23.21</ele>
        <time>2021-08-07T10:55:22Z</time>
      </trkpt>
      <trkpt lat="50.72969" lon="2.76587">
        <ele>22.73</ele>
        <time>2021-08-07T10:55:31Z</time>
      </trkpt>
      <trkpt lat="50.72962" lon="2.76622">
        <ele>24.17</ele>
        <time>2021-08-07T10:55:36Z</time>
      </trkpt>
      <trkpt lat="50.72959" lon="2.76637">
        <ele>22.73</ele>
        <time>2021-08-07T10:55:38Z</time>
      </trkpt>
      <trkpt lat="50.72946" lon="2.76693">
        <ele>22.73</ele>
        <time>2021-08-07T10:55:46Z</time>
      </trkpt>
      <trkpt lat="50.72944" lon="2.767">
        <ele>22.73</ele>
        <time>2021-08-07T10:55:47Z</time>
      </trkpt>
      <trkpt lat="50.72943" lon="2.76706">
        <ele>22.73</ele>
        <time>2021-08-07T10:55:48Z</time>
      </trkpt>
      <trkpt lat="50.72942" lon="2.76712">
        <ele>22.73</ele>
        <time>2021-08-07T10:55:49Z</time>
      </trkpt>
      <trkpt lat="50.72941" lon="2.76719">
        <ele>22.73</ele>
        <time>2021-08-07T10:55:50Z</time>
      </trkpt>
      <trkpt lat="50.7294" lon="2.76725">
        <ele>22.73</ele>
        <time>2021-08-07T10:55:51Z</time>
      </trkpt>
      <trkpt lat="50.72937" lon="2.76739">
        <ele>22.73</ele>
        <time>2021-08-07T10:55:53Z</time>
      </trkpt>
      <trkpt lat="50.72936" lon="2.76744">
        <ele>22.73</ele>
        <time>2021-08-07T10:55:54Z</time>
      </trkpt>
      <trkpt lat="50.72934" lon="2.76751">
        <ele>22.73</ele>
        <time>2021-08-07T10:55:55Z</time>
      </trkpt>
      <trkpt lat="50.72933" lon="2.76757">
        <ele>22.73</ele>
        <time>2021-08-07T10:55:56Z</time>
      </trkpt>
      <trkpt lat="50.72932" lon="2.76763">
        <ele>22.73</ele>
        <time>2021-08-07T10:55:57Z</time>
      </trkpt>
      <trkpt lat="50.72931" lon="2.76768">
        <ele>22.73</ele>
        <time>2021-08-07T10:55:58Z</time>
      </trkpt>
      <trkpt lat="50.7293" lon="2.76775">
        <ele>22.73</ele>
        <time>2021-08-07T10:55:59Z</time>
      </trkpt>
      <trkpt lat="50.72928" lon="2.76781">
        <ele>22.73</ele>
        <time>2021-08-07T10:56:00Z</time>
      </trkpt>
      <trkpt lat="50.72925" lon="2.76793">
        <ele>22.73</ele>
        <time>2021-08-07T10:56:02Z</time>
      </trkpt>
      <trkpt lat="50.72922" lon="2.76827">
        <ele>24.17</ele>
        <time>2021-08-07T10:56:08Z</time>
      </trkpt>
      <trkpt lat="50.72919" lon="2.76845">
        <ele>24.17</ele>
        <time>2021-08-07T10:56:11Z</time>
      </trkpt>
      <trkpt lat="50.72917" lon="2.76851">
        <ele>24.17</ele>
        <time>2021-08-07T10:56:12Z</time>
      </trkpt>
      <trkpt lat="50.72916" lon="2.76856">
        <ele>24.17</ele>
        <time>2021-08-07T10:56:13Z</time>
      </trkpt>
      <trkpt lat="50.72915" lon="2.76862">
        <ele>24.17</ele>
        <time>2021-08-07T10:56:14Z</time>
      </trkpt>
      <trkpt lat="50.72914" lon="2.76869">
        <ele>24.17</ele>
        <time>2021-08-07T10:56:15Z</time>
      </trkpt>
      <trkpt lat="50.72913" lon="2.76875">
        <ele>24.17</ele>
        <time>2021-08-07T10:56:16Z</time>
      </trkpt>
      <trkpt lat="50.72912" lon="2.76882">
        <ele>24.17</ele>
        <time>2021-08-07T10:56:17Z</time>
      </trkpt>
      <trkpt lat="50.72905" lon="2.76914">
        <ele>22.73</ele>
        <time>2021-08-07T10:56:22Z</time>
      </trkpt>
      <trkpt lat="50.72903" lon="2.76932">
        <ele>22.73</ele>
        <time>2021-08-07T10:56:25Z</time>
      </trkpt>
      <trkpt lat="50.729" lon="2.76945">
        <ele>22.73</ele>
        <time>2021-08-07T10:56:27Z</time>
      </trkpt>
      <trkpt lat="50.72898" lon="2.76951">
        <ele>22.73</ele>
        <time>2021-08-07T10:56:28Z</time>
      </trkpt>
      <trkpt lat="50.72896" lon="2.76958">
        <ele>22.73</ele>
        <time>2021-08-07T10:56:29Z</time>
      </trkpt>
      <trkpt lat="50.72895" lon="2.76964">
        <ele>22.73</ele>
        <time>2021-08-07T10:56:30Z</time>
      </trkpt>
      <trkpt lat="50.72894" lon="2.7697">
        <ele>22.73</ele>
        <time>2021-08-07T10:56:31Z</time>
      </trkpt>
      <trkpt lat="50.72883" lon="2.77039">
        <ele>22.73</ele>
        <time>2021-08-07T10:56:41Z</time>
      </trkpt>
      <trkpt lat="50.72877" lon="2.77069">
        <ele>24.17</ele>
        <time>2021-08-07T10:56:45Z</time>
      </trkpt>
      <trkpt lat="50.72863" lon="2.77147">
        <ele>24.17</ele>
        <time>2021-08-07T10:56:56Z</time>
      </trkpt>
      <trkpt lat="50.72858" lon="2.77165">
        <ele>24.17</ele>
        <time>2021-08-07T10:56:59Z</time>
      </trkpt>
      <trkpt lat="50.72855" lon="2.77171">
        <ele>24.17</ele>
        <time>2021-08-07T10:57:00Z</time>
      </trkpt>
      <trkpt lat="50.72851" lon="2.77175">
        <ele>24.17</ele>
        <time>2021-08-07T10:57:01Z</time>
      </trkpt>
      <trkpt lat="50.72848" lon="2.77179">
        <ele>24.17</ele>
        <time>2021-08-07T10:57:02Z</time>
      </trkpt>
      <trkpt lat="50.72845" lon="2.77181">
        <ele>24.17</ele>
        <time>2021-08-07T10:57:03Z</time>
      </trkpt>
      <trkpt lat="50.72843" lon="2.77183">
        <ele>24.17</ele>
        <time>2021-08-07T10:57:04Z</time>
      </trkpt>
      <trkpt lat="50.72841" lon="2.77184">
        <ele>25.13</ele>
        <time>2021-08-07T10:57:05Z</time>
      </trkpt>
      <trkpt lat="50.7284" lon="2.77185">
        <ele>25.13</ele>
        <time>2021-08-07T10:57:06Z</time>
      </trkpt>
      <trkpt lat="50.72839" lon="2.77185">
        <ele>25.13</ele>
        <time>2021-08-07T10:57:07Z</time>
      </trkpt>
      <trkpt lat="50.72838" lon="2.77187">
        <ele>25.13</ele>
        <time>2021-08-07T10:57:08Z</time>
      </trkpt>
      <trkpt lat="50.7284" lon="2.77189">
        <ele>25.13</ele>
        <time>2021-08-07T10:57:09Z</time>
      </trkpt>
      <trkpt lat="50.72841" lon="2.77189">
        <ele>25.13</ele>
        <time>2021-08-07T10:57:10Z</time>
      </trkpt>
      <trkpt lat="50.72843" lon="2.77186">
        <ele>25.13</ele>
        <time>2021-08-07T10:57:11Z</time>
      </trkpt>
      <trkpt lat="50.72845" lon="2.77181">
        <ele>25.13</ele>
        <time>2021-08-07T10:57:12Z</time>
      </trkpt>
      <trkpt lat="50.72846" lon="2.77178">
        <ele>25.13</ele>
        <time>2021-08-07T10:57:13Z</time>
      </trkpt>
      <trkpt lat="50.72847" lon="2.77173">
        <ele>25.13</ele>
        <time>2021-08-07T10:57:14Z</time>
      </trkpt>
      <trkpt lat="50.72848" lon="2.77168">
        <ele>25.13</ele>
        <time>2021-08-07T10:57:15Z</time>
      </trkpt>
      <trkpt lat="50.72849" lon="2.77163">
        <ele>25.13</ele>
        <time>2021-08-07T10:57:16Z</time>
      </trkpt>
      <trkpt lat="50.72852" lon="2.77142">
        <ele>25.13</ele>
        <time>2021-08-07T10:57:23Z</time>
      </trkpt>
      <trkpt lat="50.72851" lon="2.77139">
        <ele>25.13</ele>
        <time>2021-08-07T10:57:26Z</time>
      </trkpt>
      <trkpt lat="50.72847" lon="2.77138">
        <ele>25.13</ele>
        <time>2021-08-07T10:57:29Z</time>
      </trkpt>
      <trkpt lat="50.7285" lon="2.77143">
        <ele>25.13</ele>
        <time>2021-08-07T10:57:34Z</time>
      </trkpt>
      <trkpt lat="50.72852" lon="2.77141">
        <ele>25.13</ele>
        <time>2021-08-07T10:57:35Z</time>
      </trkpt>
      <trkpt lat="50.72857" lon="2.7714">
        <ele>25.13</ele>
        <time>2021-08-07T10:57:41Z</time>
      </trkpt>
      <trkpt lat="50.72858" lon="2.77142">
        <ele>24.17</ele>
        <time>2021-08-07T10:57:46Z</time>
      </trkpt>
      <trkpt lat="50.72859" lon="2.77144">
        <ele>24.17</ele>
        <time>2021-08-07T10:57:55Z</time>
      </trkpt>
      <trkpt lat="50.72859" lon="2.77143">
        <ele>24.17</ele>
        <time>2021-08-07T10:58:05Z</time>
      </trkpt>
      <trkpt lat="50.7286" lon="2.7714">
        <ele>24.17</ele>
        <time>2021-08-07T10:58:20Z</time>
      </trkpt>
      <trkpt lat="50.72859" lon="2.7714">
        <ele>24.17</ele>
        <time>2021-08-07T10:58:35Z</time>
      </trkpt>
      <trkpt lat="50.72859" lon="2.77142">
        <ele>24.17</ele>
        <time>2021-08-07T10:58:47Z</time>
      </trkpt>
      <trkpt lat="50.72854" lon="2.77146">
        <ele>23.69</ele>
        <time>2021-08-07T10:58:55Z</time>
      </trkpt>
      <trkpt lat="50.72853" lon="2.77147">
        <ele>24.17</ele>
        <time>2021-08-07T10:58:59Z</time>
      </trkpt>
      <trkpt lat="50.72849" lon="2.77157">
        <ele>23.69</ele>
        <time>2021-08-07T10:59:04Z</time>
      </trkpt>
      <trkpt lat="50.72849" lon="2.77161">
        <ele>23.69</ele>
        <time>2021-08-07T10:59:05Z</time>
      </trkpt>
      <trkpt lat="50.72848" lon="2.77166">
        <ele>24.17</ele>
        <time>2021-08-07T10:59:06Z</time>
      </trkpt>
      <trkpt lat="50.72848" lon="2.77172">
        <ele>23.69</ele>
        <time>2021-08-07T10:59:07Z</time>
      </trkpt>
      <trkpt lat="50.72846" lon="2.77177">
        <ele>23.69</ele>
        <time>2021-08-07T10:59:08Z</time>
      </trkpt>
      <trkpt lat="50.72844" lon="2.77182">
        <ele>23.69</ele>
        <time>2021-08-07T10:59:09Z</time>
      </trkpt>
      <trkpt lat="50.72842" lon="2.77184">
        <ele>23.69</ele>
        <time>2021-08-07T10:59:10Z</time>
      </trkpt>
      <trkpt lat="50.7284" lon="2.77186">
        <ele>25.13</ele>
        <time>2021-08-07T10:59:11Z</time>
      </trkpt>
      <trkpt lat="50.72839" lon="2.77186">
        <ele>25.13</ele>
        <time>2021-08-07T10:59:12Z</time>
      </trkpt>
      <trkpt lat="50.72835" lon="2.77189">
        <ele>25.61</ele>
        <time>2021-08-07T10:59:16Z</time>
      </trkpt>
      <trkpt lat="50.72833" lon="2.77192">
        <ele>25.61</ele>
        <time>2021-08-07T10:59:17Z</time>
      </trkpt>
      <trkpt lat="50.72831" lon="2.77198">
        <ele>25.61</ele>
        <time>2021-08-07T10:59:18Z</time>
      </trkpt>
      <trkpt lat="50.72831" lon="2.77204">
        <ele>25.61</ele>
        <time>2021-08-07T10:59:19Z</time>
      </trkpt>
      <trkpt lat="50.7283" lon="2.7721">
        <ele>25.61</ele>
        <time>2021-08-07T10:59:20Z</time>
      </trkpt>
      <trkpt lat="50.72831" lon="2.77217">
        <ele>25.61</ele>
        <time>2021-08-07T10:59:21Z</time>
      </trkpt>
      <trkpt lat="50.72831" lon="2.7724">
        <ele>25.61</ele>
        <time>2021-08-07T10:59:24Z</time>
      </trkpt>
      <trkpt lat="50.7283" lon="2.77256">
        <ele>24.17</ele>
        <time>2021-08-07T10:59:26Z</time>
      </trkpt>
      <trkpt lat="50.72826" lon="2.77273">
        <ele>24.17</ele>
        <time>2021-08-07T10:59:29Z</time>
      </trkpt>
      <trkpt lat="50.72823" lon="2.77272">
        <ele>23.69</ele>
        <time>2021-08-07T10:59:30Z</time>
      </trkpt>
      <trkpt lat="50.72819" lon="2.77269">
        <ele>23.69</ele>
        <time>2021-08-07T10:59:31Z</time>
      </trkpt>
      <trkpt lat="50.72789" lon="2.77237">
        <ele>22.73</ele>
        <time>2021-08-07T10:59:39Z</time>
      </trkpt>
      <trkpt lat="50.72781" lon="2.77228">
        <ele>24.17</ele>
        <time>2021-08-07T10:59:41Z</time>
      </trkpt>
      <trkpt lat="50.7276" lon="2.77205">
        <ele>24.17</ele>
        <time>2021-08-07T10:59:46Z</time>
      </trkpt>
      <trkpt lat="50.72725" lon="2.77169">
        <ele>24.17</ele>
        <time>2021-08-07T10:59:54Z</time>
      </trkpt>
      <trkpt lat="50.72686" lon="2.77129">
        <ele>24.17</ele>
        <time>2021-08-07T11:00:03Z</time>
      </trkpt>
      <trkpt lat="50.72653" lon="2.77074">
        <ele>24.17</ele>
        <time>2021-08-07T11:00:12Z</time>
      </trkpt>
      <trkpt lat="50.72634" lon="2.77048">
        <ele>22.73</ele>
        <time>2021-08-07T11:00:17Z</time>
      </trkpt>
      <trkpt lat="50.72629" lon="2.77047">
        <ele>22.73</ele>
        <time>2021-08-07T11:00:18Z</time>
      </trkpt>
      <trkpt lat="50.72625" lon="2.77049">
        <ele>22.73</ele>
        <time>2021-08-07T11:00:19Z</time>
      </trkpt>
      <trkpt lat="50.72621" lon="2.77053">
        <ele>22.73</ele>
        <time>2021-08-07T11:00:20Z</time>
      </trkpt>
      <trkpt lat="50.72617" lon="2.77059">
        <ele>22.25</ele>
        <time>2021-08-07T11:00:21Z</time>
      </trkpt>
      <trkpt lat="50.72613" lon="2.77064">
        <ele>22.25</ele>
        <time>2021-08-07T11:00:22Z</time>
      </trkpt>
      <trkpt lat="50.72606" lon="2.77076">
        <ele>24.17</ele>
        <time>2021-08-07T11:00:24Z</time>
      </trkpt>
      <trkpt lat="50.7257" lon="2.77125">
        <ele>22.25</ele>
        <time>2021-08-07T11:00:33Z</time>
      </trkpt>
      <trkpt lat="50.72529" lon="2.77174">
        <ele>22.25</ele>
        <time>2021-08-07T11:00:43Z</time>
      </trkpt>
      <trkpt lat="50.72494" lon="2.77198">
        <ele>22.25</ele>
        <time>2021-08-07T11:00:51Z</time>
      </trkpt>
      <trkpt lat="50.72485" lon="2.77203">
        <ele>23.21</ele>
        <time>2021-08-07T11:00:53Z</time>
      </trkpt>
      <trkpt lat="50.72451" lon="2.77221">
        <ele>22.25</ele>
        <time>2021-08-07T11:01:01Z</time>
      </trkpt>
      <trkpt lat="50.72442" lon="2.77226">
        <ele>22.25</ele>
        <time>2021-08-07T11:01:03Z</time>
      </trkpt>
      <trkpt lat="50.72392" lon="2.77261">
        <ele>21.77</ele>
        <time>2021-08-07T11:01:14Z</time>
      </trkpt>
      <trkpt lat="50.72341" lon="2.77298">
        <ele>21.77</ele>
        <time>2021-08-07T11:01:25Z</time>
      </trkpt>
      <trkpt lat="50.72303" lon="2.77325">
        <ele>22.73</ele>
        <time>2021-08-07T11:01:33Z</time>
      </trkpt>
      <trkpt lat="50.72299" lon="2.77329">
        <ele>22.73</ele>
        <time>2021-08-07T11:01:34Z</time>
      </trkpt>
      <trkpt lat="50.7225" lon="2.77363">
        <ele>22.73</ele>
        <time>2021-08-07T11:01:44Z</time>
      </trkpt>
      <trkpt lat="50.72203" lon="2.77397">
        <ele>22.73</ele>
        <time>2021-08-07T11:01:54Z</time>
      </trkpt>
      <trkpt lat="50.72151" lon="2.77433">
        <ele>22.73</ele>
        <time>2021-08-07T11:02:05Z</time>
      </trkpt>
      <trkpt lat="50.72142" lon="2.77439">
        <ele>22.73</ele>
        <time>2021-08-07T11:02:07Z</time>
      </trkpt>
      <trkpt lat="50.72137" lon="2.7744">
        <ele>22.73</ele>
        <time>2021-08-07T11:02:08Z</time>
      </trkpt>
      <trkpt lat="50.72132" lon="2.7744">
        <ele>22.73</ele>
        <time>2021-08-07T11:02:09Z</time>
      </trkpt>
      <trkpt lat="50.72127" lon="2.7744">
        <ele>22.73</ele>
        <time>2021-08-07T11:02:10Z</time>
      </trkpt>
      <trkpt lat="50.72122" lon="2.77439">
        <ele>22.73</ele>
        <time>2021-08-07T11:02:11Z</time>
      </trkpt>
      <trkpt lat="50.72081" lon="2.77431">
        <ele>22.73</ele>
        <time>2021-08-07T11:02:19Z</time>
      </trkpt>
      <trkpt lat="50.72046" lon="2.77425">
        <ele>22.73</ele>
        <time>2021-08-07T11:02:26Z</time>
      </trkpt>
      <trkpt lat="50.72029" lon="2.77422">
        <ele>23.21</ele>
        <time>2021-08-07T11:02:30Z</time>
      </trkpt>
      <trkpt lat="50.72025" lon="2.77423">
        <ele>23.21</ele>
        <time>2021-08-07T11:02:31Z</time>
      </trkpt>
      <trkpt lat="50.72022" lon="2.77426">
        <ele>23.21</ele>
        <time>2021-08-07T11:02:32Z</time>
      </trkpt>
      <trkpt lat="50.7202" lon="2.7743">
        <ele>23.21</ele>
        <time>2021-08-07T11:02:33Z</time>
      </trkpt>
      <trkpt lat="50.72019" lon="2.77436">
        <ele>23.21</ele>
        <time>2021-08-07T11:02:34Z</time>
      </trkpt>
      <trkpt lat="50.72018" lon="2.77442">
        <ele>23.21</ele>
        <time>2021-08-07T11:02:35Z</time>
      </trkpt>
      <trkpt lat="50.72018" lon="2.77449">
        <ele>23.21</ele>
        <time>2021-08-07T11:02:36Z</time>
      </trkpt>
      <trkpt lat="50.72015" lon="2.77505">
        <ele>23.21</ele>
        <time>2021-08-07T11:02:44Z</time>
      </trkpt>
      <trkpt lat="50.72012" lon="2.77565">
        <ele>23.69</ele>
        <time>2021-08-07T11:02:52Z</time>
      </trkpt>
      <trkpt lat="50.72012" lon="2.77572">
        <ele>23.69</ele>
        <time>2021-08-07T11:02:53Z</time>
      </trkpt>
      <trkpt lat="50.72009" lon="2.77604">
        <ele>23.69</ele>
        <time>2021-08-07T11:02:57Z</time>
      </trkpt>
      <trkpt lat="50.72008" lon="2.7761">
        <ele>23.69</ele>
        <time>2021-08-07T11:02:58Z</time>
      </trkpt>
      <trkpt lat="50.72006" lon="2.77616">
        <ele>22.25</ele>
        <time>2021-08-07T11:02:59Z</time>
      </trkpt>
      <trkpt lat="50.72002" lon="2.77621">
        <ele>22.25</ele>
        <time>2021-08-07T11:03:00Z</time>
      </trkpt>
      <trkpt lat="50.71997" lon="2.77624">
        <ele>21.77</ele>
        <time>2021-08-07T11:03:01Z</time>
      </trkpt>
      <trkpt lat="50.71992" lon="2.77627">
        <ele>21.77</ele>
        <time>2021-08-07T11:03:02Z</time>
      </trkpt>
      <trkpt lat="50.71987" lon="2.77628">
        <ele>21.77</ele>
        <time>2021-08-07T11:03:03Z</time>
      </trkpt>
      <trkpt lat="50.71982" lon="2.77629">
        <ele>21.77</ele>
        <time>2021-08-07T11:03:04Z</time>
      </trkpt>
      <trkpt lat="50.71977" lon="2.77632">
        <ele>21.77</ele>
        <time>2021-08-07T11:03:05Z</time>
      </trkpt>
      <trkpt lat="50.71972" lon="2.77635">
        <ele>21.77</ele>
        <time>2021-08-07T11:03:06Z</time>
      </trkpt>
      <trkpt lat="50.71968" lon="2.7764">
        <ele>21.77</ele>
        <time>2021-08-07T11:03:07Z</time>
      </trkpt>
      <trkpt lat="50.71964" lon="2.77646">
        <ele>23.21</ele>
        <time>2021-08-07T11:03:08Z</time>
      </trkpt>
      <trkpt lat="50.71962" lon="2.77654">
        <ele>23.21</ele>
        <time>2021-08-07T11:03:09Z</time>
      </trkpt>
      <trkpt lat="50.7196" lon="2.77661">
        <ele>23.21</ele>
        <time>2021-08-07T11:03:10Z</time>
      </trkpt>
      <trkpt lat="50.71959" lon="2.7767">
        <ele>23.69</ele>
        <time>2021-08-07T11:03:11Z</time>
      </trkpt>
      <trkpt lat="50.71958" lon="2.77678">
        <ele>23.69</ele>
        <time>2021-08-07T11:03:12Z</time>
      </trkpt>
      <trkpt lat="50.71952" lon="2.77746">
        <ele>23.69</ele>
        <time>2021-08-07T11:03:20Z</time>
      </trkpt>
      <trkpt lat="50.71948" lon="2.77797">
        <ele>23.69</ele>
        <time>2021-08-07T11:03:26Z</time>
      </trkpt>
      <trkpt lat="50.71947" lon="2.77868">
        <ele>22.25</ele>
        <time>2021-08-07T11:03:34Z</time>
      </trkpt>
      <trkpt lat="50.71946" lon="2.7793">
        <ele>23.21</ele>
        <time>2021-08-07T11:03:41Z</time>
      </trkpt>
      <trkpt lat="50.7194" lon="2.78025">
        <ele>23.21</ele>
        <time>2021-08-07T11:03:52Z</time>
      </trkpt>
      <trkpt lat="50.71937" lon="2.78051">
        <ele>23.21</ele>
        <time>2021-08-07T11:03:55Z</time>
      </trkpt>
      <trkpt lat="50.71933" lon="2.78128">
        <ele>23.69</ele>
        <time>2021-08-07T11:04:04Z</time>
      </trkpt>
      <trkpt lat="50.71933" lon="2.78238">
        <ele>23.69</ele>
        <time>2021-08-07T11:04:16Z</time>
      </trkpt>
      <trkpt lat="50.71935" lon="2.78306">
        <ele>23.69</ele>
        <time>2021-08-07T11:04:24Z</time>
      </trkpt>
      <trkpt lat="50.71934" lon="2.78321">
        <ele>23.69</ele>
        <time>2021-08-07T11:04:26Z</time>
      </trkpt>
      <trkpt lat="50.71931" lon="2.78329">
        <ele>23.69</ele>
        <time>2021-08-07T11:04:27Z</time>
      </trkpt>
      <trkpt lat="50.71928" lon="2.78334">
        <ele>23.69</ele>
        <time>2021-08-07T11:04:28Z</time>
      </trkpt>
      <trkpt lat="50.71923" lon="2.78338">
        <ele>23.69</ele>
        <time>2021-08-07T11:04:29Z</time>
      </trkpt>
      <trkpt lat="50.71918" lon="2.78339">
        <ele>23.69</ele>
        <time>2021-08-07T11:04:30Z</time>
      </trkpt>
      <trkpt lat="50.71913" lon="2.7834">
        <ele>22.73</ele>
        <time>2021-08-07T11:04:31Z</time>
      </trkpt>
      <trkpt lat="50.71908" lon="2.78341">
        <ele>22.73</ele>
        <time>2021-08-07T11:04:32Z</time>
      </trkpt>
      <trkpt lat="50.71857" lon="2.78346">
        <ele>22.73</ele>
        <time>2021-08-07T11:04:41Z</time>
      </trkpt>
      <trkpt lat="50.71851" lon="2.7835">
        <ele>22.73</ele>
        <time>2021-08-07T11:04:42Z</time>
      </trkpt>
      <trkpt lat="50.71847" lon="2.78354">
        <ele>22.73</ele>
        <time>2021-08-07T11:04:43Z</time>
      </trkpt>
      <trkpt lat="50.71843" lon="2.7836">
        <ele>22.73</ele>
        <time>2021-08-07T11:04:44Z</time>
      </trkpt>
      <trkpt lat="50.71839" lon="2.78366">
        <ele>22.73</ele>
        <time>2021-08-07T11:04:45Z</time>
      </trkpt>
      <trkpt lat="50.71827" lon="2.78384">
        <ele>22.73</ele>
        <time>2021-08-07T11:04:48Z</time>
      </trkpt>
      <trkpt lat="50.71821" lon="2.78389">
        <ele>22.73</ele>
        <time>2021-08-07T11:04:49Z</time>
      </trkpt>
      <trkpt lat="50.71816" lon="2.78392">
        <ele>22.73</ele>
        <time>2021-08-07T11:04:50Z</time>
      </trkpt>
      <trkpt lat="50.71812" lon="2.78395">
        <ele>22.25</ele>
        <time>2021-08-07T11:04:51Z</time>
      </trkpt>
      <trkpt lat="50.71806" lon="2.78398">
        <ele>22.25</ele>
        <time>2021-08-07T11:04:52Z</time>
      </trkpt>
      <trkpt lat="50.71758" lon="2.78417">
        <ele>22.25</ele>
        <time>2021-08-07T11:05:01Z</time>
      </trkpt>
      <trkpt lat="50.71705" lon="2.7844">
        <ele>22.25</ele>
        <time>2021-08-07T11:05:11Z</time>
      </trkpt>
      <trkpt lat="50.71644" lon="2.78463">
        <ele>21.77</ele>
        <time>2021-08-07T11:05:22Z</time>
      </trkpt>
      <trkpt lat="50.7159" lon="2.78487">
        <ele>21.29</ele>
        <time>2021-08-07T11:05:32Z</time>
      </trkpt>
      <trkpt lat="50.71559" lon="2.78518">
        <ele>21.29</ele>
        <time>2021-08-07T11:05:39Z</time>
      </trkpt>
      <trkpt lat="50.71549" lon="2.78527">
        <ele>20.81</ele>
        <time>2021-08-07T11:05:41Z</time>
      </trkpt>
      <trkpt lat="50.71544" lon="2.7853">
        <ele>21.29</ele>
        <time>2021-08-07T11:05:42Z</time>
      </trkpt>
      <trkpt lat="50.71515" lon="2.78545">
        <ele>21.29</ele>
        <time>2021-08-07T11:05:48Z</time>
      </trkpt>
      <trkpt lat="50.7147" lon="2.78567">
        <ele>21.29</ele>
        <time>2021-08-07T11:05:57Z</time>
      </trkpt>
      <trkpt lat="50.71455" lon="2.78575">
        <ele>21.29</ele>
        <time>2021-08-07T11:06:00Z</time>
      </trkpt>
      <trkpt lat="50.71451" lon="2.78579">
        <ele>21.29</ele>
        <time>2021-08-07T11:06:01Z</time>
      </trkpt>
      <trkpt lat="50.71444" lon="2.78589">
        <ele>21.29</ele>
        <time>2021-08-07T11:06:03Z</time>
      </trkpt>
      <trkpt lat="50.71428" lon="2.78613">
        <ele>21.29</ele>
        <time>2021-08-07T11:06:07Z</time>
      </trkpt>
      <trkpt lat="50.71425" lon="2.78616">
        <ele>21.29</ele>
        <time>2021-08-07T11:06:08Z</time>
      </trkpt>
      <trkpt lat="50.7142" lon="2.78619">
        <ele>21.29</ele>
        <time>2021-08-07T11:06:09Z</time>
      </trkpt>
      <trkpt lat="50.71377" lon="2.78635">
        <ele>21.29</ele>
        <time>2021-08-07T11:06:17Z</time>
      </trkpt>
      <trkpt lat="50.71353" lon="2.78644">
        <ele>21.29</ele>
        <time>2021-08-07T11:06:22Z</time>
      </trkpt>
      <trkpt lat="50.71349" lon="2.78647">
        <ele>21.29</ele>
        <time>2021-08-07T11:06:23Z</time>
      </trkpt>
      <trkpt lat="50.71345" lon="2.78651">
        <ele>21.29</ele>
        <time>2021-08-07T11:06:24Z</time>
      </trkpt>
      <trkpt lat="50.71334" lon="2.78666">
        <ele>21.29</ele>
        <time>2021-08-07T11:06:27Z</time>
      </trkpt>
      <trkpt lat="50.71308" lon="2.78718">
        <ele>22.73</ele>
        <time>2021-08-07T11:06:37Z</time>
      </trkpt>
      <trkpt lat="50.71293" lon="2.78748">
        <ele>22.73</ele>
        <time>2021-08-07T11:06:45Z</time>
      </trkpt>
      <trkpt lat="50.7129" lon="2.78753">
        <ele>23.21</ele>
        <time>2021-08-07T11:06:48Z</time>
      </trkpt>
      <trkpt lat="50.71289" lon="2.78757">
        <ele>23.21</ele>
        <time>2021-08-07T11:06:49Z</time>
      </trkpt>
      <trkpt lat="50.7129" lon="2.78762">
        <ele>23.21</ele>
        <time>2021-08-07T11:06:50Z</time>
      </trkpt>
      <trkpt lat="50.71291" lon="2.78768">
        <ele>23.21</ele>
        <time>2021-08-07T11:06:51Z</time>
      </trkpt>
      <trkpt lat="50.71293" lon="2.78773">
        <ele>23.21</ele>
        <time>2021-08-07T11:06:52Z</time>
      </trkpt>
      <trkpt lat="50.71294" lon="2.78779">
        <ele>23.21</ele>
        <time>2021-08-07T11:06:53Z</time>
      </trkpt>
      <trkpt lat="50.71295" lon="2.78786">
        <ele>23.21</ele>
        <time>2021-08-07T11:06:54Z</time>
      </trkpt>
      <trkpt lat="50.71294" lon="2.78792">
        <ele>23.21</ele>
        <time>2021-08-07T11:06:55Z</time>
      </trkpt>
      <trkpt lat="50.71293" lon="2.78798">
        <ele>22.25</ele>
        <time>2021-08-07T11:06:56Z</time>
      </trkpt>
      <trkpt lat="50.7129" lon="2.78802">
        <ele>22.25</ele>
        <time>2021-08-07T11:06:57Z</time>
      </trkpt>
      <trkpt lat="50.71287" lon="2.78803">
        <ele>22.25</ele>
        <time>2021-08-07T11:06:58Z</time>
      </trkpt>
      <trkpt lat="50.71284" lon="2.78804">
        <ele>21.77</ele>
        <time>2021-08-07T11:06:59Z</time>
      </trkpt>
      <trkpt lat="50.71281" lon="2.78804">
        <ele>22.25</ele>
        <time>2021-08-07T11:07:00Z</time>
      </trkpt>
      <trkpt lat="50.71278" lon="2.78805">
        <ele>21.77</ele>
        <time>2021-08-07T11:07:01Z</time>
      </trkpt>
      <trkpt lat="50.71275" lon="2.78806">
        <ele>21.77</ele>
        <time>2021-08-07T11:07:02Z</time>
      </trkpt>
      <trkpt lat="50.7127" lon="2.78809">
        <ele>21.29</ele>
        <time>2021-08-07T11:07:04Z</time>
      </trkpt>
      <trkpt lat="50.71268" lon="2.78811">
        <ele>21.29</ele>
        <time>2021-08-07T11:07:05Z</time>
      </trkpt>
      <trkpt lat="50.71266" lon="2.78815">
        <ele>21.29</ele>
        <time>2021-08-07T11:07:06Z</time>
      </trkpt>
      <trkpt lat="50.71265" lon="2.7882">
        <ele>21.29</ele>
        <time>2021-08-07T11:07:07Z</time>
      </trkpt>
      <trkpt lat="50.71263" lon="2.78824">
        <ele>21.29</ele>
        <time>2021-08-07T11:07:08Z</time>
      </trkpt>
      <trkpt lat="50.71261" lon="2.7883">
        <ele>21.29</ele>
        <time>2021-08-07T11:07:09Z</time>
      </trkpt>
      <trkpt lat="50.71255" lon="2.78846">
        <ele>21.29</ele>
        <time>2021-08-07T11:07:14Z</time>
      </trkpt>
      <trkpt lat="50.7125" lon="2.78862">
        <ele>20.81</ele>
        <time>2021-08-07T11:07:19Z</time>
      </trkpt>
      <trkpt lat="50.71239" lon="2.78888">
        <ele>20.32</ele>
        <time>2021-08-07T11:07:25Z</time>
      </trkpt>
      <trkpt lat="50.71226" lon="2.7892">
        <ele>20.32</ele>
        <time>2021-08-07T11:07:32Z</time>
      </trkpt>
      <trkpt lat="50.71212" lon="2.78957">
        <ele>20.32</ele>
        <time>2021-08-07T11:07:41Z</time>
      </trkpt>
      <trkpt lat="50.71204" lon="2.78984">
        <ele>20.32</ele>
        <time>2021-08-07T11:07:47Z</time>
      </trkpt>
      <trkpt lat="50.7119" lon="2.79013">
        <ele>20.32</ele>
        <time>2021-08-07T11:07:54Z</time>
      </trkpt>
      <trkpt lat="50.71178" lon="2.79041">
        <ele>20.32</ele>
        <time>2021-08-07T11:08:00Z</time>
      </trkpt>
      <trkpt lat="50.71163" lon="2.79081">
        <ele>20.32</ele>
        <time>2021-08-07T11:08:07Z</time>
      </trkpt>
      <trkpt lat="50.71148" lon="2.79122">
        <ele>20.32</ele>
        <time>2021-08-07T11:08:15Z</time>
      </trkpt>
      <trkpt lat="50.7113" lon="2.79165">
        <ele>20.32</ele>
        <time>2021-08-07T11:08:24Z</time>
      </trkpt>
      <trkpt lat="50.71117" lon="2.79204">
        <ele>20.32</ele>
        <time>2021-08-07T11:08:32Z</time>
      </trkpt>
      <trkpt lat="50.71098" lon="2.79251">
        <ele>20.32</ele>
        <time>2021-08-07T11:08:42Z</time>
      </trkpt>
      <trkpt lat="50.71081" lon="2.79295">
        <ele>20.32</ele>
        <time>2021-08-07T11:08:52Z</time>
      </trkpt>
      <trkpt lat="50.71066" lon="2.7933">
        <ele>20.32</ele>
        <time>2021-08-07T11:09:00Z</time>
      </trkpt>
      <trkpt lat="50.71054" lon="2.79362">
        <ele>21.29</ele>
        <time>2021-08-07T11:09:08Z</time>
      </trkpt>
      <trkpt lat="50.71037" lon="2.79406">
        <ele>21.29</ele>
        <time>2021-08-07T11:09:18Z</time>
      </trkpt>
      <trkpt lat="50.71021" lon="2.79444">
        <ele>21.29</ele>
        <time>2021-08-07T11:09:26Z</time>
      </trkpt>
      <trkpt lat="50.71004" lon="2.79489">
        <ele>21.77</ele>
        <time>2021-08-07T11:09:35Z</time>
      </trkpt>
      <trkpt lat="50.70984" lon="2.79541">
        <ele>21.77</ele>
        <time>2021-08-07T11:09:45Z</time>
      </trkpt>
      <trkpt lat="50.70962" lon="2.79595">
        <ele>21.77</ele>
        <time>2021-08-07T11:09:55Z</time>
      </trkpt>
      <trkpt lat="50.70937" lon="2.79659">
        <ele>22.25</ele>
        <time>2021-08-07T11:10:06Z</time>
      </trkpt>
      <trkpt lat="50.70909" lon="2.79734">
        <ele>22.25</ele>
        <time>2021-08-07T11:10:18Z</time>
      </trkpt>
      <trkpt lat="50.70883" lon="2.798">
        <ele>22.25</ele>
        <time>2021-08-07T11:10:28Z</time>
      </trkpt>
      <trkpt lat="50.70852" lon="2.79878">
        <ele>22.25</ele>
        <time>2021-08-07T11:10:40Z</time>
      </trkpt>
      <trkpt lat="50.70825" lon="2.79944">
        <ele>20.81</ele>
        <time>2021-08-07T11:10:50Z</time>
      </trkpt>
      <trkpt lat="50.7082" lon="2.79957">
        <ele>20.81</ele>
        <time>2021-08-07T11:10:52Z</time>
      </trkpt>
      <trkpt lat="50.7081" lon="2.79984">
        <ele>19.84</ele>
        <time>2021-08-07T11:10:56Z</time>
      </trkpt>
      <trkpt lat="50.70808" lon="2.79991">
        <ele>19.84</ele>
        <time>2021-08-07T11:10:57Z</time>
      </trkpt>
      <trkpt lat="50.70805" lon="2.79998">
        <ele>19.84</ele>
        <time>2021-08-07T11:10:58Z</time>
      </trkpt>
      <trkpt lat="50.70791" lon="2.80031">
        <ele>21.29</ele>
        <time>2021-08-07T11:11:03Z</time>
      </trkpt>
      <trkpt lat="50.70757" lon="2.8012">
        <ele>21.29</ele>
        <time>2021-08-07T11:11:16Z</time>
      </trkpt>
      <trkpt lat="50.70729" lon="2.80191">
        <ele>21.29</ele>
        <time>2021-08-07T11:11:26Z</time>
      </trkpt>
      <trkpt lat="50.70692" lon="2.80288">
        <ele>21.77</ele>
        <time>2021-08-07T11:11:39Z</time>
      </trkpt>
      <trkpt lat="50.70661" lon="2.80371">
        <ele>21.77</ele>
        <time>2021-08-07T11:11:50Z</time>
      </trkpt>
      <trkpt lat="50.70633" lon="2.80443">
        <ele>21.77</ele>
        <time>2021-08-07T11:12:00Z</time>
      </trkpt>
      <trkpt lat="50.70608" lon="2.80507">
        <ele>21.77</ele>
        <time>2021-08-07T11:12:09Z</time>
      </trkpt>
      <trkpt lat="50.70592" lon="2.80548">
        <ele>21.77</ele>
        <time>2021-08-07T11:12:16Z</time>
      </trkpt>
      <trkpt lat="50.70589" lon="2.80549">
        <ele>21.77</ele>
        <time>2021-08-07T11:12:17Z</time>
      </trkpt>
      <trkpt lat="50.70586" lon="2.80547">
        <ele>22.73</ele>
        <time>2021-08-07T11:12:18Z</time>
      </trkpt>
      <trkpt lat="50.70584" lon="2.80545">
        <ele>22.73</ele>
        <time>2021-08-07T11:12:19Z</time>
      </trkpt>
      <trkpt lat="50.70582" lon="2.80543">
        <ele>22.73</ele>
        <time>2021-08-07T11:12:20Z</time>
      </trkpt>
      <trkpt lat="50.7058" lon="2.8054">
        <ele>23.21</ele>
        <time>2021-08-07T11:12:21Z</time>
      </trkpt>
      <trkpt lat="50.70578" lon="2.80537">
        <ele>23.21</ele>
        <time>2021-08-07T11:12:22Z</time>
      </trkpt>
      <trkpt lat="50.70568" lon="2.80527">
        <ele>23.21</ele>
        <time>2021-08-07T11:12:25Z</time>
      </trkpt>
      <trkpt lat="50.70553" lon="2.80511">
        <ele>21.77</ele>
        <time>2021-08-07T11:12:29Z</time>
      </trkpt>
      <trkpt lat="50.70549" lon="2.80507">
        <ele>21.77</ele>
        <time>2021-08-07T11:12:30Z</time>
      </trkpt>
      <trkpt lat="50.70537" lon="2.80494">
        <ele>21.77</ele>
        <time>2021-08-07T11:12:33Z</time>
      </trkpt>
      <trkpt lat="50.70533" lon="2.80492">
        <ele>21.77</ele>
        <time>2021-08-07T11:12:34Z</time>
      </trkpt>
      <trkpt lat="50.70529" lon="2.80493">
        <ele>21.29</ele>
        <time>2021-08-07T11:12:35Z</time>
      </trkpt>
      <trkpt lat="50.70525" lon="2.80498">
        <ele>21.29</ele>
        <time>2021-08-07T11:12:36Z</time>
      </trkpt>
      <trkpt lat="50.70523" lon="2.80505">
        <ele>21.29</ele>
        <time>2021-08-07T11:12:37Z</time>
      </trkpt>
      <trkpt lat="50.70522" lon="2.80512">
        <ele>20.81</ele>
        <time>2021-08-07T11:12:38Z</time>
      </trkpt>
      <trkpt lat="50.70522" lon="2.80519">
        <ele>20.81</ele>
        <time>2021-08-07T11:12:39Z</time>
      </trkpt>
      <trkpt lat="50.70522" lon="2.80527">
        <ele>20.81</ele>
        <time>2021-08-07T11:12:40Z</time>
      </trkpt>
      <trkpt lat="50.70521" lon="2.80591">
        <ele>20.81</ele>
        <time>2021-08-07T11:12:48Z</time>
      </trkpt>
      <trkpt lat="50.70521" lon="2.80599">
        <ele>20.81</ele>
        <time>2021-08-07T11:12:49Z</time>
      </trkpt>
      <trkpt lat="50.70519" lon="2.80655">
        <ele>20.32</ele>
        <time>2021-08-07T11:12:56Z</time>
      </trkpt>
      <trkpt lat="50.70518" lon="2.80662">
        <ele>20.32</ele>
        <time>2021-08-07T11:12:57Z</time>
      </trkpt>
      <trkpt lat="50.70516" lon="2.8067">
        <ele>20.32</ele>
        <time>2021-08-07T11:12:58Z</time>
      </trkpt>
      <trkpt lat="50.70496" lon="2.80724">
        <ele>20.32</ele>
        <time>2021-08-07T11:13:06Z</time>
      </trkpt>
      <trkpt lat="50.70486" lon="2.80749">
        <ele>20.32</ele>
        <time>2021-08-07T11:13:10Z</time>
      </trkpt>
      <trkpt lat="50.70482" lon="2.80755">
        <ele>20.32</ele>
        <time>2021-08-07T11:13:11Z</time>
      </trkpt>
      <trkpt lat="50.70478" lon="2.8076">
        <ele>20.32</ele>
        <time>2021-08-07T11:13:12Z</time>
      </trkpt>
      <trkpt lat="50.70474" lon="2.80765">
        <ele>20.32</ele>
        <time>2021-08-07T11:13:13Z</time>
      </trkpt>
      <trkpt lat="50.7047" lon="2.80769">
        <ele>20.32</ele>
        <time>2021-08-07T11:13:14Z</time>
      </trkpt>
      <trkpt lat="50.70465" lon="2.80773">
        <ele>20.32</ele>
        <time>2021-08-07T11:13:15Z</time>
      </trkpt>
      <trkpt lat="50.7046" lon="2.80776">
        <ele>20.32</ele>
        <time>2021-08-07T11:13:16Z</time>
      </trkpt>
      <trkpt lat="50.70418" lon="2.80801">
        <ele>20.32</ele>
        <time>2021-08-07T11:13:25Z</time>
      </trkpt>
      <trkpt lat="50.70403" lon="2.80804">
        <ele>20.32</ele>
        <time>2021-08-07T11:13:28Z</time>
      </trkpt>
      <trkpt lat="50.70399" lon="2.80807">
        <ele>20.32</ele>
        <time>2021-08-07T11:13:29Z</time>
      </trkpt>
      <trkpt lat="50.7035" lon="2.80841">
        <ele>20.32</ele>
        <time>2021-08-07T11:13:40Z</time>
      </trkpt>
      <trkpt lat="50.70324" lon="2.80863">
        <ele>20.32</ele>
        <time>2021-08-07T11:13:47Z</time>
      </trkpt>
      <trkpt lat="50.70314" lon="2.80867">
        <ele>20.32</ele>
        <time>2021-08-07T11:13:52Z</time>
      </trkpt>
      <trkpt lat="50.70305" lon="2.80869">
        <ele>20.32</ele>
        <time>2021-08-07T11:13:57Z</time>
      </trkpt>
      <trkpt lat="50.70291" lon="2.80879">
        <ele>20.32</ele>
        <time>2021-08-07T11:14:02Z</time>
      </trkpt>
      <trkpt lat="50.70263" lon="2.8089">
        <ele>20.32</ele>
        <time>2021-08-07T11:14:10Z</time>
      </trkpt>
      <trkpt lat="50.70224" lon="2.80896">
        <ele>19.84</ele>
        <time>2021-08-07T11:14:20Z</time>
      </trkpt>
      <trkpt lat="50.70194" lon="2.80907">
        <ele>19.84</ele>
        <time>2021-08-07T11:14:28Z</time>
      </trkpt>
      <trkpt lat="50.70172" lon="2.80914">
        <ele>19.84</ele>
        <time>2021-08-07T11:14:34Z</time>
      </trkpt>
      <trkpt lat="50.70168" lon="2.80913">
        <ele>19.84</ele>
        <time>2021-08-07T11:14:35Z</time>
      </trkpt>
      <trkpt lat="50.70164" lon="2.80915">
        <ele>19.84</ele>
        <time>2021-08-07T11:14:36Z</time>
      </trkpt>
      <trkpt lat="50.70139" lon="2.80925">
        <ele>19.84</ele>
        <time>2021-08-07T11:14:43Z</time>
      </trkpt>
      <trkpt lat="50.70104" lon="2.80939">
        <ele>19.84</ele>
        <time>2021-08-07T11:14:52Z</time>
      </trkpt>
      <trkpt lat="50.7007" lon="2.80954">
        <ele>19.84</ele>
        <time>2021-08-07T11:15:01Z</time>
      </trkpt>
      <trkpt lat="50.7003" lon="2.80973">
        <ele>19.84</ele>
        <time>2021-08-07T11:15:12Z</time>
      </trkpt>
      <trkpt lat="50.70001" lon="2.80987">
        <ele>19.84</ele>
        <time>2021-08-07T11:15:20Z</time>
      </trkpt>
      <trkpt lat="50.69972" lon="2.81003">
        <ele>21.29</ele>
        <time>2021-08-07T11:15:28Z</time>
      </trkpt>
      <trkpt lat="50.69953" lon="2.81021">
        <ele>21.29</ele>
        <time>2021-08-07T11:15:35Z</time>
      </trkpt>
      <trkpt lat="50.69952" lon="2.81026">
        <ele>21.29</ele>
        <time>2021-08-07T11:15:37Z</time>
      </trkpt>
      <trkpt lat="50.69953" lon="2.8103">
        <ele>21.29</ele>
        <time>2021-08-07T11:15:38Z</time>
      </trkpt>
      <trkpt lat="50.69955" lon="2.81033">
        <ele>21.29</ele>
        <time>2021-08-07T11:15:39Z</time>
      </trkpt>
      <trkpt lat="50.69958" lon="2.81034">
        <ele>21.29</ele>
        <time>2021-08-07T11:15:40Z</time>
      </trkpt>
      <trkpt lat="50.69961" lon="2.81036">
        <ele>21.29</ele>
        <time>2021-08-07T11:15:41Z</time>
      </trkpt>
      <trkpt lat="50.69965" lon="2.81038">
        <ele>21.29</ele>
        <time>2021-08-07T11:15:42Z</time>
      </trkpt>
      <trkpt lat="50.69968" lon="2.81041">
        <ele>21.29</ele>
        <time>2021-08-07T11:15:43Z</time>
      </trkpt>
      <trkpt lat="50.69972" lon="2.81043">
        <ele>21.29</ele>
        <time>2021-08-07T11:15:44Z</time>
      </trkpt>
      <trkpt lat="50.69976" lon="2.81045">
        <ele>21.29</ele>
        <time>2021-08-07T11:15:45Z</time>
      </trkpt>
      <trkpt lat="50.69993" lon="2.81054">
        <ele>21.29</ele>
        <time>2021-08-07T11:15:49Z</time>
      </trkpt>
      <trkpt lat="50.69998" lon="2.81057">
        <ele>21.29</ele>
        <time>2021-08-07T11:15:50Z</time>
      </trkpt>
      <trkpt lat="50.70021" lon="2.81073">
        <ele>21.29</ele>
        <time>2021-08-07T11:15:55Z</time>
      </trkpt>
      <trkpt lat="50.70025" lon="2.81078">
        <ele>21.29</ele>
        <time>2021-08-07T11:15:56Z</time>
      </trkpt>
      <trkpt lat="50.70034" lon="2.81089">
        <ele>21.29</ele>
        <time>2021-08-07T11:15:58Z</time>
      </trkpt>
      <trkpt lat="50.70037" lon="2.81095">
        <ele>21.29</ele>
        <time>2021-08-07T11:15:59Z</time>
      </trkpt>
      <trkpt lat="50.70041" lon="2.81103">
        <ele>21.29</ele>
        <time>2021-08-07T11:16:00Z</time>
      </trkpt>
      <trkpt lat="50.70058" lon="2.81168">
        <ele>21.29</ele>
        <time>2021-08-07T11:16:08Z</time>
      </trkpt>
      <trkpt lat="50.70074" lon="2.81247">
        <ele>21.29</ele>
        <time>2021-08-07T11:16:17Z</time>
      </trkpt>
      <trkpt lat="50.70083" lon="2.81304">
        <ele>19.84</ele>
        <time>2021-08-07T11:16:23Z</time>
      </trkpt>
      <trkpt lat="50.70091" lon="2.81391">
        <ele>19.84</ele>
        <time>2021-08-07T11:16:32Z</time>
      </trkpt>
      <trkpt lat="50.70104" lon="2.81489">
        <ele>19.84</ele>
        <time>2021-08-07T11:16:42Z</time>
      </trkpt>
      <trkpt lat="50.70118" lon="2.81565">
        <ele>21.29</ele>
        <time>2021-08-07T11:16:50Z</time>
      </trkpt>
      <trkpt lat="50.70132" lon="2.81645">
        <ele>22.25</ele>
        <time>2021-08-07T11:16:59Z</time>
      </trkpt>
      <trkpt lat="50.70135" lon="2.81651">
        <ele>22.25</ele>
        <time>2021-08-07T11:17:00Z</time>
      </trkpt>
      <trkpt lat="50.70138" lon="2.81656">
        <ele>22.25</ele>
        <time>2021-08-07T11:17:01Z</time>
      </trkpt>
      <trkpt lat="50.7014" lon="2.81661">
        <ele>22.73</ele>
        <time>2021-08-07T11:17:02Z</time>
      </trkpt>
      <trkpt lat="50.70143" lon="2.81664">
        <ele>23.21</ele>
        <time>2021-08-07T11:17:03Z</time>
      </trkpt>
      <trkpt lat="50.70146" lon="2.81667">
        <ele>23.21</ele>
        <time>2021-08-07T11:17:04Z</time>
      </trkpt>
      <trkpt lat="50.70162" lon="2.81683">
        <ele>23.21</ele>
        <time>2021-08-07T11:17:09Z</time>
      </trkpt>
      <trkpt lat="50.70164" lon="2.8169">
        <ele>22.25</ele>
        <time>2021-08-07T11:17:10Z</time>
      </trkpt>
      <trkpt lat="50.70164" lon="2.81698">
        <ele>21.77</ele>
        <time>2021-08-07T11:17:11Z</time>
      </trkpt>
      <trkpt lat="50.70161" lon="2.81706">
        <ele>21.29</ele>
        <time>2021-08-07T11:17:12Z</time>
      </trkpt>
      <trkpt lat="50.70157" lon="2.81711">
        <ele>21.29</ele>
        <time>2021-08-07T11:17:13Z</time>
      </trkpt>
      <trkpt lat="50.70153" lon="2.81716">
        <ele>21.29</ele>
        <time>2021-08-07T11:17:14Z</time>
      </trkpt>
      <trkpt lat="50.70148" lon="2.8172">
        <ele>21.29</ele>
        <time>2021-08-07T11:17:15Z</time>
      </trkpt>
      <trkpt lat="50.70143" lon="2.81725">
        <ele>21.29</ele>
        <time>2021-08-07T11:17:16Z</time>
      </trkpt>
      <trkpt lat="50.70139" lon="2.81731">
        <ele>20.81</ele>
        <time>2021-08-07T11:17:17Z</time>
      </trkpt>
      <trkpt lat="50.70135" lon="2.81738">
        <ele>20.81</ele>
        <time>2021-08-07T11:17:18Z</time>
      </trkpt>
      <trkpt lat="50.70132" lon="2.81746">
        <ele>20.81</ele>
        <time>2021-08-07T11:17:19Z</time>
      </trkpt>
      <trkpt lat="50.70128" lon="2.81753">
        <ele>20.32</ele>
        <time>2021-08-07T11:17:20Z</time>
      </trkpt>
      <trkpt lat="50.70096" lon="2.81834">
        <ele>20.81</ele>
        <time>2021-08-07T11:17:30Z</time>
      </trkpt>
      <trkpt lat="50.70074" lon="2.81892">
        <ele>20.81</ele>
        <time>2021-08-07T11:17:38Z</time>
      </trkpt>
      <trkpt lat="50.70061" lon="2.81925">
        <ele>21.77</ele>
        <time>2021-08-07T11:17:43Z</time>
      </trkpt>
      <trkpt lat="50.70035" lon="2.81993">
        <ele>21.77</ele>
        <time>2021-08-07T11:17:53Z</time>
      </trkpt>
      <trkpt lat="50.7003" lon="2.82007">
        <ele>21.77</ele>
        <time>2021-08-07T11:17:55Z</time>
      </trkpt>
      <trkpt lat="50.70027" lon="2.82013">
        <ele>21.77</ele>
        <time>2021-08-07T11:17:56Z</time>
      </trkpt>
      <trkpt lat="50.70004" lon="2.82075">
        <ele>21.77</ele>
        <time>2021-08-07T11:18:05Z</time>
      </trkpt>
      <trkpt lat="50.69977" lon="2.82145">
        <ele>21.77</ele>
        <time>2021-08-07T11:18:15Z</time>
      </trkpt>
      <trkpt lat="50.6995" lon="2.82212">
        <ele>21.77</ele>
        <time>2021-08-07T11:18:25Z</time>
      </trkpt>
      <trkpt lat="50.69919" lon="2.82293">
        <ele>21.77</ele>
        <time>2021-08-07T11:18:36Z</time>
      </trkpt>
      <trkpt lat="50.69893" lon="2.82363">
        <ele>21.77</ele>
        <time>2021-08-07T11:18:46Z</time>
      </trkpt>
      <trkpt lat="50.69867" lon="2.82429">
        <ele>21.77</ele>
        <time>2021-08-07T11:18:56Z</time>
      </trkpt>
      <trkpt lat="50.69842" lon="2.82494">
        <ele>21.77</ele>
        <time>2021-08-07T11:19:06Z</time>
      </trkpt>
      <trkpt lat="50.69817" lon="2.82557">
        <ele>21.29</ele>
        <time>2021-08-07T11:19:16Z</time>
      </trkpt>
      <trkpt lat="50.69796" lon="2.82612">
        <ele>21.29</ele>
        <time>2021-08-07T11:19:25Z</time>
      </trkpt>
      <trkpt lat="50.69774" lon="2.8267">
        <ele>21.29</ele>
        <time>2021-08-07T11:19:35Z</time>
      </trkpt>
      <trkpt lat="50.69753" lon="2.82724">
        <ele>21.29</ele>
        <time>2021-08-07T11:19:44Z</time>
      </trkpt>
      <trkpt lat="50.69745" lon="2.82747">
        <ele>21.29</ele>
        <time>2021-08-07T11:19:48Z</time>
      </trkpt>
      <trkpt lat="50.69728" lon="2.8279">
        <ele>20.32</ele>
        <time>2021-08-07T11:19:55Z</time>
      </trkpt>
      <trkpt lat="50.69713" lon="2.82826">
        <ele>19.84</ele>
        <time>2021-08-07T11:20:01Z</time>
      </trkpt>
      <trkpt lat="50.69699" lon="2.82862">
        <ele>21.29</ele>
        <time>2021-08-07T11:20:08Z</time>
      </trkpt>
      <trkpt lat="50.69695" lon="2.82861">
        <ele>21.29</ele>
        <time>2021-08-07T11:20:09Z</time>
      </trkpt>
      <trkpt lat="50.69693" lon="2.82859">
        <ele>21.29</ele>
        <time>2021-08-07T11:20:10Z</time>
      </trkpt>
      <trkpt lat="50.69691" lon="2.82857">
        <ele>21.29</ele>
        <time>2021-08-07T11:20:11Z</time>
      </trkpt>
      <trkpt lat="50.69689" lon="2.82853">
        <ele>21.29</ele>
        <time>2021-08-07T11:20:12Z</time>
      </trkpt>
      <trkpt lat="50.69688" lon="2.8285">
        <ele>21.29</ele>
        <time>2021-08-07T11:20:13Z</time>
      </trkpt>
      <trkpt lat="50.69686" lon="2.82847">
        <ele>21.77</ele>
        <time>2021-08-07T11:20:14Z</time>
      </trkpt>
      <trkpt lat="50.69684" lon="2.82844">
        <ele>21.77</ele>
        <time>2021-08-07T11:20:15Z</time>
      </trkpt>
      <trkpt lat="50.69681" lon="2.82842">
        <ele>21.77</ele>
        <time>2021-08-07T11:20:16Z</time>
      </trkpt>
      <trkpt lat="50.69677" lon="2.82842">
        <ele>20.32</ele>
        <time>2021-08-07T11:20:17Z</time>
      </trkpt>
      <trkpt lat="50.69675" lon="2.82845">
        <ele>20.32</ele>
        <time>2021-08-07T11:20:18Z</time>
      </trkpt>
      <trkpt lat="50.69672" lon="2.82849">
        <ele>20.32</ele>
        <time>2021-08-07T11:20:19Z</time>
      </trkpt>
      <trkpt lat="50.6967" lon="2.82853">
        <ele>20.32</ele>
        <time>2021-08-07T11:20:20Z</time>
      </trkpt>
      <trkpt lat="50.69668" lon="2.82859">
        <ele>20.32</ele>
        <time>2021-08-07T11:20:21Z</time>
      </trkpt>
      <trkpt lat="50.69649" lon="2.82907">
        <ele>19.84</ele>
        <time>2021-08-07T11:20:30Z</time>
      </trkpt>
      <trkpt lat="50.6963" lon="2.82956">
        <ele>19.36</ele>
        <time>2021-08-07T11:20:39Z</time>
      </trkpt>
      <trkpt lat="50.69621" lon="2.8298">
        <ele>20.81</ele>
        <time>2021-08-07T11:20:43Z</time>
      </trkpt>
      <trkpt lat="50.69603" lon="2.83031">
        <ele>20.81</ele>
        <time>2021-08-07T11:20:52Z</time>
      </trkpt>
      <trkpt lat="50.69585" lon="2.83081">
        <ele>20.81</ele>
        <time>2021-08-07T11:21:00Z</time>
      </trkpt>
      <trkpt lat="50.69583" lon="2.83087">
        <ele>21.29</ele>
        <time>2021-08-07T11:21:01Z</time>
      </trkpt>
      <trkpt lat="50.69565" lon="2.83134">
        <ele>21.29</ele>
        <time>2021-08-07T11:21:09Z</time>
      </trkpt>
      <trkpt lat="50.69561" lon="2.83145">
        <ele>21.29</ele>
        <time>2021-08-07T11:21:11Z</time>
      </trkpt>
      <trkpt lat="50.69549" lon="2.83175">
        <ele>21.29</ele>
        <time>2021-08-07T11:21:16Z</time>
      </trkpt>
      <trkpt lat="50.69544" lon="2.83186">
        <ele>19.84</ele>
        <time>2021-08-07T11:21:18Z</time>
      </trkpt>
      <trkpt lat="50.69529" lon="2.83227">
        <ele>19.84</ele>
        <time>2021-08-07T11:21:25Z</time>
      </trkpt>
      <trkpt lat="50.69527" lon="2.83233">
        <ele>19.84</ele>
        <time>2021-08-07T11:21:26Z</time>
      </trkpt>
      <trkpt lat="50.69501" lon="2.83302">
        <ele>19.84</ele>
        <time>2021-08-07T11:21:37Z</time>
      </trkpt>
      <trkpt lat="50.69479" lon="2.8336">
        <ele>20.32</ele>
        <time>2021-08-07T11:21:46Z</time>
      </trkpt>
      <trkpt lat="50.69477" lon="2.83365">
        <ele>19.84</ele>
        <time>2021-08-07T11:21:47Z</time>
      </trkpt>
      <trkpt lat="50.69453" lon="2.83429">
        <ele>20.32</ele>
        <time>2021-08-07T11:21:57Z</time>
      </trkpt>
      <trkpt lat="50.69429" lon="2.8349">
        <ele>19.84</ele>
        <time>2021-08-07T11:22:07Z</time>
      </trkpt>
      <trkpt lat="50.69401" lon="2.83561">
        <ele>19.84</ele>
        <time>2021-08-07T11:22:19Z</time>
      </trkpt>
      <trkpt lat="50.69373" lon="2.83631">
        <ele>18.88</ele>
        <time>2021-08-07T11:22:30Z</time>
      </trkpt>
      <trkpt lat="50.69344" lon="2.83706">
        <ele>18.4</ele>
        <time>2021-08-07T11:22:41Z</time>
      </trkpt>
      <trkpt lat="50.69322" lon="2.83761">
        <ele>18.4</ele>
        <time>2021-08-07T11:22:49Z</time>
      </trkpt>
      <trkpt lat="50.69304" lon="2.83796">
        <ele>17.92</ele>
        <time>2021-08-07T11:22:55Z</time>
      </trkpt>
      <trkpt lat="50.69301" lon="2.83802">
        <ele>17.92</ele>
        <time>2021-08-07T11:22:56Z</time>
      </trkpt>
      <trkpt lat="50.69278" lon="2.83838">
        <ele>17.92</ele>
        <time>2021-08-07T11:23:03Z</time>
      </trkpt>
      <trkpt lat="50.69256" lon="2.83854">
        <ele>17.44</ele>
        <time>2021-08-07T11:23:09Z</time>
      </trkpt>
      <trkpt lat="50.69252" lon="2.83855">
        <ele>17.44</ele>
        <time>2021-08-07T11:23:10Z</time>
      </trkpt>
      <trkpt lat="50.69248" lon="2.83857">
        <ele>17.44</ele>
        <time>2021-08-07T11:23:11Z</time>
      </trkpt>
      <trkpt lat="50.69245" lon="2.8386">
        <ele>17.44</ele>
        <time>2021-08-07T11:23:12Z</time>
      </trkpt>
      <trkpt lat="50.69241" lon="2.83863">
        <ele>17.44</ele>
        <time>2021-08-07T11:23:13Z</time>
      </trkpt>
      <trkpt lat="50.69238" lon="2.83866">
        <ele>17.44</ele>
        <time>2021-08-07T11:23:14Z</time>
      </trkpt>
      <trkpt lat="50.6923" lon="2.83877">
        <ele>18.88</ele>
        <time>2021-08-07T11:23:17Z</time>
      </trkpt>
      <trkpt lat="50.69195" lon="2.83925">
        <ele>18.88</ele>
        <time>2021-08-07T11:23:29Z</time>
      </trkpt>
      <trkpt lat="50.69166" lon="2.83967">
        <ele>18.88</ele>
        <time>2021-08-07T11:23:39Z</time>
      </trkpt>
      <trkpt lat="50.69153" lon="2.83983">
        <ele>19.36</ele>
        <time>2021-08-07T11:23:43Z</time>
      </trkpt>
      <trkpt lat="50.69149" lon="2.83986">
        <ele>19.36</ele>
        <time>2021-08-07T11:23:44Z</time>
      </trkpt>
      <trkpt lat="50.69144" lon="2.83988">
        <ele>19.36</ele>
        <time>2021-08-07T11:23:45Z</time>
      </trkpt>
      <trkpt lat="50.6914" lon="2.83989">
        <ele>19.84</ele>
        <time>2021-08-07T11:23:46Z</time>
      </trkpt>
      <trkpt lat="50.69136" lon="2.8399">
        <ele>19.84</ele>
        <time>2021-08-07T11:23:47Z</time>
      </trkpt>
      <trkpt lat="50.69131" lon="2.8399">
        <ele>19.84</ele>
        <time>2021-08-07T11:23:48Z</time>
      </trkpt>
      <trkpt lat="50.69126" lon="2.83989">
        <ele>19.84</ele>
        <time>2021-08-07T11:23:49Z</time>
      </trkpt>
      <trkpt lat="50.69085" lon="2.83975">
        <ele>19.84</ele>
        <time>2021-08-07T11:23:58Z</time>
      </trkpt>
      <trkpt lat="50.69042" lon="2.8396">
        <ele>19.84</ele>
        <time>2021-08-07T11:24:07Z</time>
      </trkpt>
      <trkpt lat="50.69005" lon="2.83946">
        <ele>19.84</ele>
        <time>2021-08-07T11:24:15Z</time>
      </trkpt>
      <trkpt lat="50.69" lon="2.83948">
        <ele>18.4</ele>
        <time>2021-08-07T11:24:16Z</time>
      </trkpt>
      <trkpt lat="50.68996" lon="2.83951">
        <ele>18.4</ele>
        <time>2021-08-07T11:24:17Z</time>
      </trkpt>
      <trkpt lat="50.68991" lon="2.83955">
        <ele>18.4</ele>
        <time>2021-08-07T11:24:18Z</time>
      </trkpt>
      <trkpt lat="50.68988" lon="2.8396">
        <ele>18.4</ele>
        <time>2021-08-07T11:24:19Z</time>
      </trkpt>
      <trkpt lat="50.68984" lon="2.83965">
        <ele>18.4</ele>
        <time>2021-08-07T11:24:20Z</time>
      </trkpt>
      <trkpt lat="50.68951" lon="2.84009">
        <ele>18.4</ele>
        <time>2021-08-07T11:24:29Z</time>
      </trkpt>
      <trkpt lat="50.6894" lon="2.84023">
        <ele>18.4</ele>
        <time>2021-08-07T11:24:32Z</time>
      </trkpt>
      <trkpt lat="50.68916" lon="2.84053">
        <ele>19.84</ele>
        <time>2021-08-07T11:24:39Z</time>
      </trkpt>
      <trkpt lat="50.68898" lon="2.84058">
        <ele>19.84</ele>
        <time>2021-08-07T11:24:44Z</time>
      </trkpt>
      <trkpt lat="50.68896" lon="2.84054">
        <ele>19.84</ele>
        <time>2021-08-07T11:24:45Z</time>
      </trkpt>
      <trkpt lat="50.68894" lon="2.84048">
        <ele>19.84</ele>
        <time>2021-08-07T11:24:46Z</time>
      </trkpt>
      <trkpt lat="50.68891" lon="2.84041">
        <ele>19.84</ele>
        <time>2021-08-07T11:24:47Z</time>
      </trkpt>
      <trkpt lat="50.68889" lon="2.84035">
        <ele>19.84</ele>
        <time>2021-08-07T11:24:48Z</time>
      </trkpt>
      <trkpt lat="50.68869" lon="2.83976">
        <ele>19.84</ele>
        <time>2021-08-07T11:24:57Z</time>
      </trkpt>
      <trkpt lat="50.68864" lon="2.83962">
        <ele>19.84</ele>
        <time>2021-08-07T11:24:59Z</time>
      </trkpt>
      <trkpt lat="50.68862" lon="2.83954">
        <ele>19.84</ele>
        <time>2021-08-07T11:25:02Z</time>
      </trkpt>
      <trkpt lat="50.68859" lon="2.83944">
        <ele>19.84</ele>
        <time>2021-08-07T11:25:07Z</time>
      </trkpt>
      <trkpt lat="50.68846" lon="2.83904">
        <ele>19.84</ele>
        <time>2021-08-07T11:25:14Z</time>
      </trkpt>
      <trkpt lat="50.68841" lon="2.83891">
        <ele>19.84</ele>
        <time>2021-08-07T11:25:16Z</time>
      </trkpt>
      <trkpt lat="50.6882" lon="2.83827">
        <ele>20.32</ele>
        <time>2021-08-07T11:25:25Z</time>
      </trkpt>
      <trkpt lat="50.68804" lon="2.83775">
        <ele>20.32</ele>
        <time>2021-08-07T11:25:32Z</time>
      </trkpt>
      <trkpt lat="50.68803" lon="2.83767">
        <ele>20.32</ele>
        <time>2021-08-07T11:25:33Z</time>
      </trkpt>
      <trkpt lat="50.68789" lon="2.83696">
        <ele>20.32</ele>
        <time>2021-08-07T11:25:42Z</time>
      </trkpt>
      <trkpt lat="50.68778" lon="2.83641">
        <ele>18.88</ele>
        <time>2021-08-07T11:25:49Z</time>
      </trkpt>
      <trkpt lat="50.68764" lon="2.8357">
        <ele>20.32</ele>
        <time>2021-08-07T11:25:58Z</time>
      </trkpt>
      <trkpt lat="50.68746" lon="2.83489">
        <ele>20.32</ele>
        <time>2021-08-07T11:26:08Z</time>
      </trkpt>
      <trkpt lat="50.68727" lon="2.83419">
        <ele>20.32</ele>
        <time>2021-08-07T11:26:17Z</time>
      </trkpt>
      <trkpt lat="50.68708" lon="2.83358">
        <ele>20.32</ele>
        <time>2021-08-07T11:26:25Z</time>
      </trkpt>
      <trkpt lat="50.68698" lon="2.83321">
        <ele>20.81</ele>
        <time>2021-08-07T11:26:30Z</time>
      </trkpt>
      <trkpt lat="50.68697" lon="2.83281">
        <ele>22.73</ele>
        <time>2021-08-07T11:26:37Z</time>
      </trkpt>
      <trkpt lat="50.68707" lon="2.83254">
        <ele>24.65</ele>
        <time>2021-08-07T11:26:45Z</time>
      </trkpt>
      <trkpt lat="50.68722" lon="2.83234">
        <ele>26.09</ele>
        <time>2021-08-07T11:26:53Z</time>
      </trkpt>
      <trkpt lat="50.68735" lon="2.83209">
        <ele>26.57</ele>
        <time>2021-08-07T11:27:01Z</time>
      </trkpt>
      <trkpt lat="50.68733" lon="2.83204">
        <ele>26.57</ele>
        <time>2021-08-07T11:27:04Z</time>
      </trkpt>
      <trkpt lat="50.68732" lon="2.83202">
        <ele>26.57</ele>
        <time>2021-08-07T11:27:05Z</time>
      </trkpt>
      <trkpt lat="50.68731" lon="2.832">
        <ele>26.57</ele>
        <time>2021-08-07T11:27:06Z</time>
      </trkpt>
      <trkpt lat="50.6873" lon="2.83199">
        <ele>26.57</ele>
        <time>2021-08-07T11:27:07Z</time>
      </trkpt>
      <trkpt lat="50.68727" lon="2.83197">
        <ele>27.05</ele>
        <time>2021-08-07T11:27:08Z</time>
      </trkpt>
      <trkpt lat="50.68725" lon="2.83197">
        <ele>27.05</ele>
        <time>2021-08-07T11:27:09Z</time>
      </trkpt>
      <trkpt lat="50.68722" lon="2.83196">
        <ele>27.05</ele>
        <time>2021-08-07T11:27:10Z</time>
      </trkpt>
      <trkpt lat="50.6869" lon="2.8319">
        <ele>28.02</ele>
        <time>2021-08-07T11:27:21Z</time>
      </trkpt>
      <trkpt lat="50.68656" lon="2.83182">
        <ele>28.02</ele>
        <time>2021-08-07T11:27:29Z</time>
      </trkpt>
      <trkpt lat="50.68641" lon="2.83177">
        <ele>26.57</ele>
        <time>2021-08-07T11:27:32Z</time>
      </trkpt>
      <trkpt lat="50.68636" lon="2.83176">
        <ele>26.09</ele>
        <time>2021-08-07T11:27:33Z</time>
      </trkpt>
      <trkpt lat="50.6863" lon="2.83176">
        <ele>26.09</ele>
        <time>2021-08-07T11:27:34Z</time>
      </trkpt>
      <trkpt lat="50.68626" lon="2.83178">
        <ele>26.09</ele>
        <time>2021-08-07T11:27:35Z</time>
      </trkpt>
      <trkpt lat="50.6862" lon="2.83182">
        <ele>25.13</ele>
        <time>2021-08-07T11:27:36Z</time>
      </trkpt>
      <trkpt lat="50.68616" lon="2.83187">
        <ele>25.13</ele>
        <time>2021-08-07T11:27:37Z</time>
      </trkpt>
      <trkpt lat="50.68613" lon="2.83194">
        <ele>25.13</ele>
        <time>2021-08-07T11:27:38Z</time>
      </trkpt>
      <trkpt lat="50.6861" lon="2.83202">
        <ele>25.13</ele>
        <time>2021-08-07T11:27:39Z</time>
      </trkpt>
      <trkpt lat="50.68608" lon="2.8321">
        <ele>25.13</ele>
        <time>2021-08-07T11:27:40Z</time>
      </trkpt>
      <trkpt lat="50.68605" lon="2.83218">
        <ele>25.13</ele>
        <time>2021-08-07T11:27:41Z</time>
      </trkpt>
      <trkpt lat="50.68601" lon="2.83226">
        <ele>24.17</ele>
        <time>2021-08-07T11:27:42Z</time>
      </trkpt>
      <trkpt lat="50.68593" lon="2.83244">
        <ele>23.21</ele>
        <time>2021-08-07T11:27:44Z</time>
      </trkpt>
      <trkpt lat="50.68588" lon="2.83253">
        <ele>22.25</ele>
        <time>2021-08-07T11:27:45Z</time>
      </trkpt>
      <trkpt lat="50.68554" lon="2.83302">
        <ele>18.88</ele>
        <time>2021-08-07T11:27:51Z</time>
      </trkpt>
      <trkpt lat="50.68541" lon="2.83315">
        <ele>18.88</ele>
        <time>2021-08-07T11:27:53Z</time>
      </trkpt>
      <trkpt lat="50.68533" lon="2.8332">
        <ele>18.88</ele>
        <time>2021-08-07T11:27:54Z</time>
      </trkpt>
      <trkpt lat="50.68492" lon="2.83342">
        <ele>19.84</ele>
        <time>2021-08-07T11:28:00Z</time>
      </trkpt>
      <trkpt lat="50.68443" lon="2.83371">
        <ele>19.84</ele>
        <time>2021-08-07T11:28:08Z</time>
      </trkpt>
      <trkpt lat="50.684" lon="2.83403">
        <ele>20.32</ele>
        <time>2021-08-07T11:28:16Z</time>
      </trkpt>
      <trkpt lat="50.68354" lon="2.83442">
        <ele>19.36</ele>
        <time>2021-08-07T11:28:25Z</time>
      </trkpt>
      <trkpt lat="50.68309" lon="2.83478">
        <ele>18.88</ele>
        <time>2021-08-07T11:28:34Z</time>
      </trkpt>
      <trkpt lat="50.68263" lon="2.83512">
        <ele>18.88</ele>
        <time>2021-08-07T11:28:43Z</time>
      </trkpt>
      <trkpt lat="50.68202" lon="2.83553">
        <ele>18.88</ele>
        <time>2021-08-07T11:28:54Z</time>
      </trkpt>
      <trkpt lat="50.68133" lon="2.83587">
        <ele>18.4</ele>
        <time>2021-08-07T11:29:06Z</time>
      </trkpt>
      <trkpt lat="50.68059" lon="2.83623">
        <ele>17.92</ele>
        <time>2021-08-07T11:29:19Z</time>
      </trkpt>
      <trkpt lat="50.68003" lon="2.83652">
        <ele>17.44</ele>
        <time>2021-08-07T11:29:29Z</time>
      </trkpt>
      <trkpt lat="50.67964" lon="2.83672">
        <ele>17.44</ele>
        <time>2021-08-07T11:29:36Z</time>
      </trkpt>
      <trkpt lat="50.67954" lon="2.83676">
        <ele>17.44</ele>
        <time>2021-08-07T11:29:38Z</time>
      </trkpt>
      <trkpt lat="50.67949" lon="2.83676">
        <ele>17.44</ele>
        <time>2021-08-07T11:29:39Z</time>
      </trkpt>
      <trkpt lat="50.67943" lon="2.83677">
        <ele>17.44</ele>
        <time>2021-08-07T11:29:40Z</time>
      </trkpt>
      <trkpt lat="50.67938" lon="2.83676">
        <ele>17.44</ele>
        <time>2021-08-07T11:29:41Z</time>
      </trkpt>
      <trkpt lat="50.67933" lon="2.83674">
        <ele>17.44</ele>
        <time>2021-08-07T11:29:42Z</time>
      </trkpt>
      <trkpt lat="50.67928" lon="2.83673">
        <ele>17.44</ele>
        <time>2021-08-07T11:29:43Z</time>
      </trkpt>
      <trkpt lat="50.67923" lon="2.83672">
        <ele>17.44</ele>
        <time>2021-08-07T11:29:44Z</time>
      </trkpt>
      <trkpt lat="50.67918" lon="2.83672">
        <ele>17.44</ele>
        <time>2021-08-07T11:29:45Z</time>
      </trkpt>
      <trkpt lat="50.67914" lon="2.83673">
        <ele>18.4</ele>
        <time>2021-08-07T11:29:46Z</time>
      </trkpt>
      <trkpt lat="50.67909" lon="2.83675">
        <ele>18.4</ele>
        <time>2021-08-07T11:29:47Z</time>
      </trkpt>
      <trkpt lat="50.67905" lon="2.83678">
        <ele>18.4</ele>
        <time>2021-08-07T11:29:48Z</time>
      </trkpt>
      <trkpt lat="50.67901" lon="2.8368">
        <ele>18.4</ele>
        <time>2021-08-07T11:29:49Z</time>
      </trkpt>
      <trkpt lat="50.67896" lon="2.83681">
        <ele>18.4</ele>
        <time>2021-08-07T11:29:50Z</time>
      </trkpt>
      <trkpt lat="50.67892" lon="2.83679">
        <ele>18.4</ele>
        <time>2021-08-07T11:29:51Z</time>
      </trkpt>
      <trkpt lat="50.67889" lon="2.83677">
        <ele>18.4</ele>
        <time>2021-08-07T11:29:52Z</time>
      </trkpt>
      <trkpt lat="50.67886" lon="2.83673">
        <ele>18.4</ele>
        <time>2021-08-07T11:29:53Z</time>
      </trkpt>
      <trkpt lat="50.67883" lon="2.83669">
        <ele>18.4</ele>
        <time>2021-08-07T11:29:54Z</time>
      </trkpt>
      <trkpt lat="50.67845" lon="2.83622">
        <ele>19.84</ele>
        <time>2021-08-07T11:30:06Z</time>
      </trkpt>
      <trkpt lat="50.67805" lon="2.83575">
        <ele>21.29</ele>
        <time>2021-08-07T11:30:19Z</time>
      </trkpt>
      <trkpt lat="50.67767" lon="2.83541">
        <ele>23.21</ele>
        <time>2021-08-07T11:30:31Z</time>
      </trkpt>
      <trkpt lat="50.67731" lon="2.83517">
        <ele>23.21</ele>
        <time>2021-08-07T11:30:41Z</time>
      </trkpt>
      <trkpt lat="50.67684" lon="2.83488">
        <ele>23.21</ele>
        <time>2021-08-07T11:30:53Z</time>
      </trkpt>
      <trkpt lat="50.67643" lon="2.83463">
        <ele>21.77</ele>
        <time>2021-08-07T11:31:02Z</time>
      </trkpt>
      <trkpt lat="50.67625" lon="2.83452">
        <ele>21.77</ele>
        <time>2021-08-07T11:31:06Z</time>
      </trkpt>
      <trkpt lat="50.6759" lon="2.83429">
        <ele>20.32</ele>
        <time>2021-08-07T11:31:13Z</time>
      </trkpt>
      <trkpt lat="50.6757" lon="2.83414">
        <ele>19.84</ele>
        <time>2021-08-07T11:31:17Z</time>
      </trkpt>
      <trkpt lat="50.67565" lon="2.83409">
        <ele>19.84</ele>
        <time>2021-08-07T11:31:18Z</time>
      </trkpt>
      <trkpt lat="50.67561" lon="2.83402">
        <ele>19.84</ele>
        <time>2021-08-07T11:31:19Z</time>
      </trkpt>
      <trkpt lat="50.67557" lon="2.83396">
        <ele>19.84</ele>
        <time>2021-08-07T11:31:20Z</time>
      </trkpt>
      <trkpt lat="50.67554" lon="2.83388">
        <ele>19.84</ele>
        <time>2021-08-07T11:31:21Z</time>
      </trkpt>
      <trkpt lat="50.67552" lon="2.8338">
        <ele>19.84</ele>
        <time>2021-08-07T11:31:22Z</time>
      </trkpt>
      <trkpt lat="50.67549" lon="2.83371">
        <ele>19.84</ele>
        <time>2021-08-07T11:31:23Z</time>
      </trkpt>
      <trkpt lat="50.67543" lon="2.83356">
        <ele>19.84</ele>
        <time>2021-08-07T11:31:25Z</time>
      </trkpt>
      <trkpt lat="50.6754" lon="2.83351">
        <ele>19.84</ele>
        <time>2021-08-07T11:31:26Z</time>
      </trkpt>
      <trkpt lat="50.67536" lon="2.83347">
        <ele>19.84</ele>
        <time>2021-08-07T11:31:27Z</time>
      </trkpt>
      <trkpt lat="50.67531" lon="2.83345">
        <ele>19.84</ele>
        <time>2021-08-07T11:31:28Z</time>
      </trkpt>
      <trkpt lat="50.67526" lon="2.83345">
        <ele>19.84</ele>
        <time>2021-08-07T11:31:29Z</time>
      </trkpt>
      <trkpt lat="50.67521" lon="2.83348">
        <ele>19.84</ele>
        <time>2021-08-07T11:31:30Z</time>
      </trkpt>
      <trkpt lat="50.67517" lon="2.83352">
        <ele>19.84</ele>
        <time>2021-08-07T11:31:31Z</time>
      </trkpt>
      <trkpt lat="50.67513" lon="2.83358">
        <ele>19.84</ele>
        <time>2021-08-07T11:31:32Z</time>
      </trkpt>
      <trkpt lat="50.6751" lon="2.83364">
        <ele>19.84</ele>
        <time>2021-08-07T11:31:33Z</time>
      </trkpt>
      <trkpt lat="50.67504" lon="2.83378">
        <ele>19.84</ele>
        <time>2021-08-07T11:31:35Z</time>
      </trkpt>
      <trkpt lat="50.67499" lon="2.83384">
        <ele>19.84</ele>
        <time>2021-08-07T11:31:36Z</time>
      </trkpt>
      <trkpt lat="50.67495" lon="2.83388">
        <ele>19.84</ele>
        <time>2021-08-07T11:31:37Z</time>
      </trkpt>
      <trkpt lat="50.67449" lon="2.83417">
        <ele>19.36</ele>
        <time>2021-08-07T11:31:46Z</time>
      </trkpt>
      <trkpt lat="50.67402" lon="2.83446">
        <ele>19.36</ele>
        <time>2021-08-07T11:31:56Z</time>
      </trkpt>
      <trkpt lat="50.67388" lon="2.83455">
        <ele>20.81</ele>
        <time>2021-08-07T11:31:59Z</time>
      </trkpt>
      <trkpt lat="50.67328" lon="2.83494">
        <ele>20.81</ele>
        <time>2021-08-07T11:32:12Z</time>
      </trkpt>
      <trkpt lat="50.67286" lon="2.8352">
        <ele>21.29</ele>
        <time>2021-08-07T11:32:22Z</time>
      </trkpt>
      <trkpt lat="50.67257" lon="2.8354">
        <ele>21.29</ele>
        <time>2021-08-07T11:32:29Z</time>
      </trkpt>
      <trkpt lat="50.67214" lon="2.83568">
        <ele>21.77</ele>
        <time>2021-08-07T11:32:39Z</time>
      </trkpt>
      <trkpt lat="50.67162" lon="2.83605">
        <ele>21.77</ele>
        <time>2021-08-07T11:32:50Z</time>
      </trkpt>
      <trkpt lat="50.67114" lon="2.8364">
        <ele>21.77</ele>
        <time>2021-08-07T11:33:00Z</time>
      </trkpt>
      <trkpt lat="50.67109" lon="2.83642">
        <ele>21.77</ele>
        <time>2021-08-07T11:33:01Z</time>
      </trkpt>
      <trkpt lat="50.67105" lon="2.83641">
        <ele>21.77</ele>
        <time>2021-08-07T11:33:02Z</time>
      </trkpt>
      <trkpt lat="50.67102" lon="2.83639">
        <ele>21.77</ele>
        <time>2021-08-07T11:33:03Z</time>
      </trkpt>
      <trkpt lat="50.67101" lon="2.8364">
        <ele>22.25</ele>
        <time>2021-08-07T11:33:07Z</time>
      </trkpt>
      <trkpt lat="50.67102" lon="2.83638">
        <ele>22.25</ele>
        <time>2021-08-07T11:33:19Z</time>
      </trkpt>
      <trkpt lat="50.67102" lon="2.83639">
        <ele>22.25</ele>
        <time>2021-08-07T11:33:31Z</time>
      </trkpt>
      <trkpt lat="50.67102" lon="2.83639">
        <ele>22.73</ele>
        <time>2021-08-07T11:33:40Z</time>
      </trkpt>
      <trkpt lat="50.67102" lon="2.8364">
        <ele>22.73</ele>
        <time>2021-08-07T11:33:47Z</time>
      </trkpt>
      <trkpt lat="50.67101" lon="2.83639">
        <ele>22.73</ele>
        <time>2021-08-07T11:34:02Z</time>
      </trkpt>
      <trkpt lat="50.67101" lon="2.8364">
        <ele>22.73</ele>
        <time>2021-08-07T11:34:08Z</time>
      </trkpt>
      <trkpt lat="50.67094" lon="2.83646">
        <ele>22.73</ele>
        <time>2021-08-07T11:34:16Z</time>
      </trkpt>
      <trkpt lat="50.67094" lon="2.83646">
        <ele>22.73</ele>
        <time>2021-08-07T11:34:27Z</time>
      </trkpt>
      <trkpt lat="50.67094" lon="2.83646">
        <ele>22.73</ele>
        <time>2021-08-07T11:34:45Z</time>
      </trkpt>
      <trkpt lat="50.67094" lon="2.83647">
        <ele>22.73</ele>
        <time>2021-08-07T11:34:56Z</time>
      </trkpt>
      <trkpt lat="50.67092" lon="2.83646">
        <ele>22.25</ele>
        <time>2021-08-07T11:35:17Z</time>
      </trkpt>
      <trkpt lat="50.67093" lon="2.83647">
        <ele>22.25</ele>
        <time>2021-08-07T11:35:41Z</time>
      </trkpt>
      <trkpt lat="50.67092" lon="2.83651">
        <ele>22.25</ele>
        <time>2021-08-07T11:35:58Z</time>
      </trkpt>
      <trkpt lat="50.67089" lon="2.83658">
        <ele>22.25</ele>
        <time>2021-08-07T11:36:01Z</time>
      </trkpt>
      <trkpt lat="50.67087" lon="2.83661">
        <ele>22.25</ele>
        <time>2021-08-07T11:36:02Z</time>
      </trkpt>
      <trkpt lat="50.67085" lon="2.83663">
        <ele>22.25</ele>
        <time>2021-08-07T11:36:03Z</time>
      </trkpt>
      <trkpt lat="50.67083" lon="2.83665">
        <ele>22.25</ele>
        <time>2021-08-07T11:36:04Z</time>
      </trkpt>
      <trkpt lat="50.67081" lon="2.83667">
        <ele>22.25</ele>
        <time>2021-08-07T11:36:05Z</time>
      </trkpt>
      <trkpt lat="50.67059" lon="2.83684">
        <ele>22.25</ele>
        <time>2021-08-07T11:36:13Z</time>
      </trkpt>
      <trkpt lat="50.67035" lon="2.83709">
        <ele>22.25</ele>
        <time>2021-08-07T11:36:21Z</time>
      </trkpt>
      <trkpt lat="50.67009" lon="2.83748">
        <ele>22.25</ele>
        <time>2021-08-07T11:36:30Z</time>
      </trkpt>
      <trkpt lat="50.66993" lon="2.8378">
        <ele>22.25</ele>
        <time>2021-08-07T11:36:36Z</time>
      </trkpt>
      <trkpt lat="50.66971" lon="2.83844">
        <ele>22.73</ele>
        <time>2021-08-07T11:36:47Z</time>
      </trkpt>
      <trkpt lat="50.66976" lon="2.83872">
        <ele>22.73</ele>
        <time>2021-08-07T11:36:52Z</time>
      </trkpt>
      <trkpt lat="50.66985" lon="2.83899">
        <ele>22.73</ele>
        <time>2021-08-07T11:36:57Z</time>
      </trkpt>
      <trkpt lat="50.66998" lon="2.83936">
        <ele>22.73</ele>
        <time>2021-08-07T11:37:04Z</time>
      </trkpt>
      <trkpt lat="50.6701" lon="2.83975">
        <ele>22.73</ele>
        <time>2021-08-07T11:37:11Z</time>
      </trkpt>
      <trkpt lat="50.67015" lon="2.83985">
        <ele>22.73</ele>
        <time>2021-08-07T11:37:13Z</time>
      </trkpt>
      <trkpt lat="50.67018" lon="2.8399">
        <ele>22.73</ele>
        <time>2021-08-07T11:37:14Z</time>
      </trkpt>
      <trkpt lat="50.6702" lon="2.83995">
        <ele>22.73</ele>
        <time>2021-08-07T11:37:15Z</time>
      </trkpt>
      <trkpt lat="50.67022" lon="2.84001">
        <ele>22.73</ele>
        <time>2021-08-07T11:37:16Z</time>
      </trkpt>
      <trkpt lat="50.67023" lon="2.84006">
        <ele>22.73</ele>
        <time>2021-08-07T11:37:17Z</time>
      </trkpt>
      <trkpt lat="50.67025" lon="2.84011">
        <ele>22.73</ele>
        <time>2021-08-07T11:37:18Z</time>
      </trkpt>
      <trkpt lat="50.67027" lon="2.84017">
        <ele>23.21</ele>
        <time>2021-08-07T11:37:19Z</time>
      </trkpt>
      <trkpt lat="50.67034" lon="2.84033">
        <ele>23.21</ele>
        <time>2021-08-07T11:37:22Z</time>
      </trkpt>
      <trkpt lat="50.67036" lon="2.84039">
        <ele>23.21</ele>
        <time>2021-08-07T11:37:23Z</time>
      </trkpt>
      <trkpt lat="50.6704" lon="2.84052">
        <ele>23.21</ele>
        <time>2021-08-07T11:37:25Z</time>
      </trkpt>
      <trkpt lat="50.67053" lon="2.84086">
        <ele>22.25</ele>
        <time>2021-08-07T11:37:32Z</time>
      </trkpt>
      <trkpt lat="50.67066" lon="2.8412">
        <ele>22.25</ele>
        <time>2021-08-07T11:37:38Z</time>
      </trkpt>
      <trkpt lat="50.67076" lon="2.84149">
        <ele>22.25</ele>
        <time>2021-08-07T11:37:43Z</time>
      </trkpt>
      <trkpt lat="50.67089" lon="2.84178">
        <ele>22.25</ele>
        <time>2021-08-07T11:37:48Z</time>
      </trkpt>
      <trkpt lat="50.67091" lon="2.84184">
        <ele>22.25</ele>
        <time>2021-08-07T11:37:49Z</time>
      </trkpt>
      <trkpt lat="50.67093" lon="2.84191">
        <ele>22.25</ele>
        <time>2021-08-07T11:37:50Z</time>
      </trkpt>
      <trkpt lat="50.67095" lon="2.84197">
        <ele>22.25</ele>
        <time>2021-08-07T11:37:51Z</time>
      </trkpt>
      <trkpt lat="50.67097" lon="2.84204">
        <ele>22.25</ele>
        <time>2021-08-07T11:37:52Z</time>
      </trkpt>
      <trkpt lat="50.67102" lon="2.84221">
        <ele>21.77</ele>
        <time>2021-08-07T11:37:55Z</time>
      </trkpt>
      <trkpt lat="50.67109" lon="2.84239">
        <ele>21.77</ele>
        <time>2021-08-07T11:37:58Z</time>
      </trkpt>
      <trkpt lat="50.67111" lon="2.84246">
        <ele>21.77</ele>
        <time>2021-08-07T11:37:59Z</time>
      </trkpt>
      <trkpt lat="50.67115" lon="2.84258">
        <ele>21.77</ele>
        <time>2021-08-07T11:38:01Z</time>
      </trkpt>
      <trkpt lat="50.67118" lon="2.84264">
        <ele>21.77</ele>
        <time>2021-08-07T11:38:02Z</time>
      </trkpt>
      <trkpt lat="50.67121" lon="2.84269">
        <ele>21.77</ele>
        <time>2021-08-07T11:38:03Z</time>
      </trkpt>
      <trkpt lat="50.67123" lon="2.84275">
        <ele>21.77</ele>
        <time>2021-08-07T11:38:04Z</time>
      </trkpt>
      <trkpt lat="50.67124" lon="2.84281">
        <ele>21.77</ele>
        <time>2021-08-07T11:38:05Z</time>
      </trkpt>
      <trkpt lat="50.67126" lon="2.84287">
        <ele>21.77</ele>
        <time>2021-08-07T11:38:06Z</time>
      </trkpt>
      <trkpt lat="50.67129" lon="2.84294">
        <ele>21.77</ele>
        <time>2021-08-07T11:38:07Z</time>
      </trkpt>
      <trkpt lat="50.67144" lon="2.84333">
        <ele>21.77</ele>
        <time>2021-08-07T11:38:14Z</time>
      </trkpt>
      <trkpt lat="50.67154" lon="2.84363">
        <ele>21.77</ele>
        <time>2021-08-07T11:38:19Z</time>
      </trkpt>
      <trkpt lat="50.67163" lon="2.84388">
        <ele>21.77</ele>
        <time>2021-08-07T11:38:23Z</time>
      </trkpt>
      <trkpt lat="50.67165" lon="2.84394">
        <ele>21.77</ele>
        <time>2021-08-07T11:38:24Z</time>
      </trkpt>
      <trkpt lat="50.67181" lon="2.84436">
        <ele>21.77</ele>
        <time>2021-08-07T11:38:31Z</time>
      </trkpt>
      <trkpt lat="50.67183" lon="2.84442">
        <ele>21.77</ele>
        <time>2021-08-07T11:38:32Z</time>
      </trkpt>
      <trkpt lat="50.67206" lon="2.84504">
        <ele>21.77</ele>
        <time>2021-08-07T11:38:42Z</time>
      </trkpt>
      <trkpt lat="50.67212" lon="2.84522">
        <ele>21.77</ele>
        <time>2021-08-07T11:38:45Z</time>
      </trkpt>
      <trkpt lat="50.67215" lon="2.84528">
        <ele>21.77</ele>
        <time>2021-08-07T11:38:46Z</time>
      </trkpt>
      <trkpt lat="50.67216" lon="2.84534">
        <ele>21.77</ele>
        <time>2021-08-07T11:38:47Z</time>
      </trkpt>
      <trkpt lat="50.67218" lon="2.8454">
        <ele>21.77</ele>
        <time>2021-08-07T11:38:48Z</time>
      </trkpt>
      <trkpt lat="50.67221" lon="2.84544">
        <ele>21.77</ele>
        <time>2021-08-07T11:38:49Z</time>
      </trkpt>
      <trkpt lat="50.67223" lon="2.84548">
        <ele>21.77</ele>
        <time>2021-08-07T11:38:50Z</time>
      </trkpt>
      <trkpt lat="50.67224" lon="2.84554">
        <ele>21.77</ele>
        <time>2021-08-07T11:38:51Z</time>
      </trkpt>
      <trkpt lat="50.67233" lon="2.84579">
        <ele>21.77</ele>
        <time>2021-08-07T11:38:56Z</time>
      </trkpt>
      <trkpt lat="50.67234" lon="2.84585">
        <ele>21.77</ele>
        <time>2021-08-07T11:38:57Z</time>
      </trkpt>
      <trkpt lat="50.67248" lon="2.84625">
        <ele>21.29</ele>
        <time>2021-08-07T11:39:04Z</time>
      </trkpt>
      <trkpt lat="50.67268" lon="2.84676">
        <ele>21.29</ele>
        <time>2021-08-07T11:39:13Z</time>
      </trkpt>
      <trkpt lat="50.67283" lon="2.8472">
        <ele>21.29</ele>
        <time>2021-08-07T11:39:21Z</time>
      </trkpt>
      <trkpt lat="50.6729" lon="2.84739">
        <ele>21.29</ele>
        <time>2021-08-07T11:39:24Z</time>
      </trkpt>
      <trkpt lat="50.67298" lon="2.84765">
        <ele>21.29</ele>
        <time>2021-08-07T11:39:28Z</time>
      </trkpt>
      <trkpt lat="50.67301" lon="2.8477">
        <ele>21.29</ele>
        <time>2021-08-07T11:39:29Z</time>
      </trkpt>
      <trkpt lat="50.67304" lon="2.84776">
        <ele>21.29</ele>
        <time>2021-08-07T11:39:30Z</time>
      </trkpt>
      <trkpt lat="50.67307" lon="2.84782">
        <ele>21.29</ele>
        <time>2021-08-07T11:39:31Z</time>
      </trkpt>
      <trkpt lat="50.6731" lon="2.84789">
        <ele>21.29</ele>
        <time>2021-08-07T11:39:32Z</time>
      </trkpt>
      <trkpt lat="50.67328" lon="2.84836">
        <ele>21.29</ele>
        <time>2021-08-07T11:39:39Z</time>
      </trkpt>
      <trkpt lat="50.6733" lon="2.84843">
        <ele>21.29</ele>
        <time>2021-08-07T11:39:40Z</time>
      </trkpt>
      <trkpt lat="50.67332" lon="2.84849">
        <ele>21.29</ele>
        <time>2021-08-07T11:39:41Z</time>
      </trkpt>
      <trkpt lat="50.67339" lon="2.84874">
        <ele>21.29</ele>
        <time>2021-08-07T11:39:45Z</time>
      </trkpt>
      <trkpt lat="50.67342" lon="2.8488">
        <ele>21.29</ele>
        <time>2021-08-07T11:39:46Z</time>
      </trkpt>
      <trkpt lat="50.67347" lon="2.84891">
        <ele>21.29</ele>
        <time>2021-08-07T11:39:48Z</time>
      </trkpt>
      <trkpt lat="50.67363" lon="2.84939">
        <ele>21.29</ele>
        <time>2021-08-07T11:39:55Z</time>
      </trkpt>
      <trkpt lat="50.67376" lon="2.84974">
        <ele>20.32</ele>
        <time>2021-08-07T11:40:00Z</time>
      </trkpt>
      <trkpt lat="50.67379" lon="2.8498">
        <ele>19.84</ele>
        <time>2021-08-07T11:40:01Z</time>
      </trkpt>
      <trkpt lat="50.67382" lon="2.84986">
        <ele>19.84</ele>
        <time>2021-08-07T11:40:02Z</time>
      </trkpt>
      <trkpt lat="50.67384" lon="2.84992">
        <ele>19.84</ele>
        <time>2021-08-07T11:40:03Z</time>
      </trkpt>
      <trkpt lat="50.67386" lon="2.84998">
        <ele>19.84</ele>
        <time>2021-08-07T11:40:04Z</time>
      </trkpt>
      <trkpt lat="50.67388" lon="2.85005">
        <ele>19.84</ele>
        <time>2021-08-07T11:40:05Z</time>
      </trkpt>
      <trkpt lat="50.67396" lon="2.85023">
        <ele>19.84</ele>
        <time>2021-08-07T11:40:09Z</time>
      </trkpt>
      <trkpt lat="50.67393" lon="2.85016">
        <ele>19.84</ele>
        <time>2021-08-07T11:40:12Z</time>
      </trkpt>
      <trkpt lat="50.67391" lon="2.85014">
        <ele>19.84</ele>
        <time>2021-08-07T11:40:13Z</time>
      </trkpt>
      <trkpt lat="50.6739" lon="2.85012">
        <ele>19.84</ele>
        <time>2021-08-07T11:40:14Z</time>
      </trkpt>
      <trkpt lat="50.67389" lon="2.8501">
        <ele>19.84</ele>
        <time>2021-08-07T11:40:15Z</time>
      </trkpt>
      <trkpt lat="50.67389" lon="2.8501">
        <ele>19.84</ele>
        <time>2021-08-07T11:40:20Z</time>
      </trkpt>
      <trkpt lat="50.67389" lon="2.85012">
        <ele>19.84</ele>
        <time>2021-08-07T11:40:26Z</time>
      </trkpt>
      <trkpt lat="50.67389" lon="2.85018">
        <ele>19.84</ele>
        <time>2021-08-07T11:40:30Z</time>
      </trkpt>
      <trkpt lat="50.6739" lon="2.85019">
        <ele>19.84</ele>
        <time>2021-08-07T11:40:31Z</time>
      </trkpt>
      <trkpt lat="50.674" lon="2.85041">
        <ele>19.84</ele>
        <time>2021-08-07T11:40:38Z</time>
      </trkpt>
      <trkpt lat="50.67405" lon="2.85058">
        <ele>19.84</ele>
        <time>2021-08-07T11:40:43Z</time>
      </trkpt>
      <trkpt lat="50.67404" lon="2.85061">
        <ele>19.84</ele>
        <time>2021-08-07T11:40:44Z</time>
      </trkpt>
      <trkpt lat="50.67402" lon="2.85062">
        <ele>19.84</ele>
        <time>2021-08-07T11:40:45Z</time>
      </trkpt>
      <trkpt lat="50.674" lon="2.85063">
        <ele>19.84</ele>
        <time>2021-08-07T11:40:46Z</time>
      </trkpt>
      <trkpt lat="50.67396" lon="2.85064">
        <ele>19.84</ele>
        <time>2021-08-07T11:40:47Z</time>
      </trkpt>
      <trkpt lat="50.67388" lon="2.85066">
        <ele>19.36</ele>
        <time>2021-08-07T11:40:49Z</time>
      </trkpt>
      <trkpt lat="50.6738" lon="2.85071">
        <ele>18.88</ele>
        <time>2021-08-07T11:40:51Z</time>
      </trkpt>
      <trkpt lat="50.67376" lon="2.85074">
        <ele>18.88</ele>
        <time>2021-08-07T11:40:52Z</time>
      </trkpt>
      <trkpt lat="50.67372" lon="2.85076">
        <ele>18.88</ele>
        <time>2021-08-07T11:40:53Z</time>
      </trkpt>
      <trkpt lat="50.67364" lon="2.8508">
        <ele>18.88</ele>
        <time>2021-08-07T11:40:55Z</time>
      </trkpt>
      <trkpt lat="50.6736" lon="2.85083">
        <ele>18.88</ele>
        <time>2021-08-07T11:40:56Z</time>
      </trkpt>
      <trkpt lat="50.67356" lon="2.85086">
        <ele>18.88</ele>
        <time>2021-08-07T11:40:57Z</time>
      </trkpt>
      <trkpt lat="50.67352" lon="2.85088">
        <ele>18.88</ele>
        <time>2021-08-07T11:40:58Z</time>
      </trkpt>
      <trkpt lat="50.67348" lon="2.85089">
        <ele>18.88</ele>
        <time>2021-08-07T11:40:59Z</time>
      </trkpt>
      <trkpt lat="50.6733" lon="2.851">
        <ele>16.96</ele>
        <time>2021-08-07T11:41:03Z</time>
      </trkpt>
      <trkpt lat="50.67318" lon="2.8511">
        <ele>18.4</ele>
        <time>2021-08-07T11:41:06Z</time>
      </trkpt>
      <trkpt lat="50.67287" lon="2.85155">
        <ele>18.88</ele>
        <time>2021-08-07T11:41:15Z</time>
      </trkpt>
      <trkpt lat="50.67284" lon="2.8516">
        <ele>18.88</ele>
        <time>2021-08-07T11:41:16Z</time>
      </trkpt>
      <trkpt lat="50.67257" lon="2.85212">
        <ele>20.81</ele>
        <time>2021-08-07T11:41:25Z</time>
      </trkpt>
      <trkpt lat="50.67225" lon="2.85252">
        <ele>20.32</ele>
        <time>2021-08-07T11:41:34Z</time>
      </trkpt>
      <trkpt lat="50.67218" lon="2.8526">
        <ele>20.32</ele>
        <time>2021-08-07T11:41:36Z</time>
      </trkpt>
      <trkpt lat="50.67214" lon="2.85264">
        <ele>20.32</ele>
        <time>2021-08-07T11:41:37Z</time>
      </trkpt>
      <trkpt lat="50.6721" lon="2.85269">
        <ele>20.32</ele>
        <time>2021-08-07T11:41:38Z</time>
      </trkpt>
      <trkpt lat="50.67207" lon="2.85274">
        <ele>20.32</ele>
        <time>2021-08-07T11:41:39Z</time>
      </trkpt>
      <trkpt lat="50.67204" lon="2.85278">
        <ele>20.32</ele>
        <time>2021-08-07T11:41:40Z</time>
      </trkpt>
      <trkpt lat="50.67201" lon="2.85283">
        <ele>20.32</ele>
        <time>2021-08-07T11:41:41Z</time>
      </trkpt>
      <trkpt lat="50.67198" lon="2.85288">
        <ele>20.81</ele>
        <time>2021-08-07T11:41:42Z</time>
      </trkpt>
      <trkpt lat="50.67186" lon="2.85307">
        <ele>19.36</ele>
        <time>2021-08-07T11:41:46Z</time>
      </trkpt>
      <trkpt lat="50.67176" lon="2.85324">
        <ele>20.81</ele>
        <time>2021-08-07T11:41:49Z</time>
      </trkpt>
      <trkpt lat="50.67173" lon="2.85329">
        <ele>21.29</ele>
        <time>2021-08-07T11:41:50Z</time>
      </trkpt>
      <trkpt lat="50.67161" lon="2.85349">
        <ele>20.81</ele>
        <time>2021-08-07T11:41:54Z</time>
      </trkpt>
      <trkpt lat="50.67129" lon="2.85403">
        <ele>20.81</ele>
        <time>2021-08-07T11:42:04Z</time>
      </trkpt>
      <trkpt lat="50.67097" lon="2.85455">
        <ele>20.32</ele>
        <time>2021-08-07T11:42:14Z</time>
      </trkpt>
      <trkpt lat="50.67062" lon="2.85489">
        <ele>20.32</ele>
        <time>2021-08-07T11:42:23Z</time>
      </trkpt>
      <trkpt lat="50.67023" lon="2.8552">
        <ele>20.32</ele>
        <time>2021-08-07T11:42:32Z</time>
      </trkpt>
      <trkpt lat="50.67001" lon="2.85538">
        <ele>21.29</ele>
        <time>2021-08-07T11:42:37Z</time>
      </trkpt>
      <trkpt lat="50.66977" lon="2.85566">
        <ele>21.29</ele>
        <time>2021-08-07T11:42:43Z</time>
      </trkpt>
      <trkpt lat="50.66973" lon="2.85571">
        <ele>21.29</ele>
        <time>2021-08-07T11:42:44Z</time>
      </trkpt>
      <trkpt lat="50.6696" lon="2.85596">
        <ele>19.84</ele>
        <time>2021-08-07T11:42:48Z</time>
      </trkpt>
      <trkpt lat="50.66924" lon="2.85654">
        <ele>19.84</ele>
        <time>2021-08-07T11:42:59Z</time>
      </trkpt>
      <trkpt lat="50.66888" lon="2.85686">
        <ele>21.29</ele>
        <time>2021-08-07T11:43:08Z</time>
      </trkpt>
      <trkpt lat="50.66856" lon="2.8571">
        <ele>21.29</ele>
        <time>2021-08-07T11:43:16Z</time>
      </trkpt>
      <trkpt lat="50.66816" lon="2.85741">
        <ele>21.77</ele>
        <time>2021-08-07T11:43:26Z</time>
      </trkpt>
      <trkpt lat="50.66803" lon="2.85748">
        <ele>20.32</ele>
        <time>2021-08-07T11:43:29Z</time>
      </trkpt>
      <trkpt lat="50.6676" lon="2.85767">
        <ele>20.32</ele>
        <time>2021-08-07T11:43:39Z</time>
      </trkpt>
      <trkpt lat="50.66704" lon="2.85786">
        <ele>21.29</ele>
        <time>2021-08-07T11:43:52Z</time>
      </trkpt>
      <trkpt lat="50.66661" lon="2.85802">
        <ele>20.32</ele>
        <time>2021-08-07T11:44:02Z</time>
      </trkpt>
      <trkpt lat="50.66618" lon="2.85822">
        <ele>20.32</ele>
        <time>2021-08-07T11:44:12Z</time>
      </trkpt>
      <trkpt lat="50.66575" lon="2.85849">
        <ele>19.36</ele>
        <time>2021-08-07T11:44:22Z</time>
      </trkpt>
      <trkpt lat="50.66537" lon="2.85878">
        <ele>20.32</ele>
        <time>2021-08-07T11:44:31Z</time>
      </trkpt>
      <trkpt lat="50.66489" lon="2.85919">
        <ele>20.81</ele>
        <time>2021-08-07T11:44:43Z</time>
      </trkpt>
      <trkpt lat="50.66451" lon="2.85943">
        <ele>20.32</ele>
        <time>2021-08-07T11:44:52Z</time>
      </trkpt>
      <trkpt lat="50.66424" lon="2.85951">
        <ele>20.32</ele>
        <time>2021-08-07T11:44:58Z</time>
      </trkpt>
      <trkpt lat="50.66373" lon="2.85962">
        <ele>20.32</ele>
        <time>2021-08-07T11:45:10Z</time>
      </trkpt>
      <trkpt lat="50.66334" lon="2.85967">
        <ele>20.32</ele>
        <time>2021-08-07T11:45:19Z</time>
      </trkpt>
      <trkpt lat="50.6633" lon="2.85967">
        <ele>20.32</ele>
        <time>2021-08-07T11:45:20Z</time>
      </trkpt>
      <trkpt lat="50.66326" lon="2.85967">
        <ele>20.32</ele>
        <time>2021-08-07T11:45:21Z</time>
      </trkpt>
      <trkpt lat="50.66322" lon="2.85967">
        <ele>20.32</ele>
        <time>2021-08-07T11:45:22Z</time>
      </trkpt>
      <trkpt lat="50.66283" lon="2.85972">
        <ele>20.32</ele>
        <time>2021-08-07T11:45:32Z</time>
      </trkpt>
      <trkpt lat="50.6625" lon="2.85986">
        <ele>20.32</ele>
        <time>2021-08-07T11:45:41Z</time>
      </trkpt>
      <trkpt lat="50.66205" lon="2.86011">
        <ele>20.81</ele>
        <time>2021-08-07T11:45:53Z</time>
      </trkpt>
      <trkpt lat="50.6616" lon="2.86038">
        <ele>20.81</ele>
        <time>2021-08-07T11:46:05Z</time>
      </trkpt>
      <trkpt lat="50.66141" lon="2.86049">
        <ele>20.81</ele>
        <time>2021-08-07T11:46:10Z</time>
      </trkpt>
      <trkpt lat="50.66114" lon="2.86062">
        <ele>21.29</ele>
        <time>2021-08-07T11:46:17Z</time>
      </trkpt>
      <trkpt lat="50.66081" lon="2.86083">
        <ele>21.29</ele>
        <time>2021-08-07T11:46:26Z</time>
      </trkpt>
      <trkpt lat="50.66067" lon="2.86083">
        <ele>21.29</ele>
        <time>2021-08-07T11:46:30Z</time>
      </trkpt>
      <trkpt lat="50.66065" lon="2.8608">
        <ele>21.77</ele>
        <time>2021-08-07T11:46:31Z</time>
      </trkpt>
      <trkpt lat="50.66063" lon="2.86075">
        <ele>21.77</ele>
        <time>2021-08-07T11:46:32Z</time>
      </trkpt>
      <trkpt lat="50.66062" lon="2.86071">
        <ele>21.77</ele>
        <time>2021-08-07T11:46:33Z</time>
      </trkpt>
      <trkpt lat="50.66061" lon="2.86065">
        <ele>21.77</ele>
        <time>2021-08-07T11:46:34Z</time>
      </trkpt>
      <trkpt lat="50.66044" lon="2.86005">
        <ele>21.77</ele>
        <time>2021-08-07T11:46:44Z</time>
      </trkpt>
      <trkpt lat="50.66018" lon="2.8594">
        <ele>21.77</ele>
        <time>2021-08-07T11:46:55Z</time>
      </trkpt>
      <trkpt lat="50.65987" lon="2.8588">
        <ele>21.77</ele>
        <time>2021-08-07T11:47:06Z</time>
      </trkpt>
      <trkpt lat="50.65971" lon="2.8585">
        <ele>21.77</ele>
        <time>2021-08-07T11:47:13Z</time>
      </trkpt>
      <trkpt lat="50.65969" lon="2.85845">
        <ele>21.77</ele>
        <time>2021-08-07T11:47:14Z</time>
      </trkpt>
      <trkpt lat="50.65968" lon="2.85843">
        <ele>21.77</ele>
        <time>2021-08-07T11:47:15Z</time>
      </trkpt>
      <trkpt lat="50.65967" lon="2.85841">
        <ele>21.77</ele>
        <time>2021-08-07T11:47:16Z</time>
      </trkpt>
      <trkpt lat="50.65965" lon="2.85839">
        <ele>21.77</ele>
        <time>2021-08-07T11:47:17Z</time>
      </trkpt>
      <trkpt lat="50.65963" lon="2.85839">
        <ele>21.77</ele>
        <time>2021-08-07T11:47:18Z</time>
      </trkpt>
      <trkpt lat="50.65961" lon="2.85841">
        <ele>21.77</ele>
        <time>2021-08-07T11:47:19Z</time>
      </trkpt>
      <trkpt lat="50.65959" lon="2.85845">
        <ele>21.77</ele>
        <time>2021-08-07T11:47:20Z</time>
      </trkpt>
      <trkpt lat="50.65959" lon="2.8585">
        <ele>21.77</ele>
        <time>2021-08-07T11:47:21Z</time>
      </trkpt>
      <trkpt lat="50.6596" lon="2.85855">
        <ele>21.77</ele>
        <time>2021-08-07T11:47:22Z</time>
      </trkpt>
      <trkpt lat="50.65961" lon="2.8586">
        <ele>21.77</ele>
        <time>2021-08-07T11:47:23Z</time>
      </trkpt>
      <trkpt lat="50.65967" lon="2.85905">
        <ele>22.25</ele>
        <time>2021-08-07T11:47:31Z</time>
      </trkpt>
      <trkpt lat="50.6597" lon="2.85931">
        <ele>22.25</ele>
        <time>2021-08-07T11:47:35Z</time>
      </trkpt>
      <trkpt lat="50.6597" lon="2.85937">
        <ele>22.25</ele>
        <time>2021-08-07T11:47:36Z</time>
      </trkpt>
      <trkpt lat="50.65973" lon="2.8595">
        <ele>22.73</ele>
        <time>2021-08-07T11:47:38Z</time>
      </trkpt>
      <trkpt lat="50.65977" lon="2.85963">
        <ele>22.73</ele>
        <time>2021-08-07T11:47:40Z</time>
      </trkpt>
      <trkpt lat="50.65978" lon="2.85969">
        <ele>22.73</ele>
        <time>2021-08-07T11:47:41Z</time>
      </trkpt>
      <trkpt lat="50.6598" lon="2.85975">
        <ele>22.73</ele>
        <time>2021-08-07T11:47:42Z</time>
      </trkpt>
      <trkpt lat="50.65982" lon="2.85982">
        <ele>22.73</ele>
        <time>2021-08-07T11:47:43Z</time>
      </trkpt>
      <trkpt lat="50.65983" lon="2.85989">
        <ele>22.73</ele>
        <time>2021-08-07T11:47:44Z</time>
      </trkpt>
      <trkpt lat="50.65983" lon="2.85995">
        <ele>22.73</ele>
        <time>2021-08-07T11:47:45Z</time>
      </trkpt>
      <trkpt lat="50.65983" lon="2.86002">
        <ele>22.73</ele>
        <time>2021-08-07T11:47:46Z</time>
      </trkpt>
      <trkpt lat="50.65982" lon="2.8601">
        <ele>22.73</ele>
        <time>2021-08-07T11:47:47Z</time>
      </trkpt>
      <trkpt lat="50.65981" lon="2.86017">
        <ele>21.29</ele>
        <time>2021-08-07T11:47:48Z</time>
      </trkpt>
      <trkpt lat="50.65979" lon="2.86024">
        <ele>21.29</ele>
        <time>2021-08-07T11:47:49Z</time>
      </trkpt>
      <trkpt lat="50.65977" lon="2.86032">
        <ele>20.81</ele>
        <time>2021-08-07T11:47:50Z</time>
      </trkpt>
      <trkpt lat="50.65964" lon="2.86069">
        <ele>20.32</ele>
        <time>2021-08-07T11:47:55Z</time>
      </trkpt>
      <trkpt lat="50.6596" lon="2.86075">
        <ele>20.32</ele>
        <time>2021-08-07T11:47:56Z</time>
      </trkpt>
      <trkpt lat="50.65956" lon="2.8608">
        <ele>19.36</ele>
        <time>2021-08-07T11:47:57Z</time>
      </trkpt>
      <trkpt lat="50.65951" lon="2.86085">
        <ele>19.36</ele>
        <time>2021-08-07T11:47:58Z</time>
      </trkpt>
      <trkpt lat="50.65946" lon="2.8609">
        <ele>19.36</ele>
        <time>2021-08-07T11:47:59Z</time>
      </trkpt>
      <trkpt lat="50.65907" lon="2.86124">
        <ele>19.36</ele>
        <time>2021-08-07T11:48:08Z</time>
      </trkpt>
      <trkpt lat="50.6586" lon="2.86167">
        <ele>19.36</ele>
        <time>2021-08-07T11:48:19Z</time>
      </trkpt>
      <trkpt lat="50.65818" lon="2.86206">
        <ele>18.88</ele>
        <time>2021-08-07T11:48:29Z</time>
      </trkpt>
      <trkpt lat="50.6579" lon="2.86232">
        <ele>20.32</ele>
        <time>2021-08-07T11:48:36Z</time>
      </trkpt>
      <trkpt lat="50.6575" lon="2.86271">
        <ele>20.32</ele>
        <time>2021-08-07T11:48:46Z</time>
      </trkpt>
      <trkpt lat="50.6571" lon="2.86309">
        <ele>20.81</ele>
        <time>2021-08-07T11:48:56Z</time>
      </trkpt>
      <trkpt lat="50.65663" lon="2.86351">
        <ele>20.81</ele>
        <time>2021-08-07T11:49:07Z</time>
      </trkpt>
      <trkpt lat="50.65613" lon="2.86397">
        <ele>20.81</ele>
        <time>2021-08-07T11:49:19Z</time>
      </trkpt>
      <trkpt lat="50.65559" lon="2.86446">
        <ele>20.81</ele>
        <time>2021-08-07T11:49:32Z</time>
      </trkpt>
      <trkpt lat="50.65555" lon="2.86449">
        <ele>20.81</ele>
        <time>2021-08-07T11:49:33Z</time>
      </trkpt>
      <trkpt lat="50.65551" lon="2.86453">
        <ele>20.81</ele>
        <time>2021-08-07T11:49:34Z</time>
      </trkpt>
      <trkpt lat="50.65517" lon="2.86485">
        <ele>21.77</ele>
        <time>2021-08-07T11:49:42Z</time>
      </trkpt>
      <trkpt lat="50.65474" lon="2.86524">
        <ele>22.25</ele>
        <time>2021-08-07T11:49:52Z</time>
      </trkpt>
      <trkpt lat="50.65427" lon="2.86563">
        <ele>20.81</ele>
        <time>2021-08-07T11:50:02Z</time>
      </trkpt>
      <trkpt lat="50.65385" lon="2.86597">
        <ele>20.81</ele>
        <time>2021-08-07T11:50:11Z</time>
      </trkpt>
      <trkpt lat="50.65353" lon="2.86628">
        <ele>21.77</ele>
        <time>2021-08-07T11:50:18Z</time>
      </trkpt>
      <trkpt lat="50.65308" lon="2.86671">
        <ele>21.77</ele>
        <time>2021-08-07T11:50:28Z</time>
      </trkpt>
      <trkpt lat="50.65258" lon="2.8672">
        <ele>21.77</ele>
        <time>2021-08-07T11:50:39Z</time>
      </trkpt>
      <trkpt lat="50.6521" lon="2.86773">
        <ele>21.77</ele>
        <time>2021-08-07T11:50:50Z</time>
      </trkpt>
      <trkpt lat="50.65159" lon="2.86823">
        <ele>21.77</ele>
        <time>2021-08-07T11:51:01Z</time>
      </trkpt>
      <trkpt lat="50.65107" lon="2.86868">
        <ele>21.77</ele>
        <time>2021-08-07T11:51:12Z</time>
      </trkpt>
      <trkpt lat="50.65062" lon="2.86906">
        <ele>20.81</ele>
        <time>2021-08-07T11:51:22Z</time>
      </trkpt>
      <trkpt lat="50.65032" lon="2.86926">
        <ele>20.32</ele>
        <time>2021-08-07T11:51:30Z</time>
      </trkpt>
      <trkpt lat="50.65029" lon="2.86928">
        <ele>20.32</ele>
        <time>2021-08-07T11:51:31Z</time>
      </trkpt>
      <trkpt lat="50.65025" lon="2.86931">
        <ele>20.32</ele>
        <time>2021-08-07T11:51:32Z</time>
      </trkpt>
      <trkpt lat="50.64983" lon="2.86963">
        <ele>20.32</ele>
        <time>2021-08-07T11:51:42Z</time>
      </trkpt>
      <trkpt lat="50.64941" lon="2.86992">
        <ele>21.77</ele>
        <time>2021-08-07T11:51:52Z</time>
      </trkpt>
      <trkpt lat="50.64898" lon="2.87024">
        <ele>22.25</ele>
        <time>2021-08-07T11:52:02Z</time>
      </trkpt>
      <trkpt lat="50.64874" lon="2.87036">
        <ele>21.77</ele>
        <time>2021-08-07T11:52:09Z</time>
      </trkpt>
      <trkpt lat="50.64871" lon="2.87037">
        <ele>21.77</ele>
        <time>2021-08-07T11:52:11Z</time>
      </trkpt>
      <trkpt lat="50.64869" lon="2.87039">
        <ele>22.73</ele>
        <time>2021-08-07T11:52:12Z</time>
      </trkpt>
      <trkpt lat="50.64867" lon="2.87041">
        <ele>22.73</ele>
        <time>2021-08-07T11:52:13Z</time>
      </trkpt>
      <trkpt lat="50.6485" lon="2.8705">
        <ele>22.73</ele>
        <time>2021-08-07T11:52:18Z</time>
      </trkpt>
      <trkpt lat="50.64845" lon="2.87049">
        <ele>22.73</ele>
        <time>2021-08-07T11:52:19Z</time>
      </trkpt>
      <trkpt lat="50.64842" lon="2.87048">
        <ele>22.73</ele>
        <time>2021-08-07T11:52:20Z</time>
      </trkpt>
      <trkpt lat="50.64822" lon="2.87047">
        <ele>22.73</ele>
        <time>2021-08-07T11:52:25Z</time>
      </trkpt>
      <trkpt lat="50.64817" lon="2.8705">
        <ele>22.73</ele>
        <time>2021-08-07T11:52:26Z</time>
      </trkpt>
      <trkpt lat="50.64813" lon="2.87053">
        <ele>22.73</ele>
        <time>2021-08-07T11:52:27Z</time>
      </trkpt>
      <trkpt lat="50.64792" lon="2.87075">
        <ele>22.73</ele>
        <time>2021-08-07T11:52:33Z</time>
      </trkpt>
      <trkpt lat="50.64787" lon="2.8708">
        <ele>22.73</ele>
        <time>2021-08-07T11:52:34Z</time>
      </trkpt>
      <trkpt lat="50.64771" lon="2.87092">
        <ele>22.73</ele>
        <time>2021-08-07T11:52:38Z</time>
      </trkpt>
      <trkpt lat="50.64763" lon="2.87098">
        <ele>22.73</ele>
        <time>2021-08-07T11:52:40Z</time>
      </trkpt>
      <trkpt lat="50.64739" lon="2.87123">
        <ele>22.73</ele>
        <time>2021-08-07T11:52:46Z</time>
      </trkpt>
      <trkpt lat="50.64736" lon="2.87129">
        <ele>22.73</ele>
        <time>2021-08-07T11:52:47Z</time>
      </trkpt>
      <trkpt lat="50.64733" lon="2.87136">
        <ele>22.73</ele>
        <time>2021-08-07T11:52:48Z</time>
      </trkpt>
      <trkpt lat="50.64726" lon="2.87153">
        <ele>22.73</ele>
        <time>2021-08-07T11:52:51Z</time>
      </trkpt>
      <trkpt lat="50.64723" lon="2.87157">
        <ele>22.73</ele>
        <time>2021-08-07T11:52:52Z</time>
      </trkpt>
      <trkpt lat="50.64719" lon="2.87161">
        <ele>22.73</ele>
        <time>2021-08-07T11:52:53Z</time>
      </trkpt>
      <trkpt lat="50.6468" lon="2.87194">
        <ele>23.21</ele>
        <time>2021-08-07T11:53:03Z</time>
      </trkpt>
      <trkpt lat="50.64643" lon="2.87231">
        <ele>23.21</ele>
        <time>2021-08-07T11:53:12Z</time>
      </trkpt>
      <trkpt lat="50.6463" lon="2.87245">
        <ele>21.77</ele>
        <time>2021-08-07T11:53:15Z</time>
      </trkpt>
      <trkpt lat="50.64627" lon="2.87251">
        <ele>21.77</ele>
        <time>2021-08-07T11:53:16Z</time>
      </trkpt>
      <trkpt lat="50.64625" lon="2.87258">
        <ele>21.77</ele>
        <time>2021-08-07T11:53:17Z</time>
      </trkpt>
      <trkpt lat="50.6461" lon="2.87324">
        <ele>21.77</ele>
        <time>2021-08-07T11:53:26Z</time>
      </trkpt>
      <trkpt lat="50.64594" lon="2.87395">
        <ele>21.77</ele>
        <time>2021-08-07T11:53:36Z</time>
      </trkpt>
      <trkpt lat="50.64588" lon="2.87424">
        <ele>22.73</ele>
        <time>2021-08-07T11:53:40Z</time>
      </trkpt>
      <trkpt lat="50.64589" lon="2.87431">
        <ele>22.73</ele>
        <time>2021-08-07T11:53:41Z</time>
      </trkpt>
      <trkpt lat="50.6459" lon="2.87438">
        <ele>22.73</ele>
        <time>2021-08-07T11:53:42Z</time>
      </trkpt>
      <trkpt lat="50.64592" lon="2.87445">
        <ele>22.73</ele>
        <time>2021-08-07T11:53:43Z</time>
      </trkpt>
      <trkpt lat="50.64595" lon="2.87452">
        <ele>22.73</ele>
        <time>2021-08-07T11:53:44Z</time>
      </trkpt>
      <trkpt lat="50.64597" lon="2.87458">
        <ele>22.73</ele>
        <time>2021-08-07T11:53:45Z</time>
      </trkpt>
      <trkpt lat="50.64602" lon="2.87471">
        <ele>22.73</ele>
        <time>2021-08-07T11:53:47Z</time>
      </trkpt>
      <trkpt lat="50.64605" lon="2.87477">
        <ele>22.73</ele>
        <time>2021-08-07T11:53:48Z</time>
      </trkpt>
      <trkpt lat="50.6463" lon="2.87542">
        <ele>21.77</ele>
        <time>2021-08-07T11:53:58Z</time>
      </trkpt>
      <trkpt lat="50.64659" lon="2.87616">
        <ele>21.77</ele>
        <time>2021-08-07T11:54:09Z</time>
      </trkpt>
      <trkpt lat="50.64668" lon="2.87649">
        <ele>21.77</ele>
        <time>2021-08-07T11:54:15Z</time>
      </trkpt>
      <trkpt lat="50.64668" lon="2.87652">
        <ele>21.77</ele>
        <time>2021-08-07T11:54:17Z</time>
      </trkpt>
      <trkpt lat="50.64667" lon="2.87655">
        <ele>21.77</ele>
        <time>2021-08-07T11:54:18Z</time>
      </trkpt>
      <trkpt lat="50.64665" lon="2.87657">
        <ele>21.77</ele>
        <time>2021-08-07T11:54:19Z</time>
      </trkpt>
      <trkpt lat="50.64645" lon="2.87675">
        <ele>21.77</ele>
        <time>2021-08-07T11:54:25Z</time>
      </trkpt>
      <trkpt lat="50.64602" lon="2.87717">
        <ele>21.77</ele>
        <time>2021-08-07T11:54:36Z</time>
      </trkpt>
      <trkpt lat="50.64594" lon="2.87726">
        <ele>21.77</ele>
        <time>2021-08-07T11:54:38Z</time>
      </trkpt>
      <trkpt lat="50.64584" lon="2.8774">
        <ele>21.77</ele>
        <time>2021-08-07T11:54:41Z</time>
      </trkpt>
      <trkpt lat="50.64579" lon="2.87743">
        <ele>21.77</ele>
        <time>2021-08-07T11:54:42Z</time>
      </trkpt>
      <trkpt lat="50.64571" lon="2.8775">
        <ele>21.77</ele>
        <time>2021-08-07T11:54:44Z</time>
      </trkpt>
      <trkpt lat="50.64567" lon="2.87754">
        <ele>21.77</ele>
        <time>2021-08-07T11:54:45Z</time>
      </trkpt>
      <trkpt lat="50.64563" lon="2.87759">
        <ele>21.77</ele>
        <time>2021-08-07T11:54:46Z</time>
      </trkpt>
      <trkpt lat="50.64559" lon="2.87763">
        <ele>21.77</ele>
        <time>2021-08-07T11:54:47Z</time>
      </trkpt>
      <trkpt lat="50.64555" lon="2.87766">
        <ele>21.77</ele>
        <time>2021-08-07T11:54:48Z</time>
      </trkpt>
      <trkpt lat="50.6455" lon="2.87769">
        <ele>21.77</ele>
        <time>2021-08-07T11:54:49Z</time>
      </trkpt>
      <trkpt lat="50.64505" lon="2.87805">
        <ele>21.77</ele>
        <time>2021-08-07T11:54:59Z</time>
      </trkpt>
      <trkpt lat="50.64461" lon="2.87844">
        <ele>21.77</ele>
        <time>2021-08-07T11:55:09Z</time>
      </trkpt>
      <trkpt lat="50.64421" lon="2.87881">
        <ele>21.29</ele>
        <time>2021-08-07T11:55:18Z</time>
      </trkpt>
      <trkpt lat="50.64366" lon="2.87916">
        <ele>21.29</ele>
        <time>2021-08-07T11:55:30Z</time>
      </trkpt>
      <trkpt lat="50.64314" lon="2.87946">
        <ele>20.81</ele>
        <time>2021-08-07T11:55:41Z</time>
      </trkpt>
      <trkpt lat="50.64281" lon="2.87965">
        <ele>22.73</ele>
        <time>2021-08-07T11:55:48Z</time>
      </trkpt>
      <trkpt lat="50.64224" lon="2.87998">
        <ele>22.25</ele>
        <time>2021-08-07T11:56:00Z</time>
      </trkpt>
      <trkpt lat="50.64169" lon="2.88029">
        <ele>22.73</ele>
        <time>2021-08-07T11:56:12Z</time>
      </trkpt>
      <trkpt lat="50.64113" lon="2.88061">
        <ele>23.21</ele>
        <time>2021-08-07T11:56:24Z</time>
      </trkpt>
      <trkpt lat="50.64065" lon="2.88089">
        <ele>21.77</ele>
        <time>2021-08-07T11:56:34Z</time>
      </trkpt>
      <trkpt lat="50.6406" lon="2.88092">
        <ele>21.77</ele>
        <time>2021-08-07T11:56:35Z</time>
      </trkpt>
      <trkpt lat="50.64023" lon="2.88113">
        <ele>21.77</ele>
        <time>2021-08-07T11:56:43Z</time>
      </trkpt>
      <trkpt lat="50.64019" lon="2.88117">
        <ele>21.77</ele>
        <time>2021-08-07T11:56:44Z</time>
      </trkpt>
      <trkpt lat="50.64015" lon="2.88122">
        <ele>21.77</ele>
        <time>2021-08-07T11:56:45Z</time>
      </trkpt>
      <trkpt lat="50.64011" lon="2.88127">
        <ele>21.77</ele>
        <time>2021-08-07T11:56:46Z</time>
      </trkpt>
      <trkpt lat="50.64008" lon="2.88133">
        <ele>21.77</ele>
        <time>2021-08-07T11:56:47Z</time>
      </trkpt>
      <trkpt lat="50.64005" lon="2.88139">
        <ele>21.77</ele>
        <time>2021-08-07T11:56:48Z</time>
      </trkpt>
      <trkpt lat="50.64003" lon="2.88146">
        <ele>21.77</ele>
        <time>2021-08-07T11:56:49Z</time>
      </trkpt>
      <trkpt lat="50.64001" lon="2.88153">
        <ele>21.77</ele>
        <time>2021-08-07T11:56:50Z</time>
      </trkpt>
      <trkpt lat="50.64" lon="2.8816">
        <ele>21.77</ele>
        <time>2021-08-07T11:56:51Z</time>
      </trkpt>
      <trkpt lat="50.63994" lon="2.8819">
        <ele>21.77</ele>
        <time>2021-08-07T11:56:55Z</time>
      </trkpt>
      <trkpt lat="50.63993" lon="2.88197">
        <ele>21.77</ele>
        <time>2021-08-07T11:56:56Z</time>
      </trkpt>
      <trkpt lat="50.63976" lon="2.88289">
        <ele>21.77</ele>
        <time>2021-08-07T11:57:08Z</time>
      </trkpt>
      <trkpt lat="50.63963" lon="2.88349">
        <ele>21.77</ele>
        <time>2021-08-07T11:57:16Z</time>
      </trkpt>
      <trkpt lat="50.63941" lon="2.88421">
        <ele>21.77</ele>
        <time>2021-08-07T11:57:26Z</time>
      </trkpt>
      <trkpt lat="50.63931" lon="2.88449">
        <ele>21.77</ele>
        <time>2021-08-07T11:57:30Z</time>
      </trkpt>
      <trkpt lat="50.63925" lon="2.88463">
        <ele>21.77</ele>
        <time>2021-08-07T11:57:32Z</time>
      </trkpt>
      <trkpt lat="50.63922" lon="2.88469">
        <ele>21.77</ele>
        <time>2021-08-07T11:57:33Z</time>
      </trkpt>
      <trkpt lat="50.63905" lon="2.88499">
        <ele>21.77</ele>
        <time>2021-08-07T11:57:38Z</time>
      </trkpt>
      <trkpt lat="50.63863" lon="2.88571">
        <ele>22.73</ele>
        <time>2021-08-07T11:57:50Z</time>
      </trkpt>
      <trkpt lat="50.63827" lon="2.88631">
        <ele>23.21</ele>
        <time>2021-08-07T11:58:00Z</time>
      </trkpt>
      <trkpt lat="50.63787" lon="2.88697">
        <ele>23.21</ele>
        <time>2021-08-07T11:58:11Z</time>
      </trkpt>
      <trkpt lat="50.63742" lon="2.8877">
        <ele>22.25</ele>
        <time>2021-08-07T11:58:23Z</time>
      </trkpt>
      <trkpt lat="50.6371" lon="2.88823">
        <ele>22.25</ele>
        <time>2021-08-07T11:58:32Z</time>
      </trkpt>
      <trkpt lat="50.63671" lon="2.88887">
        <ele>23.21</ele>
        <time>2021-08-07T11:58:43Z</time>
      </trkpt>
      <trkpt lat="50.63643" lon="2.88932">
        <ele>21.29</ele>
        <time>2021-08-07T11:58:51Z</time>
      </trkpt>
      <trkpt lat="50.63597" lon="2.89007">
        <ele>22.73</ele>
        <time>2021-08-07T11:59:04Z</time>
      </trkpt>
      <trkpt lat="50.63556" lon="2.89073">
        <ele>22.25</ele>
        <time>2021-08-07T11:59:15Z</time>
      </trkpt>
      <trkpt lat="50.63521" lon="2.89131">
        <ele>21.77</ele>
        <time>2021-08-07T11:59:25Z</time>
      </trkpt>
      <trkpt lat="50.63469" lon="2.89217">
        <ele>21.77</ele>
        <time>2021-08-07T11:59:40Z</time>
      </trkpt>
      <trkpt lat="50.6343" lon="2.89279">
        <ele>23.21</ele>
        <time>2021-08-07T11:59:51Z</time>
      </trkpt>
      <trkpt lat="50.63399" lon="2.89317">
        <ele>23.21</ele>
        <time>2021-08-07T11:59:59Z</time>
      </trkpt>
      <trkpt lat="50.63362" lon="2.89348">
        <ele>23.21</ele>
        <time>2021-08-07T12:00:08Z</time>
      </trkpt>
      <trkpt lat="50.63341" lon="2.89368">
        <ele>21.29</ele>
        <time>2021-08-07T12:00:13Z</time>
      </trkpt>
      <trkpt lat="50.63313" lon="2.89396">
        <ele>20.81</ele>
        <time>2021-08-07T12:00:20Z</time>
      </trkpt>
      <trkpt lat="50.63279" lon="2.8943">
        <ele>21.29</ele>
        <time>2021-08-07T12:00:29Z</time>
      </trkpt>
      <trkpt lat="50.63242" lon="2.89468">
        <ele>21.77</ele>
        <time>2021-08-07T12:00:39Z</time>
      </trkpt>
      <trkpt lat="50.63231" lon="2.8948">
        <ele>20.32</ele>
        <time>2021-08-07T12:00:42Z</time>
      </trkpt>
      <trkpt lat="50.63186" lon="2.89524">
        <ele>21.29</ele>
        <time>2021-08-07T12:00:54Z</time>
      </trkpt>
      <trkpt lat="50.63152" lon="2.89554">
        <ele>21.77</ele>
        <time>2021-08-07T12:01:03Z</time>
      </trkpt>
      <trkpt lat="50.6312" lon="2.89583">
        <ele>22.25</ele>
        <time>2021-08-07T12:01:11Z</time>
      </trkpt>
      <trkpt lat="50.63085" lon="2.89623">
        <ele>23.21</ele>
        <time>2021-08-07T12:01:21Z</time>
      </trkpt>
      <trkpt lat="50.63054" lon="2.89666">
        <ele>22.73</ele>
        <time>2021-08-07T12:01:30Z</time>
      </trkpt>
      <trkpt lat="50.63015" lon="2.8972">
        <ele>23.21</ele>
        <time>2021-08-07T12:01:41Z</time>
      </trkpt>
      <trkpt lat="50.62983" lon="2.89763">
        <ele>23.21</ele>
        <time>2021-08-07T12:01:50Z</time>
      </trkpt>
      <trkpt lat="50.62976" lon="2.89772">
        <ele>23.21</ele>
        <time>2021-08-07T12:01:52Z</time>
      </trkpt>
      <trkpt lat="50.62972" lon="2.89776">
        <ele>23.21</ele>
        <time>2021-08-07T12:01:53Z</time>
      </trkpt>
      <trkpt lat="50.62968" lon="2.89782">
        <ele>23.21</ele>
        <time>2021-08-07T12:01:54Z</time>
      </trkpt>
      <trkpt lat="50.6293" lon="2.89836">
        <ele>23.21</ele>
        <time>2021-08-07T12:02:05Z</time>
      </trkpt>
      <trkpt lat="50.62892" lon="2.89893">
        <ele>23.21</ele>
        <time>2021-08-07T12:02:16Z</time>
      </trkpt>
      <trkpt lat="50.62861" lon="2.89943">
        <ele>23.21</ele>
        <time>2021-08-07T12:02:25Z</time>
      </trkpt>
      <trkpt lat="50.62838" lon="2.89981">
        <ele>22.25</ele>
        <time>2021-08-07T12:02:32Z</time>
      </trkpt>
      <trkpt lat="50.62834" lon="2.89988">
        <ele>22.25</ele>
        <time>2021-08-07T12:02:33Z</time>
      </trkpt>
      <trkpt lat="50.6283" lon="2.89993">
        <ele>22.25</ele>
        <time>2021-08-07T12:02:34Z</time>
      </trkpt>
      <trkpt lat="50.62814" lon="2.90019">
        <ele>22.25</ele>
        <time>2021-08-07T12:02:39Z</time>
      </trkpt>
      <trkpt lat="50.62793" lon="2.90055">
        <ele>23.21</ele>
        <time>2021-08-07T12:02:45Z</time>
      </trkpt>
      <trkpt lat="50.62769" lon="2.90094">
        <ele>23.21</ele>
        <time>2021-08-07T12:02:52Z</time>
      </trkpt>
      <trkpt lat="50.62746" lon="2.90135">
        <ele>21.77</ele>
        <time>2021-08-07T12:02:59Z</time>
      </trkpt>
      <trkpt lat="50.62742" lon="2.9014">
        <ele>21.77</ele>
        <time>2021-08-07T12:03:00Z</time>
      </trkpt>
      <trkpt lat="50.62732" lon="2.90157">
        <ele>23.21</ele>
        <time>2021-08-07T12:03:03Z</time>
      </trkpt>
      <trkpt lat="50.62693" lon="2.9022">
        <ele>23.21</ele>
        <time>2021-08-07T12:03:14Z</time>
      </trkpt>
      <trkpt lat="50.62654" lon="2.90269">
        <ele>23.21</ele>
        <time>2021-08-07T12:03:24Z</time>
      </trkpt>
      <trkpt lat="50.62617" lon="2.90309">
        <ele>23.21</ele>
        <time>2021-08-07T12:03:33Z</time>
      </trkpt>
      <trkpt lat="50.62574" lon="2.90356">
        <ele>23.69</ele>
        <time>2021-08-07T12:03:44Z</time>
      </trkpt>
      <trkpt lat="50.62544" lon="2.9039">
        <ele>22.73</ele>
        <time>2021-08-07T12:03:52Z</time>
      </trkpt>
      <trkpt lat="50.62532" lon="2.90403">
        <ele>22.25</ele>
        <time>2021-08-07T12:03:55Z</time>
      </trkpt>
      <trkpt lat="50.62524" lon="2.90411">
        <ele>22.25</ele>
        <time>2021-08-07T12:03:57Z</time>
      </trkpt>
      <trkpt lat="50.6252" lon="2.90416">
        <ele>22.25</ele>
        <time>2021-08-07T12:03:58Z</time>
      </trkpt>
      <trkpt lat="50.62477" lon="2.90459">
        <ele>22.25</ele>
        <time>2021-08-07T12:04:09Z</time>
      </trkpt>
      <trkpt lat="50.62451" lon="2.90481">
        <ele>22.25</ele>
        <time>2021-08-07T12:04:16Z</time>
      </trkpt>
      <trkpt lat="50.62447" lon="2.90484">
        <ele>22.25</ele>
        <time>2021-08-07T12:04:17Z</time>
      </trkpt>
      <trkpt lat="50.62409" lon="2.90514">
        <ele>23.69</ele>
        <time>2021-08-07T12:04:27Z</time>
      </trkpt>
      <trkpt lat="50.62397" lon="2.90521">
        <ele>22.25</ele>
        <time>2021-08-07T12:04:30Z</time>
      </trkpt>
      <trkpt lat="50.62355" lon="2.90537">
        <ele>23.69</ele>
        <time>2021-08-07T12:04:40Z</time>
      </trkpt>
      <trkpt lat="50.6232" lon="2.90548">
        <ele>23.69</ele>
        <time>2021-08-07T12:04:48Z</time>
      </trkpt>
      <trkpt lat="50.62282" lon="2.90564">
        <ele>23.69</ele>
        <time>2021-08-07T12:04:57Z</time>
      </trkpt>
      <trkpt lat="50.62237" lon="2.90594">
        <ele>23.69</ele>
        <time>2021-08-07T12:05:08Z</time>
      </trkpt>
      <trkpt lat="50.62218" lon="2.90609">
        <ele>24.17</ele>
        <time>2021-08-07T12:05:13Z</time>
      </trkpt>
      <trkpt lat="50.62191" lon="2.90641">
        <ele>24.17</ele>
        <time>2021-08-07T12:05:21Z</time>
      </trkpt>
      <trkpt lat="50.62187" lon="2.90645">
        <ele>24.17</ele>
        <time>2021-08-07T12:05:22Z</time>
      </trkpt>
      <trkpt lat="50.6218" lon="2.90651">
        <ele>24.65</ele>
        <time>2021-08-07T12:05:24Z</time>
      </trkpt>
      <trkpt lat="50.62153" lon="2.90662">
        <ele>25.61</ele>
        <time>2021-08-07T12:05:32Z</time>
      </trkpt>
      <trkpt lat="50.6214" lon="2.90666">
        <ele>26.57</ele>
        <time>2021-08-07T12:05:38Z</time>
      </trkpt>
      <trkpt lat="50.62121" lon="2.90673">
        <ele>27.53</ele>
        <time>2021-08-07T12:05:44Z</time>
      </trkpt>
      <trkpt lat="50.62094" lon="2.90683">
        <ele>28.98</ele>
        <time>2021-08-07T12:05:53Z</time>
      </trkpt>
      <trkpt lat="50.62071" lon="2.90694">
        <ele>30.42</ele>
        <time>2021-08-07T12:06:02Z</time>
      </trkpt>
      <trkpt lat="50.6205" lon="2.907">
        <ele>30.9</ele>
        <time>2021-08-07T12:06:11Z</time>
      </trkpt>
      <trkpt lat="50.62048" lon="2.90701">
        <ele>31.38</ele>
        <time>2021-08-07T12:06:12Z</time>
      </trkpt>
      <trkpt lat="50.62047" lon="2.90704">
        <ele>31.38</ele>
        <time>2021-08-07T12:06:13Z</time>
      </trkpt>
      <trkpt lat="50.62046" lon="2.90707">
        <ele>31.38</ele>
        <time>2021-08-07T12:06:14Z</time>
      </trkpt>
      <trkpt lat="50.62047" lon="2.90715">
        <ele>31.86</ele>
        <time>2021-08-07T12:06:19Z</time>
      </trkpt>
      <trkpt lat="50.62047" lon="2.90716">
        <ele>31.38</ele>
        <time>2021-08-07T12:06:25Z</time>
      </trkpt>
      <trkpt lat="50.62047" lon="2.90716">
        <ele>31.38</ele>
        <time>2021-08-07T12:06:34Z</time>
      </trkpt>
      <trkpt lat="50.6205" lon="2.90718">
        <ele>31.38</ele>
        <time>2021-08-07T12:06:46Z</time>
      </trkpt>
      <trkpt lat="50.6205" lon="2.90719">
        <ele>31.38</ele>
        <time>2021-08-07T12:07:03Z</time>
      </trkpt>
      <trkpt lat="50.62049" lon="2.90719">
        <ele>31.86</ele>
        <time>2021-08-07T12:07:25Z</time>
      </trkpt>
      <trkpt lat="50.62049" lon="2.9072">
        <ele>31.86</ele>
        <time>2021-08-07T12:07:35Z</time>
      </trkpt>
      <trkpt lat="50.62048" lon="2.90718">
        <ele>31.86</ele>
        <time>2021-08-07T12:07:52Z</time>
      </trkpt>
      <trkpt lat="50.62048" lon="2.90718">
        <ele>31.86</ele>
        <time>2021-08-07T12:08:03Z</time>
      </trkpt>
      <trkpt lat="50.62048" lon="2.90718">
        <ele>31.86</ele>
        <time>2021-08-07T12:08:18Z</time>
      </trkpt>
      <trkpt lat="50.62048" lon="2.90718">
        <ele>31.86</ele>
        <time>2021-08-07T12:08:32Z</time>
      </trkpt>
      <trkpt lat="50.62049" lon="2.90718">
        <ele>31.86</ele>
        <time>2021-08-07T12:08:51Z</time>
      </trkpt>
      <trkpt lat="50.62048" lon="2.90715">
        <ele>31.86</ele>
        <time>2021-08-07T12:09:05Z</time>
      </trkpt>
      <trkpt lat="50.62049" lon="2.90714">
        <ele>31.86</ele>
        <time>2021-08-07T12:09:20Z</time>
      </trkpt>
      <trkpt lat="50.6205" lon="2.90716">
        <ele>31.86</ele>
        <time>2021-08-07T12:09:37Z</time>
      </trkpt>
      <trkpt lat="50.62051" lon="2.90718">
        <ele>31.86</ele>
        <time>2021-08-07T12:09:50Z</time>
      </trkpt>
      <trkpt lat="50.62049" lon="2.90715">
        <ele>31.86</ele>
        <time>2021-08-07T12:10:01Z</time>
      </trkpt>
      <trkpt lat="50.62047" lon="2.90716">
        <ele>31.86</ele>
        <time>2021-08-07T12:10:14Z</time>
      </trkpt>
      <trkpt lat="50.62045" lon="2.90713">
        <ele>31.86</ele>
        <time>2021-08-07T12:10:20Z</time>
      </trkpt>
      <trkpt lat="50.62044" lon="2.90712">
        <ele>31.86</ele>
        <time>2021-08-07T12:10:21Z</time>
      </trkpt>
      <trkpt lat="50.62042" lon="2.9071">
        <ele>31.86</ele>
        <time>2021-08-07T12:10:22Z</time>
      </trkpt>
      <trkpt lat="50.62041" lon="2.9071">
        <ele>31.86</ele>
        <time>2021-08-07T12:10:23Z</time>
      </trkpt>
      <trkpt lat="50.62039" lon="2.9071">
        <ele>31.86</ele>
        <time>2021-08-07T12:10:24Z</time>
      </trkpt>
      <trkpt lat="50.62037" lon="2.90711">
        <ele>31.86</ele>
        <time>2021-08-07T12:10:25Z</time>
      </trkpt>
      <trkpt lat="50.62035" lon="2.90713">
        <ele>31.86</ele>
        <time>2021-08-07T12:10:26Z</time>
      </trkpt>
      <trkpt lat="50.62033" lon="2.90715">
        <ele>31.86</ele>
        <time>2021-08-07T12:10:27Z</time>
      </trkpt>
      <trkpt lat="50.62031" lon="2.90717">
        <ele>31.86</ele>
        <time>2021-08-07T12:10:28Z</time>
      </trkpt>
      <trkpt lat="50.62029" lon="2.90719">
        <ele>31.86</ele>
        <time>2021-08-07T12:10:29Z</time>
      </trkpt>
      <trkpt lat="50.62013" lon="2.90745">
        <ele>31.86</ele>
        <time>2021-08-07T12:10:37Z</time>
      </trkpt>
      <trkpt lat="50.61992" lon="2.90769">
        <ele>31.86</ele>
        <time>2021-08-07T12:10:45Z</time>
      </trkpt>
      <trkpt lat="50.61963" lon="2.90787">
        <ele>31.86</ele>
        <time>2021-08-07T12:10:54Z</time>
      </trkpt>
      <trkpt lat="50.61931" lon="2.90807">
        <ele>31.86</ele>
        <time>2021-08-07T12:11:03Z</time>
      </trkpt>
      <trkpt lat="50.61894" lon="2.90838">
        <ele>32.34</ele>
        <time>2021-08-07T12:11:14Z</time>
      </trkpt>
      <trkpt lat="50.61856" lon="2.90872">
        <ele>32.82</ele>
        <time>2021-08-07T12:11:25Z</time>
      </trkpt>
      <trkpt lat="50.61817" lon="2.90906">
        <ele>32.34</ele>
        <time>2021-08-07T12:11:36Z</time>
      </trkpt>
      <trkpt lat="50.6179" lon="2.90925">
        <ele>32.82</ele>
        <time>2021-08-07T12:11:43Z</time>
      </trkpt>
      <trkpt lat="50.61786" lon="2.90927">
        <ele>32.82</ele>
        <time>2021-08-07T12:11:44Z</time>
      </trkpt>
      <trkpt lat="50.61742" lon="2.90955">
        <ele>33.78</ele>
        <time>2021-08-07T12:11:55Z</time>
      </trkpt>
      <trkpt lat="50.61728" lon="2.90963">
        <ele>33.78</ele>
        <time>2021-08-07T12:11:59Z</time>
      </trkpt>
      <trkpt lat="50.61727" lon="2.90969">
        <ele>33.78</ele>
        <time>2021-08-07T12:12:00Z</time>
      </trkpt>
      <trkpt lat="50.61726" lon="2.90974">
        <ele>34.26</ele>
        <time>2021-08-07T12:12:01Z</time>
      </trkpt>
      <trkpt lat="50.61726" lon="2.90981">
        <ele>34.26</ele>
        <time>2021-08-07T12:12:02Z</time>
      </trkpt>
      <trkpt lat="50.61727" lon="2.90988">
        <ele>34.26</ele>
        <time>2021-08-07T12:12:03Z</time>
      </trkpt>
      <trkpt lat="50.61727" lon="2.90996">
        <ele>34.26</ele>
        <time>2021-08-07T12:12:04Z</time>
      </trkpt>
      <trkpt lat="50.6173" lon="2.91054">
        <ele>34.26</ele>
        <time>2021-08-07T12:12:12Z</time>
      </trkpt>
      <trkpt lat="50.61723" lon="2.91138">
        <ele>35.23</ele>
        <time>2021-08-07T12:12:23Z</time>
      </trkpt>
      <trkpt lat="50.61715" lon="2.91216">
        <ele>35.71</ele>
        <time>2021-08-07T12:12:33Z</time>
      </trkpt>
      <trkpt lat="50.61713" lon="2.91288">
        <ele>35.71</ele>
        <time>2021-08-07T12:12:42Z</time>
      </trkpt>
      <trkpt lat="50.61717" lon="2.91353">
        <ele>35.71</ele>
        <time>2021-08-07T12:12:50Z</time>
      </trkpt>
      <trkpt lat="50.61722" lon="2.91432">
        <ele>36.19</ele>
        <time>2021-08-07T12:12:59Z</time>
      </trkpt>
      <trkpt lat="50.61727" lon="2.91528">
        <ele>36.19</ele>
        <time>2021-08-07T12:13:10Z</time>
      </trkpt>
      <trkpt lat="50.61732" lon="2.91611">
        <ele>34.74</ele>
        <time>2021-08-07T12:13:19Z</time>
      </trkpt>
      <trkpt lat="50.61738" lon="2.91728">
        <ele>34.74</ele>
        <time>2021-08-07T12:13:32Z</time>
      </trkpt>
      <trkpt lat="50.61742" lon="2.91797">
        <ele>36.19</ele>
        <time>2021-08-07T12:13:40Z</time>
      </trkpt>
      <trkpt lat="50.61749" lon="2.91918">
        <ele>36.67</ele>
        <time>2021-08-07T12:13:54Z</time>
      </trkpt>
      <trkpt lat="50.61754" lon="2.92014">
        <ele>37.15</ele>
        <time>2021-08-07T12:14:05Z</time>
      </trkpt>
      <trkpt lat="50.61757" lon="2.92104">
        <ele>38.11</ele>
        <time>2021-08-07T12:14:15Z</time>
      </trkpt>
      <trkpt lat="50.6176" lon="2.92194">
        <ele>38.59</ele>
        <time>2021-08-07T12:14:25Z</time>
      </trkpt>
      <trkpt lat="50.61762" lon="2.92276">
        <ele>38.59</ele>
        <time>2021-08-07T12:14:34Z</time>
      </trkpt>
      <trkpt lat="50.61768" lon="2.92368">
        <ele>39.55</ele>
        <time>2021-08-07T12:14:45Z</time>
      </trkpt>
      <trkpt lat="50.61785" lon="2.92457">
        <ele>39.55</ele>
        <time>2021-08-07T12:14:56Z</time>
      </trkpt>
      <trkpt lat="50.6181" lon="2.92524">
        <ele>39.55</ele>
        <time>2021-08-07T12:15:05Z</time>
      </trkpt>
      <trkpt lat="50.61834" lon="2.92574">
        <ele>39.55</ele>
        <time>2021-08-07T12:15:12Z</time>
      </trkpt>
      <trkpt lat="50.61836" lon="2.92581">
        <ele>39.55</ele>
        <time>2021-08-07T12:15:13Z</time>
      </trkpt>
      <trkpt lat="50.61837" lon="2.9259">
        <ele>39.55</ele>
        <time>2021-08-07T12:15:14Z</time>
      </trkpt>
      <trkpt lat="50.61835" lon="2.92599">
        <ele>39.55</ele>
        <time>2021-08-07T12:15:15Z</time>
      </trkpt>
      <trkpt lat="50.61832" lon="2.92606">
        <ele>38.59</ele>
        <time>2021-08-07T12:15:16Z</time>
      </trkpt>
      <trkpt lat="50.61829" lon="2.9261">
        <ele>38.11</ele>
        <time>2021-08-07T12:15:17Z</time>
      </trkpt>
      <trkpt lat="50.61824" lon="2.92615">
        <ele>38.11</ele>
        <time>2021-08-07T12:15:18Z</time>
      </trkpt>
      <trkpt lat="50.6182" lon="2.92619">
        <ele>38.11</ele>
        <time>2021-08-07T12:15:19Z</time>
      </trkpt>
      <trkpt lat="50.61815" lon="2.92623">
        <ele>38.11</ele>
        <time>2021-08-07T12:15:20Z</time>
      </trkpt>
      <trkpt lat="50.61785" lon="2.92644">
        <ele>38.11</ele>
        <time>2021-08-07T12:15:27Z</time>
      </trkpt>
      <trkpt lat="50.61753" lon="2.92668">
        <ele>39.55</ele>
        <time>2021-08-07T12:15:35Z</time>
      </trkpt>
      <trkpt lat="50.61749" lon="2.92671">
        <ele>40.03</ele>
        <time>2021-08-07T12:15:36Z</time>
      </trkpt>
      <trkpt lat="50.61745" lon="2.92674">
        <ele>40.03</ele>
        <time>2021-08-07T12:15:37Z</time>
      </trkpt>
      <trkpt lat="50.61741" lon="2.92677">
        <ele>40.03</ele>
        <time>2021-08-07T12:15:38Z</time>
      </trkpt>
      <trkpt lat="50.61737" lon="2.9268">
        <ele>40.03</ele>
        <time>2021-08-07T12:15:39Z</time>
      </trkpt>
      <trkpt lat="50.61733" lon="2.92683">
        <ele>40.03</ele>
        <time>2021-08-07T12:15:40Z</time>
      </trkpt>
      <trkpt lat="50.61685" lon="2.92714">
        <ele>40.51</ele>
        <time>2021-08-07T12:15:51Z</time>
      </trkpt>
      <trkpt lat="50.61666" lon="2.92724">
        <ele>40.51</ele>
        <time>2021-08-07T12:15:55Z</time>
      </trkpt>
      <trkpt lat="50.61661" lon="2.92725">
        <ele>40.51</ele>
        <time>2021-08-07T12:15:56Z</time>
      </trkpt>
      <trkpt lat="50.61621" lon="2.92748">
        <ele>40.99</ele>
        <time>2021-08-07T12:16:05Z</time>
      </trkpt>
      <trkpt lat="50.61617" lon="2.92751">
        <ele>40.99</ele>
        <time>2021-08-07T12:16:06Z</time>
      </trkpt>
      <trkpt lat="50.61597" lon="2.92768">
        <ele>40.99</ele>
        <time>2021-08-07T12:16:11Z</time>
      </trkpt>
      <trkpt lat="50.6157" lon="2.92783">
        <ele>39.55</ele>
        <time>2021-08-07T12:16:17Z</time>
      </trkpt>
      <trkpt lat="50.61534" lon="2.92809">
        <ele>39.55</ele>
        <time>2021-08-07T12:16:26Z</time>
      </trkpt>
      <trkpt lat="50.61526" lon="2.92817">
        <ele>39.55</ele>
        <time>2021-08-07T12:16:28Z</time>
      </trkpt>
      <trkpt lat="50.61522" lon="2.92822">
        <ele>39.55</ele>
        <time>2021-08-07T12:16:29Z</time>
      </trkpt>
      <trkpt lat="50.6149" lon="2.92856">
        <ele>39.07</ele>
        <time>2021-08-07T12:16:37Z</time>
      </trkpt>
      <trkpt lat="50.61467" lon="2.92882">
        <ele>40.03</ele>
        <time>2021-08-07T12:16:43Z</time>
      </trkpt>
      <trkpt lat="50.61451" lon="2.92905">
        <ele>40.51</ele>
        <time>2021-08-07T12:16:49Z</time>
      </trkpt>
      <trkpt lat="50.61451" lon="2.9291">
        <ele>40.51</ele>
        <time>2021-08-07T12:16:50Z</time>
      </trkpt>
      <trkpt lat="50.61451" lon="2.92915">
        <ele>40.51</ele>
        <time>2021-08-07T12:16:51Z</time>
      </trkpt>
      <trkpt lat="50.61439" lon="2.92936">
        <ele>40.51</ele>
        <time>2021-08-07T12:16:57Z</time>
      </trkpt>
      <trkpt lat="50.61408" lon="2.92951">
        <ele>40.51</ele>
        <time>2021-08-07T12:17:05Z</time>
      </trkpt>
      <trkpt lat="50.61379" lon="2.92964">
        <ele>40.51</ele>
        <time>2021-08-07T12:17:13Z</time>
      </trkpt>
      <trkpt lat="50.61375" lon="2.92966">
        <ele>40.51</ele>
        <time>2021-08-07T12:17:14Z</time>
      </trkpt>
      <trkpt lat="50.61347" lon="2.92982">
        <ele>39.07</ele>
        <time>2021-08-07T12:17:22Z</time>
      </trkpt>
      <trkpt lat="50.6132" lon="2.93">
        <ele>39.07</ele>
        <time>2021-08-07T12:17:29Z</time>
      </trkpt>
      <trkpt lat="50.61311" lon="2.93003">
        <ele>39.07</ele>
        <time>2021-08-07T12:17:31Z</time>
      </trkpt>
      <trkpt lat="50.61306" lon="2.93004">
        <ele>38.11</ele>
        <time>2021-08-07T12:17:32Z</time>
      </trkpt>
      <trkpt lat="50.61301" lon="2.93007">
        <ele>38.11</ele>
        <time>2021-08-07T12:17:33Z</time>
      </trkpt>
      <trkpt lat="50.6126" lon="2.93032">
        <ele>37.15</ele>
        <time>2021-08-07T12:17:41Z</time>
      </trkpt>
      <trkpt lat="50.61255" lon="2.93034">
        <ele>37.15</ele>
        <time>2021-08-07T12:17:42Z</time>
      </trkpt>
      <trkpt lat="50.61249" lon="2.93037">
        <ele>36.67</ele>
        <time>2021-08-07T12:17:43Z</time>
      </trkpt>
      <trkpt lat="50.61193" lon="2.93066">
        <ele>34.74</ele>
        <time>2021-08-07T12:17:52Z</time>
      </trkpt>
      <trkpt lat="50.61155" lon="2.93087">
        <ele>32.34</ele>
        <time>2021-08-07T12:17:58Z</time>
      </trkpt>
      <trkpt lat="50.61105" lon="2.93114">
        <ele>32.34</ele>
        <time>2021-08-07T12:18:06Z</time>
      </trkpt>
      <trkpt lat="50.61061" lon="2.93137">
        <ele>32.34</ele>
        <time>2021-08-07T12:18:13Z</time>
      </trkpt>
      <trkpt lat="50.61036" lon="2.9315">
        <ele>32.34</ele>
        <time>2021-08-07T12:18:17Z</time>
      </trkpt>
      <trkpt lat="50.6103" lon="2.93152">
        <ele>32.34</ele>
        <time>2021-08-07T12:18:18Z</time>
      </trkpt>
      <trkpt lat="50.61016" lon="2.93154">
        <ele>31.38</ele>
        <time>2021-08-07T12:18:20Z</time>
      </trkpt>
      <trkpt lat="50.6101" lon="2.93159">
        <ele>31.38</ele>
        <time>2021-08-07T12:18:21Z</time>
      </trkpt>
      <trkpt lat="50.61004" lon="2.93162">
        <ele>31.38</ele>
        <time>2021-08-07T12:18:22Z</time>
      </trkpt>
      <trkpt lat="50.60999" lon="2.93165">
        <ele>31.38</ele>
        <time>2021-08-07T12:18:23Z</time>
      </trkpt>
      <trkpt lat="50.60994" lon="2.93167">
        <ele>31.38</ele>
        <time>2021-08-07T12:18:24Z</time>
      </trkpt>
      <trkpt lat="50.6098" lon="2.93175">
        <ele>32.34</ele>
        <time>2021-08-07T12:18:29Z</time>
      </trkpt>
      <trkpt lat="50.60959" lon="2.93192">
        <ele>32.34</ele>
        <time>2021-08-07T12:18:35Z</time>
      </trkpt>
      <trkpt lat="50.60936" lon="2.93208">
        <ele>30.9</ele>
        <time>2021-08-07T12:18:41Z</time>
      </trkpt>
      <trkpt lat="50.60895" lon="2.93231">
        <ele>30.9</ele>
        <time>2021-08-07T12:18:51Z</time>
      </trkpt>
      <trkpt lat="50.60887" lon="2.93236">
        <ele>30.9</ele>
        <time>2021-08-07T12:18:53Z</time>
      </trkpt>
      <trkpt lat="50.60878" lon="2.9324">
        <ele>29.46</ele>
        <time>2021-08-07T12:18:55Z</time>
      </trkpt>
      <trkpt lat="50.60832" lon="2.93266">
        <ele>28.5</ele>
        <time>2021-08-07T12:19:06Z</time>
      </trkpt>
      <trkpt lat="50.60818" lon="2.93275">
        <ele>29.46</ele>
        <time>2021-08-07T12:19:09Z</time>
      </trkpt>
      <trkpt lat="50.60782" lon="2.93296">
        <ele>31.38</ele>
        <time>2021-08-07T12:19:18Z</time>
      </trkpt>
      <trkpt lat="50.60746" lon="2.93316">
        <ele>30.42</ele>
        <time>2021-08-07T12:19:27Z</time>
      </trkpt>
      <trkpt lat="50.60706" lon="2.93341">
        <ele>30.42</ele>
        <time>2021-08-07T12:19:37Z</time>
      </trkpt>
      <trkpt lat="50.60666" lon="2.93364">
        <ele>30.42</ele>
        <time>2021-08-07T12:19:48Z</time>
      </trkpt>
      <trkpt lat="50.6065" lon="2.93372">
        <ele>29.94</ele>
        <time>2021-08-07T12:19:52Z</time>
      </trkpt>
      <trkpt lat="50.60647" lon="2.93375">
        <ele>29.94</ele>
        <time>2021-08-07T12:19:53Z</time>
      </trkpt>
      <trkpt lat="50.60604" lon="2.93398">
        <ele>29.94</ele>
        <time>2021-08-07T12:20:04Z</time>
      </trkpt>
      <trkpt lat="50.60588" lon="2.93407">
        <ele>28.98</ele>
        <time>2021-08-07T12:20:08Z</time>
      </trkpt>
      <trkpt lat="50.60572" lon="2.93417">
        <ele>28.98</ele>
        <time>2021-08-07T12:20:12Z</time>
      </trkpt>
      <trkpt lat="50.60569" lon="2.93419">
        <ele>28.98</ele>
        <time>2021-08-07T12:20:13Z</time>
      </trkpt>
      <trkpt lat="50.60565" lon="2.93422">
        <ele>28.98</ele>
        <time>2021-08-07T12:20:14Z</time>
      </trkpt>
      <trkpt lat="50.6056" lon="2.93425">
        <ele>28.98</ele>
        <time>2021-08-07T12:20:15Z</time>
      </trkpt>
      <trkpt lat="50.60557" lon="2.93428">
        <ele>30.42</ele>
        <time>2021-08-07T12:20:16Z</time>
      </trkpt>
      <trkpt lat="50.60553" lon="2.93431">
        <ele>30.42</ele>
        <time>2021-08-07T12:20:17Z</time>
      </trkpt>
      <trkpt lat="50.60549" lon="2.93433">
        <ele>30.42</ele>
        <time>2021-08-07T12:20:18Z</time>
      </trkpt>
      <trkpt lat="50.60545" lon="2.93435">
        <ele>30.42</ele>
        <time>2021-08-07T12:20:19Z</time>
      </trkpt>
      <trkpt lat="50.60537" lon="2.93439">
        <ele>28.98</ele>
        <time>2021-08-07T12:20:21Z</time>
      </trkpt>
      <trkpt lat="50.60521" lon="2.93448">
        <ele>30.42</ele>
        <time>2021-08-07T12:20:25Z</time>
      </trkpt>
      <trkpt lat="50.60513" lon="2.93453">
        <ele>29.46</ele>
        <time>2021-08-07T12:20:27Z</time>
      </trkpt>
      <trkpt lat="50.60476" lon="2.93473">
        <ele>28.98</ele>
        <time>2021-08-07T12:20:36Z</time>
      </trkpt>
      <trkpt lat="50.60442" lon="2.93491">
        <ele>27.53</ele>
        <time>2021-08-07T12:20:44Z</time>
      </trkpt>
      <trkpt lat="50.60418" lon="2.93506">
        <ele>28.98</ele>
        <time>2021-08-07T12:20:50Z</time>
      </trkpt>
      <trkpt lat="50.60377" lon="2.93528">
        <ele>29.46</ele>
        <time>2021-08-07T12:21:00Z</time>
      </trkpt>
      <trkpt lat="50.6034" lon="2.93546">
        <ele>27.53</ele>
        <time>2021-08-07T12:21:09Z</time>
      </trkpt>
      <trkpt lat="50.60333" lon="2.93548">
        <ele>27.53</ele>
        <time>2021-08-07T12:21:11Z</time>
      </trkpt>
      <trkpt lat="50.60329" lon="2.93546">
        <ele>29.46</ele>
        <time>2021-08-07T12:21:12Z</time>
      </trkpt>
      <trkpt lat="50.60327" lon="2.93543">
        <ele>29.94</ele>
        <time>2021-08-07T12:21:13Z</time>
      </trkpt>
      <trkpt lat="50.60325" lon="2.93539">
        <ele>29.94</ele>
        <time>2021-08-07T12:21:14Z</time>
      </trkpt>
      <trkpt lat="50.60318" lon="2.93527">
        <ele>31.86</ele>
        <time>2021-08-07T12:21:19Z</time>
      </trkpt>
      <trkpt lat="50.60316" lon="2.93523">
        <ele>32.34</ele>
        <time>2021-08-07T12:21:21Z</time>
      </trkpt>
      <trkpt lat="50.60315" lon="2.93517">
        <ele>33.3</ele>
        <time>2021-08-07T12:21:23Z</time>
      </trkpt>
      <trkpt lat="50.60314" lon="2.93515">
        <ele>31.86</ele>
        <time>2021-08-07T12:21:24Z</time>
      </trkpt>
      <trkpt lat="50.60314" lon="2.93516">
        <ele>30.9</ele>
        <time>2021-08-07T12:21:25Z</time>
      </trkpt>
      <trkpt lat="50.60314" lon="2.93518">
        <ele>30.9</ele>
        <time>2021-08-07T12:21:26Z</time>
      </trkpt>
      <trkpt lat="50.60314" lon="2.9352">
        <ele>32.82</ele>
        <time>2021-08-07T12:21:27Z</time>
      </trkpt>
      <trkpt lat="50.60315" lon="2.93523">
        <ele>32.82</ele>
        <time>2021-08-07T12:21:28Z</time>
      </trkpt>
      <trkpt lat="50.60316" lon="2.93527">
        <ele>32.82</ele>
        <time>2021-08-07T12:21:29Z</time>
      </trkpt>
      <trkpt lat="50.60316" lon="2.9353">
        <ele>33.3</ele>
        <time>2021-08-07T12:21:30Z</time>
      </trkpt>
      <trkpt lat="50.60317" lon="2.93535">
        <ele>33.3</ele>
        <time>2021-08-07T12:21:31Z</time>
      </trkpt>
      <trkpt lat="50.60317" lon="2.93539">
        <ele>33.3</ele>
        <time>2021-08-07T12:21:32Z</time>
      </trkpt>
      <trkpt lat="50.60319" lon="2.93572">
        <ele>33.3</ele>
        <time>2021-08-07T12:21:39Z</time>
      </trkpt>
      <trkpt lat="50.60317" lon="2.93574">
        <ele>33.3</ele>
        <time>2021-08-07T12:21:40Z</time>
      </trkpt>
      <trkpt lat="50.60315" lon="2.93578">
        <ele>33.3</ele>
        <time>2021-08-07T12:21:41Z</time>
      </trkpt>
      <trkpt lat="50.60312" lon="2.9358">
        <ele>33.3</ele>
        <time>2021-08-07T12:21:42Z</time>
      </trkpt>
      <trkpt lat="50.6031" lon="2.93583">
        <ele>33.3</ele>
        <time>2021-08-07T12:21:43Z</time>
      </trkpt>
      <trkpt lat="50.60307" lon="2.93585">
        <ele>31.86</ele>
        <time>2021-08-07T12:21:44Z</time>
      </trkpt>
      <trkpt lat="50.60304" lon="2.93587">
        <ele>31.86</ele>
        <time>2021-08-07T12:21:45Z</time>
      </trkpt>
      <trkpt lat="50.6029" lon="2.93596">
        <ele>31.86</ele>
        <time>2021-08-07T12:21:51Z</time>
      </trkpt>
      <trkpt lat="50.60272" lon="2.93606">
        <ele>31.86</ele>
        <time>2021-08-07T12:21:57Z</time>
      </trkpt>
      <trkpt lat="50.60249" lon="2.93619">
        <ele>33.3</ele>
        <time>2021-08-07T12:22:04Z</time>
      </trkpt>
      <trkpt lat="50.60223" lon="2.93635">
        <ele>33.3</ele>
        <time>2021-08-07T12:22:11Z</time>
      </trkpt>
      <trkpt lat="50.60215" lon="2.93639">
        <ele>31.86</ele>
        <time>2021-08-07T12:22:13Z</time>
      </trkpt>
      <trkpt lat="50.60186" lon="2.93657">
        <ele>30.9</ele>
        <time>2021-08-07T12:22:20Z</time>
      </trkpt>
      <trkpt lat="50.60178" lon="2.93663">
        <ele>30.9</ele>
        <time>2021-08-07T12:22:22Z</time>
      </trkpt>
      <trkpt lat="50.60174" lon="2.93664">
        <ele>30.9</ele>
        <time>2021-08-07T12:22:23Z</time>
      </trkpt>
      <trkpt lat="50.60154" lon="2.93673">
        <ele>29.94</ele>
        <time>2021-08-07T12:22:28Z</time>
      </trkpt>
      <trkpt lat="50.60149" lon="2.93675">
        <ele>29.94</ele>
        <time>2021-08-07T12:22:29Z</time>
      </trkpt>
      <trkpt lat="50.60145" lon="2.93677">
        <ele>29.94</ele>
        <time>2021-08-07T12:22:30Z</time>
      </trkpt>
      <trkpt lat="50.6011" lon="2.937">
        <ele>29.46</ele>
        <time>2021-08-07T12:22:39Z</time>
      </trkpt>
      <trkpt lat="50.60078" lon="2.93715">
        <ele>28.98</ele>
        <time>2021-08-07T12:22:47Z</time>
      </trkpt>
      <trkpt lat="50.60063" lon="2.93723">
        <ele>28.98</ele>
        <time>2021-08-07T12:22:51Z</time>
      </trkpt>
      <trkpt lat="50.60043" lon="2.93732">
        <ele>28.02</ele>
        <time>2021-08-07T12:22:55Z</time>
      </trkpt>
      <trkpt lat="50.6003" lon="2.9374">
        <ele>28.02</ele>
        <time>2021-08-07T12:22:58Z</time>
      </trkpt>
      <trkpt lat="50.60007" lon="2.93754">
        <ele>28.02</ele>
        <time>2021-08-07T12:23:04Z</time>
      </trkpt>
      <trkpt lat="50.6" lon="2.93758">
        <ele>28.02</ele>
        <time>2021-08-07T12:23:07Z</time>
      </trkpt>
      <trkpt lat="50.59998" lon="2.93756">
        <ele>28.02</ele>
        <time>2021-08-07T12:23:09Z</time>
      </trkpt>
      <trkpt lat="50.59996" lon="2.93755">
        <ele>28.02</ele>
        <time>2021-08-07T12:23:10Z</time>
      </trkpt>
      <trkpt lat="50.59995" lon="2.93751">
        <ele>27.53</ele>
        <time>2021-08-07T12:23:11Z</time>
      </trkpt>
      <trkpt lat="50.59992" lon="2.93748">
        <ele>27.05</ele>
        <time>2021-08-07T12:23:12Z</time>
      </trkpt>
      <trkpt lat="50.59991" lon="2.93746">
        <ele>26.57</ele>
        <time>2021-08-07T12:23:13Z</time>
      </trkpt>
      <trkpt lat="50.59991" lon="2.93744">
        <ele>26.57</ele>
        <time>2021-08-07T12:23:14Z</time>
      </trkpt>
      <trkpt lat="50.5999" lon="2.93742">
        <ele>26.57</ele>
        <time>2021-08-07T12:23:15Z</time>
      </trkpt>
      <trkpt lat="50.59987" lon="2.93742">
        <ele>26.09</ele>
        <time>2021-08-07T12:23:16Z</time>
      </trkpt>
      <trkpt lat="50.59984" lon="2.93742">
        <ele>26.09</ele>
        <time>2021-08-07T12:23:17Z</time>
      </trkpt>
      <trkpt lat="50.59981" lon="2.93743">
        <ele>25.61</ele>
        <time>2021-08-07T12:23:18Z</time>
      </trkpt>
      <trkpt lat="50.59975" lon="2.93744">
        <ele>24.65</ele>
        <time>2021-08-07T12:23:20Z</time>
      </trkpt>
      <trkpt lat="50.59971" lon="2.93744">
        <ele>24.65</ele>
        <time>2021-08-07T12:23:22Z</time>
      </trkpt>
      <trkpt lat="50.5997" lon="2.93741">
        <ele>26.09</ele>
        <time>2021-08-07T12:23:23Z</time>
      </trkpt>
      <trkpt lat="50.5997" lon="2.93737">
        <ele>26.57</ele>
        <time>2021-08-07T12:23:24Z</time>
      </trkpt>
      <trkpt lat="50.59969" lon="2.93732">
        <ele>26.57</ele>
        <time>2021-08-07T12:23:25Z</time>
      </trkpt>
      <trkpt lat="50.59969" lon="2.93727">
        <ele>26.57</ele>
        <time>2021-08-07T12:23:26Z</time>
      </trkpt>
      <trkpt lat="50.59968" lon="2.93701">
        <ele>26.57</ele>
        <time>2021-08-07T12:23:30Z</time>
      </trkpt>
      <trkpt lat="50.59964" lon="2.93655">
        <ele>26.57</ele>
        <time>2021-08-07T12:23:37Z</time>
      </trkpt>
      <trkpt lat="50.59958" lon="2.93593">
        <ele>26.57</ele>
        <time>2021-08-07T12:23:46Z</time>
      </trkpt>
      <trkpt lat="50.59952" lon="2.93526">
        <ele>27.05</ele>
        <time>2021-08-07T12:23:56Z</time>
      </trkpt>
      <trkpt lat="50.59951" lon="2.93506">
        <ele>27.05</ele>
        <time>2021-08-07T12:23:59Z</time>
      </trkpt>
      <trkpt lat="50.59949" lon="2.93499">
        <ele>27.05</ele>
        <time>2021-08-07T12:24:00Z</time>
      </trkpt>
      <trkpt lat="50.59948" lon="2.93492">
        <ele>27.05</ele>
        <time>2021-08-07T12:24:01Z</time>
      </trkpt>
      <trkpt lat="50.59946" lon="2.93459">
        <ele>27.05</ele>
        <time>2021-08-07T12:24:06Z</time>
      </trkpt>
      <trkpt lat="50.59944" lon="2.93426">
        <ele>27.05</ele>
        <time>2021-08-07T12:24:11Z</time>
      </trkpt>
      <trkpt lat="50.59942" lon="2.93385">
        <ele>27.05</ele>
        <time>2021-08-07T12:24:18Z</time>
      </trkpt>
      <trkpt lat="50.59939" lon="2.93354">
        <ele>27.05</ele>
        <time>2021-08-07T12:24:23Z</time>
      </trkpt>
      <trkpt lat="50.59939" lon="2.93348">
        <ele>27.05</ele>
        <time>2021-08-07T12:24:24Z</time>
      </trkpt>
      <trkpt lat="50.59938" lon="2.93342">
        <ele>27.05</ele>
        <time>2021-08-07T12:24:25Z</time>
      </trkpt>
      <trkpt lat="50.59937" lon="2.93336">
        <ele>24.65</ele>
        <time>2021-08-07T12:24:26Z</time>
      </trkpt>
      <trkpt lat="50.59936" lon="2.9333">
        <ele>24.65</ele>
        <time>2021-08-07T12:24:27Z</time>
      </trkpt>
      <trkpt lat="50.59936" lon="2.93325">
        <ele>24.65</ele>
        <time>2021-08-07T12:24:28Z</time>
      </trkpt>
      <trkpt lat="50.59936" lon="2.93317">
        <ele>26.09</ele>
        <time>2021-08-07T12:24:29Z</time>
      </trkpt>
      <trkpt lat="50.59936" lon="2.9331">
        <ele>26.09</ele>
        <time>2021-08-07T12:24:30Z</time>
      </trkpt>
      <trkpt lat="50.59935" lon="2.93303">
        <ele>26.09</ele>
        <time>2021-08-07T12:24:31Z</time>
      </trkpt>
      <trkpt lat="50.59932" lon="2.93271">
        <ele>26.57</ele>
        <time>2021-08-07T12:24:36Z</time>
      </trkpt>
      <trkpt lat="50.59932" lon="2.93265">
        <ele>26.57</ele>
        <time>2021-08-07T12:24:37Z</time>
      </trkpt>
      <trkpt lat="50.5993" lon="2.93218">
        <ele>26.57</ele>
        <time>2021-08-07T12:24:44Z</time>
      </trkpt>
      <trkpt lat="50.59929" lon="2.93212">
        <ele>26.57</ele>
        <time>2021-08-07T12:24:45Z</time>
      </trkpt>
      <trkpt lat="50.59928" lon="2.93206">
        <ele>26.57</ele>
        <time>2021-08-07T12:24:46Z</time>
      </trkpt>
      <trkpt lat="50.59928" lon="2.932">
        <ele>26.57</ele>
        <time>2021-08-07T12:24:47Z</time>
      </trkpt>
      <trkpt lat="50.59928" lon="2.93194">
        <ele>26.57</ele>
        <time>2021-08-07T12:24:48Z</time>
      </trkpt>
      <trkpt lat="50.59928" lon="2.93188">
        <ele>26.57</ele>
        <time>2021-08-07T12:24:49Z</time>
      </trkpt>
      <trkpt lat="50.59926" lon="2.9315">
        <ele>27.05</ele>
        <time>2021-08-07T12:24:55Z</time>
      </trkpt>
      <trkpt lat="50.59919" lon="2.93128">
        <ele>27.53</ele>
        <time>2021-08-07T12:24:59Z</time>
      </trkpt>
      <trkpt lat="50.59916" lon="2.93123">
        <ele>27.53</ele>
        <time>2021-08-07T12:25:00Z</time>
      </trkpt>
      <trkpt lat="50.59913" lon="2.93118">
        <ele>27.53</ele>
        <time>2021-08-07T12:25:01Z</time>
      </trkpt>
      <trkpt lat="50.59911" lon="2.93113">
        <ele>27.53</ele>
        <time>2021-08-07T12:25:02Z</time>
      </trkpt>
      <trkpt lat="50.59908" lon="2.93108">
        <ele>27.53</ele>
        <time>2021-08-07T12:25:03Z</time>
      </trkpt>
      <trkpt lat="50.59906" lon="2.93104">
        <ele>27.53</ele>
        <time>2021-08-07T12:25:04Z</time>
      </trkpt>
      <trkpt lat="50.59886" lon="2.93071">
        <ele>27.53</ele>
        <time>2021-08-07T12:25:12Z</time>
      </trkpt>
      <trkpt lat="50.59866" lon="2.93039">
        <ele>27.53</ele>
        <time>2021-08-07T12:25:20Z</time>
      </trkpt>
      <trkpt lat="50.59837" lon="2.92988">
        <ele>28.5</ele>
        <time>2021-08-07T12:25:32Z</time>
      </trkpt>
      <trkpt lat="50.59816" lon="2.92951">
        <ele>28.5</ele>
        <time>2021-08-07T12:25:41Z</time>
      </trkpt>
      <trkpt lat="50.59794" lon="2.92916">
        <ele>28.98</ele>
        <time>2021-08-07T12:25:50Z</time>
      </trkpt>
      <trkpt lat="50.5977" lon="2.92876">
        <ele>29.46</ele>
        <time>2021-08-07T12:26:00Z</time>
      </trkpt>
      <trkpt lat="50.59749" lon="2.92839">
        <ele>29.46</ele>
        <time>2021-08-07T12:26:09Z</time>
      </trkpt>
      <trkpt lat="50.59734" lon="2.92814">
        <ele>29.46</ele>
        <time>2021-08-07T12:26:15Z</time>
      </trkpt>
      <trkpt lat="50.5971" lon="2.92772">
        <ele>29.94</ele>
        <time>2021-08-07T12:26:25Z</time>
      </trkpt>
      <trkpt lat="50.59689" lon="2.92736">
        <ele>29.94</ele>
        <time>2021-08-07T12:26:34Z</time>
      </trkpt>
      <trkpt lat="50.59667" lon="2.92698">
        <ele>30.9</ele>
        <time>2021-08-07T12:26:43Z</time>
      </trkpt>
      <trkpt lat="50.59644" lon="2.92657">
        <ele>31.86</ele>
        <time>2021-08-07T12:26:53Z</time>
      </trkpt>
      <trkpt lat="50.59624" lon="2.92627">
        <ele>32.34</ele>
        <time>2021-08-07T12:27:01Z</time>
      </trkpt>
      <trkpt lat="50.59604" lon="2.92593">
        <ele>31.38</ele>
        <time>2021-08-07T12:27:10Z</time>
      </trkpt>
      <trkpt lat="50.59601" lon="2.92589">
        <ele>31.38</ele>
        <time>2021-08-07T12:27:11Z</time>
      </trkpt>
      <trkpt lat="50.59586" lon="2.92561">
        <ele>31.38</ele>
        <time>2021-08-07T12:27:19Z</time>
      </trkpt>
      <trkpt lat="50.59578" lon="2.92556">
        <ele>30.9</ele>
        <time>2021-08-07T12:27:22Z</time>
      </trkpt>
      <trkpt lat="50.59575" lon="2.92556">
        <ele>30.9</ele>
        <time>2021-08-07T12:27:23Z</time>
      </trkpt>
      <trkpt lat="50.59573" lon="2.92557">
        <ele>30.9</ele>
        <time>2021-08-07T12:27:24Z</time>
      </trkpt>
      <trkpt lat="50.5957" lon="2.9256">
        <ele>30.9</ele>
        <time>2021-08-07T12:27:25Z</time>
      </trkpt>
      <trkpt lat="50.59567" lon="2.92563">
        <ele>29.94</ele>
        <time>2021-08-07T12:27:26Z</time>
      </trkpt>
      <trkpt lat="50.5956" lon="2.92568">
        <ele>29.94</ele>
        <time>2021-08-07T12:27:28Z</time>
      </trkpt>
      <trkpt lat="50.59552" lon="2.92571">
        <ele>29.94</ele>
        <time>2021-08-07T12:27:30Z</time>
      </trkpt>
      <trkpt lat="50.59549" lon="2.92571">
        <ele>29.94</ele>
        <time>2021-08-07T12:27:31Z</time>
      </trkpt>
      <trkpt lat="50.59546" lon="2.92572">
        <ele>29.94</ele>
        <time>2021-08-07T12:27:32Z</time>
      </trkpt>
      <trkpt lat="50.59543" lon="2.92573">
        <ele>29.94</ele>
        <time>2021-08-07T12:27:33Z</time>
      </trkpt>
      <trkpt lat="50.5954" lon="2.92575">
        <ele>29.94</ele>
        <time>2021-08-07T12:27:34Z</time>
      </trkpt>
      <trkpt lat="50.59506" lon="2.92593">
        <ele>32.34</ele>
        <time>2021-08-07T12:27:45Z</time>
      </trkpt>
      <trkpt lat="50.59502" lon="2.92595">
        <ele>32.34</ele>
        <time>2021-08-07T12:27:47Z</time>
      </trkpt>
      <trkpt lat="50.595" lon="2.92596">
        <ele>32.34</ele>
        <time>2021-08-07T12:27:48Z</time>
      </trkpt>
      <trkpt lat="50.59498" lon="2.92597">
        <ele>32.34</ele>
        <time>2021-08-07T12:27:49Z</time>
      </trkpt>
      <trkpt lat="50.59495" lon="2.92598">
        <ele>32.34</ele>
        <time>2021-08-07T12:27:50Z</time>
      </trkpt>
      <trkpt lat="50.59492" lon="2.92599">
        <ele>32.34</ele>
        <time>2021-08-07T12:27:51Z</time>
      </trkpt>
      <trkpt lat="50.59489" lon="2.92601">
        <ele>32.34</ele>
        <time>2021-08-07T12:27:52Z</time>
      </trkpt>
      <trkpt lat="50.59466" lon="2.92613">
        <ele>30.9</ele>
        <time>2021-08-07T12:27:59Z</time>
      </trkpt>
      <trkpt lat="50.59445" lon="2.92625">
        <ele>30.9</ele>
        <time>2021-08-07T12:28:05Z</time>
      </trkpt>
      <trkpt lat="50.59399" lon="2.92645">
        <ele>30.9</ele>
        <time>2021-08-07T12:28:18Z</time>
      </trkpt>
      <trkpt lat="50.59371" lon="2.92656">
        <ele>30.9</ele>
        <time>2021-08-07T12:28:26Z</time>
      </trkpt>
      <trkpt lat="50.59334" lon="2.92671">
        <ele>32.34</ele>
        <time>2021-08-07T12:28:36Z</time>
      </trkpt>
      <trkpt lat="50.59301" lon="2.92683">
        <ele>32.82</ele>
        <time>2021-08-07T12:28:45Z</time>
      </trkpt>
      <trkpt lat="50.59261" lon="2.92695">
        <ele>33.78</ele>
        <time>2021-08-07T12:28:56Z</time>
      </trkpt>
      <trkpt lat="50.59236" lon="2.92699">
        <ele>32.34</ele>
        <time>2021-08-07T12:29:03Z</time>
      </trkpt>
      <trkpt lat="50.59229" lon="2.927">
        <ele>33.78</ele>
        <time>2021-08-07T12:29:05Z</time>
      </trkpt>
      <trkpt lat="50.59182" lon="2.92704">
        <ele>33.3</ele>
        <time>2021-08-07T12:29:17Z</time>
      </trkpt>
      <trkpt lat="50.59178" lon="2.92704">
        <ele>33.3</ele>
        <time>2021-08-07T12:29:18Z</time>
      </trkpt>
      <trkpt lat="50.59159" lon="2.92698">
        <ele>32.34</ele>
        <time>2021-08-07T12:29:23Z</time>
      </trkpt>
      <trkpt lat="50.59156" lon="2.92693">
        <ele>33.78</ele>
        <time>2021-08-07T12:29:24Z</time>
      </trkpt>
      <trkpt lat="50.59153" lon="2.92692">
        <ele>33.78</ele>
        <time>2021-08-07T12:29:25Z</time>
      </trkpt>
      <trkpt lat="50.59151" lon="2.92694">
        <ele>33.78</ele>
        <time>2021-08-07T12:29:26Z</time>
      </trkpt>
      <trkpt lat="50.59149" lon="2.92697">
        <ele>33.78</ele>
        <time>2021-08-07T12:29:27Z</time>
      </trkpt>
      <trkpt lat="50.59147" lon="2.927">
        <ele>33.78</ele>
        <time>2021-08-07T12:29:28Z</time>
      </trkpt>
      <trkpt lat="50.59144" lon="2.92703">
        <ele>33.78</ele>
        <time>2021-08-07T12:29:29Z</time>
      </trkpt>
      <trkpt lat="50.59141" lon="2.92704">
        <ele>33.78</ele>
        <time>2021-08-07T12:29:30Z</time>
      </trkpt>
      <trkpt lat="50.59138" lon="2.92703">
        <ele>33.78</ele>
        <time>2021-08-07T12:29:31Z</time>
      </trkpt>
      <trkpt lat="50.59134" lon="2.927">
        <ele>33.78</ele>
        <time>2021-08-07T12:29:32Z</time>
      </trkpt>
      <trkpt lat="50.59131" lon="2.92698">
        <ele>33.78</ele>
        <time>2021-08-07T12:29:33Z</time>
      </trkpt>
      <trkpt lat="50.59128" lon="2.92696">
        <ele>33.78</ele>
        <time>2021-08-07T12:29:34Z</time>
      </trkpt>
      <trkpt lat="50.59125" lon="2.92696">
        <ele>33.78</ele>
        <time>2021-08-07T12:29:35Z</time>
      </trkpt>
      <trkpt lat="50.59122" lon="2.92696">
        <ele>33.78</ele>
        <time>2021-08-07T12:29:36Z</time>
      </trkpt>
      <trkpt lat="50.59118" lon="2.92697">
        <ele>33.78</ele>
        <time>2021-08-07T12:29:37Z</time>
      </trkpt>
      <trkpt lat="50.59114" lon="2.92698">
        <ele>32.34</ele>
        <time>2021-08-07T12:29:38Z</time>
      </trkpt>
      <trkpt lat="50.5911" lon="2.92699">
        <ele>32.82</ele>
        <time>2021-08-07T12:29:39Z</time>
      </trkpt>
      <trkpt lat="50.59094" lon="2.92701">
        <ele>33.78</ele>
        <time>2021-08-07T12:29:43Z</time>
      </trkpt>
      <trkpt lat="50.59074" lon="2.92687">
        <ele>34.26</ele>
        <time>2021-08-07T12:29:49Z</time>
      </trkpt>
      <trkpt lat="50.59053" lon="2.92683">
        <ele>34.26</ele>
        <time>2021-08-07T12:29:55Z</time>
      </trkpt>
      <trkpt lat="50.5904" lon="2.92687">
        <ele>34.26</ele>
        <time>2021-08-07T12:29:59Z</time>
      </trkpt>
      <trkpt lat="50.59037" lon="2.9269">
        <ele>34.26</ele>
        <time>2021-08-07T12:30:00Z</time>
      </trkpt>
      <trkpt lat="50.59035" lon="2.92695">
        <ele>34.26</ele>
        <time>2021-08-07T12:30:01Z</time>
      </trkpt>
      <trkpt lat="50.59034" lon="2.92699">
        <ele>34.26</ele>
        <time>2021-08-07T12:30:02Z</time>
      </trkpt>
      <trkpt lat="50.59034" lon="2.92705">
        <ele>35.23</ele>
        <time>2021-08-07T12:30:03Z</time>
      </trkpt>
      <trkpt lat="50.59024" lon="2.92741">
        <ele>32.82</ele>
        <time>2021-08-07T12:30:10Z</time>
      </trkpt>
      <trkpt lat="50.59019" lon="2.92746">
        <ele>32.82</ele>
        <time>2021-08-07T12:30:11Z</time>
      </trkpt>
      <trkpt lat="50.58983" lon="2.92778">
        <ele>32.34</ele>
        <time>2021-08-07T12:30:20Z</time>
      </trkpt>
      <trkpt lat="50.58979" lon="2.92781">
        <ele>32.34</ele>
        <time>2021-08-07T12:30:21Z</time>
      </trkpt>
      <trkpt lat="50.58975" lon="2.92784">
        <ele>32.34</ele>
        <time>2021-08-07T12:30:22Z</time>
      </trkpt>
      <trkpt lat="50.58967" lon="2.92789">
        <ele>31.38</ele>
        <time>2021-08-07T12:30:24Z</time>
      </trkpt>
      <trkpt lat="50.58962" lon="2.92791">
        <ele>30.9</ele>
        <time>2021-08-07T12:30:25Z</time>
      </trkpt>
      <trkpt lat="50.58952" lon="2.92793">
        <ele>31.38</ele>
        <time>2021-08-07T12:30:27Z</time>
      </trkpt>
      <trkpt lat="50.58948" lon="2.9279">
        <ele>32.82</ele>
        <time>2021-08-07T12:30:28Z</time>
      </trkpt>
      <trkpt lat="50.58945" lon="2.92787">
        <ele>32.82</ele>
        <time>2021-08-07T12:30:29Z</time>
      </trkpt>
      <trkpt lat="50.58941" lon="2.92784">
        <ele>32.82</ele>
        <time>2021-08-07T12:30:30Z</time>
      </trkpt>
      <trkpt lat="50.58938" lon="2.92782">
        <ele>32.82</ele>
        <time>2021-08-07T12:30:31Z</time>
      </trkpt>
      <trkpt lat="50.58933" lon="2.9278">
        <ele>32.82</ele>
        <time>2021-08-07T12:30:32Z</time>
      </trkpt>
      <trkpt lat="50.58928" lon="2.92779">
        <ele>32.82</ele>
        <time>2021-08-07T12:30:33Z</time>
      </trkpt>
      <trkpt lat="50.58925" lon="2.9278">
        <ele>32.82</ele>
        <time>2021-08-07T12:30:34Z</time>
      </trkpt>
      <trkpt lat="50.58921" lon="2.92783">
        <ele>32.82</ele>
        <time>2021-08-07T12:30:35Z</time>
      </trkpt>
      <trkpt lat="50.58918" lon="2.92787">
        <ele>32.82</ele>
        <time>2021-08-07T12:30:36Z</time>
      </trkpt>
      <trkpt lat="50.58915" lon="2.92792">
        <ele>31.38</ele>
        <time>2021-08-07T12:30:37Z</time>
      </trkpt>
      <trkpt lat="50.58911" lon="2.92798">
        <ele>31.38</ele>
        <time>2021-08-07T12:30:38Z</time>
      </trkpt>
      <trkpt lat="50.58908" lon="2.92804">
        <ele>31.38</ele>
        <time>2021-08-07T12:30:39Z</time>
      </trkpt>
      <trkpt lat="50.58907" lon="2.9281">
        <ele>31.38</ele>
        <time>2021-08-07T12:30:40Z</time>
      </trkpt>
      <trkpt lat="50.58905" lon="2.92818">
        <ele>31.38</ele>
        <time>2021-08-07T12:30:41Z</time>
      </trkpt>
      <trkpt lat="50.589" lon="2.92832">
        <ele>31.38</ele>
        <time>2021-08-07T12:30:43Z</time>
      </trkpt>
      <trkpt lat="50.58896" lon="2.92838">
        <ele>31.38</ele>
        <time>2021-08-07T12:30:44Z</time>
      </trkpt>
      <trkpt lat="50.58892" lon="2.92843">
        <ele>30.9</ele>
        <time>2021-08-07T12:30:45Z</time>
      </trkpt>
      <trkpt lat="50.58875" lon="2.92862">
        <ele>30.42</ele>
        <time>2021-08-07T12:30:49Z</time>
      </trkpt>
      <trkpt lat="50.58868" lon="2.92874">
        <ele>30.9</ele>
        <time>2021-08-07T12:30:51Z</time>
      </trkpt>
      <trkpt lat="50.58864" lon="2.92877">
        <ele>30.42</ele>
        <time>2021-08-07T12:30:52Z</time>
      </trkpt>
      <trkpt lat="50.58859" lon="2.9288">
        <ele>30.42</ele>
        <time>2021-08-07T12:30:53Z</time>
      </trkpt>
      <trkpt lat="50.58807" lon="2.92916">
        <ele>28.98</ele>
        <time>2021-08-07T12:31:03Z</time>
      </trkpt>
      <trkpt lat="50.5877" lon="2.92929">
        <ele>28.98</ele>
        <time>2021-08-07T12:31:10Z</time>
      </trkpt>
      <trkpt lat="50.58761" lon="2.92933">
        <ele>28.98</ele>
        <time>2021-08-07T12:31:12Z</time>
      </trkpt>
      <trkpt lat="50.58757" lon="2.92938">
        <ele>28.98</ele>
        <time>2021-08-07T12:31:13Z</time>
      </trkpt>
      <trkpt lat="50.58755" lon="2.92944">
        <ele>28.98</ele>
        <time>2021-08-07T12:31:14Z</time>
      </trkpt>
      <trkpt lat="50.58754" lon="2.92952">
        <ele>28.98</ele>
        <time>2021-08-07T12:31:15Z</time>
      </trkpt>
      <trkpt lat="50.58754" lon="2.92959">
        <ele>28.98</ele>
        <time>2021-08-07T12:31:16Z</time>
      </trkpt>
      <trkpt lat="50.58756" lon="2.93035">
        <ele>28.98</ele>
        <time>2021-08-07T12:31:25Z</time>
      </trkpt>
      <trkpt lat="50.58759" lon="2.93104">
        <ele>28.98</ele>
        <time>2021-08-07T12:31:33Z</time>
      </trkpt>
      <trkpt lat="50.58762" lon="2.93177">
        <ele>28.5</ele>
        <time>2021-08-07T12:31:43Z</time>
      </trkpt>
      <trkpt lat="50.58766" lon="2.93247">
        <ele>28.5</ele>
        <time>2021-08-07T12:31:54Z</time>
      </trkpt>
      <trkpt lat="50.58771" lon="2.93294">
        <ele>28.5</ele>
        <time>2021-08-07T12:32:01Z</time>
      </trkpt>
      <trkpt lat="50.58786" lon="2.93354">
        <ele>28.5</ele>
        <time>2021-08-07T12:32:10Z</time>
      </trkpt>
      <trkpt lat="50.58804" lon="2.93406">
        <ele>28.5</ele>
        <time>2021-08-07T12:32:18Z</time>
      </trkpt>
      <trkpt lat="50.58813" lon="2.93424">
        <ele>28.5</ele>
        <time>2021-08-07T12:32:21Z</time>
      </trkpt>
      <trkpt lat="50.58844" lon="2.93462">
        <ele>28.5</ele>
        <time>2021-08-07T12:32:29Z</time>
      </trkpt>
      <trkpt lat="50.58885" lon="2.93501">
        <ele>28.02</ele>
        <time>2021-08-07T12:32:38Z</time>
      </trkpt>
      <trkpt lat="50.58924" lon="2.93546">
        <ele>27.53</ele>
        <time>2021-08-07T12:32:47Z</time>
      </trkpt>
      <trkpt lat="50.58928" lon="2.9355">
        <ele>27.53</ele>
        <time>2021-08-07T12:32:48Z</time>
      </trkpt>
      <trkpt lat="50.58933" lon="2.93556">
        <ele>27.53</ele>
        <time>2021-08-07T12:32:49Z</time>
      </trkpt>
      <trkpt lat="50.58955" lon="2.9359">
        <ele>27.05</ele>
        <time>2021-08-07T12:32:55Z</time>
      </trkpt>
      <trkpt lat="50.58993" lon="2.93653">
        <ele>27.53</ele>
        <time>2021-08-07T12:33:05Z</time>
      </trkpt>
      <trkpt lat="50.59031" lon="2.9371">
        <ele>27.53</ele>
        <time>2021-08-07T12:33:15Z</time>
      </trkpt>
      <trkpt lat="50.59045" lon="2.93731">
        <ele>28.5</ele>
        <time>2021-08-07T12:33:19Z</time>
      </trkpt>
      <trkpt lat="50.59084" lon="2.93788">
        <ele>28.98</ele>
        <time>2021-08-07T12:33:29Z</time>
      </trkpt>
      <trkpt lat="50.59115" lon="2.93825">
        <ele>27.53</ele>
        <time>2021-08-07T12:33:36Z</time>
      </trkpt>
      <trkpt lat="50.59166" lon="2.93853">
        <ele>27.05</ele>
        <time>2021-08-07T12:33:45Z</time>
      </trkpt>
      <trkpt lat="50.59216" lon="2.9388">
        <ele>27.05</ele>
        <time>2021-08-07T12:33:54Z</time>
      </trkpt>
      <trkpt lat="50.59261" lon="2.93906">
        <ele>27.05</ele>
        <time>2021-08-07T12:34:03Z</time>
      </trkpt>
      <trkpt lat="50.59285" lon="2.93922">
        <ele>27.05</ele>
        <time>2021-08-07T12:34:08Z</time>
      </trkpt>
      <trkpt lat="50.59289" lon="2.93928">
        <ele>27.05</ele>
        <time>2021-08-07T12:34:09Z</time>
      </trkpt>
      <trkpt lat="50.59291" lon="2.93934">
        <ele>27.05</ele>
        <time>2021-08-07T12:34:10Z</time>
      </trkpt>
      <trkpt lat="50.59293" lon="2.93942">
        <ele>27.05</ele>
        <time>2021-08-07T12:34:11Z</time>
      </trkpt>
      <trkpt lat="50.59293" lon="2.93951">
        <ele>27.05</ele>
        <time>2021-08-07T12:34:12Z</time>
      </trkpt>
      <trkpt lat="50.59292" lon="2.93959">
        <ele>26.57</ele>
        <time>2021-08-07T12:34:13Z</time>
      </trkpt>
      <trkpt lat="50.59291" lon="2.93967">
        <ele>26.57</ele>
        <time>2021-08-07T12:34:14Z</time>
      </trkpt>
      <trkpt lat="50.59289" lon="2.93975">
        <ele>26.57</ele>
        <time>2021-08-07T12:34:15Z</time>
      </trkpt>
      <trkpt lat="50.59288" lon="2.93982">
        <ele>27.53</ele>
        <time>2021-08-07T12:34:16Z</time>
      </trkpt>
      <trkpt lat="50.59288" lon="2.9399">
        <ele>27.53</ele>
        <time>2021-08-07T12:34:17Z</time>
      </trkpt>
      <trkpt lat="50.59287" lon="2.93997">
        <ele>27.53</ele>
        <time>2021-08-07T12:34:18Z</time>
      </trkpt>
      <trkpt lat="50.59278" lon="2.94056">
        <ele>27.53</ele>
        <time>2021-08-07T12:34:26Z</time>
      </trkpt>
      <trkpt lat="50.59275" lon="2.94079">
        <ele>26.09</ele>
        <time>2021-08-07T12:34:29Z</time>
      </trkpt>
      <trkpt lat="50.59264" lon="2.94157">
        <ele>26.57</ele>
        <time>2021-08-07T12:34:39Z</time>
      </trkpt>
      <trkpt lat="50.59259" lon="2.94188">
        <ele>25.13</ele>
        <time>2021-08-07T12:34:43Z</time>
      </trkpt>
      <trkpt lat="50.59258" lon="2.94203">
        <ele>26.57</ele>
        <time>2021-08-07T12:34:45Z</time>
      </trkpt>
      <trkpt lat="50.59258" lon="2.94211">
        <ele>26.57</ele>
        <time>2021-08-07T12:34:46Z</time>
      </trkpt>
      <trkpt lat="50.59258" lon="2.94219">
        <ele>26.57</ele>
        <time>2021-08-07T12:34:47Z</time>
      </trkpt>
      <trkpt lat="50.59259" lon="2.94227">
        <ele>26.57</ele>
        <time>2021-08-07T12:34:48Z</time>
      </trkpt>
      <trkpt lat="50.59261" lon="2.94234">
        <ele>26.57</ele>
        <time>2021-08-07T12:34:49Z</time>
      </trkpt>
      <trkpt lat="50.59262" lon="2.94242">
        <ele>26.57</ele>
        <time>2021-08-07T12:34:50Z</time>
      </trkpt>
      <trkpt lat="50.5928" lon="2.94317">
        <ele>26.57</ele>
        <time>2021-08-07T12:35:00Z</time>
      </trkpt>
      <trkpt lat="50.59295" lon="2.94385">
        <ele>26.57</ele>
        <time>2021-08-07T12:35:09Z</time>
      </trkpt>
      <trkpt lat="50.59307" lon="2.94455">
        <ele>26.57</ele>
        <time>2021-08-07T12:35:18Z</time>
      </trkpt>
      <trkpt lat="50.59318" lon="2.94522">
        <ele>26.09</ele>
        <time>2021-08-07T12:35:27Z</time>
      </trkpt>
      <trkpt lat="50.59329" lon="2.94587">
        <ele>26.09</ele>
        <time>2021-08-07T12:35:36Z</time>
      </trkpt>
      <trkpt lat="50.59329" lon="2.94594">
        <ele>26.09</ele>
        <time>2021-08-07T12:35:37Z</time>
      </trkpt>
      <trkpt lat="50.59329" lon="2.94601">
        <ele>26.09</ele>
        <time>2021-08-07T12:35:38Z</time>
      </trkpt>
      <trkpt lat="50.59328" lon="2.94608">
        <ele>26.09</ele>
        <time>2021-08-07T12:35:39Z</time>
      </trkpt>
      <trkpt lat="50.59326" lon="2.94615">
        <ele>26.09</ele>
        <time>2021-08-07T12:35:40Z</time>
      </trkpt>
      <trkpt lat="50.59323" lon="2.94619">
        <ele>24.65</ele>
        <time>2021-08-07T12:35:41Z</time>
      </trkpt>
      <trkpt lat="50.5932" lon="2.94622">
        <ele>24.65</ele>
        <time>2021-08-07T12:35:42Z</time>
      </trkpt>
      <trkpt lat="50.59316" lon="2.94626">
        <ele>24.65</ele>
        <time>2021-08-07T12:35:43Z</time>
      </trkpt>
      <trkpt lat="50.59312" lon="2.9463">
        <ele>24.65</ele>
        <time>2021-08-07T12:35:44Z</time>
      </trkpt>
      <trkpt lat="50.59285" lon="2.94654">
        <ele>24.65</ele>
        <time>2021-08-07T12:35:51Z</time>
      </trkpt>
      <trkpt lat="50.59281" lon="2.94657">
        <ele>24.65</ele>
        <time>2021-08-07T12:35:52Z</time>
      </trkpt>
      <trkpt lat="50.59277" lon="2.94661">
        <ele>24.65</ele>
        <time>2021-08-07T12:35:53Z</time>
      </trkpt>
      <trkpt lat="50.59244" lon="2.94701">
        <ele>24.17</ele>
        <time>2021-08-07T12:36:02Z</time>
      </trkpt>
      <trkpt lat="50.59212" lon="2.9474">
        <ele>23.69</ele>
        <time>2021-08-07T12:36:11Z</time>
      </trkpt>
      <trkpt lat="50.59186" lon="2.94774">
        <ele>23.21</ele>
        <time>2021-08-07T12:36:20Z</time>
      </trkpt>
      <trkpt lat="50.59177" lon="2.94787">
        <ele>25.13</ele>
        <time>2021-08-07T12:36:26Z</time>
      </trkpt>
      <trkpt lat="50.59177" lon="2.9479">
        <ele>25.13</ele>
        <time>2021-08-07T12:36:37Z</time>
      </trkpt>
      <trkpt lat="50.59174" lon="2.94792">
        <ele>23.69</ele>
        <time>2021-08-07T12:36:44Z</time>
      </trkpt>
      <trkpt lat="50.59174" lon="2.94792">
        <ele>23.21</ele>
        <time>2021-08-07T12:36:58Z</time>
      </trkpt>
      <trkpt lat="50.59175" lon="2.94792">
        <ele>23.21</ele>
        <time>2021-08-07T12:37:13Z</time>
      </trkpt>
      <trkpt lat="50.59174" lon="2.94791">
        <ele>23.21</ele>
        <time>2021-08-07T12:37:25Z</time>
      </trkpt>
      <trkpt lat="50.59174" lon="2.94791">
        <ele>23.21</ele>
        <time>2021-08-07T12:37:34Z</time>
      </trkpt>
      <trkpt lat="50.59174" lon="2.94791">
        <ele>23.21</ele>
        <time>2021-08-07T12:37:46Z</time>
      </trkpt>
      <trkpt lat="50.59174" lon="2.94792">
        <ele>23.21</ele>
        <time>2021-08-07T12:38:00Z</time>
      </trkpt>
      <trkpt lat="50.59175" lon="2.94793">
        <ele>23.21</ele>
        <time>2021-08-07T12:38:10Z</time>
      </trkpt>
      <trkpt lat="50.59174" lon="2.94793">
        <ele>23.21</ele>
        <time>2021-08-07T12:38:21Z</time>
      </trkpt>
      <trkpt lat="50.59175" lon="2.94793">
        <ele>23.21</ele>
        <time>2021-08-07T12:38:33Z</time>
      </trkpt>
      <trkpt lat="50.59174" lon="2.94792">
        <ele>23.21</ele>
        <time>2021-08-07T12:38:43Z</time>
      </trkpt>
      <trkpt lat="50.59174" lon="2.94792">
        <ele>23.21</ele>
        <time>2021-08-07T12:39:01Z</time>
      </trkpt>
      <trkpt lat="50.59174" lon="2.94792">
        <ele>23.21</ele>
        <time>2021-08-07T12:39:11Z</time>
      </trkpt>
      <trkpt lat="50.59174" lon="2.94791">
        <ele>23.21</ele>
        <time>2021-08-07T12:39:25Z</time>
      </trkpt>
      <trkpt lat="50.59174" lon="2.94791">
        <ele>23.21</ele>
        <time>2021-08-07T12:39:26Z</time>
      </trkpt>
      <trkpt lat="50.59175" lon="2.94792">
        <ele>24.65</ele>
        <time>2021-08-07T12:39:36Z</time>
      </trkpt>
      <trkpt lat="50.59175" lon="2.94797">
        <ele>24.65</ele>
        <time>2021-08-07T12:39:44Z</time>
      </trkpt>
      <trkpt lat="50.59175" lon="2.94801">
        <ele>24.65</ele>
        <time>2021-08-07T12:39:48Z</time>
      </trkpt>
      <trkpt lat="50.59175" lon="2.94803">
        <ele>24.65</ele>
        <time>2021-08-07T12:39:49Z</time>
      </trkpt>
      <trkpt lat="50.59175" lon="2.94806">
        <ele>24.65</ele>
        <time>2021-08-07T12:39:50Z</time>
      </trkpt>
      <trkpt lat="50.59175" lon="2.94809">
        <ele>24.65</ele>
        <time>2021-08-07T12:39:51Z</time>
      </trkpt>
      <trkpt lat="50.59175" lon="2.94812">
        <ele>24.65</ele>
        <time>2021-08-07T12:39:52Z</time>
      </trkpt>
      <trkpt lat="50.59175" lon="2.94814">
        <ele>24.65</ele>
        <time>2021-08-07T12:39:53Z</time>
      </trkpt>
      <trkpt lat="50.59176" lon="2.94819">
        <ele>24.65</ele>
        <time>2021-08-07T12:39:54Z</time>
      </trkpt>
      <trkpt lat="50.59177" lon="2.94824">
        <ele>24.65</ele>
        <time>2021-08-07T12:39:55Z</time>
      </trkpt>
      <trkpt lat="50.5918" lon="2.94829">
        <ele>25.13</ele>
        <time>2021-08-07T12:39:56Z</time>
      </trkpt>
      <trkpt lat="50.59182" lon="2.94832">
        <ele>25.13</ele>
        <time>2021-08-07T12:39:57Z</time>
      </trkpt>
      <trkpt lat="50.59186" lon="2.94836">
        <ele>25.13</ele>
        <time>2021-08-07T12:39:58Z</time>
      </trkpt>
      <trkpt lat="50.59188" lon="2.94841">
        <ele>25.13</ele>
        <time>2021-08-07T12:39:59Z</time>
      </trkpt>
      <trkpt lat="50.5919" lon="2.94848">
        <ele>25.13</ele>
        <time>2021-08-07T12:40:00Z</time>
      </trkpt>
      <trkpt lat="50.5919" lon="2.94854">
        <ele>25.13</ele>
        <time>2021-08-07T12:40:01Z</time>
      </trkpt>
      <trkpt lat="50.59189" lon="2.94861">
        <ele>23.69</ele>
        <time>2021-08-07T12:40:02Z</time>
      </trkpt>
      <trkpt lat="50.59187" lon="2.94867">
        <ele>23.21</ele>
        <time>2021-08-07T12:40:03Z</time>
      </trkpt>
      <trkpt lat="50.59185" lon="2.94873">
        <ele>23.21</ele>
        <time>2021-08-07T12:40:04Z</time>
      </trkpt>
      <trkpt lat="50.59182" lon="2.94879">
        <ele>23.21</ele>
        <time>2021-08-07T12:40:05Z</time>
      </trkpt>
      <trkpt lat="50.59179" lon="2.94885">
        <ele>23.21</ele>
        <time>2021-08-07T12:40:06Z</time>
      </trkpt>
      <trkpt lat="50.59175" lon="2.94891">
        <ele>23.21</ele>
        <time>2021-08-07T12:40:07Z</time>
      </trkpt>
      <trkpt lat="50.59171" lon="2.94896">
        <ele>22.73</ele>
        <time>2021-08-07T12:40:08Z</time>
      </trkpt>
      <trkpt lat="50.59131" lon="2.94941">
        <ele>21.77</ele>
        <time>2021-08-07T12:40:18Z</time>
      </trkpt>
      <trkpt lat="50.59116" lon="2.94957">
        <ele>21.77</ele>
        <time>2021-08-07T12:40:22Z</time>
      </trkpt>
      <trkpt lat="50.59112" lon="2.94961">
        <ele>21.77</ele>
        <time>2021-08-07T12:40:23Z</time>
      </trkpt>
      <trkpt lat="50.59109" lon="2.94965">
        <ele>21.77</ele>
        <time>2021-08-07T12:40:24Z</time>
      </trkpt>
      <trkpt lat="50.59073" lon="2.95015">
        <ele>23.21</ele>
        <time>2021-08-07T12:40:34Z</time>
      </trkpt>
      <trkpt lat="50.59066" lon="2.95025">
        <ele>23.21</ele>
        <time>2021-08-07T12:40:36Z</time>
      </trkpt>
      <trkpt lat="50.59053" lon="2.95048">
        <ele>23.21</ele>
        <time>2021-08-07T12:40:40Z</time>
      </trkpt>
      <trkpt lat="50.59047" lon="2.9506">
        <ele>21.29</ele>
        <time>2021-08-07T12:40:42Z</time>
      </trkpt>
      <trkpt lat="50.59044" lon="2.95065">
        <ele>21.29</ele>
        <time>2021-08-07T12:40:43Z</time>
      </trkpt>
      <trkpt lat="50.5904" lon="2.9507">
        <ele>21.29</ele>
        <time>2021-08-07T12:40:44Z</time>
      </trkpt>
      <trkpt lat="50.59023" lon="2.95103">
        <ele>22.73</ele>
        <time>2021-08-07T12:40:50Z</time>
      </trkpt>
      <trkpt lat="50.58996" lon="2.9515">
        <ele>23.21</ele>
        <time>2021-08-07T12:40:59Z</time>
      </trkpt>
      <trkpt lat="50.58959" lon="2.95199">
        <ele>23.69</ele>
        <time>2021-08-07T12:41:10Z</time>
      </trkpt>
      <trkpt lat="50.58917" lon="2.95241">
        <ele>23.69</ele>
        <time>2021-08-07T12:41:21Z</time>
      </trkpt>
      <trkpt lat="50.58883" lon="2.95275">
        <ele>23.69</ele>
        <time>2021-08-07T12:41:30Z</time>
      </trkpt>
      <trkpt lat="50.58845" lon="2.95313">
        <ele>24.17</ele>
        <time>2021-08-07T12:41:40Z</time>
      </trkpt>
      <trkpt lat="50.58804" lon="2.95348">
        <ele>24.17</ele>
        <time>2021-08-07T12:41:50Z</time>
      </trkpt>
      <trkpt lat="50.58766" lon="2.95387">
        <ele>24.17</ele>
        <time>2021-08-07T12:42:00Z</time>
      </trkpt>
      <trkpt lat="50.58743" lon="2.95419">
        <ele>23.21</ele>
        <time>2021-08-07T12:42:07Z</time>
      </trkpt>
      <trkpt lat="50.58736" lon="2.95427">
        <ele>23.21</ele>
        <time>2021-08-07T12:42:09Z</time>
      </trkpt>
      <trkpt lat="50.58732" lon="2.95431">
        <ele>23.21</ele>
        <time>2021-08-07T12:42:10Z</time>
      </trkpt>
      <trkpt lat="50.58726" lon="2.9544">
        <ele>24.65</ele>
        <time>2021-08-07T12:42:12Z</time>
      </trkpt>
      <trkpt lat="50.58701" lon="2.95476">
        <ele>24.65</ele>
        <time>2021-08-07T12:42:20Z</time>
      </trkpt>
      <trkpt lat="50.58695" lon="2.95482">
        <ele>24.65</ele>
        <time>2021-08-07T12:42:22Z</time>
      </trkpt>
      <trkpt lat="50.58692" lon="2.95485">
        <ele>24.65</ele>
        <time>2021-08-07T12:42:23Z</time>
      </trkpt>
      <trkpt lat="50.58689" lon="2.9549">
        <ele>24.65</ele>
        <time>2021-08-07T12:42:24Z</time>
      </trkpt>
      <trkpt lat="50.58685" lon="2.95495">
        <ele>24.65</ele>
        <time>2021-08-07T12:42:25Z</time>
      </trkpt>
      <trkpt lat="50.58682" lon="2.95499">
        <ele>24.65</ele>
        <time>2021-08-07T12:42:26Z</time>
      </trkpt>
      <trkpt lat="50.58678" lon="2.95503">
        <ele>24.65</ele>
        <time>2021-08-07T12:42:27Z</time>
      </trkpt>
      <trkpt lat="50.58663" lon="2.95522">
        <ele>23.21</ele>
        <time>2021-08-07T12:42:31Z</time>
      </trkpt>
      <trkpt lat="50.58659" lon="2.95527">
        <ele>23.21</ele>
        <time>2021-08-07T12:42:32Z</time>
      </trkpt>
      <trkpt lat="50.58655" lon="2.95532">
        <ele>23.21</ele>
        <time>2021-08-07T12:42:33Z</time>
      </trkpt>
      <trkpt lat="50.58651" lon="2.95536">
        <ele>22.73</ele>
        <time>2021-08-07T12:42:34Z</time>
      </trkpt>
      <trkpt lat="50.58646" lon="2.9554">
        <ele>22.73</ele>
        <time>2021-08-07T12:42:35Z</time>
      </trkpt>
      <trkpt lat="50.58632" lon="2.95551">
        <ele>22.25</ele>
        <time>2021-08-07T12:42:38Z</time>
      </trkpt>
      <trkpt lat="50.58628" lon="2.95553">
        <ele>22.25</ele>
        <time>2021-08-07T12:42:39Z</time>
      </trkpt>
      <trkpt lat="50.58623" lon="2.95554">
        <ele>22.25</ele>
        <time>2021-08-07T12:42:40Z</time>
      </trkpt>
      <trkpt lat="50.58617" lon="2.95553">
        <ele>22.25</ele>
        <time>2021-08-07T12:42:41Z</time>
      </trkpt>
      <trkpt lat="50.58613" lon="2.95551">
        <ele>22.25</ele>
        <time>2021-08-07T12:42:42Z</time>
      </trkpt>
      <trkpt lat="50.58608" lon="2.95548">
        <ele>22.25</ele>
        <time>2021-08-07T12:42:43Z</time>
      </trkpt>
      <trkpt lat="50.58604" lon="2.95544">
        <ele>22.25</ele>
        <time>2021-08-07T12:42:44Z</time>
      </trkpt>
      <trkpt lat="50.586" lon="2.95539">
        <ele>22.25</ele>
        <time>2021-08-07T12:42:45Z</time>
      </trkpt>
      <trkpt lat="50.58597" lon="2.95535">
        <ele>22.25</ele>
        <time>2021-08-07T12:42:46Z</time>
      </trkpt>
      <trkpt lat="50.58594" lon="2.9553">
        <ele>22.25</ele>
        <time>2021-08-07T12:42:47Z</time>
      </trkpt>
      <trkpt lat="50.58579" lon="2.95515">
        <ele>22.25</ele>
        <time>2021-08-07T12:42:51Z</time>
      </trkpt>
      <trkpt lat="50.58575" lon="2.95514">
        <ele>22.25</ele>
        <time>2021-08-07T12:42:52Z</time>
      </trkpt>
      <trkpt lat="50.58571" lon="2.95515">
        <ele>22.25</ele>
        <time>2021-08-07T12:42:53Z</time>
      </trkpt>
      <trkpt lat="50.58567" lon="2.95517">
        <ele>22.25</ele>
        <time>2021-08-07T12:42:54Z</time>
      </trkpt>
      <trkpt lat="50.58563" lon="2.9552">
        <ele>22.25</ele>
        <time>2021-08-07T12:42:55Z</time>
      </trkpt>
      <trkpt lat="50.5856" lon="2.95523">
        <ele>22.25</ele>
        <time>2021-08-07T12:42:56Z</time>
      </trkpt>
      <trkpt lat="50.58556" lon="2.95527">
        <ele>22.25</ele>
        <time>2021-08-07T12:42:57Z</time>
      </trkpt>
      <trkpt lat="50.58552" lon="2.95531">
        <ele>21.29</ele>
        <time>2021-08-07T12:42:58Z</time>
      </trkpt>
      <trkpt lat="50.58546" lon="2.95538">
        <ele>20.32</ele>
        <time>2021-08-07T12:43:00Z</time>
      </trkpt>
      <trkpt lat="50.58536" lon="2.95548">
        <ele>22.25</ele>
        <time>2021-08-07T12:43:03Z</time>
      </trkpt>
      <trkpt lat="50.58502" lon="2.95585">
        <ele>22.25</ele>
        <time>2021-08-07T12:43:13Z</time>
      </trkpt>
      <trkpt lat="50.58498" lon="2.95589">
        <ele>22.25</ele>
        <time>2021-08-07T12:43:14Z</time>
      </trkpt>
      <trkpt lat="50.58484" lon="2.95603">
        <ele>19.84</ele>
        <time>2021-08-07T12:43:18Z</time>
      </trkpt>
      <trkpt lat="50.58477" lon="2.9561">
        <ele>21.29</ele>
        <time>2021-08-07T12:43:20Z</time>
      </trkpt>
      <trkpt lat="50.58464" lon="2.95625">
        <ele>21.29</ele>
        <time>2021-08-07T12:43:24Z</time>
      </trkpt>
      <trkpt lat="50.58461" lon="2.95628">
        <ele>21.29</ele>
        <time>2021-08-07T12:43:25Z</time>
      </trkpt>
      <trkpt lat="50.58457" lon="2.95632">
        <ele>21.29</ele>
        <time>2021-08-07T12:43:26Z</time>
      </trkpt>
      <trkpt lat="50.58441" lon="2.95644">
        <ele>21.29</ele>
        <time>2021-08-07T12:43:30Z</time>
      </trkpt>
      <trkpt lat="50.58437" lon="2.95644">
        <ele>21.29</ele>
        <time>2021-08-07T12:43:31Z</time>
      </trkpt>
      <trkpt lat="50.58432" lon="2.95641">
        <ele>21.77</ele>
        <time>2021-08-07T12:43:32Z</time>
      </trkpt>
      <trkpt lat="50.58428" lon="2.95635">
        <ele>21.77</ele>
        <time>2021-08-07T12:43:33Z</time>
      </trkpt>
      <trkpt lat="50.58425" lon="2.9563">
        <ele>22.25</ele>
        <time>2021-08-07T12:43:34Z</time>
      </trkpt>
      <trkpt lat="50.58397" lon="2.95579">
        <ele>22.25</ele>
        <time>2021-08-07T12:43:43Z</time>
      </trkpt>
      <trkpt lat="50.58391" lon="2.95569">
        <ele>22.25</ele>
        <time>2021-08-07T12:43:45Z</time>
      </trkpt>
      <trkpt lat="50.58387" lon="2.95566">
        <ele>22.25</ele>
        <time>2021-08-07T12:43:46Z</time>
      </trkpt>
      <trkpt lat="50.58382" lon="2.95566">
        <ele>22.25</ele>
        <time>2021-08-07T12:43:47Z</time>
      </trkpt>
      <trkpt lat="50.58378" lon="2.95569">
        <ele>21.29</ele>
        <time>2021-08-07T12:43:48Z</time>
      </trkpt>
      <trkpt lat="50.58374" lon="2.95573">
        <ele>21.29</ele>
        <time>2021-08-07T12:43:49Z</time>
      </trkpt>
      <trkpt lat="50.5837" lon="2.95579">
        <ele>21.29</ele>
        <time>2021-08-07T12:43:50Z</time>
      </trkpt>
      <trkpt lat="50.58367" lon="2.95584">
        <ele>21.29</ele>
        <time>2021-08-07T12:43:51Z</time>
      </trkpt>
      <trkpt lat="50.58364" lon="2.9559">
        <ele>20.81</ele>
        <time>2021-08-07T12:43:52Z</time>
      </trkpt>
      <trkpt lat="50.58337" lon="2.9564">
        <ele>20.32</ele>
        <time>2021-08-07T12:44:01Z</time>
      </trkpt>
      <trkpt lat="50.58303" lon="2.95687">
        <ele>20.81</ele>
        <time>2021-08-07T12:44:11Z</time>
      </trkpt>
      <trkpt lat="50.58279" lon="2.95713">
        <ele>20.81</ele>
        <time>2021-08-07T12:44:17Z</time>
      </trkpt>
      <trkpt lat="50.58274" lon="2.95716">
        <ele>20.81</ele>
        <time>2021-08-07T12:44:18Z</time>
      </trkpt>
      <trkpt lat="50.58238" lon="2.9573">
        <ele>19.84</ele>
        <time>2021-08-07T12:44:26Z</time>
      </trkpt>
      <trkpt lat="50.58214" lon="2.95745">
        <ele>20.32</ele>
        <time>2021-08-07T12:44:32Z</time>
      </trkpt>
      <trkpt lat="50.58207" lon="2.95749">
        <ele>20.32</ele>
        <time>2021-08-07T12:44:34Z</time>
      </trkpt>
      <trkpt lat="50.58199" lon="2.95753">
        <ele>20.32</ele>
        <time>2021-08-07T12:44:36Z</time>
      </trkpt>
      <trkpt lat="50.58194" lon="2.95753">
        <ele>20.32</ele>
        <time>2021-08-07T12:44:37Z</time>
      </trkpt>
      <trkpt lat="50.5819" lon="2.95752">
        <ele>20.32</ele>
        <time>2021-08-07T12:44:38Z</time>
      </trkpt>
      <trkpt lat="50.58187" lon="2.95749">
        <ele>20.81</ele>
        <time>2021-08-07T12:44:39Z</time>
      </trkpt>
      <trkpt lat="50.58183" lon="2.95746">
        <ele>21.29</ele>
        <time>2021-08-07T12:44:40Z</time>
      </trkpt>
      <trkpt lat="50.5817" lon="2.95736">
        <ele>19.36</ele>
        <time>2021-08-07T12:44:44Z</time>
      </trkpt>
      <trkpt lat="50.58162" lon="2.95734">
        <ele>19.36</ele>
        <time>2021-08-07T12:44:46Z</time>
      </trkpt>
      <trkpt lat="50.58158" lon="2.95734">
        <ele>19.36</ele>
        <time>2021-08-07T12:44:47Z</time>
      </trkpt>
      <trkpt lat="50.58154" lon="2.95735">
        <ele>19.36</ele>
        <time>2021-08-07T12:44:48Z</time>
      </trkpt>
      <trkpt lat="50.5815" lon="2.95736">
        <ele>19.36</ele>
        <time>2021-08-07T12:44:49Z</time>
      </trkpt>
      <trkpt lat="50.58146" lon="2.95738">
        <ele>18.88</ele>
        <time>2021-08-07T12:44:50Z</time>
      </trkpt>
      <trkpt lat="50.58142" lon="2.9574">
        <ele>18.88</ele>
        <time>2021-08-07T12:44:51Z</time>
      </trkpt>
      <trkpt lat="50.58113" lon="2.9576">
        <ele>19.36</ele>
        <time>2021-08-07T12:44:59Z</time>
      </trkpt>
      <trkpt lat="50.58109" lon="2.95763">
        <ele>19.36</ele>
        <time>2021-08-07T12:45:00Z</time>
      </trkpt>
      <trkpt lat="50.58087" lon="2.95779">
        <ele>19.36</ele>
        <time>2021-08-07T12:45:06Z</time>
      </trkpt>
      <trkpt lat="50.58084" lon="2.95783">
        <ele>19.36</ele>
        <time>2021-08-07T12:45:07Z</time>
      </trkpt>
      <trkpt lat="50.58081" lon="2.95787">
        <ele>19.84</ele>
        <time>2021-08-07T12:45:08Z</time>
      </trkpt>
      <trkpt lat="50.58051" lon="2.95823">
        <ele>18.4</ele>
        <time>2021-08-07T12:45:17Z</time>
      </trkpt>
      <trkpt lat="50.58048" lon="2.95828">
        <ele>18.4</ele>
        <time>2021-08-07T12:45:18Z</time>
      </trkpt>
      <trkpt lat="50.58046" lon="2.95833">
        <ele>18.4</ele>
        <time>2021-08-07T12:45:19Z</time>
      </trkpt>
      <trkpt lat="50.58043" lon="2.95839">
        <ele>18.4</ele>
        <time>2021-08-07T12:45:20Z</time>
      </trkpt>
      <trkpt lat="50.5804" lon="2.9585">
        <ele>19.84</ele>
        <time>2021-08-07T12:45:22Z</time>
      </trkpt>
      <trkpt lat="50.58025" lon="2.95909">
        <ele>20.32</ele>
        <time>2021-08-07T12:45:31Z</time>
      </trkpt>
      <trkpt lat="50.58022" lon="2.95923">
        <ele>20.32</ele>
        <time>2021-08-07T12:45:33Z</time>
      </trkpt>
      <trkpt lat="50.5802" lon="2.9593">
        <ele>20.32</ele>
        <time>2021-08-07T12:45:34Z</time>
      </trkpt>
      <trkpt lat="50.58009" lon="2.95971">
        <ele>20.32</ele>
        <time>2021-08-07T12:45:41Z</time>
      </trkpt>
      <trkpt lat="50.58004" lon="2.95988">
        <ele>21.29</ele>
        <time>2021-08-07T12:45:46Z</time>
      </trkpt>
      <trkpt lat="50.58002" lon="2.95989">
        <ele>21.29</ele>
        <time>2021-08-07T12:45:47Z</time>
      </trkpt>
      <trkpt lat="50.58001" lon="2.9599">
        <ele>21.29</ele>
        <time>2021-08-07T12:45:53Z</time>
      </trkpt>
      <trkpt lat="50.58001" lon="2.95989">
        <ele>19.84</ele>
        <time>2021-08-07T12:46:07Z</time>
      </trkpt>
      <trkpt lat="50.58" lon="2.95989">
        <ele>20.81</ele>
        <time>2021-08-07T12:46:19Z</time>
      </trkpt>
      <trkpt lat="50.58001" lon="2.95989">
        <ele>21.29</ele>
        <time>2021-08-07T12:46:30Z</time>
      </trkpt>
      <trkpt lat="50.58001" lon="2.95989">
        <ele>20.81</ele>
        <time>2021-08-07T12:46:41Z</time>
      </trkpt>
      <trkpt lat="50.58002" lon="2.95993">
        <ele>20.81</ele>
        <time>2021-08-07T12:46:46Z</time>
      </trkpt>
      <trkpt lat="50.58002" lon="2.95995">
        <ele>20.81</ele>
        <time>2021-08-07T12:46:47Z</time>
      </trkpt>
      <trkpt lat="50.58001" lon="2.95997">
        <ele>20.81</ele>
        <time>2021-08-07T12:46:48Z</time>
      </trkpt>
      <trkpt lat="50.57999" lon="2.95999">
        <ele>20.81</ele>
        <time>2021-08-07T12:46:49Z</time>
      </trkpt>
      <trkpt lat="50.57998" lon="2.96002">
        <ele>20.81</ele>
        <time>2021-08-07T12:46:50Z</time>
      </trkpt>
      <trkpt lat="50.57996" lon="2.96005">
        <ele>20.81</ele>
        <time>2021-08-07T12:46:51Z</time>
      </trkpt>
      <trkpt lat="50.57995" lon="2.96009">
        <ele>20.81</ele>
        <time>2021-08-07T12:46:52Z</time>
      </trkpt>
      <trkpt lat="50.57993" lon="2.96013">
        <ele>20.81</ele>
        <time>2021-08-07T12:46:53Z</time>
      </trkpt>
      <trkpt lat="50.57991" lon="2.96019">
        <ele>20.81</ele>
        <time>2021-08-07T12:46:54Z</time>
      </trkpt>
      <trkpt lat="50.57977" lon="2.96063">
        <ele>20.81</ele>
        <time>2021-08-07T12:47:01Z</time>
      </trkpt>
      <trkpt lat="50.57969" lon="2.96082">
        <ele>21.29</ele>
        <time>2021-08-07T12:47:04Z</time>
      </trkpt>
      <trkpt lat="50.57967" lon="2.96088">
        <ele>21.29</ele>
        <time>2021-08-07T12:47:05Z</time>
      </trkpt>
      <trkpt lat="50.57965" lon="2.96094">
        <ele>21.29</ele>
        <time>2021-08-07T12:47:06Z</time>
      </trkpt>
      <trkpt lat="50.57961" lon="2.96107">
        <ele>21.29</ele>
        <time>2021-08-07T12:47:08Z</time>
      </trkpt>
      <trkpt lat="50.57959" lon="2.96113">
        <ele>21.29</ele>
        <time>2021-08-07T12:47:09Z</time>
      </trkpt>
      <trkpt lat="50.57954" lon="2.96126">
        <ele>21.29</ele>
        <time>2021-08-07T12:47:11Z</time>
      </trkpt>
      <trkpt lat="50.57951" lon="2.96132">
        <ele>21.29</ele>
        <time>2021-08-07T12:47:12Z</time>
      </trkpt>
      <trkpt lat="50.57946" lon="2.96145">
        <ele>21.29</ele>
        <time>2021-08-07T12:47:14Z</time>
      </trkpt>
      <trkpt lat="50.57943" lon="2.96151">
        <ele>21.29</ele>
        <time>2021-08-07T12:47:15Z</time>
      </trkpt>
      <trkpt lat="50.57936" lon="2.96169">
        <ele>21.29</ele>
        <time>2021-08-07T12:47:18Z</time>
      </trkpt>
      <trkpt lat="50.57933" lon="2.96174">
        <ele>21.29</ele>
        <time>2021-08-07T12:47:19Z</time>
      </trkpt>
      <trkpt lat="50.57926" lon="2.96185">
        <ele>21.29</ele>
        <time>2021-08-07T12:47:21Z</time>
      </trkpt>
      <trkpt lat="50.57908" lon="2.96214">
        <ele>21.29</ele>
        <time>2021-08-07T12:47:26Z</time>
      </trkpt>
      <trkpt lat="50.579" lon="2.96224">
        <ele>20.32</ele>
        <time>2021-08-07T12:47:28Z</time>
      </trkpt>
      <trkpt lat="50.57892" lon="2.96234">
        <ele>20.32</ele>
        <time>2021-08-07T12:47:30Z</time>
      </trkpt>
      <trkpt lat="50.57888" lon="2.96238">
        <ele>20.32</ele>
        <time>2021-08-07T12:47:31Z</time>
      </trkpt>
      <trkpt lat="50.57872" lon="2.96258">
        <ele>20.32</ele>
        <time>2021-08-07T12:47:35Z</time>
      </trkpt>
      <trkpt lat="50.57864" lon="2.96267">
        <ele>20.32</ele>
        <time>2021-08-07T12:47:37Z</time>
      </trkpt>
      <trkpt lat="50.5786" lon="2.96272">
        <ele>20.32</ele>
        <time>2021-08-07T12:47:38Z</time>
      </trkpt>
      <trkpt lat="50.57848" lon="2.96286">
        <ele>20.32</ele>
        <time>2021-08-07T12:47:41Z</time>
      </trkpt>
      <trkpt lat="50.57841" lon="2.96297">
        <ele>20.32</ele>
        <time>2021-08-07T12:47:43Z</time>
      </trkpt>
      <trkpt lat="50.57838" lon="2.96303">
        <ele>20.32</ele>
        <time>2021-08-07T12:47:44Z</time>
      </trkpt>
      <trkpt lat="50.57836" lon="2.9631">
        <ele>20.32</ele>
        <time>2021-08-07T12:47:45Z</time>
      </trkpt>
      <trkpt lat="50.57835" lon="2.96317">
        <ele>20.32</ele>
        <time>2021-08-07T12:47:46Z</time>
      </trkpt>
      <trkpt lat="50.57833" lon="2.96325">
        <ele>20.32</ele>
        <time>2021-08-07T12:47:47Z</time>
      </trkpt>
      <trkpt lat="50.57832" lon="2.96333">
        <ele>20.32</ele>
        <time>2021-08-07T12:47:48Z</time>
      </trkpt>
      <trkpt lat="50.57832" lon="2.96341">
        <ele>20.32</ele>
        <time>2021-08-07T12:47:49Z</time>
      </trkpt>
      <trkpt lat="50.57832" lon="2.96349">
        <ele>20.32</ele>
        <time>2021-08-07T12:47:50Z</time>
      </trkpt>
      <trkpt lat="50.57832" lon="2.96355">
        <ele>20.32</ele>
        <time>2021-08-07T12:47:51Z</time>
      </trkpt>
      <trkpt lat="50.57836" lon="2.9639">
        <ele>19.84</ele>
        <time>2021-08-07T12:47:56Z</time>
      </trkpt>
      <trkpt lat="50.57837" lon="2.96433">
        <ele>19.84</ele>
        <time>2021-08-07T12:48:03Z</time>
      </trkpt>
      <trkpt lat="50.57847" lon="2.96466">
        <ele>19.84</ele>
        <time>2021-08-07T12:48:09Z</time>
      </trkpt>
      <trkpt lat="50.57851" lon="2.96471">
        <ele>19.84</ele>
        <time>2021-08-07T12:48:10Z</time>
      </trkpt>
      <trkpt lat="50.57879" lon="2.96508">
        <ele>19.84</ele>
        <time>2021-08-07T12:48:18Z</time>
      </trkpt>
      <trkpt lat="50.57894" lon="2.96531">
        <ele>19.84</ele>
        <time>2021-08-07T12:48:22Z</time>
      </trkpt>
      <trkpt lat="50.57898" lon="2.96537">
        <ele>19.84</ele>
        <time>2021-08-07T12:48:23Z</time>
      </trkpt>
      <trkpt lat="50.57914" lon="2.96567">
        <ele>19.84</ele>
        <time>2021-08-07T12:48:28Z</time>
      </trkpt>
      <trkpt lat="50.57916" lon="2.96574">
        <ele>19.84</ele>
        <time>2021-08-07T12:48:29Z</time>
      </trkpt>
      <trkpt lat="50.57918" lon="2.96583">
        <ele>19.84</ele>
        <time>2021-08-07T12:48:30Z</time>
      </trkpt>
      <trkpt lat="50.57919" lon="2.96589">
        <ele>19.84</ele>
        <time>2021-08-07T12:48:31Z</time>
      </trkpt>
      <trkpt lat="50.5792" lon="2.96596">
        <ele>19.84</ele>
        <time>2021-08-07T12:48:32Z</time>
      </trkpt>
      <trkpt lat="50.5792" lon="2.96604">
        <ele>19.84</ele>
        <time>2021-08-07T12:48:33Z</time>
      </trkpt>
      <trkpt lat="50.57921" lon="2.96612">
        <ele>19.84</ele>
        <time>2021-08-07T12:48:34Z</time>
      </trkpt>
      <trkpt lat="50.57917" lon="2.96669">
        <ele>19.84</ele>
        <time>2021-08-07T12:48:41Z</time>
      </trkpt>
      <trkpt lat="50.57915" lon="2.96695">
        <ele>19.84</ele>
        <time>2021-08-07T12:48:44Z</time>
      </trkpt>
      <trkpt lat="50.57909" lon="2.96727">
        <ele>19.84</ele>
        <time>2021-08-07T12:48:48Z</time>
      </trkpt>
      <trkpt lat="50.57907" lon="2.96733">
        <ele>19.84</ele>
        <time>2021-08-07T12:48:49Z</time>
      </trkpt>
      <trkpt lat="50.57903" lon="2.9674">
        <ele>19.84</ele>
        <time>2021-08-07T12:48:50Z</time>
      </trkpt>
      <trkpt lat="50.5787" lon="2.96781">
        <ele>19.84</ele>
        <time>2021-08-07T12:48:57Z</time>
      </trkpt>
      <trkpt lat="50.57835" lon="2.96813">
        <ele>19.36</ele>
        <time>2021-08-07T12:49:04Z</time>
      </trkpt>
      <trkpt lat="50.57829" lon="2.96816">
        <ele>19.36</ele>
        <time>2021-08-07T12:49:05Z</time>
      </trkpt>
      <trkpt lat="50.57823" lon="2.9682">
        <ele>19.36</ele>
        <time>2021-08-07T12:49:06Z</time>
      </trkpt>
      <trkpt lat="50.57818" lon="2.96824">
        <ele>19.36</ele>
        <time>2021-08-07T12:49:07Z</time>
      </trkpt>
      <trkpt lat="50.57815" lon="2.9683">
        <ele>19.36</ele>
        <time>2021-08-07T12:49:08Z</time>
      </trkpt>
      <trkpt lat="50.57814" lon="2.96838">
        <ele>19.36</ele>
        <time>2021-08-07T12:49:09Z</time>
      </trkpt>
      <trkpt lat="50.57814" lon="2.96844">
        <ele>19.36</ele>
        <time>2021-08-07T12:49:10Z</time>
      </trkpt>
      <trkpt lat="50.57816" lon="2.96851">
        <ele>20.32</ele>
        <time>2021-08-07T12:49:11Z</time>
      </trkpt>
      <trkpt lat="50.57819" lon="2.96857">
        <ele>20.32</ele>
        <time>2021-08-07T12:49:12Z</time>
      </trkpt>
      <trkpt lat="50.57821" lon="2.96861">
        <ele>20.32</ele>
        <time>2021-08-07T12:49:13Z</time>
      </trkpt>
      <trkpt lat="50.57829" lon="2.96879">
        <ele>21.77</ele>
        <time>2021-08-07T12:49:19Z</time>
      </trkpt>
      <trkpt lat="50.57836" lon="2.96899">
        <ele>22.73</ele>
        <time>2021-08-07T12:49:25Z</time>
      </trkpt>
      <trkpt lat="50.57849" lon="2.96935">
        <ele>19.84</ele>
        <time>2021-08-07T12:49:31Z</time>
      </trkpt>
      <trkpt lat="50.5787" lon="2.96975">
        <ele>19.84</ele>
        <time>2021-08-07T12:49:36Z</time>
      </trkpt>
      <trkpt lat="50.5788" lon="2.96987">
        <ele>19.84</ele>
        <time>2021-08-07T12:49:38Z</time>
      </trkpt>
      <trkpt lat="50.57884" lon="2.96994">
        <ele>19.84</ele>
        <time>2021-08-07T12:49:39Z</time>
      </trkpt>
      <trkpt lat="50.57887" lon="2.97002">
        <ele>19.84</ele>
        <time>2021-08-07T12:49:40Z</time>
      </trkpt>
      <trkpt lat="50.5789" lon="2.9701">
        <ele>19.84</ele>
        <time>2021-08-07T12:49:41Z</time>
      </trkpt>
      <trkpt lat="50.57892" lon="2.97018">
        <ele>19.84</ele>
        <time>2021-08-07T12:49:42Z</time>
      </trkpt>
      <trkpt lat="50.57893" lon="2.97027">
        <ele>19.84</ele>
        <time>2021-08-07T12:49:43Z</time>
      </trkpt>
      <trkpt lat="50.57893" lon="2.97036">
        <ele>19.84</ele>
        <time>2021-08-07T12:49:44Z</time>
      </trkpt>
      <trkpt lat="50.57892" lon="2.97045">
        <ele>19.84</ele>
        <time>2021-08-07T12:49:45Z</time>
      </trkpt>
      <trkpt lat="50.5789" lon="2.97053">
        <ele>19.84</ele>
        <time>2021-08-07T12:49:46Z</time>
      </trkpt>
      <trkpt lat="50.57888" lon="2.9706">
        <ele>19.84</ele>
        <time>2021-08-07T12:49:47Z</time>
      </trkpt>
      <trkpt lat="50.57885" lon="2.97066">
        <ele>19.84</ele>
        <time>2021-08-07T12:49:48Z</time>
      </trkpt>
      <trkpt lat="50.5788" lon="2.97079">
        <ele>19.84</ele>
        <time>2021-08-07T12:49:50Z</time>
      </trkpt>
      <trkpt lat="50.57864" lon="2.97135">
        <ele>19.84</ele>
        <time>2021-08-07T12:49:58Z</time>
      </trkpt>
      <trkpt lat="50.5786" lon="2.97148">
        <ele>21.29</ele>
        <time>2021-08-07T12:50:00Z</time>
      </trkpt>
      <trkpt lat="50.57857" lon="2.97155">
        <ele>21.29</ele>
        <time>2021-08-07T12:50:01Z</time>
      </trkpt>
      <trkpt lat="50.57856" lon="2.97161">
        <ele>21.29</ele>
        <time>2021-08-07T12:50:02Z</time>
      </trkpt>
      <trkpt lat="50.57854" lon="2.97168">
        <ele>21.29</ele>
        <time>2021-08-07T12:50:03Z</time>
      </trkpt>
      <trkpt lat="50.57853" lon="2.97175">
        <ele>21.29</ele>
        <time>2021-08-07T12:50:04Z</time>
      </trkpt>
      <trkpt lat="50.57853" lon="2.97183">
        <ele>21.29</ele>
        <time>2021-08-07T12:50:05Z</time>
      </trkpt>
      <trkpt lat="50.57852" lon="2.9719">
        <ele>21.29</ele>
        <time>2021-08-07T12:50:06Z</time>
      </trkpt>
      <trkpt lat="50.57845" lon="2.97256">
        <ele>21.77</ele>
        <time>2021-08-07T12:50:15Z</time>
      </trkpt>
      <trkpt lat="50.5784" lon="2.97289">
        <ele>22.73</ele>
        <time>2021-08-07T12:50:20Z</time>
      </trkpt>
      <trkpt lat="50.57835" lon="2.9731">
        <ele>22.73</ele>
        <time>2021-08-07T12:50:23Z</time>
      </trkpt>
      <trkpt lat="50.57833" lon="2.97317">
        <ele>22.73</ele>
        <time>2021-08-07T12:50:24Z</time>
      </trkpt>
      <trkpt lat="50.57831" lon="2.97323">
        <ele>22.73</ele>
        <time>2021-08-07T12:50:25Z</time>
      </trkpt>
      <trkpt lat="50.57828" lon="2.9733">
        <ele>22.73</ele>
        <time>2021-08-07T12:50:26Z</time>
      </trkpt>
      <trkpt lat="50.57825" lon="2.97335">
        <ele>22.73</ele>
        <time>2021-08-07T12:50:27Z</time>
      </trkpt>
      <trkpt lat="50.57822" lon="2.97342">
        <ele>22.73</ele>
        <time>2021-08-07T12:50:28Z</time>
      </trkpt>
      <trkpt lat="50.57818" lon="2.97348">
        <ele>22.73</ele>
        <time>2021-08-07T12:50:29Z</time>
      </trkpt>
      <trkpt lat="50.57812" lon="2.97356">
        <ele>22.73</ele>
        <time>2021-08-07T12:50:30Z</time>
      </trkpt>
      <trkpt lat="50.57807" lon="2.97362">
        <ele>22.73</ele>
        <time>2021-08-07T12:50:31Z</time>
      </trkpt>
      <trkpt lat="50.57799" lon="2.97373">
        <ele>22.73</ele>
        <time>2021-08-07T12:50:33Z</time>
      </trkpt>
      <trkpt lat="50.57796" lon="2.9738">
        <ele>22.73</ele>
        <time>2021-08-07T12:50:34Z</time>
      </trkpt>
      <trkpt lat="50.57794" lon="2.97387">
        <ele>23.69</ele>
        <time>2021-08-07T12:50:35Z</time>
      </trkpt>
      <trkpt lat="50.57793" lon="2.97395">
        <ele>23.69</ele>
        <time>2021-08-07T12:50:36Z</time>
      </trkpt>
      <trkpt lat="50.57794" lon="2.97403">
        <ele>23.69</ele>
        <time>2021-08-07T12:50:37Z</time>
      </trkpt>
      <trkpt lat="50.57794" lon="2.97412">
        <ele>23.69</ele>
        <time>2021-08-07T12:50:38Z</time>
      </trkpt>
      <trkpt lat="50.57795" lon="2.97421">
        <ele>23.69</ele>
        <time>2021-08-07T12:50:39Z</time>
      </trkpt>
      <trkpt lat="50.57794" lon="2.97431">
        <ele>21.77</ele>
        <time>2021-08-07T12:50:40Z</time>
      </trkpt>
      <trkpt lat="50.57793" lon="2.9744">
        <ele>19.84</ele>
        <time>2021-08-07T12:50:41Z</time>
      </trkpt>
      <trkpt lat="50.5779" lon="2.97449">
        <ele>19.84</ele>
        <time>2021-08-07T12:50:42Z</time>
      </trkpt>
      <trkpt lat="50.57788" lon="2.97458">
        <ele>19.84</ele>
        <time>2021-08-07T12:50:43Z</time>
      </trkpt>
      <trkpt lat="50.57788" lon="2.97468">
        <ele>19.84</ele>
        <time>2021-08-07T12:50:44Z</time>
      </trkpt>
      <trkpt lat="50.57788" lon="2.97477">
        <ele>19.84</ele>
        <time>2021-08-07T12:50:45Z</time>
      </trkpt>
      <trkpt lat="50.57789" lon="2.97486">
        <ele>21.29</ele>
        <time>2021-08-07T12:50:46Z</time>
      </trkpt>
      <trkpt lat="50.57791" lon="2.97492">
        <ele>21.29</ele>
        <time>2021-08-07T12:50:47Z</time>
      </trkpt>
      <trkpt lat="50.57793" lon="2.97499">
        <ele>21.29</ele>
        <time>2021-08-07T12:50:48Z</time>
      </trkpt>
      <trkpt lat="50.57796" lon="2.97506">
        <ele>21.29</ele>
        <time>2021-08-07T12:50:49Z</time>
      </trkpt>
      <trkpt lat="50.57799" lon="2.97511">
        <ele>21.29</ele>
        <time>2021-08-07T12:50:50Z</time>
      </trkpt>
      <trkpt lat="50.57802" lon="2.97516">
        <ele>21.29</ele>
        <time>2021-08-07T12:50:51Z</time>
      </trkpt>
      <trkpt lat="50.57844" lon="2.97568">
        <ele>19.84</ele>
        <time>2021-08-07T12:51:01Z</time>
      </trkpt>
      <trkpt lat="50.57869" lon="2.97591">
        <ele>19.84</ele>
        <time>2021-08-07T12:51:06Z</time>
      </trkpt>
      <trkpt lat="50.57895" lon="2.97611">
        <ele>21.29</ele>
        <time>2021-08-07T12:51:11Z</time>
      </trkpt>
      <trkpt lat="50.57929" lon="2.97634">
        <ele>22.73</ele>
        <time>2021-08-07T12:51:18Z</time>
      </trkpt>
      <trkpt lat="50.5797" lon="2.97666">
        <ele>23.21</ele>
        <time>2021-08-07T12:51:28Z</time>
      </trkpt>
      <trkpt lat="50.57988" lon="2.97681">
        <ele>25.61</ele>
        <time>2021-08-07T12:51:35Z</time>
      </trkpt>
      <trkpt lat="50.5799" lon="2.97688">
        <ele>26.09</ele>
        <time>2021-08-07T12:51:37Z</time>
      </trkpt>
      <trkpt lat="50.5799" lon="2.97692">
        <ele>26.09</ele>
        <time>2021-08-07T12:51:38Z</time>
      </trkpt>
      <trkpt lat="50.5799" lon="2.97696">
        <ele>26.09</ele>
        <time>2021-08-07T12:51:39Z</time>
      </trkpt>
      <trkpt lat="50.57988" lon="2.977">
        <ele>26.09</ele>
        <time>2021-08-07T12:51:40Z</time>
      </trkpt>
      <trkpt lat="50.57987" lon="2.97703">
        <ele>26.57</ele>
        <time>2021-08-07T12:51:41Z</time>
      </trkpt>
      <trkpt lat="50.57986" lon="2.97707">
        <ele>26.57</ele>
        <time>2021-08-07T12:51:42Z</time>
      </trkpt>
      <trkpt lat="50.57987" lon="2.97711">
        <ele>26.57</ele>
        <time>2021-08-07T12:51:43Z</time>
      </trkpt>
      <trkpt lat="50.57987" lon="2.97715">
        <ele>26.57</ele>
        <time>2021-08-07T12:51:44Z</time>
      </trkpt>
      <trkpt lat="50.57988" lon="2.97724">
        <ele>27.05</ele>
        <time>2021-08-07T12:51:46Z</time>
      </trkpt>
      <trkpt lat="50.57988" lon="2.97728">
        <ele>27.05</ele>
        <time>2021-08-07T12:51:47Z</time>
      </trkpt>
      <trkpt lat="50.57979" lon="2.97769">
        <ele>28.5</ele>
        <time>2021-08-07T12:51:56Z</time>
      </trkpt>
      <trkpt lat="50.57974" lon="2.97789">
        <ele>29.94</ele>
        <time>2021-08-07T12:52:00Z</time>
      </trkpt>
      <trkpt lat="50.57964" lon="2.97833">
        <ele>28.5</ele>
        <time>2021-08-07T12:52:08Z</time>
      </trkpt>
      <trkpt lat="50.5796" lon="2.97851">
        <ele>26.57</ele>
        <time>2021-08-07T12:52:11Z</time>
      </trkpt>
      <trkpt lat="50.57958" lon="2.97863">
        <ele>26.57</ele>
        <time>2021-08-07T12:52:13Z</time>
      </trkpt>
      <trkpt lat="50.57955" lon="2.97875">
        <ele>28.5</ele>
        <time>2021-08-07T12:52:15Z</time>
      </trkpt>
      <trkpt lat="50.57952" lon="2.97888">
        <ele>27.05</ele>
        <time>2021-08-07T12:52:17Z</time>
      </trkpt>
      <trkpt lat="50.57948" lon="2.979">
        <ele>26.57</ele>
        <time>2021-08-07T12:52:19Z</time>
      </trkpt>
      <trkpt lat="50.57944" lon="2.97906">
        <ele>26.09</ele>
        <time>2021-08-07T12:52:20Z</time>
      </trkpt>
      <trkpt lat="50.5794" lon="2.97909">
        <ele>26.09</ele>
        <time>2021-08-07T12:52:21Z</time>
      </trkpt>
      <trkpt lat="50.57931" lon="2.97915">
        <ele>25.61</ele>
        <time>2021-08-07T12:52:23Z</time>
      </trkpt>
      <trkpt lat="50.57926" lon="2.97918">
        <ele>25.61</ele>
        <time>2021-08-07T12:52:24Z</time>
      </trkpt>
      <trkpt lat="50.57921" lon="2.97919">
        <ele>25.61</ele>
        <time>2021-08-07T12:52:25Z</time>
      </trkpt>
      <trkpt lat="50.57916" lon="2.97918">
        <ele>25.61</ele>
        <time>2021-08-07T12:52:26Z</time>
      </trkpt>
      <trkpt lat="50.57911" lon="2.97917">
        <ele>24.17</ele>
        <time>2021-08-07T12:52:27Z</time>
      </trkpt>
      <trkpt lat="50.57906" lon="2.97917">
        <ele>23.21</ele>
        <time>2021-08-07T12:52:28Z</time>
      </trkpt>
      <trkpt lat="50.579" lon="2.97919">
        <ele>22.25</ele>
        <time>2021-08-07T12:52:29Z</time>
      </trkpt>
      <trkpt lat="50.57894" lon="2.9792">
        <ele>21.77</ele>
        <time>2021-08-07T12:52:30Z</time>
      </trkpt>
      <trkpt lat="50.57887" lon="2.97921">
        <ele>21.29</ele>
        <time>2021-08-07T12:52:31Z</time>
      </trkpt>
      <trkpt lat="50.5788" lon="2.97921">
        <ele>21.29</ele>
        <time>2021-08-07T12:52:32Z</time>
      </trkpt>
      <trkpt lat="50.57848" lon="2.97918">
        <ele>21.29</ele>
        <time>2021-08-07T12:52:38Z</time>
      </trkpt>
      <trkpt lat="50.57843" lon="2.97917">
        <ele>21.29</ele>
        <time>2021-08-07T12:52:39Z</time>
      </trkpt>
      <trkpt lat="50.5783" lon="2.97913">
        <ele>22.25</ele>
        <time>2021-08-07T12:52:42Z</time>
      </trkpt>
      <trkpt lat="50.57781" lon="2.97891">
        <ele>22.73</ele>
        <time>2021-08-07T12:52:54Z</time>
      </trkpt>
      <trkpt lat="50.57747" lon="2.97868">
        <ele>22.25</ele>
        <time>2021-08-07T12:53:02Z</time>
      </trkpt>
      <trkpt lat="50.577" lon="2.97828">
        <ele>20.81</ele>
        <time>2021-08-07T12:53:11Z</time>
      </trkpt>
      <trkpt lat="50.57687" lon="2.97814">
        <ele>20.81</ele>
        <time>2021-08-07T12:53:14Z</time>
      </trkpt>
      <trkpt lat="50.57684" lon="2.97809">
        <ele>20.81</ele>
        <time>2021-08-07T12:53:15Z</time>
      </trkpt>
      <trkpt lat="50.57665" lon="2.97776">
        <ele>22.25</ele>
        <time>2021-08-07T12:53:22Z</time>
      </trkpt>
      <trkpt lat="50.5766" lon="2.97759">
        <ele>22.73</ele>
        <time>2021-08-07T12:53:25Z</time>
      </trkpt>
      <trkpt lat="50.57657" lon="2.97753">
        <ele>22.73</ele>
        <time>2021-08-07T12:53:26Z</time>
      </trkpt>
      <trkpt lat="50.5765" lon="2.97742">
        <ele>22.73</ele>
        <time>2021-08-07T12:53:28Z</time>
      </trkpt>
      <trkpt lat="50.57646" lon="2.97737">
        <ele>22.73</ele>
        <time>2021-08-07T12:53:29Z</time>
      </trkpt>
      <trkpt lat="50.57642" lon="2.97732">
        <ele>22.73</ele>
        <time>2021-08-07T12:53:30Z</time>
      </trkpt>
      <trkpt lat="50.57614" lon="2.97703">
        <ele>22.73</ele>
        <time>2021-08-07T12:53:37Z</time>
      </trkpt>
      <trkpt lat="50.57603" lon="2.97691">
        <ele>21.29</ele>
        <time>2021-08-07T12:53:40Z</time>
      </trkpt>
      <trkpt lat="50.576" lon="2.97685">
        <ele>21.29</ele>
        <time>2021-08-07T12:53:41Z</time>
      </trkpt>
      <trkpt lat="50.57594" lon="2.97674">
        <ele>21.29</ele>
        <time>2021-08-07T12:53:43Z</time>
      </trkpt>
      <trkpt lat="50.57574" lon="2.97641">
        <ele>21.29</ele>
        <time>2021-08-07T12:53:49Z</time>
      </trkpt>
      <trkpt lat="50.5757" lon="2.97635">
        <ele>21.29</ele>
        <time>2021-08-07T12:53:50Z</time>
      </trkpt>
      <trkpt lat="50.57566" lon="2.97629">
        <ele>21.29</ele>
        <time>2021-08-07T12:53:51Z</time>
      </trkpt>
      <trkpt lat="50.57562" lon="2.97623">
        <ele>21.29</ele>
        <time>2021-08-07T12:53:52Z</time>
      </trkpt>
      <trkpt lat="50.57559" lon="2.97618">
        <ele>21.29</ele>
        <time>2021-08-07T12:53:53Z</time>
      </trkpt>
      <trkpt lat="50.57555" lon="2.97612">
        <ele>21.29</ele>
        <time>2021-08-07T12:53:54Z</time>
      </trkpt>
      <trkpt lat="50.57522" lon="2.9757">
        <ele>20.81</ele>
        <time>2021-08-07T12:54:02Z</time>
      </trkpt>
      <trkpt lat="50.57491" lon="2.97537">
        <ele>20.81</ele>
        <time>2021-08-07T12:54:10Z</time>
      </trkpt>
      <trkpt lat="50.57461" lon="2.975">
        <ele>20.81</ele>
        <time>2021-08-07T12:54:18Z</time>
      </trkpt>
      <trkpt lat="50.57434" lon="2.97465">
        <ele>20.32</ele>
        <time>2021-08-07T12:54:26Z</time>
      </trkpt>
      <trkpt lat="50.57421" lon="2.97448">
        <ele>19.36</ele>
        <time>2021-08-07T12:54:30Z</time>
      </trkpt>
      <trkpt lat="50.57417" lon="2.97444">
        <ele>19.36</ele>
        <time>2021-08-07T12:54:31Z</time>
      </trkpt>
      <trkpt lat="50.57413" lon="2.97439">
        <ele>19.36</ele>
        <time>2021-08-07T12:54:32Z</time>
      </trkpt>
      <trkpt lat="50.57397" lon="2.97417">
        <ele>21.29</ele>
        <time>2021-08-07T12:54:37Z</time>
      </trkpt>
      <trkpt lat="50.57382" lon="2.97396">
        <ele>20.81</ele>
        <time>2021-08-07T12:54:42Z</time>
      </trkpt>
      <trkpt lat="50.57378" lon="2.97392">
        <ele>20.81</ele>
        <time>2021-08-07T12:54:43Z</time>
      </trkpt>
      <trkpt lat="50.57375" lon="2.97388">
        <ele>20.81</ele>
        <time>2021-08-07T12:54:44Z</time>
      </trkpt>
      <trkpt lat="50.57355" lon="2.97361">
        <ele>21.29</ele>
        <time>2021-08-07T12:54:50Z</time>
      </trkpt>
      <trkpt lat="50.57317" lon="2.97311">
        <ele>20.81</ele>
        <time>2021-08-07T12:55:01Z</time>
      </trkpt>
      <trkpt lat="50.57293" lon="2.97281">
        <ele>19.84</ele>
        <time>2021-08-07T12:55:08Z</time>
      </trkpt>
      <trkpt lat="50.57251" lon="2.97227">
        <ele>19.84</ele>
        <time>2021-08-07T12:55:20Z</time>
      </trkpt>
      <trkpt lat="50.5722" lon="2.97186">
        <ele>20.81</ele>
        <time>2021-08-07T12:55:29Z</time>
      </trkpt>
      <trkpt lat="50.57203" lon="2.97159">
        <ele>20.81</ele>
        <time>2021-08-07T12:55:35Z</time>
      </trkpt>
      <trkpt lat="50.57199" lon="2.97156">
        <ele>20.81</ele>
        <time>2021-08-07T12:55:36Z</time>
      </trkpt>
      <trkpt lat="50.57196" lon="2.97154">
        <ele>20.81</ele>
        <time>2021-08-07T12:55:37Z</time>
      </trkpt>
      <trkpt lat="50.57192" lon="2.97156">
        <ele>19.84</ele>
        <time>2021-08-07T12:55:38Z</time>
      </trkpt>
      <trkpt lat="50.57189" lon="2.9716">
        <ele>19.84</ele>
        <time>2021-08-07T12:55:39Z</time>
      </trkpt>
      <trkpt lat="50.57161" lon="2.97194">
        <ele>18.88</ele>
        <time>2021-08-07T12:55:47Z</time>
      </trkpt>
      <trkpt lat="50.57159" lon="2.97193">
        <ele>18.88</ele>
        <time>2021-08-07T12:55:48Z</time>
      </trkpt>
      <trkpt lat="50.57157" lon="2.97191">
        <ele>18.88</ele>
        <time>2021-08-07T12:55:49Z</time>
      </trkpt>
      <trkpt lat="50.57155" lon="2.97189">
        <ele>18.88</ele>
        <time>2021-08-07T12:55:50Z</time>
      </trkpt>
      <trkpt lat="50.57154" lon="2.97187">
        <ele>18.88</ele>
        <time>2021-08-07T12:55:51Z</time>
      </trkpt>
      <trkpt lat="50.57152" lon="2.97185">
        <ele>18.88</ele>
        <time>2021-08-07T12:55:52Z</time>
      </trkpt>
      <trkpt lat="50.57151" lon="2.97182">
        <ele>18.88</ele>
        <time>2021-08-07T12:55:53Z</time>
      </trkpt>
      <trkpt lat="50.57147" lon="2.97174">
        <ele>18.88</ele>
        <time>2021-08-07T12:55:56Z</time>
      </trkpt>
      <trkpt lat="50.57147" lon="2.9717">
        <ele>18.88</ele>
        <time>2021-08-07T12:55:57Z</time>
      </trkpt>
      <trkpt lat="50.57148" lon="2.97166">
        <ele>18.88</ele>
        <time>2021-08-07T12:55:58Z</time>
      </trkpt>
      <trkpt lat="50.57149" lon="2.97162">
        <ele>18.88</ele>
        <time>2021-08-07T12:55:59Z</time>
      </trkpt>
      <trkpt lat="50.5715" lon="2.97158">
        <ele>18.88</ele>
        <time>2021-08-07T12:56:00Z</time>
      </trkpt>
      <trkpt lat="50.57151" lon="2.97153">
        <ele>20.32</ele>
        <time>2021-08-07T12:56:01Z</time>
      </trkpt>
      <trkpt lat="50.57152" lon="2.97148">
        <ele>20.32</ele>
        <time>2021-08-07T12:56:02Z</time>
      </trkpt>
      <trkpt lat="50.57159" lon="2.97123">
        <ele>21.29</ele>
        <time>2021-08-07T12:56:09Z</time>
      </trkpt>
      <trkpt lat="50.57167" lon="2.97106">
        <ele>21.77</ele>
        <time>2021-08-07T12:56:15Z</time>
      </trkpt>
      <trkpt lat="50.57168" lon="2.97099">
        <ele>21.77</ele>
        <time>2021-08-07T12:56:16Z</time>
      </trkpt>
      <trkpt lat="50.57168" lon="2.97091">
        <ele>20.32</ele>
        <time>2021-08-07T12:56:17Z</time>
      </trkpt>
      <trkpt lat="50.57148" lon="2.97039">
        <ele>19.36</ele>
        <time>2021-08-07T12:56:24Z</time>
      </trkpt>
      <trkpt lat="50.57119" lon="2.96981">
        <ele>18.4</ele>
        <time>2021-08-07T12:56:33Z</time>
      </trkpt>
      <trkpt lat="50.57089" lon="2.96922">
        <ele>18.4</ele>
        <time>2021-08-07T12:56:43Z</time>
      </trkpt>
      <trkpt lat="50.5707" lon="2.96883">
        <ele>19.84</ele>
        <time>2021-08-07T12:56:50Z</time>
      </trkpt>
      <trkpt lat="50.57067" lon="2.96878">
        <ele>19.84</ele>
        <time>2021-08-07T12:56:51Z</time>
      </trkpt>
      <trkpt lat="50.57048" lon="2.96841">
        <ele>20.32</ele>
        <time>2021-08-07T12:56:59Z</time>
      </trkpt>
      <trkpt lat="50.57045" lon="2.96838">
        <ele>20.32</ele>
        <time>2021-08-07T12:57:01Z</time>
      </trkpt>
      <trkpt lat="50.57044" lon="2.96837">
        <ele>20.32</ele>
        <time>2021-08-07T12:57:02Z</time>
      </trkpt>
      <trkpt lat="50.57042" lon="2.96836">
        <ele>20.32</ele>
        <time>2021-08-07T12:57:03Z</time>
      </trkpt>
      <trkpt lat="50.5703" lon="2.96818">
        <ele>20.32</ele>
        <time>2021-08-07T12:57:08Z</time>
      </trkpt>
      <trkpt lat="50.57017" lon="2.96801">
        <ele>19.36</ele>
        <time>2021-08-07T12:57:12Z</time>
      </trkpt>
      <trkpt lat="50.57014" lon="2.96796">
        <ele>19.36</ele>
        <time>2021-08-07T12:57:13Z</time>
      </trkpt>
      <trkpt lat="50.57001" lon="2.96771">
        <ele>19.36</ele>
        <time>2021-08-07T12:57:18Z</time>
      </trkpt>
      <trkpt lat="50.56999" lon="2.96766">
        <ele>19.36</ele>
        <time>2021-08-07T12:57:19Z</time>
      </trkpt>
      <trkpt lat="50.56996" lon="2.96761">
        <ele>19.36</ele>
        <time>2021-08-07T12:57:20Z</time>
      </trkpt>
      <trkpt lat="50.56972" lon="2.96726">
        <ele>19.36</ele>
        <time>2021-08-07T12:57:27Z</time>
      </trkpt>
      <trkpt lat="50.56947" lon="2.96688">
        <ele>19.36</ele>
        <time>2021-08-07T12:57:35Z</time>
      </trkpt>
      <trkpt lat="50.56941" lon="2.96678">
        <ele>19.36</ele>
        <time>2021-08-07T12:57:37Z</time>
      </trkpt>
      <trkpt lat="50.56938" lon="2.96672">
        <ele>19.36</ele>
        <time>2021-08-07T12:57:38Z</time>
      </trkpt>
      <trkpt lat="50.56936" lon="2.96666">
        <ele>19.36</ele>
        <time>2021-08-07T12:57:39Z</time>
      </trkpt>
      <trkpt lat="50.56934" lon="2.96661">
        <ele>19.36</ele>
        <time>2021-08-07T12:57:40Z</time>
      </trkpt>
      <trkpt lat="50.56933" lon="2.96655">
        <ele>19.36</ele>
        <time>2021-08-07T12:57:41Z</time>
      </trkpt>
      <trkpt lat="50.56929" lon="2.96646">
        <ele>19.36</ele>
        <time>2021-08-07T12:57:43Z</time>
      </trkpt>
      <trkpt lat="50.56925" lon="2.96643">
        <ele>19.36</ele>
        <time>2021-08-07T12:57:44Z</time>
      </trkpt>
      <trkpt lat="50.56917" lon="2.9664">
        <ele>19.36</ele>
        <time>2021-08-07T12:57:46Z</time>
      </trkpt>
      <trkpt lat="50.56912" lon="2.96638">
        <ele>19.36</ele>
        <time>2021-08-07T12:57:47Z</time>
      </trkpt>
      <trkpt lat="50.56907" lon="2.96634">
        <ele>19.36</ele>
        <time>2021-08-07T12:57:48Z</time>
      </trkpt>
      <trkpt lat="50.56904" lon="2.9663">
        <ele>18.88</ele>
        <time>2021-08-07T12:57:49Z</time>
      </trkpt>
      <trkpt lat="50.569" lon="2.96625">
        <ele>19.36</ele>
        <time>2021-08-07T12:57:50Z</time>
      </trkpt>
      <trkpt lat="50.56892" lon="2.96616">
        <ele>19.36</ele>
        <time>2021-08-07T12:57:52Z</time>
      </trkpt>
      <trkpt lat="50.56888" lon="2.96612">
        <ele>19.36</ele>
        <time>2021-08-07T12:57:53Z</time>
      </trkpt>
      <trkpt lat="50.56884" lon="2.96608">
        <ele>19.36</ele>
        <time>2021-08-07T12:57:54Z</time>
      </trkpt>
      <trkpt lat="50.56881" lon="2.96604">
        <ele>19.36</ele>
        <time>2021-08-07T12:57:55Z</time>
      </trkpt>
      <trkpt lat="50.56877" lon="2.96601">
        <ele>19.36</ele>
        <time>2021-08-07T12:57:56Z</time>
      </trkpt>
      <trkpt lat="50.56873" lon="2.96596">
        <ele>19.36</ele>
        <time>2021-08-07T12:57:57Z</time>
      </trkpt>
      <trkpt lat="50.56848" lon="2.96563">
        <ele>19.36</ele>
        <time>2021-08-07T12:58:05Z</time>
      </trkpt>
      <trkpt lat="50.56816" lon="2.96523">
        <ele>19.36</ele>
        <time>2021-08-07T12:58:15Z</time>
      </trkpt>
      <trkpt lat="50.56788" lon="2.96484">
        <ele>19.36</ele>
        <time>2021-08-07T12:58:24Z</time>
      </trkpt>
      <trkpt lat="50.56756" lon="2.96439">
        <ele>19.36</ele>
        <time>2021-08-07T12:58:34Z</time>
      </trkpt>
      <trkpt lat="50.56725" lon="2.96392">
        <ele>19.36</ele>
        <time>2021-08-07T12:58:43Z</time>
      </trkpt>
      <trkpt lat="50.56711" lon="2.96371">
        <ele>18.88</ele>
        <time>2021-08-07T12:58:47Z</time>
      </trkpt>
      <trkpt lat="50.56708" lon="2.96365">
        <ele>19.36</ele>
        <time>2021-08-07T12:58:48Z</time>
      </trkpt>
      <trkpt lat="50.56704" lon="2.9636">
        <ele>18.88</ele>
        <time>2021-08-07T12:58:49Z</time>
      </trkpt>
      <trkpt lat="50.56697" lon="2.9635">
        <ele>18.88</ele>
        <time>2021-08-07T12:58:51Z</time>
      </trkpt>
      <trkpt lat="50.5668" lon="2.96321">
        <ele>19.36</ele>
        <time>2021-08-07T12:58:58Z</time>
      </trkpt>
      <trkpt lat="50.56657" lon="2.96285">
        <ele>18.88</ele>
        <time>2021-08-07T12:59:06Z</time>
      </trkpt>
      <trkpt lat="50.56634" lon="2.96251">
        <ele>19.36</ele>
        <time>2021-08-07T12:59:14Z</time>
      </trkpt>
      <trkpt lat="50.56616" lon="2.9622">
        <ele>18.88</ele>
        <time>2021-08-07T12:59:21Z</time>
      </trkpt>
      <trkpt lat="50.5659" lon="2.96178">
        <ele>18.88</ele>
        <time>2021-08-07T12:59:30Z</time>
      </trkpt>
      <trkpt lat="50.56561" lon="2.9613">
        <ele>18.88</ele>
        <time>2021-08-07T12:59:40Z</time>
      </trkpt>
      <trkpt lat="50.56557" lon="2.96124">
        <ele>18.88</ele>
        <time>2021-08-07T12:59:41Z</time>
      </trkpt>
      <trkpt lat="50.56529" lon="2.96076">
        <ele>18.4</ele>
        <time>2021-08-07T12:59:50Z</time>
      </trkpt>
      <trkpt lat="50.56509" lon="2.96042">
        <ele>18.4</ele>
        <time>2021-08-07T12:59:56Z</time>
      </trkpt>
      <trkpt lat="50.56505" lon="2.96038">
        <ele>18.4</ele>
        <time>2021-08-07T12:59:57Z</time>
      </trkpt>
      <trkpt lat="50.56501" lon="2.96033">
        <ele>18.4</ele>
        <time>2021-08-07T12:59:58Z</time>
      </trkpt>
      <trkpt lat="50.56498" lon="2.96027">
        <ele>18.4</ele>
        <time>2021-08-07T12:59:59Z</time>
      </trkpt>
      <trkpt lat="50.56495" lon="2.96022">
        <ele>18.4</ele>
        <time>2021-08-07T13:00:00Z</time>
      </trkpt>
      <trkpt lat="50.56492" lon="2.96016">
        <ele>18.4</ele>
        <time>2021-08-07T13:00:01Z</time>
      </trkpt>
      <trkpt lat="50.56489" lon="2.9601">
        <ele>18.4</ele>
        <time>2021-08-07T13:00:02Z</time>
      </trkpt>
      <trkpt lat="50.56486" lon="2.96004">
        <ele>18.4</ele>
        <time>2021-08-07T13:00:03Z</time>
      </trkpt>
      <trkpt lat="50.56479" lon="2.95994">
        <ele>18.4</ele>
        <time>2021-08-07T13:00:05Z</time>
      </trkpt>
      <trkpt lat="50.56476" lon="2.95989">
        <ele>18.4</ele>
        <time>2021-08-07T13:00:06Z</time>
      </trkpt>
      <trkpt lat="50.56472" lon="2.95984">
        <ele>18.4</ele>
        <time>2021-08-07T13:00:07Z</time>
      </trkpt>
      <trkpt lat="50.56468" lon="2.95979">
        <ele>18.4</ele>
        <time>2021-08-07T13:00:08Z</time>
      </trkpt>
      <trkpt lat="50.56465" lon="2.95974">
        <ele>18.4</ele>
        <time>2021-08-07T13:00:09Z</time>
      </trkpt>
      <trkpt lat="50.56458" lon="2.95964">
        <ele>18.4</ele>
        <time>2021-08-07T13:00:11Z</time>
      </trkpt>
      <trkpt lat="50.56455" lon="2.9596">
        <ele>18.4</ele>
        <time>2021-08-07T13:00:12Z</time>
      </trkpt>
      <trkpt lat="50.56451" lon="2.95955">
        <ele>18.4</ele>
        <time>2021-08-07T13:00:13Z</time>
      </trkpt>
      <trkpt lat="50.56417" lon="2.95904">
        <ele>18.4</ele>
        <time>2021-08-07T13:00:23Z</time>
      </trkpt>
      <trkpt lat="50.56376" lon="2.95851">
        <ele>17.92</ele>
        <time>2021-08-07T13:00:34Z</time>
      </trkpt>
      <trkpt lat="50.56349" lon="2.95817">
        <ele>17.92</ele>
        <time>2021-08-07T13:00:41Z</time>
      </trkpt>
      <trkpt lat="50.56345" lon="2.95813">
        <ele>17.92</ele>
        <time>2021-08-07T13:00:42Z</time>
      </trkpt>
      <trkpt lat="50.56323" lon="2.95786">
        <ele>17.92</ele>
        <time>2021-08-07T13:00:48Z</time>
      </trkpt>
      <trkpt lat="50.56309" lon="2.95767">
        <ele>17.92</ele>
        <time>2021-08-07T13:00:52Z</time>
      </trkpt>
      <trkpt lat="50.56278" lon="2.95734">
        <ele>17.92</ele>
        <time>2021-08-07T13:01:00Z</time>
      </trkpt>
      <trkpt lat="50.56274" lon="2.95731">
        <ele>17.92</ele>
        <time>2021-08-07T13:01:01Z</time>
      </trkpt>
      <trkpt lat="50.5627" lon="2.95727">
        <ele>17.92</ele>
        <time>2021-08-07T13:01:02Z</time>
      </trkpt>
      <trkpt lat="50.5623" lon="2.95684">
        <ele>18.88</ele>
        <time>2021-08-07T13:01:12Z</time>
      </trkpt>
      <trkpt lat="50.56206" lon="2.95658">
        <ele>17.44</ele>
        <time>2021-08-07T13:01:18Z</time>
      </trkpt>
      <trkpt lat="50.56176" lon="2.95629">
        <ele>17.44</ele>
        <time>2021-08-07T13:01:26Z</time>
      </trkpt>
      <trkpt lat="50.56172" lon="2.95625">
        <ele>17.44</ele>
        <time>2021-08-07T13:01:27Z</time>
      </trkpt>
      <trkpt lat="50.56168" lon="2.95622">
        <ele>17.44</ele>
        <time>2021-08-07T13:01:28Z</time>
      </trkpt>
      <trkpt lat="50.56135" lon="2.95592">
        <ele>18.4</ele>
        <time>2021-08-07T13:01:37Z</time>
      </trkpt>
      <trkpt lat="50.56131" lon="2.95589">
        <ele>18.4</ele>
        <time>2021-08-07T13:01:38Z</time>
      </trkpt>
      <trkpt lat="50.56118" lon="2.95574">
        <ele>18.4</ele>
        <time>2021-08-07T13:01:42Z</time>
      </trkpt>
      <trkpt lat="50.56104" lon="2.95563">
        <ele>18.4</ele>
        <time>2021-08-07T13:01:46Z</time>
      </trkpt>
      <trkpt lat="50.56082" lon="2.95544">
        <ele>18.4</ele>
        <time>2021-08-07T13:01:52Z</time>
      </trkpt>
      <trkpt lat="50.56078" lon="2.95541">
        <ele>18.4</ele>
        <time>2021-08-07T13:01:53Z</time>
      </trkpt>
      <trkpt lat="50.56074" lon="2.95538">
        <ele>18.4</ele>
        <time>2021-08-07T13:01:54Z</time>
      </trkpt>
      <trkpt lat="50.56062" lon="2.95528">
        <ele>18.88</ele>
        <time>2021-08-07T13:01:57Z</time>
      </trkpt>
      <trkpt lat="50.56058" lon="2.95524">
        <ele>18.88</ele>
        <time>2021-08-07T13:01:58Z</time>
      </trkpt>
      <trkpt lat="50.56025" lon="2.95494">
        <ele>18.88</ele>
        <time>2021-08-07T13:02:07Z</time>
      </trkpt>
      <trkpt lat="50.56013" lon="2.95484">
        <ele>18.88</ele>
        <time>2021-08-07T13:02:10Z</time>
      </trkpt>
      <trkpt lat="50.55995" lon="2.95466">
        <ele>18.88</ele>
        <time>2021-08-07T13:02:15Z</time>
      </trkpt>
      <trkpt lat="50.55991" lon="2.95463">
        <ele>18.88</ele>
        <time>2021-08-07T13:02:16Z</time>
      </trkpt>
      <trkpt lat="50.55987" lon="2.9546">
        <ele>18.88</ele>
        <time>2021-08-07T13:02:17Z</time>
      </trkpt>
      <trkpt lat="50.55979" lon="2.95453">
        <ele>18.88</ele>
        <time>2021-08-07T13:02:19Z</time>
      </trkpt>
      <trkpt lat="50.55975" lon="2.9545">
        <ele>18.88</ele>
        <time>2021-08-07T13:02:20Z</time>
      </trkpt>
      <trkpt lat="50.55972" lon="2.95446">
        <ele>18.88</ele>
        <time>2021-08-07T13:02:21Z</time>
      </trkpt>
      <trkpt lat="50.55968" lon="2.95442">
        <ele>18.88</ele>
        <time>2021-08-07T13:02:22Z</time>
      </trkpt>
      <trkpt lat="50.55965" lon="2.95438">
        <ele>18.88</ele>
        <time>2021-08-07T13:02:23Z</time>
      </trkpt>
      <trkpt lat="50.55929" lon="2.95397">
        <ele>18.88</ele>
        <time>2021-08-07T13:02:33Z</time>
      </trkpt>
      <trkpt lat="50.55905" lon="2.9537">
        <ele>18.88</ele>
        <time>2021-08-07T13:02:40Z</time>
      </trkpt>
      <trkpt lat="50.55902" lon="2.95366">
        <ele>18.88</ele>
        <time>2021-08-07T13:02:41Z</time>
      </trkpt>
      <trkpt lat="50.55895" lon="2.95359">
        <ele>18.88</ele>
        <time>2021-08-07T13:02:43Z</time>
      </trkpt>
      <trkpt lat="50.55888" lon="2.95348">
        <ele>18.88</ele>
        <time>2021-08-07T13:02:46Z</time>
      </trkpt>
      <trkpt lat="50.55886" lon="2.95348">
        <ele>18.88</ele>
        <time>2021-08-07T13:02:47Z</time>
      </trkpt>
      <trkpt lat="50.55886" lon="2.9535">
        <ele>18.88</ele>
        <time>2021-08-07T13:02:48Z</time>
      </trkpt>
      <trkpt lat="50.55883" lon="2.95361">
        <ele>18.88</ele>
        <time>2021-08-07T13:02:55Z</time>
      </trkpt>
      <trkpt lat="50.55873" lon="2.95381">
        <ele>18.88</ele>
        <time>2021-08-07T13:03:03Z</time>
      </trkpt>
      <trkpt lat="50.5586" lon="2.95397">
        <ele>18.88</ele>
        <time>2021-08-07T13:03:09Z</time>
      </trkpt>
      <trkpt lat="50.55851" lon="2.95414">
        <ele>19.36</ele>
        <time>2021-08-07T13:03:15Z</time>
      </trkpt>
      <trkpt lat="50.5584" lon="2.95433">
        <ele>19.36</ele>
        <time>2021-08-07T13:03:21Z</time>
      </trkpt>
      <trkpt lat="50.5582" lon="2.95464">
        <ele>19.36</ele>
        <time>2021-08-07T13:03:28Z</time>
      </trkpt>
      <trkpt lat="50.55815" lon="2.95472">
        <ele>19.36</ele>
        <time>2021-08-07T13:03:30Z</time>
      </trkpt>
      <trkpt lat="50.55814" lon="2.95475">
        <ele>19.36</ele>
        <time>2021-08-07T13:03:31Z</time>
      </trkpt>
      <trkpt lat="50.55811" lon="2.9549">
        <ele>19.36</ele>
        <time>2021-08-07T13:03:37Z</time>
      </trkpt>
      <trkpt lat="50.5581" lon="2.95492">
        <ele>19.36</ele>
        <time>2021-08-07T13:03:38Z</time>
      </trkpt>
      <trkpt lat="50.55809" lon="2.95496">
        <ele>19.36</ele>
        <time>2021-08-07T13:03:39Z</time>
      </trkpt>
      <trkpt lat="50.55807" lon="2.955">
        <ele>19.36</ele>
        <time>2021-08-07T13:03:40Z</time>
      </trkpt>
      <trkpt lat="50.55805" lon="2.95503">
        <ele>19.36</ele>
        <time>2021-08-07T13:03:41Z</time>
      </trkpt>
      <trkpt lat="50.55803" lon="2.95507">
        <ele>19.36</ele>
        <time>2021-08-07T13:03:42Z</time>
      </trkpt>
      <trkpt lat="50.55801" lon="2.9551">
        <ele>19.84</ele>
        <time>2021-08-07T13:03:43Z</time>
      </trkpt>
      <trkpt lat="50.55789" lon="2.95529">
        <ele>19.84</ele>
        <time>2021-08-07T13:03:49Z</time>
      </trkpt>
      <trkpt lat="50.55771" lon="2.95553">
        <ele>19.84</ele>
        <time>2021-08-07T13:03:56Z</time>
      </trkpt>
      <trkpt lat="50.55754" lon="2.95577">
        <ele>19.84</ele>
        <time>2021-08-07T13:04:02Z</time>
      </trkpt>
      <trkpt lat="50.55743" lon="2.95596">
        <ele>19.84</ele>
        <time>2021-08-07T13:04:08Z</time>
      </trkpt>
      <trkpt lat="50.55723" lon="2.95625">
        <ele>19.84</ele>
        <time>2021-08-07T13:04:16Z</time>
      </trkpt>
      <trkpt lat="50.55713" lon="2.95638">
        <ele>18.88</ele>
        <time>2021-08-07T13:04:20Z</time>
      </trkpt>
      <trkpt lat="50.55708" lon="2.95646">
        <ele>20.32</ele>
        <time>2021-08-07T13:04:22Z</time>
      </trkpt>
      <trkpt lat="50.55685" lon="2.95673">
        <ele>20.32</ele>
        <time>2021-08-07T13:04:29Z</time>
      </trkpt>
      <trkpt lat="50.55651" lon="2.95715">
        <ele>20.32</ele>
        <time>2021-08-07T13:04:39Z</time>
      </trkpt>
      <trkpt lat="50.55625" lon="2.95754">
        <ele>20.81</ele>
        <time>2021-08-07T13:04:49Z</time>
      </trkpt>
      <trkpt lat="50.55594" lon="2.958">
        <ele>20.81</ele>
        <time>2021-08-07T13:05:01Z</time>
      </trkpt>
      <trkpt lat="50.5558" lon="2.95816">
        <ele>20.81</ele>
        <time>2021-08-07T13:05:07Z</time>
      </trkpt>
      <trkpt lat="50.55578" lon="2.95814">
        <ele>20.81</ele>
        <time>2021-08-07T13:05:08Z</time>
      </trkpt>
      <trkpt lat="50.55555" lon="2.95784">
        <ele>20.81</ele>
        <time>2021-08-07T13:05:18Z</time>
      </trkpt>
      <trkpt lat="50.55529" lon="2.9575">
        <ele>21.29</ele>
        <time>2021-08-07T13:05:28Z</time>
      </trkpt>
      <trkpt lat="50.55518" lon="2.9574">
        <ele>21.29</ele>
        <time>2021-08-07T13:05:32Z</time>
      </trkpt>
      <trkpt lat="50.55516" lon="2.9574">
        <ele>21.29</ele>
        <time>2021-08-07T13:05:33Z</time>
      </trkpt>
      <trkpt lat="50.55514" lon="2.95742">
        <ele>21.29</ele>
        <time>2021-08-07T13:05:34Z</time>
      </trkpt>
      <trkpt lat="50.55512" lon="2.95743">
        <ele>21.29</ele>
        <time>2021-08-07T13:05:35Z</time>
      </trkpt>
      <trkpt lat="50.5551" lon="2.95745">
        <ele>21.29</ele>
        <time>2021-08-07T13:05:36Z</time>
      </trkpt>
      <trkpt lat="50.55493" lon="2.95754">
        <ele>21.77</ele>
        <time>2021-08-07T13:05:43Z</time>
      </trkpt>
      <trkpt lat="50.55474" lon="2.95767">
        <ele>22.25</ele>
        <time>2021-08-07T13:05:51Z</time>
      </trkpt>
      <trkpt lat="50.55453" lon="2.95778">
        <ele>20.81</ele>
        <time>2021-08-07T13:05:58Z</time>
      </trkpt>
      <trkpt lat="50.55429" lon="2.95791">
        <ele>20.81</ele>
        <time>2021-08-07T13:06:07Z</time>
      </trkpt>
      <trkpt lat="50.55411" lon="2.95803">
        <ele>20.81</ele>
        <time>2021-08-07T13:06:14Z</time>
      </trkpt>
      <trkpt lat="50.55394" lon="2.95813">
        <ele>20.81</ele>
        <time>2021-08-07T13:06:21Z</time>
      </trkpt>
      <trkpt lat="50.55379" lon="2.95823">
        <ele>20.81</ele>
        <time>2021-08-07T13:06:28Z</time>
      </trkpt>
      <trkpt lat="50.55359" lon="2.95838">
        <ele>21.77</ele>
        <time>2021-08-07T13:06:36Z</time>
      </trkpt>
      <trkpt lat="50.55332" lon="2.95857">
        <ele>21.77</ele>
        <time>2021-08-07T13:06:47Z</time>
      </trkpt>
      <trkpt lat="50.55311" lon="2.9587">
        <ele>21.77</ele>
        <time>2021-08-07T13:06:55Z</time>
      </trkpt>
      <trkpt lat="50.55288" lon="2.95878">
        <ele>21.77</ele>
        <time>2021-08-07T13:07:03Z</time>
      </trkpt>
      <trkpt lat="50.55261" lon="2.95887">
        <ele>21.77</ele>
        <time>2021-08-07T13:07:12Z</time>
      </trkpt>
      <trkpt lat="50.55242" lon="2.95893">
        <ele>21.77</ele>
        <time>2021-08-07T13:07:18Z</time>
      </trkpt>
      <trkpt lat="50.55209" lon="2.95903">
        <ele>21.77</ele>
        <time>2021-08-07T13:07:28Z</time>
      </trkpt>
      <trkpt lat="50.55179" lon="2.95912">
        <ele>21.77</ele>
        <time>2021-08-07T13:07:38Z</time>
      </trkpt>
      <trkpt lat="50.55163" lon="2.95918">
        <ele>21.77</ele>
        <time>2021-08-07T13:07:45Z</time>
      </trkpt>
      <trkpt lat="50.55156" lon="2.9592">
        <ele>21.77</ele>
        <time>2021-08-07T13:07:48Z</time>
      </trkpt>
      <trkpt lat="50.55154" lon="2.9592">
        <ele>22.25</ele>
        <time>2021-08-07T13:07:49Z</time>
      </trkpt>
      <trkpt lat="50.5513" lon="2.95926">
        <ele>22.25</ele>
        <time>2021-08-07T13:07:57Z</time>
      </trkpt>
      <trkpt lat="50.55104" lon="2.95931">
        <ele>22.25</ele>
        <time>2021-08-07T13:08:05Z</time>
      </trkpt>
      <trkpt lat="50.55077" lon="2.95937">
        <ele>22.25</ele>
        <time>2021-08-07T13:08:14Z</time>
      </trkpt>
      <trkpt lat="50.55045" lon="2.95944">
        <ele>22.25</ele>
        <time>2021-08-07T13:08:24Z</time>
      </trkpt>
      <trkpt lat="50.5502" lon="2.95952">
        <ele>22.25</ele>
        <time>2021-08-07T13:08:32Z</time>
      </trkpt>
      <trkpt lat="50.55019" lon="2.95955">
        <ele>22.25</ele>
        <time>2021-08-07T13:08:33Z</time>
      </trkpt>
      <trkpt lat="50.55017" lon="2.95958">
        <ele>22.25</ele>
        <time>2021-08-07T13:08:34Z</time>
      </trkpt>
      <trkpt lat="50.55017" lon="2.95962">
        <ele>22.25</ele>
        <time>2021-08-07T13:08:35Z</time>
      </trkpt>
      <trkpt lat="50.55017" lon="2.95967">
        <ele>22.25</ele>
        <time>2021-08-07T13:08:36Z</time>
      </trkpt>
      <trkpt lat="50.55017" lon="2.95971">
        <ele>22.25</ele>
        <time>2021-08-07T13:08:37Z</time>
      </trkpt>
      <trkpt lat="50.55018" lon="2.95976">
        <ele>22.25</ele>
        <time>2021-08-07T13:08:38Z</time>
      </trkpt>
      <trkpt lat="50.55019" lon="2.95981">
        <ele>22.25</ele>
        <time>2021-08-07T13:08:39Z</time>
      </trkpt>
      <trkpt lat="50.55023" lon="2.96009">
        <ele>22.73</ele>
        <time>2021-08-07T13:08:45Z</time>
      </trkpt>
      <trkpt lat="50.55023" lon="2.96013">
        <ele>22.73</ele>
        <time>2021-08-07T13:08:46Z</time>
      </trkpt>
      <trkpt lat="50.55023" lon="2.96017">
        <ele>22.73</ele>
        <time>2021-08-07T13:08:47Z</time>
      </trkpt>
      <trkpt lat="50.55024" lon="2.96023">
        <ele>22.73</ele>
        <time>2021-08-07T13:08:48Z</time>
      </trkpt>
      <trkpt lat="50.55025" lon="2.96028">
        <ele>22.73</ele>
        <time>2021-08-07T13:08:49Z</time>
      </trkpt>
      <trkpt lat="50.55028" lon="2.96058">
        <ele>23.21</ele>
        <time>2021-08-07T13:08:56Z</time>
      </trkpt>
      <trkpt lat="50.55033" lon="2.96097">
        <ele>23.21</ele>
        <time>2021-08-07T13:09:04Z</time>
      </trkpt>
      <trkpt lat="50.55038" lon="2.96141">
        <ele>23.21</ele>
        <time>2021-08-07T13:09:13Z</time>
      </trkpt>
      <trkpt lat="50.55031" lon="2.9616">
        <ele>23.21</ele>
        <time>2021-08-07T13:09:18Z</time>
      </trkpt>
      <trkpt lat="50.55015" lon="2.96184">
        <ele>23.21</ele>
        <time>2021-08-07T13:09:24Z</time>
      </trkpt>
      <trkpt lat="50.55" lon="2.96213">
        <ele>23.21</ele>
        <time>2021-08-07T13:09:30Z</time>
      </trkpt>
      <trkpt lat="50.5498" lon="2.96254">
        <ele>23.21</ele>
        <time>2021-08-07T13:09:39Z</time>
      </trkpt>
      <trkpt lat="50.54959" lon="2.96295">
        <ele>23.69</ele>
        <time>2021-08-07T13:09:48Z</time>
      </trkpt>
      <trkpt lat="50.5494" lon="2.96332">
        <ele>23.21</ele>
        <time>2021-08-07T13:09:56Z</time>
      </trkpt>
      <trkpt lat="50.54916" lon="2.96378">
        <ele>23.21</ele>
        <time>2021-08-07T13:10:06Z</time>
      </trkpt>
      <trkpt lat="50.54908" lon="2.96389">
        <ele>23.21</ele>
        <time>2021-08-07T13:10:10Z</time>
      </trkpt>
      <trkpt lat="50.54907" lon="2.9639">
        <ele>23.21</ele>
        <time>2021-08-07T13:10:11Z</time>
      </trkpt>
      <trkpt lat="50.54907" lon="2.96391">
        <ele>23.69</ele>
        <time>2021-08-07T13:10:18Z</time>
      </trkpt>
      <trkpt lat="50.54906" lon="2.9639">
        <ele>23.69</ele>
        <time>2021-08-07T13:10:37Z</time>
      </trkpt>
      <trkpt lat="50.54904" lon="2.96393">
        <ele>23.69</ele>
        <time>2021-08-07T13:10:53Z</time>
      </trkpt>
      <trkpt lat="50.54906" lon="2.96393">
        <ele>23.69</ele>
        <time>2021-08-07T13:11:15Z</time>
      </trkpt>
      <trkpt lat="50.54905" lon="2.96396">
        <ele>23.69</ele>
        <time>2021-08-07T13:11:34Z</time>
      </trkpt>
      <trkpt lat="50.54904" lon="2.96392">
        <ele>23.69</ele>
        <time>2021-08-07T13:11:51Z</time>
      </trkpt>
      <trkpt lat="50.54904" lon="2.96392">
        <ele>23.69</ele>
        <time>2021-08-07T13:12:06Z</time>
      </trkpt>
      <trkpt lat="50.54904" lon="2.96392">
        <ele>23.69</ele>
        <time>2021-08-07T13:12:13Z</time>
      </trkpt>
      <trkpt lat="50.54905" lon="2.96395">
        <ele>23.69</ele>
        <time>2021-08-07T13:12:27Z</time>
      </trkpt>
      <trkpt lat="50.54907" lon="2.96398">
        <ele>23.69</ele>
        <time>2021-08-07T13:12:40Z</time>
      </trkpt>
      <trkpt lat="50.54907" lon="2.96399">
        <ele>23.69</ele>
        <time>2021-08-07T13:12:41Z</time>
      </trkpt>
      <trkpt lat="50.54908" lon="2.96401">
        <ele>23.69</ele>
        <time>2021-08-07T13:12:42Z</time>
      </trkpt>
      <trkpt lat="50.54907" lon="2.96402">
        <ele>23.69</ele>
        <time>2021-08-07T13:12:43Z</time>
      </trkpt>
      <trkpt lat="50.54907" lon="2.96405">
        <ele>23.69</ele>
        <time>2021-08-07T13:12:44Z</time>
      </trkpt>
      <trkpt lat="50.54905" lon="2.96407">
        <ele>22.73</ele>
        <time>2021-08-07T13:12:45Z</time>
      </trkpt>
      <trkpt lat="50.54903" lon="2.9641">
        <ele>22.73</ele>
        <time>2021-08-07T13:12:46Z</time>
      </trkpt>
      <trkpt lat="50.54885" lon="2.96422">
        <ele>22.73</ele>
        <time>2021-08-07T13:12:52Z</time>
      </trkpt>
      <trkpt lat="50.5486" lon="2.96434">
        <ele>22.73</ele>
        <time>2021-08-07T13:12:59Z</time>
      </trkpt>
      <trkpt lat="50.54816" lon="2.96455">
        <ele>22.73</ele>
        <time>2021-08-07T13:13:10Z</time>
      </trkpt>
      <trkpt lat="50.54778" lon="2.96473">
        <ele>22.73</ele>
        <time>2021-08-07T13:13:19Z</time>
      </trkpt>
      <trkpt lat="50.5474" lon="2.96491">
        <ele>23.69</ele>
        <time>2021-08-07T13:13:28Z</time>
      </trkpt>
      <trkpt lat="50.54697" lon="2.96507">
        <ele>24.17</ele>
        <time>2021-08-07T13:13:38Z</time>
      </trkpt>
      <trkpt lat="50.54653" lon="2.96511">
        <ele>24.17</ele>
        <time>2021-08-07T13:13:48Z</time>
      </trkpt>
      <trkpt lat="50.54644" lon="2.96511">
        <ele>24.17</ele>
        <time>2021-08-07T13:13:50Z</time>
      </trkpt>
      <trkpt lat="50.54599" lon="2.96514">
        <ele>24.65</ele>
        <time>2021-08-07T13:14:00Z</time>
      </trkpt>
      <trkpt lat="50.54554" lon="2.96518">
        <ele>25.13</ele>
        <time>2021-08-07T13:14:10Z</time>
      </trkpt>
      <trkpt lat="50.54519" lon="2.9652">
        <ele>25.13</ele>
        <time>2021-08-07T13:14:18Z</time>
      </trkpt>
      <trkpt lat="50.54505" lon="2.96523">
        <ele>25.13</ele>
        <time>2021-08-07T13:14:21Z</time>
      </trkpt>
      <trkpt lat="50.54486" lon="2.96541">
        <ele>25.13</ele>
        <time>2021-08-07T13:14:26Z</time>
      </trkpt>
      <trkpt lat="50.54481" lon="2.96546">
        <ele>25.13</ele>
        <time>2021-08-07T13:14:27Z</time>
      </trkpt>
      <trkpt lat="50.54477" lon="2.9655">
        <ele>25.13</ele>
        <time>2021-08-07T13:14:28Z</time>
      </trkpt>
      <trkpt lat="50.54473" lon="2.96555">
        <ele>25.13</ele>
        <time>2021-08-07T13:14:29Z</time>
      </trkpt>
      <trkpt lat="50.54469" lon="2.96559">
        <ele>25.13</ele>
        <time>2021-08-07T13:14:30Z</time>
      </trkpt>
      <trkpt lat="50.54465" lon="2.96563">
        <ele>25.13</ele>
        <time>2021-08-07T13:14:31Z</time>
      </trkpt>
      <trkpt lat="50.54454" lon="2.96575">
        <ele>25.61</ele>
        <time>2021-08-07T13:14:34Z</time>
      </trkpt>
      <trkpt lat="50.5445" lon="2.96579">
        <ele>25.61</ele>
        <time>2021-08-07T13:14:35Z</time>
      </trkpt>
      <trkpt lat="50.54436" lon="2.96595">
        <ele>25.61</ele>
        <time>2021-08-07T13:14:39Z</time>
      </trkpt>
      <trkpt lat="50.54431" lon="2.96595">
        <ele>25.61</ele>
        <time>2021-08-07T13:14:40Z</time>
      </trkpt>
      <trkpt lat="50.54427" lon="2.96594">
        <ele>25.61</ele>
        <time>2021-08-07T13:14:41Z</time>
      </trkpt>
      <trkpt lat="50.54424" lon="2.9659">
        <ele>25.61</ele>
        <time>2021-08-07T13:14:42Z</time>
      </trkpt>
      <trkpt lat="50.54421" lon="2.96585">
        <ele>25.61</ele>
        <time>2021-08-07T13:14:43Z</time>
      </trkpt>
      <trkpt lat="50.54419" lon="2.9658">
        <ele>25.61</ele>
        <time>2021-08-07T13:14:44Z</time>
      </trkpt>
      <trkpt lat="50.54417" lon="2.96574">
        <ele>25.61</ele>
        <time>2021-08-07T13:14:45Z</time>
      </trkpt>
      <trkpt lat="50.54416" lon="2.96566">
        <ele>25.61</ele>
        <time>2021-08-07T13:14:46Z</time>
      </trkpt>
      <trkpt lat="50.54415" lon="2.96559">
        <ele>25.61</ele>
        <time>2021-08-07T13:14:47Z</time>
      </trkpt>
      <trkpt lat="50.5441" lon="2.96539">
        <ele>25.61</ele>
        <time>2021-08-07T13:14:50Z</time>
      </trkpt>
      <trkpt lat="50.54397" lon="2.96498">
        <ele>25.61</ele>
        <time>2021-08-07T13:14:57Z</time>
      </trkpt>
      <trkpt lat="50.54394" lon="2.96493">
        <ele>25.61</ele>
        <time>2021-08-07T13:14:58Z</time>
      </trkpt>
      <trkpt lat="50.54391" lon="2.96487">
        <ele>25.61</ele>
        <time>2021-08-07T13:14:59Z</time>
      </trkpt>
      <trkpt lat="50.54387" lon="2.96482">
        <ele>25.61</ele>
        <time>2021-08-07T13:15:00Z</time>
      </trkpt>
      <trkpt lat="50.54361" lon="2.96451">
        <ele>25.61</ele>
        <time>2021-08-07T13:15:07Z</time>
      </trkpt>
      <trkpt lat="50.54357" lon="2.96448">
        <ele>25.61</ele>
        <time>2021-08-07T13:15:08Z</time>
      </trkpt>
      <trkpt lat="50.54353" lon="2.96446">
        <ele>25.61</ele>
        <time>2021-08-07T13:15:09Z</time>
      </trkpt>
      <trkpt lat="50.54332" lon="2.96433">
        <ele>26.09</ele>
        <time>2021-08-07T13:15:14Z</time>
      </trkpt>
      <trkpt lat="50.54328" lon="2.96432">
        <ele>26.09</ele>
        <time>2021-08-07T13:15:15Z</time>
      </trkpt>
      <trkpt lat="50.54323" lon="2.96433">
        <ele>26.09</ele>
        <time>2021-08-07T13:15:16Z</time>
      </trkpt>
      <trkpt lat="50.54319" lon="2.96435">
        <ele>26.09</ele>
        <time>2021-08-07T13:15:17Z</time>
      </trkpt>
      <trkpt lat="50.54315" lon="2.96437">
        <ele>26.57</ele>
        <time>2021-08-07T13:15:18Z</time>
      </trkpt>
      <trkpt lat="50.54306" lon="2.96441">
        <ele>26.57</ele>
        <time>2021-08-07T13:15:20Z</time>
      </trkpt>
      <trkpt lat="50.54297" lon="2.96444">
        <ele>25.13</ele>
        <time>2021-08-07T13:15:22Z</time>
      </trkpt>
      <trkpt lat="50.54265" lon="2.96456">
        <ele>24.65</ele>
        <time>2021-08-07T13:15:30Z</time>
      </trkpt>
      <trkpt lat="50.5426" lon="2.96462">
        <ele>24.65</ele>
        <time>2021-08-07T13:15:32Z</time>
      </trkpt>
      <trkpt lat="50.5426" lon="2.96467">
        <ele>27.05</ele>
        <time>2021-08-07T13:15:33Z</time>
      </trkpt>
      <trkpt lat="50.54261" lon="2.96472">
        <ele>27.05</ele>
        <time>2021-08-07T13:15:34Z</time>
      </trkpt>
      <trkpt lat="50.54267" lon="2.96495">
        <ele>25.61</ele>
        <time>2021-08-07T13:15:38Z</time>
      </trkpt>
      <trkpt lat="50.54269" lon="2.96502">
        <ele>25.61</ele>
        <time>2021-08-07T13:15:39Z</time>
      </trkpt>
      <trkpt lat="50.5427" lon="2.96509">
        <ele>25.61</ele>
        <time>2021-08-07T13:15:40Z</time>
      </trkpt>
      <trkpt lat="50.54273" lon="2.96522">
        <ele>25.61</ele>
        <time>2021-08-07T13:15:42Z</time>
      </trkpt>
      <trkpt lat="50.54275" lon="2.96541">
        <ele>25.61</ele>
        <time>2021-08-07T13:15:45Z</time>
      </trkpt>
      <trkpt lat="50.54269" lon="2.96551">
        <ele>25.61</ele>
        <time>2021-08-07T13:15:48Z</time>
      </trkpt>
      <trkpt lat="50.5426" lon="2.96558">
        <ele>25.13</ele>
        <time>2021-08-07T13:15:50Z</time>
      </trkpt>
      <trkpt lat="50.54257" lon="2.9656">
        <ele>25.13</ele>
        <time>2021-08-07T13:15:51Z</time>
      </trkpt>
      <trkpt lat="50.54241" lon="2.96568">
        <ele>24.65</ele>
        <time>2021-08-07T13:15:55Z</time>
      </trkpt>
      <trkpt lat="50.54236" lon="2.96572">
        <ele>24.65</ele>
        <time>2021-08-07T13:15:57Z</time>
      </trkpt>
      <trkpt lat="50.5423" lon="2.96575">
        <ele>24.65</ele>
        <time>2021-08-07T13:15:58Z</time>
      </trkpt>
      <trkpt lat="50.54227" lon="2.96577">
        <ele>24.65</ele>
        <time>2021-08-07T13:15:59Z</time>
      </trkpt>
      <trkpt lat="50.54191" lon="2.966">
        <ele>26.09</ele>
        <time>2021-08-07T13:16:09Z</time>
      </trkpt>
      <trkpt lat="50.54145" lon="2.96631">
        <ele>26.57</ele>
        <time>2021-08-07T13:16:23Z</time>
      </trkpt>
      <trkpt lat="50.54103" lon="2.96652">
        <ele>25.13</ele>
        <time>2021-08-07T13:16:35Z</time>
      </trkpt>
      <trkpt lat="50.54075" lon="2.96661">
        <ele>26.57</ele>
        <time>2021-08-07T13:16:43Z</time>
      </trkpt>
      <trkpt lat="50.54046" lon="2.9667">
        <ele>26.09</ele>
        <time>2021-08-07T13:16:52Z</time>
      </trkpt>
      <trkpt lat="50.54027" lon="2.96676">
        <ele>27.05</ele>
        <time>2021-08-07T13:16:58Z</time>
      </trkpt>
      <trkpt lat="50.53997" lon="2.96683">
        <ele>26.57</ele>
        <time>2021-08-07T13:17:07Z</time>
      </trkpt>
      <trkpt lat="50.5397" lon="2.9669">
        <ele>26.09</ele>
        <time>2021-08-07T13:17:15Z</time>
      </trkpt>
      <trkpt lat="50.53947" lon="2.96697">
        <ele>26.09</ele>
        <time>2021-08-07T13:17:23Z</time>
      </trkpt>
      <trkpt lat="50.53919" lon="2.96705">
        <ele>25.13</ele>
        <time>2021-08-07T13:17:33Z</time>
      </trkpt>
      <trkpt lat="50.53891" lon="2.96713">
        <ele>25.13</ele>
        <time>2021-08-07T13:17:42Z</time>
      </trkpt>
      <trkpt lat="50.53861" lon="2.96721">
        <ele>24.65</ele>
        <time>2021-08-07T13:17:51Z</time>
      </trkpt>
      <trkpt lat="50.53856" lon="2.96722">
        <ele>25.61</ele>
        <time>2021-08-07T13:17:53Z</time>
      </trkpt>
      <trkpt lat="50.53832" lon="2.96729">
        <ele>26.09</ele>
        <time>2021-08-07T13:18:01Z</time>
      </trkpt>
      <trkpt lat="50.53807" lon="2.96734">
        <ele>25.13</ele>
        <time>2021-08-07T13:18:09Z</time>
      </trkpt>
      <trkpt lat="50.53781" lon="2.9674">
        <ele>25.13</ele>
        <time>2021-08-07T13:18:17Z</time>
      </trkpt>
      <trkpt lat="50.53765" lon="2.96744">
        <ele>25.13</ele>
        <time>2021-08-07T13:18:22Z</time>
      </trkpt>
      <trkpt lat="50.53735" lon="2.96751">
        <ele>24.65</ele>
        <time>2021-08-07T13:18:32Z</time>
      </trkpt>
      <trkpt lat="50.53708" lon="2.96757">
        <ele>25.13</ele>
        <time>2021-08-07T13:18:42Z</time>
      </trkpt>
      <trkpt lat="50.53708" lon="2.96756">
        <ele>25.13</ele>
        <time>2021-08-07T13:18:46Z</time>
      </trkpt>
      <trkpt lat="50.53708" lon="2.96756">
        <ele>26.09</ele>
        <time>2021-08-07T13:19:04Z</time>
      </trkpt>
      <trkpt lat="50.53707" lon="2.96756">
        <ele>24.65</ele>
        <time>2021-08-07T13:19:21Z</time>
      </trkpt>
      <trkpt lat="50.53707" lon="2.9676">
        <ele>24.65</ele>
        <time>2021-08-07T13:19:23Z</time>
      </trkpt>
      <trkpt lat="50.53706" lon="2.96762">
        <ele>24.65</ele>
        <time>2021-08-07T13:19:24Z</time>
      </trkpt>
      <trkpt lat="50.53707" lon="2.96784">
        <ele>23.21</ele>
        <time>2021-08-07T13:19:29Z</time>
      </trkpt>
      <trkpt lat="50.53717" lon="2.96828">
        <ele>23.21</ele>
        <time>2021-08-07T13:19:38Z</time>
      </trkpt>
      <trkpt lat="50.53728" lon="2.96865">
        <ele>23.21</ele>
        <time>2021-08-07T13:19:45Z</time>
      </trkpt>
      <trkpt lat="50.53737" lon="2.96902">
        <ele>23.21</ele>
        <time>2021-08-07T13:19:52Z</time>
      </trkpt>
      <trkpt lat="50.53747" lon="2.96952">
        <ele>21.77</ele>
        <time>2021-08-07T13:20:01Z</time>
      </trkpt>
      <trkpt lat="50.53757" lon="2.96997">
        <ele>21.77</ele>
        <time>2021-08-07T13:20:09Z</time>
      </trkpt>
      <trkpt lat="50.53759" lon="2.97004">
        <ele>21.77</ele>
        <time>2021-08-07T13:20:12Z</time>
      </trkpt>
      <trkpt lat="50.5376" lon="2.97002">
        <ele>21.29</ele>
        <time>2021-08-07T13:20:24Z</time>
      </trkpt>
      <trkpt lat="50.53759" lon="2.97004">
        <ele>21.29</ele>
        <time>2021-08-07T13:20:37Z</time>
      </trkpt>
      <trkpt lat="50.53759" lon="2.97005">
        <ele>21.29</ele>
        <time>2021-08-07T13:20:38Z</time>
      </trkpt>
      <trkpt lat="50.5376" lon="2.9701">
        <ele>21.29</ele>
        <time>2021-08-07T13:20:43Z</time>
      </trkpt>
      <trkpt lat="50.53765" lon="2.9703">
        <ele>20.32</ele>
        <time>2021-08-07T13:20:48Z</time>
      </trkpt>
      <trkpt lat="50.53777" lon="2.97085">
        <ele>19.84</ele>
        <time>2021-08-07T13:20:58Z</time>
      </trkpt>
      <trkpt lat="50.53786" lon="2.97132">
        <ele>18.88</ele>
        <time>2021-08-07T13:21:06Z</time>
      </trkpt>
      <trkpt lat="50.5379" lon="2.97175">
        <ele>19.36</ele>
        <time>2021-08-07T13:21:14Z</time>
      </trkpt>
      <trkpt lat="50.53799" lon="2.97212">
        <ele>19.36</ele>
        <time>2021-08-07T13:21:21Z</time>
      </trkpt>
      <trkpt lat="50.53815" lon="2.97282">
        <ele>19.36</ele>
        <time>2021-08-07T13:21:32Z</time>
      </trkpt>
      <trkpt lat="50.53827" lon="2.97344">
        <ele>19.36</ele>
        <time>2021-08-07T13:21:42Z</time>
      </trkpt>
      <trkpt lat="50.53838" lon="2.97389">
        <ele>19.36</ele>
        <time>2021-08-07T13:21:50Z</time>
      </trkpt>
      <trkpt lat="50.53848" lon="2.97437">
        <ele>19.36</ele>
        <time>2021-08-07T13:21:59Z</time>
      </trkpt>
      <trkpt lat="50.53848" lon="2.97435">
        <ele>20.32</ele>
        <time>2021-08-07T13:22:08Z</time>
      </trkpt>
      <trkpt lat="50.53849" lon="2.97436">
        <ele>19.36</ele>
        <time>2021-08-07T13:22:11Z</time>
      </trkpt>
      <trkpt lat="50.53848" lon="2.97437">
        <ele>18.4</ele>
        <time>2021-08-07T13:22:22Z</time>
      </trkpt>
      <trkpt lat="50.53848" lon="2.97437">
        <ele>19.36</ele>
        <time>2021-08-07T13:22:25Z</time>
      </trkpt>
      <trkpt lat="50.53847" lon="2.97437">
        <ele>19.36</ele>
        <time>2021-08-07T13:22:43Z</time>
      </trkpt>
      <trkpt lat="50.53851" lon="2.97452">
        <ele>17.92</ele>
        <time>2021-08-07T13:22:48Z</time>
      </trkpt>
      <trkpt lat="50.5386" lon="2.97493">
        <ele>17.92</ele>
        <time>2021-08-07T13:22:55Z</time>
      </trkpt>
      <trkpt lat="50.53873" lon="2.97554">
        <ele>17.92</ele>
        <time>2021-08-07T13:23:05Z</time>
      </trkpt>
      <trkpt lat="50.53882" lon="2.97592">
        <ele>17.92</ele>
        <time>2021-08-07T13:23:13Z</time>
      </trkpt>
      <trkpt lat="50.53893" lon="2.97654">
        <ele>17.92</ele>
        <time>2021-08-07T13:23:23Z</time>
      </trkpt>
      <trkpt lat="50.53905" lon="2.9773">
        <ele>17.92</ele>
        <time>2021-08-07T13:23:35Z</time>
      </trkpt>
      <trkpt lat="50.53908" lon="2.97747">
        <ele>17.92</ele>
        <time>2021-08-07T13:23:40Z</time>
      </trkpt>
      <trkpt lat="50.53914" lon="2.97776">
        <ele>16.96</ele>
        <time>2021-08-07T13:23:45Z</time>
      </trkpt>
      <trkpt lat="50.53921" lon="2.97814">
        <ele>16</ele>
        <time>2021-08-07T13:23:51Z</time>
      </trkpt>
      <trkpt lat="50.53922" lon="2.9782">
        <ele>16</ele>
        <time>2021-08-07T13:23:52Z</time>
      </trkpt>
      <trkpt lat="50.53923" lon="2.97827">
        <ele>16</ele>
        <time>2021-08-07T13:23:53Z</time>
      </trkpt>
      <trkpt lat="50.53934" lon="2.97909">
        <ele>16</ele>
        <time>2021-08-07T13:24:03Z</time>
      </trkpt>
      <trkpt lat="50.53947" lon="2.97999">
        <ele>15.04</ele>
        <time>2021-08-07T13:24:12Z</time>
      </trkpt>
      <trkpt lat="50.53957" lon="2.98098">
        <ele>15.04</ele>
        <time>2021-08-07T13:24:21Z</time>
      </trkpt>
      <trkpt lat="50.53958" lon="2.98129">
        <ele>15.04</ele>
        <time>2021-08-07T13:24:24Z</time>
      </trkpt>
      <trkpt lat="50.53959" lon="2.98138">
        <ele>15.04</ele>
        <time>2021-08-07T13:24:25Z</time>
      </trkpt>
      <trkpt lat="50.53961" lon="2.98145">
        <ele>15.04</ele>
        <time>2021-08-07T13:24:26Z</time>
      </trkpt>
      <trkpt lat="50.53963" lon="2.9815">
        <ele>15.04</ele>
        <time>2021-08-07T13:24:27Z</time>
      </trkpt>
      <trkpt lat="50.53965" lon="2.98153">
        <ele>15.04</ele>
        <time>2021-08-07T13:24:28Z</time>
      </trkpt>
      <trkpt lat="50.53969" lon="2.98156">
        <ele>15.04</ele>
        <time>2021-08-07T13:24:29Z</time>
      </trkpt>
      <trkpt lat="50.53972" lon="2.98158">
        <ele>15.04</ele>
        <time>2021-08-07T13:24:30Z</time>
      </trkpt>
      <trkpt lat="50.53976" lon="2.9816">
        <ele>15.04</ele>
        <time>2021-08-07T13:24:31Z</time>
      </trkpt>
      <trkpt lat="50.5398" lon="2.98162">
        <ele>15.04</ele>
        <time>2021-08-07T13:24:32Z</time>
      </trkpt>
      <trkpt lat="50.53984" lon="2.98165">
        <ele>15.04</ele>
        <time>2021-08-07T13:24:33Z</time>
      </trkpt>
      <trkpt lat="50.53987" lon="2.98168">
        <ele>15.04</ele>
        <time>2021-08-07T13:24:34Z</time>
      </trkpt>
      <trkpt lat="50.53989" lon="2.98172">
        <ele>15.04</ele>
        <time>2021-08-07T13:24:35Z</time>
      </trkpt>
      <trkpt lat="50.5399" lon="2.98177">
        <ele>15.04</ele>
        <time>2021-08-07T13:24:36Z</time>
      </trkpt>
      <trkpt lat="50.53989" lon="2.98182">
        <ele>15.04</ele>
        <time>2021-08-07T13:24:37Z</time>
      </trkpt>
      <trkpt lat="50.53989" lon="2.98194">
        <ele>16</ele>
        <time>2021-08-07T13:24:40Z</time>
      </trkpt>
      <trkpt lat="50.5399" lon="2.98195">
        <ele>16</ele>
        <time>2021-08-07T13:24:41Z</time>
      </trkpt>
      <trkpt lat="50.53992" lon="2.98194">
        <ele>16</ele>
        <time>2021-08-07T13:24:42Z</time>
      </trkpt>
      <trkpt lat="50.53991" lon="2.98191">
        <ele>15.04</ele>
        <time>2021-08-07T13:24:43Z</time>
      </trkpt>
      <trkpt lat="50.5399" lon="2.98187">
        <ele>15.04</ele>
        <time>2021-08-07T13:24:44Z</time>
      </trkpt>
      <trkpt lat="50.5399" lon="2.98182">
        <ele>15.04</ele>
        <time>2021-08-07T13:24:45Z</time>
      </trkpt>
      <trkpt lat="50.53989" lon="2.98177">
        <ele>15.04</ele>
        <time>2021-08-07T13:24:46Z</time>
      </trkpt>
      <trkpt lat="50.5399" lon="2.98172">
        <ele>15.04</ele>
        <time>2021-08-07T13:24:47Z</time>
      </trkpt>
      <trkpt lat="50.53992" lon="2.98168">
        <ele>16</ele>
        <time>2021-08-07T13:24:48Z</time>
      </trkpt>
      <trkpt lat="50.53995" lon="2.98167">
        <ele>16</ele>
        <time>2021-08-07T13:24:49Z</time>
      </trkpt>
      <trkpt lat="50.53999" lon="2.98168">
        <ele>16.48</ele>
        <time>2021-08-07T13:24:50Z</time>
      </trkpt>
      <trkpt lat="50.54002" lon="2.98169">
        <ele>16.48</ele>
        <time>2021-08-07T13:24:51Z</time>
      </trkpt>
      <trkpt lat="50.54016" lon="2.98174">
        <ele>15.52</ele>
        <time>2021-08-07T13:24:54Z</time>
      </trkpt>
      <trkpt lat="50.5406" lon="2.98189">
        <ele>15.52</ele>
        <time>2021-08-07T13:25:02Z</time>
      </trkpt>
      <trkpt lat="50.54104" lon="2.982">
        <ele>15.52</ele>
        <time>2021-08-07T13:25:08Z</time>
      </trkpt>
      <trkpt lat="50.5417" lon="2.98216">
        <ele>14.56</ele>
        <time>2021-08-07T13:25:17Z</time>
      </trkpt>
      <trkpt lat="50.54185" lon="2.98222">
        <ele>15.52</ele>
        <time>2021-08-07T13:25:21Z</time>
      </trkpt>
      <trkpt lat="50.54189" lon="2.98223">
        <ele>16.96</ele>
        <time>2021-08-07T13:25:23Z</time>
      </trkpt>
      <trkpt lat="50.54192" lon="2.98225">
        <ele>16</ele>
        <time>2021-08-07T13:25:29Z</time>
      </trkpt>
      <trkpt lat="50.54192" lon="2.98224">
        <ele>16</ele>
        <time>2021-08-07T13:25:38Z</time>
      </trkpt>
      <trkpt lat="50.54186" lon="2.98215">
        <ele>15.52</ele>
        <time>2021-08-07T13:25:58Z</time>
      </trkpt>
      <trkpt lat="50.5418" lon="2.98208">
        <ele>15.52</ele>
        <time>2021-08-07T13:26:19Z</time>
      </trkpt>
      <trkpt lat="50.54181" lon="2.98208">
        <ele>16</ele>
        <time>2021-08-07T13:26:39Z</time>
      </trkpt>
      <trkpt lat="50.54188" lon="2.98226">
        <ele>16</ele>
        <time>2021-08-07T13:26:45Z</time>
      </trkpt>
      <trkpt lat="50.54191" lon="2.98232">
        <ele>17.44</ele>
        <time>2021-08-07T13:26:57Z</time>
      </trkpt>
      <trkpt lat="50.54193" lon="2.98233">
        <ele>17.44</ele>
        <time>2021-08-07T13:27:15Z</time>
      </trkpt>
      <trkpt lat="50.54194" lon="2.98236">
        <ele>18.4</ele>
        <time>2021-08-07T13:27:32Z</time>
      </trkpt>
      <trkpt lat="50.54193" lon="2.98234">
        <ele>19.36</ele>
        <time>2021-08-07T13:28:00Z</time>
      </trkpt>
      <trkpt lat="50.54191" lon="2.98229">
        <ele>19.36</ele>
        <time>2021-08-07T13:28:30Z</time>
      </trkpt>
      <trkpt lat="50.54191" lon="2.98229">
        <ele>20.32</ele>
        <time>2021-08-07T13:29:01Z</time>
      </trkpt>
      <trkpt lat="50.5419" lon="2.98234">
        <ele>20.32</ele>
        <time>2021-08-07T13:29:26Z</time>
      </trkpt>
      <trkpt lat="50.54191" lon="2.9823">
        <ele>20.81</ele>
        <time>2021-08-07T13:29:52Z</time>
      </trkpt>
      <trkpt lat="50.54189" lon="2.98231">
        <ele>20.81</ele>
        <time>2021-08-07T13:30:15Z</time>
      </trkpt>
      <trkpt lat="50.54189" lon="2.98237">
        <ele>19.84</ele>
        <time>2021-08-07T13:30:44Z</time>
      </trkpt>
      <trkpt lat="50.54189" lon="2.98237">
        <ele>19.84</ele>
        <time>2021-08-07T13:30:45Z</time>
      </trkpt>
      <trkpt lat="50.54188" lon="2.98233">
        <ele>19.36</ele>
        <time>2021-08-07T13:31:11Z</time>
      </trkpt>
      <trkpt lat="50.54189" lon="2.9823">
        <ele>19.36</ele>
        <time>2021-08-07T13:31:35Z</time>
      </trkpt>
      <trkpt lat="50.5419" lon="2.98226">
        <ele>18.88</ele>
        <time>2021-08-07T13:31:59Z</time>
      </trkpt>
      <trkpt lat="50.54188" lon="2.98223">
        <ele>18.88</ele>
        <time>2021-08-07T13:32:22Z</time>
      </trkpt>
      <trkpt lat="50.54188" lon="2.98226">
        <ele>20.32</ele>
        <time>2021-08-07T13:32:42Z</time>
      </trkpt>
      <trkpt lat="50.54185" lon="2.98219">
        <ele>20.32</ele>
        <time>2021-08-07T13:33:03Z</time>
      </trkpt>
      <trkpt lat="50.5419" lon="2.98218">
        <ele>20.81</ele>
        <time>2021-08-07T13:33:20Z</time>
      </trkpt>
      <trkpt lat="50.54192" lon="2.98217">
        <ele>20.81</ele>
        <time>2021-08-07T13:33:41Z</time>
      </trkpt>
      <trkpt lat="50.54194" lon="2.98218">
        <ele>20.32</ele>
        <time>2021-08-07T13:34:02Z</time>
      </trkpt>
      <trkpt lat="50.54194" lon="2.98226">
        <ele>20.32</ele>
        <time>2021-08-07T13:34:25Z</time>
      </trkpt>
      <trkpt lat="50.54195" lon="2.9822">
        <ele>20.81</ele>
        <time>2021-08-07T13:34:41Z</time>
      </trkpt>
      <trkpt lat="50.54195" lon="2.98212">
        <ele>20.81</ele>
        <time>2021-08-07T13:34:57Z</time>
      </trkpt>
      <trkpt lat="50.54194" lon="2.98208">
        <ele>20.81</ele>
        <time>2021-08-07T13:35:20Z</time>
      </trkpt>
      <trkpt lat="50.54192" lon="2.98214">
        <ele>21.29</ele>
        <time>2021-08-07T13:35:41Z</time>
      </trkpt>
      <trkpt lat="50.54192" lon="2.98218">
        <ele>21.29</ele>
        <time>2021-08-07T13:35:55Z</time>
      </trkpt>
      <trkpt lat="50.54194" lon="2.98221">
        <ele>21.29</ele>
        <time>2021-08-07T13:36:10Z</time>
      </trkpt>
      <trkpt lat="50.54191" lon="2.9822">
        <ele>21.29</ele>
        <time>2021-08-07T13:36:28Z</time>
      </trkpt>
      <trkpt lat="50.54193" lon="2.98223">
        <ele>21.29</ele>
        <time>2021-08-07T13:36:48Z</time>
      </trkpt>
      <trkpt lat="50.5419" lon="2.98217">
        <ele>21.29</ele>
        <time>2021-08-07T13:37:04Z</time>
      </trkpt>
      <trkpt lat="50.5419" lon="2.98212">
        <ele>21.77</ele>
        <time>2021-08-07T13:37:19Z</time>
      </trkpt>
      <trkpt lat="50.54186" lon="2.9821">
        <ele>21.77</ele>
        <time>2021-08-07T13:37:36Z</time>
      </trkpt>
      <trkpt lat="50.54187" lon="2.98207">
        <ele>21.77</ele>
        <time>2021-08-07T13:37:54Z</time>
      </trkpt>
      <trkpt lat="50.54187" lon="2.98212">
        <ele>21.77</ele>
        <time>2021-08-07T13:38:07Z</time>
      </trkpt>
      <trkpt lat="50.54182" lon="2.98221">
        <ele>21.77</ele>
        <time>2021-08-07T13:38:27Z</time>
      </trkpt>
      <trkpt lat="50.54185" lon="2.98228">
        <ele>21.77</ele>
        <time>2021-08-07T13:38:53Z</time>
      </trkpt>
      <trkpt lat="50.54187" lon="2.98217">
        <ele>21.29</ele>
        <time>2021-08-07T13:39:10Z</time>
      </trkpt>
      <trkpt lat="50.54184" lon="2.9821">
        <ele>21.29</ele>
        <time>2021-08-07T13:39:28Z</time>
      </trkpt>
      <trkpt lat="50.54181" lon="2.98206">
        <ele>21.29</ele>
        <time>2021-08-07T13:39:45Z</time>
      </trkpt>
      <trkpt lat="50.5418" lon="2.98212">
        <ele>21.29</ele>
        <time>2021-08-07T13:40:05Z</time>
      </trkpt>
      <trkpt lat="50.54181" lon="2.98214">
        <ele>21.77</ele>
        <time>2021-08-07T13:40:26Z</time>
      </trkpt>
      <trkpt lat="50.54186" lon="2.98218">
        <ele>21.77</ele>
        <time>2021-08-07T13:40:41Z</time>
      </trkpt>
      <trkpt lat="50.54189" lon="2.98216">
        <ele>21.29</ele>
        <time>2021-08-07T13:41:00Z</time>
      </trkpt>
      <trkpt lat="50.54187" lon="2.98224">
        <ele>21.29</ele>
        <time>2021-08-07T13:41:14Z</time>
      </trkpt>
      <trkpt lat="50.54183" lon="2.98223">
        <ele>21.29</ele>
        <time>2021-08-07T13:41:37Z</time>
      </trkpt>
      <trkpt lat="50.54179" lon="2.98212">
        <ele>20.32</ele>
        <time>2021-08-07T13:41:54Z</time>
      </trkpt>
      <trkpt lat="50.54176" lon="2.98211">
        <ele>20.32</ele>
        <time>2021-08-07T13:42:14Z</time>
      </trkpt>
      <trkpt lat="50.5418" lon="2.98215">
        <ele>20.32</ele>
        <time>2021-08-07T13:42:34Z</time>
      </trkpt>
      <trkpt lat="50.54181" lon="2.9822">
        <ele>20.32</ele>
        <time>2021-08-07T13:42:49Z</time>
      </trkpt>
      <trkpt lat="50.54184" lon="2.98217">
        <ele>20.32</ele>
        <time>2021-08-07T13:43:10Z</time>
      </trkpt>
      <trkpt lat="50.54186" lon="2.9822">
        <ele>19.84</ele>
        <time>2021-08-07T13:43:29Z</time>
      </trkpt>
      <trkpt lat="50.54188" lon="2.98229">
        <ele>19.84</ele>
        <time>2021-08-07T13:43:48Z</time>
      </trkpt>
      <trkpt lat="50.54188" lon="2.98227">
        <ele>19.84</ele>
        <time>2021-08-07T13:44:07Z</time>
      </trkpt>
      <trkpt lat="50.54187" lon="2.98223">
        <ele>19.84</ele>
        <time>2021-08-07T13:44:17Z</time>
      </trkpt>
      <trkpt lat="50.54188" lon="2.9823">
        <ele>19.36</ele>
        <time>2021-08-07T13:44:40Z</time>
      </trkpt>
      <trkpt lat="50.54192" lon="2.98227">
        <ele>19.36</ele>
        <time>2021-08-07T13:44:59Z</time>
      </trkpt>
      <trkpt lat="50.54193" lon="2.98219">
        <ele>19.36</ele>
        <time>2021-08-07T13:45:14Z</time>
      </trkpt>
      <trkpt lat="50.54188" lon="2.98223">
        <ele>18.88</ele>
        <time>2021-08-07T13:45:19Z</time>
      </trkpt>
      <trkpt lat="50.54186" lon="2.98222">
        <ele>18.88</ele>
        <time>2021-08-07T13:45:20Z</time>
      </trkpt>
      <trkpt lat="50.54171" lon="2.98214">
        <ele>18.88</ele>
        <time>2021-08-07T13:45:27Z</time>
      </trkpt>
      <trkpt lat="50.54145" lon="2.98208">
        <ele>18.88</ele>
        <time>2021-08-07T13:45:35Z</time>
      </trkpt>
      <trkpt lat="50.54105" lon="2.98202">
        <ele>18.4</ele>
        <time>2021-08-07T13:45:45Z</time>
      </trkpt>
      <trkpt lat="50.5406" lon="2.98191">
        <ele>17.92</ele>
        <time>2021-08-07T13:45:55Z</time>
      </trkpt>
      <trkpt lat="50.54011" lon="2.98173">
        <ele>17.92</ele>
        <time>2021-08-07T13:46:06Z</time>
      </trkpt>
      <trkpt lat="50.53993" lon="2.98168">
        <ele>17.92</ele>
        <time>2021-08-07T13:46:11Z</time>
      </trkpt>
      <trkpt lat="50.5399" lon="2.98169">
        <ele>17.92</ele>
        <time>2021-08-07T13:46:12Z</time>
      </trkpt>
      <trkpt lat="50.53988" lon="2.98169">
        <ele>17.92</ele>
        <time>2021-08-07T13:46:13Z</time>
      </trkpt>
      <trkpt lat="50.53986" lon="2.98169">
        <ele>17.92</ele>
        <time>2021-08-07T13:46:14Z</time>
      </trkpt>
      <trkpt lat="50.53984" lon="2.98169">
        <ele>17.92</ele>
        <time>2021-08-07T13:46:15Z</time>
      </trkpt>
      <trkpt lat="50.53983" lon="2.98168">
        <ele>17.92</ele>
        <time>2021-08-07T13:46:16Z</time>
      </trkpt>
      <trkpt lat="50.53981" lon="2.98167">
        <ele>17.92</ele>
        <time>2021-08-07T13:46:17Z</time>
      </trkpt>
      <trkpt lat="50.53969" lon="2.98159">
        <ele>18.4</ele>
        <time>2021-08-07T13:46:22Z</time>
      </trkpt>
      <trkpt lat="50.53968" lon="2.98157">
        <ele>18.4</ele>
        <time>2021-08-07T13:46:23Z</time>
      </trkpt>
      <trkpt lat="50.53969" lon="2.98156">
        <ele>18.4</ele>
        <time>2021-08-07T13:46:24Z</time>
      </trkpt>
      <trkpt lat="50.53975" lon="2.98159">
        <ele>18.4</ele>
        <time>2021-08-07T13:46:28Z</time>
      </trkpt>
      <trkpt lat="50.53987" lon="2.98167">
        <ele>18.4</ele>
        <time>2021-08-07T13:46:33Z</time>
      </trkpt>
      <trkpt lat="50.5399" lon="2.98201">
        <ele>18.4</ele>
        <time>2021-08-07T13:46:39Z</time>
      </trkpt>
      <trkpt lat="50.53992" lon="2.98206">
        <ele>18.4</ele>
        <time>2021-08-07T13:46:40Z</time>
      </trkpt>
      <trkpt lat="50.53993" lon="2.98211">
        <ele>18.4</ele>
        <time>2021-08-07T13:46:41Z</time>
      </trkpt>
      <trkpt lat="50.53994" lon="2.98216">
        <ele>18.4</ele>
        <time>2021-08-07T13:46:42Z</time>
      </trkpt>
      <trkpt lat="50.53994" lon="2.98222">
        <ele>18.4</ele>
        <time>2021-08-07T13:46:43Z</time>
      </trkpt>
      <trkpt lat="50.53995" lon="2.98227">
        <ele>18.4</ele>
        <time>2021-08-07T13:46:44Z</time>
      </trkpt>
      <trkpt lat="50.53995" lon="2.98233">
        <ele>18.4</ele>
        <time>2021-08-07T13:46:45Z</time>
      </trkpt>
      <trkpt lat="50.54" lon="2.98278">
        <ele>18.4</ele>
        <time>2021-08-07T13:46:52Z</time>
      </trkpt>
      <trkpt lat="50.54005" lon="2.98321">
        <ele>18.4</ele>
        <time>2021-08-07T13:46:59Z</time>
      </trkpt>
      <trkpt lat="50.54006" lon="2.98327">
        <ele>18.4</ele>
        <time>2021-08-07T13:47:00Z</time>
      </trkpt>
      <trkpt lat="50.54007" lon="2.98333">
        <ele>18.4</ele>
        <time>2021-08-07T13:47:01Z</time>
      </trkpt>
      <trkpt lat="50.54007" lon="2.9834">
        <ele>18.4</ele>
        <time>2021-08-07T13:47:02Z</time>
      </trkpt>
      <trkpt lat="50.54012" lon="2.9838">
        <ele>18.4</ele>
        <time>2021-08-07T13:47:09Z</time>
      </trkpt>
      <trkpt lat="50.54012" lon="2.9841">
        <ele>18.4</ele>
        <time>2021-08-07T13:47:15Z</time>
      </trkpt>
      <trkpt lat="50.54013" lon="2.98429">
        <ele>18.4</ele>
        <time>2021-08-07T13:47:21Z</time>
      </trkpt>
      <trkpt lat="50.54011" lon="2.98431">
        <ele>18.4</ele>
        <time>2021-08-07T13:47:22Z</time>
      </trkpt>
      <trkpt lat="50.5401" lon="2.98432">
        <ele>18.4</ele>
        <time>2021-08-07T13:47:23Z</time>
      </trkpt>
      <trkpt lat="50.54008" lon="2.98433">
        <ele>18.4</ele>
        <time>2021-08-07T13:47:24Z</time>
      </trkpt>
      <trkpt lat="50.54005" lon="2.98434">
        <ele>18.4</ele>
        <time>2021-08-07T13:47:25Z</time>
      </trkpt>
      <trkpt lat="50.54002" lon="2.98437">
        <ele>18.4</ele>
        <time>2021-08-07T13:47:26Z</time>
      </trkpt>
      <trkpt lat="50.54" lon="2.98441">
        <ele>18.4</ele>
        <time>2021-08-07T13:47:27Z</time>
      </trkpt>
      <trkpt lat="50.53999" lon="2.98446">
        <ele>18.4</ele>
        <time>2021-08-07T13:47:28Z</time>
      </trkpt>
      <trkpt lat="50.53998" lon="2.9845">
        <ele>18.4</ele>
        <time>2021-08-07T13:47:29Z</time>
      </trkpt>
      <trkpt lat="50.53998" lon="2.98456">
        <ele>18.4</ele>
        <time>2021-08-07T13:47:30Z</time>
      </trkpt>
      <trkpt lat="50.53997" lon="2.98511">
        <ele>18.4</ele>
        <time>2021-08-07T13:47:39Z</time>
      </trkpt>
      <trkpt lat="50.53996" lon="2.98579">
        <ele>18.88</ele>
        <time>2021-08-07T13:47:49Z</time>
      </trkpt>
      <trkpt lat="50.53995" lon="2.98649">
        <ele>18.88</ele>
        <time>2021-08-07T13:47:59Z</time>
      </trkpt>
      <trkpt lat="50.5399" lon="2.98717">
        <ele>19.84</ele>
        <time>2021-08-07T13:48:09Z</time>
      </trkpt>
      <trkpt lat="50.5399" lon="2.9872">
        <ele>19.84</ele>
        <time>2021-08-07T13:48:10Z</time>
      </trkpt>
      <trkpt lat="50.53992" lon="2.98739">
        <ele>19.84</ele>
        <time>2021-08-07T13:48:16Z</time>
      </trkpt>
      <trkpt lat="50.53993" lon="2.98785">
        <ele>20.32</ele>
        <time>2021-08-07T13:48:24Z</time>
      </trkpt>
      <trkpt lat="50.53999" lon="2.98849">
        <ele>20.32</ele>
        <time>2021-08-07T13:48:33Z</time>
      </trkpt>
      <trkpt lat="50.54005" lon="2.98909">
        <ele>20.32</ele>
        <time>2021-08-07T13:48:41Z</time>
      </trkpt>
      <trkpt lat="50.54007" lon="2.98916">
        <ele>20.32</ele>
        <time>2021-08-07T13:48:42Z</time>
      </trkpt>
      <trkpt lat="50.54009" lon="2.98922">
        <ele>20.32</ele>
        <time>2021-08-07T13:48:43Z</time>
      </trkpt>
      <trkpt lat="50.5401" lon="2.98929">
        <ele>20.32</ele>
        <time>2021-08-07T13:48:44Z</time>
      </trkpt>
      <trkpt lat="50.54012" lon="2.98937">
        <ele>20.32</ele>
        <time>2021-08-07T13:48:45Z</time>
      </trkpt>
      <trkpt lat="50.54013" lon="2.98944">
        <ele>20.32</ele>
        <time>2021-08-07T13:48:46Z</time>
      </trkpt>
      <trkpt lat="50.54015" lon="2.98958">
        <ele>20.32</ele>
        <time>2021-08-07T13:48:48Z</time>
      </trkpt>
      <trkpt lat="50.54016" lon="2.98966">
        <ele>20.32</ele>
        <time>2021-08-07T13:48:49Z</time>
      </trkpt>
      <trkpt lat="50.54016" lon="2.98973">
        <ele>20.32</ele>
        <time>2021-08-07T13:48:50Z</time>
      </trkpt>
      <trkpt lat="50.54017" lon="2.98981">
        <ele>20.32</ele>
        <time>2021-08-07T13:48:51Z</time>
      </trkpt>
      <trkpt lat="50.54019" lon="2.98988">
        <ele>20.32</ele>
        <time>2021-08-07T13:48:52Z</time>
      </trkpt>
      <trkpt lat="50.5402" lon="2.98995">
        <ele>20.32</ele>
        <time>2021-08-07T13:48:53Z</time>
      </trkpt>
      <trkpt lat="50.54032" lon="2.99047">
        <ele>19.36</ele>
        <time>2021-08-07T13:49:00Z</time>
      </trkpt>
      <trkpt lat="50.54033" lon="2.99055">
        <ele>19.36</ele>
        <time>2021-08-07T13:49:01Z</time>
      </trkpt>
      <trkpt lat="50.54034" lon="2.99062">
        <ele>19.36</ele>
        <time>2021-08-07T13:49:02Z</time>
      </trkpt>
      <trkpt lat="50.54052" lon="2.99103">
        <ele>18.88</ele>
        <time>2021-08-07T13:49:09Z</time>
      </trkpt>
      <trkpt lat="50.54054" lon="2.99109">
        <ele>18.88</ele>
        <time>2021-08-07T13:49:10Z</time>
      </trkpt>
      <trkpt lat="50.54057" lon="2.99114">
        <ele>18.88</ele>
        <time>2021-08-07T13:49:11Z</time>
      </trkpt>
      <trkpt lat="50.54061" lon="2.99119">
        <ele>18.88</ele>
        <time>2021-08-07T13:49:12Z</time>
      </trkpt>
      <trkpt lat="50.54064" lon="2.99125">
        <ele>18.88</ele>
        <time>2021-08-07T13:49:13Z</time>
      </trkpt>
      <trkpt lat="50.54067" lon="2.99133">
        <ele>18.88</ele>
        <time>2021-08-07T13:49:14Z</time>
      </trkpt>
      <trkpt lat="50.54068" lon="2.99139">
        <ele>18.4</ele>
        <time>2021-08-07T13:49:15Z</time>
      </trkpt>
      <trkpt lat="50.54069" lon="2.99147">
        <ele>18.4</ele>
        <time>2021-08-07T13:49:16Z</time>
      </trkpt>
      <trkpt lat="50.5407" lon="2.99154">
        <ele>18.4</ele>
        <time>2021-08-07T13:49:17Z</time>
      </trkpt>
      <trkpt lat="50.54071" lon="2.99162">
        <ele>18.4</ele>
        <time>2021-08-07T13:49:18Z</time>
      </trkpt>
      <trkpt lat="50.54077" lon="2.99227">
        <ele>18.88</ele>
        <time>2021-08-07T13:49:26Z</time>
      </trkpt>
      <trkpt lat="50.54079" lon="2.99265">
        <ele>18.88</ele>
        <time>2021-08-07T13:49:31Z</time>
      </trkpt>
      <trkpt lat="50.5408" lon="2.99272">
        <ele>18.88</ele>
        <time>2021-08-07T13:49:32Z</time>
      </trkpt>
      <trkpt lat="50.54081" lon="2.99288">
        <ele>18.88</ele>
        <time>2021-08-07T13:49:34Z</time>
      </trkpt>
      <trkpt lat="50.54087" lon="2.9934">
        <ele>18.88</ele>
        <time>2021-08-07T13:49:41Z</time>
      </trkpt>
      <trkpt lat="50.54089" lon="2.99354">
        <ele>18.88</ele>
        <time>2021-08-07T13:49:43Z</time>
      </trkpt>
      <trkpt lat="50.54091" lon="2.99391">
        <ele>18.88</ele>
        <time>2021-08-07T13:49:48Z</time>
      </trkpt>
      <trkpt lat="50.54091" lon="2.99398">
        <ele>18.88</ele>
        <time>2021-08-07T13:49:49Z</time>
      </trkpt>
      <trkpt lat="50.54093" lon="2.99487">
        <ele>18.88</ele>
        <time>2021-08-07T13:50:01Z</time>
      </trkpt>
      <trkpt lat="50.54092" lon="2.99531">
        <ele>18.88</ele>
        <time>2021-08-07T13:50:07Z</time>
      </trkpt>
      <trkpt lat="50.54091" lon="2.99538">
        <ele>18.88</ele>
        <time>2021-08-07T13:50:08Z</time>
      </trkpt>
      <trkpt lat="50.54087" lon="2.9959">
        <ele>18.88</ele>
        <time>2021-08-07T13:50:15Z</time>
      </trkpt>
      <trkpt lat="50.54084" lon="2.9962">
        <ele>18.88</ele>
        <time>2021-08-07T13:50:19Z</time>
      </trkpt>
      <trkpt lat="50.54083" lon="2.99635">
        <ele>18.88</ele>
        <time>2021-08-07T13:50:21Z</time>
      </trkpt>
      <trkpt lat="50.54082" lon="2.99642">
        <ele>18.88</ele>
        <time>2021-08-07T13:50:22Z</time>
      </trkpt>
      <trkpt lat="50.54075" lon="2.99717">
        <ele>18.4</ele>
        <time>2021-08-07T13:50:32Z</time>
      </trkpt>
      <trkpt lat="50.54069" lon="2.99797">
        <ele>18.4</ele>
        <time>2021-08-07T13:50:43Z</time>
      </trkpt>
      <trkpt lat="50.54069" lon="2.9981">
        <ele>18.4</ele>
        <time>2021-08-07T13:50:45Z</time>
      </trkpt>
      <trkpt lat="50.54069" lon="2.99817">
        <ele>18.4</ele>
        <time>2021-08-07T13:50:46Z</time>
      </trkpt>
      <trkpt lat="50.54071" lon="2.9983">
        <ele>19.84</ele>
        <time>2021-08-07T13:50:48Z</time>
      </trkpt>
      <trkpt lat="50.54071" lon="2.99836">
        <ele>19.84</ele>
        <time>2021-08-07T13:50:49Z</time>
      </trkpt>
      <trkpt lat="50.5407" lon="2.99843">
        <ele>19.84</ele>
        <time>2021-08-07T13:50:50Z</time>
      </trkpt>
      <trkpt lat="50.54066" lon="2.999">
        <ele>19.84</ele>
        <time>2021-08-07T13:50:59Z</time>
      </trkpt>
      <trkpt lat="50.5406" lon="2.99966">
        <ele>19.84</ele>
        <time>2021-08-07T13:51:09Z</time>
      </trkpt>
      <trkpt lat="50.54055" lon="3.00022">
        <ele>19.84</ele>
        <time>2021-08-07T13:51:18Z</time>
      </trkpt>
      <trkpt lat="50.5405" lon="3.00078">
        <ele>19.84</ele>
        <time>2021-08-07T13:51:27Z</time>
      </trkpt>
      <trkpt lat="50.54049" lon="3.00091">
        <ele>19.84</ele>
        <time>2021-08-07T13:51:29Z</time>
      </trkpt>
      <trkpt lat="50.54046" lon="3.00128">
        <ele>20.32</ele>
        <time>2021-08-07T13:51:35Z</time>
      </trkpt>
      <trkpt lat="50.54045" lon="3.00134">
        <ele>20.32</ele>
        <time>2021-08-07T13:51:36Z</time>
      </trkpt>
      <trkpt lat="50.54044" lon="3.00141">
        <ele>20.32</ele>
        <time>2021-08-07T13:51:37Z</time>
      </trkpt>
      <trkpt lat="50.54044" lon="3.00147">
        <ele>20.32</ele>
        <time>2021-08-07T13:51:38Z</time>
      </trkpt>
      <trkpt lat="50.54043" lon="3.00153">
        <ele>20.32</ele>
        <time>2021-08-07T13:51:39Z</time>
      </trkpt>
      <trkpt lat="50.54038" lon="3.00215">
        <ele>20.32</ele>
        <time>2021-08-07T13:51:49Z</time>
      </trkpt>
      <trkpt lat="50.54034" lon="3.00262">
        <ele>20.32</ele>
        <time>2021-08-07T13:51:57Z</time>
      </trkpt>
      <trkpt lat="50.54027" lon="3.00334">
        <ele>20.32</ele>
        <time>2021-08-07T13:52:09Z</time>
      </trkpt>
      <trkpt lat="50.54022" lon="3.00389">
        <ele>20.32</ele>
        <time>2021-08-07T13:52:18Z</time>
      </trkpt>
      <trkpt lat="50.54017" lon="3.00448">
        <ele>20.32</ele>
        <time>2021-08-07T13:52:28Z</time>
      </trkpt>
      <trkpt lat="50.54011" lon="3.00506">
        <ele>20.32</ele>
        <time>2021-08-07T13:52:38Z</time>
      </trkpt>
      <trkpt lat="50.54005" lon="3.00581">
        <ele>20.32</ele>
        <time>2021-08-07T13:52:51Z</time>
      </trkpt>
      <trkpt lat="50.54" lon="3.00638">
        <ele>20.32</ele>
        <time>2021-08-07T13:53:01Z</time>
      </trkpt>
      <trkpt lat="50.53995" lon="3.00697">
        <ele>20.32</ele>
        <time>2021-08-07T13:53:11Z</time>
      </trkpt>
      <trkpt lat="50.5399" lon="3.00743">
        <ele>20.32</ele>
        <time>2021-08-07T13:53:19Z</time>
      </trkpt>
      <trkpt lat="50.53985" lon="3.00787">
        <ele>20.32</ele>
        <time>2021-08-07T13:53:27Z</time>
      </trkpt>
      <trkpt lat="50.53984" lon="3.00804">
        <ele>20.32</ele>
        <time>2021-08-07T13:53:31Z</time>
      </trkpt>
      <trkpt lat="50.53984" lon="3.00808">
        <ele>20.32</ele>
        <time>2021-08-07T13:53:32Z</time>
      </trkpt>
      <trkpt lat="50.53985" lon="3.00811">
        <ele>20.32</ele>
        <time>2021-08-07T13:53:33Z</time>
      </trkpt>
      <trkpt lat="50.53985" lon="3.00815">
        <ele>20.32</ele>
        <time>2021-08-07T13:53:34Z</time>
      </trkpt>
      <trkpt lat="50.53984" lon="3.00818">
        <ele>20.32</ele>
        <time>2021-08-07T13:53:35Z</time>
      </trkpt>
      <trkpt lat="50.53983" lon="3.00823">
        <ele>20.32</ele>
        <time>2021-08-07T13:53:36Z</time>
      </trkpt>
      <trkpt lat="50.53981" lon="3.00856">
        <ele>20.32</ele>
        <time>2021-08-07T13:53:42Z</time>
      </trkpt>
      <trkpt lat="50.53977" lon="3.00904">
        <ele>20.32</ele>
        <time>2021-08-07T13:53:50Z</time>
      </trkpt>
      <trkpt lat="50.53973" lon="3.0096">
        <ele>20.81</ele>
        <time>2021-08-07T13:53:59Z</time>
      </trkpt>
      <trkpt lat="50.53971" lon="3.00992">
        <ele>20.81</ele>
        <time>2021-08-07T13:54:04Z</time>
      </trkpt>
      <trkpt lat="50.53967" lon="3.01024">
        <ele>20.81</ele>
        <time>2021-08-07T13:54:09Z</time>
      </trkpt>
      <trkpt lat="50.53967" lon="3.0103">
        <ele>20.81</ele>
        <time>2021-08-07T13:54:10Z</time>
      </trkpt>
      <trkpt lat="50.53961" lon="3.01085">
        <ele>20.81</ele>
        <time>2021-08-07T13:54:19Z</time>
      </trkpt>
      <trkpt lat="50.53955" lon="3.01144">
        <ele>20.81</ele>
        <time>2021-08-07T13:54:29Z</time>
      </trkpt>
      <trkpt lat="50.53952" lon="3.01175">
        <ele>20.81</ele>
        <time>2021-08-07T13:54:34Z</time>
      </trkpt>
      <trkpt lat="50.53948" lon="3.01225">
        <ele>20.81</ele>
        <time>2021-08-07T13:54:42Z</time>
      </trkpt>
      <trkpt lat="50.53947" lon="3.01232">
        <ele>20.81</ele>
        <time>2021-08-07T13:54:43Z</time>
      </trkpt>
      <trkpt lat="50.53947" lon="3.01238">
        <ele>20.81</ele>
        <time>2021-08-07T13:54:44Z</time>
      </trkpt>
      <trkpt lat="50.53944" lon="3.01276">
        <ele>20.81</ele>
        <time>2021-08-07T13:54:50Z</time>
      </trkpt>
      <trkpt lat="50.53944" lon="3.01282">
        <ele>20.81</ele>
        <time>2021-08-07T13:54:51Z</time>
      </trkpt>
      <trkpt lat="50.53938" lon="3.01345">
        <ele>21.29</ele>
        <time>2021-08-07T13:55:01Z</time>
      </trkpt>
      <trkpt lat="50.53932" lon="3.01413">
        <ele>21.29</ele>
        <time>2021-08-07T13:55:12Z</time>
      </trkpt>
      <trkpt lat="50.53927" lon="3.01475">
        <ele>21.29</ele>
        <time>2021-08-07T13:55:22Z</time>
      </trkpt>
      <trkpt lat="50.53922" lon="3.01536">
        <ele>21.29</ele>
        <time>2021-08-07T13:55:32Z</time>
      </trkpt>
      <trkpt lat="50.53918" lon="3.01591">
        <ele>21.29</ele>
        <time>2021-08-07T13:55:41Z</time>
      </trkpt>
      <trkpt lat="50.53911" lon="3.01656">
        <ele>21.29</ele>
        <time>2021-08-07T13:55:51Z</time>
      </trkpt>
      <trkpt lat="50.53905" lon="3.0172">
        <ele>21.77</ele>
        <time>2021-08-07T13:56:01Z</time>
      </trkpt>
      <trkpt lat="50.53901" lon="3.01762">
        <ele>21.77</ele>
        <time>2021-08-07T13:56:08Z</time>
      </trkpt>
      <trkpt lat="50.53899" lon="3.01804">
        <ele>21.77</ele>
        <time>2021-08-07T13:56:15Z</time>
      </trkpt>
      <trkpt lat="50.53896" lon="3.01826">
        <ele>21.77</ele>
        <time>2021-08-07T13:56:19Z</time>
      </trkpt>
      <trkpt lat="50.53896" lon="3.01833">
        <ele>21.77</ele>
        <time>2021-08-07T13:56:20Z</time>
      </trkpt>
      <trkpt lat="50.53895" lon="3.01838">
        <ele>21.77</ele>
        <time>2021-08-07T13:56:21Z</time>
      </trkpt>
      <trkpt lat="50.53894" lon="3.01844">
        <ele>22.25</ele>
        <time>2021-08-07T13:56:22Z</time>
      </trkpt>
      <trkpt lat="50.53893" lon="3.01849">
        <ele>22.25</ele>
        <time>2021-08-07T13:56:23Z</time>
      </trkpt>
      <trkpt lat="50.53891" lon="3.01855">
        <ele>22.25</ele>
        <time>2021-08-07T13:56:25Z</time>
      </trkpt>
      <trkpt lat="50.53889" lon="3.01857">
        <ele>22.25</ele>
        <time>2021-08-07T13:56:26Z</time>
      </trkpt>
      <trkpt lat="50.53888" lon="3.01859">
        <ele>22.25</ele>
        <time>2021-08-07T13:56:27Z</time>
      </trkpt>
      <trkpt lat="50.53887" lon="3.01862">
        <ele>22.73</ele>
        <time>2021-08-07T13:56:28Z</time>
      </trkpt>
      <trkpt lat="50.53886" lon="3.01866">
        <ele>22.73</ele>
        <time>2021-08-07T13:56:29Z</time>
      </trkpt>
      <trkpt lat="50.53884" lon="3.0187">
        <ele>22.73</ele>
        <time>2021-08-07T13:56:30Z</time>
      </trkpt>
      <trkpt lat="50.53883" lon="3.01875">
        <ele>22.73</ele>
        <time>2021-08-07T13:56:31Z</time>
      </trkpt>
      <trkpt lat="50.53868" lon="3.01915">
        <ele>22.73</ele>
        <time>2021-08-07T13:56:39Z</time>
      </trkpt>
      <trkpt lat="50.53864" lon="3.01932">
        <ele>23.21</ele>
        <time>2021-08-07T13:56:42Z</time>
      </trkpt>
      <trkpt lat="50.53864" lon="3.01937">
        <ele>23.21</ele>
        <time>2021-08-07T13:56:43Z</time>
      </trkpt>
      <trkpt lat="50.53865" lon="3.01943">
        <ele>23.21</ele>
        <time>2021-08-07T13:56:44Z</time>
      </trkpt>
      <trkpt lat="50.53867" lon="3.01949">
        <ele>23.21</ele>
        <time>2021-08-07T13:56:45Z</time>
      </trkpt>
      <trkpt lat="50.53869" lon="3.01954">
        <ele>23.21</ele>
        <time>2021-08-07T13:56:46Z</time>
      </trkpt>
      <trkpt lat="50.53872" lon="3.01958">
        <ele>23.21</ele>
        <time>2021-08-07T13:56:47Z</time>
      </trkpt>
      <trkpt lat="50.53875" lon="3.01962">
        <ele>23.21</ele>
        <time>2021-08-07T13:56:48Z</time>
      </trkpt>
      <trkpt lat="50.53878" lon="3.01966">
        <ele>23.21</ele>
        <time>2021-08-07T13:56:49Z</time>
      </trkpt>
      <trkpt lat="50.53882" lon="3.01969">
        <ele>23.21</ele>
        <time>2021-08-07T13:56:50Z</time>
      </trkpt>
      <trkpt lat="50.53885" lon="3.01972">
        <ele>23.21</ele>
        <time>2021-08-07T13:56:51Z</time>
      </trkpt>
      <trkpt lat="50.53889" lon="3.01976">
        <ele>23.21</ele>
        <time>2021-08-07T13:56:52Z</time>
      </trkpt>
      <trkpt lat="50.53925" lon="3.02009">
        <ele>23.21</ele>
        <time>2021-08-07T13:57:01Z</time>
      </trkpt>
      <trkpt lat="50.53929" lon="3.02014">
        <ele>21.77</ele>
        <time>2021-08-07T13:57:02Z</time>
      </trkpt>
      <trkpt lat="50.53968" lon="3.02068">
        <ele>23.69</ele>
        <time>2021-08-07T13:57:12Z</time>
      </trkpt>
      <trkpt lat="50.54004" lon="3.02121">
        <ele>23.69</ele>
        <time>2021-08-07T13:57:21Z</time>
      </trkpt>
      <trkpt lat="50.54038" lon="3.02161">
        <ele>24.17</ele>
        <time>2021-08-07T13:57:29Z</time>
      </trkpt>
      <trkpt lat="50.54052" lon="3.02175">
        <ele>24.17</ele>
        <time>2021-08-07T13:57:32Z</time>
      </trkpt>
      <trkpt lat="50.54057" lon="3.02178">
        <ele>24.17</ele>
        <time>2021-08-07T13:57:33Z</time>
      </trkpt>
      <trkpt lat="50.54091" lon="3.02197">
        <ele>24.17</ele>
        <time>2021-08-07T13:57:40Z</time>
      </trkpt>
      <trkpt lat="50.54093" lon="3.02203">
        <ele>24.17</ele>
        <time>2021-08-07T13:57:41Z</time>
      </trkpt>
      <trkpt lat="50.54093" lon="3.0221">
        <ele>24.17</ele>
        <time>2021-08-07T13:57:42Z</time>
      </trkpt>
      <trkpt lat="50.54091" lon="3.02217">
        <ele>24.17</ele>
        <time>2021-08-07T13:57:43Z</time>
      </trkpt>
      <trkpt lat="50.54089" lon="3.02222">
        <ele>24.17</ele>
        <time>2021-08-07T13:57:44Z</time>
      </trkpt>
      <trkpt lat="50.54086" lon="3.02227">
        <ele>24.17</ele>
        <time>2021-08-07T13:57:45Z</time>
      </trkpt>
      <trkpt lat="50.54083" lon="3.02233">
        <ele>24.17</ele>
        <time>2021-08-07T13:57:46Z</time>
      </trkpt>
      <trkpt lat="50.54057" lon="3.02283">
        <ele>24.17</ele>
        <time>2021-08-07T13:57:54Z</time>
      </trkpt>
      <trkpt lat="50.54034" lon="3.0233">
        <ele>24.17</ele>
        <time>2021-08-07T13:58:01Z</time>
      </trkpt>
      <trkpt lat="50.54023" lon="3.02368">
        <ele>24.17</ele>
        <time>2021-08-07T13:58:06Z</time>
      </trkpt>
      <trkpt lat="50.5402" lon="3.02385">
        <ele>24.17</ele>
        <time>2021-08-07T13:58:08Z</time>
      </trkpt>
      <trkpt lat="50.5402" lon="3.02393">
        <ele>24.17</ele>
        <time>2021-08-07T13:58:09Z</time>
      </trkpt>
      <trkpt lat="50.54021" lon="3.02471">
        <ele>24.17</ele>
        <time>2021-08-07T13:58:18Z</time>
      </trkpt>
      <trkpt lat="50.54026" lon="3.02559">
        <ele>24.17</ele>
        <time>2021-08-07T13:58:28Z</time>
      </trkpt>
      <trkpt lat="50.54033" lon="3.02633">
        <ele>24.65</ele>
        <time>2021-08-07T13:58:37Z</time>
      </trkpt>
      <trkpt lat="50.54046" lon="3.02679">
        <ele>25.13</ele>
        <time>2021-08-07T13:58:43Z</time>
      </trkpt>
      <trkpt lat="50.54048" lon="3.02686">
        <ele>25.13</ele>
        <time>2021-08-07T13:58:44Z</time>
      </trkpt>
      <trkpt lat="50.54053" lon="3.02698">
        <ele>25.13</ele>
        <time>2021-08-07T13:58:46Z</time>
      </trkpt>
      <trkpt lat="50.54058" lon="3.02711">
        <ele>25.13</ele>
        <time>2021-08-07T13:58:48Z</time>
      </trkpt>
      <trkpt lat="50.54059" lon="3.02717">
        <ele>25.13</ele>
        <time>2021-08-07T13:58:49Z</time>
      </trkpt>
      <trkpt lat="50.54058" lon="3.02724">
        <ele>25.13</ele>
        <time>2021-08-07T13:58:50Z</time>
      </trkpt>
      <trkpt lat="50.54057" lon="3.0273">
        <ele>25.13</ele>
        <time>2021-08-07T13:58:51Z</time>
      </trkpt>
      <trkpt lat="50.54055" lon="3.02738">
        <ele>25.13</ele>
        <time>2021-08-07T13:58:52Z</time>
      </trkpt>
      <trkpt lat="50.54037" lon="3.02791">
        <ele>25.13</ele>
        <time>2021-08-07T13:58:59Z</time>
      </trkpt>
      <trkpt lat="50.54025" lon="3.02817">
        <ele>25.13</ele>
        <time>2021-08-07T13:59:03Z</time>
      </trkpt>
      <trkpt lat="50.54021" lon="3.02831">
        <ele>25.13</ele>
        <time>2021-08-07T13:59:05Z</time>
      </trkpt>
      <trkpt lat="50.54017" lon="3.02837">
        <ele>25.13</ele>
        <time>2021-08-07T13:59:06Z</time>
      </trkpt>
      <trkpt lat="50.54013" lon="3.02842">
        <ele>25.13</ele>
        <time>2021-08-07T13:59:07Z</time>
      </trkpt>
      <trkpt lat="50.54002" lon="3.02867">
        <ele>25.13</ele>
        <time>2021-08-07T13:59:11Z</time>
      </trkpt>
      <trkpt lat="50.53998" lon="3.02872">
        <ele>25.61</ele>
        <time>2021-08-07T13:59:12Z</time>
      </trkpt>
      <trkpt lat="50.53993" lon="3.02876">
        <ele>25.61</ele>
        <time>2021-08-07T13:59:13Z</time>
      </trkpt>
      <trkpt lat="50.53989" lon="3.02879">
        <ele>25.61</ele>
        <time>2021-08-07T13:59:14Z</time>
      </trkpt>
      <trkpt lat="50.53984" lon="3.02882">
        <ele>25.61</ele>
        <time>2021-08-07T13:59:15Z</time>
      </trkpt>
      <trkpt lat="50.5398" lon="3.02885">
        <ele>25.61</ele>
        <time>2021-08-07T13:59:16Z</time>
      </trkpt>
      <trkpt lat="50.53975" lon="3.02887">
        <ele>25.61</ele>
        <time>2021-08-07T13:59:17Z</time>
      </trkpt>
      <trkpt lat="50.5397" lon="3.02888">
        <ele>25.61</ele>
        <time>2021-08-07T13:59:18Z</time>
      </trkpt>
      <trkpt lat="50.53965" lon="3.02888">
        <ele>25.61</ele>
        <time>2021-08-07T13:59:19Z</time>
      </trkpt>
      <trkpt lat="50.5396" lon="3.02886">
        <ele>25.61</ele>
        <time>2021-08-07T13:59:20Z</time>
      </trkpt>
      <trkpt lat="50.53954" lon="3.02884">
        <ele>25.61</ele>
        <time>2021-08-07T13:59:21Z</time>
      </trkpt>
      <trkpt lat="50.5395" lon="3.02882">
        <ele>25.61</ele>
        <time>2021-08-07T13:59:22Z</time>
      </trkpt>
      <trkpt lat="50.53946" lon="3.02878">
        <ele>25.61</ele>
        <time>2021-08-07T13:59:23Z</time>
      </trkpt>
      <trkpt lat="50.53942" lon="3.02873">
        <ele>26.09</ele>
        <time>2021-08-07T13:59:24Z</time>
      </trkpt>
      <trkpt lat="50.53938" lon="3.02868">
        <ele>26.09</ele>
        <time>2021-08-07T13:59:25Z</time>
      </trkpt>
      <trkpt lat="50.53901" lon="3.02816">
        <ele>26.09</ele>
        <time>2021-08-07T13:59:35Z</time>
      </trkpt>
      <trkpt lat="50.53866" lon="3.02786">
        <ele>26.57</ele>
        <time>2021-08-07T13:59:43Z</time>
      </trkpt>
      <trkpt lat="50.53833" lon="3.02772">
        <ele>26.57</ele>
        <time>2021-08-07T13:59:50Z</time>
      </trkpt>
      <trkpt lat="50.53829" lon="3.02771">
        <ele>27.05</ele>
        <time>2021-08-07T13:59:51Z</time>
      </trkpt>
      <trkpt lat="50.53803" lon="3.02768">
        <ele>27.53</ele>
        <time>2021-08-07T13:59:58Z</time>
      </trkpt>
      <trkpt lat="50.53776" lon="3.02769">
        <ele>28.98</ele>
        <time>2021-08-07T14:00:06Z</time>
      </trkpt>
      <trkpt lat="50.53745" lon="3.02779">
        <ele>30.42</ele>
        <time>2021-08-07T14:00:15Z</time>
      </trkpt>
      <trkpt lat="50.53716" lon="3.02792">
        <ele>31.86</ele>
        <time>2021-08-07T14:00:24Z</time>
      </trkpt>
      <trkpt lat="50.53699" lon="3.02806">
        <ele>32.34</ele>
        <time>2021-08-07T14:00:30Z</time>
      </trkpt>
      <trkpt lat="50.53697" lon="3.0281">
        <ele>32.82</ele>
        <time>2021-08-07T14:00:33Z</time>
      </trkpt>
      <trkpt lat="50.53696" lon="3.02812">
        <ele>32.82</ele>
        <time>2021-08-07T14:00:34Z</time>
      </trkpt>
      <trkpt lat="50.53695" lon="3.02815">
        <ele>32.82</ele>
        <time>2021-08-07T14:00:35Z</time>
      </trkpt>
      <trkpt lat="50.53695" lon="3.0282">
        <ele>32.82</ele>
        <time>2021-08-07T14:00:36Z</time>
      </trkpt>
      <trkpt lat="50.53696" lon="3.02825">
        <ele>32.82</ele>
        <time>2021-08-07T14:00:37Z</time>
      </trkpt>
      <trkpt lat="50.53697" lon="3.0283">
        <ele>32.82</ele>
        <time>2021-08-07T14:00:38Z</time>
      </trkpt>
      <trkpt lat="50.53699" lon="3.02835">
        <ele>32.82</ele>
        <time>2021-08-07T14:00:39Z</time>
      </trkpt>
      <trkpt lat="50.53715" lon="3.02885">
        <ele>33.3</ele>
        <time>2021-08-07T14:00:47Z</time>
      </trkpt>
      <trkpt lat="50.5374" lon="3.0297">
        <ele>34.26</ele>
        <time>2021-08-07T14:00:59Z</time>
      </trkpt>
      <trkpt lat="50.53765" lon="3.03053">
        <ele>34.26</ele>
        <time>2021-08-07T14:01:10Z</time>
      </trkpt>
      <trkpt lat="50.53781" lon="3.03108">
        <ele>34.26</ele>
        <time>2021-08-07T14:01:17Z</time>
      </trkpt>
      <trkpt lat="50.53795" lon="3.03142">
        <ele>34.26</ele>
        <time>2021-08-07T14:01:22Z</time>
      </trkpt>
      <trkpt lat="50.538" lon="3.03145">
        <ele>34.26</ele>
        <time>2021-08-07T14:01:23Z</time>
      </trkpt>
      <trkpt lat="50.53804" lon="3.03145">
        <ele>34.26</ele>
        <time>2021-08-07T14:01:24Z</time>
      </trkpt>
      <trkpt lat="50.53809" lon="3.03144">
        <ele>34.26</ele>
        <time>2021-08-07T14:01:25Z</time>
      </trkpt>
      <trkpt lat="50.53814" lon="3.0314">
        <ele>34.26</ele>
        <time>2021-08-07T14:01:26Z</time>
      </trkpt>
      <trkpt lat="50.53818" lon="3.03135">
        <ele>34.26</ele>
        <time>2021-08-07T14:01:27Z</time>
      </trkpt>
      <trkpt lat="50.53828" lon="3.03126">
        <ele>32.82</ele>
        <time>2021-08-07T14:01:29Z</time>
      </trkpt>
      <trkpt lat="50.53854" lon="3.03108">
        <ele>30.42</ele>
        <time>2021-08-07T14:01:33Z</time>
      </trkpt>
      <trkpt lat="50.53862" lon="3.03105">
        <ele>29.94</ele>
        <time>2021-08-07T14:01:34Z</time>
      </trkpt>
      <trkpt lat="50.5387" lon="3.03102">
        <ele>29.94</ele>
        <time>2021-08-07T14:01:35Z</time>
      </trkpt>
      <trkpt lat="50.53904" lon="3.03094">
        <ele>27.53</ele>
        <time>2021-08-07T14:01:39Z</time>
      </trkpt>
      <trkpt lat="50.53911" lon="3.0309">
        <ele>27.05</ele>
        <time>2021-08-07T14:01:40Z</time>
      </trkpt>
      <trkpt lat="50.53917" lon="3.03085">
        <ele>27.05</ele>
        <time>2021-08-07T14:01:41Z</time>
      </trkpt>
      <trkpt lat="50.5392" lon="3.03079">
        <ele>27.05</ele>
        <time>2021-08-07T14:01:42Z</time>
      </trkpt>
      <trkpt lat="50.53922" lon="3.03073">
        <ele>27.05</ele>
        <time>2021-08-07T14:01:43Z</time>
      </trkpt>
      <trkpt lat="50.53923" lon="3.03067">
        <ele>27.05</ele>
        <time>2021-08-07T14:01:44Z</time>
      </trkpt>
      <trkpt lat="50.53922" lon="3.03062">
        <ele>27.05</ele>
        <time>2021-08-07T14:01:45Z</time>
      </trkpt>
      <trkpt lat="50.5392" lon="3.03058">
        <ele>27.05</ele>
        <time>2021-08-07T14:01:46Z</time>
      </trkpt>
      <trkpt lat="50.53917" lon="3.03055">
        <ele>26.57</ele>
        <time>2021-08-07T14:01:47Z</time>
      </trkpt>
      <trkpt lat="50.53915" lon="3.03053">
        <ele>27.05</ele>
        <time>2021-08-07T14:01:48Z</time>
      </trkpt>
      <trkpt lat="50.53911" lon="3.03051">
        <ele>27.05</ele>
        <time>2021-08-07T14:01:49Z</time>
      </trkpt>
      <trkpt lat="50.53907" lon="3.03049">
        <ele>27.05</ele>
        <time>2021-08-07T14:01:50Z</time>
      </trkpt>
      <trkpt lat="50.53871" lon="3.03033">
        <ele>27.05</ele>
        <time>2021-08-07T14:01:58Z</time>
      </trkpt>
      <trkpt lat="50.53822" lon="3.03012">
        <ele>27.05</ele>
        <time>2021-08-07T14:02:08Z</time>
      </trkpt>
      <trkpt lat="50.53782" lon="3.02992">
        <ele>27.05</ele>
        <time>2021-08-07T14:02:16Z</time>
      </trkpt>
      <trkpt lat="50.53742" lon="3.02982">
        <ele>26.57</ele>
        <time>2021-08-07T14:02:23Z</time>
      </trkpt>
      <trkpt lat="50.53706" lon="3.02992">
        <ele>26.57</ele>
        <time>2021-08-07T14:02:29Z</time>
      </trkpt>
      <trkpt lat="50.53696" lon="3.02998">
        <ele>26.57</ele>
        <time>2021-08-07T14:02:31Z</time>
      </trkpt>
      <trkpt lat="50.53672" lon="3.03022">
        <ele>26.57</ele>
        <time>2021-08-07T14:02:36Z</time>
      </trkpt>
      <trkpt lat="50.53667" lon="3.03028">
        <ele>26.57</ele>
        <time>2021-08-07T14:02:37Z</time>
      </trkpt>
      <trkpt lat="50.53659" lon="3.0304">
        <ele>26.57</ele>
        <time>2021-08-07T14:02:39Z</time>
      </trkpt>
      <trkpt lat="50.5362" lon="3.03074">
        <ele>26.57</ele>
        <time>2021-08-07T14:02:47Z</time>
      </trkpt>
      <trkpt lat="50.53572" lon="3.03112">
        <ele>28.02</ele>
        <time>2021-08-07T14:02:57Z</time>
      </trkpt>
      <trkpt lat="50.53525" lon="3.03147">
        <ele>28.5</ele>
        <time>2021-08-07T14:03:07Z</time>
      </trkpt>
      <trkpt lat="50.53475" lon="3.03174">
        <ele>28.98</ele>
        <time>2021-08-07T14:03:17Z</time>
      </trkpt>
      <trkpt lat="50.53422" lon="3.03207">
        <ele>29.94</ele>
        <time>2021-08-07T14:03:28Z</time>
      </trkpt>
      <trkpt lat="50.53413" lon="3.03212">
        <ele>29.94</ele>
        <time>2021-08-07T14:03:30Z</time>
      </trkpt>
      <trkpt lat="50.53408" lon="3.03213">
        <ele>29.94</ele>
        <time>2021-08-07T14:03:31Z</time>
      </trkpt>
      <trkpt lat="50.53403" lon="3.03214">
        <ele>29.94</ele>
        <time>2021-08-07T14:03:32Z</time>
      </trkpt>
      <trkpt lat="50.53357" lon="3.03213">
        <ele>30.9</ele>
        <time>2021-08-07T14:03:42Z</time>
      </trkpt>
      <trkpt lat="50.53312" lon="3.03212">
        <ele>31.86</ele>
        <time>2021-08-07T14:03:52Z</time>
      </trkpt>
      <trkpt lat="50.53308" lon="3.0321">
        <ele>31.86</ele>
        <time>2021-08-07T14:03:53Z</time>
      </trkpt>
      <trkpt lat="50.53304" lon="3.03208">
        <ele>31.86</ele>
        <time>2021-08-07T14:03:54Z</time>
      </trkpt>
      <trkpt lat="50.533" lon="3.03205">
        <ele>31.86</ele>
        <time>2021-08-07T14:03:55Z</time>
      </trkpt>
      <trkpt lat="50.53296" lon="3.03201">
        <ele>31.86</ele>
        <time>2021-08-07T14:03:56Z</time>
      </trkpt>
      <trkpt lat="50.53293" lon="3.03197">
        <ele>31.86</ele>
        <time>2021-08-07T14:03:57Z</time>
      </trkpt>
      <trkpt lat="50.53289" lon="3.03192">
        <ele>32.34</ele>
        <time>2021-08-07T14:03:58Z</time>
      </trkpt>
      <trkpt lat="50.53267" lon="3.0317">
        <ele>32.34</ele>
        <time>2021-08-07T14:04:04Z</time>
      </trkpt>
      <trkpt lat="50.53229" lon="3.03176">
        <ele>32.34</ele>
        <time>2021-08-07T14:04:11Z</time>
      </trkpt>
      <trkpt lat="50.53182" lon="3.03188">
        <ele>32.34</ele>
        <time>2021-08-07T14:04:20Z</time>
      </trkpt>
      <trkpt lat="50.53167" lon="3.03193">
        <ele>32.34</ele>
        <time>2021-08-07T14:04:23Z</time>
      </trkpt>
      <trkpt lat="50.53125" lon="3.03216">
        <ele>32.82</ele>
        <time>2021-08-07T14:04:32Z</time>
      </trkpt>
      <trkpt lat="50.53116" lon="3.03222">
        <ele>33.3</ele>
        <time>2021-08-07T14:04:34Z</time>
      </trkpt>
      <trkpt lat="50.53076" lon="3.03247">
        <ele>33.78</ele>
        <time>2021-08-07T14:04:43Z</time>
      </trkpt>
      <trkpt lat="50.5303" lon="3.03277">
        <ele>34.74</ele>
        <time>2021-08-07T14:04:54Z</time>
      </trkpt>
      <trkpt lat="50.52982" lon="3.03309">
        <ele>35.23</ele>
        <time>2021-08-07T14:05:05Z</time>
      </trkpt>
      <trkpt lat="50.52937" lon="3.03339">
        <ele>35.71</ele>
        <time>2021-08-07T14:05:15Z</time>
      </trkpt>
      <trkpt lat="50.52917" lon="3.03356">
        <ele>35.71</ele>
        <time>2021-08-07T14:05:20Z</time>
      </trkpt>
      <trkpt lat="50.52878" lon="3.0339">
        <ele>36.19</ele>
        <time>2021-08-07T14:05:30Z</time>
      </trkpt>
      <trkpt lat="50.52835" lon="3.03428">
        <ele>36.67</ele>
        <time>2021-08-07T14:05:41Z</time>
      </trkpt>
      <trkpt lat="50.52793" lon="3.03465">
        <ele>37.15</ele>
        <time>2021-08-07T14:05:52Z</time>
      </trkpt>
      <trkpt lat="50.52755" lon="3.03497">
        <ele>37.63</ele>
        <time>2021-08-07T14:06:02Z</time>
      </trkpt>
      <trkpt lat="50.52718" lon="3.03529">
        <ele>38.11</ele>
        <time>2021-08-07T14:06:12Z</time>
      </trkpt>
      <trkpt lat="50.52677" lon="3.03562">
        <ele>38.11</ele>
        <time>2021-08-07T14:06:23Z</time>
      </trkpt>
      <trkpt lat="50.52636" lon="3.03586">
        <ele>38.59</ele>
        <time>2021-08-07T14:06:34Z</time>
      </trkpt>
      <trkpt lat="50.52588" lon="3.03607">
        <ele>39.07</ele>
        <time>2021-08-07T14:06:46Z</time>
      </trkpt>
      <trkpt lat="50.52563" lon="3.03615">
        <ele>39.07</ele>
        <time>2021-08-07T14:06:52Z</time>
      </trkpt>
      <trkpt lat="50.52527" lon="3.03617">
        <ele>39.07</ele>
        <time>2021-08-07T14:07:01Z</time>
      </trkpt>
      <trkpt lat="50.52526" lon="3.03622">
        <ele>39.07</ele>
        <time>2021-08-07T14:07:02Z</time>
      </trkpt>
      <trkpt lat="50.52527" lon="3.03627">
        <ele>39.07</ele>
        <time>2021-08-07T14:07:03Z</time>
      </trkpt>
      <trkpt lat="50.52527" lon="3.03631">
        <ele>39.07</ele>
        <time>2021-08-07T14:07:04Z</time>
      </trkpt>
      <trkpt lat="50.52529" lon="3.03636">
        <ele>39.07</ele>
        <time>2021-08-07T14:07:05Z</time>
      </trkpt>
      <trkpt lat="50.52531" lon="3.03641">
        <ele>39.07</ele>
        <time>2021-08-07T14:07:06Z</time>
      </trkpt>
      <trkpt lat="50.52547" lon="3.03694">
        <ele>40.03</ele>
        <time>2021-08-07T14:07:15Z</time>
      </trkpt>
      <trkpt lat="50.52569" lon="3.03765">
        <ele>39.55</ele>
        <time>2021-08-07T14:07:26Z</time>
      </trkpt>
      <trkpt lat="50.5257" lon="3.03772">
        <ele>39.55</ele>
        <time>2021-08-07T14:07:27Z</time>
      </trkpt>
      <trkpt lat="50.52587" lon="3.03841">
        <ele>40.51</ele>
        <time>2021-08-07T14:07:38Z</time>
      </trkpt>
      <trkpt lat="50.52594" lon="3.03901">
        <ele>40.99</ele>
        <time>2021-08-07T14:07:47Z</time>
      </trkpt>
      <trkpt lat="50.52594" lon="3.03952">
        <ele>41.47</ele>
        <time>2021-08-07T14:07:55Z</time>
      </trkpt>
      <trkpt lat="50.5259" lon="3.03984">
        <ele>41.47</ele>
        <time>2021-08-07T14:08:00Z</time>
      </trkpt>
      <trkpt lat="50.52576" lon="3.04049">
        <ele>42.44</ele>
        <time>2021-08-07T14:08:11Z</time>
      </trkpt>
      <trkpt lat="50.52558" lon="3.04113">
        <ele>42.92</ele>
        <time>2021-08-07T14:08:22Z</time>
      </trkpt>
      <trkpt lat="50.52543" lon="3.04167">
        <ele>44.36</ele>
        <time>2021-08-07T14:08:32Z</time>
      </trkpt>
      <trkpt lat="50.5253" lon="3.04211">
        <ele>45.32</ele>
        <time>2021-08-07T14:08:41Z</time>
      </trkpt>
      <trkpt lat="50.52516" lon="3.04259">
        <ele>45.8</ele>
        <time>2021-08-07T14:08:50Z</time>
      </trkpt>
      <trkpt lat="50.52509" lon="3.04277">
        <ele>45.8</ele>
        <time>2021-08-07T14:08:53Z</time>
      </trkpt>
      <trkpt lat="50.52506" lon="3.04283">
        <ele>44.36</ele>
        <time>2021-08-07T14:08:54Z</time>
      </trkpt>
      <trkpt lat="50.52499" lon="3.04289">
        <ele>43.88</ele>
        <time>2021-08-07T14:08:56Z</time>
      </trkpt>
      <trkpt lat="50.52494" lon="3.04289">
        <ele>43.4</ele>
        <time>2021-08-07T14:08:57Z</time>
      </trkpt>
      <trkpt lat="50.52489" lon="3.04285">
        <ele>43.4</ele>
        <time>2021-08-07T14:08:58Z</time>
      </trkpt>
      <trkpt lat="50.52455" lon="3.04259">
        <ele>42.92</ele>
        <time>2021-08-07T14:09:05Z</time>
      </trkpt>
      <trkpt lat="50.52413" lon="3.04224">
        <ele>41.47</ele>
        <time>2021-08-07T14:09:14Z</time>
      </trkpt>
      <trkpt lat="50.52365" lon="3.04183">
        <ele>40.99</ele>
        <time>2021-08-07T14:09:24Z</time>
      </trkpt>
      <trkpt lat="50.52327" lon="3.0415">
        <ele>40.51</ele>
        <time>2021-08-07T14:09:32Z</time>
      </trkpt>
      <trkpt lat="50.52283" lon="3.04115">
        <ele>40.03</ele>
        <time>2021-08-07T14:09:41Z</time>
      </trkpt>
      <trkpt lat="50.52268" lon="3.04109">
        <ele>39.07</ele>
        <time>2021-08-07T14:09:46Z</time>
      </trkpt>
      <trkpt lat="50.52269" lon="3.04108">
        <ele>39.55</ele>
        <time>2021-08-07T14:09:57Z</time>
      </trkpt>
      <trkpt lat="50.52266" lon="3.0411">
        <ele>39.55</ele>
        <time>2021-08-07T14:10:07Z</time>
      </trkpt>
      <trkpt lat="50.52255" lon="3.04125">
        <ele>39.55</ele>
        <time>2021-08-07T14:10:12Z</time>
      </trkpt>
      <trkpt lat="50.52253" lon="3.04131">
        <ele>39.55</ele>
        <time>2021-08-07T14:10:13Z</time>
      </trkpt>
      <trkpt lat="50.5223" lon="3.04191">
        <ele>38.11</ele>
        <time>2021-08-07T14:10:22Z</time>
      </trkpt>
      <trkpt lat="50.52202" lon="3.04263">
        <ele>37.15</ele>
        <time>2021-08-07T14:10:32Z</time>
      </trkpt>
      <trkpt lat="50.52175" lon="3.04338">
        <ele>36.67</ele>
        <time>2021-08-07T14:10:43Z</time>
      </trkpt>
      <trkpt lat="50.52159" lon="3.04382">
        <ele>36.67</ele>
        <time>2021-08-07T14:10:51Z</time>
      </trkpt>
      <trkpt lat="50.52157" lon="3.04389">
        <ele>36.67</ele>
        <time>2021-08-07T14:10:52Z</time>
      </trkpt>
      <trkpt lat="50.52153" lon="3.044">
        <ele>36.67</ele>
        <time>2021-08-07T14:10:54Z</time>
      </trkpt>
      <trkpt lat="50.52151" lon="3.04406">
        <ele>36.67</ele>
        <time>2021-08-07T14:10:55Z</time>
      </trkpt>
      <trkpt lat="50.5215" lon="3.04412">
        <ele>36.67</ele>
        <time>2021-08-07T14:10:56Z</time>
      </trkpt>
      <trkpt lat="50.52148" lon="3.04416">
        <ele>36.67</ele>
        <time>2021-08-07T14:10:57Z</time>
      </trkpt>
      <trkpt lat="50.52144" lon="3.04418">
        <ele>36.67</ele>
        <time>2021-08-07T14:10:58Z</time>
      </trkpt>
      <trkpt lat="50.52141" lon="3.04419">
        <ele>36.67</ele>
        <time>2021-08-07T14:10:59Z</time>
      </trkpt>
      <trkpt lat="50.52138" lon="3.04419">
        <ele>36.67</ele>
        <time>2021-08-07T14:11:00Z</time>
      </trkpt>
      <trkpt lat="50.52135" lon="3.0442">
        <ele>36.67</ele>
        <time>2021-08-07T14:11:01Z</time>
      </trkpt>
      <trkpt lat="50.52133" lon="3.0442">
        <ele>36.67</ele>
        <time>2021-08-07T14:11:02Z</time>
      </trkpt>
      <trkpt lat="50.52131" lon="3.04419">
        <ele>36.67</ele>
        <time>2021-08-07T14:11:03Z</time>
      </trkpt>
      <trkpt lat="50.52129" lon="3.04418">
        <ele>36.67</ele>
        <time>2021-08-07T14:11:04Z</time>
      </trkpt>
      <trkpt lat="50.52111" lon="3.04401">
        <ele>36.67</ele>
        <time>2021-08-07T14:11:13Z</time>
      </trkpt>
      <trkpt lat="50.52106" lon="3.04396">
        <ele>36.67</ele>
        <time>2021-08-07T14:11:15Z</time>
      </trkpt>
      <trkpt lat="50.52104" lon="3.04397">
        <ele>36.67</ele>
        <time>2021-08-07T14:11:16Z</time>
      </trkpt>
      <trkpt lat="50.52101" lon="3.04411">
        <ele>36.67</ele>
        <time>2021-08-07T14:11:20Z</time>
      </trkpt>
      <trkpt lat="50.521" lon="3.04415">
        <ele>36.67</ele>
        <time>2021-08-07T14:11:21Z</time>
      </trkpt>
      <trkpt lat="50.52099" lon="3.04419">
        <ele>36.67</ele>
        <time>2021-08-07T14:11:22Z</time>
      </trkpt>
      <trkpt lat="50.52097" lon="3.04424">
        <ele>36.67</ele>
        <time>2021-08-07T14:11:23Z</time>
      </trkpt>
      <trkpt lat="50.52094" lon="3.04427">
        <ele>36.67</ele>
        <time>2021-08-07T14:11:24Z</time>
      </trkpt>
      <trkpt lat="50.52092" lon="3.0443">
        <ele>36.67</ele>
        <time>2021-08-07T14:11:25Z</time>
      </trkpt>
      <trkpt lat="50.52089" lon="3.04433">
        <ele>36.67</ele>
        <time>2021-08-07T14:11:26Z</time>
      </trkpt>
      <trkpt lat="50.52085" lon="3.04436">
        <ele>36.67</ele>
        <time>2021-08-07T14:11:27Z</time>
      </trkpt>
      <trkpt lat="50.52081" lon="3.04438">
        <ele>36.67</ele>
        <time>2021-08-07T14:11:28Z</time>
      </trkpt>
      <trkpt lat="50.52078" lon="3.0444">
        <ele>36.67</ele>
        <time>2021-08-07T14:11:29Z</time>
      </trkpt>
      <trkpt lat="50.52051" lon="3.04458">
        <ele>36.67</ele>
        <time>2021-08-07T14:11:36Z</time>
      </trkpt>
      <trkpt lat="50.52014" lon="3.04482">
        <ele>36.67</ele>
        <time>2021-08-07T14:11:45Z</time>
      </trkpt>
      <trkpt lat="50.51986" lon="3.04499">
        <ele>36.67</ele>
        <time>2021-08-07T14:11:52Z</time>
      </trkpt>
      <trkpt lat="50.51951" lon="3.04521">
        <ele>37.63</ele>
        <time>2021-08-07T14:12:01Z</time>
      </trkpt>
      <trkpt lat="50.51921" lon="3.04538">
        <ele>37.63</ele>
        <time>2021-08-07T14:12:08Z</time>
      </trkpt>
      <trkpt lat="50.51913" lon="3.04544">
        <ele>37.63</ele>
        <time>2021-08-07T14:12:10Z</time>
      </trkpt>
      <trkpt lat="50.51883" lon="3.04559">
        <ele>37.63</ele>
        <time>2021-08-07T14:12:17Z</time>
      </trkpt>
      <trkpt lat="50.51866" lon="3.04566">
        <ele>37.63</ele>
        <time>2021-08-07T14:12:21Z</time>
      </trkpt>
      <trkpt lat="50.51861" lon="3.0457">
        <ele>37.63</ele>
        <time>2021-08-07T14:12:22Z</time>
      </trkpt>
      <trkpt lat="50.51827" lon="3.04596">
        <ele>38.59</ele>
        <time>2021-08-07T14:12:31Z</time>
      </trkpt>
      <trkpt lat="50.51802" lon="3.0461">
        <ele>39.07</ele>
        <time>2021-08-07T14:12:38Z</time>
      </trkpt>
      <trkpt lat="50.51774" lon="3.0462">
        <ele>39.55</ele>
        <time>2021-08-07T14:12:45Z</time>
      </trkpt>
      <trkpt lat="50.5176" lon="3.04625">
        <ele>39.55</ele>
        <time>2021-08-07T14:12:48Z</time>
      </trkpt>
      <trkpt lat="50.51756" lon="3.04627">
        <ele>39.55</ele>
        <time>2021-08-07T14:12:49Z</time>
      </trkpt>
      <trkpt lat="50.5174" lon="3.04639">
        <ele>39.55</ele>
        <time>2021-08-07T14:12:53Z</time>
      </trkpt>
      <trkpt lat="50.51735" lon="3.04641">
        <ele>39.55</ele>
        <time>2021-08-07T14:12:54Z</time>
      </trkpt>
      <trkpt lat="50.51731" lon="3.04643">
        <ele>39.55</ele>
        <time>2021-08-07T14:12:55Z</time>
      </trkpt>
      <trkpt lat="50.51727" lon="3.04645">
        <ele>40.03</ele>
        <time>2021-08-07T14:12:56Z</time>
      </trkpt>
      <trkpt lat="50.51723" lon="3.04646">
        <ele>40.03</ele>
        <time>2021-08-07T14:12:57Z</time>
      </trkpt>
      <trkpt lat="50.51719" lon="3.04648">
        <ele>40.03</ele>
        <time>2021-08-07T14:12:58Z</time>
      </trkpt>
      <trkpt lat="50.51692" lon="3.04665">
        <ele>40.03</ele>
        <time>2021-08-07T14:13:05Z</time>
      </trkpt>
      <trkpt lat="50.51673" lon="3.04677">
        <ele>40.51</ele>
        <time>2021-08-07T14:13:10Z</time>
      </trkpt>
      <trkpt lat="50.51648" lon="3.04697">
        <ele>40.99</ele>
        <time>2021-08-07T14:13:17Z</time>
      </trkpt>
      <trkpt lat="50.51629" lon="3.04708">
        <ele>40.99</ele>
        <time>2021-08-07T14:13:23Z</time>
      </trkpt>
      <trkpt lat="50.5161" lon="3.04718">
        <ele>40.99</ele>
        <time>2021-08-07T14:13:29Z</time>
      </trkpt>
      <trkpt lat="50.51588" lon="3.04731">
        <ele>40.99</ele>
        <time>2021-08-07T14:13:35Z</time>
      </trkpt>
      <trkpt lat="50.51564" lon="3.04754">
        <ele>41.47</ele>
        <time>2021-08-07T14:13:42Z</time>
      </trkpt>
      <trkpt lat="50.51545" lon="3.04768">
        <ele>41.47</ele>
        <time>2021-08-07T14:13:48Z</time>
      </trkpt>
      <trkpt lat="50.51529" lon="3.04782">
        <ele>41.95</ele>
        <time>2021-08-07T14:13:54Z</time>
      </trkpt>
      <trkpt lat="50.51513" lon="3.04791">
        <ele>42.44</ele>
        <time>2021-08-07T14:13:59Z</time>
      </trkpt>
      <trkpt lat="50.51509" lon="3.04792">
        <ele>42.44</ele>
        <time>2021-08-07T14:14:00Z</time>
      </trkpt>
      <trkpt lat="50.51507" lon="3.04796">
        <ele>42.44</ele>
        <time>2021-08-07T14:14:01Z</time>
      </trkpt>
      <trkpt lat="50.51506" lon="3.04799">
        <ele>42.44</ele>
        <time>2021-08-07T14:14:02Z</time>
      </trkpt>
      <trkpt lat="50.51505" lon="3.04804">
        <ele>42.44</ele>
        <time>2021-08-07T14:14:03Z</time>
      </trkpt>
      <trkpt lat="50.51503" lon="3.04813">
        <ele>42.44</ele>
        <time>2021-08-07T14:14:05Z</time>
      </trkpt>
      <trkpt lat="50.51503" lon="3.04818">
        <ele>42.44</ele>
        <time>2021-08-07T14:14:06Z</time>
      </trkpt>
      <trkpt lat="50.51503" lon="3.04823">
        <ele>42.92</ele>
        <time>2021-08-07T14:14:07Z</time>
      </trkpt>
      <trkpt lat="50.51499" lon="3.04847">
        <ele>43.4</ele>
        <time>2021-08-07T14:14:13Z</time>
      </trkpt>
      <trkpt lat="50.51503" lon="3.04875">
        <ele>44.36</ele>
        <time>2021-08-07T14:14:20Z</time>
      </trkpt>
      <trkpt lat="50.51513" lon="3.04902">
        <ele>44.84</ele>
        <time>2021-08-07T14:14:27Z</time>
      </trkpt>
      <trkpt lat="50.51533" lon="3.04935">
        <ele>45.32</ele>
        <time>2021-08-07T14:14:36Z</time>
      </trkpt>
      <trkpt lat="50.51544" lon="3.04953">
        <ele>45.32</ele>
        <time>2021-08-07T14:14:41Z</time>
      </trkpt>
      <trkpt lat="50.51554" lon="3.04971">
        <ele>46.28</ele>
        <time>2021-08-07T14:14:47Z</time>
      </trkpt>
      <trkpt lat="50.51559" lon="3.04992">
        <ele>46.76</ele>
        <time>2021-08-07T14:14:54Z</time>
      </trkpt>
      <trkpt lat="50.51566" lon="3.05014">
        <ele>46.76</ele>
        <time>2021-08-07T14:15:01Z</time>
      </trkpt>
      <trkpt lat="50.51567" lon="3.05017">
        <ele>47.24</ele>
        <time>2021-08-07T14:15:02Z</time>
      </trkpt>
      <trkpt lat="50.51568" lon="3.0502">
        <ele>47.24</ele>
        <time>2021-08-07T14:15:03Z</time>
      </trkpt>
      <trkpt lat="50.5157" lon="3.05045">
        <ele>47.72</ele>
        <time>2021-08-07T14:15:11Z</time>
      </trkpt>
      <trkpt lat="50.51563" lon="3.0506">
        <ele>48.68</ele>
        <time>2021-08-07T14:15:17Z</time>
      </trkpt>
      <trkpt lat="50.51561" lon="3.05064">
        <ele>48.68</ele>
        <time>2021-08-07T14:15:19Z</time>
      </trkpt>
      <trkpt lat="50.5156" lon="3.05065">
        <ele>48.68</ele>
        <time>2021-08-07T14:15:20Z</time>
      </trkpt>
      <trkpt lat="50.51559" lon="3.05066">
        <ele>48.68</ele>
        <time>2021-08-07T14:15:21Z</time>
      </trkpt>
      <trkpt lat="50.51557" lon="3.05068">
        <ele>48.68</ele>
        <time>2021-08-07T14:15:22Z</time>
      </trkpt>
      <trkpt lat="50.51555" lon="3.05071">
        <ele>48.68</ele>
        <time>2021-08-07T14:15:23Z</time>
      </trkpt>
      <trkpt lat="50.51554" lon="3.05074">
        <ele>48.68</ele>
        <time>2021-08-07T14:15:24Z</time>
      </trkpt>
      <trkpt lat="50.51551" lon="3.05076">
        <ele>48.68</ele>
        <time>2021-08-07T14:15:25Z</time>
      </trkpt>
      <trkpt lat="50.51549" lon="3.05077">
        <ele>48.68</ele>
        <time>2021-08-07T14:15:26Z</time>
      </trkpt>
      <trkpt lat="50.51545" lon="3.05083">
        <ele>49.16</ele>
        <time>2021-08-07T14:15:29Z</time>
      </trkpt>
      <trkpt lat="50.51529" lon="3.0509">
        <ele>49.16</ele>
        <time>2021-08-07T14:15:36Z</time>
      </trkpt>
      <trkpt lat="50.51514" lon="3.051">
        <ele>49.65</ele>
        <time>2021-08-07T14:15:42Z</time>
      </trkpt>
      <trkpt lat="50.51493" lon="3.05109">
        <ele>50.13</ele>
        <time>2021-08-07T14:15:49Z</time>
      </trkpt>
      <trkpt lat="50.51464" lon="3.0512">
        <ele>51.09</ele>
        <time>2021-08-07T14:15:59Z</time>
      </trkpt>
      <trkpt lat="50.51444" lon="3.05124">
        <ele>52.05</ele>
        <time>2021-08-07T14:16:07Z</time>
      </trkpt>
      <trkpt lat="50.5142" lon="3.05124">
        <ele>52.05</ele>
        <time>2021-08-07T14:16:16Z</time>
      </trkpt>
      <trkpt lat="50.514" lon="3.05128">
        <ele>53.49</ele>
        <time>2021-08-07T14:16:24Z</time>
      </trkpt>
      <trkpt lat="50.51384" lon="3.05135">
        <ele>53.49</ele>
        <time>2021-08-07T14:16:31Z</time>
      </trkpt>
      <trkpt lat="50.51382" lon="3.05133">
        <ele>53.49</ele>
        <time>2021-08-07T14:16:32Z</time>
      </trkpt>
      <trkpt lat="50.51381" lon="3.05129">
        <ele>53.49</ele>
        <time>2021-08-07T14:16:33Z</time>
      </trkpt>
      <trkpt lat="50.5138" lon="3.05125">
        <ele>53.49</ele>
        <time>2021-08-07T14:16:34Z</time>
      </trkpt>
      <trkpt lat="50.5138" lon="3.05121">
        <ele>53.49</ele>
        <time>2021-08-07T14:16:35Z</time>
      </trkpt>
      <trkpt lat="50.51374" lon="3.05095">
        <ele>53.49</ele>
        <time>2021-08-07T14:16:41Z</time>
      </trkpt>
      <trkpt lat="50.51368" lon="3.05063">
        <ele>53.01</ele>
        <time>2021-08-07T14:16:49Z</time>
      </trkpt>
      <trkpt lat="50.5136" lon="3.05027">
        <ele>51.57</ele>
        <time>2021-08-07T14:16:56Z</time>
      </trkpt>
      <trkpt lat="50.51353" lon="3.04989">
        <ele>50.61</ele>
        <time>2021-08-07T14:17:03Z</time>
      </trkpt>
      <trkpt lat="50.51346" lon="3.04956">
        <ele>50.13</ele>
        <time>2021-08-07T14:17:09Z</time>
      </trkpt>
      <trkpt lat="50.51336" lon="3.0491">
        <ele>49.16</ele>
        <time>2021-08-07T14:17:16Z</time>
      </trkpt>
      <trkpt lat="50.5133" lon="3.04874">
        <ele>48.68</ele>
        <time>2021-08-07T14:17:21Z</time>
      </trkpt>
      <trkpt lat="50.51328" lon="3.04867">
        <ele>48.68</ele>
        <time>2021-08-07T14:17:22Z</time>
      </trkpt>
      <trkpt lat="50.51323" lon="3.04847">
        <ele>48.68</ele>
        <time>2021-08-07T14:17:25Z</time>
      </trkpt>
      <trkpt lat="50.51321" lon="3.0484">
        <ele>48.68</ele>
        <time>2021-08-07T14:17:26Z</time>
      </trkpt>
      <trkpt lat="50.51319" lon="3.04832">
        <ele>48.68</ele>
        <time>2021-08-07T14:17:27Z</time>
      </trkpt>
      <trkpt lat="50.51306" lon="3.04779">
        <ele>47.24</ele>
        <time>2021-08-07T14:17:35Z</time>
      </trkpt>
      <trkpt lat="50.51299" lon="3.04745">
        <ele>47.24</ele>
        <time>2021-08-07T14:17:41Z</time>
      </trkpt>
      <trkpt lat="50.5129" lon="3.04712">
        <ele>47.24</ele>
        <time>2021-08-07T14:17:47Z</time>
      </trkpt>
      <trkpt lat="50.51279" lon="3.04674">
        <ele>46.76</ele>
        <time>2021-08-07T14:17:54Z</time>
      </trkpt>
      <trkpt lat="50.51277" lon="3.04671">
        <ele>46.76</ele>
        <time>2021-08-07T14:17:55Z</time>
      </trkpt>
      <trkpt lat="50.51275" lon="3.0467">
        <ele>46.76</ele>
        <time>2021-08-07T14:17:56Z</time>
      </trkpt>
      <trkpt lat="50.51258" lon="3.04678">
        <ele>46.76</ele>
        <time>2021-08-07T14:18:02Z</time>
      </trkpt>
      <trkpt lat="50.5124" lon="3.04686">
        <ele>47.72</ele>
        <time>2021-08-07T14:18:09Z</time>
      </trkpt>
      <trkpt lat="50.51223" lon="3.04695">
        <ele>48.68</ele>
        <time>2021-08-07T14:18:16Z</time>
      </trkpt>
      <trkpt lat="50.51204" lon="3.04705">
        <ele>49.16</ele>
        <time>2021-08-07T14:18:23Z</time>
      </trkpt>
      <trkpt lat="50.51181" lon="3.04717">
        <ele>49.16</ele>
        <time>2021-08-07T14:18:31Z</time>
      </trkpt>
      <trkpt lat="50.51158" lon="3.04729">
        <ele>49.65</ele>
        <time>2021-08-07T14:18:39Z</time>
      </trkpt>
      <trkpt lat="50.51142" lon="3.04738">
        <ele>50.61</ele>
        <time>2021-08-07T14:18:45Z</time>
      </trkpt>
      <trkpt lat="50.51121" lon="3.04748">
        <ele>51.09</ele>
        <time>2021-08-07T14:18:52Z</time>
      </trkpt>
      <trkpt lat="50.51104" lon="3.04757">
        <ele>51.09</ele>
        <time>2021-08-07T14:18:58Z</time>
      </trkpt>
      <trkpt lat="50.51078" lon="3.04769">
        <ele>51.09</ele>
        <time>2021-08-07T14:19:06Z</time>
      </trkpt>
      <trkpt lat="50.51061" lon="3.04769">
        <ele>51.57</ele>
        <time>2021-08-07T14:19:12Z</time>
      </trkpt>
      <trkpt lat="50.51051" lon="3.0475">
        <ele>51.57</ele>
        <time>2021-08-07T14:19:18Z</time>
      </trkpt>
      <trkpt lat="50.51051" lon="3.04745">
        <ele>51.57</ele>
        <time>2021-08-07T14:19:19Z</time>
      </trkpt>
      <trkpt lat="50.51052" lon="3.0474">
        <ele>51.57</ele>
        <time>2021-08-07T14:19:20Z</time>
      </trkpt>
      <trkpt lat="50.51052" lon="3.04735">
        <ele>51.57</ele>
        <time>2021-08-07T14:19:21Z</time>
      </trkpt>
      <trkpt lat="50.51052" lon="3.0473">
        <ele>51.57</ele>
        <time>2021-08-07T14:19:22Z</time>
      </trkpt>
      <trkpt lat="50.51054" lon="3.047">
        <ele>51.57</ele>
        <time>2021-08-07T14:19:27Z</time>
      </trkpt>
      <trkpt lat="50.51053" lon="3.04692">
        <ele>51.57</ele>
        <time>2021-08-07T14:19:28Z</time>
      </trkpt>
      <trkpt lat="50.51052" lon="3.04685">
        <ele>51.57</ele>
        <time>2021-08-07T14:19:29Z</time>
      </trkpt>
      <trkpt lat="50.51051" lon="3.04678">
        <ele>50.61</ele>
        <time>2021-08-07T14:19:30Z</time>
      </trkpt>
      <trkpt lat="50.51049" lon="3.04672">
        <ele>50.61</ele>
        <time>2021-08-07T14:19:31Z</time>
      </trkpt>
      <trkpt lat="50.51041" lon="3.04638">
        <ele>49.65</ele>
        <time>2021-08-07T14:19:36Z</time>
      </trkpt>
      <trkpt lat="50.5104" lon="3.04631">
        <ele>49.65</ele>
        <time>2021-08-07T14:19:37Z</time>
      </trkpt>
      <trkpt lat="50.5103" lon="3.04592">
        <ele>49.65</ele>
        <time>2021-08-07T14:19:43Z</time>
      </trkpt>
      <trkpt lat="50.51019" lon="3.0454">
        <ele>48.2</ele>
        <time>2021-08-07T14:19:50Z</time>
      </trkpt>
      <trkpt lat="50.51016" lon="3.04529">
        <ele>48.2</ele>
        <time>2021-08-07T14:19:54Z</time>
      </trkpt>
      <trkpt lat="50.51016" lon="3.04527">
        <ele>48.2</ele>
        <time>2021-08-07T14:20:04Z</time>
      </trkpt>
      <trkpt lat="50.51016" lon="3.0452">
        <ele>48.2</ele>
        <time>2021-08-07T14:20:09Z</time>
      </trkpt>
      <trkpt lat="50.51016" lon="3.04518">
        <ele>48.2</ele>
        <time>2021-08-07T14:20:10Z</time>
      </trkpt>
      <trkpt lat="50.51016" lon="3.04516">
        <ele>48.2</ele>
        <time>2021-08-07T14:20:11Z</time>
      </trkpt>
      <trkpt lat="50.51014" lon="3.04513">
        <ele>48.2</ele>
        <time>2021-08-07T14:20:12Z</time>
      </trkpt>
      <trkpt lat="50.51012" lon="3.04511">
        <ele>48.2</ele>
        <time>2021-08-07T14:20:13Z</time>
      </trkpt>
      <trkpt lat="50.5101" lon="3.0451">
        <ele>48.2</ele>
        <time>2021-08-07T14:20:14Z</time>
      </trkpt>
      <trkpt lat="50.51007" lon="3.0451">
        <ele>48.2</ele>
        <time>2021-08-07T14:20:15Z</time>
      </trkpt>
      <trkpt lat="50.51004" lon="3.04511">
        <ele>48.2</ele>
        <time>2021-08-07T14:20:16Z</time>
      </trkpt>
      <trkpt lat="50.5098" lon="3.04518">
        <ele>48.2</ele>
        <time>2021-08-07T14:20:25Z</time>
      </trkpt>
      <trkpt lat="50.5098" lon="3.04518">
        <ele>48.2</ele>
        <time>2021-08-07T14:20:35Z</time>
      </trkpt>
      <trkpt lat="50.5098" lon="3.04518">
        <ele>48.2</ele>
        <time>2021-08-07T14:20:44Z</time>
      </trkpt>
      <trkpt lat="50.5098" lon="3.04517">
        <ele>48.2</ele>
        <time>2021-08-07T14:20:59Z</time>
      </trkpt>
      <trkpt lat="50.50981" lon="3.0452">
        <ele>48.68</ele>
        <time>2021-08-07T14:21:11Z</time>
      </trkpt>
      <trkpt lat="50.50982" lon="3.04521">
        <ele>48.2</ele>
        <time>2021-08-07T14:21:22Z</time>
      </trkpt>
      <trkpt lat="50.5098" lon="3.04522">
        <ele>48.2</ele>
        <time>2021-08-07T14:21:29Z</time>
      </trkpt>
      <trkpt lat="50.50969" lon="3.04524">
        <ele>48.2</ele>
        <time>2021-08-07T14:21:35Z</time>
      </trkpt>
      <trkpt lat="50.50946" lon="3.04531">
        <ele>48.2</ele>
        <time>2021-08-07T14:21:42Z</time>
      </trkpt>
      <trkpt lat="50.50934" lon="3.04546">
        <ele>48.2</ele>
        <time>2021-08-07T14:21:46Z</time>
      </trkpt>
      <trkpt lat="50.50928" lon="3.04555">
        <ele>48.2</ele>
        <time>2021-08-07T14:21:48Z</time>
      </trkpt>
      <trkpt lat="50.50911" lon="3.04585">
        <ele>48.2</ele>
        <time>2021-08-07T14:21:54Z</time>
      </trkpt>
      <trkpt lat="50.50909" lon="3.04591">
        <ele>48.2</ele>
        <time>2021-08-07T14:21:55Z</time>
      </trkpt>
      <trkpt lat="50.50883" lon="3.04641">
        <ele>48.2</ele>
        <time>2021-08-07T14:22:04Z</time>
      </trkpt>
      <trkpt lat="50.50854" lon="3.04695">
        <ele>49.16</ele>
        <time>2021-08-07T14:22:13Z</time>
      </trkpt>
      <trkpt lat="50.50829" lon="3.04742">
        <ele>49.16</ele>
        <time>2021-08-07T14:22:21Z</time>
      </trkpt>
      <trkpt lat="50.50802" lon="3.04791">
        <ele>49.16</ele>
        <time>2021-08-07T14:22:29Z</time>
      </trkpt>
      <trkpt lat="50.50768" lon="3.04853">
        <ele>49.16</ele>
        <time>2021-08-07T14:22:39Z</time>
      </trkpt>
      <trkpt lat="50.50738" lon="3.04911">
        <ele>49.16</ele>
        <time>2021-08-07T14:22:49Z</time>
      </trkpt>
      <trkpt lat="50.50711" lon="3.0496">
        <ele>49.65</ele>
        <time>2021-08-07T14:22:58Z</time>
      </trkpt>
      <trkpt lat="50.50678" lon="3.05023">
        <ele>50.61</ele>
        <time>2021-08-07T14:23:10Z</time>
      </trkpt>
      <trkpt lat="50.50655" lon="3.05066">
        <ele>51.57</ele>
        <time>2021-08-07T14:23:19Z</time>
      </trkpt>
      <trkpt lat="50.50633" lon="3.05108">
        <ele>52.53</ele>
        <time>2021-08-07T14:23:28Z</time>
      </trkpt>
      <trkpt lat="50.50616" lon="3.05139">
        <ele>53.01</ele>
        <time>2021-08-07T14:23:35Z</time>
      </trkpt>
      <trkpt lat="50.50603" lon="3.05164">
        <ele>53.01</ele>
        <time>2021-08-07T14:23:40Z</time>
      </trkpt>
      <trkpt lat="50.506" lon="3.05168">
        <ele>53.01</ele>
        <time>2021-08-07T14:23:41Z</time>
      </trkpt>
      <trkpt lat="50.50576" lon="3.05215">
        <ele>53.49</ele>
        <time>2021-08-07T14:23:50Z</time>
      </trkpt>
      <trkpt lat="50.50573" lon="3.0522">
        <ele>53.49</ele>
        <time>2021-08-07T14:23:51Z</time>
      </trkpt>
      <trkpt lat="50.50568" lon="3.05231">
        <ele>53.49</ele>
        <time>2021-08-07T14:23:53Z</time>
      </trkpt>
      <trkpt lat="50.50565" lon="3.05236">
        <ele>53.49</ele>
        <time>2021-08-07T14:23:54Z</time>
      </trkpt>
      <trkpt lat="50.50549" lon="3.05267">
        <ele>53.97</ele>
        <time>2021-08-07T14:24:00Z</time>
      </trkpt>
      <trkpt lat="50.50545" lon="3.05271">
        <ele>53.97</ele>
        <time>2021-08-07T14:24:01Z</time>
      </trkpt>
      <trkpt lat="50.50542" lon="3.05275">
        <ele>53.97</ele>
        <time>2021-08-07T14:24:02Z</time>
      </trkpt>
      <trkpt lat="50.50539" lon="3.05278">
        <ele>53.97</ele>
        <time>2021-08-07T14:24:03Z</time>
      </trkpt>
      <trkpt lat="50.50538" lon="3.05282">
        <ele>53.97</ele>
        <time>2021-08-07T14:24:04Z</time>
      </trkpt>
      <trkpt lat="50.50537" lon="3.05286">
        <ele>53.97</ele>
        <time>2021-08-07T14:24:05Z</time>
      </trkpt>
      <trkpt lat="50.50536" lon="3.05289">
        <ele>53.97</ele>
        <time>2021-08-07T14:24:06Z</time>
      </trkpt>
      <trkpt lat="50.50533" lon="3.05293">
        <ele>53.97</ele>
        <time>2021-08-07T14:24:07Z</time>
      </trkpt>
      <trkpt lat="50.50531" lon="3.05297">
        <ele>53.97</ele>
        <time>2021-08-07T14:24:08Z</time>
      </trkpt>
      <trkpt lat="50.50525" lon="3.05306">
        <ele>53.97</ele>
        <time>2021-08-07T14:24:11Z</time>
      </trkpt>
      <trkpt lat="50.50521" lon="3.05306">
        <ele>53.97</ele>
        <time>2021-08-07T14:24:12Z</time>
      </trkpt>
      <trkpt lat="50.50518" lon="3.05305">
        <ele>53.97</ele>
        <time>2021-08-07T14:24:13Z</time>
      </trkpt>
      <trkpt lat="50.50515" lon="3.05302">
        <ele>53.97</ele>
        <time>2021-08-07T14:24:14Z</time>
      </trkpt>
      <trkpt lat="50.50511" lon="3.05299">
        <ele>53.97</ele>
        <time>2021-08-07T14:24:15Z</time>
      </trkpt>
      <trkpt lat="50.50508" lon="3.05296">
        <ele>53.97</ele>
        <time>2021-08-07T14:24:16Z</time>
      </trkpt>
      <trkpt lat="50.50504" lon="3.05294">
        <ele>53.97</ele>
        <time>2021-08-07T14:24:17Z</time>
      </trkpt>
      <trkpt lat="50.50497" lon="3.05293">
        <ele>53.97</ele>
        <time>2021-08-07T14:24:19Z</time>
      </trkpt>
      <trkpt lat="50.50494" lon="3.05295">
        <ele>53.97</ele>
        <time>2021-08-07T14:24:20Z</time>
      </trkpt>
      <trkpt lat="50.50487" lon="3.05301">
        <ele>53.97</ele>
        <time>2021-08-07T14:24:25Z</time>
      </trkpt>
      <trkpt lat="50.50483" lon="3.05313">
        <ele>53.97</ele>
        <time>2021-08-07T14:24:32Z</time>
      </trkpt>
      <trkpt lat="50.50483" lon="3.05316">
        <ele>53.97</ele>
        <time>2021-08-07T14:24:33Z</time>
      </trkpt>
      <trkpt lat="50.5048" lon="3.05326">
        <ele>53.97</ele>
        <time>2021-08-07T14:24:38Z</time>
      </trkpt>
      <trkpt lat="50.50479" lon="3.05328">
        <ele>53.97</ele>
        <time>2021-08-07T14:24:39Z</time>
      </trkpt>
      <trkpt lat="50.50478" lon="3.0533">
        <ele>53.97</ele>
        <time>2021-08-07T14:24:40Z</time>
      </trkpt>
      <trkpt lat="50.50476" lon="3.05331">
        <ele>53.97</ele>
        <time>2021-08-07T14:24:41Z</time>
      </trkpt>
      <trkpt lat="50.50475" lon="3.05333">
        <ele>53.97</ele>
        <time>2021-08-07T14:24:42Z</time>
      </trkpt>
      <trkpt lat="50.50473" lon="3.05334">
        <ele>53.97</ele>
        <time>2021-08-07T14:24:43Z</time>
      </trkpt>
      <trkpt lat="50.50471" lon="3.05336">
        <ele>53.97</ele>
        <time>2021-08-07T14:24:44Z</time>
      </trkpt>
      <trkpt lat="50.5047" lon="3.05338">
        <ele>53.97</ele>
        <time>2021-08-07T14:24:45Z</time>
      </trkpt>
      <trkpt lat="50.50468" lon="3.05338">
        <ele>53.97</ele>
        <time>2021-08-07T14:24:46Z</time>
      </trkpt>
      <trkpt lat="50.50467" lon="3.05337">
        <ele>53.97</ele>
        <time>2021-08-07T14:24:47Z</time>
      </trkpt>
      <trkpt lat="50.50465" lon="3.05335">
        <ele>53.97</ele>
        <time>2021-08-07T14:24:48Z</time>
      </trkpt>
      <trkpt lat="50.50464" lon="3.05333">
        <ele>53.97</ele>
        <time>2021-08-07T14:24:49Z</time>
      </trkpt>
      <trkpt lat="50.50462" lon="3.05331">
        <ele>53.97</ele>
        <time>2021-08-07T14:24:50Z</time>
      </trkpt>
      <trkpt lat="50.5046" lon="3.0533">
        <ele>53.97</ele>
        <time>2021-08-07T14:24:51Z</time>
      </trkpt>
      <trkpt lat="50.50459" lon="3.0533">
        <ele>53.97</ele>
        <time>2021-08-07T14:24:52Z</time>
      </trkpt>
      <trkpt lat="50.50454" lon="3.05327">
        <ele>53.97</ele>
        <time>2021-08-07T14:24:56Z</time>
      </trkpt>
      <trkpt lat="50.5044" lon="3.0533">
        <ele>53.97</ele>
        <time>2021-08-07T14:25:03Z</time>
      </trkpt>
      <trkpt lat="50.50426" lon="3.05332">
        <ele>53.01</ele>
        <time>2021-08-07T14:25:09Z</time>
      </trkpt>
      <trkpt lat="50.50411" lon="3.05333">
        <ele>53.01</ele>
        <time>2021-08-07T14:25:15Z</time>
      </trkpt>
      <trkpt lat="50.50395" lon="3.05334">
        <ele>53.01</ele>
        <time>2021-08-07T14:25:21Z</time>
      </trkpt>
      <trkpt lat="50.5039" lon="3.05335">
        <ele>53.01</ele>
        <time>2021-08-07T14:25:25Z</time>
      </trkpt>
      <trkpt lat="50.50388" lon="3.05336">
        <ele>53.01</ele>
        <time>2021-08-07T14:25:26Z</time>
      </trkpt>
      <trkpt lat="50.50385" lon="3.05343">
        <ele>53.01</ele>
        <time>2021-08-07T14:25:31Z</time>
      </trkpt>
      <trkpt lat="50.50386" lon="3.05357">
        <ele>53.01</ele>
        <time>2021-08-07T14:25:37Z</time>
      </trkpt>
      <trkpt lat="50.50395" lon="3.05378">
        <ele>52.53</ele>
        <time>2021-08-07T14:25:44Z</time>
      </trkpt>
      <trkpt lat="50.50399" lon="3.05387">
        <ele>52.53</ele>
        <time>2021-08-07T14:25:47Z</time>
      </trkpt>
      <trkpt lat="50.50404" lon="3.05398">
        <ele>52.53</ele>
        <time>2021-08-07T14:25:50Z</time>
      </trkpt>
      <trkpt lat="50.50406" lon="3.05401">
        <ele>52.53</ele>
        <time>2021-08-07T14:25:51Z</time>
      </trkpt>
      <trkpt lat="50.50408" lon="3.05405">
        <ele>52.53</ele>
        <time>2021-08-07T14:25:52Z</time>
      </trkpt>
      <trkpt lat="50.5041" lon="3.05408">
        <ele>52.53</ele>
        <time>2021-08-07T14:25:53Z</time>
      </trkpt>
      <trkpt lat="50.50412" lon="3.05411">
        <ele>52.53</ele>
        <time>2021-08-07T14:25:54Z</time>
      </trkpt>
      <trkpt lat="50.50414" lon="3.05414">
        <ele>52.53</ele>
        <time>2021-08-07T14:25:55Z</time>
      </trkpt>
      <trkpt lat="50.50415" lon="3.05417">
        <ele>52.53</ele>
        <time>2021-08-07T14:25:56Z</time>
      </trkpt>
      <trkpt lat="50.50417" lon="3.05421">
        <ele>52.53</ele>
        <time>2021-08-07T14:25:57Z</time>
      </trkpt>
      <trkpt lat="50.50419" lon="3.05424">
        <ele>52.53</ele>
        <time>2021-08-07T14:25:58Z</time>
      </trkpt>
      <trkpt lat="50.50421" lon="3.05427">
        <ele>52.53</ele>
        <time>2021-08-07T14:25:59Z</time>
      </trkpt>
      <trkpt lat="50.50422" lon="3.0543">
        <ele>52.53</ele>
        <time>2021-08-07T14:26:00Z</time>
      </trkpt>
      <trkpt lat="50.50424" lon="3.05433">
        <ele>52.53</ele>
        <time>2021-08-07T14:26:01Z</time>
      </trkpt>
      <trkpt lat="50.50425" lon="3.05437">
        <ele>52.53</ele>
        <time>2021-08-07T14:26:02Z</time>
      </trkpt>
      <trkpt lat="50.50431" lon="3.05451">
        <ele>53.01</ele>
        <time>2021-08-07T14:26:08Z</time>
      </trkpt>
      <trkpt lat="50.50439" lon="3.05464">
        <ele>53.01</ele>
        <time>2021-08-07T14:26:13Z</time>
      </trkpt>
      <trkpt lat="50.50447" lon="3.05479">
        <ele>53.01</ele>
        <time>2021-08-07T14:26:19Z</time>
      </trkpt>
      <trkpt lat="50.50455" lon="3.05494">
        <ele>53.01</ele>
        <time>2021-08-07T14:26:26Z</time>
      </trkpt>
      <trkpt lat="50.50462" lon="3.05506">
        <ele>53.01</ele>
        <time>2021-08-07T14:26:32Z</time>
      </trkpt>
      <trkpt lat="50.50472" lon="3.05525">
        <ele>53.49</ele>
        <time>2021-08-07T14:26:40Z</time>
      </trkpt>
      <trkpt lat="50.50478" lon="3.05536">
        <ele>53.49</ele>
        <time>2021-08-07T14:26:44Z</time>
      </trkpt>
      <trkpt lat="50.50479" lon="3.05538">
        <ele>53.49</ele>
        <time>2021-08-07T14:26:45Z</time>
      </trkpt>
      <trkpt lat="50.50481" lon="3.05541">
        <ele>53.49</ele>
        <time>2021-08-07T14:26:46Z</time>
      </trkpt>
      <trkpt lat="50.50482" lon="3.05544">
        <ele>53.49</ele>
        <time>2021-08-07T14:26:47Z</time>
      </trkpt>
      <trkpt lat="50.50484" lon="3.05548">
        <ele>53.49</ele>
        <time>2021-08-07T14:26:48Z</time>
      </trkpt>
      <trkpt lat="50.50493" lon="3.05566">
        <ele>53.49</ele>
        <time>2021-08-07T14:26:54Z</time>
      </trkpt>
      <trkpt lat="50.50505" lon="3.05584">
        <ele>53.97</ele>
        <time>2021-08-07T14:27:02Z</time>
      </trkpt>
      <trkpt lat="50.50519" lon="3.05608">
        <ele>53.97</ele>
        <time>2021-08-07T14:27:11Z</time>
      </trkpt>
      <trkpt lat="50.50528" lon="3.05629">
        <ele>53.97</ele>
        <time>2021-08-07T14:27:17Z</time>
      </trkpt>
      <trkpt lat="50.50542" lon="3.0565">
        <ele>54.45</ele>
        <time>2021-08-07T14:27:23Z</time>
      </trkpt>
      <trkpt lat="50.50554" lon="3.05671">
        <ele>54.45</ele>
        <time>2021-08-07T14:27:29Z</time>
      </trkpt>
      <trkpt lat="50.50566" lon="3.05696">
        <ele>54.45</ele>
        <time>2021-08-07T14:27:35Z</time>
      </trkpt>
      <trkpt lat="50.50578" lon="3.05721">
        <ele>54.93</ele>
        <time>2021-08-07T14:27:41Z</time>
      </trkpt>
      <trkpt lat="50.50581" lon="3.0573">
        <ele>54.93</ele>
        <time>2021-08-07T14:27:43Z</time>
      </trkpt>
      <trkpt lat="50.50581" lon="3.05733">
        <ele>54.93</ele>
        <time>2021-08-07T14:27:44Z</time>
      </trkpt>
      <trkpt lat="50.5058" lon="3.05735">
        <ele>54.93</ele>
        <time>2021-08-07T14:27:45Z</time>
      </trkpt>
      <trkpt lat="50.50579" lon="3.05738">
        <ele>54.93</ele>
        <time>2021-08-07T14:27:46Z</time>
      </trkpt>
      <trkpt lat="50.50577" lon="3.05741">
        <ele>54.93</ele>
        <time>2021-08-07T14:27:47Z</time>
      </trkpt>
      <trkpt lat="50.50576" lon="3.05744">
        <ele>54.93</ele>
        <time>2021-08-07T14:27:48Z</time>
      </trkpt>
      <trkpt lat="50.50574" lon="3.05747">
        <ele>54.93</ele>
        <time>2021-08-07T14:27:49Z</time>
      </trkpt>
      <trkpt lat="50.50573" lon="3.0575">
        <ele>54.93</ele>
        <time>2021-08-07T14:27:50Z</time>
      </trkpt>
      <trkpt lat="50.5056" lon="3.0577">
        <ele>54.45</ele>
        <time>2021-08-07T14:27:55Z</time>
      </trkpt>
      <trkpt lat="50.50556" lon="3.05775">
        <ele>54.93</ele>
        <time>2021-08-07T14:27:56Z</time>
      </trkpt>
      <trkpt lat="50.50552" lon="3.05781">
        <ele>54.93</ele>
        <time>2021-08-07T14:27:57Z</time>
      </trkpt>
      <trkpt lat="50.50531" lon="3.05813">
        <ele>54.93</ele>
        <time>2021-08-07T14:28:03Z</time>
      </trkpt>
      <trkpt lat="50.50496" lon="3.05865">
        <ele>53.49</ele>
        <time>2021-08-07T14:28:12Z</time>
      </trkpt>
      <trkpt lat="50.50483" lon="3.05883">
        <ele>53.49</ele>
        <time>2021-08-07T14:28:15Z</time>
      </trkpt>
      <trkpt lat="50.50447" lon="3.05935">
        <ele>53.01</ele>
        <time>2021-08-07T14:28:23Z</time>
      </trkpt>
      <trkpt lat="50.50414" lon="3.0598">
        <ele>53.01</ele>
        <time>2021-08-07T14:28:30Z</time>
      </trkpt>
      <trkpt lat="50.50377" lon="3.06033">
        <ele>52.53</ele>
        <time>2021-08-07T14:28:38Z</time>
      </trkpt>
      <trkpt lat="50.50332" lon="3.06093">
        <ele>52.05</ele>
        <time>2021-08-07T14:28:47Z</time>
      </trkpt>
      <trkpt lat="50.50293" lon="3.06148">
        <ele>51.09</ele>
        <time>2021-08-07T14:28:55Z</time>
      </trkpt>
      <trkpt lat="50.50243" lon="3.06216">
        <ele>51.57</ele>
        <time>2021-08-07T14:29:05Z</time>
      </trkpt>
      <trkpt lat="50.50233" lon="3.06229">
        <ele>51.09</ele>
        <time>2021-08-07T14:29:07Z</time>
      </trkpt>
      <trkpt lat="50.50228" lon="3.06235">
        <ele>51.09</ele>
        <time>2021-08-07T14:29:08Z</time>
      </trkpt>
      <trkpt lat="50.50189" lon="3.06291">
        <ele>50.13</ele>
        <time>2021-08-07T14:29:16Z</time>
      </trkpt>
      <trkpt lat="50.5014" lon="3.0636">
        <ele>49.65</ele>
        <time>2021-08-07T14:29:26Z</time>
      </trkpt>
      <trkpt lat="50.50091" lon="3.06429">
        <ele>48.68</ele>
        <time>2021-08-07T14:29:36Z</time>
      </trkpt>
      <trkpt lat="50.50035" lon="3.06507">
        <ele>48.2</ele>
        <time>2021-08-07T14:29:47Z</time>
      </trkpt>
      <trkpt lat="50.49987" lon="3.06574">
        <ele>46.28</ele>
        <time>2021-08-07T14:29:56Z</time>
      </trkpt>
      <trkpt lat="50.49932" lon="3.06649">
        <ele>46.28</ele>
        <time>2021-08-07T14:30:07Z</time>
      </trkpt>
      <trkpt lat="50.49896" lon="3.067">
        <ele>46.28</ele>
        <time>2021-08-07T14:30:15Z</time>
      </trkpt>
      <trkpt lat="50.49866" lon="3.06738">
        <ele>47.72</ele>
        <time>2021-08-07T14:30:22Z</time>
      </trkpt>
      <trkpt lat="50.49862" lon="3.06744">
        <ele>47.72</ele>
        <time>2021-08-07T14:30:23Z</time>
      </trkpt>
      <trkpt lat="50.49828" lon="3.06794">
        <ele>47.72</ele>
        <time>2021-08-07T14:30:32Z</time>
      </trkpt>
      <trkpt lat="50.49809" lon="3.0682">
        <ele>47.72</ele>
        <time>2021-08-07T14:30:37Z</time>
      </trkpt>
      <trkpt lat="50.49776" lon="3.06863">
        <ele>48.2</ele>
        <time>2021-08-07T14:30:45Z</time>
      </trkpt>
      <trkpt lat="50.49739" lon="3.06913">
        <ele>48.2</ele>
        <time>2021-08-07T14:30:54Z</time>
      </trkpt>
      <trkpt lat="50.49706" lon="3.06955">
        <ele>48.2</ele>
        <time>2021-08-07T14:31:02Z</time>
      </trkpt>
      <trkpt lat="50.49675" lon="3.06999">
        <ele>48.2</ele>
        <time>2021-08-07T14:31:10Z</time>
      </trkpt>
      <trkpt lat="50.49649" lon="3.07034">
        <ele>48.2</ele>
        <time>2021-08-07T14:31:17Z</time>
      </trkpt>
      <trkpt lat="50.49646" lon="3.0704">
        <ele>48.2</ele>
        <time>2021-08-07T14:31:18Z</time>
      </trkpt>
      <trkpt lat="50.49643" lon="3.07046">
        <ele>48.2</ele>
        <time>2021-08-07T14:31:19Z</time>
      </trkpt>
      <trkpt lat="50.49638" lon="3.07058">
        <ele>48.2</ele>
        <time>2021-08-07T14:31:21Z</time>
      </trkpt>
      <trkpt lat="50.49634" lon="3.07064">
        <ele>46.76</ele>
        <time>2021-08-07T14:31:22Z</time>
      </trkpt>
      <trkpt lat="50.4963" lon="3.07068">
        <ele>46.76</ele>
        <time>2021-08-07T14:31:23Z</time>
      </trkpt>
      <trkpt lat="50.4959" lon="3.07098">
        <ele>46.28</ele>
        <time>2021-08-07T14:31:32Z</time>
      </trkpt>
      <trkpt lat="50.49552" lon="3.07141">
        <ele>46.28</ele>
        <time>2021-08-07T14:31:41Z</time>
      </trkpt>
      <trkpt lat="50.49516" lon="3.07178">
        <ele>46.28</ele>
        <time>2021-08-07T14:31:49Z</time>
      </trkpt>
      <trkpt lat="50.4951" lon="3.07181">
        <ele>46.28</ele>
        <time>2021-08-07T14:31:50Z</time>
      </trkpt>
      <trkpt lat="50.49453" lon="3.07202">
        <ele>46.28</ele>
        <time>2021-08-07T14:32:01Z</time>
      </trkpt>
      <trkpt lat="50.49422" lon="3.0722">
        <ele>46.28</ele>
        <time>2021-08-07T14:32:07Z</time>
      </trkpt>
      <trkpt lat="50.49403" lon="3.07238">
        <ele>46.28</ele>
        <time>2021-08-07T14:32:11Z</time>
      </trkpt>
      <trkpt lat="50.49362" lon="3.07291">
        <ele>45.32</ele>
        <time>2021-08-07T14:32:20Z</time>
      </trkpt>
      <trkpt lat="50.49355" lon="3.07295">
        <ele>45.32</ele>
        <time>2021-08-07T14:32:21Z</time>
      </trkpt>
      <trkpt lat="50.4935" lon="3.07296">
        <ele>45.32</ele>
        <time>2021-08-07T14:32:22Z</time>
      </trkpt>
      <trkpt lat="50.49344" lon="3.07297">
        <ele>45.32</ele>
        <time>2021-08-07T14:32:23Z</time>
      </trkpt>
      <trkpt lat="50.49338" lon="3.07298">
        <ele>45.32</ele>
        <time>2021-08-07T14:32:24Z</time>
      </trkpt>
      <trkpt lat="50.49333" lon="3.07297">
        <ele>45.32</ele>
        <time>2021-08-07T14:32:25Z</time>
      </trkpt>
      <trkpt lat="50.49327" lon="3.07297">
        <ele>45.32</ele>
        <time>2021-08-07T14:32:26Z</time>
      </trkpt>
      <trkpt lat="50.49295" lon="3.07296">
        <ele>45.32</ele>
        <time>2021-08-07T14:32:32Z</time>
      </trkpt>
      <trkpt lat="50.49291" lon="3.07296">
        <ele>45.32</ele>
        <time>2021-08-07T14:32:33Z</time>
      </trkpt>
      <trkpt lat="50.49287" lon="3.07297">
        <ele>45.32</ele>
        <time>2021-08-07T14:32:34Z</time>
      </trkpt>
      <trkpt lat="50.49283" lon="3.07302">
        <ele>45.32</ele>
        <time>2021-08-07T14:32:35Z</time>
      </trkpt>
      <trkpt lat="50.49281" lon="3.07306">
        <ele>45.32</ele>
        <time>2021-08-07T14:32:36Z</time>
      </trkpt>
      <trkpt lat="50.49279" lon="3.07313">
        <ele>45.32</ele>
        <time>2021-08-07T14:32:37Z</time>
      </trkpt>
      <trkpt lat="50.49277" lon="3.07319">
        <ele>45.32</ele>
        <time>2021-08-07T14:32:38Z</time>
      </trkpt>
      <trkpt lat="50.49276" lon="3.07326">
        <ele>45.32</ele>
        <time>2021-08-07T14:32:39Z</time>
      </trkpt>
      <trkpt lat="50.49275" lon="3.07335">
        <ele>45.32</ele>
        <time>2021-08-07T14:32:40Z</time>
      </trkpt>
      <trkpt lat="50.49275" lon="3.07342">
        <ele>45.32</ele>
        <time>2021-08-07T14:32:41Z</time>
      </trkpt>
      <trkpt lat="50.49275" lon="3.0735">
        <ele>45.32</ele>
        <time>2021-08-07T14:32:42Z</time>
      </trkpt>
      <trkpt lat="50.49268" lon="3.07446">
        <ele>45.32</ele>
        <time>2021-08-07T14:32:54Z</time>
      </trkpt>
      <trkpt lat="50.49266" lon="3.07453">
        <ele>45.32</ele>
        <time>2021-08-07T14:32:55Z</time>
      </trkpt>
      <trkpt lat="50.49263" lon="3.07459">
        <ele>45.32</ele>
        <time>2021-08-07T14:32:56Z</time>
      </trkpt>
      <trkpt lat="50.49259" lon="3.07466">
        <ele>45.32</ele>
        <time>2021-08-07T14:32:57Z</time>
      </trkpt>
      <trkpt lat="50.49255" lon="3.07471">
        <ele>45.32</ele>
        <time>2021-08-07T14:32:58Z</time>
      </trkpt>
      <trkpt lat="50.49251" lon="3.07475">
        <ele>45.32</ele>
        <time>2021-08-07T14:32:59Z</time>
      </trkpt>
      <trkpt lat="50.49211" lon="3.07524">
        <ele>45.32</ele>
        <time>2021-08-07T14:33:09Z</time>
      </trkpt>
      <trkpt lat="50.49172" lon="3.0758">
        <ele>45.32</ele>
        <time>2021-08-07T14:33:19Z</time>
      </trkpt>
      <trkpt lat="50.49132" lon="3.07644">
        <ele>45.32</ele>
        <time>2021-08-07T14:33:30Z</time>
      </trkpt>
      <trkpt lat="50.4911" lon="3.07687">
        <ele>46.76</ele>
        <time>2021-08-07T14:33:37Z</time>
      </trkpt>
      <trkpt lat="50.49084" lon="3.07754">
        <ele>47.72</ele>
        <time>2021-08-07T14:33:47Z</time>
      </trkpt>
      <trkpt lat="50.49069" lon="3.07794">
        <ele>47.72</ele>
        <time>2021-08-07T14:33:53Z</time>
      </trkpt>
      <trkpt lat="50.49068" lon="3.07801">
        <ele>47.72</ele>
        <time>2021-08-07T14:33:54Z</time>
      </trkpt>
      <trkpt lat="50.49065" lon="3.07816">
        <ele>47.72</ele>
        <time>2021-08-07T14:33:56Z</time>
      </trkpt>
      <trkpt lat="50.4906" lon="3.07882">
        <ele>48.2</ele>
        <time>2021-08-07T14:34:05Z</time>
      </trkpt>
      <trkpt lat="50.49053" lon="3.07918">
        <ele>49.16</ele>
        <time>2021-08-07T14:34:10Z</time>
      </trkpt>
      <trkpt lat="50.49052" lon="3.07932">
        <ele>49.16</ele>
        <time>2021-08-07T14:34:12Z</time>
      </trkpt>
      <trkpt lat="50.4905" lon="3.07946">
        <ele>49.16</ele>
        <time>2021-08-07T14:34:14Z</time>
      </trkpt>
      <trkpt lat="50.49049" lon="3.07954">
        <ele>49.16</ele>
        <time>2021-08-07T14:34:15Z</time>
      </trkpt>
      <trkpt lat="50.4905" lon="3.07961">
        <ele>49.16</ele>
        <time>2021-08-07T14:34:16Z</time>
      </trkpt>
      <trkpt lat="50.49051" lon="3.07976">
        <ele>48.68</ele>
        <time>2021-08-07T14:34:18Z</time>
      </trkpt>
      <trkpt lat="50.49053" lon="3.07982">
        <ele>48.68</ele>
        <time>2021-08-07T14:34:19Z</time>
      </trkpt>
      <trkpt lat="50.49072" lon="3.08057">
        <ele>49.65</ele>
        <time>2021-08-07T14:34:30Z</time>
      </trkpt>
      <trkpt lat="50.49079" lon="3.08124">
        <ele>49.65</ele>
        <time>2021-08-07T14:34:39Z</time>
      </trkpt>
      <trkpt lat="50.49079" lon="3.08131">
        <ele>49.65</ele>
        <time>2021-08-07T14:34:40Z</time>
      </trkpt>
      <trkpt lat="50.4908" lon="3.08139">
        <ele>49.65</ele>
        <time>2021-08-07T14:34:41Z</time>
      </trkpt>
      <trkpt lat="50.49082" lon="3.08153">
        <ele>49.65</ele>
        <time>2021-08-07T14:34:43Z</time>
      </trkpt>
      <trkpt lat="50.49084" lon="3.0816">
        <ele>50.61</ele>
        <time>2021-08-07T14:34:44Z</time>
      </trkpt>
      <trkpt lat="50.49086" lon="3.08167">
        <ele>50.61</ele>
        <time>2021-08-07T14:34:45Z</time>
      </trkpt>
      <trkpt lat="50.49087" lon="3.08175">
        <ele>50.61</ele>
        <time>2021-08-07T14:34:46Z</time>
      </trkpt>
      <trkpt lat="50.49088" lon="3.08183">
        <ele>50.61</ele>
        <time>2021-08-07T14:34:47Z</time>
      </trkpt>
      <trkpt lat="50.49089" lon="3.08191">
        <ele>50.61</ele>
        <time>2021-08-07T14:34:48Z</time>
      </trkpt>
      <trkpt lat="50.49093" lon="3.08224">
        <ele>50.61</ele>
        <time>2021-08-07T14:34:52Z</time>
      </trkpt>
      <trkpt lat="50.49094" lon="3.08232">
        <ele>51.09</ele>
        <time>2021-08-07T14:34:53Z</time>
      </trkpt>
      <trkpt lat="50.49094" lon="3.0824">
        <ele>51.09</ele>
        <time>2021-08-07T14:34:54Z</time>
      </trkpt>
      <trkpt lat="50.49091" lon="3.08284">
        <ele>51.09</ele>
        <time>2021-08-07T14:35:00Z</time>
      </trkpt>
      <trkpt lat="50.49089" lon="3.08291">
        <ele>51.09</ele>
        <time>2021-08-07T14:35:01Z</time>
      </trkpt>
      <trkpt lat="50.49086" lon="3.08296">
        <ele>51.09</ele>
        <time>2021-08-07T14:35:02Z</time>
      </trkpt>
      <trkpt lat="50.49083" lon="3.08301">
        <ele>51.09</ele>
        <time>2021-08-07T14:35:03Z</time>
      </trkpt>
      <trkpt lat="50.4908" lon="3.08306">
        <ele>51.57</ele>
        <time>2021-08-07T14:35:04Z</time>
      </trkpt>
      <trkpt lat="50.49051" lon="3.0836">
        <ele>51.57</ele>
        <time>2021-08-07T14:35:14Z</time>
      </trkpt>
      <trkpt lat="50.49052" lon="3.08366">
        <ele>51.57</ele>
        <time>2021-08-07T14:35:15Z</time>
      </trkpt>
      <trkpt lat="50.49054" lon="3.08371">
        <ele>51.57</ele>
        <time>2021-08-07T14:35:16Z</time>
      </trkpt>
      <trkpt lat="50.49056" lon="3.08377">
        <ele>52.05</ele>
        <time>2021-08-07T14:35:17Z</time>
      </trkpt>
      <trkpt lat="50.49058" lon="3.08382">
        <ele>52.05</ele>
        <time>2021-08-07T14:35:18Z</time>
      </trkpt>
      <trkpt lat="50.4906" lon="3.08389">
        <ele>52.05</ele>
        <time>2021-08-07T14:35:19Z</time>
      </trkpt>
      <trkpt lat="50.49062" lon="3.08395">
        <ele>52.05</ele>
        <time>2021-08-07T14:35:20Z</time>
      </trkpt>
      <trkpt lat="50.49063" lon="3.08401">
        <ele>52.05</ele>
        <time>2021-08-07T14:35:21Z</time>
      </trkpt>
      <trkpt lat="50.49071" lon="3.08425">
        <ele>52.53</ele>
        <time>2021-08-07T14:35:25Z</time>
      </trkpt>
      <trkpt lat="50.49074" lon="3.0843">
        <ele>52.53</ele>
        <time>2021-08-07T14:35:26Z</time>
      </trkpt>
      <trkpt lat="50.49077" lon="3.08435">
        <ele>52.53</ele>
        <time>2021-08-07T14:35:27Z</time>
      </trkpt>
      <trkpt lat="50.4908" lon="3.08439">
        <ele>52.53</ele>
        <time>2021-08-07T14:35:28Z</time>
      </trkpt>
      <trkpt lat="50.49083" lon="3.08443">
        <ele>52.53</ele>
        <time>2021-08-07T14:35:29Z</time>
      </trkpt>
      <trkpt lat="50.49104" lon="3.08469">
        <ele>53.49</ele>
        <time>2021-08-07T14:35:37Z</time>
      </trkpt>
      <trkpt lat="50.49129" lon="3.08497">
        <ele>53.97</ele>
        <time>2021-08-07T14:35:45Z</time>
      </trkpt>
      <trkpt lat="50.49151" lon="3.08522">
        <ele>54.45</ele>
        <time>2021-08-07T14:35:52Z</time>
      </trkpt>
      <trkpt lat="50.49184" lon="3.08557">
        <ele>55.89</ele>
        <time>2021-08-07T14:36:02Z</time>
      </trkpt>
      <trkpt lat="50.49194" lon="3.08568">
        <ele>56.37</ele>
        <time>2021-08-07T14:36:05Z</time>
      </trkpt>
      <trkpt lat="50.49209" lon="3.0859">
        <ele>56.86</ele>
        <time>2021-08-07T14:36:10Z</time>
      </trkpt>
      <trkpt lat="50.49214" lon="3.08601">
        <ele>57.34</ele>
        <time>2021-08-07T14:36:12Z</time>
      </trkpt>
      <trkpt lat="50.4922" lon="3.08618">
        <ele>57.82</ele>
        <time>2021-08-07T14:36:15Z</time>
      </trkpt>
      <trkpt lat="50.49222" lon="3.08624">
        <ele>57.82</ele>
        <time>2021-08-07T14:36:16Z</time>
      </trkpt>
      <trkpt lat="50.49225" lon="3.08637">
        <ele>58.3</ele>
        <time>2021-08-07T14:36:18Z</time>
      </trkpt>
      <trkpt lat="50.49227" lon="3.08642">
        <ele>58.3</ele>
        <time>2021-08-07T14:36:19Z</time>
      </trkpt>
      <trkpt lat="50.49239" lon="3.08701">
        <ele>60.22</ele>
        <time>2021-08-07T14:36:29Z</time>
      </trkpt>
      <trkpt lat="50.4924" lon="3.08714">
        <ele>60.22</ele>
        <time>2021-08-07T14:36:31Z</time>
      </trkpt>
      <trkpt lat="50.49234" lon="3.08789">
        <ele>62.14</ele>
        <time>2021-08-07T14:36:43Z</time>
      </trkpt>
      <trkpt lat="50.49227" lon="3.08857">
        <ele>64.07</ele>
        <time>2021-08-07T14:36:54Z</time>
      </trkpt>
      <trkpt lat="50.49227" lon="3.08863">
        <ele>64.07</ele>
        <time>2021-08-07T14:36:55Z</time>
      </trkpt>
      <trkpt lat="50.49226" lon="3.0887">
        <ele>64.07</ele>
        <time>2021-08-07T14:36:56Z</time>
      </trkpt>
      <trkpt lat="50.49224" lon="3.08889">
        <ele>64.55</ele>
        <time>2021-08-07T14:36:59Z</time>
      </trkpt>
      <trkpt lat="50.4921" lon="3.08946">
        <ele>64.55</ele>
        <time>2021-08-07T14:37:08Z</time>
      </trkpt>
      <trkpt lat="50.49189" lon="3.09015">
        <ele>63.1</ele>
        <time>2021-08-07T14:37:17Z</time>
      </trkpt>
      <trkpt lat="50.49182" lon="3.0904">
        <ele>62.62</ele>
        <time>2021-08-07T14:37:20Z</time>
      </trkpt>
      <trkpt lat="50.49182" lon="3.09049">
        <ele>62.62</ele>
        <time>2021-08-07T14:37:21Z</time>
      </trkpt>
      <trkpt lat="50.49183" lon="3.09057">
        <ele>62.62</ele>
        <time>2021-08-07T14:37:22Z</time>
      </trkpt>
      <trkpt lat="50.49186" lon="3.09065">
        <ele>62.62</ele>
        <time>2021-08-07T14:37:23Z</time>
      </trkpt>
      <trkpt lat="50.49191" lon="3.09072">
        <ele>62.62</ele>
        <time>2021-08-07T14:37:24Z</time>
      </trkpt>
      <trkpt lat="50.49196" lon="3.09076">
        <ele>62.62</ele>
        <time>2021-08-07T14:37:25Z</time>
      </trkpt>
      <trkpt lat="50.49202" lon="3.09081">
        <ele>62.62</ele>
        <time>2021-08-07T14:37:26Z</time>
      </trkpt>
      <trkpt lat="50.4926" lon="3.09127">
        <ele>61.18</ele>
        <time>2021-08-07T14:37:36Z</time>
      </trkpt>
      <trkpt lat="50.49266" lon="3.09133">
        <ele>61.18</ele>
        <time>2021-08-07T14:37:37Z</time>
      </trkpt>
      <trkpt lat="50.49271" lon="3.09141">
        <ele>60.7</ele>
        <time>2021-08-07T14:37:38Z</time>
      </trkpt>
      <trkpt lat="50.49274" lon="3.09151">
        <ele>60.7</ele>
        <time>2021-08-07T14:37:39Z</time>
      </trkpt>
      <trkpt lat="50.49276" lon="3.09161">
        <ele>60.22</ele>
        <time>2021-08-07T14:37:40Z</time>
      </trkpt>
      <trkpt lat="50.49277" lon="3.09172">
        <ele>59.74</ele>
        <time>2021-08-07T14:37:41Z</time>
      </trkpt>
      <trkpt lat="50.49278" lon="3.09183">
        <ele>59.74</ele>
        <time>2021-08-07T14:37:42Z</time>
      </trkpt>
      <trkpt lat="50.49292" lon="3.09269">
        <ele>59.26</ele>
        <time>2021-08-07T14:37:50Z</time>
      </trkpt>
      <trkpt lat="50.49315" lon="3.09372">
        <ele>58.3</ele>
        <time>2021-08-07T14:38:00Z</time>
      </trkpt>
      <trkpt lat="50.49334" lon="3.09456">
        <ele>56.86</ele>
        <time>2021-08-07T14:38:09Z</time>
      </trkpt>
      <trkpt lat="50.49334" lon="3.09464">
        <ele>56.86</ele>
        <time>2021-08-07T14:38:10Z</time>
      </trkpt>
      <trkpt lat="50.49332" lon="3.0947">
        <ele>56.86</ele>
        <time>2021-08-07T14:38:11Z</time>
      </trkpt>
      <trkpt lat="50.49328" lon="3.09474">
        <ele>56.86</ele>
        <time>2021-08-07T14:38:12Z</time>
      </trkpt>
      <trkpt lat="50.49324" lon="3.09477">
        <ele>56.86</ele>
        <time>2021-08-07T14:38:13Z</time>
      </trkpt>
      <trkpt lat="50.49293" lon="3.09508">
        <ele>56.86</ele>
        <time>2021-08-07T14:38:21Z</time>
      </trkpt>
      <trkpt lat="50.49286" lon="3.09518">
        <ele>57.82</ele>
        <time>2021-08-07T14:38:23Z</time>
      </trkpt>
      <trkpt lat="50.49284" lon="3.09524">
        <ele>57.82</ele>
        <time>2021-08-07T14:38:24Z</time>
      </trkpt>
      <trkpt lat="50.49282" lon="3.09531">
        <ele>57.82</ele>
        <time>2021-08-07T14:38:25Z</time>
      </trkpt>
      <trkpt lat="50.49281" lon="3.09538">
        <ele>57.82</ele>
        <time>2021-08-07T14:38:26Z</time>
      </trkpt>
      <trkpt lat="50.49281" lon="3.09545">
        <ele>57.82</ele>
        <time>2021-08-07T14:38:27Z</time>
      </trkpt>
      <trkpt lat="50.49282" lon="3.09553">
        <ele>57.82</ele>
        <time>2021-08-07T14:38:28Z</time>
      </trkpt>
      <trkpt lat="50.49283" lon="3.09561">
        <ele>57.82</ele>
        <time>2021-08-07T14:38:29Z</time>
      </trkpt>
      <trkpt lat="50.49284" lon="3.09569">
        <ele>57.82</ele>
        <time>2021-08-07T14:38:30Z</time>
      </trkpt>
      <trkpt lat="50.4929" lon="3.0962">
        <ele>57.82</ele>
        <time>2021-08-07T14:38:36Z</time>
      </trkpt>
      <trkpt lat="50.49288" lon="3.09627">
        <ele>57.82</ele>
        <time>2021-08-07T14:38:37Z</time>
      </trkpt>
      <trkpt lat="50.49281" lon="3.09639">
        <ele>57.82</ele>
        <time>2021-08-07T14:38:39Z</time>
      </trkpt>
      <trkpt lat="50.49276" lon="3.09643">
        <ele>57.82</ele>
        <time>2021-08-07T14:38:40Z</time>
      </trkpt>
      <trkpt lat="50.49257" lon="3.09657">
        <ele>58.3</ele>
        <time>2021-08-07T14:38:44Z</time>
      </trkpt>
      <trkpt lat="50.49253" lon="3.09662">
        <ele>58.3</ele>
        <time>2021-08-07T14:38:45Z</time>
      </trkpt>
      <trkpt lat="50.49251" lon="3.09669">
        <ele>58.3</ele>
        <time>2021-08-07T14:38:46Z</time>
      </trkpt>
      <trkpt lat="50.4925" lon="3.09677">
        <ele>58.3</ele>
        <time>2021-08-07T14:38:47Z</time>
      </trkpt>
      <trkpt lat="50.4925" lon="3.09685">
        <ele>58.3</ele>
        <time>2021-08-07T14:38:48Z</time>
      </trkpt>
      <trkpt lat="50.49251" lon="3.09694">
        <ele>58.3</ele>
        <time>2021-08-07T14:38:49Z</time>
      </trkpt>
      <trkpt lat="50.49253" lon="3.09702">
        <ele>58.78</ele>
        <time>2021-08-07T14:38:50Z</time>
      </trkpt>
      <trkpt lat="50.49255" lon="3.09711">
        <ele>58.78</ele>
        <time>2021-08-07T14:38:51Z</time>
      </trkpt>
      <trkpt lat="50.49274" lon="3.09791">
        <ele>57.34</ele>
        <time>2021-08-07T14:39:00Z</time>
      </trkpt>
      <trkpt lat="50.49276" lon="3.098">
        <ele>57.34</ele>
        <time>2021-08-07T14:39:01Z</time>
      </trkpt>
      <trkpt lat="50.4928" lon="3.09819">
        <ele>57.34</ele>
        <time>2021-08-07T14:39:03Z</time>
      </trkpt>
      <trkpt lat="50.49283" lon="3.09828">
        <ele>56.86</ele>
        <time>2021-08-07T14:39:04Z</time>
      </trkpt>
      <trkpt lat="50.49287" lon="3.09835">
        <ele>56.86</ele>
        <time>2021-08-07T14:39:05Z</time>
      </trkpt>
      <trkpt lat="50.49319" lon="3.09904">
        <ele>56.37</ele>
        <time>2021-08-07T14:39:14Z</time>
      </trkpt>
      <trkpt lat="50.49321" lon="3.09912">
        <ele>56.37</ele>
        <time>2021-08-07T14:39:15Z</time>
      </trkpt>
      <trkpt lat="50.49324" lon="3.09928">
        <ele>57.34</ele>
        <time>2021-08-07T14:39:17Z</time>
      </trkpt>
      <trkpt lat="50.49325" lon="3.09935">
        <ele>57.34</ele>
        <time>2021-08-07T14:39:18Z</time>
      </trkpt>
      <trkpt lat="50.49325" lon="3.09944">
        <ele>57.34</ele>
        <time>2021-08-07T14:39:19Z</time>
      </trkpt>
      <trkpt lat="50.49324" lon="3.09951">
        <ele>57.34</ele>
        <time>2021-08-07T14:39:20Z</time>
      </trkpt>
      <trkpt lat="50.4932" lon="3.09957">
        <ele>57.34</ele>
        <time>2021-08-07T14:39:21Z</time>
      </trkpt>
      <trkpt lat="50.49316" lon="3.09959">
        <ele>57.82</ele>
        <time>2021-08-07T14:39:22Z</time>
      </trkpt>
      <trkpt lat="50.49311" lon="3.0996">
        <ele>57.82</ele>
        <time>2021-08-07T14:39:23Z</time>
      </trkpt>
      <trkpt lat="50.49307" lon="3.09962">
        <ele>57.82</ele>
        <time>2021-08-07T14:39:24Z</time>
      </trkpt>
      <trkpt lat="50.49267" lon="3.0998">
        <ele>59.74</ele>
        <time>2021-08-07T14:39:34Z</time>
      </trkpt>
      <trkpt lat="50.49255" lon="3.09986">
        <ele>59.74</ele>
        <time>2021-08-07T14:39:37Z</time>
      </trkpt>
      <trkpt lat="50.49251" lon="3.09989">
        <ele>59.74</ele>
        <time>2021-08-07T14:39:38Z</time>
      </trkpt>
      <trkpt lat="50.49248" lon="3.09993">
        <ele>60.22</ele>
        <time>2021-08-07T14:39:39Z</time>
      </trkpt>
      <trkpt lat="50.49245" lon="3.09997">
        <ele>60.22</ele>
        <time>2021-08-07T14:39:40Z</time>
      </trkpt>
      <trkpt lat="50.49242" lon="3.1">
        <ele>60.22</ele>
        <time>2021-08-07T14:39:41Z</time>
      </trkpt>
      <trkpt lat="50.49239" lon="3.10001">
        <ele>60.7</ele>
        <time>2021-08-07T14:39:42Z</time>
      </trkpt>
      <trkpt lat="50.49236" lon="3.1">
        <ele>60.7</ele>
        <time>2021-08-07T14:39:43Z</time>
      </trkpt>
      <trkpt lat="50.49233" lon="3.09999">
        <ele>60.7</ele>
        <time>2021-08-07T14:39:44Z</time>
      </trkpt>
      <trkpt lat="50.49206" lon="3.09989">
        <ele>62.14</ele>
        <time>2021-08-07T14:39:53Z</time>
      </trkpt>
      <trkpt lat="50.49185" lon="3.09983">
        <ele>62.62</ele>
        <time>2021-08-07T14:40:00Z</time>
      </trkpt>
      <trkpt lat="50.49165" lon="3.09978">
        <ele>64.55</ele>
        <time>2021-08-07T14:40:08Z</time>
      </trkpt>
      <trkpt lat="50.49144" lon="3.09985">
        <ele>65.99</ele>
        <time>2021-08-07T14:40:16Z</time>
      </trkpt>
      <trkpt lat="50.49126" lon="3.09999">
        <ele>66.95</ele>
        <time>2021-08-07T14:40:24Z</time>
      </trkpt>
      <trkpt lat="50.49106" lon="3.10017">
        <ele>68.87</ele>
        <time>2021-08-07T14:40:35Z</time>
      </trkpt>
      <trkpt lat="50.49089" lon="3.10021">
        <ele>70.31</ele>
        <time>2021-08-07T14:40:44Z</time>
      </trkpt>
      <trkpt lat="50.49074" lon="3.10023">
        <ele>71.76</ele>
        <time>2021-08-07T14:40:54Z</time>
      </trkpt>
      <trkpt lat="50.49065" lon="3.10023">
        <ele>72.72</ele>
        <time>2021-08-07T14:41:01Z</time>
      </trkpt>
      <trkpt lat="50.49052" lon="3.10025">
        <ele>74.16</ele>
        <time>2021-08-07T14:41:10Z</time>
      </trkpt>
      <trkpt lat="50.49041" lon="3.10025">
        <ele>76.08</ele>
        <time>2021-08-07T14:41:18Z</time>
      </trkpt>
      <trkpt lat="50.4903" lon="3.10025">
        <ele>77.52</ele>
        <time>2021-08-07T14:41:26Z</time>
      </trkpt>
      <trkpt lat="50.49028" lon="3.10025">
        <ele>77.52</ele>
        <time>2021-08-07T14:41:27Z</time>
      </trkpt>
      <trkpt lat="50.49027" lon="3.10025">
        <ele>77.52</ele>
        <time>2021-08-07T14:41:28Z</time>
      </trkpt>
      <trkpt lat="50.49026" lon="3.10026">
        <ele>78</ele>
        <time>2021-08-07T14:41:29Z</time>
      </trkpt>
      <trkpt lat="50.49024" lon="3.10026">
        <ele>78</ele>
        <time>2021-08-07T14:41:30Z</time>
      </trkpt>
      <trkpt lat="50.49023" lon="3.10026">
        <ele>78.48</ele>
        <time>2021-08-07T14:41:31Z</time>
      </trkpt>
      <trkpt lat="50.49014" lon="3.10026">
        <ele>79.45</ele>
        <time>2021-08-07T14:41:38Z</time>
      </trkpt>
      <trkpt lat="50.49003" lon="3.10025">
        <ele>80.89</ele>
        <time>2021-08-07T14:41:46Z</time>
      </trkpt>
      <trkpt lat="50.48995" lon="3.10026">
        <ele>82.81</ele>
        <time>2021-08-07T14:41:53Z</time>
      </trkpt>
      <trkpt lat="50.48992" lon="3.10027">
        <ele>83.29</ele>
        <time>2021-08-07T14:42:00Z</time>
      </trkpt>
      <trkpt lat="50.48985" lon="3.10028">
        <ele>85.69</ele>
        <time>2021-08-07T14:42:08Z</time>
      </trkpt>
      <trkpt lat="50.48977" lon="3.10029">
        <ele>86.66</ele>
        <time>2021-08-07T14:42:18Z</time>
      </trkpt>
      <trkpt lat="50.4897" lon="3.10027">
        <ele>88.1</ele>
        <time>2021-08-07T14:42:26Z</time>
      </trkpt>
      <trkpt lat="50.48962" lon="3.10025">
        <ele>89.06</ele>
        <time>2021-08-07T14:42:34Z</time>
      </trkpt>
      <trkpt lat="50.48961" lon="3.10026">
        <ele>89.06</ele>
        <time>2021-08-07T14:42:35Z</time>
      </trkpt>
      <trkpt lat="50.4896" lon="3.10027">
        <ele>89.06</ele>
        <time>2021-08-07T14:42:36Z</time>
      </trkpt>
      <trkpt lat="50.48959" lon="3.10028">
        <ele>89.54</ele>
        <time>2021-08-07T14:42:37Z</time>
      </trkpt>
      <trkpt lat="50.48958" lon="3.1003">
        <ele>89.54</ele>
        <time>2021-08-07T14:42:38Z</time>
      </trkpt>
      <trkpt lat="50.48958" lon="3.10031">
        <ele>89.54</ele>
        <time>2021-08-07T14:42:39Z</time>
      </trkpt>
      <trkpt lat="50.48954" lon="3.10034">
        <ele>90.02</ele>
        <time>2021-08-07T14:42:45Z</time>
      </trkpt>
      <trkpt lat="50.48947" lon="3.10042">
        <ele>90.02</ele>
        <time>2021-08-07T14:42:52Z</time>
      </trkpt>
      <trkpt lat="50.48946" lon="3.10046">
        <ele>88.58</ele>
        <time>2021-08-07T14:42:55Z</time>
      </trkpt>
      <trkpt lat="50.48946" lon="3.1005">
        <ele>88.1</ele>
        <time>2021-08-07T14:42:58Z</time>
      </trkpt>
      <trkpt lat="50.48947" lon="3.10053">
        <ele>88.1</ele>
        <time>2021-08-07T14:42:59Z</time>
      </trkpt>
      <trkpt lat="50.48948" lon="3.10057">
        <ele>87.14</ele>
        <time>2021-08-07T14:43:00Z</time>
      </trkpt>
      <trkpt lat="50.48949" lon="3.10061">
        <ele>86.66</ele>
        <time>2021-08-07T14:43:01Z</time>
      </trkpt>
      <trkpt lat="50.48951" lon="3.10066">
        <ele>86.18</ele>
        <time>2021-08-07T14:43:02Z</time>
      </trkpt>
      <trkpt lat="50.48955" lon="3.10086">
        <ele>82.33</ele>
        <time>2021-08-07T14:43:06Z</time>
      </trkpt>
      <trkpt lat="50.48956" lon="3.10114">
        <ele>80.41</ele>
        <time>2021-08-07T14:43:11Z</time>
      </trkpt>
      <trkpt lat="50.48967" lon="3.10163">
        <ele>78</ele>
        <time>2021-08-07T14:43:17Z</time>
      </trkpt>
      <trkpt lat="50.48976" lon="3.10203">
        <ele>77.52</ele>
        <time>2021-08-07T14:43:21Z</time>
      </trkpt>
      <trkpt lat="50.48979" lon="3.10211">
        <ele>76.56</ele>
        <time>2021-08-07T14:43:22Z</time>
      </trkpt>
      <trkpt lat="50.48981" lon="3.10221">
        <ele>76.56</ele>
        <time>2021-08-07T14:43:23Z</time>
      </trkpt>
      <trkpt lat="50.48984" lon="3.10236">
        <ele>75.6</ele>
        <time>2021-08-07T14:43:25Z</time>
      </trkpt>
      <trkpt lat="50.48986" lon="3.10244">
        <ele>75.6</ele>
        <time>2021-08-07T14:43:26Z</time>
      </trkpt>
      <trkpt lat="50.48987" lon="3.10251">
        <ele>75.6</ele>
        <time>2021-08-07T14:43:27Z</time>
      </trkpt>
      <trkpt lat="50.48987" lon="3.10257">
        <ele>74.64</ele>
        <time>2021-08-07T14:43:28Z</time>
      </trkpt>
      <trkpt lat="50.48987" lon="3.10263">
        <ele>75.12</ele>
        <time>2021-08-07T14:43:29Z</time>
      </trkpt>
      <trkpt lat="50.48985" lon="3.10266">
        <ele>74.64</ele>
        <time>2021-08-07T14:43:30Z</time>
      </trkpt>
      <trkpt lat="50.48984" lon="3.10267">
        <ele>74.64</ele>
        <time>2021-08-07T14:43:34Z</time>
      </trkpt>
      <trkpt lat="50.48981" lon="3.1027">
        <ele>74.64</ele>
        <time>2021-08-07T14:43:38Z</time>
      </trkpt>
      <trkpt lat="50.48979" lon="3.10272">
        <ele>74.64</ele>
        <time>2021-08-07T14:43:39Z</time>
      </trkpt>
      <trkpt lat="50.48977" lon="3.10273">
        <ele>74.64</ele>
        <time>2021-08-07T14:43:40Z</time>
      </trkpt>
      <trkpt lat="50.48975" lon="3.10274">
        <ele>74.64</ele>
        <time>2021-08-07T14:43:41Z</time>
      </trkpt>
      <trkpt lat="50.48972" lon="3.10275">
        <ele>74.64</ele>
        <time>2021-08-07T14:43:42Z</time>
      </trkpt>
      <trkpt lat="50.48969" lon="3.10276">
        <ele>74.64</ele>
        <time>2021-08-07T14:43:43Z</time>
      </trkpt>
      <trkpt lat="50.48947" lon="3.10283">
        <ele>74.64</ele>
        <time>2021-08-07T14:43:49Z</time>
      </trkpt>
      <trkpt lat="50.48906" lon="3.10295">
        <ele>73.2</ele>
        <time>2021-08-07T14:43:57Z</time>
      </trkpt>
      <trkpt lat="50.48856" lon="3.10311">
        <ele>69.35</ele>
        <time>2021-08-07T14:44:05Z</time>
      </trkpt>
      <trkpt lat="50.48799" lon="3.10328">
        <ele>66.47</ele>
        <time>2021-08-07T14:44:13Z</time>
      </trkpt>
      <trkpt lat="50.4874" lon="3.10346">
        <ele>66.47</ele>
        <time>2021-08-07T14:44:22Z</time>
      </trkpt>
      <trkpt lat="50.48712" lon="3.10356">
        <ele>65.99</ele>
        <time>2021-08-07T14:44:28Z</time>
      </trkpt>
      <trkpt lat="50.48709" lon="3.10361">
        <ele>67.43</ele>
        <time>2021-08-07T14:44:29Z</time>
      </trkpt>
      <trkpt lat="50.48708" lon="3.10367">
        <ele>67.43</ele>
        <time>2021-08-07T14:44:30Z</time>
      </trkpt>
      <trkpt lat="50.48708" lon="3.10373">
        <ele>67.43</ele>
        <time>2021-08-07T14:44:31Z</time>
      </trkpt>
      <trkpt lat="50.48709" lon="3.10378">
        <ele>67.43</ele>
        <time>2021-08-07T14:44:32Z</time>
      </trkpt>
      <trkpt lat="50.4871" lon="3.10385">
        <ele>67.43</ele>
        <time>2021-08-07T14:44:33Z</time>
      </trkpt>
      <trkpt lat="50.48712" lon="3.10391">
        <ele>67.43</ele>
        <time>2021-08-07T14:44:34Z</time>
      </trkpt>
      <trkpt lat="50.48714" lon="3.10397">
        <ele>67.43</ele>
        <time>2021-08-07T14:44:35Z</time>
      </trkpt>
      <trkpt lat="50.4873" lon="3.10444">
        <ele>65.99</ele>
        <time>2021-08-07T14:44:41Z</time>
      </trkpt>
      <trkpt lat="50.48758" lon="3.10529">
        <ele>64.07</ele>
        <time>2021-08-07T14:44:50Z</time>
      </trkpt>
      <trkpt lat="50.48796" lon="3.10642">
        <ele>62.14</ele>
        <time>2021-08-07T14:45:01Z</time>
      </trkpt>
      <trkpt lat="50.48843" lon="3.10785">
        <ele>60.22</ele>
        <time>2021-08-07T14:45:14Z</time>
      </trkpt>
      <trkpt lat="50.4888" lon="3.10883">
        <ele>59.74</ele>
        <time>2021-08-07T14:45:24Z</time>
      </trkpt>
      <trkpt lat="50.48916" lon="3.10961">
        <ele>59.74</ele>
        <time>2021-08-07T14:45:34Z</time>
      </trkpt>
      <trkpt lat="50.48942" lon="3.11015">
        <ele>59.26</ele>
        <time>2021-08-07T14:45:42Z</time>
      </trkpt>
      <trkpt lat="50.48971" lon="3.1108">
        <ele>58.3</ele>
        <time>2021-08-07T14:45:51Z</time>
      </trkpt>
      <trkpt lat="50.49008" lon="3.11156">
        <ele>57.82</ele>
        <time>2021-08-07T14:46:01Z</time>
      </trkpt>
      <trkpt lat="50.4905" lon="3.1125">
        <ele>56.37</ele>
        <time>2021-08-07T14:46:13Z</time>
      </trkpt>
      <trkpt lat="50.49085" lon="3.11328">
        <ele>55.89</ele>
        <time>2021-08-07T14:46:23Z</time>
      </trkpt>
      <trkpt lat="50.49127" lon="3.11421">
        <ele>54.93</ele>
        <time>2021-08-07T14:46:35Z</time>
      </trkpt>
      <trkpt lat="50.49162" lon="3.11497">
        <ele>53.97</ele>
        <time>2021-08-07T14:46:45Z</time>
      </trkpt>
      <trkpt lat="50.49201" lon="3.11583">
        <ele>53.01</ele>
        <time>2021-08-07T14:46:57Z</time>
      </trkpt>
      <trkpt lat="50.49233" lon="3.11668">
        <ele>52.53</ele>
        <time>2021-08-07T14:47:08Z</time>
      </trkpt>
      <trkpt lat="50.49241" lon="3.1169">
        <ele>52.05</ele>
        <time>2021-08-07T14:47:11Z</time>
      </trkpt>
      <trkpt lat="50.49241" lon="3.11697">
        <ele>52.05</ele>
        <time>2021-08-07T14:47:12Z</time>
      </trkpt>
      <trkpt lat="50.49239" lon="3.11704">
        <ele>52.05</ele>
        <time>2021-08-07T14:47:13Z</time>
      </trkpt>
      <trkpt lat="50.49236" lon="3.11708">
        <ele>52.05</ele>
        <time>2021-08-07T14:47:14Z</time>
      </trkpt>
      <trkpt lat="50.49233" lon="3.1171">
        <ele>52.05</ele>
        <time>2021-08-07T14:47:15Z</time>
      </trkpt>
      <trkpt lat="50.49231" lon="3.1171">
        <ele>52.05</ele>
        <time>2021-08-07T14:47:16Z</time>
      </trkpt>
      <trkpt lat="50.49228" lon="3.11711">
        <ele>52.05</ele>
        <time>2021-08-07T14:47:17Z</time>
      </trkpt>
      <trkpt lat="50.49226" lon="3.11712">
        <ele>52.05</ele>
        <time>2021-08-07T14:47:18Z</time>
      </trkpt>
      <trkpt lat="50.49211" lon="3.1172">
        <ele>52.05</ele>
        <time>2021-08-07T14:47:25Z</time>
      </trkpt>
      <trkpt lat="50.49193" lon="3.11731">
        <ele>52.05</ele>
        <time>2021-08-07T14:47:32Z</time>
      </trkpt>
      <trkpt lat="50.49162" lon="3.11751">
        <ele>53.97</ele>
        <time>2021-08-07T14:47:41Z</time>
      </trkpt>
      <trkpt lat="50.49123" lon="3.11773">
        <ele>54.45</ele>
        <time>2021-08-07T14:47:51Z</time>
      </trkpt>
      <trkpt lat="50.49119" lon="3.11775">
        <ele>54.45</ele>
        <time>2021-08-07T14:47:52Z</time>
      </trkpt>
      <trkpt lat="50.49085" lon="3.11788">
        <ele>54.93</ele>
        <time>2021-08-07T14:48:00Z</time>
      </trkpt>
      <trkpt lat="50.49082" lon="3.1179">
        <ele>54.93</ele>
        <time>2021-08-07T14:48:01Z</time>
      </trkpt>
      <trkpt lat="50.49054" lon="3.11815">
        <ele>54.93</ele>
        <time>2021-08-07T14:48:09Z</time>
      </trkpt>
      <trkpt lat="50.49026" lon="3.11857">
        <ele>54.93</ele>
        <time>2021-08-07T14:48:18Z</time>
      </trkpt>
      <trkpt lat="50.48995" lon="3.11911">
        <ele>53.01</ele>
        <time>2021-08-07T14:48:27Z</time>
      </trkpt>
      <trkpt lat="50.48969" lon="3.11948">
        <ele>52.53</ele>
        <time>2021-08-07T14:48:33Z</time>
      </trkpt>
      <trkpt lat="50.48952" lon="3.1197">
        <ele>52.05</ele>
        <time>2021-08-07T14:48:37Z</time>
      </trkpt>
      <trkpt lat="50.48946" lon="3.11977">
        <ele>52.05</ele>
        <time>2021-08-07T14:48:38Z</time>
      </trkpt>
      <trkpt lat="50.48929" lon="3.11999">
        <ele>52.05</ele>
        <time>2021-08-07T14:48:42Z</time>
      </trkpt>
      <trkpt lat="50.48893" lon="3.12048">
        <ele>50.61</ele>
        <time>2021-08-07T14:48:52Z</time>
      </trkpt>
      <trkpt lat="50.48863" lon="3.1209">
        <ele>51.57</ele>
        <time>2021-08-07T14:49:02Z</time>
      </trkpt>
      <trkpt lat="50.48852" lon="3.121">
        <ele>51.57</ele>
        <time>2021-08-07T14:49:05Z</time>
      </trkpt>
      <trkpt lat="50.48841" lon="3.12107">
        <ele>51.57</ele>
        <time>2021-08-07T14:49:08Z</time>
      </trkpt>
      <trkpt lat="50.48795" lon="3.12116">
        <ele>52.53</ele>
        <time>2021-08-07T14:49:19Z</time>
      </trkpt>
      <trkpt lat="50.4875" lon="3.12111">
        <ele>52.05</ele>
        <time>2021-08-07T14:49:30Z</time>
      </trkpt>
      <trkpt lat="50.48714" lon="3.12107">
        <ele>52.05</ele>
        <time>2021-08-07T14:49:39Z</time>
      </trkpt>
      <trkpt lat="50.48671" lon="3.12113">
        <ele>53.49</ele>
        <time>2021-08-07T14:49:50Z</time>
      </trkpt>
      <trkpt lat="50.48635" lon="3.1212">
        <ele>53.97</ele>
        <time>2021-08-07T14:49:59Z</time>
      </trkpt>
      <trkpt lat="50.48615" lon="3.12128">
        <ele>53.97</ele>
        <time>2021-08-07T14:50:05Z</time>
      </trkpt>
      <trkpt lat="50.48613" lon="3.12134">
        <ele>53.97</ele>
        <time>2021-08-07T14:50:06Z</time>
      </trkpt>
      <trkpt lat="50.48614" lon="3.12139">
        <ele>54.45</ele>
        <time>2021-08-07T14:50:07Z</time>
      </trkpt>
      <trkpt lat="50.48616" lon="3.12144">
        <ele>54.45</ele>
        <time>2021-08-07T14:50:08Z</time>
      </trkpt>
      <trkpt lat="50.48618" lon="3.12147">
        <ele>54.45</ele>
        <time>2021-08-07T14:50:09Z</time>
      </trkpt>
      <trkpt lat="50.48621" lon="3.12151">
        <ele>54.45</ele>
        <time>2021-08-07T14:50:10Z</time>
      </trkpt>
      <trkpt lat="50.48654" lon="3.12201">
        <ele>54.93</ele>
        <time>2021-08-07T14:50:20Z</time>
      </trkpt>
      <trkpt lat="50.48684" lon="3.12246">
        <ele>54.93</ele>
        <time>2021-08-07T14:50:29Z</time>
      </trkpt>
      <trkpt lat="50.48693" lon="3.12258">
        <ele>54.45</ele>
        <time>2021-08-07T14:50:32Z</time>
      </trkpt>
      <trkpt lat="50.48726" lon="3.12308">
        <ele>54.93</ele>
        <time>2021-08-07T14:50:42Z</time>
      </trkpt>
      <trkpt lat="50.4876" lon="3.12358">
        <ele>55.41</ele>
        <time>2021-08-07T14:50:52Z</time>
      </trkpt>
      <trkpt lat="50.48801" lon="3.12416">
        <ele>55.89</ele>
        <time>2021-08-07T14:51:03Z</time>
      </trkpt>
      <trkpt lat="50.48817" lon="3.12441">
        <ele>55.89</ele>
        <time>2021-08-07T14:51:08Z</time>
      </trkpt>
      <trkpt lat="50.48849" lon="3.12487">
        <ele>55.89</ele>
        <time>2021-08-07T14:51:17Z</time>
      </trkpt>
      <trkpt lat="50.48892" lon="3.12535">
        <ele>55.89</ele>
        <time>2021-08-07T14:51:27Z</time>
      </trkpt>
      <trkpt lat="50.48941" lon="3.12579">
        <ele>55.89</ele>
        <time>2021-08-07T14:51:37Z</time>
      </trkpt>
      <trkpt lat="50.48951" lon="3.1259">
        <ele>54.93</ele>
        <time>2021-08-07T14:51:39Z</time>
      </trkpt>
      <trkpt lat="50.49018" lon="3.12666">
        <ele>54.45</ele>
        <time>2021-08-07T14:51:52Z</time>
      </trkpt>
      <trkpt lat="50.49066" lon="3.12722">
        <ele>53.01</ele>
        <time>2021-08-07T14:52:01Z</time>
      </trkpt>
      <trkpt lat="50.49106" lon="3.12745">
        <ele>52.53</ele>
        <time>2021-08-07T14:52:07Z</time>
      </trkpt>
      <trkpt lat="50.49148" lon="3.12765">
        <ele>52.05</ele>
        <time>2021-08-07T14:52:14Z</time>
      </trkpt>
      <trkpt lat="50.49153" lon="3.1277">
        <ele>52.05</ele>
        <time>2021-08-07T14:52:16Z</time>
      </trkpt>
      <trkpt lat="50.49154" lon="3.12773">
        <ele>52.05</ele>
        <time>2021-08-07T14:52:17Z</time>
      </trkpt>
      <trkpt lat="50.49153" lon="3.12776">
        <ele>52.05</ele>
        <time>2021-08-07T14:52:18Z</time>
      </trkpt>
      <trkpt lat="50.49152" lon="3.12778">
        <ele>52.05</ele>
        <time>2021-08-07T14:52:19Z</time>
      </trkpt>
      <trkpt lat="50.4915" lon="3.1278">
        <ele>51.57</ele>
        <time>2021-08-07T14:52:20Z</time>
      </trkpt>
      <trkpt lat="50.49148" lon="3.12782">
        <ele>51.57</ele>
        <time>2021-08-07T14:52:21Z</time>
      </trkpt>
      <trkpt lat="50.49146" lon="3.12785">
        <ele>51.57</ele>
        <time>2021-08-07T14:52:22Z</time>
      </trkpt>
      <trkpt lat="50.49143" lon="3.12788">
        <ele>51.57</ele>
        <time>2021-08-07T14:52:23Z</time>
      </trkpt>
      <trkpt lat="50.49123" lon="3.12818">
        <ele>51.57</ele>
        <time>2021-08-07T14:52:30Z</time>
      </trkpt>
      <trkpt lat="50.49108" lon="3.12839">
        <ele>53.01</ele>
        <time>2021-08-07T14:52:35Z</time>
      </trkpt>
      <trkpt lat="50.4908" lon="3.12878">
        <ele>53.49</ele>
        <time>2021-08-07T14:52:44Z</time>
      </trkpt>
      <trkpt lat="50.49077" lon="3.12883">
        <ele>53.49</ele>
        <time>2021-08-07T14:52:45Z</time>
      </trkpt>
      <trkpt lat="50.49074" lon="3.12888">
        <ele>53.49</ele>
        <time>2021-08-07T14:52:46Z</time>
      </trkpt>
      <trkpt lat="50.49061" lon="3.12905">
        <ele>53.97</ele>
        <time>2021-08-07T14:52:50Z</time>
      </trkpt>
      <trkpt lat="50.49033" lon="3.12947">
        <ele>54.45</ele>
        <time>2021-08-07T14:52:59Z</time>
      </trkpt>
      <trkpt lat="50.48997" lon="3.12994">
        <ele>54.45</ele>
        <time>2021-08-07T14:53:09Z</time>
      </trkpt>
      <trkpt lat="50.48957" lon="3.1304">
        <ele>54.45</ele>
        <time>2021-08-07T14:53:19Z</time>
      </trkpt>
      <trkpt lat="50.48931" lon="3.13062">
        <ele>54.45</ele>
        <time>2021-08-07T14:53:25Z</time>
      </trkpt>
      <trkpt lat="50.48905" lon="3.13082">
        <ele>54.45</ele>
        <time>2021-08-07T14:53:31Z</time>
      </trkpt>
      <trkpt lat="50.489" lon="3.13085">
        <ele>54.45</ele>
        <time>2021-08-07T14:53:32Z</time>
      </trkpt>
      <trkpt lat="50.48882" lon="3.13099">
        <ele>54.45</ele>
        <time>2021-08-07T14:53:36Z</time>
      </trkpt>
      <trkpt lat="50.48878" lon="3.13102">
        <ele>54.45</ele>
        <time>2021-08-07T14:53:37Z</time>
      </trkpt>
      <trkpt lat="50.48843" lon="3.13133">
        <ele>54.45</ele>
        <time>2021-08-07T14:53:45Z</time>
      </trkpt>
      <trkpt lat="50.48835" lon="3.1314">
        <ele>53.97</ele>
        <time>2021-08-07T14:53:47Z</time>
      </trkpt>
      <trkpt lat="50.4883" lon="3.13144">
        <ele>53.97</ele>
        <time>2021-08-07T14:53:48Z</time>
      </trkpt>
      <trkpt lat="50.48804" lon="3.13175">
        <ele>53.97</ele>
        <time>2021-08-07T14:53:55Z</time>
      </trkpt>
      <trkpt lat="50.488" lon="3.13179">
        <ele>53.97</ele>
        <time>2021-08-07T14:53:56Z</time>
      </trkpt>
      <trkpt lat="50.48796" lon="3.13184">
        <ele>53.97</ele>
        <time>2021-08-07T14:53:57Z</time>
      </trkpt>
      <trkpt lat="50.48774" lon="3.13214">
        <ele>55.41</ele>
        <time>2021-08-07T14:54:04Z</time>
      </trkpt>
      <trkpt lat="50.48757" lon="3.13241">
        <ele>55.41</ele>
        <time>2021-08-07T14:54:11Z</time>
      </trkpt>
      <trkpt lat="50.48744" lon="3.13258">
        <ele>55.41</ele>
        <time>2021-08-07T14:54:17Z</time>
      </trkpt>
      <trkpt lat="50.4873" lon="3.1328">
        <ele>55.41</ele>
        <time>2021-08-07T14:54:23Z</time>
      </trkpt>
      <trkpt lat="50.48727" lon="3.13282">
        <ele>55.41</ele>
        <time>2021-08-07T14:54:24Z</time>
      </trkpt>
      <trkpt lat="50.48725" lon="3.13285">
        <ele>55.41</ele>
        <time>2021-08-07T14:54:25Z</time>
      </trkpt>
      <trkpt lat="50.48722" lon="3.13289">
        <ele>55.41</ele>
        <time>2021-08-07T14:54:26Z</time>
      </trkpt>
      <trkpt lat="50.48719" lon="3.13294">
        <ele>55.41</ele>
        <time>2021-08-07T14:54:27Z</time>
      </trkpt>
      <trkpt lat="50.48711" lon="3.13306">
        <ele>55.89</ele>
        <time>2021-08-07T14:54:30Z</time>
      </trkpt>
      <trkpt lat="50.48708" lon="3.13311">
        <ele>55.89</ele>
        <time>2021-08-07T14:54:31Z</time>
      </trkpt>
      <trkpt lat="50.48705" lon="3.13314">
        <ele>55.89</ele>
        <time>2021-08-07T14:54:32Z</time>
      </trkpt>
      <trkpt lat="50.48702" lon="3.13319">
        <ele>55.89</ele>
        <time>2021-08-07T14:54:33Z</time>
      </trkpt>
      <trkpt lat="50.48699" lon="3.13324">
        <ele>55.89</ele>
        <time>2021-08-07T14:54:34Z</time>
      </trkpt>
      <trkpt lat="50.48679" lon="3.13354">
        <ele>55.89</ele>
        <time>2021-08-07T14:54:40Z</time>
      </trkpt>
      <trkpt lat="50.4865" lon="3.13403">
        <ele>56.37</ele>
        <time>2021-08-07T14:54:49Z</time>
      </trkpt>
      <trkpt lat="50.48621" lon="3.13447">
        <ele>56.86</ele>
        <time>2021-08-07T14:54:58Z</time>
      </trkpt>
      <trkpt lat="50.48619" lon="3.13451">
        <ele>56.86</ele>
        <time>2021-08-07T14:54:59Z</time>
      </trkpt>
      <trkpt lat="50.48602" lon="3.13479">
        <ele>57.34</ele>
        <time>2021-08-07T14:55:06Z</time>
      </trkpt>
      <trkpt lat="50.486" lon="3.13482">
        <ele>57.82</ele>
        <time>2021-08-07T14:55:07Z</time>
      </trkpt>
      <trkpt lat="50.48599" lon="3.13485">
        <ele>57.82</ele>
        <time>2021-08-07T14:55:08Z</time>
      </trkpt>
      <trkpt lat="50.48598" lon="3.13489">
        <ele>58.3</ele>
        <time>2021-08-07T14:55:09Z</time>
      </trkpt>
      <trkpt lat="50.48597" lon="3.13492">
        <ele>58.3</ele>
        <time>2021-08-07T14:55:10Z</time>
      </trkpt>
      <trkpt lat="50.48596" lon="3.13496">
        <ele>58.78</ele>
        <time>2021-08-07T14:55:11Z</time>
      </trkpt>
      <trkpt lat="50.48586" lon="3.13512">
        <ele>58.78</ele>
        <time>2021-08-07T14:55:16Z</time>
      </trkpt>
      <trkpt lat="50.48583" lon="3.13512">
        <ele>58.78</ele>
        <time>2021-08-07T14:55:17Z</time>
      </trkpt>
      <trkpt lat="50.4858" lon="3.13511">
        <ele>58.78</ele>
        <time>2021-08-07T14:55:18Z</time>
      </trkpt>
      <trkpt lat="50.48559" lon="3.13522">
        <ele>58.78</ele>
        <time>2021-08-07T14:55:24Z</time>
      </trkpt>
      <trkpt lat="50.48555" lon="3.13526">
        <ele>58.78</ele>
        <time>2021-08-07T14:55:25Z</time>
      </trkpt>
      <trkpt lat="50.48551" lon="3.13528">
        <ele>58.78</ele>
        <time>2021-08-07T14:55:26Z</time>
      </trkpt>
      <trkpt lat="50.48509" lon="3.13557">
        <ele>59.74</ele>
        <time>2021-08-07T14:55:37Z</time>
      </trkpt>
      <trkpt lat="50.48505" lon="3.1356">
        <ele>59.74</ele>
        <time>2021-08-07T14:55:38Z</time>
      </trkpt>
      <trkpt lat="50.48475" lon="3.13579">
        <ele>59.74</ele>
        <time>2021-08-07T14:55:46Z</time>
      </trkpt>
      <trkpt lat="50.48446" lon="3.13597">
        <ele>60.22</ele>
        <time>2021-08-07T14:55:53Z</time>
      </trkpt>
      <trkpt lat="50.48438" lon="3.13603">
        <ele>60.22</ele>
        <time>2021-08-07T14:55:55Z</time>
      </trkpt>
      <trkpt lat="50.48434" lon="3.13606">
        <ele>60.22</ele>
        <time>2021-08-07T14:55:56Z</time>
      </trkpt>
      <trkpt lat="50.48392" lon="3.13638">
        <ele>60.22</ele>
        <time>2021-08-07T14:56:05Z</time>
      </trkpt>
      <trkpt lat="50.48383" lon="3.13646">
        <ele>58.78</ele>
        <time>2021-08-07T14:56:07Z</time>
      </trkpt>
      <trkpt lat="50.4834" lon="3.13693">
        <ele>57.82</ele>
        <time>2021-08-07T14:56:16Z</time>
      </trkpt>
      <trkpt lat="50.48302" lon="3.13739">
        <ele>57.34</ele>
        <time>2021-08-07T14:56:24Z</time>
      </trkpt>
      <trkpt lat="50.48262" lon="3.13784">
        <ele>56.37</ele>
        <time>2021-08-07T14:56:32Z</time>
      </trkpt>
      <trkpt lat="50.48238" lon="3.13812">
        <ele>56.37</ele>
        <time>2021-08-07T14:56:37Z</time>
      </trkpt>
      <trkpt lat="50.48234" lon="3.13818">
        <ele>55.89</ele>
        <time>2021-08-07T14:56:38Z</time>
      </trkpt>
      <trkpt lat="50.48229" lon="3.13824">
        <ele>55.89</ele>
        <time>2021-08-07T14:56:39Z</time>
      </trkpt>
      <trkpt lat="50.48201" lon="3.13852">
        <ele>54.93</ele>
        <time>2021-08-07T14:56:45Z</time>
      </trkpt>
      <trkpt lat="50.48196" lon="3.13857">
        <ele>54.93</ele>
        <time>2021-08-07T14:56:46Z</time>
      </trkpt>
      <trkpt lat="50.48192" lon="3.13859">
        <ele>54.93</ele>
        <time>2021-08-07T14:56:47Z</time>
      </trkpt>
      <trkpt lat="50.48173" lon="3.1387">
        <ele>54.45</ele>
        <time>2021-08-07T14:56:51Z</time>
      </trkpt>
      <trkpt lat="50.48168" lon="3.13873">
        <ele>54.45</ele>
        <time>2021-08-07T14:56:52Z</time>
      </trkpt>
      <trkpt lat="50.4816" lon="3.1388">
        <ele>53.97</ele>
        <time>2021-08-07T14:56:54Z</time>
      </trkpt>
      <trkpt lat="50.4813" lon="3.13901">
        <ele>53.49</ele>
        <time>2021-08-07T14:57:01Z</time>
      </trkpt>
      <trkpt lat="50.48122" lon="3.13907">
        <ele>53.49</ele>
        <time>2021-08-07T14:57:03Z</time>
      </trkpt>
      <trkpt lat="50.48097" lon="3.13926">
        <ele>53.49</ele>
        <time>2021-08-07T14:57:09Z</time>
      </trkpt>
      <trkpt lat="50.48092" lon="3.13929">
        <ele>53.49</ele>
        <time>2021-08-07T14:57:10Z</time>
      </trkpt>
      <trkpt lat="50.48072" lon="3.13945">
        <ele>53.49</ele>
        <time>2021-08-07T14:57:15Z</time>
      </trkpt>
      <trkpt lat="50.48069" lon="3.13948">
        <ele>53.01</ele>
        <time>2021-08-07T14:57:16Z</time>
      </trkpt>
      <trkpt lat="50.48066" lon="3.13952">
        <ele>53.01</ele>
        <time>2021-08-07T14:57:17Z</time>
      </trkpt>
      <trkpt lat="50.48064" lon="3.13954">
        <ele>53.01</ele>
        <time>2021-08-07T14:57:18Z</time>
      </trkpt>
      <trkpt lat="50.48061" lon="3.13954">
        <ele>53.01</ele>
        <time>2021-08-07T14:57:19Z</time>
      </trkpt>
      <trkpt lat="50.48059" lon="3.13954">
        <ele>53.01</ele>
        <time>2021-08-07T14:57:20Z</time>
      </trkpt>
      <trkpt lat="50.48057" lon="3.13954">
        <ele>53.01</ele>
        <time>2021-08-07T14:57:21Z</time>
      </trkpt>
      <trkpt lat="50.48055" lon="3.13955">
        <ele>53.01</ele>
        <time>2021-08-07T14:57:22Z</time>
      </trkpt>
      <trkpt lat="50.48052" lon="3.13957">
        <ele>53.01</ele>
        <time>2021-08-07T14:57:23Z</time>
      </trkpt>
      <trkpt lat="50.4805" lon="3.13959">
        <ele>53.01</ele>
        <time>2021-08-07T14:57:24Z</time>
      </trkpt>
      <trkpt lat="50.48033" lon="3.13975">
        <ele>53.01</ele>
        <time>2021-08-07T14:57:30Z</time>
      </trkpt>
      <trkpt lat="50.48035" lon="3.13975">
        <ele>53.01</ele>
        <time>2021-08-07T14:57:34Z</time>
      </trkpt>
      <trkpt lat="50.48036" lon="3.13974">
        <ele>53.97</ele>
        <time>2021-08-07T14:57:35Z</time>
      </trkpt>
      <trkpt lat="50.48045" lon="3.13962">
        <ele>53.97</ele>
        <time>2021-08-07T14:57:41Z</time>
      </trkpt>
      <trkpt lat="50.48052" lon="3.13957">
        <ele>53.97</ele>
        <time>2021-08-07T14:57:45Z</time>
      </trkpt>
      <trkpt lat="50.48054" lon="3.13959">
        <ele>53.97</ele>
        <time>2021-08-07T14:57:46Z</time>
      </trkpt>
      <trkpt lat="50.48056" lon="3.13963">
        <ele>53.97</ele>
        <time>2021-08-07T14:57:47Z</time>
      </trkpt>
      <trkpt lat="50.48057" lon="3.13967">
        <ele>53.97</ele>
        <time>2021-08-07T14:57:48Z</time>
      </trkpt>
      <trkpt lat="50.48058" lon="3.13972">
        <ele>53.97</ele>
        <time>2021-08-07T14:57:49Z</time>
      </trkpt>
      <trkpt lat="50.48059" lon="3.13978">
        <ele>53.97</ele>
        <time>2021-08-07T14:57:50Z</time>
      </trkpt>
      <trkpt lat="50.48064" lon="3.14016">
        <ele>52.53</ele>
        <time>2021-08-07T14:57:55Z</time>
      </trkpt>
      <trkpt lat="50.48069" lon="3.14051">
        <ele>52.53</ele>
        <time>2021-08-07T14:57:59Z</time>
      </trkpt>
      <trkpt lat="50.4808" lon="3.14133">
        <ele>52.05</ele>
        <time>2021-08-07T14:58:08Z</time>
      </trkpt>
      <trkpt lat="50.48086" lon="3.14208">
        <ele>52.05</ele>
        <time>2021-08-07T14:58:17Z</time>
      </trkpt>
      <trkpt lat="50.48089" lon="3.14231">
        <ele>52.05</ele>
        <time>2021-08-07T14:58:20Z</time>
      </trkpt>
      <trkpt lat="50.48091" lon="3.14238">
        <ele>52.05</ele>
        <time>2021-08-07T14:58:21Z</time>
      </trkpt>
      <trkpt lat="50.48093" lon="3.14244">
        <ele>52.05</ele>
        <time>2021-08-07T14:58:22Z</time>
      </trkpt>
      <trkpt lat="50.48101" lon="3.14268">
        <ele>52.05</ele>
        <time>2021-08-07T14:58:26Z</time>
      </trkpt>
      <trkpt lat="50.48101" lon="3.14275">
        <ele>52.05</ele>
        <time>2021-08-07T14:58:27Z</time>
      </trkpt>
      <trkpt lat="50.48099" lon="3.14283">
        <ele>52.05</ele>
        <time>2021-08-07T14:58:28Z</time>
      </trkpt>
      <trkpt lat="50.48096" lon="3.14297">
        <ele>52.05</ele>
        <time>2021-08-07T14:58:30Z</time>
      </trkpt>
      <trkpt lat="50.48093" lon="3.14305">
        <ele>51.57</ele>
        <time>2021-08-07T14:58:31Z</time>
      </trkpt>
      <trkpt lat="50.48081" lon="3.14339">
        <ele>50.61</ele>
        <time>2021-08-07T14:58:35Z</time>
      </trkpt>
      <trkpt lat="50.48057" lon="3.14402">
        <ele>50.13</ele>
        <time>2021-08-07T14:58:43Z</time>
      </trkpt>
      <trkpt lat="50.48056" lon="3.14408">
        <ele>50.13</ele>
        <time>2021-08-07T14:58:44Z</time>
      </trkpt>
      <trkpt lat="50.48036" lon="3.14466">
        <ele>52.53</ele>
        <time>2021-08-07T14:58:53Z</time>
      </trkpt>
      <trkpt lat="50.48015" lon="3.1452">
        <ele>53.01</ele>
        <time>2021-08-07T14:59:02Z</time>
      </trkpt>
      <trkpt lat="50.48003" lon="3.14549">
        <ele>53.97</ele>
        <time>2021-08-07T14:59:07Z</time>
      </trkpt>
      <trkpt lat="50.47994" lon="3.1458">
        <ele>53.97</ele>
        <time>2021-08-07T14:59:12Z</time>
      </trkpt>
      <trkpt lat="50.47983" lon="3.14634">
        <ele>54.45</ele>
        <time>2021-08-07T14:59:20Z</time>
      </trkpt>
      <trkpt lat="50.47971" lon="3.14691">
        <ele>54.93</ele>
        <time>2021-08-07T14:59:29Z</time>
      </trkpt>
      <trkpt lat="50.47972" lon="3.14697">
        <ele>54.93</ele>
        <time>2021-08-07T14:59:30Z</time>
      </trkpt>
      <trkpt lat="50.47975" lon="3.14701">
        <ele>54.93</ele>
        <time>2021-08-07T14:59:31Z</time>
      </trkpt>
      <trkpt lat="50.47977" lon="3.14705">
        <ele>55.41</ele>
        <time>2021-08-07T14:59:32Z</time>
      </trkpt>
      <trkpt lat="50.4798" lon="3.14708">
        <ele>55.41</ele>
        <time>2021-08-07T14:59:33Z</time>
      </trkpt>
      <trkpt lat="50.47983" lon="3.14712">
        <ele>56.37</ele>
        <time>2021-08-07T14:59:34Z</time>
      </trkpt>
      <trkpt lat="50.48009" lon="3.14737">
        <ele>57.34</ele>
        <time>2021-08-07T14:59:43Z</time>
      </trkpt>
      <trkpt lat="50.4804" lon="3.14772">
        <ele>57.82</ele>
        <time>2021-08-07T14:59:52Z</time>
      </trkpt>
      <trkpt lat="50.48089" lon="3.14829">
        <ele>58.3</ele>
        <time>2021-08-07T15:00:05Z</time>
      </trkpt>
      <trkpt lat="50.48124" lon="3.14871">
        <ele>58.3</ele>
        <time>2021-08-07T15:00:14Z</time>
      </trkpt>
      <trkpt lat="50.48151" lon="3.14906">
        <ele>58.3</ele>
        <time>2021-08-07T15:00:21Z</time>
      </trkpt>
      <trkpt lat="50.48154" lon="3.14911">
        <ele>58.3</ele>
        <time>2021-08-07T15:00:22Z</time>
      </trkpt>
      <trkpt lat="50.48156" lon="3.14919">
        <ele>58.3</ele>
        <time>2021-08-07T15:00:23Z</time>
      </trkpt>
      <trkpt lat="50.48158" lon="3.14927">
        <ele>58.3</ele>
        <time>2021-08-07T15:00:24Z</time>
      </trkpt>
      <trkpt lat="50.4816" lon="3.14934">
        <ele>58.3</ele>
        <time>2021-08-07T15:00:25Z</time>
      </trkpt>
      <trkpt lat="50.48171" lon="3.15007">
        <ele>58.3</ele>
        <time>2021-08-07T15:00:34Z</time>
      </trkpt>
      <trkpt lat="50.48185" lon="3.15095">
        <ele>58.3</ele>
        <time>2021-08-07T15:00:44Z</time>
      </trkpt>
      <trkpt lat="50.48204" lon="3.15167">
        <ele>58.3</ele>
        <time>2021-08-07T15:00:53Z</time>
      </trkpt>
      <trkpt lat="50.48209" lon="3.15182">
        <ele>56.86</ele>
        <time>2021-08-07T15:00:55Z</time>
      </trkpt>
      <trkpt lat="50.48233" lon="3.15258">
        <ele>56.86</ele>
        <time>2021-08-07T15:01:05Z</time>
      </trkpt>
      <trkpt lat="50.48235" lon="3.15266">
        <ele>56.86</ele>
        <time>2021-08-07T15:01:06Z</time>
      </trkpt>
      <trkpt lat="50.48254" lon="3.15347">
        <ele>56.86</ele>
        <time>2021-08-07T15:01:16Z</time>
      </trkpt>
      <trkpt lat="50.48269" lon="3.15426">
        <ele>56.86</ele>
        <time>2021-08-07T15:01:25Z</time>
      </trkpt>
      <trkpt lat="50.48281" lon="3.15498">
        <ele>56.86</ele>
        <time>2021-08-07T15:01:33Z</time>
      </trkpt>
      <trkpt lat="50.48296" lon="3.15582">
        <ele>56.86</ele>
        <time>2021-08-07T15:01:43Z</time>
      </trkpt>
      <trkpt lat="50.48302" lon="3.15613">
        <ele>56.86</ele>
        <time>2021-08-07T15:01:47Z</time>
      </trkpt>
      <trkpt lat="50.48305" lon="3.15627">
        <ele>56.86</ele>
        <time>2021-08-07T15:01:49Z</time>
      </trkpt>
      <trkpt lat="50.48322" lon="3.15701">
        <ele>56.86</ele>
        <time>2021-08-07T15:02:00Z</time>
      </trkpt>
      <trkpt lat="50.48322" lon="3.15708">
        <ele>56.86</ele>
        <time>2021-08-07T15:02:01Z</time>
      </trkpt>
      <trkpt lat="50.4832" lon="3.15714">
        <ele>56.86</ele>
        <time>2021-08-07T15:02:02Z</time>
      </trkpt>
      <trkpt lat="50.48318" lon="3.15719">
        <ele>56.86</ele>
        <time>2021-08-07T15:02:03Z</time>
      </trkpt>
      <trkpt lat="50.48314" lon="3.15722">
        <ele>56.86</ele>
        <time>2021-08-07T15:02:04Z</time>
      </trkpt>
      <trkpt lat="50.48311" lon="3.15725">
        <ele>56.86</ele>
        <time>2021-08-07T15:02:05Z</time>
      </trkpt>
      <trkpt lat="50.48288" lon="3.15744">
        <ele>56.86</ele>
        <time>2021-08-07T15:02:11Z</time>
      </trkpt>
      <trkpt lat="50.48267" lon="3.15766">
        <ele>56.86</ele>
        <time>2021-08-07T15:02:16Z</time>
      </trkpt>
      <trkpt lat="50.48264" lon="3.15772">
        <ele>56.86</ele>
        <time>2021-08-07T15:02:17Z</time>
      </trkpt>
      <trkpt lat="50.48263" lon="3.15778">
        <ele>56.86</ele>
        <time>2021-08-07T15:02:18Z</time>
      </trkpt>
      <trkpt lat="50.48263" lon="3.15785">
        <ele>56.86</ele>
        <time>2021-08-07T15:02:19Z</time>
      </trkpt>
      <trkpt lat="50.48264" lon="3.15792">
        <ele>56.86</ele>
        <time>2021-08-07T15:02:20Z</time>
      </trkpt>
      <trkpt lat="50.48265" lon="3.15799">
        <ele>56.86</ele>
        <time>2021-08-07T15:02:21Z</time>
      </trkpt>
      <trkpt lat="50.4828" lon="3.15876">
        <ele>56.86</ele>
        <time>2021-08-07T15:02:32Z</time>
      </trkpt>
      <trkpt lat="50.48299" lon="3.15969">
        <ele>56.86</ele>
        <time>2021-08-07T15:02:44Z</time>
      </trkpt>
      <trkpt lat="50.48319" lon="3.16066">
        <ele>56.37</ele>
        <time>2021-08-07T15:02:56Z</time>
      </trkpt>
      <trkpt lat="50.48328" lon="3.16113">
        <ele>56.37</ele>
        <time>2021-08-07T15:03:02Z</time>
      </trkpt>
      <trkpt lat="50.48343" lon="3.16188">
        <ele>56.37</ele>
        <time>2021-08-07T15:03:12Z</time>
      </trkpt>
      <trkpt lat="50.48361" lon="3.16278">
        <ele>56.37</ele>
        <time>2021-08-07T15:03:24Z</time>
      </trkpt>
      <trkpt lat="50.48365" lon="3.16299">
        <ele>56.37</ele>
        <time>2021-08-07T15:03:27Z</time>
      </trkpt>
      <trkpt lat="50.48366" lon="3.16305">
        <ele>56.37</ele>
        <time>2021-08-07T15:03:28Z</time>
      </trkpt>
      <trkpt lat="50.48369" lon="3.16309">
        <ele>56.37</ele>
        <time>2021-08-07T15:03:29Z</time>
      </trkpt>
      <trkpt lat="50.48373" lon="3.16311">
        <ele>56.37</ele>
        <time>2021-08-07T15:03:30Z</time>
      </trkpt>
      <trkpt lat="50.48376" lon="3.16308">
        <ele>56.37</ele>
        <time>2021-08-07T15:03:31Z</time>
      </trkpt>
      <trkpt lat="50.4838" lon="3.16305">
        <ele>56.37</ele>
        <time>2021-08-07T15:03:32Z</time>
      </trkpt>
      <trkpt lat="50.48383" lon="3.16301">
        <ele>56.37</ele>
        <time>2021-08-07T15:03:33Z</time>
      </trkpt>
      <trkpt lat="50.48387" lon="3.16296">
        <ele>56.37</ele>
        <time>2021-08-07T15:03:34Z</time>
      </trkpt>
      <trkpt lat="50.48391" lon="3.16293">
        <ele>56.37</ele>
        <time>2021-08-07T15:03:35Z</time>
      </trkpt>
      <trkpt lat="50.48395" lon="3.16289">
        <ele>56.37</ele>
        <time>2021-08-07T15:03:36Z</time>
      </trkpt>
      <trkpt lat="50.48399" lon="3.16286">
        <ele>56.37</ele>
        <time>2021-08-07T15:03:37Z</time>
      </trkpt>
      <trkpt lat="50.48442" lon="3.16252">
        <ele>56.37</ele>
        <time>2021-08-07T15:03:47Z</time>
      </trkpt>
      <trkpt lat="50.48446" lon="3.16249">
        <ele>56.37</ele>
        <time>2021-08-07T15:03:48Z</time>
      </trkpt>
      <trkpt lat="50.4845" lon="3.16246">
        <ele>56.37</ele>
        <time>2021-08-07T15:03:49Z</time>
      </trkpt>
      <trkpt lat="50.48458" lon="3.16239">
        <ele>56.37</ele>
        <time>2021-08-07T15:03:51Z</time>
      </trkpt>
      <trkpt lat="50.48498" lon="3.16205">
        <ele>57.34</ele>
        <time>2021-08-07T15:04:01Z</time>
      </trkpt>
      <trkpt lat="50.48523" lon="3.16185">
        <ele>57.34</ele>
        <time>2021-08-07T15:04:07Z</time>
      </trkpt>
      <trkpt lat="50.48528" lon="3.16182">
        <ele>57.34</ele>
        <time>2021-08-07T15:04:08Z</time>
      </trkpt>
      <trkpt lat="50.48532" lon="3.16179">
        <ele>57.34</ele>
        <time>2021-08-07T15:04:09Z</time>
      </trkpt>
      <trkpt lat="50.4854" lon="3.16171">
        <ele>57.34</ele>
        <time>2021-08-07T15:04:11Z</time>
      </trkpt>
      <trkpt lat="50.48573" lon="3.16141">
        <ele>57.82</ele>
        <time>2021-08-07T15:04:19Z</time>
      </trkpt>
      <trkpt lat="50.48612" lon="3.16111">
        <ele>57.82</ele>
        <time>2021-08-07T15:04:28Z</time>
      </trkpt>
      <trkpt lat="50.48629" lon="3.16101">
        <ele>57.82</ele>
        <time>2021-08-07T15:04:32Z</time>
      </trkpt>
      <trkpt lat="50.48633" lon="3.16104">
        <ele>57.82</ele>
        <time>2021-08-07T15:04:33Z</time>
      </trkpt>
      <trkpt lat="50.48635" lon="3.16109">
        <ele>57.82</ele>
        <time>2021-08-07T15:04:34Z</time>
      </trkpt>
      <trkpt lat="50.48638" lon="3.16116">
        <ele>57.82</ele>
        <time>2021-08-07T15:04:35Z</time>
      </trkpt>
      <trkpt lat="50.48639" lon="3.16122">
        <ele>57.82</ele>
        <time>2021-08-07T15:04:36Z</time>
      </trkpt>
      <trkpt lat="50.4866" lon="3.16183">
        <ele>57.82</ele>
        <time>2021-08-07T15:04:45Z</time>
      </trkpt>
      <trkpt lat="50.48675" lon="3.16232">
        <ele>57.82</ele>
        <time>2021-08-07T15:04:52Z</time>
      </trkpt>
      <trkpt lat="50.48701" lon="3.16316">
        <ele>58.3</ele>
        <time>2021-08-07T15:05:04Z</time>
      </trkpt>
      <trkpt lat="50.48729" lon="3.16404">
        <ele>58.3</ele>
        <time>2021-08-07T15:05:16Z</time>
      </trkpt>
      <trkpt lat="50.48757" lon="3.16477">
        <ele>58.3</ele>
        <time>2021-08-07T15:05:26Z</time>
      </trkpt>
      <trkpt lat="50.48787" lon="3.16553">
        <ele>58.3</ele>
        <time>2021-08-07T15:05:36Z</time>
      </trkpt>
      <trkpt lat="50.48826" lon="3.16659">
        <ele>58.3</ele>
        <time>2021-08-07T15:05:49Z</time>
      </trkpt>
      <trkpt lat="50.48831" lon="3.16677">
        <ele>56.86</ele>
        <time>2021-08-07T15:05:51Z</time>
      </trkpt>
      <trkpt lat="50.48868" lon="3.16793">
        <ele>56.86</ele>
        <time>2021-08-07T15:06:04Z</time>
      </trkpt>
      <trkpt lat="50.48893" lon="3.16873">
        <ele>56.37</ele>
        <time>2021-08-07T15:06:13Z</time>
      </trkpt>
      <trkpt lat="50.48919" lon="3.1696">
        <ele>55.89</ele>
        <time>2021-08-07T15:06:23Z</time>
      </trkpt>
      <trkpt lat="50.48942" lon="3.17033">
        <ele>55.89</ele>
        <time>2021-08-07T15:06:33Z</time>
      </trkpt>
      <trkpt lat="50.48951" lon="3.1706">
        <ele>55.89</ele>
        <time>2021-08-07T15:06:37Z</time>
      </trkpt>
      <trkpt lat="50.48953" lon="3.17068">
        <ele>55.89</ele>
        <time>2021-08-07T15:06:38Z</time>
      </trkpt>
      <trkpt lat="50.48954" lon="3.17074">
        <ele>55.89</ele>
        <time>2021-08-07T15:06:39Z</time>
      </trkpt>
      <trkpt lat="50.48957" lon="3.17082">
        <ele>55.89</ele>
        <time>2021-08-07T15:06:40Z</time>
      </trkpt>
      <trkpt lat="50.48959" lon="3.17089">
        <ele>55.89</ele>
        <time>2021-08-07T15:06:41Z</time>
      </trkpt>
      <trkpt lat="50.48975" lon="3.17142">
        <ele>55.89</ele>
        <time>2021-08-07T15:06:50Z</time>
      </trkpt>
      <trkpt lat="50.48975" lon="3.17142">
        <ele>56.86</ele>
        <time>2021-08-07T15:06:55Z</time>
      </trkpt>
      <trkpt lat="50.48974" lon="3.17142">
        <ele>56.86</ele>
        <time>2021-08-07T15:07:16Z</time>
      </trkpt>
      <trkpt lat="50.48974" lon="3.17142">
        <ele>56.86</ele>
        <time>2021-08-07T15:07:34Z</time>
      </trkpt>
      <trkpt lat="50.48974" lon="3.17141">
        <ele>56.86</ele>
        <time>2021-08-07T15:07:44Z</time>
      </trkpt>
      <trkpt lat="50.48974" lon="3.17142">
        <ele>56.86</ele>
        <time>2021-08-07T15:07:59Z</time>
      </trkpt>
      <trkpt lat="50.48973" lon="3.17148">
        <ele>56.86</ele>
        <time>2021-08-07T15:08:05Z</time>
      </trkpt>
      <trkpt lat="50.48974" lon="3.1715">
        <ele>56.86</ele>
        <time>2021-08-07T15:08:06Z</time>
      </trkpt>
      <trkpt lat="50.48974" lon="3.17154">
        <ele>56.86</ele>
        <time>2021-08-07T15:08:07Z</time>
      </trkpt>
      <trkpt lat="50.48974" lon="3.17158">
        <ele>56.86</ele>
        <time>2021-08-07T15:08:08Z</time>
      </trkpt>
      <trkpt lat="50.48973" lon="3.17162">
        <ele>56.86</ele>
        <time>2021-08-07T15:08:09Z</time>
      </trkpt>
      <trkpt lat="50.48964" lon="3.17211">
        <ele>55.89</ele>
        <time>2021-08-07T15:08:17Z</time>
      </trkpt>
      <trkpt lat="50.48962" lon="3.17225">
        <ele>55.89</ele>
        <time>2021-08-07T15:08:19Z</time>
      </trkpt>
      <trkpt lat="50.48953" lon="3.17273">
        <ele>54.93</ele>
        <time>2021-08-07T15:08:25Z</time>
      </trkpt>
      <trkpt lat="50.48948" lon="3.1729">
        <ele>54.93</ele>
        <time>2021-08-07T15:08:27Z</time>
      </trkpt>
      <trkpt lat="50.48934" lon="3.17379">
        <ele>53.49</ele>
        <time>2021-08-07T15:08:37Z</time>
      </trkpt>
      <trkpt lat="50.48918" lon="3.17481">
        <ele>52.05</ele>
        <time>2021-08-07T15:08:48Z</time>
      </trkpt>
      <trkpt lat="50.4891" lon="3.17517">
        <ele>52.05</ele>
        <time>2021-08-07T15:08:52Z</time>
      </trkpt>
      <trkpt lat="50.48886" lon="3.17586">
        <ele>50.61</ele>
        <time>2021-08-07T15:09:00Z</time>
      </trkpt>
      <trkpt lat="50.48863" lon="3.17646">
        <ele>50.13</ele>
        <time>2021-08-07T15:09:07Z</time>
      </trkpt>
      <trkpt lat="50.4884" lon="3.17719">
        <ele>49.16</ele>
        <time>2021-08-07T15:09:15Z</time>
      </trkpt>
      <trkpt lat="50.4882" lon="3.17797">
        <ele>48.68</ele>
        <time>2021-08-07T15:09:23Z</time>
      </trkpt>
      <trkpt lat="50.48792" lon="3.1791">
        <ele>48.2</ele>
        <time>2021-08-07T15:09:35Z</time>
      </trkpt>
      <trkpt lat="50.48763" lon="3.18027">
        <ele>47.24</ele>
        <time>2021-08-07T15:09:47Z</time>
      </trkpt>
      <trkpt lat="50.48738" lon="3.18131">
        <ele>46.28</ele>
        <time>2021-08-07T15:09:58Z</time>
      </trkpt>
      <trkpt lat="50.48713" lon="3.18235">
        <ele>45.8</ele>
        <time>2021-08-07T15:10:09Z</time>
      </trkpt>
      <trkpt lat="50.48693" lon="3.18322">
        <ele>44.36</ele>
        <time>2021-08-07T15:10:18Z</time>
      </trkpt>
      <trkpt lat="50.4867" lon="3.18419">
        <ele>44.36</ele>
        <time>2021-08-07T15:10:28Z</time>
      </trkpt>
      <trkpt lat="50.48662" lon="3.18447">
        <ele>43.4</ele>
        <time>2021-08-07T15:10:31Z</time>
      </trkpt>
      <trkpt lat="50.48658" lon="3.18456">
        <ele>43.4</ele>
        <time>2021-08-07T15:10:32Z</time>
      </trkpt>
      <trkpt lat="50.48654" lon="3.18463">
        <ele>43.4</ele>
        <time>2021-08-07T15:10:33Z</time>
      </trkpt>
      <trkpt lat="50.4865" lon="3.18471">
        <ele>43.4</ele>
        <time>2021-08-07T15:10:34Z</time>
      </trkpt>
      <trkpt lat="50.48645" lon="3.18477">
        <ele>43.4</ele>
        <time>2021-08-07T15:10:35Z</time>
      </trkpt>
      <trkpt lat="50.48589" lon="3.18551">
        <ele>43.4</ele>
        <time>2021-08-07T15:10:47Z</time>
      </trkpt>
      <trkpt lat="50.48555" lon="3.1858">
        <ele>43.4</ele>
        <time>2021-08-07T15:10:54Z</time>
      </trkpt>
      <trkpt lat="50.48533" lon="3.18599">
        <ele>43.4</ele>
        <time>2021-08-07T15:10:59Z</time>
      </trkpt>
      <trkpt lat="50.48529" lon="3.18601">
        <ele>43.4</ele>
        <time>2021-08-07T15:11:00Z</time>
      </trkpt>
      <trkpt lat="50.48524" lon="3.18602">
        <ele>43.4</ele>
        <time>2021-08-07T15:11:01Z</time>
      </trkpt>
      <trkpt lat="50.48519" lon="3.186">
        <ele>42.92</ele>
        <time>2021-08-07T15:11:02Z</time>
      </trkpt>
      <trkpt lat="50.48514" lon="3.18596">
        <ele>42.92</ele>
        <time>2021-08-07T15:11:03Z</time>
      </trkpt>
      <trkpt lat="50.48509" lon="3.18592">
        <ele>42.92</ele>
        <time>2021-08-07T15:11:04Z</time>
      </trkpt>
      <trkpt lat="50.48505" lon="3.18588">
        <ele>42.92</ele>
        <time>2021-08-07T15:11:05Z</time>
      </trkpt>
      <trkpt lat="50.48499" lon="3.18584">
        <ele>42.92</ele>
        <time>2021-08-07T15:11:06Z</time>
      </trkpt>
      <trkpt lat="50.48494" lon="3.18582">
        <ele>42.92</ele>
        <time>2021-08-07T15:11:07Z</time>
      </trkpt>
      <trkpt lat="50.48489" lon="3.18581">
        <ele>42.92</ele>
        <time>2021-08-07T15:11:08Z</time>
      </trkpt>
      <trkpt lat="50.48483" lon="3.18582">
        <ele>42.92</ele>
        <time>2021-08-07T15:11:09Z</time>
      </trkpt>
      <trkpt lat="50.48477" lon="3.18584">
        <ele>42.92</ele>
        <time>2021-08-07T15:11:10Z</time>
      </trkpt>
      <trkpt lat="50.48472" lon="3.18587">
        <ele>42.44</ele>
        <time>2021-08-07T15:11:11Z</time>
      </trkpt>
      <trkpt lat="50.48461" lon="3.18594">
        <ele>42.44</ele>
        <time>2021-08-07T15:11:13Z</time>
      </trkpt>
      <trkpt lat="50.48456" lon="3.18599">
        <ele>42.44</ele>
        <time>2021-08-07T15:11:14Z</time>
      </trkpt>
      <trkpt lat="50.48451" lon="3.18605">
        <ele>42.44</ele>
        <time>2021-08-07T15:11:15Z</time>
      </trkpt>
      <trkpt lat="50.48421" lon="3.18651">
        <ele>41.95</ele>
        <time>2021-08-07T15:11:22Z</time>
      </trkpt>
      <trkpt lat="50.48417" lon="3.18659">
        <ele>41.95</ele>
        <time>2021-08-07T15:11:23Z</time>
      </trkpt>
      <trkpt lat="50.48394" lon="3.18725">
        <ele>41.95</ele>
        <time>2021-08-07T15:11:31Z</time>
      </trkpt>
      <trkpt lat="50.48384" lon="3.18762">
        <ele>41.47</ele>
        <time>2021-08-07T15:11:35Z</time>
      </trkpt>
      <trkpt lat="50.48366" lon="3.18828">
        <ele>40.99</ele>
        <time>2021-08-07T15:11:42Z</time>
      </trkpt>
      <trkpt lat="50.4834" lon="3.18907">
        <ele>40.51</ele>
        <time>2021-08-07T15:11:51Z</time>
      </trkpt>
      <trkpt lat="50.48314" lon="3.18984">
        <ele>40.51</ele>
        <time>2021-08-07T15:12:00Z</time>
      </trkpt>
      <trkpt lat="50.48301" lon="3.19015">
        <ele>40.51</ele>
        <time>2021-08-07T15:12:04Z</time>
      </trkpt>
      <trkpt lat="50.4829" lon="3.19037">
        <ele>41.47</ele>
        <time>2021-08-07T15:12:07Z</time>
      </trkpt>
      <trkpt lat="50.48282" lon="3.19051">
        <ele>41.47</ele>
        <time>2021-08-07T15:12:09Z</time>
      </trkpt>
      <trkpt lat="50.48252" lon="3.19093">
        <ele>41.47</ele>
        <time>2021-08-07T15:12:16Z</time>
      </trkpt>
      <trkpt lat="50.48232" lon="3.19151">
        <ele>41.95</ele>
        <time>2021-08-07T15:12:24Z</time>
      </trkpt>
      <trkpt lat="50.48224" lon="3.19179">
        <ele>42.92</ele>
        <time>2021-08-07T15:12:28Z</time>
      </trkpt>
      <trkpt lat="50.48223" lon="3.19187">
        <ele>42.92</ele>
        <time>2021-08-07T15:12:29Z</time>
      </trkpt>
      <trkpt lat="50.48222" lon="3.19194">
        <ele>42.92</ele>
        <time>2021-08-07T15:12:30Z</time>
      </trkpt>
      <trkpt lat="50.48219" lon="3.19209">
        <ele>42.92</ele>
        <time>2021-08-07T15:12:32Z</time>
      </trkpt>
      <trkpt lat="50.48218" lon="3.19216">
        <ele>42.92</ele>
        <time>2021-08-07T15:12:33Z</time>
      </trkpt>
      <trkpt lat="50.48217" lon="3.19224">
        <ele>42.92</ele>
        <time>2021-08-07T15:12:34Z</time>
      </trkpt>
      <trkpt lat="50.48217" lon="3.19257">
        <ele>42.92</ele>
        <time>2021-08-07T15:12:38Z</time>
      </trkpt>
      <trkpt lat="50.48221" lon="3.19328">
        <ele>43.4</ele>
        <time>2021-08-07T15:12:46Z</time>
      </trkpt>
      <trkpt lat="50.48227" lon="3.19401">
        <ele>43.88</ele>
        <time>2021-08-07T15:12:54Z</time>
      </trkpt>
      <trkpt lat="50.4823" lon="3.1941">
        <ele>43.88</ele>
        <time>2021-08-07T15:12:55Z</time>
      </trkpt>
      <trkpt lat="50.48268" lon="3.19527">
        <ele>43.88</ele>
        <time>2021-08-07T15:13:09Z</time>
      </trkpt>
      <trkpt lat="50.48281" lon="3.19567">
        <ele>43.88</ele>
        <time>2021-08-07T15:13:14Z</time>
      </trkpt>
      <trkpt lat="50.48289" lon="3.19613">
        <ele>43.88</ele>
        <time>2021-08-07T15:13:19Z</time>
      </trkpt>
      <trkpt lat="50.48288" lon="3.19622">
        <ele>43.88</ele>
        <time>2021-08-07T15:13:20Z</time>
      </trkpt>
      <trkpt lat="50.48286" lon="3.19631">
        <ele>43.88</ele>
        <time>2021-08-07T15:13:21Z</time>
      </trkpt>
      <trkpt lat="50.48284" lon="3.19639">
        <ele>43.88</ele>
        <time>2021-08-07T15:13:22Z</time>
      </trkpt>
      <trkpt lat="50.48281" lon="3.19646">
        <ele>43.88</ele>
        <time>2021-08-07T15:13:23Z</time>
      </trkpt>
      <trkpt lat="50.48275" lon="3.1966">
        <ele>43.88</ele>
        <time>2021-08-07T15:13:25Z</time>
      </trkpt>
      <trkpt lat="50.48251" lon="3.19712">
        <ele>43.88</ele>
        <time>2021-08-07T15:13:33Z</time>
      </trkpt>
      <trkpt lat="50.48222" lon="3.19771">
        <ele>45.8</ele>
        <time>2021-08-07T15:13:43Z</time>
      </trkpt>
      <trkpt lat="50.48208" lon="3.198">
        <ele>45.8</ele>
        <time>2021-08-07T15:13:48Z</time>
      </trkpt>
      <trkpt lat="50.48189" lon="3.1983">
        <ele>46.28</ele>
        <time>2021-08-07T15:13:55Z</time>
      </trkpt>
      <trkpt lat="50.48181" lon="3.1983">
        <ele>47.24</ele>
        <time>2021-08-07T15:13:59Z</time>
      </trkpt>
      <trkpt lat="50.4818" lon="3.19831">
        <ele>47.24</ele>
        <time>2021-08-07T15:14:08Z</time>
      </trkpt>
      <trkpt lat="50.48181" lon="3.1983">
        <ele>46.76</ele>
        <time>2021-08-07T15:14:15Z</time>
      </trkpt>
      <trkpt lat="50.48181" lon="3.19829">
        <ele>46.76</ele>
        <time>2021-08-07T15:14:22Z</time>
      </trkpt>
      <trkpt lat="50.48181" lon="3.19828">
        <ele>47.24</ele>
        <time>2021-08-07T15:14:46Z</time>
      </trkpt>
      <trkpt lat="50.48181" lon="3.19828">
        <ele>47.24</ele>
        <time>2021-08-07T15:15:07Z</time>
      </trkpt>
      <trkpt lat="50.48181" lon="3.19828">
        <ele>47.24</ele>
        <time>2021-08-07T15:15:21Z</time>
      </trkpt>
      <trkpt lat="50.4818" lon="3.19827">
        <ele>47.72</ele>
        <time>2021-08-07T15:15:39Z</time>
      </trkpt>
      <trkpt lat="50.4818" lon="3.19826">
        <ele>47.72</ele>
        <time>2021-08-07T15:15:54Z</time>
      </trkpt>
      <trkpt lat="50.4818" lon="3.19827">
        <ele>47.72</ele>
        <time>2021-08-07T15:16:10Z</time>
      </trkpt>
      <trkpt lat="50.4818" lon="3.19831">
        <ele>47.72</ele>
        <time>2021-08-07T15:16:34Z</time>
      </trkpt>
      <trkpt lat="50.4818" lon="3.19832">
        <ele>47.72</ele>
        <time>2021-08-07T15:16:58Z</time>
      </trkpt>
      <trkpt lat="50.4818" lon="3.19828">
        <ele>47.72</ele>
        <time>2021-08-07T15:17:36Z</time>
      </trkpt>
      <trkpt lat="50.4818" lon="3.19828">
        <ele>47.72</ele>
        <time>2021-08-07T15:17:58Z</time>
      </trkpt>
      <trkpt lat="50.48179" lon="3.19832">
        <ele>47.24</ele>
        <time>2021-08-07T15:18:22Z</time>
      </trkpt>
      <trkpt lat="50.48179" lon="3.1983">
        <ele>47.24</ele>
        <time>2021-08-07T15:18:29Z</time>
      </trkpt>
      <trkpt lat="50.48178" lon="3.19832">
        <ele>47.24</ele>
        <time>2021-08-07T15:18:42Z</time>
      </trkpt>
      <trkpt lat="50.48178" lon="3.19831">
        <ele>47.24</ele>
        <time>2021-08-07T15:19:01Z</time>
      </trkpt>
      <trkpt lat="50.48178" lon="3.1983">
        <ele>47.24</ele>
        <time>2021-08-07T15:19:21Z</time>
      </trkpt>
      <trkpt lat="50.48178" lon="3.19831">
        <ele>47.24</ele>
        <time>2021-08-07T15:19:42Z</time>
      </trkpt>
      <trkpt lat="50.48178" lon="3.19832">
        <ele>47.24</ele>
        <time>2021-08-07T15:20:03Z</time>
      </trkpt>
      <trkpt lat="50.48178" lon="3.19831">
        <ele>47.72</ele>
        <time>2021-08-07T15:20:25Z</time>
      </trkpt>
      <trkpt lat="50.48179" lon="3.1983">
        <ele>47.72</ele>
        <time>2021-08-07T15:20:34Z</time>
      </trkpt>
      <trkpt lat="50.4818" lon="3.19829">
        <ele>47.72</ele>
        <time>2021-08-07T15:20:48Z</time>
      </trkpt>
      <trkpt lat="50.48181" lon="3.19829">
        <ele>47.72</ele>
        <time>2021-08-07T15:20:51Z</time>
      </trkpt>
      <trkpt lat="50.48187" lon="3.19835">
        <ele>47.72</ele>
        <time>2021-08-07T15:20:56Z</time>
      </trkpt>
      <trkpt lat="50.48187" lon="3.19838">
        <ele>47.72</ele>
        <time>2021-08-07T15:20:57Z</time>
      </trkpt>
      <trkpt lat="50.48187" lon="3.19841">
        <ele>47.72</ele>
        <time>2021-08-07T15:20:58Z</time>
      </trkpt>
      <trkpt lat="50.48186" lon="3.19845">
        <ele>47.72</ele>
        <time>2021-08-07T15:20:59Z</time>
      </trkpt>
      <trkpt lat="50.48184" lon="3.19847">
        <ele>47.72</ele>
        <time>2021-08-07T15:21:00Z</time>
      </trkpt>
      <trkpt lat="50.48183" lon="3.1985">
        <ele>47.72</ele>
        <time>2021-08-07T15:21:01Z</time>
      </trkpt>
      <trkpt lat="50.48182" lon="3.19853">
        <ele>46.76</ele>
        <time>2021-08-07T15:21:02Z</time>
      </trkpt>
      <trkpt lat="50.4818" lon="3.19856">
        <ele>46.76</ele>
        <time>2021-08-07T15:21:03Z</time>
      </trkpt>
      <trkpt lat="50.48169" lon="3.19885">
        <ele>46.76</ele>
        <time>2021-08-07T15:21:09Z</time>
      </trkpt>
      <trkpt lat="50.48165" lon="3.19897">
        <ele>46.76</ele>
        <time>2021-08-07T15:21:11Z</time>
      </trkpt>
      <trkpt lat="50.48163" lon="3.19903">
        <ele>46.76</ele>
        <time>2021-08-07T15:21:12Z</time>
      </trkpt>
      <trkpt lat="50.48149" lon="3.1994">
        <ele>46.76</ele>
        <time>2021-08-07T15:21:18Z</time>
      </trkpt>
      <trkpt lat="50.4814" lon="3.19976">
        <ele>47.72</ele>
        <time>2021-08-07T15:21:23Z</time>
      </trkpt>
      <trkpt lat="50.48129" lon="3.20031">
        <ele>47.72</ele>
        <time>2021-08-07T15:21:30Z</time>
      </trkpt>
      <trkpt lat="50.48115" lon="3.20116">
        <ele>46.76</ele>
        <time>2021-08-07T15:21:40Z</time>
      </trkpt>
      <trkpt lat="50.4811" lon="3.20132">
        <ele>46.76</ele>
        <time>2021-08-07T15:21:42Z</time>
      </trkpt>
      <trkpt lat="50.4808" lon="3.20195">
        <ele>46.76</ele>
        <time>2021-08-07T15:21:51Z</time>
      </trkpt>
      <trkpt lat="50.48041" lon="3.20258">
        <ele>46.76</ele>
        <time>2021-08-07T15:22:02Z</time>
      </trkpt>
      <trkpt lat="50.4801" lon="3.20309">
        <ele>46.76</ele>
        <time>2021-08-07T15:22:11Z</time>
      </trkpt>
      <trkpt lat="50.47984" lon="3.20358">
        <ele>47.72</ele>
        <time>2021-08-07T15:22:19Z</time>
      </trkpt>
      <trkpt lat="50.47981" lon="3.20365">
        <ele>47.72</ele>
        <time>2021-08-07T15:22:20Z</time>
      </trkpt>
      <trkpt lat="50.4798" lon="3.20372">
        <ele>48.2</ele>
        <time>2021-08-07T15:22:21Z</time>
      </trkpt>
      <trkpt lat="50.47978" lon="3.20379">
        <ele>48.2</ele>
        <time>2021-08-07T15:22:22Z</time>
      </trkpt>
      <trkpt lat="50.47978" lon="3.20386">
        <ele>48.68</ele>
        <time>2021-08-07T15:22:23Z</time>
      </trkpt>
      <trkpt lat="50.47977" lon="3.20394">
        <ele>49.16</ele>
        <time>2021-08-07T15:22:24Z</time>
      </trkpt>
      <trkpt lat="50.47977" lon="3.204">
        <ele>49.16</ele>
        <time>2021-08-07T15:22:25Z</time>
      </trkpt>
      <trkpt lat="50.47977" lon="3.20406">
        <ele>49.16</ele>
        <time>2021-08-07T15:22:26Z</time>
      </trkpt>
      <trkpt lat="50.47977" lon="3.20413">
        <ele>49.16</ele>
        <time>2021-08-07T15:22:27Z</time>
      </trkpt>
      <trkpt lat="50.47975" lon="3.20418">
        <ele>49.16</ele>
        <time>2021-08-07T15:22:28Z</time>
      </trkpt>
      <trkpt lat="50.47973" lon="3.20423">
        <ele>49.16</ele>
        <time>2021-08-07T15:22:29Z</time>
      </trkpt>
      <trkpt lat="50.47969" lon="3.20425">
        <ele>49.16</ele>
        <time>2021-08-07T15:22:30Z</time>
      </trkpt>
      <trkpt lat="50.47965" lon="3.20428">
        <ele>49.16</ele>
        <time>2021-08-07T15:22:31Z</time>
      </trkpt>
      <trkpt lat="50.47935" lon="3.20448">
        <ele>49.16</ele>
        <time>2021-08-07T15:22:39Z</time>
      </trkpt>
      <trkpt lat="50.47908" lon="3.20456">
        <ele>49.65</ele>
        <time>2021-08-07T15:22:46Z</time>
      </trkpt>
      <trkpt lat="50.47873" lon="3.20457">
        <ele>49.65</ele>
        <time>2021-08-07T15:22:55Z</time>
      </trkpt>
      <trkpt lat="50.47867" lon="3.20459">
        <ele>49.65</ele>
        <time>2021-08-07T15:22:57Z</time>
      </trkpt>
      <trkpt lat="50.47866" lon="3.20462">
        <ele>49.65</ele>
        <time>2021-08-07T15:22:58Z</time>
      </trkpt>
      <trkpt lat="50.47867" lon="3.20464">
        <ele>49.65</ele>
        <time>2021-08-07T15:22:59Z</time>
      </trkpt>
      <trkpt lat="50.4787" lon="3.20464">
        <ele>49.65</ele>
        <time>2021-08-07T15:23:00Z</time>
      </trkpt>
      <trkpt lat="50.47872" lon="3.20463">
        <ele>49.65</ele>
        <time>2021-08-07T15:23:01Z</time>
      </trkpt>
      <trkpt lat="50.47879" lon="3.20461">
        <ele>49.65</ele>
        <time>2021-08-07T15:23:03Z</time>
      </trkpt>
      <trkpt lat="50.47884" lon="3.2046">
        <ele>49.65</ele>
        <time>2021-08-07T15:23:04Z</time>
      </trkpt>
      <trkpt lat="50.47925" lon="3.20457">
        <ele>49.65</ele>
        <time>2021-08-07T15:23:13Z</time>
      </trkpt>
      <trkpt lat="50.47936" lon="3.20458">
        <ele>49.65</ele>
        <time>2021-08-07T15:23:15Z</time>
      </trkpt>
      <trkpt lat="50.4794" lon="3.2046">
        <ele>49.65</ele>
        <time>2021-08-07T15:23:16Z</time>
      </trkpt>
      <trkpt lat="50.47944" lon="3.20463">
        <ele>49.65</ele>
        <time>2021-08-07T15:23:17Z</time>
      </trkpt>
      <trkpt lat="50.47948" lon="3.20468">
        <ele>48.68</ele>
        <time>2021-08-07T15:23:18Z</time>
      </trkpt>
      <trkpt lat="50.47952" lon="3.20473">
        <ele>48.68</ele>
        <time>2021-08-07T15:23:19Z</time>
      </trkpt>
      <trkpt lat="50.47964" lon="3.20489">
        <ele>48.68</ele>
        <time>2021-08-07T15:23:22Z</time>
      </trkpt>
      <trkpt lat="50.4797" lon="3.20492">
        <ele>48.68</ele>
        <time>2021-08-07T15:23:23Z</time>
      </trkpt>
      <trkpt lat="50.47982" lon="3.20498">
        <ele>48.2</ele>
        <time>2021-08-07T15:23:25Z</time>
      </trkpt>
      <trkpt lat="50.48001" lon="3.20505">
        <ele>47.72</ele>
        <time>2021-08-07T15:23:28Z</time>
      </trkpt>
      <trkpt lat="50.48007" lon="3.2051">
        <ele>47.72</ele>
        <time>2021-08-07T15:23:29Z</time>
      </trkpt>
      <trkpt lat="50.48018" lon="3.20522">
        <ele>47.24</ele>
        <time>2021-08-07T15:23:31Z</time>
      </trkpt>
      <trkpt lat="50.48023" lon="3.20529">
        <ele>47.24</ele>
        <time>2021-08-07T15:23:32Z</time>
      </trkpt>
      <trkpt lat="50.48056" lon="3.20581">
        <ele>46.76</ele>
        <time>2021-08-07T15:23:39Z</time>
      </trkpt>
      <trkpt lat="50.48085" lon="3.20631">
        <ele>46.28</ele>
        <time>2021-08-07T15:23:46Z</time>
      </trkpt>
      <trkpt lat="50.48098" lon="3.20661">
        <ele>46.28</ele>
        <time>2021-08-07T15:23:50Z</time>
      </trkpt>
      <trkpt lat="50.48102" lon="3.20668">
        <ele>45.8</ele>
        <time>2021-08-07T15:23:51Z</time>
      </trkpt>
      <trkpt lat="50.48118" lon="3.20709">
        <ele>45.8</ele>
        <time>2021-08-07T15:23:56Z</time>
      </trkpt>
      <trkpt lat="50.48122" lon="3.20716">
        <ele>45.8</ele>
        <time>2021-08-07T15:23:57Z</time>
      </trkpt>
      <trkpt lat="50.48127" lon="3.20723">
        <ele>45.8</ele>
        <time>2021-08-07T15:23:58Z</time>
      </trkpt>
      <trkpt lat="50.48152" lon="3.20757">
        <ele>45.8</ele>
        <time>2021-08-07T15:24:04Z</time>
      </trkpt>
      <trkpt lat="50.48153" lon="3.2076">
        <ele>45.8</ele>
        <time>2021-08-07T15:24:05Z</time>
      </trkpt>
      <trkpt lat="50.48153" lon="3.20763">
        <ele>45.8</ele>
        <time>2021-08-07T15:24:11Z</time>
      </trkpt>
      <trkpt lat="50.48154" lon="3.20765">
        <ele>45.8</ele>
        <time>2021-08-07T15:24:13Z</time>
      </trkpt>
      <trkpt lat="50.48156" lon="3.20766">
        <ele>45.8</ele>
        <time>2021-08-07T15:24:14Z</time>
      </trkpt>
      <trkpt lat="50.48157" lon="3.20767">
        <ele>45.8</ele>
        <time>2021-08-07T15:24:15Z</time>
      </trkpt>
      <trkpt lat="50.48159" lon="3.20768">
        <ele>45.8</ele>
        <time>2021-08-07T15:24:16Z</time>
      </trkpt>
      <trkpt lat="50.48162" lon="3.20768">
        <ele>45.8</ele>
        <time>2021-08-07T15:24:17Z</time>
      </trkpt>
      <trkpt lat="50.48165" lon="3.20769">
        <ele>45.8</ele>
        <time>2021-08-07T15:24:18Z</time>
      </trkpt>
      <trkpt lat="50.48169" lon="3.20771">
        <ele>45.8</ele>
        <time>2021-08-07T15:24:19Z</time>
      </trkpt>
      <trkpt lat="50.48172" lon="3.20774">
        <ele>45.8</ele>
        <time>2021-08-07T15:24:20Z</time>
      </trkpt>
      <trkpt lat="50.48176" lon="3.20777">
        <ele>45.8</ele>
        <time>2021-08-07T15:24:21Z</time>
      </trkpt>
      <trkpt lat="50.4818" lon="3.20782">
        <ele>45.8</ele>
        <time>2021-08-07T15:24:22Z</time>
      </trkpt>
      <trkpt lat="50.48184" lon="3.20786">
        <ele>45.8</ele>
        <time>2021-08-07T15:24:23Z</time>
      </trkpt>
      <trkpt lat="50.48188" lon="3.20791">
        <ele>45.8</ele>
        <time>2021-08-07T15:24:24Z</time>
      </trkpt>
      <trkpt lat="50.48223" lon="3.20824">
        <ele>45.32</ele>
        <time>2021-08-07T15:24:31Z</time>
      </trkpt>
      <trkpt lat="50.48269" lon="3.20864">
        <ele>43.88</ele>
        <time>2021-08-07T15:24:39Z</time>
      </trkpt>
      <trkpt lat="50.48326" lon="3.20913">
        <ele>43.4</ele>
        <time>2021-08-07T15:24:48Z</time>
      </trkpt>
      <trkpt lat="50.48378" lon="3.20957">
        <ele>41.95</ele>
        <time>2021-08-07T15:24:56Z</time>
      </trkpt>
      <trkpt lat="50.48398" lon="3.20972">
        <ele>41.47</ele>
        <time>2021-08-07T15:24:59Z</time>
      </trkpt>
      <trkpt lat="50.48404" lon="3.20975">
        <ele>41.47</ele>
        <time>2021-08-07T15:25:00Z</time>
      </trkpt>
      <trkpt lat="50.48411" lon="3.20978">
        <ele>41.47</ele>
        <time>2021-08-07T15:25:01Z</time>
      </trkpt>
      <trkpt lat="50.48418" lon="3.2098">
        <ele>40.99</ele>
        <time>2021-08-07T15:25:02Z</time>
      </trkpt>
      <trkpt lat="50.48425" lon="3.20981">
        <ele>40.99</ele>
        <time>2021-08-07T15:25:03Z</time>
      </trkpt>
      <trkpt lat="50.48491" lon="3.20996">
        <ele>39.55</ele>
        <time>2021-08-07T15:25:12Z</time>
      </trkpt>
      <trkpt lat="50.48512" lon="3.21003">
        <ele>39.55</ele>
        <time>2021-08-07T15:25:15Z</time>
      </trkpt>
      <trkpt lat="50.48576" lon="3.2103">
        <ele>39.55</ele>
        <time>2021-08-07T15:25:24Z</time>
      </trkpt>
      <trkpt lat="50.48647" lon="3.21049">
        <ele>38.59</ele>
        <time>2021-08-07T15:25:34Z</time>
      </trkpt>
      <trkpt lat="50.48713" lon="3.21049">
        <ele>38.11</ele>
        <time>2021-08-07T15:25:43Z</time>
      </trkpt>
      <trkpt lat="50.48761" lon="3.21061">
        <ele>37.63</ele>
        <time>2021-08-07T15:25:50Z</time>
      </trkpt>
      <trkpt lat="50.48819" lon="3.21083">
        <ele>37.63</ele>
        <time>2021-08-07T15:25:59Z</time>
      </trkpt>
      <trkpt lat="50.48869" lon="3.21109">
        <ele>37.63</ele>
        <time>2021-08-07T15:26:07Z</time>
      </trkpt>
      <trkpt lat="50.48874" lon="3.21115">
        <ele>37.63</ele>
        <time>2021-08-07T15:26:08Z</time>
      </trkpt>
      <trkpt lat="50.48877" lon="3.21123">
        <ele>37.63</ele>
        <time>2021-08-07T15:26:09Z</time>
      </trkpt>
      <trkpt lat="50.48879" lon="3.21132">
        <ele>37.63</ele>
        <time>2021-08-07T15:26:10Z</time>
      </trkpt>
      <trkpt lat="50.48879" lon="3.21144">
        <ele>37.63</ele>
        <time>2021-08-07T15:26:11Z</time>
      </trkpt>
      <trkpt lat="50.48879" lon="3.2115">
        <ele>37.63</ele>
        <time>2021-08-07T15:26:12Z</time>
      </trkpt>
      <trkpt lat="50.48877" lon="3.2116">
        <ele>37.63</ele>
        <time>2021-08-07T15:26:13Z</time>
      </trkpt>
      <trkpt lat="50.48872" lon="3.21184">
        <ele>38.59</ele>
        <time>2021-08-07T15:26:16Z</time>
      </trkpt>
      <trkpt lat="50.48867" lon="3.21251">
        <ele>41.47</ele>
        <time>2021-08-07T15:26:25Z</time>
      </trkpt>
      <trkpt lat="50.48874" lon="3.2131">
        <ele>43.88</ele>
        <time>2021-08-07T15:26:34Z</time>
      </trkpt>
      <trkpt lat="50.48889" lon="3.21365">
        <ele>45.32</ele>
        <time>2021-08-07T15:26:43Z</time>
      </trkpt>
      <trkpt lat="50.48905" lon="3.21423">
        <ele>46.28</ele>
        <time>2021-08-07T15:26:52Z</time>
      </trkpt>
      <trkpt lat="50.48927" lon="3.215">
        <ele>44.84</ele>
        <time>2021-08-07T15:27:02Z</time>
      </trkpt>
      <trkpt lat="50.48929" lon="3.2151">
        <ele>44.36</ele>
        <time>2021-08-07T15:27:03Z</time>
      </trkpt>
      <trkpt lat="50.48946" lon="3.2158">
        <ele>41.47</ele>
        <time>2021-08-07T15:27:10Z</time>
      </trkpt>
      <trkpt lat="50.48948" lon="3.21592">
        <ele>41.47</ele>
        <time>2021-08-07T15:27:11Z</time>
      </trkpt>
      <trkpt lat="50.48951" lon="3.21627">
        <ele>40.03</ele>
        <time>2021-08-07T15:27:14Z</time>
      </trkpt>
      <trkpt lat="50.48948" lon="3.21675">
        <ele>38.11</ele>
        <time>2021-08-07T15:27:18Z</time>
      </trkpt>
      <trkpt lat="50.48941" lon="3.2171">
        <ele>38.11</ele>
        <time>2021-08-07T15:27:21Z</time>
      </trkpt>
      <trkpt lat="50.48908" lon="3.21801">
        <ele>36.19</ele>
        <time>2021-08-07T15:27:30Z</time>
      </trkpt>
      <trkpt lat="50.48872" lon="3.21882">
        <ele>35.71</ele>
        <time>2021-08-07T15:27:39Z</time>
      </trkpt>
      <trkpt lat="50.4883" lon="3.21963">
        <ele>35.71</ele>
        <time>2021-08-07T15:27:49Z</time>
      </trkpt>
      <trkpt lat="50.48796" lon="3.22022">
        <ele>35.23</ele>
        <time>2021-08-07T15:27:57Z</time>
      </trkpt>
      <trkpt lat="50.48759" lon="3.22089">
        <ele>35.23</ele>
        <time>2021-08-07T15:28:06Z</time>
      </trkpt>
      <trkpt lat="50.48734" lon="3.22166">
        <ele>35.23</ele>
        <time>2021-08-07T15:28:15Z</time>
      </trkpt>
      <trkpt lat="50.48729" lon="3.22183">
        <ele>36.19</ele>
        <time>2021-08-07T15:28:17Z</time>
      </trkpt>
      <trkpt lat="50.48727" lon="3.2219">
        <ele>36.19</ele>
        <time>2021-08-07T15:28:18Z</time>
      </trkpt>
      <trkpt lat="50.48723" lon="3.22195">
        <ele>36.19</ele>
        <time>2021-08-07T15:28:19Z</time>
      </trkpt>
      <trkpt lat="50.48718" lon="3.22198">
        <ele>36.19</ele>
        <time>2021-08-07T15:28:20Z</time>
      </trkpt>
      <trkpt lat="50.48713" lon="3.22199">
        <ele>36.19</ele>
        <time>2021-08-07T15:28:21Z</time>
      </trkpt>
      <trkpt lat="50.48708" lon="3.22199">
        <ele>36.19</ele>
        <time>2021-08-07T15:28:22Z</time>
      </trkpt>
      <trkpt lat="50.48702" lon="3.222">
        <ele>36.19</ele>
        <time>2021-08-07T15:28:23Z</time>
      </trkpt>
      <trkpt lat="50.48697" lon="3.22202">
        <ele>36.19</ele>
        <time>2021-08-07T15:28:24Z</time>
      </trkpt>
      <trkpt lat="50.48692" lon="3.22206">
        <ele>36.19</ele>
        <time>2021-08-07T15:28:25Z</time>
      </trkpt>
      <trkpt lat="50.48689" lon="3.22209">
        <ele>36.19</ele>
        <time>2021-08-07T15:28:26Z</time>
      </trkpt>
      <trkpt lat="50.48685" lon="3.22215">
        <ele>36.19</ele>
        <time>2021-08-07T15:28:27Z</time>
      </trkpt>
      <trkpt lat="50.48681" lon="3.22222">
        <ele>36.19</ele>
        <time>2021-08-07T15:28:28Z</time>
      </trkpt>
      <trkpt lat="50.48679" lon="3.22229">
        <ele>36.19</ele>
        <time>2021-08-07T15:28:29Z</time>
      </trkpt>
      <trkpt lat="50.48676" lon="3.22237">
        <ele>36.19</ele>
        <time>2021-08-07T15:28:30Z</time>
      </trkpt>
      <trkpt lat="50.4866" lon="3.22297">
        <ele>35.23</ele>
        <time>2021-08-07T15:28:37Z</time>
      </trkpt>
      <trkpt lat="50.48633" lon="3.22394">
        <ele>34.26</ele>
        <time>2021-08-07T15:28:48Z</time>
      </trkpt>
      <trkpt lat="50.4863" lon="3.22403">
        <ele>34.26</ele>
        <time>2021-08-07T15:28:49Z</time>
      </trkpt>
      <trkpt lat="50.48597" lon="3.22483">
        <ele>34.26</ele>
        <time>2021-08-07T15:28:59Z</time>
      </trkpt>
      <trkpt lat="50.48557" lon="3.2257">
        <ele>34.26</ele>
        <time>2021-08-07T15:29:10Z</time>
      </trkpt>
      <trkpt lat="50.48521" lon="3.22635">
        <ele>34.26</ele>
        <time>2021-08-07T15:29:19Z</time>
      </trkpt>
      <trkpt lat="50.48479" lon="3.22685">
        <ele>34.26</ele>
        <time>2021-08-07T15:29:28Z</time>
      </trkpt>
      <trkpt lat="50.4844" lon="3.22737">
        <ele>33.78</ele>
        <time>2021-08-07T15:29:37Z</time>
      </trkpt>
      <trkpt lat="50.48407" lon="3.22793">
        <ele>33.78</ele>
        <time>2021-08-07T15:29:46Z</time>
      </trkpt>
      <trkpt lat="50.48378" lon="3.22844">
        <ele>34.74</ele>
        <time>2021-08-07T15:29:54Z</time>
      </trkpt>
      <trkpt lat="50.48344" lon="3.22902">
        <ele>34.74</ele>
        <time>2021-08-07T15:30:03Z</time>
      </trkpt>
      <trkpt lat="50.4834" lon="3.22908">
        <ele>34.74</ele>
        <time>2021-08-07T15:30:04Z</time>
      </trkpt>
      <trkpt lat="50.48316" lon="3.22952">
        <ele>35.23</ele>
        <time>2021-08-07T15:30:12Z</time>
      </trkpt>
      <trkpt lat="50.48289" lon="3.23001">
        <ele>36.19</ele>
        <time>2021-08-07T15:30:21Z</time>
      </trkpt>
      <trkpt lat="50.48255" lon="3.2306">
        <ele>36.19</ele>
        <time>2021-08-07T15:30:31Z</time>
      </trkpt>
      <trkpt lat="50.48221" lon="3.23123">
        <ele>37.63</ele>
        <time>2021-08-07T15:30:42Z</time>
      </trkpt>
      <trkpt lat="50.48215" lon="3.23134">
        <ele>37.63</ele>
        <time>2021-08-07T15:30:44Z</time>
      </trkpt>
      <trkpt lat="50.48212" lon="3.23139">
        <ele>37.63</ele>
        <time>2021-08-07T15:30:45Z</time>
      </trkpt>
      <trkpt lat="50.48181" lon="3.23197">
        <ele>38.11</ele>
        <time>2021-08-07T15:30:56Z</time>
      </trkpt>
      <trkpt lat="50.48168" lon="3.23222">
        <ele>38.59</ele>
        <time>2021-08-07T15:31:01Z</time>
      </trkpt>
      <trkpt lat="50.48157" lon="3.23244">
        <ele>39.07</ele>
        <time>2021-08-07T15:31:05Z</time>
      </trkpt>
      <trkpt lat="50.48154" lon="3.2325">
        <ele>39.55</ele>
        <time>2021-08-07T15:31:06Z</time>
      </trkpt>
      <trkpt lat="50.48146" lon="3.23265">
        <ele>38.11</ele>
        <time>2021-08-07T15:31:09Z</time>
      </trkpt>
      <trkpt lat="50.48114" lon="3.23325">
        <ele>39.55</ele>
        <time>2021-08-07T15:31:21Z</time>
      </trkpt>
      <trkpt lat="50.48084" lon="3.23383">
        <ele>40.51</ele>
        <time>2021-08-07T15:31:31Z</time>
      </trkpt>
      <trkpt lat="50.48053" lon="3.23439">
        <ele>40.51</ele>
        <time>2021-08-07T15:31:41Z</time>
      </trkpt>
      <trkpt lat="50.4803" lon="3.23482">
        <ele>40.99</ele>
        <time>2021-08-07T15:31:49Z</time>
      </trkpt>
      <trkpt lat="50.48014" lon="3.23514">
        <ele>40.99</ele>
        <time>2021-08-07T15:31:55Z</time>
      </trkpt>
      <trkpt lat="50.48012" lon="3.2352">
        <ele>40.99</ele>
        <time>2021-08-07T15:31:56Z</time>
      </trkpt>
      <trkpt lat="50.4801" lon="3.23526">
        <ele>40.99</ele>
        <time>2021-08-07T15:31:57Z</time>
      </trkpt>
      <trkpt lat="50.48007" lon="3.2353">
        <ele>40.99</ele>
        <time>2021-08-07T15:31:58Z</time>
      </trkpt>
      <trkpt lat="50.48005" lon="3.23535">
        <ele>40.99</ele>
        <time>2021-08-07T15:31:59Z</time>
      </trkpt>
      <trkpt lat="50.48002" lon="3.23539">
        <ele>40.99</ele>
        <time>2021-08-07T15:32:00Z</time>
      </trkpt>
      <trkpt lat="50.47999" lon="3.23544">
        <ele>40.99</ele>
        <time>2021-08-07T15:32:01Z</time>
      </trkpt>
      <trkpt lat="50.47991" lon="3.23555">
        <ele>40.99</ele>
        <time>2021-08-07T15:32:04Z</time>
      </trkpt>
      <trkpt lat="50.47987" lon="3.23555">
        <ele>40.99</ele>
        <time>2021-08-07T15:32:05Z</time>
      </trkpt>
      <trkpt lat="50.47983" lon="3.23553">
        <ele>40.99</ele>
        <time>2021-08-07T15:32:06Z</time>
      </trkpt>
      <trkpt lat="50.4798" lon="3.23549">
        <ele>40.99</ele>
        <time>2021-08-07T15:32:07Z</time>
      </trkpt>
      <trkpt lat="50.47977" lon="3.23545">
        <ele>40.99</ele>
        <time>2021-08-07T15:32:08Z</time>
      </trkpt>
      <trkpt lat="50.47974" lon="3.2354">
        <ele>40.99</ele>
        <time>2021-08-07T15:32:09Z</time>
      </trkpt>
      <trkpt lat="50.47959" lon="3.23515">
        <ele>40.99</ele>
        <time>2021-08-07T15:32:14Z</time>
      </trkpt>
      <trkpt lat="50.47957" lon="3.2351">
        <ele>40.99</ele>
        <time>2021-08-07T15:32:15Z</time>
      </trkpt>
      <trkpt lat="50.47955" lon="3.23503">
        <ele>40.99</ele>
        <time>2021-08-07T15:32:16Z</time>
      </trkpt>
      <trkpt lat="50.47953" lon="3.23485">
        <ele>40.99</ele>
        <time>2021-08-07T15:32:19Z</time>
      </trkpt>
      <trkpt lat="50.47954" lon="3.23479">
        <ele>40.99</ele>
        <time>2021-08-07T15:32:20Z</time>
      </trkpt>
      <trkpt lat="50.47956" lon="3.23473">
        <ele>40.99</ele>
        <time>2021-08-07T15:32:21Z</time>
      </trkpt>
      <trkpt lat="50.47956" lon="3.23468">
        <ele>40.99</ele>
        <time>2021-08-07T15:32:22Z</time>
      </trkpt>
      <trkpt lat="50.47957" lon="3.23463">
        <ele>40.99</ele>
        <time>2021-08-07T15:32:23Z</time>
      </trkpt>
      <trkpt lat="50.47959" lon="3.23458">
        <ele>40.99</ele>
        <time>2021-08-07T15:32:24Z</time>
      </trkpt>
      <trkpt lat="50.4796" lon="3.23454">
        <ele>40.99</ele>
        <time>2021-08-07T15:32:25Z</time>
      </trkpt>
      <trkpt lat="50.47964" lon="3.23441">
        <ele>40.99</ele>
        <time>2021-08-07T15:32:27Z</time>
      </trkpt>
      <trkpt lat="50.47966" lon="3.23435">
        <ele>40.99</ele>
        <time>2021-08-07T15:32:28Z</time>
      </trkpt>
      <trkpt lat="50.47966" lon="3.23428">
        <ele>40.99</ele>
        <time>2021-08-07T15:32:29Z</time>
      </trkpt>
      <trkpt lat="50.47966" lon="3.23421">
        <ele>40.99</ele>
        <time>2021-08-07T15:32:30Z</time>
      </trkpt>
      <trkpt lat="50.47965" lon="3.23414">
        <ele>40.99</ele>
        <time>2021-08-07T15:32:31Z</time>
      </trkpt>
      <trkpt lat="50.47963" lon="3.23407">
        <ele>40.99</ele>
        <time>2021-08-07T15:32:32Z</time>
      </trkpt>
      <trkpt lat="50.47944" lon="3.23344">
        <ele>40.99</ele>
        <time>2021-08-07T15:32:41Z</time>
      </trkpt>
      <trkpt lat="50.47916" lon="3.23267">
        <ele>40.99</ele>
        <time>2021-08-07T15:32:52Z</time>
      </trkpt>
      <trkpt lat="50.47887" lon="3.23199">
        <ele>40.99</ele>
        <time>2021-08-07T15:33:03Z</time>
      </trkpt>
      <trkpt lat="50.47857" lon="3.23143">
        <ele>41.47</ele>
        <time>2021-08-07T15:33:13Z</time>
      </trkpt>
      <trkpt lat="50.47818" lon="3.23084">
        <ele>41.47</ele>
        <time>2021-08-07T15:33:24Z</time>
      </trkpt>
      <trkpt lat="50.4779" lon="3.23038">
        <ele>41.47</ele>
        <time>2021-08-07T15:33:33Z</time>
      </trkpt>
      <trkpt lat="50.47755" lon="3.22982">
        <ele>42.44</ele>
        <time>2021-08-07T15:33:45Z</time>
      </trkpt>
      <trkpt lat="50.47749" lon="3.22973">
        <ele>42.44</ele>
        <time>2021-08-07T15:33:47Z</time>
      </trkpt>
      <trkpt lat="50.47747" lon="3.22968">
        <ele>42.44</ele>
        <time>2021-08-07T15:33:48Z</time>
      </trkpt>
      <trkpt lat="50.47744" lon="3.22964">
        <ele>42.44</ele>
        <time>2021-08-07T15:33:49Z</time>
      </trkpt>
      <trkpt lat="50.47726" lon="3.22938">
        <ele>42.44</ele>
        <time>2021-08-07T15:33:55Z</time>
      </trkpt>
      <trkpt lat="50.47703" lon="3.22886">
        <ele>42.44</ele>
        <time>2021-08-07T15:34:05Z</time>
      </trkpt>
      <trkpt lat="50.47687" lon="3.22834">
        <ele>42.44</ele>
        <time>2021-08-07T15:34:14Z</time>
      </trkpt>
      <trkpt lat="50.47685" lon="3.22802">
        <ele>42.44</ele>
        <time>2021-08-07T15:34:19Z</time>
      </trkpt>
      <trkpt lat="50.47685" lon="3.22796">
        <ele>42.44</ele>
        <time>2021-08-07T15:34:20Z</time>
      </trkpt>
      <trkpt lat="50.47683" lon="3.22762">
        <ele>42.44</ele>
        <time>2021-08-07T15:34:25Z</time>
      </trkpt>
      <trkpt lat="50.47668" lon="3.22717">
        <ele>42.44</ele>
        <time>2021-08-07T15:34:33Z</time>
      </trkpt>
      <trkpt lat="50.47643" lon="3.22683">
        <ele>42.44</ele>
        <time>2021-08-07T15:34:41Z</time>
      </trkpt>
      <trkpt lat="50.47635" lon="3.22676">
        <ele>40.99</ele>
        <time>2021-08-07T15:34:43Z</time>
      </trkpt>
      <trkpt lat="50.47629" lon="3.22669">
        <ele>40.99</ele>
        <time>2021-08-07T15:34:45Z</time>
      </trkpt>
      <trkpt lat="50.47618" lon="3.2266">
        <ele>40.99</ele>
        <time>2021-08-07T15:34:48Z</time>
      </trkpt>
      <trkpt lat="50.47614" lon="3.22657">
        <ele>40.99</ele>
        <time>2021-08-07T15:34:49Z</time>
      </trkpt>
      <trkpt lat="50.47611" lon="3.22654">
        <ele>40.99</ele>
        <time>2021-08-07T15:34:50Z</time>
      </trkpt>
      <trkpt lat="50.47607" lon="3.22651">
        <ele>40.99</ele>
        <time>2021-08-07T15:34:51Z</time>
      </trkpt>
      <trkpt lat="50.47603" lon="3.22648">
        <ele>40.99</ele>
        <time>2021-08-07T15:34:52Z</time>
      </trkpt>
      <trkpt lat="50.476" lon="3.22644">
        <ele>40.99</ele>
        <time>2021-08-07T15:34:53Z</time>
      </trkpt>
      <trkpt lat="50.47567" lon="3.22614">
        <ele>40.99</ele>
        <time>2021-08-07T15:35:02Z</time>
      </trkpt>
      <trkpt lat="50.47531" lon="3.22582">
        <ele>40.99</ele>
        <time>2021-08-07T15:35:12Z</time>
      </trkpt>
      <trkpt lat="50.47527" lon="3.22579">
        <ele>40.99</ele>
        <time>2021-08-07T15:35:13Z</time>
      </trkpt>
      <trkpt lat="50.47501" lon="3.22553">
        <ele>42.44</ele>
        <time>2021-08-07T15:35:21Z</time>
      </trkpt>
      <trkpt lat="50.47491" lon="3.22541">
        <ele>42.44</ele>
        <time>2021-08-07T15:35:24Z</time>
      </trkpt>
      <trkpt lat="50.47489" lon="3.22536">
        <ele>42.44</ele>
        <time>2021-08-07T15:35:25Z</time>
      </trkpt>
      <trkpt lat="50.47468" lon="3.22487">
        <ele>42.92</ele>
        <time>2021-08-07T15:35:34Z</time>
      </trkpt>
      <trkpt lat="50.47444" lon="3.22445">
        <ele>43.4</ele>
        <time>2021-08-07T15:35:43Z</time>
      </trkpt>
      <trkpt lat="50.47423" lon="3.22419">
        <ele>43.88</ele>
        <time>2021-08-07T15:35:50Z</time>
      </trkpt>
      <trkpt lat="50.47394" lon="3.22388">
        <ele>44.84</ele>
        <time>2021-08-07T15:35:59Z</time>
      </trkpt>
      <trkpt lat="50.4739" lon="3.22386">
        <ele>44.84</ele>
        <time>2021-08-07T15:36:00Z</time>
      </trkpt>
      <trkpt lat="50.47385" lon="3.22386">
        <ele>44.84</ele>
        <time>2021-08-07T15:36:01Z</time>
      </trkpt>
      <trkpt lat="50.47382" lon="3.22387">
        <ele>44.84</ele>
        <time>2021-08-07T15:36:02Z</time>
      </trkpt>
      <trkpt lat="50.47378" lon="3.22391">
        <ele>44.84</ele>
        <time>2021-08-07T15:36:03Z</time>
      </trkpt>
      <trkpt lat="50.47376" lon="3.22395">
        <ele>45.32</ele>
        <time>2021-08-07T15:36:04Z</time>
      </trkpt>
      <trkpt lat="50.47373" lon="3.224">
        <ele>45.32</ele>
        <time>2021-08-07T15:36:05Z</time>
      </trkpt>
      <trkpt lat="50.47372" lon="3.22406">
        <ele>45.32</ele>
        <time>2021-08-07T15:36:06Z</time>
      </trkpt>
      <trkpt lat="50.47371" lon="3.22412">
        <ele>45.32</ele>
        <time>2021-08-07T15:36:07Z</time>
      </trkpt>
      <trkpt lat="50.4737" lon="3.22418">
        <ele>45.32</ele>
        <time>2021-08-07T15:36:08Z</time>
      </trkpt>
      <trkpt lat="50.47369" lon="3.22423">
        <ele>45.32</ele>
        <time>2021-08-07T15:36:09Z</time>
      </trkpt>
      <trkpt lat="50.47356" lon="3.22468">
        <ele>45.8</ele>
        <time>2021-08-07T15:36:17Z</time>
      </trkpt>
      <trkpt lat="50.4735" lon="3.22492">
        <ele>46.28</ele>
        <time>2021-08-07T15:36:21Z</time>
      </trkpt>
      <trkpt lat="50.47332" lon="3.22564">
        <ele>47.24</ele>
        <time>2021-08-07T15:36:33Z</time>
      </trkpt>
      <trkpt lat="50.47315" lon="3.22632">
        <ele>47.72</ele>
        <time>2021-08-07T15:36:44Z</time>
      </trkpt>
      <trkpt lat="50.47299" lon="3.22687">
        <ele>48.68</ele>
        <time>2021-08-07T15:36:53Z</time>
      </trkpt>
      <trkpt lat="50.47281" lon="3.22756">
        <ele>48.68</ele>
        <time>2021-08-07T15:37:04Z</time>
      </trkpt>
      <trkpt lat="50.47264" lon="3.22832">
        <ele>48.68</ele>
        <time>2021-08-07T15:37:15Z</time>
      </trkpt>
      <trkpt lat="50.47263" lon="3.22902">
        <ele>48.68</ele>
        <time>2021-08-07T15:37:24Z</time>
      </trkpt>
      <trkpt lat="50.47278" lon="3.22969">
        <ele>46.76</ele>
        <time>2021-08-07T15:37:32Z</time>
      </trkpt>
      <trkpt lat="50.47303" lon="3.23074">
        <ele>46.28</ele>
        <time>2021-08-07T15:37:44Z</time>
      </trkpt>
      <trkpt lat="50.47322" lon="3.23151">
        <ele>45.8</ele>
        <time>2021-08-07T15:37:53Z</time>
      </trkpt>
      <trkpt lat="50.47329" lon="3.23184">
        <ele>45.8</ele>
        <time>2021-08-07T15:37:57Z</time>
      </trkpt>
      <trkpt lat="50.47327" lon="3.23192">
        <ele>45.8</ele>
        <time>2021-08-07T15:37:58Z</time>
      </trkpt>
      <trkpt lat="50.47324" lon="3.23198">
        <ele>45.8</ele>
        <time>2021-08-07T15:37:59Z</time>
      </trkpt>
      <trkpt lat="50.4732" lon="3.232">
        <ele>45.8</ele>
        <time>2021-08-07T15:38:00Z</time>
      </trkpt>
      <trkpt lat="50.47315" lon="3.23201">
        <ele>45.8</ele>
        <time>2021-08-07T15:38:01Z</time>
      </trkpt>
      <trkpt lat="50.47311" lon="3.232">
        <ele>45.8</ele>
        <time>2021-08-07T15:38:02Z</time>
      </trkpt>
      <trkpt lat="50.47306" lon="3.23198">
        <ele>45.8</ele>
        <time>2021-08-07T15:38:03Z</time>
      </trkpt>
      <trkpt lat="50.47301" lon="3.23197">
        <ele>44.84</ele>
        <time>2021-08-07T15:38:04Z</time>
      </trkpt>
      <trkpt lat="50.47297" lon="3.23198">
        <ele>44.84</ele>
        <time>2021-08-07T15:38:05Z</time>
      </trkpt>
      <trkpt lat="50.47293" lon="3.232">
        <ele>46.28</ele>
        <time>2021-08-07T15:38:06Z</time>
      </trkpt>
      <trkpt lat="50.4729" lon="3.23204">
        <ele>46.76</ele>
        <time>2021-08-07T15:38:07Z</time>
      </trkpt>
      <trkpt lat="50.47287" lon="3.2321">
        <ele>46.76</ele>
        <time>2021-08-07T15:38:08Z</time>
      </trkpt>
      <trkpt lat="50.47285" lon="3.23217">
        <ele>46.76</ele>
        <time>2021-08-07T15:38:09Z</time>
      </trkpt>
      <trkpt lat="50.47284" lon="3.23224">
        <ele>46.76</ele>
        <time>2021-08-07T15:38:10Z</time>
      </trkpt>
      <trkpt lat="50.47284" lon="3.23232">
        <ele>46.76</ele>
        <time>2021-08-07T15:38:11Z</time>
      </trkpt>
      <trkpt lat="50.47287" lon="3.23239">
        <ele>46.76</ele>
        <time>2021-08-07T15:38:12Z</time>
      </trkpt>
      <trkpt lat="50.47291" lon="3.23246">
        <ele>46.76</ele>
        <time>2021-08-07T15:38:13Z</time>
      </trkpt>
      <trkpt lat="50.47295" lon="3.2325">
        <ele>46.76</ele>
        <time>2021-08-07T15:38:14Z</time>
      </trkpt>
      <trkpt lat="50.47301" lon="3.23255">
        <ele>46.76</ele>
        <time>2021-08-07T15:38:15Z</time>
      </trkpt>
      <trkpt lat="50.47307" lon="3.2326">
        <ele>46.76</ele>
        <time>2021-08-07T15:38:16Z</time>
      </trkpt>
      <trkpt lat="50.4731" lon="3.23265">
        <ele>46.76</ele>
        <time>2021-08-07T15:38:17Z</time>
      </trkpt>
      <trkpt lat="50.47314" lon="3.23273">
        <ele>46.76</ele>
        <time>2021-08-07T15:38:18Z</time>
      </trkpt>
      <trkpt lat="50.47317" lon="3.23281">
        <ele>46.76</ele>
        <time>2021-08-07T15:38:19Z</time>
      </trkpt>
      <trkpt lat="50.47335" lon="3.2333">
        <ele>45.8</ele>
        <time>2021-08-07T15:38:25Z</time>
      </trkpt>
      <trkpt lat="50.47367" lon="3.23383">
        <ele>44.36</ele>
        <time>2021-08-07T15:38:32Z</time>
      </trkpt>
      <trkpt lat="50.47418" lon="3.23439">
        <ele>43.88</ele>
        <time>2021-08-07T15:38:41Z</time>
      </trkpt>
      <trkpt lat="50.47486" lon="3.23503">
        <ele>42.44</ele>
        <time>2021-08-07T15:38:52Z</time>
      </trkpt>
      <trkpt lat="50.47546" lon="3.23562">
        <ele>40.99</ele>
        <time>2021-08-07T15:39:02Z</time>
      </trkpt>
      <trkpt lat="50.4755" lon="3.2357">
        <ele>40.99</ele>
        <time>2021-08-07T15:39:03Z</time>
      </trkpt>
      <trkpt lat="50.47553" lon="3.23579">
        <ele>40.99</ele>
        <time>2021-08-07T15:39:04Z</time>
      </trkpt>
      <trkpt lat="50.4756" lon="3.23597">
        <ele>40.99</ele>
        <time>2021-08-07T15:39:06Z</time>
      </trkpt>
      <trkpt lat="50.47565" lon="3.23603">
        <ele>40.99</ele>
        <time>2021-08-07T15:39:07Z</time>
      </trkpt>
      <trkpt lat="50.4757" lon="3.23606">
        <ele>40.99</ele>
        <time>2021-08-07T15:39:08Z</time>
      </trkpt>
      <trkpt lat="50.47576" lon="3.23608">
        <ele>40.99</ele>
        <time>2021-08-07T15:39:09Z</time>
      </trkpt>
      <trkpt lat="50.47584" lon="3.23612">
        <ele>40.99</ele>
        <time>2021-08-07T15:39:10Z</time>
      </trkpt>
      <trkpt lat="50.47588" lon="3.23616">
        <ele>40.99</ele>
        <time>2021-08-07T15:39:11Z</time>
      </trkpt>
      <trkpt lat="50.47592" lon="3.23621">
        <ele>40.99</ele>
        <time>2021-08-07T15:39:12Z</time>
      </trkpt>
      <trkpt lat="50.47597" lon="3.23628">
        <ele>40.99</ele>
        <time>2021-08-07T15:39:13Z</time>
      </trkpt>
      <trkpt lat="50.47628" lon="3.23692">
        <ele>39.55</ele>
        <time>2021-08-07T15:39:20Z</time>
      </trkpt>
      <trkpt lat="50.47658" lon="3.23756">
        <ele>39.07</ele>
        <time>2021-08-07T15:39:27Z</time>
      </trkpt>
      <trkpt lat="50.47659" lon="3.23764">
        <ele>39.07</ele>
        <time>2021-08-07T15:39:28Z</time>
      </trkpt>
      <trkpt lat="50.47659" lon="3.23768">
        <ele>39.07</ele>
        <time>2021-08-07T15:39:29Z</time>
      </trkpt>
      <trkpt lat="50.47657" lon="3.23769">
        <ele>39.07</ele>
        <time>2021-08-07T15:39:30Z</time>
      </trkpt>
      <trkpt lat="50.47655" lon="3.23767">
        <ele>39.07</ele>
        <time>2021-08-07T15:39:31Z</time>
      </trkpt>
      <trkpt lat="50.47653" lon="3.23765">
        <ele>39.07</ele>
        <time>2021-08-07T15:39:32Z</time>
      </trkpt>
      <trkpt lat="50.47652" lon="3.23763">
        <ele>39.07</ele>
        <time>2021-08-07T15:39:33Z</time>
      </trkpt>
      <trkpt lat="50.47652" lon="3.23761">
        <ele>39.07</ele>
        <time>2021-08-07T15:39:38Z</time>
      </trkpt>
      <trkpt lat="50.47646" lon="3.23753">
        <ele>39.07</ele>
        <time>2021-08-07T15:39:46Z</time>
      </trkpt>
      <trkpt lat="50.4763" lon="3.23722">
        <ele>37.63</ele>
        <time>2021-08-07T15:39:53Z</time>
      </trkpt>
      <trkpt lat="50.47621" lon="3.23707">
        <ele>39.55</ele>
        <time>2021-08-07T15:39:56Z</time>
      </trkpt>
      <trkpt lat="50.47591" lon="3.2365">
        <ele>39.55</ele>
        <time>2021-08-07T15:40:07Z</time>
      </trkpt>
      <trkpt lat="50.47567" lon="3.23616">
        <ele>39.55</ele>
        <time>2021-08-07T15:40:15Z</time>
      </trkpt>
      <trkpt lat="50.47562" lon="3.23618">
        <ele>40.51</ele>
        <time>2021-08-07T15:40:17Z</time>
      </trkpt>
      <trkpt lat="50.4756" lon="3.23619">
        <ele>40.51</ele>
        <time>2021-08-07T15:40:18Z</time>
      </trkpt>
      <trkpt lat="50.47557" lon="3.23619">
        <ele>40.51</ele>
        <time>2021-08-07T15:40:19Z</time>
      </trkpt>
      <trkpt lat="50.47554" lon="3.23617">
        <ele>40.51</ele>
        <time>2021-08-07T15:40:20Z</time>
      </trkpt>
      <trkpt lat="50.47552" lon="3.23615">
        <ele>40.51</ele>
        <time>2021-08-07T15:40:21Z</time>
      </trkpt>
      <trkpt lat="50.47549" lon="3.23611">
        <ele>40.51</ele>
        <time>2021-08-07T15:40:22Z</time>
      </trkpt>
      <trkpt lat="50.47548" lon="3.23605">
        <ele>40.51</ele>
        <time>2021-08-07T15:40:23Z</time>
      </trkpt>
      <trkpt lat="50.47547" lon="3.23599">
        <ele>40.99</ele>
        <time>2021-08-07T15:40:24Z</time>
      </trkpt>
      <trkpt lat="50.47547" lon="3.23592">
        <ele>41.47</ele>
        <time>2021-08-07T15:40:25Z</time>
      </trkpt>
      <trkpt lat="50.47537" lon="3.23561">
        <ele>40.03</ele>
        <time>2021-08-07T15:40:30Z</time>
      </trkpt>
      <trkpt lat="50.47534" lon="3.23557">
        <ele>40.03</ele>
        <time>2021-08-07T15:40:31Z</time>
      </trkpt>
      <trkpt lat="50.47506" lon="3.23528">
        <ele>40.99</ele>
        <time>2021-08-07T15:40:38Z</time>
      </trkpt>
      <trkpt lat="50.4747" lon="3.23496">
        <ele>41.95</ele>
        <time>2021-08-07T15:40:47Z</time>
      </trkpt>
      <trkpt lat="50.47428" lon="3.23456">
        <ele>43.4</ele>
        <time>2021-08-07T15:40:58Z</time>
      </trkpt>
      <trkpt lat="50.47399" lon="3.23425">
        <ele>43.4</ele>
        <time>2021-08-07T15:41:06Z</time>
      </trkpt>
      <trkpt lat="50.47395" lon="3.23421">
        <ele>43.88</ele>
        <time>2021-08-07T15:41:07Z</time>
      </trkpt>
      <trkpt lat="50.4736" lon="3.23383">
        <ele>44.36</ele>
        <time>2021-08-07T15:41:17Z</time>
      </trkpt>
      <trkpt lat="50.4735" lon="3.23381">
        <ele>44.84</ele>
        <time>2021-08-07T15:41:20Z</time>
      </trkpt>
      <trkpt lat="50.47348" lon="3.23385">
        <ele>44.84</ele>
        <time>2021-08-07T15:41:21Z</time>
      </trkpt>
      <trkpt lat="50.4734" lon="3.23405">
        <ele>44.84</ele>
        <time>2021-08-07T15:41:26Z</time>
      </trkpt>
      <trkpt lat="50.47325" lon="3.23432">
        <ele>44.84</ele>
        <time>2021-08-07T15:41:33Z</time>
      </trkpt>
      <trkpt lat="50.47309" lon="3.23462">
        <ele>45.8</ele>
        <time>2021-08-07T15:41:41Z</time>
      </trkpt>
      <trkpt lat="50.47307" lon="3.23469">
        <ele>45.8</ele>
        <time>2021-08-07T15:41:43Z</time>
      </trkpt>
      <trkpt lat="50.47304" lon="3.23471">
        <ele>45.8</ele>
        <time>2021-08-07T15:41:44Z</time>
      </trkpt>
      <trkpt lat="50.47302" lon="3.23474">
        <ele>45.8</ele>
        <time>2021-08-07T15:41:45Z</time>
      </trkpt>
      <trkpt lat="50.47284" lon="3.23501">
        <ele>44.36</ele>
        <time>2021-08-07T15:41:51Z</time>
      </trkpt>
      <trkpt lat="50.47274" lon="3.23519">
        <ele>46.28</ele>
        <time>2021-08-07T15:41:54Z</time>
      </trkpt>
      <trkpt lat="50.47268" lon="3.2353">
        <ele>44.84</ele>
        <time>2021-08-07T15:41:56Z</time>
      </trkpt>
      <trkpt lat="50.47245" lon="3.23569">
        <ele>44.36</ele>
        <time>2021-08-07T15:42:04Z</time>
      </trkpt>
      <trkpt lat="50.47244" lon="3.2357">
        <ele>44.36</ele>
        <time>2021-08-07T15:42:05Z</time>
      </trkpt>
      <trkpt lat="50.47244" lon="3.23572">
        <ele>44.36</ele>
        <time>2021-08-07T15:42:06Z</time>
      </trkpt>
      <trkpt lat="50.47245" lon="3.23576">
        <ele>44.36</ele>
        <time>2021-08-07T15:42:07Z</time>
      </trkpt>
      <trkpt lat="50.47247" lon="3.23579">
        <ele>44.36</ele>
        <time>2021-08-07T15:42:08Z</time>
      </trkpt>
      <trkpt lat="50.47249" lon="3.23583">
        <ele>44.36</ele>
        <time>2021-08-07T15:42:09Z</time>
      </trkpt>
      <trkpt lat="50.47252" lon="3.23587">
        <ele>44.36</ele>
        <time>2021-08-07T15:42:10Z</time>
      </trkpt>
      <trkpt lat="50.47277" lon="3.23621">
        <ele>43.88</ele>
        <time>2021-08-07T15:42:17Z</time>
      </trkpt>
      <trkpt lat="50.47307" lon="3.23671">
        <ele>43.4</ele>
        <time>2021-08-07T15:42:25Z</time>
      </trkpt>
      <trkpt lat="50.47335" lon="3.23741">
        <ele>42.92</ele>
        <time>2021-08-07T15:42:34Z</time>
      </trkpt>
      <trkpt lat="50.47348" lon="3.238">
        <ele>42.92</ele>
        <time>2021-08-07T15:42:41Z</time>
      </trkpt>
      <trkpt lat="50.47348" lon="3.2381">
        <ele>42.92</ele>
        <time>2021-08-07T15:42:42Z</time>
      </trkpt>
      <trkpt lat="50.47348" lon="3.23819">
        <ele>42.92</ele>
        <time>2021-08-07T15:42:43Z</time>
      </trkpt>
      <trkpt lat="50.47346" lon="3.23827">
        <ele>42.92</ele>
        <time>2021-08-07T15:42:44Z</time>
      </trkpt>
      <trkpt lat="50.47344" lon="3.23835">
        <ele>42.92</ele>
        <time>2021-08-07T15:42:45Z</time>
      </trkpt>
      <trkpt lat="50.47341" lon="3.23844">
        <ele>42.92</ele>
        <time>2021-08-07T15:42:46Z</time>
      </trkpt>
      <trkpt lat="50.47325" lon="3.23892">
        <ele>42.92</ele>
        <time>2021-08-07T15:42:52Z</time>
      </trkpt>
      <trkpt lat="50.47323" lon="3.23901">
        <ele>42.92</ele>
        <time>2021-08-07T15:42:53Z</time>
      </trkpt>
      <trkpt lat="50.47322" lon="3.2391">
        <ele>42.92</ele>
        <time>2021-08-07T15:42:54Z</time>
      </trkpt>
      <trkpt lat="50.47323" lon="3.23918">
        <ele>42.44</ele>
        <time>2021-08-07T15:42:55Z</time>
      </trkpt>
      <trkpt lat="50.47326" lon="3.23926">
        <ele>42.44</ele>
        <time>2021-08-07T15:42:56Z</time>
      </trkpt>
      <trkpt lat="50.47329" lon="3.23934">
        <ele>42.44</ele>
        <time>2021-08-07T15:42:57Z</time>
      </trkpt>
      <trkpt lat="50.47333" lon="3.2394">
        <ele>42.44</ele>
        <time>2021-08-07T15:42:58Z</time>
      </trkpt>
      <trkpt lat="50.47336" lon="3.23947">
        <ele>42.44</ele>
        <time>2021-08-07T15:42:59Z</time>
      </trkpt>
      <trkpt lat="50.47339" lon="3.23956">
        <ele>42.44</ele>
        <time>2021-08-07T15:43:00Z</time>
      </trkpt>
      <trkpt lat="50.47339" lon="3.23964">
        <ele>42.44</ele>
        <time>2021-08-07T15:43:01Z</time>
      </trkpt>
      <trkpt lat="50.47335" lon="3.23978">
        <ele>42.44</ele>
        <time>2021-08-07T15:43:03Z</time>
      </trkpt>
      <trkpt lat="50.473" lon="3.24055">
        <ele>40.99</ele>
        <time>2021-08-07T15:43:13Z</time>
      </trkpt>
      <trkpt lat="50.47298" lon="3.24063">
        <ele>40.51</ele>
        <time>2021-08-07T15:43:14Z</time>
      </trkpt>
      <trkpt lat="50.47296" lon="3.24072">
        <ele>40.51</ele>
        <time>2021-08-07T15:43:15Z</time>
      </trkpt>
      <trkpt lat="50.47293" lon="3.24078">
        <ele>40.51</ele>
        <time>2021-08-07T15:43:16Z</time>
      </trkpt>
      <trkpt lat="50.47279" lon="3.24109">
        <ele>41.95</ele>
        <time>2021-08-07T15:43:20Z</time>
      </trkpt>
      <trkpt lat="50.47276" lon="3.24117">
        <ele>41.95</ele>
        <time>2021-08-07T15:43:21Z</time>
      </trkpt>
      <trkpt lat="50.47256" lon="3.24165">
        <ele>40.51</ele>
        <time>2021-08-07T15:43:27Z</time>
      </trkpt>
      <trkpt lat="50.47254" lon="3.24174">
        <ele>40.51</ele>
        <time>2021-08-07T15:43:28Z</time>
      </trkpt>
      <trkpt lat="50.47251" lon="3.24184">
        <ele>40.51</ele>
        <time>2021-08-07T15:43:29Z</time>
      </trkpt>
      <trkpt lat="50.47239" lon="3.24217">
        <ele>40.51</ele>
        <time>2021-08-07T15:43:33Z</time>
      </trkpt>
      <trkpt lat="50.47234" lon="3.24223">
        <ele>40.51</ele>
        <time>2021-08-07T15:43:34Z</time>
      </trkpt>
      <trkpt lat="50.47229" lon="3.24228">
        <ele>40.51</ele>
        <time>2021-08-07T15:43:35Z</time>
      </trkpt>
      <trkpt lat="50.47187" lon="3.24263">
        <ele>40.51</ele>
        <time>2021-08-07T15:43:43Z</time>
      </trkpt>
      <trkpt lat="50.47177" lon="3.24273">
        <ele>40.51</ele>
        <time>2021-08-07T15:43:45Z</time>
      </trkpt>
      <trkpt lat="50.47175" lon="3.24279">
        <ele>40.51</ele>
        <time>2021-08-07T15:43:46Z</time>
      </trkpt>
      <trkpt lat="50.47176" lon="3.24287">
        <ele>40.51</ele>
        <time>2021-08-07T15:43:47Z</time>
      </trkpt>
      <trkpt lat="50.47178" lon="3.24295">
        <ele>40.51</ele>
        <time>2021-08-07T15:43:48Z</time>
      </trkpt>
      <trkpt lat="50.47181" lon="3.24301">
        <ele>40.51</ele>
        <time>2021-08-07T15:43:49Z</time>
      </trkpt>
      <trkpt lat="50.47184" lon="3.24307">
        <ele>40.51</ele>
        <time>2021-08-07T15:43:50Z</time>
      </trkpt>
      <trkpt lat="50.47189" lon="3.24322">
        <ele>40.51</ele>
        <time>2021-08-07T15:43:52Z</time>
      </trkpt>
      <trkpt lat="50.47211" lon="3.2438">
        <ele>40.51</ele>
        <time>2021-08-07T15:44:00Z</time>
      </trkpt>
      <trkpt lat="50.47211" lon="3.24385">
        <ele>40.51</ele>
        <time>2021-08-07T15:44:01Z</time>
      </trkpt>
      <trkpt lat="50.47209" lon="3.2439">
        <ele>40.51</ele>
        <time>2021-08-07T15:44:02Z</time>
      </trkpt>
      <trkpt lat="50.47207" lon="3.24392">
        <ele>40.51</ele>
        <time>2021-08-07T15:44:03Z</time>
      </trkpt>
      <trkpt lat="50.47182" lon="3.24411">
        <ele>40.51</ele>
        <time>2021-08-07T15:44:09Z</time>
      </trkpt>
      <trkpt lat="50.47138" lon="3.24444">
        <ele>40.51</ele>
        <time>2021-08-07T15:44:18Z</time>
      </trkpt>
      <trkpt lat="50.47124" lon="3.24454">
        <ele>40.03</ele>
        <time>2021-08-07T15:44:21Z</time>
      </trkpt>
      <trkpt lat="50.47121" lon="3.24458">
        <ele>39.55</ele>
        <time>2021-08-07T15:44:22Z</time>
      </trkpt>
      <trkpt lat="50.47119" lon="3.24466">
        <ele>39.55</ele>
        <time>2021-08-07T15:44:23Z</time>
      </trkpt>
      <trkpt lat="50.47121" lon="3.24473">
        <ele>39.55</ele>
        <time>2021-08-07T15:44:24Z</time>
      </trkpt>
      <trkpt lat="50.47124" lon="3.24479">
        <ele>39.55</ele>
        <time>2021-08-07T15:44:25Z</time>
      </trkpt>
      <trkpt lat="50.47126" lon="3.24485">
        <ele>39.55</ele>
        <time>2021-08-07T15:44:26Z</time>
      </trkpt>
      <trkpt lat="50.47146" lon="3.24538">
        <ele>39.55</ele>
        <time>2021-08-07T15:44:33Z</time>
      </trkpt>
      <trkpt lat="50.47166" lon="3.24599">
        <ele>39.07</ele>
        <time>2021-08-07T15:44:40Z</time>
      </trkpt>
      <trkpt lat="50.47168" lon="3.24608">
        <ele>39.07</ele>
        <time>2021-08-07T15:44:41Z</time>
      </trkpt>
      <trkpt lat="50.47169" lon="3.24618">
        <ele>39.07</ele>
        <time>2021-08-07T15:44:42Z</time>
      </trkpt>
      <trkpt lat="50.47169" lon="3.24628">
        <ele>39.07</ele>
        <time>2021-08-07T15:44:43Z</time>
      </trkpt>
      <trkpt lat="50.47167" lon="3.24637">
        <ele>38.59</ele>
        <time>2021-08-07T15:44:44Z</time>
      </trkpt>
      <trkpt lat="50.47165" lon="3.24646">
        <ele>38.59</ele>
        <time>2021-08-07T15:44:45Z</time>
      </trkpt>
      <trkpt lat="50.47162" lon="3.24654">
        <ele>38.59</ele>
        <time>2021-08-07T15:44:46Z</time>
      </trkpt>
      <trkpt lat="50.47133" lon="3.24708">
        <ele>37.15</ele>
        <time>2021-08-07T15:44:53Z</time>
      </trkpt>
      <trkpt lat="50.47099" lon="3.24766">
        <ele>36.19</ele>
        <time>2021-08-07T15:45:01Z</time>
      </trkpt>
      <trkpt lat="50.47057" lon="3.2484">
        <ele>35.71</ele>
        <time>2021-08-07T15:45:11Z</time>
      </trkpt>
      <trkpt lat="50.47027" lon="3.2489">
        <ele>34.74</ele>
        <time>2021-08-07T15:45:18Z</time>
      </trkpt>
      <trkpt lat="50.46989" lon="3.24934">
        <ele>34.26</ele>
        <time>2021-08-07T15:45:25Z</time>
      </trkpt>
      <trkpt lat="50.46952" lon="3.24978">
        <ele>33.78</ele>
        <time>2021-08-07T15:45:32Z</time>
      </trkpt>
      <trkpt lat="50.46916" lon="3.25051">
        <ele>33.78</ele>
        <time>2021-08-07T15:45:41Z</time>
      </trkpt>
      <trkpt lat="50.4688" lon="3.25125">
        <ele>32.82</ele>
        <time>2021-08-07T15:45:50Z</time>
      </trkpt>
      <trkpt lat="50.46849" lon="3.2519">
        <ele>31.86</ele>
        <time>2021-08-07T15:45:58Z</time>
      </trkpt>
      <trkpt lat="50.4681" lon="3.2527">
        <ele>32.34</ele>
        <time>2021-08-07T15:46:08Z</time>
      </trkpt>
      <trkpt lat="50.46805" lon="3.25276">
        <ele>32.34</ele>
        <time>2021-08-07T15:46:09Z</time>
      </trkpt>
      <trkpt lat="50.468" lon="3.25281">
        <ele>31.38</ele>
        <time>2021-08-07T15:46:10Z</time>
      </trkpt>
      <trkpt lat="50.46794" lon="3.25284">
        <ele>31.38</ele>
        <time>2021-08-07T15:46:11Z</time>
      </trkpt>
      <trkpt lat="50.46789" lon="3.25286">
        <ele>31.38</ele>
        <time>2021-08-07T15:46:12Z</time>
      </trkpt>
      <trkpt lat="50.46784" lon="3.25288">
        <ele>31.38</ele>
        <time>2021-08-07T15:46:13Z</time>
      </trkpt>
      <trkpt lat="50.46779" lon="3.25291">
        <ele>31.38</ele>
        <time>2021-08-07T15:46:14Z</time>
      </trkpt>
      <trkpt lat="50.46775" lon="3.25296">
        <ele>31.38</ele>
        <time>2021-08-07T15:46:15Z</time>
      </trkpt>
      <trkpt lat="50.46772" lon="3.25303">
        <ele>31.38</ele>
        <time>2021-08-07T15:46:16Z</time>
      </trkpt>
      <trkpt lat="50.4677" lon="3.2531">
        <ele>31.38</ele>
        <time>2021-08-07T15:46:17Z</time>
      </trkpt>
      <trkpt lat="50.4677" lon="3.25318">
        <ele>31.38</ele>
        <time>2021-08-07T15:46:18Z</time>
      </trkpt>
      <trkpt lat="50.46771" lon="3.25327">
        <ele>31.38</ele>
        <time>2021-08-07T15:46:19Z</time>
      </trkpt>
      <trkpt lat="50.46772" lon="3.25336">
        <ele>31.38</ele>
        <time>2021-08-07T15:46:20Z</time>
      </trkpt>
      <trkpt lat="50.46772" lon="3.25346">
        <ele>31.38</ele>
        <time>2021-08-07T15:46:21Z</time>
      </trkpt>
      <trkpt lat="50.46772" lon="3.25354">
        <ele>31.38</ele>
        <time>2021-08-07T15:46:22Z</time>
      </trkpt>
      <trkpt lat="50.46771" lon="3.25365">
        <ele>31.38</ele>
        <time>2021-08-07T15:46:23Z</time>
      </trkpt>
      <trkpt lat="50.4677" lon="3.25373">
        <ele>31.38</ele>
        <time>2021-08-07T15:46:24Z</time>
      </trkpt>
      <trkpt lat="50.46768" lon="3.25383">
        <ele>31.38</ele>
        <time>2021-08-07T15:46:25Z</time>
      </trkpt>
      <trkpt lat="50.46766" lon="3.25391">
        <ele>31.38</ele>
        <time>2021-08-07T15:46:26Z</time>
      </trkpt>
      <trkpt lat="50.46763" lon="3.254">
        <ele>31.38</ele>
        <time>2021-08-07T15:46:27Z</time>
      </trkpt>
      <trkpt lat="50.46741" lon="3.25479">
        <ele>31.38</ele>
        <time>2021-08-07T15:46:36Z</time>
      </trkpt>
      <trkpt lat="50.46715" lon="3.25582">
        <ele>30.9</ele>
        <time>2021-08-07T15:46:47Z</time>
      </trkpt>
      <trkpt lat="50.46693" lon="3.25666">
        <ele>30.42</ele>
        <time>2021-08-07T15:46:56Z</time>
      </trkpt>
      <trkpt lat="50.46676" lon="3.2573">
        <ele>30.42</ele>
        <time>2021-08-07T15:47:03Z</time>
      </trkpt>
      <trkpt lat="50.46668" lon="3.25747">
        <ele>30.42</ele>
        <time>2021-08-07T15:47:05Z</time>
      </trkpt>
      <trkpt lat="50.46664" lon="3.25754">
        <ele>29.94</ele>
        <time>2021-08-07T15:47:06Z</time>
      </trkpt>
      <trkpt lat="50.46619" lon="3.25805">
        <ele>28.5</ele>
        <time>2021-08-07T15:47:14Z</time>
      </trkpt>
      <trkpt lat="50.46613" lon="3.25809">
        <ele>28.5</ele>
        <time>2021-08-07T15:47:15Z</time>
      </trkpt>
      <trkpt lat="50.46606" lon="3.25811">
        <ele>28.5</ele>
        <time>2021-08-07T15:47:16Z</time>
      </trkpt>
      <trkpt lat="50.466" lon="3.25813">
        <ele>28.5</ele>
        <time>2021-08-07T15:47:17Z</time>
      </trkpt>
      <trkpt lat="50.46593" lon="3.25814">
        <ele>28.5</ele>
        <time>2021-08-07T15:47:18Z</time>
      </trkpt>
      <trkpt lat="50.46587" lon="3.25814">
        <ele>28.5</ele>
        <time>2021-08-07T15:47:19Z</time>
      </trkpt>
      <trkpt lat="50.46536" lon="3.25821">
        <ele>28.5</ele>
        <time>2021-08-07T15:47:27Z</time>
      </trkpt>
      <trkpt lat="50.46494" lon="3.25831">
        <ele>28.5</ele>
        <time>2021-08-07T15:47:34Z</time>
      </trkpt>
      <trkpt lat="50.46489" lon="3.25834">
        <ele>28.5</ele>
        <time>2021-08-07T15:47:35Z</time>
      </trkpt>
      <trkpt lat="50.46484" lon="3.25837">
        <ele>28.5</ele>
        <time>2021-08-07T15:47:36Z</time>
      </trkpt>
      <trkpt lat="50.46479" lon="3.25842">
        <ele>28.98</ele>
        <time>2021-08-07T15:47:37Z</time>
      </trkpt>
      <trkpt lat="50.46474" lon="3.25846">
        <ele>28.98</ele>
        <time>2021-08-07T15:47:38Z</time>
      </trkpt>
      <trkpt lat="50.46447" lon="3.25873">
        <ele>28.5</ele>
        <time>2021-08-07T15:47:44Z</time>
      </trkpt>
      <trkpt lat="50.46395" lon="3.25931">
        <ele>28.98</ele>
        <time>2021-08-07T15:47:56Z</time>
      </trkpt>
      <trkpt lat="50.46354" lon="3.25981">
        <ele>28.98</ele>
        <time>2021-08-07T15:48:06Z</time>
      </trkpt>
      <trkpt lat="50.46342" lon="3.25994">
        <ele>29.94</ele>
        <time>2021-08-07T15:48:09Z</time>
      </trkpt>
      <trkpt lat="50.4631" lon="3.26034">
        <ele>30.42</ele>
        <time>2021-08-07T15:48:18Z</time>
      </trkpt>
      <trkpt lat="50.46303" lon="3.26043">
        <ele>30.42</ele>
        <time>2021-08-07T15:48:20Z</time>
      </trkpt>
      <trkpt lat="50.46278" lon="3.26078">
        <ele>30.42</ele>
        <time>2021-08-07T15:48:27Z</time>
      </trkpt>
      <trkpt lat="50.4625" lon="3.2612">
        <ele>30.9</ele>
        <time>2021-08-07T15:48:35Z</time>
      </trkpt>
      <trkpt lat="50.46207" lon="3.26176">
        <ele>30.9</ele>
        <time>2021-08-07T15:48:46Z</time>
      </trkpt>
      <trkpt lat="50.46177" lon="3.26222">
        <ele>31.38</ele>
        <time>2021-08-07T15:48:55Z</time>
      </trkpt>
      <trkpt lat="50.4615" lon="3.26278">
        <ele>31.38</ele>
        <time>2021-08-07T15:49:04Z</time>
      </trkpt>
      <trkpt lat="50.46127" lon="3.26338">
        <ele>31.38</ele>
        <time>2021-08-07T15:49:13Z</time>
      </trkpt>
      <trkpt lat="50.46105" lon="3.264">
        <ele>31.86</ele>
        <time>2021-08-07T15:49:22Z</time>
      </trkpt>
      <trkpt lat="50.46078" lon="3.26473">
        <ele>31.86</ele>
        <time>2021-08-07T15:49:33Z</time>
      </trkpt>
      <trkpt lat="50.46056" lon="3.26536">
        <ele>31.86</ele>
        <time>2021-08-07T15:49:42Z</time>
      </trkpt>
      <trkpt lat="50.46054" lon="3.26543">
        <ele>31.86</ele>
        <time>2021-08-07T15:49:43Z</time>
      </trkpt>
      <trkpt lat="50.46053" lon="3.26546">
        <ele>31.86</ele>
        <time>2021-08-07T15:49:44Z</time>
      </trkpt>
      <trkpt lat="50.46054" lon="3.26548">
        <ele>32.34</ele>
        <time>2021-08-07T15:49:47Z</time>
      </trkpt>
      <trkpt lat="50.46055" lon="3.26542">
        <ele>32.34</ele>
        <time>2021-08-07T15:49:51Z</time>
      </trkpt>
      <trkpt lat="50.46055" lon="3.26539">
        <ele>32.34</ele>
        <time>2021-08-07T15:49:52Z</time>
      </trkpt>
      <trkpt lat="50.46053" lon="3.26531">
        <ele>32.34</ele>
        <time>2021-08-07T15:49:55Z</time>
      </trkpt>
      <trkpt lat="50.46052" lon="3.26531">
        <ele>32.34</ele>
        <time>2021-08-07T15:49:56Z</time>
      </trkpt>
      <trkpt lat="50.4605" lon="3.26531">
        <ele>32.34</ele>
        <time>2021-08-07T15:49:57Z</time>
      </trkpt>
      <trkpt lat="50.46049" lon="3.2653">
        <ele>32.34</ele>
        <time>2021-08-07T15:49:58Z</time>
      </trkpt>
      <trkpt lat="50.46047" lon="3.2653">
        <ele>32.34</ele>
        <time>2021-08-07T15:49:59Z</time>
      </trkpt>
      <trkpt lat="50.46031" lon="3.26534">
        <ele>32.34</ele>
        <time>2021-08-07T15:50:05Z</time>
      </trkpt>
      <trkpt lat="50.46007" lon="3.26539">
        <ele>32.34</ele>
        <time>2021-08-07T15:50:11Z</time>
      </trkpt>
      <trkpt lat="50.46003" lon="3.26541">
        <ele>32.34</ele>
        <time>2021-08-07T15:50:12Z</time>
      </trkpt>
      <trkpt lat="50.45981" lon="3.26547">
        <ele>32.34</ele>
        <time>2021-08-07T15:50:17Z</time>
      </trkpt>
      <trkpt lat="50.45972" lon="3.26548">
        <ele>32.34</ele>
        <time>2021-08-07T15:50:18Z</time>
      </trkpt>
      <trkpt lat="50.45948" lon="3.26559">
        <ele>31.38</ele>
        <time>2021-08-07T15:50:23Z</time>
      </trkpt>
      <trkpt lat="50.45943" lon="3.26561">
        <ele>31.38</ele>
        <time>2021-08-07T15:50:24Z</time>
      </trkpt>
      <trkpt lat="50.45937" lon="3.26562">
        <ele>31.38</ele>
        <time>2021-08-07T15:50:25Z</time>
      </trkpt>
      <trkpt lat="50.45896" lon="3.26571">
        <ele>31.38</ele>
        <time>2021-08-07T15:50:32Z</time>
      </trkpt>
      <trkpt lat="50.45859" lon="3.26581">
        <ele>30.42</ele>
        <time>2021-08-07T15:50:38Z</time>
      </trkpt>
      <trkpt lat="50.45807" lon="3.26596">
        <ele>29.94</ele>
        <time>2021-08-07T15:50:46Z</time>
      </trkpt>
      <trkpt lat="50.45745" lon="3.2661">
        <ele>28.98</ele>
        <time>2021-08-07T15:50:55Z</time>
      </trkpt>
      <trkpt lat="50.45697" lon="3.26622">
        <ele>28.5</ele>
        <time>2021-08-07T15:51:02Z</time>
      </trkpt>
      <trkpt lat="50.45648" lon="3.26635">
        <ele>28.02</ele>
        <time>2021-08-07T15:51:09Z</time>
      </trkpt>
      <trkpt lat="50.45584" lon="3.26651">
        <ele>27.53</ele>
        <time>2021-08-07T15:51:18Z</time>
      </trkpt>
      <trkpt lat="50.45543" lon="3.26662">
        <ele>27.05</ele>
        <time>2021-08-07T15:51:24Z</time>
      </trkpt>
      <trkpt lat="50.45538" lon="3.26665">
        <ele>27.05</ele>
        <time>2021-08-07T15:51:25Z</time>
      </trkpt>
      <trkpt lat="50.45534" lon="3.26666">
        <ele>27.05</ele>
        <time>2021-08-07T15:51:26Z</time>
      </trkpt>
      <trkpt lat="50.45531" lon="3.26666">
        <ele>27.05</ele>
        <time>2021-08-07T15:51:27Z</time>
      </trkpt>
      <trkpt lat="50.45528" lon="3.26667">
        <ele>27.05</ele>
        <time>2021-08-07T15:51:28Z</time>
      </trkpt>
      <trkpt lat="50.45526" lon="3.26669">
        <ele>27.05</ele>
        <time>2021-08-07T15:51:29Z</time>
      </trkpt>
      <trkpt lat="50.45523" lon="3.2667">
        <ele>28.02</ele>
        <time>2021-08-07T15:51:30Z</time>
      </trkpt>
      <trkpt lat="50.45522" lon="3.26669">
        <ele>28.02</ele>
        <time>2021-08-07T15:51:31Z</time>
      </trkpt>
      <trkpt lat="50.45519" lon="3.26668">
        <ele>28.02</ele>
        <time>2021-08-07T15:51:32Z</time>
      </trkpt>
      <trkpt lat="50.45516" lon="3.26668">
        <ele>28.02</ele>
        <time>2021-08-07T15:51:33Z</time>
      </trkpt>
      <trkpt lat="50.45513" lon="3.26669">
        <ele>28.02</ele>
        <time>2021-08-07T15:51:34Z</time>
      </trkpt>
      <trkpt lat="50.45509" lon="3.2667">
        <ele>28.02</ele>
        <time>2021-08-07T15:51:35Z</time>
      </trkpt>
      <trkpt lat="50.45499" lon="3.26672">
        <ele>28.02</ele>
        <time>2021-08-07T15:51:37Z</time>
      </trkpt>
      <trkpt lat="50.45484" lon="3.26674">
        <ele>27.05</ele>
        <time>2021-08-07T15:51:40Z</time>
      </trkpt>
      <trkpt lat="50.45479" lon="3.26676">
        <ele>27.05</ele>
        <time>2021-08-07T15:51:41Z</time>
      </trkpt>
      <trkpt lat="50.45444" lon="3.26685">
        <ele>26.57</ele>
        <time>2021-08-07T15:51:47Z</time>
      </trkpt>
      <trkpt lat="50.45403" lon="3.26696">
        <ele>26.57</ele>
        <time>2021-08-07T15:51:54Z</time>
      </trkpt>
      <trkpt lat="50.45354" lon="3.26707">
        <ele>26.09</ele>
        <time>2021-08-07T15:52:02Z</time>
      </trkpt>
      <trkpt lat="50.45318" lon="3.26716">
        <ele>26.09</ele>
        <time>2021-08-07T15:52:08Z</time>
      </trkpt>
      <trkpt lat="50.45264" lon="3.26731">
        <ele>25.61</ele>
        <time>2021-08-07T15:52:16Z</time>
      </trkpt>
      <trkpt lat="50.45245" lon="3.26736">
        <ele>25.61</ele>
        <time>2021-08-07T15:52:19Z</time>
      </trkpt>
      <trkpt lat="50.45238" lon="3.26738">
        <ele>25.61</ele>
        <time>2021-08-07T15:52:20Z</time>
      </trkpt>
      <trkpt lat="50.45179" lon="3.26751">
        <ele>25.13</ele>
        <time>2021-08-07T15:52:29Z</time>
      </trkpt>
      <trkpt lat="50.45131" lon="3.26764">
        <ele>25.13</ele>
        <time>2021-08-07T15:52:36Z</time>
      </trkpt>
      <trkpt lat="50.45124" lon="3.26766">
        <ele>25.13</ele>
        <time>2021-08-07T15:52:37Z</time>
      </trkpt>
      <trkpt lat="50.45118" lon="3.26767">
        <ele>25.13</ele>
        <time>2021-08-07T15:52:38Z</time>
      </trkpt>
      <trkpt lat="50.45059" lon="3.26781">
        <ele>24.65</ele>
        <time>2021-08-07T15:52:47Z</time>
      </trkpt>
      <trkpt lat="50.45" lon="3.26798">
        <ele>24.17</ele>
        <time>2021-08-07T15:52:56Z</time>
      </trkpt>
      <trkpt lat="50.4497" lon="3.26809">
        <ele>23.21</ele>
        <time>2021-08-07T15:53:01Z</time>
      </trkpt>
      <trkpt lat="50.44965" lon="3.26812">
        <ele>23.21</ele>
        <time>2021-08-07T15:53:02Z</time>
      </trkpt>
      <trkpt lat="50.4496" lon="3.26815">
        <ele>23.21</ele>
        <time>2021-08-07T15:53:03Z</time>
      </trkpt>
      <trkpt lat="50.44955" lon="3.26817">
        <ele>23.21</ele>
        <time>2021-08-07T15:53:04Z</time>
      </trkpt>
      <trkpt lat="50.44951" lon="3.26817">
        <ele>23.21</ele>
        <time>2021-08-07T15:53:05Z</time>
      </trkpt>
      <trkpt lat="50.44947" lon="3.26816">
        <ele>24.65</ele>
        <time>2021-08-07T15:53:06Z</time>
      </trkpt>
      <trkpt lat="50.44943" lon="3.26815">
        <ele>24.65</ele>
        <time>2021-08-07T15:53:07Z</time>
      </trkpt>
      <trkpt lat="50.44938" lon="3.26814">
        <ele>24.65</ele>
        <time>2021-08-07T15:53:08Z</time>
      </trkpt>
      <trkpt lat="50.44933" lon="3.26815">
        <ele>24.65</ele>
        <time>2021-08-07T15:53:09Z</time>
      </trkpt>
      <trkpt lat="50.44928" lon="3.26816">
        <ele>24.65</ele>
        <time>2021-08-07T15:53:10Z</time>
      </trkpt>
      <trkpt lat="50.44891" lon="3.26826">
        <ele>24.65</ele>
        <time>2021-08-07T15:53:17Z</time>
      </trkpt>
      <trkpt lat="50.44833" lon="3.26843">
        <ele>23.21</ele>
        <time>2021-08-07T15:53:27Z</time>
      </trkpt>
      <trkpt lat="50.44781" lon="3.26854">
        <ele>23.21</ele>
        <time>2021-08-07T15:53:36Z</time>
      </trkpt>
      <trkpt lat="50.44749" lon="3.26866">
        <ele>23.21</ele>
        <time>2021-08-07T15:53:43Z</time>
      </trkpt>
      <trkpt lat="50.44747" lon="3.26865">
        <ele>23.21</ele>
        <time>2021-08-07T15:53:44Z</time>
      </trkpt>
      <trkpt lat="50.44746" lon="3.26865">
        <ele>23.21</ele>
        <time>2021-08-07T15:53:45Z</time>
      </trkpt>
      <trkpt lat="50.44744" lon="3.26865">
        <ele>23.21</ele>
        <time>2021-08-07T15:53:46Z</time>
      </trkpt>
      <trkpt lat="50.44742" lon="3.26866">
        <ele>23.21</ele>
        <time>2021-08-07T15:53:47Z</time>
      </trkpt>
      <trkpt lat="50.44739" lon="3.26867">
        <ele>23.21</ele>
        <time>2021-08-07T15:53:48Z</time>
      </trkpt>
      <trkpt lat="50.44714" lon="3.26873">
        <ele>23.21</ele>
        <time>2021-08-07T15:53:55Z</time>
      </trkpt>
      <trkpt lat="50.44711" lon="3.26872">
        <ele>23.21</ele>
        <time>2021-08-07T15:53:56Z</time>
      </trkpt>
      <trkpt lat="50.44709" lon="3.26871">
        <ele>23.21</ele>
        <time>2021-08-07T15:53:57Z</time>
      </trkpt>
      <trkpt lat="50.44706" lon="3.26872">
        <ele>23.21</ele>
        <time>2021-08-07T15:54:02Z</time>
      </trkpt>
      <trkpt lat="50.44704" lon="3.26873">
        <ele>23.21</ele>
        <time>2021-08-07T15:54:04Z</time>
      </trkpt>
      <trkpt lat="50.44702" lon="3.26874">
        <ele>23.21</ele>
        <time>2021-08-07T15:54:05Z</time>
      </trkpt>
      <trkpt lat="50.447" lon="3.26876">
        <ele>23.21</ele>
        <time>2021-08-07T15:54:06Z</time>
      </trkpt>
      <trkpt lat="50.44699" lon="3.26877">
        <ele>23.21</ele>
        <time>2021-08-07T15:54:07Z</time>
      </trkpt>
      <trkpt lat="50.44696" lon="3.26877">
        <ele>23.21</ele>
        <time>2021-08-07T15:54:08Z</time>
      </trkpt>
      <trkpt lat="50.44693" lon="3.26876">
        <ele>23.21</ele>
        <time>2021-08-07T15:54:09Z</time>
      </trkpt>
      <trkpt lat="50.44691" lon="3.26876">
        <ele>23.21</ele>
        <time>2021-08-07T15:54:10Z</time>
      </trkpt>
      <trkpt lat="50.44688" lon="3.26876">
        <ele>23.21</ele>
        <time>2021-08-07T15:54:11Z</time>
      </trkpt>
      <trkpt lat="50.44685" lon="3.26877">
        <ele>23.21</ele>
        <time>2021-08-07T15:54:12Z</time>
      </trkpt>
      <trkpt lat="50.4467" lon="3.26881">
        <ele>23.21</ele>
        <time>2021-08-07T15:54:16Z</time>
      </trkpt>
      <trkpt lat="50.44626" lon="3.26895">
        <ele>23.21</ele>
        <time>2021-08-07T15:54:24Z</time>
      </trkpt>
      <trkpt lat="50.44604" lon="3.26901">
        <ele>22.73</ele>
        <time>2021-08-07T15:54:28Z</time>
      </trkpt>
      <trkpt lat="50.44593" lon="3.26905">
        <ele>22.73</ele>
        <time>2021-08-07T15:54:30Z</time>
      </trkpt>
      <trkpt lat="50.44587" lon="3.26907">
        <ele>22.73</ele>
        <time>2021-08-07T15:54:31Z</time>
      </trkpt>
      <trkpt lat="50.44549" lon="3.26922">
        <ele>22.73</ele>
        <time>2021-08-07T15:54:38Z</time>
      </trkpt>
      <trkpt lat="50.44521" lon="3.26932">
        <ele>22.73</ele>
        <time>2021-08-07T15:54:43Z</time>
      </trkpt>
      <trkpt lat="50.44472" lon="3.26956">
        <ele>22.73</ele>
        <time>2021-08-07T15:54:52Z</time>
      </trkpt>
      <trkpt lat="50.44417" lon="3.26981">
        <ele>22.73</ele>
        <time>2021-08-07T15:55:02Z</time>
      </trkpt>
      <trkpt lat="50.44411" lon="3.26983">
        <ele>22.73</ele>
        <time>2021-08-07T15:55:03Z</time>
      </trkpt>
      <trkpt lat="50.44386" lon="3.26993">
        <ele>22.73</ele>
        <time>2021-08-07T15:55:08Z</time>
      </trkpt>
      <trkpt lat="50.4438" lon="3.26994">
        <ele>22.73</ele>
        <time>2021-08-07T15:55:09Z</time>
      </trkpt>
      <trkpt lat="50.44375" lon="3.26996">
        <ele>22.73</ele>
        <time>2021-08-07T15:55:10Z</time>
      </trkpt>
      <trkpt lat="50.4437" lon="3.27">
        <ele>22.73</ele>
        <time>2021-08-07T15:55:11Z</time>
      </trkpt>
      <trkpt lat="50.44366" lon="3.27003">
        <ele>22.73</ele>
        <time>2021-08-07T15:55:12Z</time>
      </trkpt>
      <trkpt lat="50.44361" lon="3.27005">
        <ele>22.73</ele>
        <time>2021-08-07T15:55:13Z</time>
      </trkpt>
      <trkpt lat="50.44356" lon="3.27007">
        <ele>22.73</ele>
        <time>2021-08-07T15:55:14Z</time>
      </trkpt>
      <trkpt lat="50.44352" lon="3.2701">
        <ele>22.73</ele>
        <time>2021-08-07T15:55:15Z</time>
      </trkpt>
      <trkpt lat="50.44313" lon="3.27027">
        <ele>22.73</ele>
        <time>2021-08-07T15:55:23Z</time>
      </trkpt>
      <trkpt lat="50.44265" lon="3.27048">
        <ele>22.73</ele>
        <time>2021-08-07T15:55:33Z</time>
      </trkpt>
      <trkpt lat="50.44226" lon="3.27066">
        <ele>22.73</ele>
        <time>2021-08-07T15:55:41Z</time>
      </trkpt>
      <trkpt lat="50.442" lon="3.27081">
        <ele>22.73</ele>
        <time>2021-08-07T15:55:48Z</time>
      </trkpt>
      <trkpt lat="50.4419" lon="3.27083">
        <ele>22.73</ele>
        <time>2021-08-07T15:55:51Z</time>
      </trkpt>
      <trkpt lat="50.44186" lon="3.27085">
        <ele>22.73</ele>
        <time>2021-08-07T15:55:52Z</time>
      </trkpt>
      <trkpt lat="50.44181" lon="3.27088">
        <ele>22.73</ele>
        <time>2021-08-07T15:55:53Z</time>
      </trkpt>
      <trkpt lat="50.44177" lon="3.2709">
        <ele>22.73</ele>
        <time>2021-08-07T15:55:54Z</time>
      </trkpt>
      <trkpt lat="50.44173" lon="3.27091">
        <ele>22.73</ele>
        <time>2021-08-07T15:55:55Z</time>
      </trkpt>
      <trkpt lat="50.44147" lon="3.27101">
        <ele>22.73</ele>
        <time>2021-08-07T15:56:01Z</time>
      </trkpt>
      <trkpt lat="50.44143" lon="3.27102">
        <ele>22.73</ele>
        <time>2021-08-07T15:56:02Z</time>
      </trkpt>
      <trkpt lat="50.44106" lon="3.2712">
        <ele>22.73</ele>
        <time>2021-08-07T15:56:09Z</time>
      </trkpt>
      <trkpt lat="50.44078" lon="3.27131">
        <ele>22.73</ele>
        <time>2021-08-07T15:56:14Z</time>
      </trkpt>
      <trkpt lat="50.44066" lon="3.27133">
        <ele>22.73</ele>
        <time>2021-08-07T15:56:16Z</time>
      </trkpt>
      <trkpt lat="50.44018" lon="3.27154">
        <ele>22.25</ele>
        <time>2021-08-07T15:56:24Z</time>
      </trkpt>
      <trkpt lat="50.43987" lon="3.27165">
        <ele>22.25</ele>
        <time>2021-08-07T15:56:30Z</time>
      </trkpt>
      <trkpt lat="50.43947" lon="3.27181">
        <ele>22.25</ele>
        <time>2021-08-07T15:56:37Z</time>
      </trkpt>
      <trkpt lat="50.43903" lon="3.27202">
        <ele>22.25</ele>
        <time>2021-08-07T15:56:45Z</time>
      </trkpt>
      <trkpt lat="50.43885" lon="3.2721">
        <ele>22.25</ele>
        <time>2021-08-07T15:56:48Z</time>
      </trkpt>
      <trkpt lat="50.4388" lon="3.27211">
        <ele>22.25</ele>
        <time>2021-08-07T15:56:49Z</time>
      </trkpt>
      <trkpt lat="50.43874" lon="3.27214">
        <ele>22.25</ele>
        <time>2021-08-07T15:56:50Z</time>
      </trkpt>
      <trkpt lat="50.43829" lon="3.27235">
        <ele>22.25</ele>
        <time>2021-08-07T15:56:58Z</time>
      </trkpt>
      <trkpt lat="50.43802" lon="3.27244">
        <ele>21.77</ele>
        <time>2021-08-07T15:57:03Z</time>
      </trkpt>
      <trkpt lat="50.43799" lon="3.27248">
        <ele>21.77</ele>
        <time>2021-08-07T15:57:04Z</time>
      </trkpt>
      <trkpt lat="50.43796" lon="3.27252">
        <ele>21.77</ele>
        <time>2021-08-07T15:57:05Z</time>
      </trkpt>
      <trkpt lat="50.43794" lon="3.27257">
        <ele>21.77</ele>
        <time>2021-08-07T15:57:06Z</time>
      </trkpt>
      <trkpt lat="50.43794" lon="3.27263">
        <ele>21.77</ele>
        <time>2021-08-07T15:57:07Z</time>
      </trkpt>
      <trkpt lat="50.43794" lon="3.27269">
        <ele>21.77</ele>
        <time>2021-08-07T15:57:08Z</time>
      </trkpt>
      <trkpt lat="50.43794" lon="3.27276">
        <ele>21.77</ele>
        <time>2021-08-07T15:57:09Z</time>
      </trkpt>
      <trkpt lat="50.43793" lon="3.27283">
        <ele>21.77</ele>
        <time>2021-08-07T15:57:10Z</time>
      </trkpt>
      <trkpt lat="50.43793" lon="3.27291">
        <ele>21.77</ele>
        <time>2021-08-07T15:57:11Z</time>
      </trkpt>
      <trkpt lat="50.43792" lon="3.27299">
        <ele>22.25</ele>
        <time>2021-08-07T15:57:12Z</time>
      </trkpt>
      <trkpt lat="50.43791" lon="3.27306">
        <ele>22.25</ele>
        <time>2021-08-07T15:57:13Z</time>
      </trkpt>
      <trkpt lat="50.43789" lon="3.27313">
        <ele>22.25</ele>
        <time>2021-08-07T15:57:14Z</time>
      </trkpt>
      <trkpt lat="50.43787" lon="3.27327">
        <ele>23.21</ele>
        <time>2021-08-07T15:57:16Z</time>
      </trkpt>
      <trkpt lat="50.43783" lon="3.27371">
        <ele>22.25</ele>
        <time>2021-08-07T15:57:21Z</time>
      </trkpt>
      <trkpt lat="50.43783" lon="3.2739">
        <ele>22.25</ele>
        <time>2021-08-07T15:57:23Z</time>
      </trkpt>
      <trkpt lat="50.43784" lon="3.27407">
        <ele>22.25</ele>
        <time>2021-08-07T15:57:25Z</time>
      </trkpt>
      <trkpt lat="50.43783" lon="3.27415">
        <ele>22.25</ele>
        <time>2021-08-07T15:57:26Z</time>
      </trkpt>
      <trkpt lat="50.43781" lon="3.27446">
        <ele>22.25</ele>
        <time>2021-08-07T15:57:30Z</time>
      </trkpt>
      <trkpt lat="50.4378" lon="3.27454">
        <ele>22.25</ele>
        <time>2021-08-07T15:57:31Z</time>
      </trkpt>
      <trkpt lat="50.4378" lon="3.27519">
        <ele>23.21</ele>
        <time>2021-08-07T15:57:39Z</time>
      </trkpt>
      <trkpt lat="50.43781" lon="3.27558">
        <ele>23.21</ele>
        <time>2021-08-07T15:57:44Z</time>
      </trkpt>
      <trkpt lat="50.43778" lon="3.27582">
        <ele>23.21</ele>
        <time>2021-08-07T15:57:47Z</time>
      </trkpt>
      <trkpt lat="50.43775" lon="3.27598">
        <ele>23.21</ele>
        <time>2021-08-07T15:57:49Z</time>
      </trkpt>
      <trkpt lat="50.43774" lon="3.27624">
        <ele>23.21</ele>
        <time>2021-08-07T15:57:52Z</time>
      </trkpt>
      <trkpt lat="50.43775" lon="3.27689">
        <ele>23.21</ele>
        <time>2021-08-07T15:58:00Z</time>
      </trkpt>
      <trkpt lat="50.43775" lon="3.27697">
        <ele>22.25</ele>
        <time>2021-08-07T15:58:01Z</time>
      </trkpt>
      <trkpt lat="50.43774" lon="3.27711">
        <ele>22.25</ele>
        <time>2021-08-07T15:58:03Z</time>
      </trkpt>
      <trkpt lat="50.43772" lon="3.27719">
        <ele>22.25</ele>
        <time>2021-08-07T15:58:04Z</time>
      </trkpt>
      <trkpt lat="50.43771" lon="3.27727">
        <ele>22.25</ele>
        <time>2021-08-07T15:58:05Z</time>
      </trkpt>
      <trkpt lat="50.43769" lon="3.2775">
        <ele>22.25</ele>
        <time>2021-08-07T15:58:08Z</time>
      </trkpt>
      <trkpt lat="50.43769" lon="3.27758">
        <ele>22.25</ele>
        <time>2021-08-07T15:58:09Z</time>
      </trkpt>
      <trkpt lat="50.43768" lon="3.27766">
        <ele>22.25</ele>
        <time>2021-08-07T15:58:10Z</time>
      </trkpt>
      <trkpt lat="50.43766" lon="3.27792">
        <ele>22.25</ele>
        <time>2021-08-07T15:58:13Z</time>
      </trkpt>
      <trkpt lat="50.43767" lon="3.27808">
        <ele>22.25</ele>
        <time>2021-08-07T15:58:15Z</time>
      </trkpt>
      <trkpt lat="50.43767" lon="3.27817">
        <ele>22.25</ele>
        <time>2021-08-07T15:58:16Z</time>
      </trkpt>
      <trkpt lat="50.43767" lon="3.27826">
        <ele>22.25</ele>
        <time>2021-08-07T15:58:17Z</time>
      </trkpt>
      <trkpt lat="50.43767" lon="3.27836">
        <ele>22.25</ele>
        <time>2021-08-07T15:58:18Z</time>
      </trkpt>
      <trkpt lat="50.43767" lon="3.27844">
        <ele>22.25</ele>
        <time>2021-08-07T15:58:19Z</time>
      </trkpt>
      <trkpt lat="50.43768" lon="3.27871">
        <ele>22.25</ele>
        <time>2021-08-07T15:58:22Z</time>
      </trkpt>
      <trkpt lat="50.43769" lon="3.27879">
        <ele>22.25</ele>
        <time>2021-08-07T15:58:23Z</time>
      </trkpt>
      <trkpt lat="50.43769" lon="3.27887">
        <ele>22.25</ele>
        <time>2021-08-07T15:58:24Z</time>
      </trkpt>
      <trkpt lat="50.4377" lon="3.27895">
        <ele>22.25</ele>
        <time>2021-08-07T15:58:25Z</time>
      </trkpt>
      <trkpt lat="50.43771" lon="3.27903">
        <ele>22.25</ele>
        <time>2021-08-07T15:58:26Z</time>
      </trkpt>
      <trkpt lat="50.43776" lon="3.27949">
        <ele>22.25</ele>
        <time>2021-08-07T15:58:33Z</time>
      </trkpt>
      <trkpt lat="50.43775" lon="3.27956">
        <ele>22.25</ele>
        <time>2021-08-07T15:58:34Z</time>
      </trkpt>
      <trkpt lat="50.43774" lon="3.27963">
        <ele>22.25</ele>
        <time>2021-08-07T15:58:35Z</time>
      </trkpt>
      <trkpt lat="50.43772" lon="3.27971">
        <ele>22.25</ele>
        <time>2021-08-07T15:58:36Z</time>
      </trkpt>
      <trkpt lat="50.43769" lon="3.27979">
        <ele>22.25</ele>
        <time>2021-08-07T15:58:37Z</time>
      </trkpt>
      <trkpt lat="50.43766" lon="3.27987">
        <ele>22.25</ele>
        <time>2021-08-07T15:58:38Z</time>
      </trkpt>
      <trkpt lat="50.43764" lon="3.27994">
        <ele>22.25</ele>
        <time>2021-08-07T15:58:39Z</time>
      </trkpt>
      <trkpt lat="50.43762" lon="3.28002">
        <ele>22.25</ele>
        <time>2021-08-07T15:58:40Z</time>
      </trkpt>
      <trkpt lat="50.43761" lon="3.28009">
        <ele>22.25</ele>
        <time>2021-08-07T15:58:41Z</time>
      </trkpt>
      <trkpt lat="50.43759" lon="3.28015">
        <ele>22.25</ele>
        <time>2021-08-07T15:58:42Z</time>
      </trkpt>
      <trkpt lat="50.43756" lon="3.2802">
        <ele>22.25</ele>
        <time>2021-08-07T15:58:43Z</time>
      </trkpt>
      <trkpt lat="50.43753" lon="3.28023">
        <ele>22.25</ele>
        <time>2021-08-07T15:58:44Z</time>
      </trkpt>
      <trkpt lat="50.4375" lon="3.28025">
        <ele>22.25</ele>
        <time>2021-08-07T15:58:45Z</time>
      </trkpt>
      <trkpt lat="50.43746" lon="3.28028">
        <ele>22.25</ele>
        <time>2021-08-07T15:58:46Z</time>
      </trkpt>
      <trkpt lat="50.43743" lon="3.28031">
        <ele>22.25</ele>
        <time>2021-08-07T15:58:47Z</time>
      </trkpt>
      <trkpt lat="50.43738" lon="3.28032">
        <ele>22.25</ele>
        <time>2021-08-07T15:58:48Z</time>
      </trkpt>
      <trkpt lat="50.43733" lon="3.28034">
        <ele>22.25</ele>
        <time>2021-08-07T15:58:49Z</time>
      </trkpt>
      <trkpt lat="50.43724" lon="3.28038">
        <ele>22.25</ele>
        <time>2021-08-07T15:58:51Z</time>
      </trkpt>
      <trkpt lat="50.4372" lon="3.2804">
        <ele>22.25</ele>
        <time>2021-08-07T15:58:52Z</time>
      </trkpt>
      <trkpt lat="50.43715" lon="3.28043">
        <ele>22.25</ele>
        <time>2021-08-07T15:58:53Z</time>
      </trkpt>
      <trkpt lat="50.43704" lon="3.28049">
        <ele>21.77</ele>
        <time>2021-08-07T15:58:55Z</time>
      </trkpt>
      <trkpt lat="50.43698" lon="3.28051">
        <ele>21.77</ele>
        <time>2021-08-07T15:58:56Z</time>
      </trkpt>
      <trkpt lat="50.43681" lon="3.28052">
        <ele>21.77</ele>
        <time>2021-08-07T15:58:59Z</time>
      </trkpt>
      <trkpt lat="50.43675" lon="3.28052">
        <ele>21.29</ele>
        <time>2021-08-07T15:59:00Z</time>
      </trkpt>
      <trkpt lat="50.43669" lon="3.28051">
        <ele>21.29</ele>
        <time>2021-08-07T15:59:01Z</time>
      </trkpt>
      <trkpt lat="50.43663" lon="3.28051">
        <ele>21.29</ele>
        <time>2021-08-07T15:59:02Z</time>
      </trkpt>
      <trkpt lat="50.43658" lon="3.28051">
        <ele>21.29</ele>
        <time>2021-08-07T15:59:03Z</time>
      </trkpt>
      <trkpt lat="50.43653" lon="3.28053">
        <ele>21.29</ele>
        <time>2021-08-07T15:59:04Z</time>
      </trkpt>
      <trkpt lat="50.43618" lon="3.28064">
        <ele>21.29</ele>
        <time>2021-08-07T15:59:11Z</time>
      </trkpt>
      <trkpt lat="50.43596" lon="3.28072">
        <ele>21.29</ele>
        <time>2021-08-07T15:59:15Z</time>
      </trkpt>
      <trkpt lat="50.43555" lon="3.2808">
        <ele>21.29</ele>
        <time>2021-08-07T15:59:22Z</time>
      </trkpt>
      <trkpt lat="50.43537" lon="3.28085">
        <ele>21.29</ele>
        <time>2021-08-07T15:59:25Z</time>
      </trkpt>
      <trkpt lat="50.43531" lon="3.28086">
        <ele>21.29</ele>
        <time>2021-08-07T15:59:26Z</time>
      </trkpt>
      <trkpt lat="50.43494" lon="3.28097">
        <ele>21.29</ele>
        <time>2021-08-07T15:59:32Z</time>
      </trkpt>
      <trkpt lat="50.43458" lon="3.28108">
        <ele>20.81</ele>
        <time>2021-08-07T15:59:38Z</time>
      </trkpt>
      <trkpt lat="50.4341" lon="3.2812">
        <ele>20.81</ele>
        <time>2021-08-07T15:59:46Z</time>
      </trkpt>
      <trkpt lat="50.43364" lon="3.2813">
        <ele>20.81</ele>
        <time>2021-08-07T15:59:53Z</time>
      </trkpt>
      <trkpt lat="50.43317" lon="3.28144">
        <ele>20.32</ele>
        <time>2021-08-07T16:00:01Z</time>
      </trkpt>
      <trkpt lat="50.43274" lon="3.28155">
        <ele>20.32</ele>
        <time>2021-08-07T16:00:09Z</time>
      </trkpt>
      <trkpt lat="50.43224" lon="3.28165">
        <ele>20.32</ele>
        <time>2021-08-07T16:00:18Z</time>
      </trkpt>
      <trkpt lat="50.43194" lon="3.28172">
        <ele>20.32</ele>
        <time>2021-08-07T16:00:23Z</time>
      </trkpt>
      <trkpt lat="50.43139" lon="3.28185">
        <ele>20.32</ele>
        <time>2021-08-07T16:00:32Z</time>
      </trkpt>
      <trkpt lat="50.431" lon="3.28195">
        <ele>20.32</ele>
        <time>2021-08-07T16:00:39Z</time>
      </trkpt>
      <trkpt lat="50.43065" lon="3.28202">
        <ele>20.32</ele>
        <time>2021-08-07T16:00:45Z</time>
      </trkpt>
      <trkpt lat="50.43029" lon="3.28212">
        <ele>20.32</ele>
        <time>2021-08-07T16:00:51Z</time>
      </trkpt>
      <trkpt lat="50.42975" lon="3.28227">
        <ele>20.81</ele>
        <time>2021-08-07T16:01:00Z</time>
      </trkpt>
      <trkpt lat="50.42947" lon="3.28235">
        <ele>20.81</ele>
        <time>2021-08-07T16:01:05Z</time>
      </trkpt>
      <trkpt lat="50.42908" lon="3.28245">
        <ele>20.81</ele>
        <time>2021-08-07T16:01:12Z</time>
      </trkpt>
      <trkpt lat="50.42867" lon="3.28256">
        <ele>20.81</ele>
        <time>2021-08-07T16:01:19Z</time>
      </trkpt>
      <trkpt lat="50.42821" lon="3.28265">
        <ele>20.32</ele>
        <time>2021-08-07T16:01:27Z</time>
      </trkpt>
      <trkpt lat="50.42809" lon="3.28267">
        <ele>20.32</ele>
        <time>2021-08-07T16:01:29Z</time>
      </trkpt>
      <trkpt lat="50.42767" lon="3.28276">
        <ele>20.32</ele>
        <time>2021-08-07T16:01:36Z</time>
      </trkpt>
      <trkpt lat="50.42749" lon="3.2828">
        <ele>20.32</ele>
        <time>2021-08-07T16:01:39Z</time>
      </trkpt>
      <trkpt lat="50.42743" lon="3.28282">
        <ele>20.32</ele>
        <time>2021-08-07T16:01:40Z</time>
      </trkpt>
      <trkpt lat="50.42691" lon="3.28295">
        <ele>20.32</ele>
        <time>2021-08-07T16:01:49Z</time>
      </trkpt>
      <trkpt lat="50.42663" lon="3.28303">
        <ele>20.32</ele>
        <time>2021-08-07T16:01:54Z</time>
      </trkpt>
      <trkpt lat="50.42635" lon="3.28311">
        <ele>20.32</ele>
        <time>2021-08-07T16:01:59Z</time>
      </trkpt>
      <trkpt lat="50.42603" lon="3.28322">
        <ele>20.32</ele>
        <time>2021-08-07T16:02:05Z</time>
      </trkpt>
      <trkpt lat="50.42563" lon="3.28333">
        <ele>20.81</ele>
        <time>2021-08-07T16:02:12Z</time>
      </trkpt>
      <trkpt lat="50.42546" lon="3.28338">
        <ele>20.81</ele>
        <time>2021-08-07T16:02:15Z</time>
      </trkpt>
      <trkpt lat="50.4254" lon="3.2834">
        <ele>20.81</ele>
        <time>2021-08-07T16:02:16Z</time>
      </trkpt>
      <trkpt lat="50.42534" lon="3.28342">
        <ele>20.81</ele>
        <time>2021-08-07T16:02:17Z</time>
      </trkpt>
      <trkpt lat="50.42529" lon="3.28343">
        <ele>20.81</ele>
        <time>2021-08-07T16:02:18Z</time>
      </trkpt>
      <trkpt lat="50.42523" lon="3.28344">
        <ele>20.81</ele>
        <time>2021-08-07T16:02:19Z</time>
      </trkpt>
      <trkpt lat="50.42517" lon="3.28345">
        <ele>20.81</ele>
        <time>2021-08-07T16:02:20Z</time>
      </trkpt>
      <trkpt lat="50.42477" lon="3.28356">
        <ele>20.81</ele>
        <time>2021-08-07T16:02:27Z</time>
      </trkpt>
      <trkpt lat="50.42437" lon="3.28366">
        <ele>20.81</ele>
        <time>2021-08-07T16:02:34Z</time>
      </trkpt>
      <trkpt lat="50.42431" lon="3.28368">
        <ele>20.81</ele>
        <time>2021-08-07T16:02:35Z</time>
      </trkpt>
      <trkpt lat="50.42425" lon="3.2837">
        <ele>20.81</ele>
        <time>2021-08-07T16:02:36Z</time>
      </trkpt>
      <trkpt lat="50.42419" lon="3.28372">
        <ele>20.81</ele>
        <time>2021-08-07T16:02:37Z</time>
      </trkpt>
      <trkpt lat="50.42374" lon="3.28387">
        <ele>20.81</ele>
        <time>2021-08-07T16:02:45Z</time>
      </trkpt>
      <trkpt lat="50.42368" lon="3.28389">
        <ele>20.81</ele>
        <time>2021-08-07T16:02:46Z</time>
      </trkpt>
      <trkpt lat="50.42362" lon="3.2839">
        <ele>20.81</ele>
        <time>2021-08-07T16:02:47Z</time>
      </trkpt>
      <trkpt lat="50.42356" lon="3.28391">
        <ele>20.81</ele>
        <time>2021-08-07T16:02:48Z</time>
      </trkpt>
      <trkpt lat="50.42351" lon="3.28392">
        <ele>20.81</ele>
        <time>2021-08-07T16:02:49Z</time>
      </trkpt>
      <trkpt lat="50.4234" lon="3.28394">
        <ele>20.81</ele>
        <time>2021-08-07T16:02:51Z</time>
      </trkpt>
      <trkpt lat="50.42334" lon="3.28397">
        <ele>20.81</ele>
        <time>2021-08-07T16:02:52Z</time>
      </trkpt>
      <trkpt lat="50.42328" lon="3.28399">
        <ele>20.81</ele>
        <time>2021-08-07T16:02:53Z</time>
      </trkpt>
      <trkpt lat="50.42299" lon="3.28408">
        <ele>20.81</ele>
        <time>2021-08-07T16:02:58Z</time>
      </trkpt>
      <trkpt lat="50.42256" lon="3.28418">
        <ele>20.81</ele>
        <time>2021-08-07T16:03:05Z</time>
      </trkpt>
      <trkpt lat="50.4225" lon="3.2842">
        <ele>20.81</ele>
        <time>2021-08-07T16:03:06Z</time>
      </trkpt>
      <trkpt lat="50.42216" lon="3.28428">
        <ele>20.32</ele>
        <time>2021-08-07T16:03:12Z</time>
      </trkpt>
      <trkpt lat="50.42162" lon="3.28438">
        <ele>20.32</ele>
        <time>2021-08-07T16:03:21Z</time>
      </trkpt>
      <trkpt lat="50.42133" lon="3.28443">
        <ele>20.32</ele>
        <time>2021-08-07T16:03:26Z</time>
      </trkpt>
      <trkpt lat="50.42126" lon="3.28445">
        <ele>20.32</ele>
        <time>2021-08-07T16:03:27Z</time>
      </trkpt>
      <trkpt lat="50.42115" lon="3.28447">
        <ele>20.32</ele>
        <time>2021-08-07T16:03:29Z</time>
      </trkpt>
      <trkpt lat="50.42109" lon="3.28448">
        <ele>20.32</ele>
        <time>2021-08-07T16:03:30Z</time>
      </trkpt>
      <trkpt lat="50.42074" lon="3.28456">
        <ele>20.32</ele>
        <time>2021-08-07T16:03:36Z</time>
      </trkpt>
      <trkpt lat="50.42067" lon="3.28456">
        <ele>20.32</ele>
        <time>2021-08-07T16:03:37Z</time>
      </trkpt>
      <trkpt lat="50.42027" lon="3.28462">
        <ele>20.32</ele>
        <time>2021-08-07T16:03:44Z</time>
      </trkpt>
      <trkpt lat="50.42" lon="3.28467">
        <ele>20.32</ele>
        <time>2021-08-07T16:03:49Z</time>
      </trkpt>
      <trkpt lat="50.41994" lon="3.28468">
        <ele>20.32</ele>
        <time>2021-08-07T16:03:50Z</time>
      </trkpt>
      <trkpt lat="50.41989" lon="3.28469">
        <ele>20.32</ele>
        <time>2021-08-07T16:03:51Z</time>
      </trkpt>
      <trkpt lat="50.41931" lon="3.28476">
        <ele>20.32</ele>
        <time>2021-08-07T16:04:01Z</time>
      </trkpt>
      <trkpt lat="50.41887" lon="3.28482">
        <ele>20.32</ele>
        <time>2021-08-07T16:04:09Z</time>
      </trkpt>
      <trkpt lat="50.41845" lon="3.28488">
        <ele>21.77</ele>
        <time>2021-08-07T16:04:17Z</time>
      </trkpt>
      <trkpt lat="50.41833" lon="3.28491">
        <ele>21.77</ele>
        <time>2021-08-07T16:04:19Z</time>
      </trkpt>
      <trkpt lat="50.4179" lon="3.28494">
        <ele>22.25</ele>
        <time>2021-08-07T16:04:27Z</time>
      </trkpt>
      <trkpt lat="50.4175" lon="3.285">
        <ele>22.25</ele>
        <time>2021-08-07T16:04:35Z</time>
      </trkpt>
      <trkpt lat="50.41701" lon="3.28509">
        <ele>22.25</ele>
        <time>2021-08-07T16:04:43Z</time>
      </trkpt>
      <trkpt lat="50.41647" lon="3.28519">
        <ele>22.25</ele>
        <time>2021-08-07T16:04:52Z</time>
      </trkpt>
      <trkpt lat="50.41586" lon="3.28528">
        <ele>21.77</ele>
        <time>2021-08-07T16:05:02Z</time>
      </trkpt>
      <trkpt lat="50.41537" lon="3.28534">
        <ele>21.77</ele>
        <time>2021-08-07T16:05:10Z</time>
      </trkpt>
      <trkpt lat="50.41526" lon="3.28536">
        <ele>20.81</ele>
        <time>2021-08-07T16:05:12Z</time>
      </trkpt>
      <trkpt lat="50.41459" lon="3.28546">
        <ele>20.81</ele>
        <time>2021-08-07T16:05:23Z</time>
      </trkpt>
      <trkpt lat="50.41428" lon="3.2855">
        <ele>20.81</ele>
        <time>2021-08-07T16:05:28Z</time>
      </trkpt>
      <trkpt lat="50.41375" lon="3.28557">
        <ele>18.88</ele>
        <time>2021-08-07T16:05:37Z</time>
      </trkpt>
      <trkpt lat="50.4134" lon="3.28561">
        <ele>18.88</ele>
        <time>2021-08-07T16:05:43Z</time>
      </trkpt>
      <trkpt lat="50.41317" lon="3.28565">
        <ele>18.88</ele>
        <time>2021-08-07T16:05:47Z</time>
      </trkpt>
      <trkpt lat="50.41268" lon="3.28571">
        <ele>18.88</ele>
        <time>2021-08-07T16:05:56Z</time>
      </trkpt>
      <trkpt lat="50.41206" lon="3.28579">
        <ele>20.81</ele>
        <time>2021-08-07T16:06:08Z</time>
      </trkpt>
      <trkpt lat="50.41162" lon="3.28586">
        <ele>20.81</ele>
        <time>2021-08-07T16:06:17Z</time>
      </trkpt>
      <trkpt lat="50.41116" lon="3.28594">
        <ele>21.29</ele>
        <time>2021-08-07T16:06:26Z</time>
      </trkpt>
      <trkpt lat="50.41112" lon="3.28596">
        <ele>21.29</ele>
        <time>2021-08-07T16:06:27Z</time>
      </trkpt>
      <trkpt lat="50.41107" lon="3.28598">
        <ele>21.29</ele>
        <time>2021-08-07T16:06:28Z</time>
      </trkpt>
      <trkpt lat="50.41103" lon="3.28599">
        <ele>21.29</ele>
        <time>2021-08-07T16:06:29Z</time>
      </trkpt>
      <trkpt lat="50.41055" lon="3.28607">
        <ele>21.77</ele>
        <time>2021-08-07T16:06:38Z</time>
      </trkpt>
      <trkpt lat="50.41012" lon="3.28614">
        <ele>21.77</ele>
        <time>2021-08-07T16:06:46Z</time>
      </trkpt>
      <trkpt lat="50.41006" lon="3.28616">
        <ele>21.77</ele>
        <time>2021-08-07T16:06:47Z</time>
      </trkpt>
      <trkpt lat="50.41001" lon="3.2862">
        <ele>21.77</ele>
        <time>2021-08-07T16:06:48Z</time>
      </trkpt>
      <trkpt lat="50.40997" lon="3.28624">
        <ele>21.77</ele>
        <time>2021-08-07T16:06:49Z</time>
      </trkpt>
      <trkpt lat="50.40992" lon="3.2863">
        <ele>21.77</ele>
        <time>2021-08-07T16:06:50Z</time>
      </trkpt>
      <trkpt lat="50.40988" lon="3.28636">
        <ele>21.77</ele>
        <time>2021-08-07T16:06:51Z</time>
      </trkpt>
      <trkpt lat="50.40984" lon="3.28642">
        <ele>21.77</ele>
        <time>2021-08-07T16:06:52Z</time>
      </trkpt>
      <trkpt lat="50.4098" lon="3.28648">
        <ele>21.77</ele>
        <time>2021-08-07T16:06:53Z</time>
      </trkpt>
      <trkpt lat="50.40977" lon="3.28654">
        <ele>21.77</ele>
        <time>2021-08-07T16:06:54Z</time>
      </trkpt>
      <trkpt lat="50.40935" lon="3.28735">
        <ele>21.77</ele>
        <time>2021-08-07T16:07:06Z</time>
      </trkpt>
      <trkpt lat="50.40932" lon="3.28741">
        <ele>21.77</ele>
        <time>2021-08-07T16:07:07Z</time>
      </trkpt>
      <trkpt lat="50.40928" lon="3.28746">
        <ele>21.77</ele>
        <time>2021-08-07T16:07:08Z</time>
      </trkpt>
      <trkpt lat="50.40925" lon="3.28748">
        <ele>21.77</ele>
        <time>2021-08-07T16:07:09Z</time>
      </trkpt>
      <trkpt lat="50.40921" lon="3.28748">
        <ele>21.77</ele>
        <time>2021-08-07T16:07:10Z</time>
      </trkpt>
      <trkpt lat="50.40918" lon="3.28747">
        <ele>21.77</ele>
        <time>2021-08-07T16:07:11Z</time>
      </trkpt>
      <trkpt lat="50.40915" lon="3.28748">
        <ele>21.77</ele>
        <time>2021-08-07T16:07:12Z</time>
      </trkpt>
      <trkpt lat="50.40914" lon="3.28749">
        <ele>21.77</ele>
        <time>2021-08-07T16:07:13Z</time>
      </trkpt>
      <trkpt lat="50.40912" lon="3.28752">
        <ele>21.77</ele>
        <time>2021-08-07T16:07:14Z</time>
      </trkpt>
      <trkpt lat="50.40911" lon="3.28754">
        <ele>21.77</ele>
        <time>2021-08-07T16:07:15Z</time>
      </trkpt>
      <trkpt lat="50.40909" lon="3.28756">
        <ele>21.77</ele>
        <time>2021-08-07T16:07:16Z</time>
      </trkpt>
      <trkpt lat="50.40907" lon="3.28758">
        <ele>21.77</ele>
        <time>2021-08-07T16:07:17Z</time>
      </trkpt>
      <trkpt lat="50.40905" lon="3.2876">
        <ele>21.77</ele>
        <time>2021-08-07T16:07:18Z</time>
      </trkpt>
      <trkpt lat="50.40904" lon="3.28764">
        <ele>21.77</ele>
        <time>2021-08-07T16:07:19Z</time>
      </trkpt>
      <trkpt lat="50.40902" lon="3.28769">
        <ele>21.77</ele>
        <time>2021-08-07T16:07:20Z</time>
      </trkpt>
      <trkpt lat="50.409" lon="3.28774">
        <ele>21.77</ele>
        <time>2021-08-07T16:07:21Z</time>
      </trkpt>
      <trkpt lat="50.40897" lon="3.28779">
        <ele>21.77</ele>
        <time>2021-08-07T16:07:22Z</time>
      </trkpt>
      <trkpt lat="50.40892" lon="3.28791">
        <ele>21.77</ele>
        <time>2021-08-07T16:07:24Z</time>
      </trkpt>
      <trkpt lat="50.40888" lon="3.28798">
        <ele>21.77</ele>
        <time>2021-08-07T16:07:25Z</time>
      </trkpt>
      <trkpt lat="50.40885" lon="3.28803">
        <ele>21.77</ele>
        <time>2021-08-07T16:07:26Z</time>
      </trkpt>
      <trkpt lat="50.40882" lon="3.2881">
        <ele>21.77</ele>
        <time>2021-08-07T16:07:27Z</time>
      </trkpt>
      <trkpt lat="50.40879" lon="3.28816">
        <ele>21.77</ele>
        <time>2021-08-07T16:07:28Z</time>
      </trkpt>
      <trkpt lat="50.40873" lon="3.28828">
        <ele>20.81</ele>
        <time>2021-08-07T16:07:30Z</time>
      </trkpt>
      <trkpt lat="50.4087" lon="3.28834">
        <ele>20.81</ele>
        <time>2021-08-07T16:07:31Z</time>
      </trkpt>
      <trkpt lat="50.40866" lon="3.28839">
        <ele>20.81</ele>
        <time>2021-08-07T16:07:32Z</time>
      </trkpt>
      <trkpt lat="50.40843" lon="3.28886">
        <ele>20.81</ele>
        <time>2021-08-07T16:07:39Z</time>
      </trkpt>
      <trkpt lat="50.40809" lon="3.28951">
        <ele>20.81</ele>
        <time>2021-08-07T16:07:48Z</time>
      </trkpt>
      <trkpt lat="50.40778" lon="3.29009">
        <ele>20.81</ele>
        <time>2021-08-07T16:07:56Z</time>
      </trkpt>
      <trkpt lat="50.40749" lon="3.29063">
        <ele>20.81</ele>
        <time>2021-08-07T16:08:04Z</time>
      </trkpt>
      <trkpt lat="50.40722" lon="3.2911">
        <ele>20.81</ele>
        <time>2021-08-07T16:08:11Z</time>
      </trkpt>
      <trkpt lat="50.40718" lon="3.29116">
        <ele>20.32</ele>
        <time>2021-08-07T16:08:12Z</time>
      </trkpt>
      <trkpt lat="50.40714" lon="3.29123">
        <ele>20.32</ele>
        <time>2021-08-07T16:08:13Z</time>
      </trkpt>
      <trkpt lat="50.407" lon="3.29152">
        <ele>20.32</ele>
        <time>2021-08-07T16:08:17Z</time>
      </trkpt>
      <trkpt lat="50.40696" lon="3.29159">
        <ele>20.32</ele>
        <time>2021-08-07T16:08:18Z</time>
      </trkpt>
      <trkpt lat="50.40662" lon="3.29227">
        <ele>20.32</ele>
        <time>2021-08-07T16:08:27Z</time>
      </trkpt>
      <trkpt lat="50.40631" lon="3.29284">
        <ele>20.32</ele>
        <time>2021-08-07T16:08:35Z</time>
      </trkpt>
      <trkpt lat="50.40595" lon="3.29333">
        <ele>20.32</ele>
        <time>2021-08-07T16:08:43Z</time>
      </trkpt>
      <trkpt lat="50.40586" lon="3.29344">
        <ele>20.32</ele>
        <time>2021-08-07T16:08:45Z</time>
      </trkpt>
      <trkpt lat="50.40577" lon="3.29354">
        <ele>20.32</ele>
        <time>2021-08-07T16:08:47Z</time>
      </trkpt>
      <trkpt lat="50.40573" lon="3.29361">
        <ele>20.32</ele>
        <time>2021-08-07T16:08:48Z</time>
      </trkpt>
      <trkpt lat="50.40561" lon="3.29381">
        <ele>20.32</ele>
        <time>2021-08-07T16:08:51Z</time>
      </trkpt>
      <trkpt lat="50.40556" lon="3.29386">
        <ele>20.32</ele>
        <time>2021-08-07T16:08:52Z</time>
      </trkpt>
      <trkpt lat="50.40542" lon="3.29401">
        <ele>21.77</ele>
        <time>2021-08-07T16:08:55Z</time>
      </trkpt>
      <trkpt lat="50.40511" lon="3.29432">
        <ele>21.77</ele>
        <time>2021-08-07T16:09:02Z</time>
      </trkpt>
      <trkpt lat="50.40478" lon="3.29461">
        <ele>21.77</ele>
        <time>2021-08-07T16:09:09Z</time>
      </trkpt>
      <trkpt lat="50.40474" lon="3.29465">
        <ele>21.77</ele>
        <time>2021-08-07T16:09:10Z</time>
      </trkpt>
      <trkpt lat="50.4046" lon="3.29473">
        <ele>22.25</ele>
        <time>2021-08-07T16:09:14Z</time>
      </trkpt>
      <trkpt lat="50.40458" lon="3.29472">
        <ele>22.25</ele>
        <time>2021-08-07T16:09:15Z</time>
      </trkpt>
      <trkpt lat="50.40455" lon="3.29473">
        <ele>22.25</ele>
        <time>2021-08-07T16:09:16Z</time>
      </trkpt>
      <trkpt lat="50.40452" lon="3.29474">
        <ele>22.25</ele>
        <time>2021-08-07T16:09:17Z</time>
      </trkpt>
      <trkpt lat="50.40449" lon="3.29475">
        <ele>22.25</ele>
        <time>2021-08-07T16:09:18Z</time>
      </trkpt>
      <trkpt lat="50.40445" lon="3.29475">
        <ele>22.25</ele>
        <time>2021-08-07T16:09:19Z</time>
      </trkpt>
      <trkpt lat="50.4044" lon="3.29476">
        <ele>22.25</ele>
        <time>2021-08-07T16:09:20Z</time>
      </trkpt>
      <trkpt lat="50.40437" lon="3.29479">
        <ele>22.25</ele>
        <time>2021-08-07T16:09:21Z</time>
      </trkpt>
      <trkpt lat="50.40432" lon="3.29482">
        <ele>22.25</ele>
        <time>2021-08-07T16:09:22Z</time>
      </trkpt>
      <trkpt lat="50.40428" lon="3.29485">
        <ele>22.25</ele>
        <time>2021-08-07T16:09:23Z</time>
      </trkpt>
      <trkpt lat="50.40424" lon="3.29487">
        <ele>22.25</ele>
        <time>2021-08-07T16:09:24Z</time>
      </trkpt>
      <trkpt lat="50.40388" lon="3.29501">
        <ele>22.25</ele>
        <time>2021-08-07T16:09:32Z</time>
      </trkpt>
      <trkpt lat="50.40355" lon="3.2952">
        <ele>22.25</ele>
        <time>2021-08-07T16:09:40Z</time>
      </trkpt>
      <trkpt lat="50.40338" lon="3.29526">
        <ele>22.73</ele>
        <time>2021-08-07T16:09:44Z</time>
      </trkpt>
      <trkpt lat="50.40304" lon="3.29533">
        <ele>22.73</ele>
        <time>2021-08-07T16:09:52Z</time>
      </trkpt>
      <trkpt lat="50.40296" lon="3.29533">
        <ele>23.21</ele>
        <time>2021-08-07T16:09:54Z</time>
      </trkpt>
      <trkpt lat="50.40291" lon="3.29533">
        <ele>23.69</ele>
        <time>2021-08-07T16:09:55Z</time>
      </trkpt>
      <trkpt lat="50.40249" lon="3.29536">
        <ele>23.69</ele>
        <time>2021-08-07T16:10:04Z</time>
      </trkpt>
      <trkpt lat="50.40245" lon="3.29535">
        <ele>23.69</ele>
        <time>2021-08-07T16:10:05Z</time>
      </trkpt>
      <trkpt lat="50.40213" lon="3.29537">
        <ele>23.69</ele>
        <time>2021-08-07T16:10:12Z</time>
      </trkpt>
      <trkpt lat="50.40176" lon="3.29533">
        <ele>24.17</ele>
        <time>2021-08-07T16:10:20Z</time>
      </trkpt>
      <trkpt lat="50.40167" lon="3.29534">
        <ele>24.65</ele>
        <time>2021-08-07T16:10:22Z</time>
      </trkpt>
      <trkpt lat="50.40163" lon="3.29535">
        <ele>24.65</ele>
        <time>2021-08-07T16:10:23Z</time>
      </trkpt>
      <trkpt lat="50.4016" lon="3.29535">
        <ele>24.65</ele>
        <time>2021-08-07T16:10:24Z</time>
      </trkpt>
      <trkpt lat="50.40156" lon="3.29536">
        <ele>24.65</ele>
        <time>2021-08-07T16:10:25Z</time>
      </trkpt>
      <trkpt lat="50.40152" lon="3.29538">
        <ele>24.65</ele>
        <time>2021-08-07T16:10:26Z</time>
      </trkpt>
      <trkpt lat="50.4015" lon="3.2954">
        <ele>24.65</ele>
        <time>2021-08-07T16:10:27Z</time>
      </trkpt>
      <trkpt lat="50.40148" lon="3.29542">
        <ele>24.65</ele>
        <time>2021-08-07T16:10:28Z</time>
      </trkpt>
      <trkpt lat="50.40147" lon="3.29544">
        <ele>24.65</ele>
        <time>2021-08-07T16:10:29Z</time>
      </trkpt>
      <trkpt lat="50.40147" lon="3.29548">
        <ele>24.65</ele>
        <time>2021-08-07T16:10:30Z</time>
      </trkpt>
      <trkpt lat="50.40147" lon="3.29553">
        <ele>21.77</ele>
        <time>2021-08-07T16:10:31Z</time>
      </trkpt>
      <trkpt lat="50.40148" lon="3.29563">
        <ele>19.84</ele>
        <time>2021-08-07T16:10:32Z</time>
      </trkpt>
      <trkpt lat="50.40148" lon="3.29573">
        <ele>19.84</ele>
        <time>2021-08-07T16:10:33Z</time>
      </trkpt>
      <trkpt lat="50.40148" lon="3.29583">
        <ele>19.84</ele>
        <time>2021-08-07T16:10:34Z</time>
      </trkpt>
      <trkpt lat="50.40147" lon="3.29593">
        <ele>19.84</ele>
        <time>2021-08-07T16:10:35Z</time>
      </trkpt>
      <trkpt lat="50.40147" lon="3.29612">
        <ele>19.84</ele>
        <time>2021-08-07T16:10:37Z</time>
      </trkpt>
      <trkpt lat="50.40148" lon="3.29647">
        <ele>19.84</ele>
        <time>2021-08-07T16:10:41Z</time>
      </trkpt>
      <trkpt lat="50.40148" lon="3.29656">
        <ele>19.84</ele>
        <time>2021-08-07T16:10:42Z</time>
      </trkpt>
      <trkpt lat="50.40148" lon="3.29665">
        <ele>19.84</ele>
        <time>2021-08-07T16:10:43Z</time>
      </trkpt>
      <trkpt lat="50.40149" lon="3.29673">
        <ele>19.84</ele>
        <time>2021-08-07T16:10:44Z</time>
      </trkpt>
      <trkpt lat="50.4015" lon="3.29681">
        <ele>19.84</ele>
        <time>2021-08-07T16:10:45Z</time>
      </trkpt>
      <trkpt lat="50.40153" lon="3.29747">
        <ele>19.84</ele>
        <time>2021-08-07T16:10:53Z</time>
      </trkpt>
      <trkpt lat="50.40158" lon="3.29803">
        <ele>19.84</ele>
        <time>2021-08-07T16:11:00Z</time>
      </trkpt>
      <trkpt lat="50.4016" lon="3.2981">
        <ele>19.84</ele>
        <time>2021-08-07T16:11:01Z</time>
      </trkpt>
      <trkpt lat="50.40167" lon="3.29851">
        <ele>19.84</ele>
        <time>2021-08-07T16:11:06Z</time>
      </trkpt>
      <trkpt lat="50.40171" lon="3.29866">
        <ele>19.84</ele>
        <time>2021-08-07T16:11:08Z</time>
      </trkpt>
      <trkpt lat="50.40175" lon="3.29882">
        <ele>19.84</ele>
        <time>2021-08-07T16:11:10Z</time>
      </trkpt>
      <trkpt lat="50.40178" lon="3.29889">
        <ele>19.84</ele>
        <time>2021-08-07T16:11:11Z</time>
      </trkpt>
      <trkpt lat="50.4018" lon="3.29897">
        <ele>19.84</ele>
        <time>2021-08-07T16:11:12Z</time>
      </trkpt>
      <trkpt lat="50.40181" lon="3.29905">
        <ele>19.84</ele>
        <time>2021-08-07T16:11:13Z</time>
      </trkpt>
      <trkpt lat="50.40183" lon="3.29913">
        <ele>19.84</ele>
        <time>2021-08-07T16:11:14Z</time>
      </trkpt>
      <trkpt lat="50.40186" lon="3.29921">
        <ele>19.84</ele>
        <time>2021-08-07T16:11:15Z</time>
      </trkpt>
      <trkpt lat="50.40188" lon="3.29927">
        <ele>19.84</ele>
        <time>2021-08-07T16:11:16Z</time>
      </trkpt>
      <trkpt lat="50.4019" lon="3.29935">
        <ele>20.81</ele>
        <time>2021-08-07T16:11:17Z</time>
      </trkpt>
      <trkpt lat="50.40192" lon="3.29943">
        <ele>20.81</ele>
        <time>2021-08-07T16:11:18Z</time>
      </trkpt>
      <trkpt lat="50.40194" lon="3.2995">
        <ele>20.81</ele>
        <time>2021-08-07T16:11:19Z</time>
      </trkpt>
      <trkpt lat="50.40196" lon="3.29958">
        <ele>20.81</ele>
        <time>2021-08-07T16:11:20Z</time>
      </trkpt>
      <trkpt lat="50.40198" lon="3.29965">
        <ele>20.81</ele>
        <time>2021-08-07T16:11:21Z</time>
      </trkpt>
      <trkpt lat="50.402" lon="3.29971">
        <ele>20.81</ele>
        <time>2021-08-07T16:11:22Z</time>
      </trkpt>
      <trkpt lat="50.40202" lon="3.29978">
        <ele>20.81</ele>
        <time>2021-08-07T16:11:23Z</time>
      </trkpt>
      <trkpt lat="50.40205" lon="3.29993">
        <ele>20.81</ele>
        <time>2021-08-07T16:11:25Z</time>
      </trkpt>
      <trkpt lat="50.40208" lon="3.29999">
        <ele>20.81</ele>
        <time>2021-08-07T16:11:26Z</time>
      </trkpt>
      <trkpt lat="50.40225" lon="3.30059">
        <ele>20.81</ele>
        <time>2021-08-07T16:11:34Z</time>
      </trkpt>
      <trkpt lat="50.40243" lon="3.30138">
        <ele>20.81</ele>
        <time>2021-08-07T16:11:44Z</time>
      </trkpt>
      <trkpt lat="50.40246" lon="3.30171">
        <ele>20.81</ele>
        <time>2021-08-07T16:11:49Z</time>
      </trkpt>
      <trkpt lat="50.40245" lon="3.30174">
        <ele>20.81</ele>
        <time>2021-08-07T16:11:50Z</time>
      </trkpt>
      <trkpt lat="50.40245" lon="3.30177">
        <ele>21.29</ele>
        <time>2021-08-07T16:11:51Z</time>
      </trkpt>
      <trkpt lat="50.40246" lon="3.3018">
        <ele>21.29</ele>
        <time>2021-08-07T16:11:52Z</time>
      </trkpt>
      <trkpt lat="50.40247" lon="3.30185">
        <ele>21.29</ele>
        <time>2021-08-07T16:11:53Z</time>
      </trkpt>
      <trkpt lat="50.40249" lon="3.30189">
        <ele>21.29</ele>
        <time>2021-08-07T16:11:54Z</time>
      </trkpt>
      <trkpt lat="50.4025" lon="3.30195">
        <ele>21.29</ele>
        <time>2021-08-07T16:11:55Z</time>
      </trkpt>
      <trkpt lat="50.40251" lon="3.30202">
        <ele>21.29</ele>
        <time>2021-08-07T16:11:56Z</time>
      </trkpt>
      <trkpt lat="50.40252" lon="3.30208">
        <ele>21.29</ele>
        <time>2021-08-07T16:11:57Z</time>
      </trkpt>
      <trkpt lat="50.40256" lon="3.30294">
        <ele>21.29</ele>
        <time>2021-08-07T16:12:08Z</time>
      </trkpt>
      <trkpt lat="50.40256" lon="3.30301">
        <ele>21.29</ele>
        <time>2021-08-07T16:12:09Z</time>
      </trkpt>
      <trkpt lat="50.40257" lon="3.30304">
        <ele>21.29</ele>
        <time>2021-08-07T16:12:10Z</time>
      </trkpt>
      <trkpt lat="50.40259" lon="3.30307">
        <ele>21.29</ele>
        <time>2021-08-07T16:12:11Z</time>
      </trkpt>
      <trkpt lat="50.4026" lon="3.30312">
        <ele>21.29</ele>
        <time>2021-08-07T16:12:12Z</time>
      </trkpt>
      <trkpt lat="50.4026" lon="3.30317">
        <ele>21.29</ele>
        <time>2021-08-07T16:12:13Z</time>
      </trkpt>
      <trkpt lat="50.40262" lon="3.30342">
        <ele>21.29</ele>
        <time>2021-08-07T16:12:17Z</time>
      </trkpt>
      <trkpt lat="50.40262" lon="3.30348">
        <ele>21.29</ele>
        <time>2021-08-07T16:12:18Z</time>
      </trkpt>
      <trkpt lat="50.40266" lon="3.30409">
        <ele>21.29</ele>
        <time>2021-08-07T16:12:26Z</time>
      </trkpt>
      <trkpt lat="50.40272" lon="3.30507">
        <ele>21.29</ele>
        <time>2021-08-07T16:12:38Z</time>
      </trkpt>
      <trkpt lat="50.40277" lon="3.30605">
        <ele>21.29</ele>
        <time>2021-08-07T16:12:50Z</time>
      </trkpt>
      <trkpt lat="50.40282" lon="3.30676">
        <ele>21.29</ele>
        <time>2021-08-07T16:12:59Z</time>
      </trkpt>
      <trkpt lat="50.40286" lon="3.30741">
        <ele>19.84</ele>
        <time>2021-08-07T16:13:07Z</time>
      </trkpt>
      <trkpt lat="50.40288" lon="3.30774">
        <ele>19.84</ele>
        <time>2021-08-07T16:13:11Z</time>
      </trkpt>
      <trkpt lat="50.40289" lon="3.30781">
        <ele>19.84</ele>
        <time>2021-08-07T16:13:12Z</time>
      </trkpt>
      <trkpt lat="50.40292" lon="3.30809">
        <ele>19.84</ele>
        <time>2021-08-07T16:13:18Z</time>
      </trkpt>
      <trkpt lat="50.40291" lon="3.30821">
        <ele>21.29</ele>
        <time>2021-08-07T16:13:23Z</time>
      </trkpt>
      <trkpt lat="50.40293" lon="3.30823">
        <ele>21.29</ele>
        <time>2021-08-07T16:13:24Z</time>
      </trkpt>
      <trkpt lat="50.40293" lon="3.30826">
        <ele>21.29</ele>
        <time>2021-08-07T16:13:25Z</time>
      </trkpt>
      <trkpt lat="50.40294" lon="3.30854">
        <ele>21.29</ele>
        <time>2021-08-07T16:13:31Z</time>
      </trkpt>
      <trkpt lat="50.40299" lon="3.3089">
        <ele>21.29</ele>
        <time>2021-08-07T16:13:36Z</time>
      </trkpt>
      <trkpt lat="50.40313" lon="3.30988">
        <ele>20.81</ele>
        <time>2021-08-07T16:13:47Z</time>
      </trkpt>
      <trkpt lat="50.40322" lon="3.31047">
        <ele>20.81</ele>
        <time>2021-08-07T16:13:54Z</time>
      </trkpt>
      <trkpt lat="50.40334" lon="3.31118">
        <ele>20.81</ele>
        <time>2021-08-07T16:14:03Z</time>
      </trkpt>
      <trkpt lat="50.40342" lon="3.31175">
        <ele>20.81</ele>
        <time>2021-08-07T16:14:10Z</time>
      </trkpt>
      <trkpt lat="50.40352" lon="3.3123">
        <ele>20.81</ele>
        <time>2021-08-07T16:14:17Z</time>
      </trkpt>
      <trkpt lat="50.40365" lon="3.31315">
        <ele>20.81</ele>
        <time>2021-08-07T16:14:27Z</time>
      </trkpt>
      <trkpt lat="50.40376" lon="3.3139">
        <ele>21.29</ele>
        <time>2021-08-07T16:14:36Z</time>
      </trkpt>
      <trkpt lat="50.40387" lon="3.31466">
        <ele>21.29</ele>
        <time>2021-08-07T16:14:45Z</time>
      </trkpt>
      <trkpt lat="50.40395" lon="3.31534">
        <ele>21.29</ele>
        <time>2021-08-07T16:14:53Z</time>
      </trkpt>
      <trkpt lat="50.40406" lon="3.3161">
        <ele>21.29</ele>
        <time>2021-08-07T16:15:02Z</time>
      </trkpt>
      <trkpt lat="50.4042" lon="3.31696">
        <ele>21.29</ele>
        <time>2021-08-07T16:15:12Z</time>
      </trkpt>
      <trkpt lat="50.40437" lon="3.31798">
        <ele>21.29</ele>
        <time>2021-08-07T16:15:24Z</time>
      </trkpt>
      <trkpt lat="50.40447" lon="3.31884">
        <ele>21.29</ele>
        <time>2021-08-07T16:15:34Z</time>
      </trkpt>
      <trkpt lat="50.40457" lon="3.31976">
        <ele>21.29</ele>
        <time>2021-08-07T16:15:45Z</time>
      </trkpt>
      <trkpt lat="50.40463" lon="3.32018">
        <ele>21.29</ele>
        <time>2021-08-07T16:15:50Z</time>
      </trkpt>
      <trkpt lat="50.40464" lon="3.32026">
        <ele>22.73</ele>
        <time>2021-08-07T16:15:51Z</time>
      </trkpt>
      <trkpt lat="50.40478" lon="3.32102">
        <ele>20.81</ele>
        <time>2021-08-07T16:16:00Z</time>
      </trkpt>
      <trkpt lat="50.40501" lon="3.32151">
        <ele>20.81</ele>
        <time>2021-08-07T16:16:07Z</time>
      </trkpt>
      <trkpt lat="50.40547" lon="3.3222">
        <ele>20.81</ele>
        <time>2021-08-07T16:16:18Z</time>
      </trkpt>
      <trkpt lat="50.40592" lon="3.32291">
        <ele>20.81</ele>
        <time>2021-08-07T16:16:29Z</time>
      </trkpt>
      <trkpt lat="50.40634" lon="3.32355">
        <ele>20.81</ele>
        <time>2021-08-07T16:16:39Z</time>
      </trkpt>
      <trkpt lat="50.40665" lon="3.32423">
        <ele>20.81</ele>
        <time>2021-08-07T16:16:48Z</time>
      </trkpt>
      <trkpt lat="50.40679" lon="3.32494">
        <ele>20.32</ele>
        <time>2021-08-07T16:16:56Z</time>
      </trkpt>
      <trkpt lat="50.4069" lon="3.32577">
        <ele>20.32</ele>
        <time>2021-08-07T16:17:05Z</time>
      </trkpt>
      <trkpt lat="50.40704" lon="3.32668">
        <ele>19.84</ele>
        <time>2021-08-07T16:17:15Z</time>
      </trkpt>
      <trkpt lat="50.40713" lon="3.32743">
        <ele>19.84</ele>
        <time>2021-08-07T16:17:23Z</time>
      </trkpt>
      <trkpt lat="50.40726" lon="3.32829">
        <ele>19.84</ele>
        <time>2021-08-07T16:17:32Z</time>
      </trkpt>
      <trkpt lat="50.40739" lon="3.32921">
        <ele>19.84</ele>
        <time>2021-08-07T16:17:42Z</time>
      </trkpt>
      <trkpt lat="50.40754" lon="3.33032">
        <ele>19.84</ele>
        <time>2021-08-07T16:17:54Z</time>
      </trkpt>
      <trkpt lat="50.40764" lon="3.33099">
        <ele>19.84</ele>
        <time>2021-08-07T16:18:02Z</time>
      </trkpt>
      <trkpt lat="50.40769" lon="3.33146">
        <ele>19.84</ele>
        <time>2021-08-07T16:18:08Z</time>
      </trkpt>
      <trkpt lat="50.40774" lon="3.33194">
        <ele>19.84</ele>
        <time>2021-08-07T16:18:14Z</time>
      </trkpt>
      <trkpt lat="50.40774" lon="3.33211">
        <ele>19.84</ele>
        <time>2021-08-07T16:18:16Z</time>
      </trkpt>
      <trkpt lat="50.40785" lon="3.33264">
        <ele>19.84</ele>
        <time>2021-08-07T16:18:23Z</time>
      </trkpt>
      <trkpt lat="50.40804" lon="3.33329">
        <ele>19.84</ele>
        <time>2021-08-07T16:18:32Z</time>
      </trkpt>
      <trkpt lat="50.40805" lon="3.33334">
        <ele>19.84</ele>
        <time>2021-08-07T16:18:33Z</time>
      </trkpt>
      <trkpt lat="50.40804" lon="3.33338">
        <ele>19.84</ele>
        <time>2021-08-07T16:18:34Z</time>
      </trkpt>
      <trkpt lat="50.40802" lon="3.33341">
        <ele>19.84</ele>
        <time>2021-08-07T16:18:35Z</time>
      </trkpt>
      <trkpt lat="50.40799" lon="3.33343">
        <ele>19.84</ele>
        <time>2021-08-07T16:18:36Z</time>
      </trkpt>
      <trkpt lat="50.40796" lon="3.33345">
        <ele>19.84</ele>
        <time>2021-08-07T16:18:37Z</time>
      </trkpt>
      <trkpt lat="50.40772" lon="3.33365">
        <ele>18.88</ele>
        <time>2021-08-07T16:18:43Z</time>
      </trkpt>
      <trkpt lat="50.40768" lon="3.33372">
        <ele>18.88</ele>
        <time>2021-08-07T16:18:44Z</time>
      </trkpt>
      <trkpt lat="50.40766" lon="3.33379">
        <ele>18.88</ele>
        <time>2021-08-07T16:18:45Z</time>
      </trkpt>
      <trkpt lat="50.40766" lon="3.33389">
        <ele>18.88</ele>
        <time>2021-08-07T16:18:46Z</time>
      </trkpt>
      <trkpt lat="50.40766" lon="3.33397">
        <ele>18.88</ele>
        <time>2021-08-07T16:18:47Z</time>
      </trkpt>
      <trkpt lat="50.40767" lon="3.33405">
        <ele>18.88</ele>
        <time>2021-08-07T16:18:48Z</time>
      </trkpt>
      <trkpt lat="50.40768" lon="3.33414">
        <ele>18.88</ele>
        <time>2021-08-07T16:18:49Z</time>
      </trkpt>
      <trkpt lat="50.40779" lon="3.33499">
        <ele>18.88</ele>
        <time>2021-08-07T16:18:59Z</time>
      </trkpt>
      <trkpt lat="50.40779" lon="3.33508">
        <ele>18.88</ele>
        <time>2021-08-07T16:19:00Z</time>
      </trkpt>
      <trkpt lat="50.40778" lon="3.33517">
        <ele>18.88</ele>
        <time>2021-08-07T16:19:01Z</time>
      </trkpt>
      <trkpt lat="50.40777" lon="3.33526">
        <ele>18.88</ele>
        <time>2021-08-07T16:19:02Z</time>
      </trkpt>
      <trkpt lat="50.40775" lon="3.33535">
        <ele>18.88</ele>
        <time>2021-08-07T16:19:03Z</time>
      </trkpt>
      <trkpt lat="50.40772" lon="3.33543">
        <ele>18.88</ele>
        <time>2021-08-07T16:19:04Z</time>
      </trkpt>
      <trkpt lat="50.40748" lon="3.33626">
        <ele>18.88</ele>
        <time>2021-08-07T16:19:14Z</time>
      </trkpt>
      <trkpt lat="50.40717" lon="3.33736">
        <ele>18.88</ele>
        <time>2021-08-07T16:19:27Z</time>
      </trkpt>
      <trkpt lat="50.40688" lon="3.33846">
        <ele>18.4</ele>
        <time>2021-08-07T16:19:40Z</time>
      </trkpt>
      <trkpt lat="50.40661" lon="3.33927">
        <ele>18.4</ele>
        <time>2021-08-07T16:19:50Z</time>
      </trkpt>
      <trkpt lat="50.4061" lon="3.34061">
        <ele>18.4</ele>
        <time>2021-08-07T16:20:07Z</time>
      </trkpt>
      <trkpt lat="50.40586" lon="3.34122">
        <ele>18.4</ele>
        <time>2021-08-07T16:20:15Z</time>
      </trkpt>
      <trkpt lat="50.40553" lon="3.34207">
        <ele>18.4</ele>
        <time>2021-08-07T16:20:26Z</time>
      </trkpt>
      <trkpt lat="50.40515" lon="3.34305">
        <ele>17.92</ele>
        <time>2021-08-07T16:20:39Z</time>
      </trkpt>
      <trkpt lat="50.40483" lon="3.34387">
        <ele>17.92</ele>
        <time>2021-08-07T16:20:50Z</time>
      </trkpt>
      <trkpt lat="50.40475" lon="3.34408">
        <ele>17.92</ele>
        <time>2021-08-07T16:20:53Z</time>
      </trkpt>
      <trkpt lat="50.40474" lon="3.34416">
        <ele>17.92</ele>
        <time>2021-08-07T16:20:54Z</time>
      </trkpt>
      <trkpt lat="50.40474" lon="3.34424">
        <ele>19.36</ele>
        <time>2021-08-07T16:20:55Z</time>
      </trkpt>
      <trkpt lat="50.40476" lon="3.34432">
        <ele>19.36</ele>
        <time>2021-08-07T16:20:56Z</time>
      </trkpt>
      <trkpt lat="50.40479" lon="3.34439">
        <ele>19.36</ele>
        <time>2021-08-07T16:20:57Z</time>
      </trkpt>
      <trkpt lat="50.40482" lon="3.34445">
        <ele>19.36</ele>
        <time>2021-08-07T16:20:58Z</time>
      </trkpt>
      <trkpt lat="50.4051" lon="3.34503">
        <ele>19.36</ele>
        <time>2021-08-07T16:21:06Z</time>
      </trkpt>
      <trkpt lat="50.40556" lon="3.34602">
        <ele>19.36</ele>
        <time>2021-08-07T16:21:19Z</time>
      </trkpt>
      <trkpt lat="50.40571" lon="3.34634">
        <ele>19.36</ele>
        <time>2021-08-07T16:21:23Z</time>
      </trkpt>
      <trkpt lat="50.40573" lon="3.34643">
        <ele>19.36</ele>
        <time>2021-08-07T16:21:24Z</time>
      </trkpt>
      <trkpt lat="50.40575" lon="3.34652">
        <ele>19.36</ele>
        <time>2021-08-07T16:21:25Z</time>
      </trkpt>
      <trkpt lat="50.40577" lon="3.34661">
        <ele>19.36</ele>
        <time>2021-08-07T16:21:26Z</time>
      </trkpt>
      <trkpt lat="50.40578" lon="3.3467">
        <ele>19.36</ele>
        <time>2021-08-07T16:21:27Z</time>
      </trkpt>
      <trkpt lat="50.40578" lon="3.3468">
        <ele>19.84</ele>
        <time>2021-08-07T16:21:28Z</time>
      </trkpt>
      <trkpt lat="50.40578" lon="3.34689">
        <ele>19.84</ele>
        <time>2021-08-07T16:21:29Z</time>
      </trkpt>
      <trkpt lat="50.40579" lon="3.34764">
        <ele>19.84</ele>
        <time>2021-08-07T16:21:37Z</time>
      </trkpt>
      <trkpt lat="50.40582" lon="3.34846">
        <ele>19.84</ele>
        <time>2021-08-07T16:21:46Z</time>
      </trkpt>
      <trkpt lat="50.40575" lon="3.34916">
        <ele>20.32</ele>
        <time>2021-08-07T16:21:54Z</time>
      </trkpt>
      <trkpt lat="50.40571" lon="3.34932">
        <ele>20.32</ele>
        <time>2021-08-07T16:21:56Z</time>
      </trkpt>
      <trkpt lat="50.40569" lon="3.34941">
        <ele>20.32</ele>
        <time>2021-08-07T16:21:57Z</time>
      </trkpt>
      <trkpt lat="50.40566" lon="3.34948">
        <ele>20.32</ele>
        <time>2021-08-07T16:21:58Z</time>
      </trkpt>
      <trkpt lat="50.40563" lon="3.34955">
        <ele>20.32</ele>
        <time>2021-08-07T16:21:59Z</time>
      </trkpt>
      <trkpt lat="50.40559" lon="3.34962">
        <ele>20.32</ele>
        <time>2021-08-07T16:22:00Z</time>
      </trkpt>
      <trkpt lat="50.40554" lon="3.34969">
        <ele>20.32</ele>
        <time>2021-08-07T16:22:01Z</time>
      </trkpt>
      <trkpt lat="50.4055" lon="3.34975">
        <ele>20.32</ele>
        <time>2021-08-07T16:22:02Z</time>
      </trkpt>
      <trkpt lat="50.40546" lon="3.34981">
        <ele>20.32</ele>
        <time>2021-08-07T16:22:03Z</time>
      </trkpt>
      <trkpt lat="50.40497" lon="3.35057">
        <ele>19.84</ele>
        <time>2021-08-07T16:22:15Z</time>
      </trkpt>
      <trkpt lat="50.40461" lon="3.35128">
        <ele>18.88</ele>
        <time>2021-08-07T16:22:25Z</time>
      </trkpt>
      <trkpt lat="50.40428" lon="3.352">
        <ele>18.88</ele>
        <time>2021-08-07T16:22:35Z</time>
      </trkpt>
      <trkpt lat="50.40394" lon="3.3528">
        <ele>18.88</ele>
        <time>2021-08-07T16:22:46Z</time>
      </trkpt>
      <trkpt lat="50.40367" lon="3.35346">
        <ele>18.88</ele>
        <time>2021-08-07T16:22:55Z</time>
      </trkpt>
      <trkpt lat="50.40363" lon="3.35364">
        <ele>18.88</ele>
        <time>2021-08-07T16:22:57Z</time>
      </trkpt>
      <trkpt lat="50.40357" lon="3.35458">
        <ele>18.88</ele>
        <time>2021-08-07T16:23:07Z</time>
      </trkpt>
      <trkpt lat="50.40359" lon="3.35515">
        <ele>18.88</ele>
        <time>2021-08-07T16:23:13Z</time>
      </trkpt>
      <trkpt lat="50.40362" lon="3.35579">
        <ele>18.88</ele>
        <time>2021-08-07T16:23:20Z</time>
      </trkpt>
      <trkpt lat="50.40364" lon="3.35622">
        <ele>18.88</ele>
        <time>2021-08-07T16:23:25Z</time>
      </trkpt>
      <trkpt lat="50.40365" lon="3.3563">
        <ele>18.88</ele>
        <time>2021-08-07T16:23:26Z</time>
      </trkpt>
      <trkpt lat="50.40368" lon="3.35639">
        <ele>18.88</ele>
        <time>2021-08-07T16:23:27Z</time>
      </trkpt>
      <trkpt lat="50.40371" lon="3.35645">
        <ele>18.88</ele>
        <time>2021-08-07T16:23:28Z</time>
      </trkpt>
      <trkpt lat="50.40376" lon="3.3565">
        <ele>18.88</ele>
        <time>2021-08-07T16:23:29Z</time>
      </trkpt>
      <trkpt lat="50.40382" lon="3.35654">
        <ele>18.88</ele>
        <time>2021-08-07T16:23:30Z</time>
      </trkpt>
      <trkpt lat="50.40387" lon="3.35657">
        <ele>18.88</ele>
        <time>2021-08-07T16:23:31Z</time>
      </trkpt>
      <trkpt lat="50.40393" lon="3.35659">
        <ele>18.88</ele>
        <time>2021-08-07T16:23:32Z</time>
      </trkpt>
      <trkpt lat="50.40399" lon="3.35661">
        <ele>18.88</ele>
        <time>2021-08-07T16:23:33Z</time>
      </trkpt>
      <trkpt lat="50.40457" lon="3.3568">
        <ele>18.88</ele>
        <time>2021-08-07T16:23:43Z</time>
      </trkpt>
      <trkpt lat="50.40485" lon="3.35692">
        <ele>18.88</ele>
        <time>2021-08-07T16:23:48Z</time>
      </trkpt>
      <trkpt lat="50.40489" lon="3.35695">
        <ele>18.88</ele>
        <time>2021-08-07T16:23:49Z</time>
      </trkpt>
      <trkpt lat="50.40491" lon="3.357">
        <ele>18.88</ele>
        <time>2021-08-07T16:23:50Z</time>
      </trkpt>
      <trkpt lat="50.40493" lon="3.35706">
        <ele>18.88</ele>
        <time>2021-08-07T16:23:51Z</time>
      </trkpt>
      <trkpt lat="50.40493" lon="3.35711">
        <ele>18.88</ele>
        <time>2021-08-07T16:23:52Z</time>
      </trkpt>
      <trkpt lat="50.40492" lon="3.35714">
        <ele>18.88</ele>
        <time>2021-08-07T16:23:53Z</time>
      </trkpt>
      <trkpt lat="50.40492" lon="3.35717">
        <ele>18.88</ele>
        <time>2021-08-07T16:23:54Z</time>
      </trkpt>
      <trkpt lat="50.4049" lon="3.35738">
        <ele>18.88</ele>
        <time>2021-08-07T16:24:00Z</time>
      </trkpt>
      <trkpt lat="50.40486" lon="3.35782">
        <ele>18.88</ele>
        <time>2021-08-07T16:24:08Z</time>
      </trkpt>
      <trkpt lat="50.40485" lon="3.35796">
        <ele>18.88</ele>
        <time>2021-08-07T16:24:10Z</time>
      </trkpt>
      <trkpt lat="50.40484" lon="3.35802">
        <ele>18.88</ele>
        <time>2021-08-07T16:24:11Z</time>
      </trkpt>
      <trkpt lat="50.40483" lon="3.35808">
        <ele>18.88</ele>
        <time>2021-08-07T16:24:12Z</time>
      </trkpt>
      <trkpt lat="50.40474" lon="3.3587">
        <ele>18.88</ele>
        <time>2021-08-07T16:24:21Z</time>
      </trkpt>
      <trkpt lat="50.40465" lon="3.3593">
        <ele>18.88</ele>
        <time>2021-08-07T16:24:30Z</time>
      </trkpt>
      <trkpt lat="50.40456" lon="3.35994">
        <ele>18.88</ele>
        <time>2021-08-07T16:24:39Z</time>
      </trkpt>
      <trkpt lat="50.40446" lon="3.3605">
        <ele>18.88</ele>
        <time>2021-08-07T16:24:47Z</time>
      </trkpt>
      <trkpt lat="50.40434" lon="3.36116">
        <ele>18.88</ele>
        <time>2021-08-07T16:24:56Z</time>
      </trkpt>
      <trkpt lat="50.40423" lon="3.36176">
        <ele>18.88</ele>
        <time>2021-08-07T16:25:04Z</time>
      </trkpt>
      <trkpt lat="50.40413" lon="3.36245">
        <ele>18.88</ele>
        <time>2021-08-07T16:25:13Z</time>
      </trkpt>
      <trkpt lat="50.40404" lon="3.36315">
        <ele>18.88</ele>
        <time>2021-08-07T16:25:22Z</time>
      </trkpt>
      <trkpt lat="50.40395" lon="3.36383">
        <ele>18.88</ele>
        <time>2021-08-07T16:25:31Z</time>
      </trkpt>
      <trkpt lat="50.40389" lon="3.36412">
        <ele>18.88</ele>
        <time>2021-08-07T16:25:35Z</time>
      </trkpt>
      <trkpt lat="50.40379" lon="3.36478">
        <ele>18.4</ele>
        <time>2021-08-07T16:25:44Z</time>
      </trkpt>
      <trkpt lat="50.40368" lon="3.36541">
        <ele>18.4</ele>
        <time>2021-08-07T16:25:53Z</time>
      </trkpt>
      <trkpt lat="50.40364" lon="3.36576">
        <ele>18.4</ele>
        <time>2021-08-07T16:25:58Z</time>
      </trkpt>
      <trkpt lat="50.40353" lon="3.36642">
        <ele>18.4</ele>
        <time>2021-08-07T16:26:07Z</time>
      </trkpt>
      <trkpt lat="50.40346" lon="3.36689">
        <ele>18.4</ele>
        <time>2021-08-07T16:26:14Z</time>
      </trkpt>
      <trkpt lat="50.40342" lon="3.36709">
        <ele>19.36</ele>
        <time>2021-08-07T16:26:17Z</time>
      </trkpt>
      <trkpt lat="50.40332" lon="3.36778">
        <ele>19.36</ele>
        <time>2021-08-07T16:26:27Z</time>
      </trkpt>
      <trkpt lat="50.40322" lon="3.36839">
        <ele>19.84</ele>
        <time>2021-08-07T16:26:35Z</time>
      </trkpt>
      <trkpt lat="50.40312" lon="3.36907">
        <ele>19.84</ele>
        <time>2021-08-07T16:26:44Z</time>
      </trkpt>
      <trkpt lat="50.40303" lon="3.36962">
        <ele>19.84</ele>
        <time>2021-08-07T16:26:52Z</time>
      </trkpt>
      <trkpt lat="50.40298" lon="3.36997">
        <ele>19.84</ele>
        <time>2021-08-07T16:26:58Z</time>
      </trkpt>
      <trkpt lat="50.40294" lon="3.3704">
        <ele>19.84</ele>
        <time>2021-08-07T16:27:05Z</time>
      </trkpt>
      <trkpt lat="50.40291" lon="3.37061">
        <ele>19.84</ele>
        <time>2021-08-07T16:27:08Z</time>
      </trkpt>
      <trkpt lat="50.40271" lon="3.37147">
        <ele>20.32</ele>
        <time>2021-08-07T16:27:20Z</time>
      </trkpt>
      <trkpt lat="50.4027" lon="3.37153">
        <ele>20.32</ele>
        <time>2021-08-07T16:27:21Z</time>
      </trkpt>
      <trkpt lat="50.40261" lon="3.37213">
        <ele>20.32</ele>
        <time>2021-08-07T16:27:30Z</time>
      </trkpt>
      <trkpt lat="50.4025" lon="3.37287">
        <ele>20.32</ele>
        <time>2021-08-07T16:27:41Z</time>
      </trkpt>
      <trkpt lat="50.40242" lon="3.37334">
        <ele>20.32</ele>
        <time>2021-08-07T16:27:48Z</time>
      </trkpt>
      <trkpt lat="50.40234" lon="3.37388">
        <ele>20.32</ele>
        <time>2021-08-07T16:27:57Z</time>
      </trkpt>
      <trkpt lat="50.40229" lon="3.37418">
        <ele>20.32</ele>
        <time>2021-08-07T16:28:02Z</time>
      </trkpt>
      <trkpt lat="50.40228" lon="3.37424">
        <ele>20.32</ele>
        <time>2021-08-07T16:28:03Z</time>
      </trkpt>
      <trkpt lat="50.40222" lon="3.37462">
        <ele>20.32</ele>
        <time>2021-08-07T16:28:09Z</time>
      </trkpt>
      <trkpt lat="50.40221" lon="3.37468">
        <ele>20.32</ele>
        <time>2021-08-07T16:28:10Z</time>
      </trkpt>
      <trkpt lat="50.40214" lon="3.3752">
        <ele>20.32</ele>
        <time>2021-08-07T16:28:18Z</time>
      </trkpt>
      <trkpt lat="50.40205" lon="3.37581">
        <ele>18.88</ele>
        <time>2021-08-07T16:28:27Z</time>
      </trkpt>
      <trkpt lat="50.40196" lon="3.3764">
        <ele>18.88</ele>
        <time>2021-08-07T16:28:36Z</time>
      </trkpt>
      <trkpt lat="50.40192" lon="3.3768">
        <ele>18.88</ele>
        <time>2021-08-07T16:28:43Z</time>
      </trkpt>
      <trkpt lat="50.40186" lon="3.37721">
        <ele>18.88</ele>
        <time>2021-08-07T16:28:51Z</time>
      </trkpt>
      <trkpt lat="50.40184" lon="3.3774">
        <ele>18.88</ele>
        <time>2021-08-07T16:28:57Z</time>
      </trkpt>
      <trkpt lat="50.40183" lon="3.37744">
        <ele>18.88</ele>
        <time>2021-08-07T16:28:59Z</time>
      </trkpt>
      <trkpt lat="50.40181" lon="3.37747">
        <ele>18.88</ele>
        <time>2021-08-07T16:29:02Z</time>
      </trkpt>
      <trkpt lat="50.4018" lon="3.37749">
        <ele>18.88</ele>
        <time>2021-08-07T16:29:03Z</time>
      </trkpt>
      <trkpt lat="50.40176" lon="3.37756">
        <ele>18.88</ele>
        <time>2021-08-07T16:29:06Z</time>
      </trkpt>
      <trkpt lat="50.40176" lon="3.3776">
        <ele>18.88</ele>
        <time>2021-08-07T16:29:07Z</time>
      </trkpt>
      <trkpt lat="50.40177" lon="3.37763">
        <ele>18.88</ele>
        <time>2021-08-07T16:29:08Z</time>
      </trkpt>
      <trkpt lat="50.40178" lon="3.37766">
        <ele>18.88</ele>
        <time>2021-08-07T16:29:09Z</time>
      </trkpt>
      <trkpt lat="50.40179" lon="3.3777">
        <ele>18.88</ele>
        <time>2021-08-07T16:29:10Z</time>
      </trkpt>
      <trkpt lat="50.40181" lon="3.37772">
        <ele>18.88</ele>
        <time>2021-08-07T16:29:11Z</time>
      </trkpt>
      <trkpt lat="50.40184" lon="3.37774">
        <ele>18.88</ele>
        <time>2021-08-07T16:29:12Z</time>
      </trkpt>
      <trkpt lat="50.40187" lon="3.37777">
        <ele>18.88</ele>
        <time>2021-08-07T16:29:13Z</time>
      </trkpt>
      <trkpt lat="50.4019" lon="3.3778">
        <ele>18.88</ele>
        <time>2021-08-07T16:29:14Z</time>
      </trkpt>
      <trkpt lat="50.40193" lon="3.37783">
        <ele>18.88</ele>
        <time>2021-08-07T16:29:15Z</time>
      </trkpt>
      <trkpt lat="50.40226" lon="3.37813">
        <ele>18.88</ele>
        <time>2021-08-07T16:29:24Z</time>
      </trkpt>
      <trkpt lat="50.40259" lon="3.37843">
        <ele>18.88</ele>
        <time>2021-08-07T16:29:32Z</time>
      </trkpt>
      <trkpt lat="50.40288" lon="3.37869">
        <ele>18.88</ele>
        <time>2021-08-07T16:29:39Z</time>
      </trkpt>
      <trkpt lat="50.403" lon="3.37881">
        <ele>18.88</ele>
        <time>2021-08-07T16:29:42Z</time>
      </trkpt>
      <trkpt lat="50.40344" lon="3.3792">
        <ele>18.88</ele>
        <time>2021-08-07T16:29:52Z</time>
      </trkpt>
      <trkpt lat="50.40385" lon="3.37957">
        <ele>18.88</ele>
        <time>2021-08-07T16:30:01Z</time>
      </trkpt>
      <trkpt lat="50.40432" lon="3.38">
        <ele>18.88</ele>
        <time>2021-08-07T16:30:11Z</time>
      </trkpt>
      <trkpt lat="50.40483" lon="3.38047">
        <ele>18.88</ele>
        <time>2021-08-07T16:30:22Z</time>
      </trkpt>
      <trkpt lat="50.40535" lon="3.38093">
        <ele>18.4</ele>
        <time>2021-08-07T16:30:33Z</time>
      </trkpt>
      <trkpt lat="50.40588" lon="3.3814">
        <ele>18.4</ele>
        <time>2021-08-07T16:30:44Z</time>
      </trkpt>
      <trkpt lat="50.40652" lon="3.38198">
        <ele>18.4</ele>
        <time>2021-08-07T16:30:57Z</time>
      </trkpt>
      <trkpt lat="50.40711" lon="3.38251">
        <ele>18.4</ele>
        <time>2021-08-07T16:31:09Z</time>
      </trkpt>
      <trkpt lat="50.40771" lon="3.38305">
        <ele>18.4</ele>
        <time>2021-08-07T16:31:21Z</time>
      </trkpt>
      <trkpt lat="50.40827" lon="3.38354">
        <ele>17.92</ele>
        <time>2021-08-07T16:31:32Z</time>
      </trkpt>
      <trkpt lat="50.40878" lon="3.38395">
        <ele>17.92</ele>
        <time>2021-08-07T16:31:42Z</time>
      </trkpt>
      <trkpt lat="50.40881" lon="3.384">
        <ele>17.92</ele>
        <time>2021-08-07T16:31:43Z</time>
      </trkpt>
      <trkpt lat="50.40883" lon="3.38407">
        <ele>17.92</ele>
        <time>2021-08-07T16:31:44Z</time>
      </trkpt>
      <trkpt lat="50.40882" lon="3.38413">
        <ele>17.92</ele>
        <time>2021-08-07T16:31:45Z</time>
      </trkpt>
      <trkpt lat="50.40879" lon="3.38419">
        <ele>17.92</ele>
        <time>2021-08-07T16:31:46Z</time>
      </trkpt>
      <trkpt lat="50.40876" lon="3.38424">
        <ele>17.92</ele>
        <time>2021-08-07T16:31:47Z</time>
      </trkpt>
      <trkpt lat="50.40845" lon="3.38468">
        <ele>17.92</ele>
        <time>2021-08-07T16:31:56Z</time>
      </trkpt>
      <trkpt lat="50.40833" lon="3.3849">
        <ele>17.44</ele>
        <time>2021-08-07T16:32:00Z</time>
      </trkpt>
      <trkpt lat="50.40831" lon="3.38497">
        <ele>17.44</ele>
        <time>2021-08-07T16:32:01Z</time>
      </trkpt>
      <trkpt lat="50.40829" lon="3.38505">
        <ele>17.44</ele>
        <time>2021-08-07T16:32:02Z</time>
      </trkpt>
      <trkpt lat="50.40829" lon="3.38512">
        <ele>17.44</ele>
        <time>2021-08-07T16:32:03Z</time>
      </trkpt>
      <trkpt lat="50.40829" lon="3.38519">
        <ele>17.44</ele>
        <time>2021-08-07T16:32:04Z</time>
      </trkpt>
      <trkpt lat="50.4083" lon="3.38527">
        <ele>17.44</ele>
        <time>2021-08-07T16:32:05Z</time>
      </trkpt>
      <trkpt lat="50.4084" lon="3.38605">
        <ele>17.44</ele>
        <time>2021-08-07T16:32:15Z</time>
      </trkpt>
      <trkpt lat="50.40848" lon="3.38673">
        <ele>17.44</ele>
        <time>2021-08-07T16:32:24Z</time>
      </trkpt>
      <trkpt lat="50.40856" lon="3.38733">
        <ele>17.44</ele>
        <time>2021-08-07T16:32:32Z</time>
      </trkpt>
      <trkpt lat="50.40858" lon="3.38755">
        <ele>17.44</ele>
        <time>2021-08-07T16:32:35Z</time>
      </trkpt>
      <trkpt lat="50.40862" lon="3.38784">
        <ele>16.96</ele>
        <time>2021-08-07T16:32:39Z</time>
      </trkpt>
      <trkpt lat="50.40863" lon="3.38791">
        <ele>16.96</ele>
        <time>2021-08-07T16:32:40Z</time>
      </trkpt>
      <trkpt lat="50.40864" lon="3.38798">
        <ele>16.96</ele>
        <time>2021-08-07T16:32:41Z</time>
      </trkpt>
      <trkpt lat="50.40866" lon="3.38813">
        <ele>16.96</ele>
        <time>2021-08-07T16:32:43Z</time>
      </trkpt>
      <trkpt lat="50.40873" lon="3.38855">
        <ele>16.96</ele>
        <time>2021-08-07T16:32:49Z</time>
      </trkpt>
      <trkpt lat="50.40875" lon="3.38885">
        <ele>16.96</ele>
        <time>2021-08-07T16:32:53Z</time>
      </trkpt>
      <trkpt lat="50.40876" lon="3.38892">
        <ele>16.96</ele>
        <time>2021-08-07T16:32:54Z</time>
      </trkpt>
      <trkpt lat="50.40877" lon="3.38906">
        <ele>16.96</ele>
        <time>2021-08-07T16:32:56Z</time>
      </trkpt>
      <trkpt lat="50.40878" lon="3.38913">
        <ele>16.96</ele>
        <time>2021-08-07T16:32:57Z</time>
      </trkpt>
      <trkpt lat="50.40878" lon="3.3892">
        <ele>16.96</ele>
        <time>2021-08-07T16:32:58Z</time>
      </trkpt>
      <trkpt lat="50.40885" lon="3.38981">
        <ele>17.92</ele>
        <time>2021-08-07T16:33:07Z</time>
      </trkpt>
      <trkpt lat="50.4089" lon="3.39041">
        <ele>16.96</ele>
        <time>2021-08-07T16:33:15Z</time>
      </trkpt>
      <trkpt lat="50.40892" lon="3.39048">
        <ele>16.96</ele>
        <time>2021-08-07T16:33:16Z</time>
      </trkpt>
      <trkpt lat="50.40893" lon="3.39063">
        <ele>16.96</ele>
        <time>2021-08-07T16:33:18Z</time>
      </trkpt>
      <trkpt lat="50.40894" lon="3.39078">
        <ele>16.96</ele>
        <time>2021-08-07T16:33:20Z</time>
      </trkpt>
      <trkpt lat="50.40895" lon="3.39085">
        <ele>16.96</ele>
        <time>2021-08-07T16:33:21Z</time>
      </trkpt>
      <trkpt lat="50.40903" lon="3.39143">
        <ele>16.96</ele>
        <time>2021-08-07T16:33:29Z</time>
      </trkpt>
      <trkpt lat="50.40909" lon="3.39206">
        <ele>16.96</ele>
        <time>2021-08-07T16:33:38Z</time>
      </trkpt>
      <trkpt lat="50.40917" lon="3.39265">
        <ele>16.96</ele>
        <time>2021-08-07T16:33:46Z</time>
      </trkpt>
      <trkpt lat="50.40919" lon="3.39272">
        <ele>16.96</ele>
        <time>2021-08-07T16:33:47Z</time>
      </trkpt>
      <trkpt lat="50.4092" lon="3.3928">
        <ele>16.96</ele>
        <time>2021-08-07T16:33:48Z</time>
      </trkpt>
      <trkpt lat="50.40921" lon="3.39288">
        <ele>16.96</ele>
        <time>2021-08-07T16:33:49Z</time>
      </trkpt>
      <trkpt lat="50.40921" lon="3.39296">
        <ele>16.96</ele>
        <time>2021-08-07T16:33:50Z</time>
      </trkpt>
      <trkpt lat="50.40922" lon="3.39311">
        <ele>16.96</ele>
        <time>2021-08-07T16:33:52Z</time>
      </trkpt>
      <trkpt lat="50.40923" lon="3.39319">
        <ele>16.96</ele>
        <time>2021-08-07T16:33:53Z</time>
      </trkpt>
      <trkpt lat="50.40924" lon="3.39327">
        <ele>16.96</ele>
        <time>2021-08-07T16:33:54Z</time>
      </trkpt>
      <trkpt lat="50.40926" lon="3.39364">
        <ele>16.96</ele>
        <time>2021-08-07T16:33:59Z</time>
      </trkpt>
      <trkpt lat="50.40926" lon="3.39378">
        <ele>16.96</ele>
        <time>2021-08-07T16:34:01Z</time>
      </trkpt>
      <trkpt lat="50.40927" lon="3.39385">
        <ele>16.96</ele>
        <time>2021-08-07T16:34:02Z</time>
      </trkpt>
      <trkpt lat="50.40929" lon="3.394">
        <ele>16.96</ele>
        <time>2021-08-07T16:34:04Z</time>
      </trkpt>
      <trkpt lat="50.40935" lon="3.39467">
        <ele>16.96</ele>
        <time>2021-08-07T16:34:13Z</time>
      </trkpt>
      <trkpt lat="50.4094" lon="3.39519">
        <ele>16.96</ele>
        <time>2021-08-07T16:34:20Z</time>
      </trkpt>
      <trkpt lat="50.40944" lon="3.39556">
        <ele>16.96</ele>
        <time>2021-08-07T16:34:25Z</time>
      </trkpt>
      <trkpt lat="50.40945" lon="3.39563">
        <ele>16.96</ele>
        <time>2021-08-07T16:34:26Z</time>
      </trkpt>
      <trkpt lat="50.40948" lon="3.39601">
        <ele>16.96</ele>
        <time>2021-08-07T16:34:31Z</time>
      </trkpt>
      <trkpt lat="50.40949" lon="3.39608">
        <ele>16.96</ele>
        <time>2021-08-07T16:34:32Z</time>
      </trkpt>
      <trkpt lat="50.4095" lon="3.39616">
        <ele>16.96</ele>
        <time>2021-08-07T16:34:33Z</time>
      </trkpt>
      <trkpt lat="50.40952" lon="3.39631">
        <ele>16.96</ele>
        <time>2021-08-07T16:34:35Z</time>
      </trkpt>
      <trkpt lat="50.40953" lon="3.39638">
        <ele>16.96</ele>
        <time>2021-08-07T16:34:36Z</time>
      </trkpt>
      <trkpt lat="50.40954" lon="3.39645">
        <ele>16.96</ele>
        <time>2021-08-07T16:34:37Z</time>
      </trkpt>
      <trkpt lat="50.40954" lon="3.3966">
        <ele>16.96</ele>
        <time>2021-08-07T16:34:39Z</time>
      </trkpt>
      <trkpt lat="50.40957" lon="3.3969">
        <ele>16.96</ele>
        <time>2021-08-07T16:34:43Z</time>
      </trkpt>
      <trkpt lat="50.40958" lon="3.39697">
        <ele>16.96</ele>
        <time>2021-08-07T16:34:44Z</time>
      </trkpt>
      <trkpt lat="50.40959" lon="3.39704">
        <ele>16.96</ele>
        <time>2021-08-07T16:34:45Z</time>
      </trkpt>
      <trkpt lat="50.40961" lon="3.39726">
        <ele>16.96</ele>
        <time>2021-08-07T16:34:48Z</time>
      </trkpt>
      <trkpt lat="50.40962" lon="3.39739">
        <ele>16.96</ele>
        <time>2021-08-07T16:34:50Z</time>
      </trkpt>
      <trkpt lat="50.40963" lon="3.39747">
        <ele>16.96</ele>
        <time>2021-08-07T16:34:51Z</time>
      </trkpt>
      <trkpt lat="50.40964" lon="3.39761">
        <ele>16.96</ele>
        <time>2021-08-07T16:34:53Z</time>
      </trkpt>
      <trkpt lat="50.40966" lon="3.39775">
        <ele>16.96</ele>
        <time>2021-08-07T16:34:55Z</time>
      </trkpt>
      <trkpt lat="50.40966" lon="3.39782">
        <ele>16.96</ele>
        <time>2021-08-07T16:34:56Z</time>
      </trkpt>
      <trkpt lat="50.40967" lon="3.39797">
        <ele>16.96</ele>
        <time>2021-08-07T16:34:58Z</time>
      </trkpt>
      <trkpt lat="50.40968" lon="3.39805">
        <ele>16.96</ele>
        <time>2021-08-07T16:34:59Z</time>
      </trkpt>
      <trkpt lat="50.40968" lon="3.39812">
        <ele>16.96</ele>
        <time>2021-08-07T16:35:00Z</time>
      </trkpt>
      <trkpt lat="50.40968" lon="3.39825">
        <ele>16.96</ele>
        <time>2021-08-07T16:35:02Z</time>
      </trkpt>
      <trkpt lat="50.40965" lon="3.39831">
        <ele>16.96</ele>
        <time>2021-08-07T16:35:03Z</time>
      </trkpt>
      <trkpt lat="50.40962" lon="3.39835">
        <ele>16.96</ele>
        <time>2021-08-07T16:35:04Z</time>
      </trkpt>
      <trkpt lat="50.4096" lon="3.3984">
        <ele>16.96</ele>
        <time>2021-08-07T16:35:05Z</time>
      </trkpt>
      <trkpt lat="50.40957" lon="3.39844">
        <ele>16.96</ele>
        <time>2021-08-07T16:35:06Z</time>
      </trkpt>
      <trkpt lat="50.40955" lon="3.39849">
        <ele>16.96</ele>
        <time>2021-08-07T16:35:07Z</time>
      </trkpt>
      <trkpt lat="50.40939" lon="3.39884">
        <ele>16.96</ele>
        <time>2021-08-07T16:35:14Z</time>
      </trkpt>
      <trkpt lat="50.40925" lon="3.39918">
        <ele>16.96</ele>
        <time>2021-08-07T16:35:20Z</time>
      </trkpt>
      <trkpt lat="50.40922" lon="3.39923">
        <ele>16.96</ele>
        <time>2021-08-07T16:35:21Z</time>
      </trkpt>
      <trkpt lat="50.40917" lon="3.39935">
        <ele>18.4</ele>
        <time>2021-08-07T16:35:23Z</time>
      </trkpt>
      <trkpt lat="50.40913" lon="3.39946">
        <ele>18.4</ele>
        <time>2021-08-07T16:35:25Z</time>
      </trkpt>
      <trkpt lat="50.40904" lon="3.3997">
        <ele>18.4</ele>
        <time>2021-08-07T16:35:29Z</time>
      </trkpt>
      <trkpt lat="50.40903" lon="3.39977">
        <ele>18.4</ele>
        <time>2021-08-07T16:35:30Z</time>
      </trkpt>
      <trkpt lat="50.40902" lon="3.39983">
        <ele>18.4</ele>
        <time>2021-08-07T16:35:31Z</time>
      </trkpt>
      <trkpt lat="50.40901" lon="3.3999">
        <ele>18.4</ele>
        <time>2021-08-07T16:35:32Z</time>
      </trkpt>
      <trkpt lat="50.40901" lon="3.39998">
        <ele>18.4</ele>
        <time>2021-08-07T16:35:33Z</time>
      </trkpt>
      <trkpt lat="50.40901" lon="3.40005">
        <ele>18.4</ele>
        <time>2021-08-07T16:35:34Z</time>
      </trkpt>
      <trkpt lat="50.40901" lon="3.40012">
        <ele>18.4</ele>
        <time>2021-08-07T16:35:35Z</time>
      </trkpt>
      <trkpt lat="50.40902" lon="3.40019">
        <ele>18.4</ele>
        <time>2021-08-07T16:35:36Z</time>
      </trkpt>
      <trkpt lat="50.40909" lon="3.40076">
        <ele>18.4</ele>
        <time>2021-08-07T16:35:44Z</time>
      </trkpt>
      <trkpt lat="50.40913" lon="3.40119">
        <ele>18.4</ele>
        <time>2021-08-07T16:35:50Z</time>
      </trkpt>
      <trkpt lat="50.40913" lon="3.40147">
        <ele>18.4</ele>
        <time>2021-08-07T16:35:54Z</time>
      </trkpt>
      <trkpt lat="50.40914" lon="3.40153">
        <ele>18.4</ele>
        <time>2021-08-07T16:35:55Z</time>
      </trkpt>
      <trkpt lat="50.40914" lon="3.4016">
        <ele>18.4</ele>
        <time>2021-08-07T16:35:56Z</time>
      </trkpt>
      <trkpt lat="50.40919" lon="3.40208">
        <ele>18.88</ele>
        <time>2021-08-07T16:36:03Z</time>
      </trkpt>
      <trkpt lat="50.40921" lon="3.40214">
        <ele>18.88</ele>
        <time>2021-08-07T16:36:04Z</time>
      </trkpt>
      <trkpt lat="50.40924" lon="3.40219">
        <ele>18.88</ele>
        <time>2021-08-07T16:36:05Z</time>
      </trkpt>
      <trkpt lat="50.40927" lon="3.40224">
        <ele>18.88</ele>
        <time>2021-08-07T16:36:06Z</time>
      </trkpt>
      <trkpt lat="50.4093" lon="3.40229">
        <ele>18.88</ele>
        <time>2021-08-07T16:36:07Z</time>
      </trkpt>
      <trkpt lat="50.40942" lon="3.40253">
        <ele>19.36</ele>
        <time>2021-08-07T16:36:13Z</time>
      </trkpt>
      <trkpt lat="50.40941" lon="3.40257">
        <ele>19.36</ele>
        <time>2021-08-07T16:36:14Z</time>
      </trkpt>
      <trkpt lat="50.4094" lon="3.4026">
        <ele>19.36</ele>
        <time>2021-08-07T16:36:15Z</time>
      </trkpt>
      <trkpt lat="50.40938" lon="3.40262">
        <ele>19.36</ele>
        <time>2021-08-07T16:36:16Z</time>
      </trkpt>
      <trkpt lat="50.40913" lon="3.40294">
        <ele>19.36</ele>
        <time>2021-08-07T16:36:24Z</time>
      </trkpt>
      <trkpt lat="50.40887" lon="3.4033">
        <ele>19.36</ele>
        <time>2021-08-07T16:36:32Z</time>
      </trkpt>
      <trkpt lat="50.40884" lon="3.40335">
        <ele>19.36</ele>
        <time>2021-08-07T16:36:33Z</time>
      </trkpt>
      <trkpt lat="50.40881" lon="3.4034">
        <ele>19.36</ele>
        <time>2021-08-07T16:36:34Z</time>
      </trkpt>
      <trkpt lat="50.4084" lon="3.40388">
        <ele>19.36</ele>
        <time>2021-08-07T16:36:46Z</time>
      </trkpt>
      <trkpt lat="50.40799" lon="3.40432">
        <ele>19.36</ele>
        <time>2021-08-07T16:36:57Z</time>
      </trkpt>
      <trkpt lat="50.40787" lon="3.40451">
        <ele>19.36</ele>
        <time>2021-08-07T16:37:01Z</time>
      </trkpt>
      <trkpt lat="50.40785" lon="3.40457">
        <ele>19.36</ele>
        <time>2021-08-07T16:37:02Z</time>
      </trkpt>
      <trkpt lat="50.40784" lon="3.40463">
        <ele>19.36</ele>
        <time>2021-08-07T16:37:03Z</time>
      </trkpt>
      <trkpt lat="50.40783" lon="3.40469">
        <ele>19.36</ele>
        <time>2021-08-07T16:37:04Z</time>
      </trkpt>
      <trkpt lat="50.40782" lon="3.40475">
        <ele>19.36</ele>
        <time>2021-08-07T16:37:05Z</time>
      </trkpt>
      <trkpt lat="50.4078" lon="3.4048">
        <ele>19.84</ele>
        <time>2021-08-07T16:37:06Z</time>
      </trkpt>
      <trkpt lat="50.40777" lon="3.40485">
        <ele>19.84</ele>
        <time>2021-08-07T16:37:07Z</time>
      </trkpt>
      <trkpt lat="50.40773" lon="3.40489">
        <ele>19.84</ele>
        <time>2021-08-07T16:37:08Z</time>
      </trkpt>
      <trkpt lat="50.40769" lon="3.40492">
        <ele>19.84</ele>
        <time>2021-08-07T16:37:09Z</time>
      </trkpt>
      <trkpt lat="50.40765" lon="3.40493">
        <ele>19.84</ele>
        <time>2021-08-07T16:37:10Z</time>
      </trkpt>
      <trkpt lat="50.40761" lon="3.40494">
        <ele>19.84</ele>
        <time>2021-08-07T16:37:11Z</time>
      </trkpt>
      <trkpt lat="50.40708" lon="3.40512">
        <ele>19.84</ele>
        <time>2021-08-07T16:37:23Z</time>
      </trkpt>
      <trkpt lat="50.40668" lon="3.40531">
        <ele>19.84</ele>
        <time>2021-08-07T16:37:32Z</time>
      </trkpt>
      <trkpt lat="50.40631" lon="3.40551">
        <ele>19.84</ele>
        <time>2021-08-07T16:37:41Z</time>
      </trkpt>
      <trkpt lat="50.40605" lon="3.40567">
        <ele>19.84</ele>
        <time>2021-08-07T16:37:48Z</time>
      </trkpt>
      <trkpt lat="50.4059" lon="3.40569">
        <ele>19.84</ele>
        <time>2021-08-07T16:37:53Z</time>
      </trkpt>
      <trkpt lat="50.40588" lon="3.40573">
        <ele>19.84</ele>
        <time>2021-08-07T16:37:54Z</time>
      </trkpt>
      <trkpt lat="50.40586" lon="3.40576">
        <ele>19.84</ele>
        <time>2021-08-07T16:37:55Z</time>
      </trkpt>
      <trkpt lat="50.40584" lon="3.4058">
        <ele>19.84</ele>
        <time>2021-08-07T16:37:56Z</time>
      </trkpt>
      <trkpt lat="50.40581" lon="3.40584">
        <ele>19.84</ele>
        <time>2021-08-07T16:37:57Z</time>
      </trkpt>
      <trkpt lat="50.40578" lon="3.40588">
        <ele>19.84</ele>
        <time>2021-08-07T16:37:58Z</time>
      </trkpt>
      <trkpt lat="50.40574" lon="3.40591">
        <ele>19.84</ele>
        <time>2021-08-07T16:37:59Z</time>
      </trkpt>
      <trkpt lat="50.40571" lon="3.40595">
        <ele>19.84</ele>
        <time>2021-08-07T16:38:00Z</time>
      </trkpt>
      <trkpt lat="50.40567" lon="3.40598">
        <ele>19.84</ele>
        <time>2021-08-07T16:38:01Z</time>
      </trkpt>
      <trkpt lat="50.40539" lon="3.40636">
        <ele>19.84</ele>
        <time>2021-08-07T16:38:09Z</time>
      </trkpt>
      <trkpt lat="50.4051" lon="3.40665">
        <ele>19.84</ele>
        <time>2021-08-07T16:38:16Z</time>
      </trkpt>
      <trkpt lat="50.40478" lon="3.40698">
        <ele>19.84</ele>
        <time>2021-08-07T16:38:24Z</time>
      </trkpt>
      <trkpt lat="50.40449" lon="3.40726">
        <ele>18.88</ele>
        <time>2021-08-07T16:38:31Z</time>
      </trkpt>
      <trkpt lat="50.40431" lon="3.4074">
        <ele>18.88</ele>
        <time>2021-08-07T16:38:35Z</time>
      </trkpt>
      <trkpt lat="50.40427" lon="3.40744">
        <ele>18.88</ele>
        <time>2021-08-07T16:38:36Z</time>
      </trkpt>
      <trkpt lat="50.40419" lon="3.40752">
        <ele>18.88</ele>
        <time>2021-08-07T16:38:38Z</time>
      </trkpt>
      <trkpt lat="50.40384" lon="3.4079">
        <ele>18.88</ele>
        <time>2021-08-07T16:38:47Z</time>
      </trkpt>
      <trkpt lat="50.40362" lon="3.40814">
        <ele>18.88</ele>
        <time>2021-08-07T16:38:53Z</time>
      </trkpt>
      <trkpt lat="50.40358" lon="3.40818">
        <ele>18.88</ele>
        <time>2021-08-07T16:38:54Z</time>
      </trkpt>
      <trkpt lat="50.40348" lon="3.40829">
        <ele>18.88</ele>
        <time>2021-08-07T16:38:57Z</time>
      </trkpt>
      <trkpt lat="50.40344" lon="3.40834">
        <ele>18.88</ele>
        <time>2021-08-07T16:38:58Z</time>
      </trkpt>
      <trkpt lat="50.40341" lon="3.40838">
        <ele>18.88</ele>
        <time>2021-08-07T16:38:59Z</time>
      </trkpt>
      <trkpt lat="50.40337" lon="3.40841">
        <ele>18.88</ele>
        <time>2021-08-07T16:39:00Z</time>
      </trkpt>
      <trkpt lat="50.40333" lon="3.40845">
        <ele>19.84</ele>
        <time>2021-08-07T16:39:01Z</time>
      </trkpt>
      <trkpt lat="50.4033" lon="3.40849">
        <ele>19.84</ele>
        <time>2021-08-07T16:39:02Z</time>
      </trkpt>
      <trkpt lat="50.40325" lon="3.40854">
        <ele>19.84</ele>
        <time>2021-08-07T16:39:03Z</time>
      </trkpt>
      <trkpt lat="50.40322" lon="3.40857">
        <ele>19.84</ele>
        <time>2021-08-07T16:39:04Z</time>
      </trkpt>
      <trkpt lat="50.40292" lon="3.40887">
        <ele>19.84</ele>
        <time>2021-08-07T16:39:12Z</time>
      </trkpt>
      <trkpt lat="50.40259" lon="3.40921">
        <ele>20.32</ele>
        <time>2021-08-07T16:39:21Z</time>
      </trkpt>
      <trkpt lat="50.4024" lon="3.40941">
        <ele>20.32</ele>
        <time>2021-08-07T16:39:28Z</time>
      </trkpt>
      <trkpt lat="50.40222" lon="3.40961">
        <ele>20.81</ele>
        <time>2021-08-07T16:39:34Z</time>
      </trkpt>
      <trkpt lat="50.40194" lon="3.4099">
        <ele>20.81</ele>
        <time>2021-08-07T16:39:42Z</time>
      </trkpt>
      <trkpt lat="50.4017" lon="3.41016">
        <ele>20.81</ele>
        <time>2021-08-07T16:39:49Z</time>
      </trkpt>
      <trkpt lat="50.40165" lon="3.41019">
        <ele>20.81</ele>
        <time>2021-08-07T16:39:50Z</time>
      </trkpt>
      <trkpt lat="50.40137" lon="3.41049">
        <ele>20.81</ele>
        <time>2021-08-07T16:39:58Z</time>
      </trkpt>
      <trkpt lat="50.40104" lon="3.41084">
        <ele>20.81</ele>
        <time>2021-08-07T16:40:07Z</time>
      </trkpt>
      <trkpt lat="50.40077" lon="3.41113">
        <ele>21.29</ele>
        <time>2021-08-07T16:40:14Z</time>
      </trkpt>
      <trkpt lat="50.40047" lon="3.41145">
        <ele>21.29</ele>
        <time>2021-08-07T16:40:22Z</time>
      </trkpt>
      <trkpt lat="50.4002" lon="3.41173">
        <ele>20.81</ele>
        <time>2021-08-07T16:40:29Z</time>
      </trkpt>
      <trkpt lat="50.40014" lon="3.41181">
        <ele>20.81</ele>
        <time>2021-08-07T16:40:31Z</time>
      </trkpt>
      <trkpt lat="50.39986" lon="3.4121">
        <ele>20.81</ele>
        <time>2021-08-07T16:40:39Z</time>
      </trkpt>
      <trkpt lat="50.39959" lon="3.41236">
        <ele>21.29</ele>
        <time>2021-08-07T16:40:47Z</time>
      </trkpt>
      <trkpt lat="50.39938" lon="3.41258">
        <ele>21.29</ele>
        <time>2021-08-07T16:40:53Z</time>
      </trkpt>
      <trkpt lat="50.39912" lon="3.41284">
        <ele>21.29</ele>
        <time>2021-08-07T16:41:00Z</time>
      </trkpt>
      <trkpt lat="50.39882" lon="3.41317">
        <ele>21.29</ele>
        <time>2021-08-07T16:41:08Z</time>
      </trkpt>
      <trkpt lat="50.39864" lon="3.41336">
        <ele>21.29</ele>
        <time>2021-08-07T16:41:13Z</time>
      </trkpt>
      <trkpt lat="50.39861" lon="3.4134">
        <ele>21.29</ele>
        <time>2021-08-07T16:41:14Z</time>
      </trkpt>
      <trkpt lat="50.39854" lon="3.41348">
        <ele>21.29</ele>
        <time>2021-08-07T16:41:16Z</time>
      </trkpt>
      <trkpt lat="50.3985" lon="3.41351">
        <ele>21.29</ele>
        <time>2021-08-07T16:41:17Z</time>
      </trkpt>
      <trkpt lat="50.39846" lon="3.41354">
        <ele>21.29</ele>
        <time>2021-08-07T16:41:18Z</time>
      </trkpt>
      <trkpt lat="50.39811" lon="3.41391">
        <ele>20.32</ele>
        <time>2021-08-07T16:41:27Z</time>
      </trkpt>
      <trkpt lat="50.39804" lon="3.41399">
        <ele>20.32</ele>
        <time>2021-08-07T16:41:29Z</time>
      </trkpt>
      <trkpt lat="50.398" lon="3.41403">
        <ele>19.84</ele>
        <time>2021-08-07T16:41:30Z</time>
      </trkpt>
      <trkpt lat="50.39797" lon="3.41406">
        <ele>19.84</ele>
        <time>2021-08-07T16:41:31Z</time>
      </trkpt>
      <trkpt lat="50.39783" lon="3.41416">
        <ele>19.84</ele>
        <time>2021-08-07T16:41:36Z</time>
      </trkpt>
      <trkpt lat="50.39785" lon="3.41416">
        <ele>19.84</ele>
        <time>2021-08-07T16:41:45Z</time>
      </trkpt>
      <trkpt lat="50.3978" lon="3.41415">
        <ele>19.84</ele>
        <time>2021-08-07T16:42:00Z</time>
      </trkpt>
      <trkpt lat="50.39778" lon="3.41418">
        <ele>19.84</ele>
        <time>2021-08-07T16:42:07Z</time>
      </trkpt>
      <trkpt lat="50.39777" lon="3.41423">
        <ele>19.84</ele>
        <time>2021-08-07T16:42:11Z</time>
      </trkpt>
      <trkpt lat="50.39775" lon="3.41425">
        <ele>19.84</ele>
        <time>2021-08-07T16:42:12Z</time>
      </trkpt>
      <trkpt lat="50.39774" lon="3.41428">
        <ele>19.84</ele>
        <time>2021-08-07T16:42:13Z</time>
      </trkpt>
      <trkpt lat="50.39753" lon="3.41448">
        <ele>19.84</ele>
        <time>2021-08-07T16:42:20Z</time>
      </trkpt>
      <trkpt lat="50.39733" lon="3.4147">
        <ele>19.84</ele>
        <time>2021-08-07T16:42:26Z</time>
      </trkpt>
      <trkpt lat="50.39718" lon="3.41485">
        <ele>19.84</ele>
        <time>2021-08-07T16:42:30Z</time>
      </trkpt>
      <trkpt lat="50.39704" lon="3.41502">
        <ele>19.84</ele>
        <time>2021-08-07T16:42:34Z</time>
      </trkpt>
      <trkpt lat="50.39701" lon="3.41505">
        <ele>19.84</ele>
        <time>2021-08-07T16:42:35Z</time>
      </trkpt>
      <trkpt lat="50.39697" lon="3.41509">
        <ele>19.84</ele>
        <time>2021-08-07T16:42:36Z</time>
      </trkpt>
      <trkpt lat="50.39693" lon="3.41513">
        <ele>19.84</ele>
        <time>2021-08-07T16:42:37Z</time>
      </trkpt>
      <trkpt lat="50.3969" lon="3.41517">
        <ele>19.84</ele>
        <time>2021-08-07T16:42:38Z</time>
      </trkpt>
      <trkpt lat="50.39686" lon="3.4152">
        <ele>19.84</ele>
        <time>2021-08-07T16:42:39Z</time>
      </trkpt>
      <trkpt lat="50.39659" lon="3.41548">
        <ele>19.84</ele>
        <time>2021-08-07T16:42:47Z</time>
      </trkpt>
      <trkpt lat="50.39631" lon="3.41577">
        <ele>19.84</ele>
        <time>2021-08-07T16:42:55Z</time>
      </trkpt>
      <trkpt lat="50.39623" lon="3.41585">
        <ele>19.84</ele>
        <time>2021-08-07T16:42:57Z</time>
      </trkpt>
      <trkpt lat="50.39617" lon="3.41591">
        <ele>19.84</ele>
        <time>2021-08-07T16:42:59Z</time>
      </trkpt>
      <trkpt lat="50.39614" lon="3.41596">
        <ele>19.84</ele>
        <time>2021-08-07T16:43:00Z</time>
      </trkpt>
      <trkpt lat="50.39599" lon="3.41613">
        <ele>19.84</ele>
        <time>2021-08-07T16:43:04Z</time>
      </trkpt>
      <trkpt lat="50.39595" lon="3.41619">
        <ele>19.84</ele>
        <time>2021-08-07T16:43:05Z</time>
      </trkpt>
      <trkpt lat="50.39591" lon="3.41623">
        <ele>19.84</ele>
        <time>2021-08-07T16:43:06Z</time>
      </trkpt>
      <trkpt lat="50.39583" lon="3.4163">
        <ele>19.84</ele>
        <time>2021-08-07T16:43:08Z</time>
      </trkpt>
      <trkpt lat="50.3958" lon="3.41634">
        <ele>19.84</ele>
        <time>2021-08-07T16:43:09Z</time>
      </trkpt>
      <trkpt lat="50.39571" lon="3.41641">
        <ele>19.84</ele>
        <time>2021-08-07T16:43:11Z</time>
      </trkpt>
      <trkpt lat="50.39559" lon="3.41652">
        <ele>19.84</ele>
        <time>2021-08-07T16:43:14Z</time>
      </trkpt>
      <trkpt lat="50.39555" lon="3.41655">
        <ele>19.84</ele>
        <time>2021-08-07T16:43:15Z</time>
      </trkpt>
      <trkpt lat="50.39547" lon="3.41663">
        <ele>19.84</ele>
        <time>2021-08-07T16:43:17Z</time>
      </trkpt>
      <trkpt lat="50.39544" lon="3.41667">
        <ele>19.84</ele>
        <time>2021-08-07T16:43:18Z</time>
      </trkpt>
      <trkpt lat="50.3954" lon="3.41671">
        <ele>19.84</ele>
        <time>2021-08-07T16:43:19Z</time>
      </trkpt>
      <trkpt lat="50.39533" lon="3.41678">
        <ele>19.84</ele>
        <time>2021-08-07T16:43:21Z</time>
      </trkpt>
      <trkpt lat="50.3951" lon="3.41702">
        <ele>19.36</ele>
        <time>2021-08-07T16:43:27Z</time>
      </trkpt>
      <trkpt lat="50.3948" lon="3.4173">
        <ele>19.36</ele>
        <time>2021-08-07T16:43:34Z</time>
      </trkpt>
      <trkpt lat="50.39476" lon="3.41734">
        <ele>19.36</ele>
        <time>2021-08-07T16:43:35Z</time>
      </trkpt>
      <trkpt lat="50.39464" lon="3.41746">
        <ele>19.36</ele>
        <time>2021-08-07T16:43:38Z</time>
      </trkpt>
      <trkpt lat="50.3946" lon="3.4175">
        <ele>19.36</ele>
        <time>2021-08-07T16:43:39Z</time>
      </trkpt>
      <trkpt lat="50.39456" lon="3.41755">
        <ele>19.36</ele>
        <time>2021-08-07T16:43:40Z</time>
      </trkpt>
      <trkpt lat="50.39452" lon="3.41759">
        <ele>19.36</ele>
        <time>2021-08-07T16:43:41Z</time>
      </trkpt>
      <trkpt lat="50.39448" lon="3.41762">
        <ele>19.36</ele>
        <time>2021-08-07T16:43:42Z</time>
      </trkpt>
      <trkpt lat="50.39416" lon="3.41798">
        <ele>18.88</ele>
        <time>2021-08-07T16:43:50Z</time>
      </trkpt>
      <trkpt lat="50.39396" lon="3.41818">
        <ele>18.88</ele>
        <time>2021-08-07T16:43:55Z</time>
      </trkpt>
      <trkpt lat="50.39393" lon="3.41822">
        <ele>18.88</ele>
        <time>2021-08-07T16:43:56Z</time>
      </trkpt>
      <trkpt lat="50.39366" lon="3.41849">
        <ele>18.88</ele>
        <time>2021-08-07T16:44:03Z</time>
      </trkpt>
      <trkpt lat="50.39337" lon="3.4188">
        <ele>18.88</ele>
        <time>2021-08-07T16:44:11Z</time>
      </trkpt>
      <trkpt lat="50.39317" lon="3.41904">
        <ele>18.88</ele>
        <time>2021-08-07T16:44:17Z</time>
      </trkpt>
      <trkpt lat="50.39287" lon="3.41934">
        <ele>18.88</ele>
        <time>2021-08-07T16:44:25Z</time>
      </trkpt>
      <trkpt lat="50.39259" lon="3.41959">
        <ele>19.84</ele>
        <time>2021-08-07T16:44:33Z</time>
      </trkpt>
      <trkpt lat="50.39236" lon="3.41983">
        <ele>19.84</ele>
        <time>2021-08-07T16:44:40Z</time>
      </trkpt>
      <trkpt lat="50.39213" lon="3.42006">
        <ele>20.32</ele>
        <time>2021-08-07T16:44:47Z</time>
      </trkpt>
      <trkpt lat="50.39195" lon="3.42025">
        <ele>20.32</ele>
        <time>2021-08-07T16:44:53Z</time>
      </trkpt>
      <trkpt lat="50.39169" lon="3.42053">
        <ele>20.81</ele>
        <time>2021-08-07T16:45:01Z</time>
      </trkpt>
      <trkpt lat="50.39141" lon="3.42082">
        <ele>20.81</ele>
        <time>2021-08-07T16:45:09Z</time>
      </trkpt>
      <trkpt lat="50.39121" lon="3.421">
        <ele>21.77</ele>
        <time>2021-08-07T16:45:15Z</time>
      </trkpt>
      <trkpt lat="50.39092" lon="3.42129">
        <ele>22.73</ele>
        <time>2021-08-07T16:45:24Z</time>
      </trkpt>
      <trkpt lat="50.39074" lon="3.42149">
        <ele>23.69</ele>
        <time>2021-08-07T16:45:30Z</time>
      </trkpt>
      <trkpt lat="50.39061" lon="3.42164">
        <ele>24.17</ele>
        <time>2021-08-07T16:45:35Z</time>
      </trkpt>
      <trkpt lat="50.39044" lon="3.42181">
        <ele>25.13</ele>
        <time>2021-08-07T16:45:41Z</time>
      </trkpt>
      <trkpt lat="50.39019" lon="3.42207">
        <ele>25.61</ele>
        <time>2021-08-07T16:45:49Z</time>
      </trkpt>
      <trkpt lat="50.39001" lon="3.42225">
        <ele>26.09</ele>
        <time>2021-08-07T16:45:56Z</time>
      </trkpt>
      <trkpt lat="50.38982" lon="3.42245">
        <ele>26.57</ele>
        <time>2021-08-07T16:46:03Z</time>
      </trkpt>
      <trkpt lat="50.3896" lon="3.42265">
        <ele>27.05</ele>
        <time>2021-08-07T16:46:10Z</time>
      </trkpt>
      <trkpt lat="50.38939" lon="3.42286">
        <ele>28.02</ele>
        <time>2021-08-07T16:46:17Z</time>
      </trkpt>
      <trkpt lat="50.38917" lon="3.42312">
        <ele>28.98</ele>
        <time>2021-08-07T16:46:24Z</time>
      </trkpt>
      <trkpt lat="50.38887" lon="3.42344">
        <ele>29.94</ele>
        <time>2021-08-07T16:46:33Z</time>
      </trkpt>
      <trkpt lat="50.38872" lon="3.4236">
        <ele>29.94</ele>
        <time>2021-08-07T16:46:37Z</time>
      </trkpt>
      <trkpt lat="50.38847" lon="3.42386">
        <ele>30.42</ele>
        <time>2021-08-07T16:46:45Z</time>
      </trkpt>
      <trkpt lat="50.38831" lon="3.42403">
        <ele>30.42</ele>
        <time>2021-08-07T16:46:51Z</time>
      </trkpt>
      <trkpt lat="50.3882" lon="3.42414">
        <ele>30.42</ele>
        <time>2021-08-07T16:46:54Z</time>
      </trkpt>
      <trkpt lat="50.3878" lon="3.42452">
        <ele>30.9</ele>
        <time>2021-08-07T16:47:05Z</time>
      </trkpt>
      <trkpt lat="50.38742" lon="3.42491">
        <ele>31.86</ele>
        <time>2021-08-07T16:47:16Z</time>
      </trkpt>
      <trkpt lat="50.38707" lon="3.42526">
        <ele>32.34</ele>
        <time>2021-08-07T16:47:26Z</time>
      </trkpt>
      <trkpt lat="50.3867" lon="3.42562">
        <ele>33.78</ele>
        <time>2021-08-07T16:47:36Z</time>
      </trkpt>
      <trkpt lat="50.38638" lon="3.42595">
        <ele>34.74</ele>
        <time>2021-08-07T16:47:45Z</time>
      </trkpt>
      <trkpt lat="50.38601" lon="3.42632">
        <ele>35.23</ele>
        <time>2021-08-07T16:47:55Z</time>
      </trkpt>
      <trkpt lat="50.3858" lon="3.42655">
        <ele>35.71</ele>
        <time>2021-08-07T16:48:01Z</time>
      </trkpt>
      <trkpt lat="50.38567" lon="3.4267">
        <ele>35.71</ele>
        <time>2021-08-07T16:48:05Z</time>
      </trkpt>
      <trkpt lat="50.3853" lon="3.42709">
        <ele>35.71</ele>
        <time>2021-08-07T16:48:14Z</time>
      </trkpt>
      <trkpt lat="50.38482" lon="3.42755">
        <ele>36.19</ele>
        <time>2021-08-07T16:48:25Z</time>
      </trkpt>
      <trkpt lat="50.38437" lon="3.42804">
        <ele>36.19</ele>
        <time>2021-08-07T16:48:36Z</time>
      </trkpt>
      <trkpt lat="50.3839" lon="3.42851">
        <ele>36.67</ele>
        <time>2021-08-07T16:48:47Z</time>
      </trkpt>
      <trkpt lat="50.3835" lon="3.42895">
        <ele>37.63</ele>
        <time>2021-08-07T16:48:57Z</time>
      </trkpt>
      <trkpt lat="50.38304" lon="3.42942">
        <ele>38.11</ele>
        <time>2021-08-07T16:49:08Z</time>
      </trkpt>
      <trkpt lat="50.38264" lon="3.42984">
        <ele>38.11</ele>
        <time>2021-08-07T16:49:17Z</time>
      </trkpt>
      <trkpt lat="50.38231" lon="3.43019">
        <ele>38.11</ele>
        <time>2021-08-07T16:49:25Z</time>
      </trkpt>
      <trkpt lat="50.38226" lon="3.43024">
        <ele>38.11</ele>
        <time>2021-08-07T16:49:26Z</time>
      </trkpt>
      <trkpt lat="50.38195" lon="3.43056">
        <ele>38.11</ele>
        <time>2021-08-07T16:49:33Z</time>
      </trkpt>
      <trkpt lat="50.38162" lon="3.43085">
        <ele>38.11</ele>
        <time>2021-08-07T16:49:40Z</time>
      </trkpt>
      <trkpt lat="50.38156" lon="3.43086">
        <ele>38.11</ele>
        <time>2021-08-07T16:49:41Z</time>
      </trkpt>
      <trkpt lat="50.38151" lon="3.43087">
        <ele>38.11</ele>
        <time>2021-08-07T16:49:42Z</time>
      </trkpt>
      <trkpt lat="50.38096" lon="3.43091">
        <ele>37.15</ele>
        <time>2021-08-07T16:49:53Z</time>
      </trkpt>
      <trkpt lat="50.38057" lon="3.43091">
        <ele>37.15</ele>
        <time>2021-08-07T16:50:02Z</time>
      </trkpt>
      <trkpt lat="50.38032" lon="3.43093">
        <ele>36.67</ele>
        <time>2021-08-07T16:50:09Z</time>
      </trkpt>
      <trkpt lat="50.38001" lon="3.43097">
        <ele>36.67</ele>
        <time>2021-08-07T16:50:17Z</time>
      </trkpt>
      <trkpt lat="50.37974" lon="3.431">
        <ele>36.67</ele>
        <time>2021-08-07T16:50:23Z</time>
      </trkpt>
      <trkpt lat="50.37934" lon="3.43103">
        <ele>36.67</ele>
        <time>2021-08-07T16:50:32Z</time>
      </trkpt>
      <trkpt lat="50.37922" lon="3.431">
        <ele>37.15</ele>
        <time>2021-08-07T16:50:36Z</time>
      </trkpt>
      <trkpt lat="50.37921" lon="3.43097">
        <ele>37.15</ele>
        <time>2021-08-07T16:50:37Z</time>
      </trkpt>
      <trkpt lat="50.3792" lon="3.43093">
        <ele>37.15</ele>
        <time>2021-08-07T16:50:38Z</time>
      </trkpt>
      <trkpt lat="50.3792" lon="3.43089">
        <ele>37.15</ele>
        <time>2021-08-07T16:50:39Z</time>
      </trkpt>
      <trkpt lat="50.37919" lon="3.43083">
        <ele>37.15</ele>
        <time>2021-08-07T16:50:40Z</time>
      </trkpt>
      <trkpt lat="50.37918" lon="3.43039">
        <ele>36.19</ele>
        <time>2021-08-07T16:50:46Z</time>
      </trkpt>
      <trkpt lat="50.3791" lon="3.42959">
        <ele>35.71</ele>
        <time>2021-08-07T16:50:55Z</time>
      </trkpt>
      <trkpt lat="50.37895" lon="3.42875">
        <ele>36.19</ele>
        <time>2021-08-07T16:51:05Z</time>
      </trkpt>
      <trkpt lat="50.37879" lon="3.42797">
        <ele>35.23</ele>
        <time>2021-08-07T16:51:14Z</time>
      </trkpt>
      <trkpt lat="50.37858" lon="3.42733">
        <ele>35.23</ele>
        <time>2021-08-07T16:51:23Z</time>
      </trkpt>
      <trkpt lat="50.37841" lon="3.42675">
        <ele>35.23</ele>
        <time>2021-08-07T16:51:32Z</time>
      </trkpt>
      <trkpt lat="50.37834" lon="3.42647">
        <ele>36.67</ele>
        <time>2021-08-07T16:51:38Z</time>
      </trkpt>
      <trkpt lat="50.37831" lon="3.42643">
        <ele>36.67</ele>
        <time>2021-08-07T16:51:43Z</time>
      </trkpt>
      <trkpt lat="50.3783" lon="3.42641">
        <ele>36.67</ele>
        <time>2021-08-07T16:51:45Z</time>
      </trkpt>
      <trkpt lat="50.37828" lon="3.4264">
        <ele>36.67</ele>
        <time>2021-08-07T16:51:46Z</time>
      </trkpt>
      <trkpt lat="50.37827" lon="3.42642">
        <ele>37.15</ele>
        <time>2021-08-07T16:51:52Z</time>
      </trkpt>
      <trkpt lat="50.37828" lon="3.42645">
        <ele>37.15</ele>
        <time>2021-08-07T16:52:00Z</time>
      </trkpt>
      <trkpt lat="50.37829" lon="3.42643">
        <ele>37.15</ele>
        <time>2021-08-07T16:52:16Z</time>
      </trkpt>
      <trkpt lat="50.37833" lon="3.42641">
        <ele>37.15</ele>
        <time>2021-08-07T16:52:29Z</time>
      </trkpt>
      <trkpt lat="50.37838" lon="3.4264">
        <ele>37.15</ele>
        <time>2021-08-07T16:52:48Z</time>
      </trkpt>
      <trkpt lat="50.37841" lon="3.42641">
        <ele>37.15</ele>
        <time>2021-08-07T16:53:01Z</time>
      </trkpt>
      <trkpt lat="50.37841" lon="3.4264">
        <ele>37.15</ele>
        <time>2021-08-07T16:53:12Z</time>
      </trkpt>
      <trkpt lat="50.37839" lon="3.42638">
        <ele>37.15</ele>
        <time>2021-08-07T16:53:24Z</time>
      </trkpt>
      <trkpt lat="50.37842" lon="3.42638">
        <ele>37.15</ele>
        <time>2021-08-07T16:53:40Z</time>
      </trkpt>
      <trkpt lat="50.37843" lon="3.42639">
        <ele>37.63</ele>
        <time>2021-08-07T16:53:51Z</time>
      </trkpt>
      <trkpt lat="50.37843" lon="3.4264">
        <ele>37.63</ele>
        <time>2021-08-07T16:54:03Z</time>
      </trkpt>
      <trkpt lat="50.37841" lon="3.42638">
        <ele>37.63</ele>
        <time>2021-08-07T16:54:17Z</time>
      </trkpt>
      <trkpt lat="50.37839" lon="3.42637">
        <ele>37.63</ele>
        <time>2021-08-07T16:54:32Z</time>
      </trkpt>
      <trkpt lat="50.3784" lon="3.42637">
        <ele>37.63</ele>
        <time>2021-08-07T16:54:41Z</time>
      </trkpt>
      <trkpt lat="50.37842" lon="3.42639">
        <ele>37.63</ele>
        <time>2021-08-07T16:54:49Z</time>
      </trkpt>
      <trkpt lat="50.37843" lon="3.42641">
        <ele>37.63</ele>
        <time>2021-08-07T16:54:57Z</time>
      </trkpt>
      <trkpt lat="50.37842" lon="3.42641">
        <ele>37.63</ele>
        <time>2021-08-07T16:55:04Z</time>
      </trkpt>
      <trkpt lat="50.37842" lon="3.4264">
        <ele>37.63</ele>
        <time>2021-08-07T16:55:13Z</time>
      </trkpt>
      <trkpt lat="50.37842" lon="3.42638">
        <ele>38.59</ele>
        <time>2021-08-07T16:55:25Z</time>
      </trkpt>
      <trkpt lat="50.37839" lon="3.42638">
        <ele>38.59</ele>
        <time>2021-08-07T16:55:35Z</time>
      </trkpt>
      <trkpt lat="50.37838" lon="3.42638">
        <ele>38.59</ele>
        <time>2021-08-07T16:55:43Z</time>
      </trkpt>
      <trkpt lat="50.37839" lon="3.42638">
        <ele>38.59</ele>
        <time>2021-08-07T16:55:56Z</time>
      </trkpt>
      <trkpt lat="50.37838" lon="3.42638">
        <ele>38.59</ele>
        <time>2021-08-07T16:56:03Z</time>
      </trkpt>
      <trkpt lat="50.37839" lon="3.42637">
        <ele>38.59</ele>
        <time>2021-08-07T16:56:13Z</time>
      </trkpt>
      <trkpt lat="50.37839" lon="3.42638">
        <ele>38.59</ele>
        <time>2021-08-07T16:56:19Z</time>
      </trkpt>
      <trkpt lat="50.37839" lon="3.42638">
        <ele>38.59</ele>
        <time>2021-08-07T16:56:29Z</time>
      </trkpt>
      <trkpt lat="50.37839" lon="3.42636">
        <ele>38.59</ele>
        <time>2021-08-07T16:56:37Z</time>
      </trkpt>
      <trkpt lat="50.37839" lon="3.42636">
        <ele>38.59</ele>
        <time>2021-08-07T16:56:47Z</time>
      </trkpt>
      <trkpt lat="50.37841" lon="3.42636">
        <ele>38.59</ele>
        <time>2021-08-07T16:56:56Z</time>
      </trkpt>
      <trkpt lat="50.37844" lon="3.42637">
        <ele>38.59</ele>
        <time>2021-08-07T16:57:08Z</time>
      </trkpt>
      <trkpt lat="50.37846" lon="3.42637">
        <ele>38.59</ele>
        <time>2021-08-07T16:57:22Z</time>
      </trkpt>
      <trkpt lat="50.37847" lon="3.42635">
        <ele>38.59</ele>
        <time>2021-08-07T16:57:37Z</time>
      </trkpt>
      <trkpt lat="50.37846" lon="3.42633">
        <ele>38.59</ele>
        <time>2021-08-07T16:57:53Z</time>
      </trkpt>
      <trkpt lat="50.37847" lon="3.4263">
        <ele>38.59</ele>
        <time>2021-08-07T16:58:02Z</time>
      </trkpt>
      <trkpt lat="50.37847" lon="3.4263">
        <ele>39.07</ele>
        <time>2021-08-07T16:58:11Z</time>
      </trkpt>
      <trkpt lat="50.37849" lon="3.42631">
        <ele>39.07</ele>
        <time>2021-08-07T16:58:26Z</time>
      </trkpt>
      <trkpt lat="50.37847" lon="3.42633">
        <ele>39.07</ele>
        <time>2021-08-07T16:58:42Z</time>
      </trkpt>
      <trkpt lat="50.37844" lon="3.42628">
        <ele>39.07</ele>
        <time>2021-08-07T16:58:59Z</time>
      </trkpt>
      <trkpt lat="50.37842" lon="3.42625">
        <ele>39.07</ele>
        <time>2021-08-07T16:59:10Z</time>
      </trkpt>
      <trkpt lat="50.37841" lon="3.42627">
        <ele>39.55</ele>
        <time>2021-08-07T16:59:23Z</time>
      </trkpt>
      <trkpt lat="50.37841" lon="3.42626">
        <ele>39.55</ele>
        <time>2021-08-07T16:59:37Z</time>
      </trkpt>
      <trkpt lat="50.37838" lon="3.42624">
        <ele>39.55</ele>
        <time>2021-08-07T16:59:51Z</time>
      </trkpt>
      <trkpt lat="50.37839" lon="3.42621">
        <ele>39.55</ele>
        <time>2021-08-07T17:00:11Z</time>
      </trkpt>
      <trkpt lat="50.37843" lon="3.42618">
        <ele>39.55</ele>
        <time>2021-08-07T17:00:30Z</time>
      </trkpt>
      <trkpt lat="50.37844" lon="3.42625">
        <ele>40.03</ele>
        <time>2021-08-07T17:00:45Z</time>
      </trkpt>
      <trkpt lat="50.37839" lon="3.42628">
        <ele>40.03</ele>
        <time>2021-08-07T17:01:03Z</time>
      </trkpt>
      <trkpt lat="50.37839" lon="3.4263">
        <ele>40.03</ele>
        <time>2021-08-07T17:01:21Z</time>
      </trkpt>
      <trkpt lat="50.37838" lon="3.42633">
        <ele>40.03</ele>
        <time>2021-08-07T17:01:36Z</time>
      </trkpt>
      <trkpt lat="50.37836" lon="3.42636">
        <ele>40.03</ele>
        <time>2021-08-07T17:01:49Z</time>
      </trkpt>
      <trkpt lat="50.3784" lon="3.42635">
        <ele>40.03</ele>
        <time>2021-08-07T17:01:58Z</time>
      </trkpt>
      <trkpt lat="50.37848" lon="3.42633">
        <ele>40.03</ele>
        <time>2021-08-07T17:02:09Z</time>
      </trkpt>
      <trkpt lat="50.37854" lon="3.42632">
        <ele>40.51</ele>
        <time>2021-08-07T17:02:19Z</time>
      </trkpt>
      <trkpt lat="50.37858" lon="3.42632">
        <ele>40.51</ele>
        <time>2021-08-07T17:02:28Z</time>
      </trkpt>
      <trkpt lat="50.37862" lon="3.42632">
        <ele>40.99</ele>
        <time>2021-08-07T17:02:38Z</time>
      </trkpt>
      <trkpt lat="50.37864" lon="3.42632">
        <ele>40.99</ele>
        <time>2021-08-07T17:02:52Z</time>
      </trkpt>
      <trkpt lat="50.37862" lon="3.4263">
        <ele>40.99</ele>
        <time>2021-08-07T17:03:05Z</time>
      </trkpt>
      <trkpt lat="50.37857" lon="3.4263">
        <ele>40.99</ele>
        <time>2021-08-07T17:03:15Z</time>
      </trkpt>
      <trkpt lat="50.37856" lon="3.42631">
        <ele>40.99</ele>
        <time>2021-08-07T17:03:22Z</time>
      </trkpt>
      <trkpt lat="50.37853" lon="3.42632">
        <ele>40.99</ele>
        <time>2021-08-07T17:03:32Z</time>
      </trkpt>
      <trkpt lat="50.37854" lon="3.42634">
        <ele>40.99</ele>
        <time>2021-08-07T17:03:40Z</time>
      </trkpt>
      <trkpt lat="50.37854" lon="3.42635">
        <ele>40.99</ele>
        <time>2021-08-07T17:03:49Z</time>
      </trkpt>
      <trkpt lat="50.37857" lon="3.42634">
        <ele>40.99</ele>
        <time>2021-08-07T17:03:59Z</time>
      </trkpt>
      <trkpt lat="50.37857" lon="3.42633">
        <ele>41.47</ele>
        <time>2021-08-07T17:04:13Z</time>
      </trkpt>
      <trkpt lat="50.37856" lon="3.42628">
        <ele>41.47</ele>
        <time>2021-08-07T17:04:24Z</time>
      </trkpt>
      <trkpt lat="50.37852" lon="3.42627">
        <ele>41.47</ele>
        <time>2021-08-07T17:04:36Z</time>
      </trkpt>
      <trkpt lat="50.37853" lon="3.42628">
        <ele>41.47</ele>
        <time>2021-08-07T17:04:44Z</time>
      </trkpt>
      <trkpt lat="50.37853" lon="3.42628">
        <ele>41.47</ele>
        <time>2021-08-07T17:04:52Z</time>
      </trkpt>
      <trkpt lat="50.37855" lon="3.42628">
        <ele>41.95</ele>
        <time>2021-08-07T17:05:02Z</time>
      </trkpt>
      <trkpt lat="50.37853" lon="3.42626">
        <ele>41.95</ele>
        <time>2021-08-07T17:05:13Z</time>
      </trkpt>
      <trkpt lat="50.37851" lon="3.42628">
        <ele>41.95</ele>
        <time>2021-08-07T17:05:28Z</time>
      </trkpt>
      <trkpt lat="50.37847" lon="3.42628">
        <ele>41.95</ele>
        <time>2021-08-07T17:05:47Z</time>
      </trkpt>
      <trkpt lat="50.37846" lon="3.42629">
        <ele>42.44</ele>
        <time>2021-08-07T17:06:05Z</time>
      </trkpt>
      <trkpt lat="50.37847" lon="3.42631">
        <ele>42.44</ele>
        <time>2021-08-07T17:06:21Z</time>
      </trkpt>
      <trkpt lat="50.37848" lon="3.42631">
        <ele>41.47</ele>
        <time>2021-08-07T17:06:40Z</time>
      </trkpt>
      <trkpt lat="50.37851" lon="3.42624">
        <ele>41.95</ele>
        <time>2021-08-07T17:06:58Z</time>
      </trkpt>
      <trkpt lat="50.37855" lon="3.42628">
        <ele>41.95</ele>
        <time>2021-08-07T17:07:13Z</time>
      </trkpt>
      <trkpt lat="50.37857" lon="3.42629">
        <ele>42.44</ele>
        <time>2021-08-07T17:07:30Z</time>
      </trkpt>
      <trkpt lat="50.37861" lon="3.42631">
        <ele>42.44</ele>
        <time>2021-08-07T17:07:45Z</time>
      </trkpt>
      <trkpt lat="50.37864" lon="3.42634">
        <ele>42.92</ele>
        <time>2021-08-07T17:08:01Z</time>
      </trkpt>
      <trkpt lat="50.37857" lon="3.4263">
        <ele>42.92</ele>
        <time>2021-08-07T17:08:17Z</time>
      </trkpt>
      <trkpt lat="50.37853" lon="3.42621">
        <ele>43.4</ele>
        <time>2021-08-07T17:08:37Z</time>
      </trkpt>
      <trkpt lat="50.37859" lon="3.42619">
        <ele>43.4</ele>
        <time>2021-08-07T17:08:53Z</time>
      </trkpt>
      <trkpt lat="50.37855" lon="3.42614">
        <ele>43.88</ele>
        <time>2021-08-07T17:09:09Z</time>
      </trkpt>
      <trkpt lat="50.37855" lon="3.42616">
        <ele>43.88</ele>
        <time>2021-08-07T17:09:20Z</time>
      </trkpt>
      <trkpt lat="50.37852" lon="3.42614">
        <ele>43.88</ele>
        <time>2021-08-07T17:09:30Z</time>
      </trkpt>
      <trkpt lat="50.37855" lon="3.42615">
        <ele>44.36</ele>
        <time>2021-08-07T17:09:42Z</time>
      </trkpt>
      <trkpt lat="50.37857" lon="3.42616">
        <ele>44.36</ele>
        <time>2021-08-07T17:09:55Z</time>
      </trkpt>
      <trkpt lat="50.37855" lon="3.42611">
        <ele>44.36</ele>
        <time>2021-08-07T17:10:02Z</time>
      </trkpt>
      <trkpt lat="50.37855" lon="3.4261">
        <ele>44.84</ele>
        <time>2021-08-07T17:10:14Z</time>
      </trkpt>
      <trkpt lat="50.37851" lon="3.4261">
        <ele>44.84</ele>
        <time>2021-08-07T17:10:26Z</time>
      </trkpt>
      <trkpt lat="50.37847" lon="3.42611">
        <ele>45.32</ele>
        <time>2021-08-07T17:10:42Z</time>
      </trkpt>
      <trkpt lat="50.37849" lon="3.42611">
        <ele>45.32</ele>
        <time>2021-08-07T17:10:57Z</time>
      </trkpt>
      <trkpt lat="50.37852" lon="3.42611">
        <ele>45.32</ele>
        <time>2021-08-07T17:11:11Z</time>
      </trkpt>
      <trkpt lat="50.3785" lon="3.42608">
        <ele>45.32</ele>
        <time>2021-08-07T17:11:27Z</time>
      </trkpt>
      <trkpt lat="50.37845" lon="3.42606">
        <ele>45.8</ele>
        <time>2021-08-07T17:11:43Z</time>
      </trkpt>
      <trkpt lat="50.37845" lon="3.42606">
        <ele>45.8</ele>
        <time>2021-08-07T17:11:56Z</time>
      </trkpt>
      <trkpt lat="50.37849" lon="3.42611">
        <ele>46.28</ele>
        <time>2021-08-07T17:12:16Z</time>
      </trkpt>
      <trkpt lat="50.37852" lon="3.42615">
        <ele>46.76</ele>
        <time>2021-08-07T17:12:36Z</time>
      </trkpt>
      <trkpt lat="50.37854" lon="3.42614">
        <ele>46.76</ele>
        <time>2021-08-07T17:12:49Z</time>
      </trkpt>
      <trkpt lat="50.37858" lon="3.42617">
        <ele>47.24</ele>
        <time>2021-08-07T17:13:06Z</time>
      </trkpt>
      <trkpt lat="50.37861" lon="3.42617">
        <ele>47.24</ele>
        <time>2021-08-07T17:13:16Z</time>
      </trkpt>
      <trkpt lat="50.37865" lon="3.42618">
        <ele>47.72</ele>
        <time>2021-08-07T17:13:31Z</time>
      </trkpt>
      <trkpt lat="50.37871" lon="3.42621">
        <ele>47.72</ele>
        <time>2021-08-07T17:13:45Z</time>
      </trkpt>
      <trkpt lat="50.37869" lon="3.42621">
        <ele>48.2</ele>
        <time>2021-08-07T17:14:00Z</time>
      </trkpt>
      <trkpt lat="50.37868" lon="3.42619">
        <ele>48.2</ele>
        <time>2021-08-07T17:14:21Z</time>
      </trkpt>
      <trkpt lat="50.37865" lon="3.42621">
        <ele>48.68</ele>
        <time>2021-08-07T17:14:39Z</time>
      </trkpt>
      <trkpt lat="50.37865" lon="3.42624">
        <ele>48.68</ele>
        <time>2021-08-07T17:14:52Z</time>
      </trkpt>
      <trkpt lat="50.37864" lon="3.42631">
        <ele>48.68</ele>
        <time>2021-08-07T17:15:09Z</time>
      </trkpt>
      <trkpt lat="50.37863" lon="3.42631">
        <ele>49.16</ele>
        <time>2021-08-07T17:15:18Z</time>
      </trkpt>
      <trkpt lat="50.37867" lon="3.4263">
        <ele>49.16</ele>
        <time>2021-08-07T17:15:36Z</time>
      </trkpt>
      <trkpt lat="50.3787" lon="3.4263">
        <ele>49.65</ele>
        <time>2021-08-07T17:15:49Z</time>
      </trkpt>
      <trkpt lat="50.37873" lon="3.42632">
        <ele>49.65</ele>
        <time>2021-08-07T17:16:00Z</time>
      </trkpt>
      <trkpt lat="50.37875" lon="3.42633">
        <ele>50.13</ele>
        <time>2021-08-07T17:16:16Z</time>
      </trkpt>
      <trkpt lat="50.37873" lon="3.42631">
        <ele>50.61</ele>
        <time>2021-08-07T17:16:34Z</time>
      </trkpt>
      <trkpt lat="50.37873" lon="3.42633">
        <ele>50.61</ele>
        <time>2021-08-07T17:16:49Z</time>
      </trkpt>
      <trkpt lat="50.37869" lon="3.42628">
        <ele>51.09</ele>
        <time>2021-08-07T17:17:02Z</time>
      </trkpt>
      <trkpt lat="50.37869" lon="3.42626">
        <ele>51.09</ele>
        <time>2021-08-07T17:17:12Z</time>
      </trkpt>
      <trkpt lat="50.3787" lon="3.42627">
        <ele>51.57</ele>
        <time>2021-08-07T17:17:21Z</time>
      </trkpt>
      <trkpt lat="50.37869" lon="3.4263">
        <ele>51.57</ele>
        <time>2021-08-07T17:17:32Z</time>
      </trkpt>
      <trkpt lat="50.37864" lon="3.42629">
        <ele>52.05</ele>
        <time>2021-08-07T17:17:43Z</time>
      </trkpt>
      <trkpt lat="50.3786" lon="3.42627">
        <ele>52.05</ele>
        <time>2021-08-07T17:17:54Z</time>
      </trkpt>
      <trkpt lat="50.3786" lon="3.42626">
        <ele>52.05</ele>
        <time>2021-08-07T17:17:59Z</time>
      </trkpt>
      <trkpt lat="50.3786" lon="3.42626">
        <ele>52.05</ele>
        <time>2021-08-07T17:18:04Z</time>
      </trkpt>
      <trkpt lat="50.37858" lon="3.42622">
        <ele>52.05</ele>
        <time>2021-08-07T17:18:12Z</time>
      </trkpt>
      <trkpt lat="50.37855" lon="3.42615">
        <ele>52.53</ele>
        <time>2021-08-07T17:18:22Z</time>
      </trkpt>
      <trkpt lat="50.37856" lon="3.42622">
        <ele>52.53</ele>
        <time>2021-08-07T17:18:32Z</time>
      </trkpt>
      <trkpt lat="50.37856" lon="3.42627">
        <ele>52.53</ele>
        <time>2021-08-07T17:18:43Z</time>
      </trkpt>
      <trkpt lat="50.37856" lon="3.42626">
        <ele>52.05</ele>
        <time>2021-08-07T17:18:51Z</time>
      </trkpt>
      <trkpt lat="50.37854" lon="3.42624">
        <ele>53.49</ele>
        <time>2021-08-07T17:19:04Z</time>
      </trkpt>
      <trkpt lat="50.37853" lon="3.4262">
        <ele>53.49</ele>
        <time>2021-08-07T17:19:14Z</time>
      </trkpt>
      <trkpt lat="50.37854" lon="3.42617">
        <ele>53.97</ele>
        <time>2021-08-07T17:19:24Z</time>
      </trkpt>
      <trkpt lat="50.37854" lon="3.42616">
        <ele>53.97</ele>
        <time>2021-08-07T17:19:33Z</time>
      </trkpt>
      <trkpt lat="50.37854" lon="3.42617">
        <ele>53.97</ele>
        <time>2021-08-07T17:19:42Z</time>
      </trkpt>
      <trkpt lat="50.37855" lon="3.42617">
        <ele>54.45</ele>
        <time>2021-08-07T17:19:54Z</time>
      </trkpt>
      <trkpt lat="50.37856" lon="3.42617">
        <ele>54.45</ele>
        <time>2021-08-07T17:20:03Z</time>
      </trkpt>
      <trkpt lat="50.37858" lon="3.42617">
        <ele>54.45</ele>
        <time>2021-08-07T17:20:14Z</time>
      </trkpt>
      <trkpt lat="50.3786" lon="3.42618">
        <ele>54.93</ele>
        <time>2021-08-07T17:20:26Z</time>
      </trkpt>
      <trkpt lat="50.3786" lon="3.42618">
        <ele>54.93</ele>
        <time>2021-08-07T17:20:37Z</time>
      </trkpt>
      <trkpt lat="50.3786" lon="3.42614">
        <ele>54.93</ele>
        <time>2021-08-07T17:20:49Z</time>
      </trkpt>
      <trkpt lat="50.3786" lon="3.42613">
        <ele>54.93</ele>
        <time>2021-08-07T17:21:00Z</time>
      </trkpt>
      <trkpt lat="50.37862" lon="3.42617">
        <ele>55.41</ele>
        <time>2021-08-07T17:21:12Z</time>
      </trkpt>
      <trkpt lat="50.37863" lon="3.42619">
        <ele>55.41</ele>
        <time>2021-08-07T17:21:19Z</time>
      </trkpt>
      <trkpt lat="50.37863" lon="3.42622">
        <ele>55.41</ele>
        <time>2021-08-07T17:21:27Z</time>
      </trkpt>
      <trkpt lat="50.37864" lon="3.42624">
        <ele>55.41</ele>
        <time>2021-08-07T17:21:34Z</time>
      </trkpt>
      <trkpt lat="50.37865" lon="3.42628">
        <ele>55.41</ele>
        <time>2021-08-07T17:21:43Z</time>
      </trkpt>
      <trkpt lat="50.37866" lon="3.4263">
        <ele>55.89</ele>
        <time>2021-08-07T17:21:54Z</time>
      </trkpt>
      <trkpt lat="50.37866" lon="3.4263">
        <ele>55.89</ele>
        <time>2021-08-07T17:22:03Z</time>
      </trkpt>
      <trkpt lat="50.37866" lon="3.42629">
        <ele>55.89</ele>
        <time>2021-08-07T17:22:10Z</time>
      </trkpt>
      <trkpt lat="50.37866" lon="3.42631">
        <ele>55.89</ele>
        <time>2021-08-07T17:22:22Z</time>
      </trkpt>
      <trkpt lat="50.37865" lon="3.42632">
        <ele>56.37</ele>
        <time>2021-08-07T17:22:28Z</time>
      </trkpt>
      <trkpt lat="50.37865" lon="3.42632">
        <ele>56.37</ele>
        <time>2021-08-07T17:22:34Z</time>
      </trkpt>
      <trkpt lat="50.37865" lon="3.42631">
        <ele>56.37</ele>
        <time>2021-08-07T17:22:45Z</time>
      </trkpt>
      <trkpt lat="50.37863" lon="3.42633">
        <ele>56.37</ele>
        <time>2021-08-07T17:22:57Z</time>
      </trkpt>
      <trkpt lat="50.3786" lon="3.42634">
        <ele>55.41</ele>
        <time>2021-08-07T17:23:10Z</time>
      </trkpt>
      <trkpt lat="50.37858" lon="3.42633">
        <ele>55.41</ele>
        <time>2021-08-07T17:23:25Z</time>
      </trkpt>
      <trkpt lat="50.37858" lon="3.42636">
        <ele>55.89</ele>
        <time>2021-08-07T17:23:44Z</time>
      </trkpt>
      <trkpt lat="50.37858" lon="3.42636">
        <ele>55.89</ele>
        <time>2021-08-07T17:24:01Z</time>
      </trkpt>
      <trkpt lat="50.37866" lon="3.42626">
        <ele>56.37</ele>
        <time>2021-08-07T17:24:24Z</time>
      </trkpt>
      <trkpt lat="50.37873" lon="3.42623">
        <ele>56.37</ele>
        <time>2021-08-07T17:24:45Z</time>
      </trkpt>
      <trkpt lat="50.37872" lon="3.42624">
        <ele>55.89</ele>
        <time>2021-08-07T17:25:00Z</time>
      </trkpt>
      <trkpt lat="50.3787" lon="3.42629">
        <ele>57.34</ele>
        <time>2021-08-07T17:25:16Z</time>
      </trkpt>
      <trkpt lat="50.3787" lon="3.42631">
        <ele>57.82</ele>
        <time>2021-08-07T17:25:32Z</time>
      </trkpt>
      <trkpt lat="50.37866" lon="3.42632">
        <ele>56.86</ele>
        <time>2021-08-07T17:25:47Z</time>
      </trkpt>
      <trkpt lat="50.37864" lon="3.4263">
        <ele>56.86</ele>
        <time>2021-08-07T17:26:04Z</time>
      </trkpt>
      <trkpt lat="50.37865" lon="3.42628">
        <ele>57.34</ele>
        <time>2021-08-07T17:26:14Z</time>
      </trkpt>
      <trkpt lat="50.37867" lon="3.42628">
        <ele>57.34</ele>
        <time>2021-08-07T17:26:26Z</time>
      </trkpt>
      <trkpt lat="50.37869" lon="3.42626">
        <ele>57.34</ele>
        <time>2021-08-07T17:26:38Z</time>
      </trkpt>
      <trkpt lat="50.37868" lon="3.42628">
        <ele>57.82</ele>
        <time>2021-08-07T17:26:54Z</time>
      </trkpt>
      <trkpt lat="50.37868" lon="3.42629">
        <ele>57.82</ele>
        <time>2021-08-07T17:27:04Z</time>
      </trkpt>
      <trkpt lat="50.3787" lon="3.4263">
        <ele>57.82</ele>
        <time>2021-08-07T17:27:12Z</time>
      </trkpt>
      <trkpt lat="50.37871" lon="3.42632">
        <ele>58.3</ele>
        <time>2021-08-07T17:27:25Z</time>
      </trkpt>
      <trkpt lat="50.37872" lon="3.42633">
        <ele>58.3</ele>
        <time>2021-08-07T17:27:37Z</time>
      </trkpt>
      <trkpt lat="50.37871" lon="3.42634">
        <ele>58.78</ele>
        <time>2021-08-07T17:27:46Z</time>
      </trkpt>
      <trkpt lat="50.3787" lon="3.42635">
        <ele>58.78</ele>
        <time>2021-08-07T17:27:56Z</time>
      </trkpt>
      <trkpt lat="50.37869" lon="3.42636">
        <ele>58.78</ele>
        <time>2021-08-07T17:28:04Z</time>
      </trkpt>
      <trkpt lat="50.37868" lon="3.42638">
        <ele>58.78</ele>
        <time>2021-08-07T17:28:14Z</time>
      </trkpt>
      <trkpt lat="50.37869" lon="3.42638">
        <ele>58.78</ele>
        <time>2021-08-07T17:28:24Z</time>
      </trkpt>
      <trkpt lat="50.37869" lon="3.42637">
        <ele>59.26</ele>
        <time>2021-08-07T17:28:36Z</time>
      </trkpt>
      <trkpt lat="50.37869" lon="3.42638">
        <ele>59.26</ele>
        <time>2021-08-07T17:28:44Z</time>
      </trkpt>
      <trkpt lat="50.37868" lon="3.4264">
        <ele>59.74</ele>
        <time>2021-08-07T17:28:56Z</time>
      </trkpt>
      <trkpt lat="50.37869" lon="3.4264">
        <ele>59.74</ele>
        <time>2021-08-07T17:29:07Z</time>
      </trkpt>
      <trkpt lat="50.3787" lon="3.42641">
        <ele>59.74</ele>
        <time>2021-08-07T17:29:16Z</time>
      </trkpt>
      <trkpt lat="50.37869" lon="3.4264">
        <ele>60.22</ele>
        <time>2021-08-07T17:29:25Z</time>
      </trkpt>
      <trkpt lat="50.37865" lon="3.42643">
        <ele>60.22</ele>
        <time>2021-08-07T17:29:38Z</time>
      </trkpt>
      <trkpt lat="50.37862" lon="3.42645">
        <ele>60.7</ele>
        <time>2021-08-07T17:29:48Z</time>
      </trkpt>
      <trkpt lat="50.37863" lon="3.42645">
        <ele>60.7</ele>
        <time>2021-08-07T17:29:59Z</time>
      </trkpt>
      <trkpt lat="50.37867" lon="3.42636">
        <ele>61.18</ele>
        <time>2021-08-07T17:30:19Z</time>
      </trkpt>
      <trkpt lat="50.37866" lon="3.42633">
        <ele>61.66</ele>
        <time>2021-08-07T17:30:34Z</time>
      </trkpt>
      <trkpt lat="50.37864" lon="3.42636">
        <ele>61.66</ele>
        <time>2021-08-07T17:30:49Z</time>
      </trkpt>
      <trkpt lat="50.37859" lon="3.42629">
        <ele>61.66</ele>
        <time>2021-08-07T17:31:05Z</time>
      </trkpt>
      <trkpt lat="50.37861" lon="3.42628">
        <ele>62.14</ele>
        <time>2021-08-07T17:31:27Z</time>
      </trkpt>
      <trkpt lat="50.37862" lon="3.42629">
        <ele>62.62</ele>
        <time>2021-08-07T17:31:47Z</time>
      </trkpt>
      <trkpt lat="50.37862" lon="3.42629">
        <ele>62.62</ele>
        <time>2021-08-07T17:31:59Z</time>
      </trkpt>
      <trkpt lat="50.3786" lon="3.42625">
        <ele>63.1</ele>
        <time>2021-08-07T17:32:18Z</time>
      </trkpt>
      <trkpt lat="50.37851" lon="3.42638">
        <ele>63.1</ele>
        <time>2021-08-07T17:32:26Z</time>
      </trkpt>
      <trkpt lat="50.37842" lon="3.42642">
        <ele>63.1</ele>
        <time>2021-08-07T17:32:36Z</time>
      </trkpt>
      <trkpt lat="50.37837" lon="3.42644">
        <ele>63.1</ele>
        <time>2021-08-07T17:32:47Z</time>
      </trkpt>
      <trkpt lat="50.37838" lon="3.42645">
        <ele>63.1</ele>
        <time>2021-08-07T17:32:53Z</time>
      </trkpt>
      <trkpt lat="50.37839" lon="3.42647">
        <ele>62.62</ele>
        <time>2021-08-07T17:32:54Z</time>
      </trkpt>
      <trkpt lat="50.37839" lon="3.42649">
        <ele>62.62</ele>
        <time>2021-08-07T17:32:55Z</time>
      </trkpt>
      <trkpt lat="50.3784" lon="3.42652">
        <ele>62.62</ele>
        <time>2021-08-07T17:32:56Z</time>
      </trkpt>
      <trkpt lat="50.3784" lon="3.42656">
        <ele>62.62</ele>
        <time>2021-08-07T17:32:57Z</time>
      </trkpt>
      <trkpt lat="50.37849" lon="3.42697">
        <ele>62.62</ele>
        <time>2021-08-07T17:33:06Z</time>
      </trkpt>
      <trkpt lat="50.37867" lon="3.42762">
        <ele>62.14</ele>
        <time>2021-08-07T17:33:17Z</time>
      </trkpt>
      <trkpt lat="50.37883" lon="3.42813">
        <ele>61.66</ele>
        <time>2021-08-07T17:33:26Z</time>
      </trkpt>
      <trkpt lat="50.37891" lon="3.42857">
        <ele>61.66</ele>
        <time>2021-08-07T17:33:34Z</time>
      </trkpt>
      <trkpt lat="50.37901" lon="3.42901">
        <ele>61.18</ele>
        <time>2021-08-07T17:33:42Z</time>
      </trkpt>
      <trkpt lat="50.37902" lon="3.42923">
        <ele>61.18</ele>
        <time>2021-08-07T17:33:47Z</time>
      </trkpt>
      <trkpt lat="50.37901" lon="3.4293">
        <ele>61.18</ele>
        <time>2021-08-07T17:33:56Z</time>
      </trkpt>
      <trkpt lat="50.37907" lon="3.42954">
        <ele>61.18</ele>
        <time>2021-08-07T17:34:02Z</time>
      </trkpt>
      <trkpt lat="50.37914" lon="3.42993">
        <ele>61.18</ele>
        <time>2021-08-07T17:34:09Z</time>
      </trkpt>
      <trkpt lat="50.37915" lon="3.42999">
        <ele>61.18</ele>
        <time>2021-08-07T17:34:10Z</time>
      </trkpt>
      <trkpt lat="50.37917" lon="3.43063">
        <ele>60.7</ele>
        <time>2021-08-07T17:34:20Z</time>
      </trkpt>
      <trkpt lat="50.37914" lon="3.43091">
        <ele>62.14</ele>
        <time>2021-08-07T17:34:25Z</time>
      </trkpt>
      <trkpt lat="50.37911" lon="3.43093">
        <ele>62.14</ele>
        <time>2021-08-07T17:34:26Z</time>
      </trkpt>
      <trkpt lat="50.37908" lon="3.43095">
        <ele>61.66</ele>
        <time>2021-08-07T17:34:27Z</time>
      </trkpt>
      <trkpt lat="50.37881" lon="3.43105">
        <ele>62.62</ele>
        <time>2021-08-07T17:34:34Z</time>
      </trkpt>
      <trkpt lat="50.37858" lon="3.4311">
        <ele>62.62</ele>
        <time>2021-08-07T17:34:40Z</time>
      </trkpt>
      <trkpt lat="50.37834" lon="3.43109">
        <ele>62.62</ele>
        <time>2021-08-07T17:34:47Z</time>
      </trkpt>
      <trkpt lat="50.37822" lon="3.43089">
        <ele>62.62</ele>
        <time>2021-08-07T17:34:52Z</time>
      </trkpt>
      <trkpt lat="50.37812" lon="3.43071">
        <ele>63.1</ele>
        <time>2021-08-07T17:34:56Z</time>
      </trkpt>
      <trkpt lat="50.378" lon="3.43034">
        <ele>63.58</ele>
        <time>2021-08-07T17:35:02Z</time>
      </trkpt>
      <trkpt lat="50.37773" lon="3.4297">
        <ele>63.58</ele>
        <time>2021-08-07T17:35:12Z</time>
      </trkpt>
      <trkpt lat="50.37768" lon="3.42966">
        <ele>63.58</ele>
        <time>2021-08-07T17:35:13Z</time>
      </trkpt>
      <trkpt lat="50.37763" lon="3.42963">
        <ele>63.58</ele>
        <time>2021-08-07T17:35:14Z</time>
      </trkpt>
      <trkpt lat="50.37757" lon="3.42963">
        <ele>63.58</ele>
        <time>2021-08-07T17:35:15Z</time>
      </trkpt>
      <trkpt lat="50.37753" lon="3.42965">
        <ele>63.58</ele>
        <time>2021-08-07T17:35:16Z</time>
      </trkpt>
      <trkpt lat="50.37747" lon="3.42968">
        <ele>63.1</ele>
        <time>2021-08-07T17:35:17Z</time>
      </trkpt>
      <trkpt lat="50.37741" lon="3.42971">
        <ele>63.1</ele>
        <time>2021-08-07T17:35:18Z</time>
      </trkpt>
      <trkpt lat="50.3769" lon="3.42991">
        <ele>63.1</ele>
        <time>2021-08-07T17:35:28Z</time>
      </trkpt>
      <trkpt lat="50.37653" lon="3.42995">
        <ele>63.1</ele>
        <time>2021-08-07T17:35:36Z</time>
      </trkpt>
      <trkpt lat="50.37641" lon="3.42994">
        <ele>63.1</ele>
        <time>2021-08-07T17:35:41Z</time>
      </trkpt>
      <trkpt lat="50.37639" lon="3.42994">
        <ele>63.58</ele>
        <time>2021-08-07T17:35:47Z</time>
      </trkpt>
      <trkpt lat="50.37637" lon="3.42994">
        <ele>63.1</ele>
        <time>2021-08-07T17:35:59Z</time>
      </trkpt>
      <trkpt lat="50.37637" lon="3.42994">
        <ele>63.1</ele>
        <time>2021-08-07T17:36:07Z</time>
      </trkpt>
      <trkpt lat="50.37637" lon="3.42995">
        <ele>62.62</ele>
        <time>2021-08-07T17:36:28Z</time>
      </trkpt>
      <trkpt lat="50.37634" lon="3.42995">
        <ele>62.62</ele>
        <time>2021-08-07T17:36:52Z</time>
      </trkpt>
      <trkpt lat="50.37634" lon="3.42995">
        <ele>62.14</ele>
        <time>2021-08-07T17:37:12Z</time>
      </trkpt>
      <trkpt lat="50.37631" lon="3.42996">
        <ele>62.14</ele>
        <time>2021-08-07T17:37:25Z</time>
      </trkpt>
      <trkpt lat="50.37627" lon="3.42997">
        <ele>62.14</ele>
        <time>2021-08-07T17:37:29Z</time>
      </trkpt>
      <trkpt lat="50.37628" lon="3.42994">
        <ele>62.14</ele>
        <time>2021-08-07T17:37:33Z</time>
      </trkpt>
      <trkpt lat="50.3763" lon="3.42994">
        <ele>62.14</ele>
        <time>2021-08-07T17:37:34Z</time>
      </trkpt>
      <trkpt lat="50.37631" lon="3.42993">
        <ele>62.14</ele>
        <time>2021-08-07T17:37:35Z</time>
      </trkpt>
      <trkpt lat="50.37633" lon="3.42993">
        <ele>62.14</ele>
        <time>2021-08-07T17:37:42Z</time>
      </trkpt>
      <trkpt lat="50.37633" lon="3.42993">
        <ele>61.66</ele>
        <time>2021-08-07T17:38:05Z</time>
      </trkpt>
      <trkpt lat="50.37633" lon="3.42993">
        <ele>61.66</ele>
        <time>2021-08-07T17:38:24Z</time>
      </trkpt>
      <trkpt lat="50.37632" lon="3.42995">
        <ele>61.66</ele>
        <time>2021-08-07T17:38:27Z</time>
      </trkpt>
      <trkpt lat="50.3763" lon="3.42996">
        <ele>61.66</ele>
        <time>2021-08-07T17:38:28Z</time>
      </trkpt>
      <trkpt lat="50.37617" lon="3.42998">
        <ele>61.66</ele>
        <time>2021-08-07T17:38:33Z</time>
      </trkpt>
      <trkpt lat="50.3759" lon="3.43003">
        <ele>61.18</ele>
        <time>2021-08-07T17:38:40Z</time>
      </trkpt>
      <trkpt lat="50.3757" lon="3.43008">
        <ele>61.18</ele>
        <time>2021-08-07T17:38:45Z</time>
      </trkpt>
      <trkpt lat="50.37514" lon="3.43028">
        <ele>61.18</ele>
        <time>2021-08-07T17:38:58Z</time>
      </trkpt>
      <trkpt lat="50.3747" lon="3.43054">
        <ele>61.18</ele>
        <time>2021-08-07T17:39:08Z</time>
      </trkpt>
      <trkpt lat="50.37425" lon="3.43067">
        <ele>61.18</ele>
        <time>2021-08-07T17:39:18Z</time>
      </trkpt>
      <trkpt lat="50.37421" lon="3.43068">
        <ele>61.18</ele>
        <time>2021-08-07T17:39:19Z</time>
      </trkpt>
      <trkpt lat="50.37407" lon="3.43067">
        <ele>60.7</ele>
        <time>2021-08-07T17:39:22Z</time>
      </trkpt>
      <trkpt lat="50.37403" lon="3.43066">
        <ele>60.7</ele>
        <time>2021-08-07T17:39:23Z</time>
      </trkpt>
      <trkpt lat="50.37359" lon="3.4306">
        <ele>61.66</ele>
        <time>2021-08-07T17:39:33Z</time>
      </trkpt>
      <trkpt lat="50.37328" lon="3.43056">
        <ele>61.66</ele>
        <time>2021-08-07T17:39:40Z</time>
      </trkpt>
      <trkpt lat="50.3728" lon="3.43052">
        <ele>61.66</ele>
        <time>2021-08-07T17:39:51Z</time>
      </trkpt>
      <trkpt lat="50.37275" lon="3.43053">
        <ele>61.66</ele>
        <time>2021-08-07T17:39:52Z</time>
      </trkpt>
      <trkpt lat="50.37241" lon="3.43059">
        <ele>61.66</ele>
        <time>2021-08-07T17:40:00Z</time>
      </trkpt>
      <trkpt lat="50.37212" lon="3.43047">
        <ele>61.66</ele>
        <time>2021-08-07T17:40:07Z</time>
      </trkpt>
      <trkpt lat="50.37208" lon="3.43044">
        <ele>61.66</ele>
        <time>2021-08-07T17:40:08Z</time>
      </trkpt>
      <trkpt lat="50.37189" lon="3.43032">
        <ele>61.66</ele>
        <time>2021-08-07T17:40:13Z</time>
      </trkpt>
      <trkpt lat="50.37184" lon="3.43032">
        <ele>61.66</ele>
        <time>2021-08-07T17:40:14Z</time>
      </trkpt>
      <trkpt lat="50.37158" lon="3.43029">
        <ele>61.66</ele>
        <time>2021-08-07T17:40:20Z</time>
      </trkpt>
      <trkpt lat="50.37154" lon="3.43027">
        <ele>61.66</ele>
        <time>2021-08-07T17:40:21Z</time>
      </trkpt>
      <trkpt lat="50.37117" lon="3.43">
        <ele>61.66</ele>
        <time>2021-08-07T17:40:30Z</time>
      </trkpt>
      <trkpt lat="50.37079" lon="3.42979">
        <ele>62.14</ele>
        <time>2021-08-07T17:40:39Z</time>
      </trkpt>
      <trkpt lat="50.37028" lon="3.42951">
        <ele>62.62</ele>
        <time>2021-08-07T17:40:51Z</time>
      </trkpt>
      <trkpt lat="50.36971" lon="3.42921">
        <ele>62.62</ele>
        <time>2021-08-07T17:41:04Z</time>
      </trkpt>
      <trkpt lat="50.36919" lon="3.42901">
        <ele>62.14</ele>
        <time>2021-08-07T17:41:15Z</time>
      </trkpt>
      <trkpt lat="50.36871" lon="3.42884">
        <ele>62.14</ele>
        <time>2021-08-07T17:41:25Z</time>
      </trkpt>
      <trkpt lat="50.36858" lon="3.42878">
        <ele>62.14</ele>
        <time>2021-08-07T17:41:28Z</time>
      </trkpt>
      <trkpt lat="50.36855" lon="3.42874">
        <ele>62.14</ele>
        <time>2021-08-07T17:41:29Z</time>
      </trkpt>
      <trkpt lat="50.36854" lon="3.42867">
        <ele>62.14</ele>
        <time>2021-08-07T17:41:30Z</time>
      </trkpt>
      <trkpt lat="50.36856" lon="3.4286">
        <ele>62.14</ele>
        <time>2021-08-07T17:41:31Z</time>
      </trkpt>
      <trkpt lat="50.36859" lon="3.42853">
        <ele>62.14</ele>
        <time>2021-08-07T17:41:32Z</time>
      </trkpt>
      <trkpt lat="50.36861" lon="3.42848">
        <ele>62.14</ele>
        <time>2021-08-07T17:41:33Z</time>
      </trkpt>
      <trkpt lat="50.36863" lon="3.42841">
        <ele>62.14</ele>
        <time>2021-08-07T17:41:34Z</time>
      </trkpt>
      <trkpt lat="50.36892" lon="3.4277">
        <ele>60.7</ele>
        <time>2021-08-07T17:41:44Z</time>
      </trkpt>
      <trkpt lat="50.36924" lon="3.42697">
        <ele>59.74</ele>
        <time>2021-08-07T17:41:54Z</time>
      </trkpt>
      <trkpt lat="50.36964" lon="3.42606">
        <ele>57.82</ele>
        <time>2021-08-07T17:42:06Z</time>
      </trkpt>
      <trkpt lat="50.36993" lon="3.42525">
        <ele>56.37</ele>
        <time>2021-08-07T17:42:16Z</time>
      </trkpt>
      <trkpt lat="50.37027" lon="3.42429">
        <ele>54.45</ele>
        <time>2021-08-07T17:42:27Z</time>
      </trkpt>
      <trkpt lat="50.3705" lon="3.4235">
        <ele>52.53</ele>
        <time>2021-08-07T17:42:36Z</time>
      </trkpt>
      <trkpt lat="50.37058" lon="3.42284">
        <ele>52.05</ele>
        <time>2021-08-07T17:42:43Z</time>
      </trkpt>
      <trkpt lat="50.37061" lon="3.42261">
        <ele>52.05</ele>
        <time>2021-08-07T17:42:46Z</time>
      </trkpt>
      <trkpt lat="50.37063" lon="3.42255">
        <ele>52.05</ele>
        <time>2021-08-07T17:42:47Z</time>
      </trkpt>
      <trkpt lat="50.37066" lon="3.42251">
        <ele>52.05</ele>
        <time>2021-08-07T17:42:48Z</time>
      </trkpt>
      <trkpt lat="50.37069" lon="3.42248">
        <ele>52.05</ele>
        <time>2021-08-07T17:42:49Z</time>
      </trkpt>
      <trkpt lat="50.37074" lon="3.42246">
        <ele>52.05</ele>
        <time>2021-08-07T17:42:50Z</time>
      </trkpt>
      <trkpt lat="50.37078" lon="3.42243">
        <ele>52.05</ele>
        <time>2021-08-07T17:42:51Z</time>
      </trkpt>
      <trkpt lat="50.37081" lon="3.42238">
        <ele>51.09</ele>
        <time>2021-08-07T17:42:52Z</time>
      </trkpt>
      <trkpt lat="50.37084" lon="3.42231">
        <ele>51.09</ele>
        <time>2021-08-07T17:42:53Z</time>
      </trkpt>
      <trkpt lat="50.37085" lon="3.42224">
        <ele>51.09</ele>
        <time>2021-08-07T17:42:54Z</time>
      </trkpt>
      <trkpt lat="50.37086" lon="3.42217">
        <ele>51.09</ele>
        <time>2021-08-07T17:42:55Z</time>
      </trkpt>
      <trkpt lat="50.37089" lon="3.42202">
        <ele>51.09</ele>
        <time>2021-08-07T17:42:57Z</time>
      </trkpt>
      <trkpt lat="50.37099" lon="3.42136">
        <ele>50.61</ele>
        <time>2021-08-07T17:43:06Z</time>
      </trkpt>
      <trkpt lat="50.37102" lon="3.42113">
        <ele>50.13</ele>
        <time>2021-08-07T17:43:09Z</time>
      </trkpt>
      <trkpt lat="50.37104" lon="3.42107">
        <ele>50.13</ele>
        <time>2021-08-07T17:43:10Z</time>
      </trkpt>
      <trkpt lat="50.37105" lon="3.42099">
        <ele>50.13</ele>
        <time>2021-08-07T17:43:11Z</time>
      </trkpt>
      <trkpt lat="50.37106" lon="3.42093">
        <ele>50.13</ele>
        <time>2021-08-07T17:43:12Z</time>
      </trkpt>
      <trkpt lat="50.37107" lon="3.42085">
        <ele>50.13</ele>
        <time>2021-08-07T17:43:13Z</time>
      </trkpt>
      <trkpt lat="50.37109" lon="3.42078">
        <ele>49.65</ele>
        <time>2021-08-07T17:43:14Z</time>
      </trkpt>
      <trkpt lat="50.37115" lon="3.42035">
        <ele>49.65</ele>
        <time>2021-08-07T17:43:21Z</time>
      </trkpt>
      <trkpt lat="50.3712" lon="3.42007">
        <ele>48.68</ele>
        <time>2021-08-07T17:43:26Z</time>
      </trkpt>
      <trkpt lat="50.37122" lon="3.42001">
        <ele>48.68</ele>
        <time>2021-08-07T17:43:27Z</time>
      </trkpt>
      <trkpt lat="50.37125" lon="3.41995">
        <ele>48.68</ele>
        <time>2021-08-07T17:43:28Z</time>
      </trkpt>
      <trkpt lat="50.37143" lon="3.41963">
        <ele>48.2</ele>
        <time>2021-08-07T17:43:34Z</time>
      </trkpt>
      <trkpt lat="50.37164" lon="3.41931">
        <ele>48.2</ele>
        <time>2021-08-07T17:43:41Z</time>
      </trkpt>
      <trkpt lat="50.3718" lon="3.41898">
        <ele>48.2</ele>
        <time>2021-08-07T17:43:48Z</time>
      </trkpt>
      <trkpt lat="50.37186" lon="3.41886">
        <ele>47.72</ele>
        <time>2021-08-07T17:43:52Z</time>
      </trkpt>
      <trkpt lat="50.37185" lon="3.41883">
        <ele>47.72</ele>
        <time>2021-08-07T17:43:53Z</time>
      </trkpt>
      <trkpt lat="50.37185" lon="3.41878">
        <ele>47.72</ele>
        <time>2021-08-07T17:43:54Z</time>
      </trkpt>
      <trkpt lat="50.37184" lon="3.41873">
        <ele>47.72</ele>
        <time>2021-08-07T17:43:55Z</time>
      </trkpt>
      <trkpt lat="50.37181" lon="3.4187">
        <ele>47.24</ele>
        <time>2021-08-07T17:43:56Z</time>
      </trkpt>
      <trkpt lat="50.37178" lon="3.41867">
        <ele>47.24</ele>
        <time>2021-08-07T17:43:57Z</time>
      </trkpt>
      <trkpt lat="50.37156" lon="3.41839">
        <ele>46.76</ele>
        <time>2021-08-07T17:44:05Z</time>
      </trkpt>
      <trkpt lat="50.37134" lon="3.41801">
        <ele>46.76</ele>
        <time>2021-08-07T17:44:13Z</time>
      </trkpt>
      <trkpt lat="50.37112" lon="3.41768">
        <ele>46.28</ele>
        <time>2021-08-07T17:44:20Z</time>
      </trkpt>
      <trkpt lat="50.37096" lon="3.41746">
        <ele>45.32</ele>
        <time>2021-08-07T17:44:25Z</time>
      </trkpt>
      <trkpt lat="50.37068" lon="3.41703">
        <ele>45.32</ele>
        <time>2021-08-07T17:44:34Z</time>
      </trkpt>
      <trkpt lat="50.37042" lon="3.4166">
        <ele>44.84</ele>
        <time>2021-08-07T17:44:42Z</time>
      </trkpt>
      <trkpt lat="50.3701" lon="3.41604">
        <ele>43.88</ele>
        <time>2021-08-07T17:44:52Z</time>
      </trkpt>
      <trkpt lat="50.36992" lon="3.41578">
        <ele>43.4</ele>
        <time>2021-08-07T17:44:57Z</time>
      </trkpt>
      <trkpt lat="50.36983" lon="3.41559">
        <ele>43.4</ele>
        <time>2021-08-07T17:45:00Z</time>
      </trkpt>
      <trkpt lat="50.36978" lon="3.41548">
        <ele>43.4</ele>
        <time>2021-08-07T17:45:02Z</time>
      </trkpt>
      <trkpt lat="50.36954" lon="3.41499">
        <ele>42.92</ele>
        <time>2021-08-07T17:45:10Z</time>
      </trkpt>
      <trkpt lat="50.36934" lon="3.41455">
        <ele>41.47</ele>
        <time>2021-08-07T17:45:17Z</time>
      </trkpt>
      <trkpt lat="50.36931" lon="3.41448">
        <ele>41.47</ele>
        <time>2021-08-07T17:45:18Z</time>
      </trkpt>
      <trkpt lat="50.36907" lon="3.41397">
        <ele>40.99</ele>
        <time>2021-08-07T17:45:26Z</time>
      </trkpt>
      <trkpt lat="50.36882" lon="3.41342">
        <ele>40.03</ele>
        <time>2021-08-07T17:45:35Z</time>
      </trkpt>
      <trkpt lat="50.36862" lon="3.41299">
        <ele>40.03</ele>
        <time>2021-08-07T17:45:42Z</time>
      </trkpt>
      <trkpt lat="50.36841" lon="3.41255">
        <ele>39.55</ele>
        <time>2021-08-07T17:45:50Z</time>
      </trkpt>
      <trkpt lat="50.36829" lon="3.41237">
        <ele>39.55</ele>
        <time>2021-08-07T17:45:55Z</time>
      </trkpt>
      <trkpt lat="50.36826" lon="3.41232">
        <ele>39.55</ele>
        <time>2021-08-07T17:45:57Z</time>
      </trkpt>
      <trkpt lat="50.36825" lon="3.41229">
        <ele>39.55</ele>
        <time>2021-08-07T17:45:58Z</time>
      </trkpt>
      <trkpt lat="50.36824" lon="3.41223">
        <ele>39.55</ele>
        <time>2021-08-07T17:45:59Z</time>
      </trkpt>
      <trkpt lat="50.36824" lon="3.41218">
        <ele>39.55</ele>
        <time>2021-08-07T17:46:00Z</time>
      </trkpt>
      <trkpt lat="50.36823" lon="3.41213">
        <ele>39.55</ele>
        <time>2021-08-07T17:46:01Z</time>
      </trkpt>
      <trkpt lat="50.36821" lon="3.41207">
        <ele>38.59</ele>
        <time>2021-08-07T17:46:02Z</time>
      </trkpt>
      <trkpt lat="50.36819" lon="3.41203">
        <ele>38.59</ele>
        <time>2021-08-07T17:46:03Z</time>
      </trkpt>
      <trkpt lat="50.36815" lon="3.412">
        <ele>38.59</ele>
        <time>2021-08-07T17:46:04Z</time>
      </trkpt>
      <trkpt lat="50.36812" lon="3.41197">
        <ele>38.59</ele>
        <time>2021-08-07T17:46:05Z</time>
      </trkpt>
      <trkpt lat="50.36788" lon="3.41178">
        <ele>38.59</ele>
        <time>2021-08-07T17:46:12Z</time>
      </trkpt>
      <trkpt lat="50.36783" lon="3.41173">
        <ele>38.59</ele>
        <time>2021-08-07T17:46:15Z</time>
      </trkpt>
      <trkpt lat="50.3678" lon="3.41173">
        <ele>38.59</ele>
        <time>2021-08-07T17:46:16Z</time>
      </trkpt>
      <trkpt lat="50.36778" lon="3.41172">
        <ele>38.59</ele>
        <time>2021-08-07T17:46:17Z</time>
      </trkpt>
      <trkpt lat="50.36755" lon="3.41152">
        <ele>38.11</ele>
        <time>2021-08-07T17:46:24Z</time>
      </trkpt>
      <trkpt lat="50.36722" lon="3.41131">
        <ele>37.63</ele>
        <time>2021-08-07T17:46:32Z</time>
      </trkpt>
      <trkpt lat="50.36684" lon="3.4111">
        <ele>37.15</ele>
        <time>2021-08-07T17:46:41Z</time>
      </trkpt>
      <trkpt lat="50.3668" lon="3.41108">
        <ele>37.15</ele>
        <time>2021-08-07T17:46:42Z</time>
      </trkpt>
      <trkpt lat="50.36659" lon="3.41096">
        <ele>37.15</ele>
        <time>2021-08-07T17:46:47Z</time>
      </trkpt>
      <trkpt lat="50.36655" lon="3.41095">
        <ele>37.15</ele>
        <time>2021-08-07T17:46:48Z</time>
      </trkpt>
      <trkpt lat="50.36619" lon="3.41089">
        <ele>37.15</ele>
        <time>2021-08-07T17:46:58Z</time>
      </trkpt>
      <trkpt lat="50.36615" lon="3.41088">
        <ele>37.15</ele>
        <time>2021-08-07T17:47:00Z</time>
      </trkpt>
      <trkpt lat="50.36614" lon="3.41088">
        <ele>37.15</ele>
        <time>2021-08-07T17:47:01Z</time>
      </trkpt>
      <trkpt lat="50.36612" lon="3.41088">
        <ele>37.15</ele>
        <time>2021-08-07T17:47:02Z</time>
      </trkpt>
      <trkpt lat="50.3661" lon="3.41088">
        <ele>36.67</ele>
        <time>2021-08-07T17:47:03Z</time>
      </trkpt>
      <trkpt lat="50.36608" lon="3.41088">
        <ele>36.67</ele>
        <time>2021-08-07T17:47:04Z</time>
      </trkpt>
      <trkpt lat="50.36607" lon="3.41087">
        <ele>36.67</ele>
        <time>2021-08-07T17:47:05Z</time>
      </trkpt>
      <trkpt lat="50.36605" lon="3.41087">
        <ele>36.67</ele>
        <time>2021-08-07T17:47:06Z</time>
      </trkpt>
      <trkpt lat="50.36586" lon="3.41086">
        <ele>36.67</ele>
        <time>2021-08-07T17:47:12Z</time>
      </trkpt>
      <trkpt lat="50.36555" lon="3.41086">
        <ele>36.19</ele>
        <time>2021-08-07T17:47:20Z</time>
      </trkpt>
      <trkpt lat="50.36533" lon="3.41084">
        <ele>36.19</ele>
        <time>2021-08-07T17:47:26Z</time>
      </trkpt>
      <trkpt lat="50.36516" lon="3.41085">
        <ele>36.19</ele>
        <time>2021-08-07T17:47:32Z</time>
      </trkpt>
      <trkpt lat="50.36497" lon="3.41085">
        <ele>36.19</ele>
        <time>2021-08-07T17:47:38Z</time>
      </trkpt>
      <trkpt lat="50.36478" lon="3.41083">
        <ele>36.19</ele>
        <time>2021-08-07T17:47:44Z</time>
      </trkpt>
      <trkpt lat="50.36463" lon="3.41083">
        <ele>35.71</ele>
        <time>2021-08-07T17:47:51Z</time>
      </trkpt>
      <trkpt lat="50.3646" lon="3.41079">
        <ele>35.71</ele>
        <time>2021-08-07T17:47:55Z</time>
      </trkpt>
      <trkpt lat="50.36459" lon="3.41077">
        <ele>35.71</ele>
        <time>2021-08-07T17:47:56Z</time>
      </trkpt>
      <trkpt lat="50.36457" lon="3.41075">
        <ele>35.23</ele>
        <time>2021-08-07T17:47:58Z</time>
      </trkpt>
      <trkpt lat="50.36455" lon="3.4107">
        <ele>35.23</ele>
        <time>2021-08-07T17:48:02Z</time>
      </trkpt>
      <trkpt lat="50.36454" lon="3.41066">
        <ele>35.23</ele>
        <time>2021-08-07T17:48:05Z</time>
      </trkpt>
      <trkpt lat="50.36447" lon="3.41066">
        <ele>34.74</ele>
        <time>2021-08-07T17:48:10Z</time>
      </trkpt>
      <trkpt lat="50.36445" lon="3.41065">
        <ele>34.74</ele>
        <time>2021-08-07T17:48:11Z</time>
      </trkpt>
      <trkpt lat="50.36444" lon="3.41065">
        <ele>34.74</ele>
        <time>2021-08-07T17:48:12Z</time>
      </trkpt>
      <trkpt lat="50.36443" lon="3.41064">
        <ele>34.74</ele>
        <time>2021-08-07T17:48:13Z</time>
      </trkpt>
      <trkpt lat="50.36436" lon="3.41062">
        <ele>34.74</ele>
        <time>2021-08-07T17:48:19Z</time>
      </trkpt>
      <trkpt lat="50.36421" lon="3.41058">
        <ele>34.74</ele>
        <time>2021-08-07T17:48:26Z</time>
      </trkpt>
      <trkpt lat="50.36395" lon="3.41046">
        <ele>34.74</ele>
        <time>2021-08-07T17:48:34Z</time>
      </trkpt>
      <trkpt lat="50.36381" lon="3.41037">
        <ele>34.74</ele>
        <time>2021-08-07T17:48:40Z</time>
      </trkpt>
      <trkpt lat="50.36373" lon="3.41027">
        <ele>34.74</ele>
        <time>2021-08-07T17:48:47Z</time>
      </trkpt>
      <trkpt lat="50.36369" lon="3.41025">
        <ele>34.74</ele>
        <time>2021-08-07T17:48:50Z</time>
      </trkpt>
      <trkpt lat="50.3636" lon="3.41035">
        <ele>34.74</ele>
        <time>2021-08-07T17:48:58Z</time>
      </trkpt>
      <trkpt lat="50.36343" lon="3.41053">
        <ele>34.74</ele>
        <time>2021-08-07T17:49:07Z</time>
      </trkpt>
      <trkpt lat="50.36327" lon="3.4106">
        <ele>34.74</ele>
        <time>2021-08-07T17:49:14Z</time>
      </trkpt>
      <trkpt lat="50.36312" lon="3.41061">
        <ele>34.74</ele>
        <time>2021-08-07T17:49:21Z</time>
      </trkpt>
      <trkpt lat="50.36299" lon="3.41057">
        <ele>34.26</ele>
        <time>2021-08-07T17:49:28Z</time>
      </trkpt>
      <trkpt lat="50.36289" lon="3.41057">
        <ele>34.26</ele>
        <time>2021-08-07T17:49:33Z</time>
      </trkpt>
      <trkpt lat="50.36276" lon="3.41055">
        <ele>34.26</ele>
        <time>2021-08-07T17:49:40Z</time>
      </trkpt>
      <trkpt lat="50.3626" lon="3.41051">
        <ele>34.26</ele>
        <time>2021-08-07T17:49:46Z</time>
      </trkpt>
      <trkpt lat="50.36248" lon="3.41048">
        <ele>34.26</ele>
        <time>2021-08-07T17:49:52Z</time>
      </trkpt>
      <trkpt lat="50.36232" lon="3.41042">
        <ele>34.26</ele>
        <time>2021-08-07T17:49:58Z</time>
      </trkpt>
      <trkpt lat="50.36201" lon="3.41033">
        <ele>34.26</ele>
        <time>2021-08-07T17:50:07Z</time>
      </trkpt>
      <trkpt lat="50.36173" lon="3.41025">
        <ele>35.23</ele>
        <time>2021-08-07T17:50:15Z</time>
      </trkpt>
      <trkpt lat="50.36146" lon="3.41018">
        <ele>35.23</ele>
        <time>2021-08-07T17:50:22Z</time>
      </trkpt>
      <trkpt lat="50.36121" lon="3.41014">
        <ele>35.23</ele>
        <time>2021-08-07T17:50:29Z</time>
      </trkpt>
      <trkpt lat="50.36103" lon="3.41011">
        <ele>35.23</ele>
        <time>2021-08-07T17:50:36Z</time>
      </trkpt>
      <trkpt lat="50.36088" lon="3.41024">
        <ele>35.23</ele>
        <time>2021-08-07T17:50:42Z</time>
      </trkpt>
      <trkpt lat="50.36073" lon="3.4104">
        <ele>35.23</ele>
        <time>2021-08-07T17:50:50Z</time>
      </trkpt>
      <trkpt lat="50.36054" lon="3.41058">
        <ele>35.23</ele>
        <time>2021-08-07T17:50:57Z</time>
      </trkpt>
      <trkpt lat="50.36043" lon="3.4107">
        <ele>35.23</ele>
        <time>2021-08-07T17:51:01Z</time>
      </trkpt>
      <trkpt lat="50.3603" lon="3.4109">
        <ele>35.23</ele>
        <time>2021-08-07T17:51:08Z</time>
      </trkpt>
      <trkpt lat="50.3601" lon="3.41091">
        <ele>35.23</ele>
        <time>2021-08-07T17:51:14Z</time>
      </trkpt>
      <trkpt lat="50.35978" lon="3.41087">
        <ele>35.23</ele>
        <time>2021-08-07T17:51:23Z</time>
      </trkpt>
      <trkpt lat="50.35953" lon="3.41085">
        <ele>35.23</ele>
        <time>2021-08-07T17:51:31Z</time>
      </trkpt>
      <trkpt lat="50.3593" lon="3.41085">
        <ele>35.23</ele>
        <time>2021-08-07T17:51:38Z</time>
      </trkpt>
      <trkpt lat="50.35903" lon="3.41087">
        <ele>35.23</ele>
        <time>2021-08-07T17:51:46Z</time>
      </trkpt>
      <trkpt lat="50.35881" lon="3.41086">
        <ele>33.78</ele>
        <time>2021-08-07T17:51:52Z</time>
      </trkpt>
      <trkpt lat="50.35846" lon="3.41086">
        <ele>33.78</ele>
        <time>2021-08-07T17:52:00Z</time>
      </trkpt>
      <trkpt lat="50.35801" lon="3.41094">
        <ele>33.78</ele>
        <time>2021-08-07T17:52:10Z</time>
      </trkpt>
      <trkpt lat="50.35796" lon="3.41096">
        <ele>33.78</ele>
        <time>2021-08-07T17:52:11Z</time>
      </trkpt>
      <trkpt lat="50.35759" lon="3.41105">
        <ele>33.78</ele>
        <time>2021-08-07T17:52:19Z</time>
      </trkpt>
      <trkpt lat="50.35725" lon="3.41113">
        <ele>33.78</ele>
        <time>2021-08-07T17:52:26Z</time>
      </trkpt>
      <trkpt lat="50.35684" lon="3.41122">
        <ele>33.3</ele>
        <time>2021-08-07T17:52:34Z</time>
      </trkpt>
      <trkpt lat="50.3565" lon="3.41131">
        <ele>33.3</ele>
        <time>2021-08-07T17:52:41Z</time>
      </trkpt>
      <trkpt lat="50.35598" lon="3.41143">
        <ele>33.3</ele>
        <time>2021-08-07T17:52:51Z</time>
      </trkpt>
      <trkpt lat="50.35594" lon="3.41144">
        <ele>33.3</ele>
        <time>2021-08-07T17:52:52Z</time>
      </trkpt>
      <trkpt lat="50.35585" lon="3.41147">
        <ele>33.3</ele>
        <time>2021-08-07T17:52:54Z</time>
      </trkpt>
      <trkpt lat="50.3558" lon="3.41148">
        <ele>33.3</ele>
        <time>2021-08-07T17:52:55Z</time>
      </trkpt>
      <trkpt lat="50.35548" lon="3.41157">
        <ele>33.3</ele>
        <time>2021-08-07T17:53:02Z</time>
      </trkpt>
      <trkpt lat="50.35517" lon="3.41163">
        <ele>32.82</ele>
        <time>2021-08-07T17:53:10Z</time>
      </trkpt>
      <trkpt lat="50.35513" lon="3.41164">
        <ele>32.82</ele>
        <time>2021-08-07T17:53:12Z</time>
      </trkpt>
      <trkpt lat="50.35513" lon="3.41167">
        <ele>32.82</ele>
        <time>2021-08-07T17:53:13Z</time>
      </trkpt>
      <trkpt lat="50.35513" lon="3.4117">
        <ele>32.82</ele>
        <time>2021-08-07T17:53:14Z</time>
      </trkpt>
      <trkpt lat="50.35511" lon="3.4117">
        <ele>32.82</ele>
        <time>2021-08-07T17:53:15Z</time>
      </trkpt>
      <trkpt lat="50.3551" lon="3.4117">
        <ele>32.82</ele>
        <time>2021-08-07T17:53:16Z</time>
      </trkpt>
      <trkpt lat="50.35509" lon="3.41171">
        <ele>32.82</ele>
        <time>2021-08-07T17:53:17Z</time>
      </trkpt>
      <trkpt lat="50.35508" lon="3.41171">
        <ele>32.82</ele>
        <time>2021-08-07T17:53:18Z</time>
      </trkpt>
      <trkpt lat="50.35506" lon="3.41172">
        <ele>32.82</ele>
        <time>2021-08-07T17:53:19Z</time>
      </trkpt>
      <trkpt lat="50.35494" lon="3.41174">
        <ele>32.82</ele>
        <time>2021-08-07T17:53:24Z</time>
      </trkpt>
      <trkpt lat="50.35475" lon="3.4118">
        <ele>32.82</ele>
        <time>2021-08-07T17:53:29Z</time>
      </trkpt>
      <trkpt lat="50.35442" lon="3.41185">
        <ele>32.82</ele>
        <time>2021-08-07T17:53:37Z</time>
      </trkpt>
      <trkpt lat="50.35407" lon="3.41195">
        <ele>32.82</ele>
        <time>2021-08-07T17:53:45Z</time>
      </trkpt>
      <trkpt lat="50.35361" lon="3.41208">
        <ele>32.82</ele>
        <time>2021-08-07T17:53:56Z</time>
      </trkpt>
      <trkpt lat="50.35356" lon="3.41209">
        <ele>32.82</ele>
        <time>2021-08-07T17:53:57Z</time>
      </trkpt>
      <trkpt lat="50.35352" lon="3.4121">
        <ele>32.82</ele>
        <time>2021-08-07T17:53:58Z</time>
      </trkpt>
      <trkpt lat="50.35311" lon="3.41214">
        <ele>32.82</ele>
        <time>2021-08-07T17:54:07Z</time>
      </trkpt>
      <trkpt lat="50.35274" lon="3.41215">
        <ele>32.34</ele>
        <time>2021-08-07T17:54:15Z</time>
      </trkpt>
      <trkpt lat="50.3527" lon="3.41215">
        <ele>32.82</ele>
        <time>2021-08-07T17:54:16Z</time>
      </trkpt>
      <trkpt lat="50.35224" lon="3.41209">
        <ele>32.34</ele>
        <time>2021-08-07T17:54:26Z</time>
      </trkpt>
      <trkpt lat="50.35202" lon="3.41205">
        <ele>32.34</ele>
        <time>2021-08-07T17:54:31Z</time>
      </trkpt>
      <trkpt lat="50.35161" lon="3.41193">
        <ele>32.34</ele>
        <time>2021-08-07T17:54:41Z</time>
      </trkpt>
      <trkpt lat="50.35111" lon="3.41175">
        <ele>31.86</ele>
        <time>2021-08-07T17:54:53Z</time>
      </trkpt>
      <trkpt lat="50.35098" lon="3.41173">
        <ele>33.3</ele>
        <time>2021-08-07T17:54:56Z</time>
      </trkpt>
      <trkpt lat="50.3509" lon="3.41172">
        <ele>33.3</ele>
        <time>2021-08-07T17:54:58Z</time>
      </trkpt>
      <trkpt lat="50.35072" lon="3.4117">
        <ele>33.3</ele>
        <time>2021-08-07T17:55:02Z</time>
      </trkpt>
      <trkpt lat="50.35068" lon="3.41171">
        <ele>33.3</ele>
        <time>2021-08-07T17:55:03Z</time>
      </trkpt>
      <trkpt lat="50.35064" lon="3.41173">
        <ele>33.3</ele>
        <time>2021-08-07T17:55:04Z</time>
      </trkpt>
      <trkpt lat="50.35049" lon="3.41177">
        <ele>33.3</ele>
        <time>2021-08-07T17:55:08Z</time>
      </trkpt>
      <trkpt lat="50.35045" lon="3.41176">
        <ele>33.3</ele>
        <time>2021-08-07T17:55:09Z</time>
      </trkpt>
      <trkpt lat="50.35041" lon="3.41176">
        <ele>33.3</ele>
        <time>2021-08-07T17:55:10Z</time>
      </trkpt>
      <trkpt lat="50.35036" lon="3.41176">
        <ele>33.3</ele>
        <time>2021-08-07T17:55:11Z</time>
      </trkpt>
      <trkpt lat="50.35032" lon="3.41177">
        <ele>33.3</ele>
        <time>2021-08-07T17:55:12Z</time>
      </trkpt>
      <trkpt lat="50.35028" lon="3.41178">
        <ele>33.3</ele>
        <time>2021-08-07T17:55:13Z</time>
      </trkpt>
      <trkpt lat="50.35024" lon="3.41176">
        <ele>33.3</ele>
        <time>2021-08-07T17:55:14Z</time>
      </trkpt>
      <trkpt lat="50.35021" lon="3.41173">
        <ele>33.3</ele>
        <time>2021-08-07T17:55:15Z</time>
      </trkpt>
      <trkpt lat="50.35018" lon="3.4117">
        <ele>33.3</ele>
        <time>2021-08-07T17:55:16Z</time>
      </trkpt>
      <trkpt lat="50.35" lon="3.41157">
        <ele>34.26</ele>
        <time>2021-08-07T17:55:21Z</time>
      </trkpt>
      <trkpt lat="50.34996" lon="3.41156">
        <ele>34.26</ele>
        <time>2021-08-07T17:55:22Z</time>
      </trkpt>
      <trkpt lat="50.34965" lon="3.41151">
        <ele>34.26</ele>
        <time>2021-08-07T17:55:30Z</time>
      </trkpt>
      <trkpt lat="50.3495" lon="3.41159">
        <ele>34.74</ele>
        <time>2021-08-07T17:55:36Z</time>
      </trkpt>
      <trkpt lat="50.34941" lon="3.41184">
        <ele>34.74</ele>
        <time>2021-08-07T17:55:41Z</time>
      </trkpt>
      <trkpt lat="50.34918" lon="3.41241">
        <ele>34.74</ele>
        <time>2021-08-07T17:55:50Z</time>
      </trkpt>
      <trkpt lat="50.34893" lon="3.41315">
        <ele>34.74</ele>
        <time>2021-08-07T17:56:00Z</time>
      </trkpt>
      <trkpt lat="50.34867" lon="3.41378">
        <ele>33.3</ele>
        <time>2021-08-07T17:56:09Z</time>
      </trkpt>
      <trkpt lat="50.34849" lon="3.41426">
        <ele>33.3</ele>
        <time>2021-08-07T17:56:16Z</time>
      </trkpt>
      <trkpt lat="50.34847" lon="3.41435">
        <ele>33.3</ele>
        <time>2021-08-07T17:56:17Z</time>
      </trkpt>
      <trkpt lat="50.34846" lon="3.41442">
        <ele>33.3</ele>
        <time>2021-08-07T17:56:18Z</time>
      </trkpt>
      <trkpt lat="50.34846" lon="3.41449">
        <ele>33.3</ele>
        <time>2021-08-07T17:56:19Z</time>
      </trkpt>
      <trkpt lat="50.34847" lon="3.41458">
        <ele>33.3</ele>
        <time>2021-08-07T17:56:20Z</time>
      </trkpt>
      <trkpt lat="50.34848" lon="3.41465">
        <ele>33.3</ele>
        <time>2021-08-07T17:56:21Z</time>
      </trkpt>
      <trkpt lat="50.34851" lon="3.41481">
        <ele>34.74</ele>
        <time>2021-08-07T17:56:23Z</time>
      </trkpt>
      <trkpt lat="50.34852" lon="3.41495">
        <ele>34.74</ele>
        <time>2021-08-07T17:56:25Z</time>
      </trkpt>
      <trkpt lat="50.34851" lon="3.41501">
        <ele>34.74</ele>
        <time>2021-08-07T17:56:26Z</time>
      </trkpt>
      <trkpt lat="50.34849" lon="3.41506">
        <ele>34.74</ele>
        <time>2021-08-07T17:56:27Z</time>
      </trkpt>
      <trkpt lat="50.34846" lon="3.4151">
        <ele>34.74</ele>
        <time>2021-08-07T17:56:28Z</time>
      </trkpt>
      <trkpt lat="50.34843" lon="3.41513">
        <ele>34.74</ele>
        <time>2021-08-07T17:56:29Z</time>
      </trkpt>
      <trkpt lat="50.34831" lon="3.41524">
        <ele>35.23</ele>
        <time>2021-08-07T17:56:32Z</time>
      </trkpt>
      <trkpt lat="50.34796" lon="3.41555">
        <ele>35.71</ele>
        <time>2021-08-07T17:56:41Z</time>
      </trkpt>
      <trkpt lat="50.34772" lon="3.4158">
        <ele>36.19</ele>
        <time>2021-08-07T17:56:48Z</time>
      </trkpt>
      <trkpt lat="50.34749" lon="3.416">
        <ele>36.19</ele>
        <time>2021-08-07T17:56:54Z</time>
      </trkpt>
      <trkpt lat="50.34734" lon="3.41614">
        <ele>36.19</ele>
        <time>2021-08-07T17:56:58Z</time>
      </trkpt>
      <trkpt lat="50.34723" lon="3.41625">
        <ele>34.74</ele>
        <time>2021-08-07T17:57:01Z</time>
      </trkpt>
      <trkpt lat="50.34695" lon="3.41653">
        <ele>34.74</ele>
        <time>2021-08-07T17:57:09Z</time>
      </trkpt>
      <trkpt lat="50.34691" lon="3.41657">
        <ele>34.74</ele>
        <time>2021-08-07T17:57:10Z</time>
      </trkpt>
      <trkpt lat="50.34688" lon="3.41661">
        <ele>34.74</ele>
        <time>2021-08-07T17:57:11Z</time>
      </trkpt>
      <trkpt lat="50.34684" lon="3.41664">
        <ele>34.74</ele>
        <time>2021-08-07T17:57:12Z</time>
      </trkpt>
      <trkpt lat="50.34681" lon="3.41668">
        <ele>34.74</ele>
        <time>2021-08-07T17:57:13Z</time>
      </trkpt>
      <trkpt lat="50.34658" lon="3.41693">
        <ele>34.74</ele>
        <time>2021-08-07T17:57:19Z</time>
      </trkpt>
      <trkpt lat="50.34654" lon="3.41697">
        <ele>34.74</ele>
        <time>2021-08-07T17:57:20Z</time>
      </trkpt>
      <trkpt lat="50.34639" lon="3.41714">
        <ele>34.74</ele>
        <time>2021-08-07T17:57:24Z</time>
      </trkpt>
      <trkpt lat="50.34636" lon="3.41719">
        <ele>34.74</ele>
        <time>2021-08-07T17:57:25Z</time>
      </trkpt>
      <trkpt lat="50.34632" lon="3.41723">
        <ele>34.74</ele>
        <time>2021-08-07T17:57:26Z</time>
      </trkpt>
      <trkpt lat="50.34607" lon="3.41757">
        <ele>34.74</ele>
        <time>2021-08-07T17:57:33Z</time>
      </trkpt>
      <trkpt lat="50.34603" lon="3.41763">
        <ele>35.71</ele>
        <time>2021-08-07T17:57:34Z</time>
      </trkpt>
      <trkpt lat="50.346" lon="3.41767">
        <ele>35.71</ele>
        <time>2021-08-07T17:57:35Z</time>
      </trkpt>
      <trkpt lat="50.34596" lon="3.41772">
        <ele>35.71</ele>
        <time>2021-08-07T17:57:36Z</time>
      </trkpt>
      <trkpt lat="50.34582" lon="3.41791">
        <ele>35.71</ele>
        <time>2021-08-07T17:57:40Z</time>
      </trkpt>
      <trkpt lat="50.34579" lon="3.41796">
        <ele>35.71</ele>
        <time>2021-08-07T17:57:41Z</time>
      </trkpt>
      <trkpt lat="50.34572" lon="3.41805">
        <ele>35.71</ele>
        <time>2021-08-07T17:57:43Z</time>
      </trkpt>
      <trkpt lat="50.34568" lon="3.41809">
        <ele>35.71</ele>
        <time>2021-08-07T17:57:44Z</time>
      </trkpt>
      <trkpt lat="50.34558" lon="3.41823">
        <ele>35.71</ele>
        <time>2021-08-07T17:57:47Z</time>
      </trkpt>
      <trkpt lat="50.34555" lon="3.41828">
        <ele>35.71</ele>
        <time>2021-08-07T17:57:48Z</time>
      </trkpt>
      <trkpt lat="50.34551" lon="3.41832">
        <ele>35.71</ele>
        <time>2021-08-07T17:57:49Z</time>
      </trkpt>
      <trkpt lat="50.34521" lon="3.41873">
        <ele>36.19</ele>
        <time>2021-08-07T17:57:59Z</time>
      </trkpt>
      <trkpt lat="50.34501" lon="3.41901">
        <ele>36.67</ele>
        <time>2021-08-07T17:58:06Z</time>
      </trkpt>
      <trkpt lat="50.3448" lon="3.4192">
        <ele>36.67</ele>
        <time>2021-08-07T17:58:12Z</time>
      </trkpt>
      <trkpt lat="50.34469" lon="3.41928">
        <ele>36.67</ele>
        <time>2021-08-07T17:58:15Z</time>
      </trkpt>
      <trkpt lat="50.34465" lon="3.41929">
        <ele>36.67</ele>
        <time>2021-08-07T17:58:16Z</time>
      </trkpt>
      <trkpt lat="50.34461" lon="3.41931">
        <ele>36.67</ele>
        <time>2021-08-07T17:58:17Z</time>
      </trkpt>
      <trkpt lat="50.34457" lon="3.41934">
        <ele>36.19</ele>
        <time>2021-08-07T17:58:18Z</time>
      </trkpt>
      <trkpt lat="50.34453" lon="3.41936">
        <ele>36.19</ele>
        <time>2021-08-07T17:58:19Z</time>
      </trkpt>
      <trkpt lat="50.3445" lon="3.41938">
        <ele>36.19</ele>
        <time>2021-08-07T17:58:20Z</time>
      </trkpt>
      <trkpt lat="50.34446" lon="3.4194">
        <ele>36.19</ele>
        <time>2021-08-07T17:58:21Z</time>
      </trkpt>
      <trkpt lat="50.34419" lon="3.41955">
        <ele>36.19</ele>
        <time>2021-08-07T17:58:28Z</time>
      </trkpt>
      <trkpt lat="50.34415" lon="3.41956">
        <ele>36.19</ele>
        <time>2021-08-07T17:58:29Z</time>
      </trkpt>
      <trkpt lat="50.34411" lon="3.41958">
        <ele>36.19</ele>
        <time>2021-08-07T17:58:30Z</time>
      </trkpt>
      <trkpt lat="50.34407" lon="3.4196">
        <ele>36.19</ele>
        <time>2021-08-07T17:58:31Z</time>
      </trkpt>
      <trkpt lat="50.34404" lon="3.41962">
        <ele>36.19</ele>
        <time>2021-08-07T17:58:32Z</time>
      </trkpt>
      <trkpt lat="50.34374" lon="3.41978">
        <ele>36.19</ele>
        <time>2021-08-07T17:58:40Z</time>
      </trkpt>
      <trkpt lat="50.34354" lon="3.41994">
        <ele>36.19</ele>
        <time>2021-08-07T17:58:46Z</time>
      </trkpt>
      <trkpt lat="50.34329" lon="3.42013">
        <ele>36.19</ele>
        <time>2021-08-07T17:58:54Z</time>
      </trkpt>
      <trkpt lat="50.34318" lon="3.42021">
        <ele>38.59</ele>
        <time>2021-08-07T17:58:59Z</time>
      </trkpt>
      <trkpt lat="50.34315" lon="3.4202">
        <ele>39.55</ele>
        <time>2021-08-07T17:59:00Z</time>
      </trkpt>
      <trkpt lat="50.34315" lon="3.42018">
        <ele>40.03</ele>
        <time>2021-08-07T17:59:01Z</time>
      </trkpt>
      <trkpt lat="50.34315" lon="3.42016">
        <ele>40.03</ele>
        <time>2021-08-07T17:59:06Z</time>
      </trkpt>
      <trkpt lat="50.34313" lon="3.42016">
        <ele>40.03</ele>
        <time>2021-08-07T17:59:08Z</time>
      </trkpt>
      <trkpt lat="50.34312" lon="3.42016">
        <ele>40.03</ele>
        <time>2021-08-07T17:59:09Z</time>
      </trkpt>
      <trkpt lat="50.3431" lon="3.42015">
        <ele>40.03</ele>
        <time>2021-08-07T17:59:10Z</time>
      </trkpt>
      <trkpt lat="50.34308" lon="3.42014">
        <ele>40.03</ele>
        <time>2021-08-07T17:59:11Z</time>
      </trkpt>
      <trkpt lat="50.34306" lon="3.42013">
        <ele>40.03</ele>
        <time>2021-08-07T17:59:12Z</time>
      </trkpt>
      <trkpt lat="50.34285" lon="3.42014">
        <ele>40.03</ele>
        <time>2021-08-07T17:59:18Z</time>
      </trkpt>
      <trkpt lat="50.34276" lon="3.42017">
        <ele>40.03</ele>
        <time>2021-08-07T17:59:21Z</time>
      </trkpt>
      <trkpt lat="50.34275" lon="3.42021">
        <ele>40.03</ele>
        <time>2021-08-07T17:59:22Z</time>
      </trkpt>
      <trkpt lat="50.34272" lon="3.4203">
        <ele>40.03</ele>
        <time>2021-08-07T17:59:24Z</time>
      </trkpt>
      <trkpt lat="50.3427" lon="3.42033">
        <ele>40.03</ele>
        <time>2021-08-07T17:59:25Z</time>
      </trkpt>
      <trkpt lat="50.34266" lon="3.42035">
        <ele>40.03</ele>
        <time>2021-08-07T17:59:26Z</time>
      </trkpt>
      <trkpt lat="50.34262" lon="3.42037">
        <ele>40.03</ele>
        <time>2021-08-07T17:59:27Z</time>
      </trkpt>
      <trkpt lat="50.34259" lon="3.42039">
        <ele>40.03</ele>
        <time>2021-08-07T17:59:28Z</time>
      </trkpt>
      <trkpt lat="50.34255" lon="3.42042">
        <ele>40.03</ele>
        <time>2021-08-07T17:59:29Z</time>
      </trkpt>
      <trkpt lat="50.34251" lon="3.42043">
        <ele>40.03</ele>
        <time>2021-08-07T17:59:30Z</time>
      </trkpt>
      <trkpt lat="50.34247" lon="3.42044">
        <ele>40.03</ele>
        <time>2021-08-07T17:59:31Z</time>
      </trkpt>
      <trkpt lat="50.34239" lon="3.42046">
        <ele>40.03</ele>
        <time>2021-08-07T17:59:33Z</time>
      </trkpt>
      <trkpt lat="50.34234" lon="3.42047">
        <ele>40.03</ele>
        <time>2021-08-07T17:59:34Z</time>
      </trkpt>
      <trkpt lat="50.3423" lon="3.42048">
        <ele>40.03</ele>
        <time>2021-08-07T17:59:35Z</time>
      </trkpt>
      <trkpt lat="50.34217" lon="3.42053">
        <ele>40.03</ele>
        <time>2021-08-07T17:59:38Z</time>
      </trkpt>
      <trkpt lat="50.34213" lon="3.42055">
        <ele>40.03</ele>
        <time>2021-08-07T17:59:39Z</time>
      </trkpt>
      <trkpt lat="50.3417" lon="3.42071">
        <ele>40.03</ele>
        <time>2021-08-07T17:59:49Z</time>
      </trkpt>
      <trkpt lat="50.34128" lon="3.42084">
        <ele>40.51</ele>
        <time>2021-08-07T17:59:59Z</time>
      </trkpt>
      <trkpt lat="50.34104" lon="3.42094">
        <ele>40.03</ele>
        <time>2021-08-07T18:00:05Z</time>
      </trkpt>
      <trkpt lat="50.34059" lon="3.42108">
        <ele>40.99</ele>
        <time>2021-08-07T18:00:16Z</time>
      </trkpt>
      <trkpt lat="50.34016" lon="3.42119">
        <ele>40.99</ele>
        <time>2021-08-07T18:00:26Z</time>
      </trkpt>
      <trkpt lat="50.34012" lon="3.42121">
        <ele>40.99</ele>
        <time>2021-08-07T18:00:27Z</time>
      </trkpt>
      <trkpt lat="50.33983" lon="3.42127">
        <ele>41.47</ele>
        <time>2021-08-07T18:00:34Z</time>
      </trkpt>
      <trkpt lat="50.33979" lon="3.42128">
        <ele>41.47</ele>
        <time>2021-08-07T18:00:35Z</time>
      </trkpt>
      <trkpt lat="50.33971" lon="3.4213">
        <ele>41.95</ele>
        <time>2021-08-07T18:00:37Z</time>
      </trkpt>
      <trkpt lat="50.3393" lon="3.42135">
        <ele>42.44</ele>
        <time>2021-08-07T18:00:47Z</time>
      </trkpt>
      <trkpt lat="50.33928" lon="3.42134">
        <ele>42.44</ele>
        <time>2021-08-07T18:00:48Z</time>
      </trkpt>
      <trkpt lat="50.33928" lon="3.42132">
        <ele>42.44</ele>
        <time>2021-08-07T18:00:49Z</time>
      </trkpt>
      <trkpt lat="50.33928" lon="3.42128">
        <ele>42.44</ele>
        <time>2021-08-07T18:00:54Z</time>
      </trkpt>
      <trkpt lat="50.33928" lon="3.42129">
        <ele>42.44</ele>
        <time>2021-08-07T18:01:08Z</time>
      </trkpt>
      <trkpt lat="50.33929" lon="3.42132">
        <ele>42.44</ele>
        <time>2021-08-07T18:01:15Z</time>
      </trkpt>
      <trkpt lat="50.33928" lon="3.42132">
        <ele>42.44</ele>
        <time>2021-08-07T18:01:32Z</time>
      </trkpt>
      <trkpt lat="50.33927" lon="3.42134">
        <ele>42.44</ele>
        <time>2021-08-07T18:01:36Z</time>
      </trkpt>
      <trkpt lat="50.33926" lon="3.42135">
        <ele>42.44</ele>
        <time>2021-08-07T18:01:37Z</time>
      </trkpt>
      <trkpt lat="50.33924" lon="3.42136">
        <ele>42.44</ele>
        <time>2021-08-07T18:01:38Z</time>
      </trkpt>
      <trkpt lat="50.33906" lon="3.42141">
        <ele>42.92</ele>
        <time>2021-08-07T18:01:44Z</time>
      </trkpt>
      <trkpt lat="50.33869" lon="3.42145">
        <ele>42.92</ele>
        <time>2021-08-07T18:01:53Z</time>
      </trkpt>
      <trkpt lat="50.33817" lon="3.42143">
        <ele>42.92</ele>
        <time>2021-08-07T18:02:05Z</time>
      </trkpt>
      <trkpt lat="50.33766" lon="3.42136">
        <ele>42.92</ele>
        <time>2021-08-07T18:02:16Z</time>
      </trkpt>
      <trkpt lat="50.33713" lon="3.42127">
        <ele>42.92</ele>
        <time>2021-08-07T18:02:27Z</time>
      </trkpt>
      <trkpt lat="50.33655" lon="3.42113">
        <ele>42.44</ele>
        <time>2021-08-07T18:02:39Z</time>
      </trkpt>
      <trkpt lat="50.3361" lon="3.42104">
        <ele>42.44</ele>
        <time>2021-08-07T18:02:48Z</time>
      </trkpt>
      <trkpt lat="50.33544" lon="3.42089">
        <ele>42.44</ele>
        <time>2021-08-07T18:03:01Z</time>
      </trkpt>
      <trkpt lat="50.33496" lon="3.42079">
        <ele>42.44</ele>
        <time>2021-08-07T18:03:11Z</time>
      </trkpt>
      <trkpt lat="50.33468" lon="3.42074">
        <ele>42.92</ele>
        <time>2021-08-07T18:03:17Z</time>
      </trkpt>
      <trkpt lat="50.33462" lon="3.42074">
        <ele>42.92</ele>
        <time>2021-08-07T18:03:18Z</time>
      </trkpt>
      <trkpt lat="50.3343" lon="3.4207">
        <ele>42.92</ele>
        <time>2021-08-07T18:03:25Z</time>
      </trkpt>
      <trkpt lat="50.33407" lon="3.42072">
        <ele>42.92</ele>
        <time>2021-08-07T18:03:31Z</time>
      </trkpt>
      <trkpt lat="50.33403" lon="3.42072">
        <ele>42.92</ele>
        <time>2021-08-07T18:03:32Z</time>
      </trkpt>
      <trkpt lat="50.33382" lon="3.42068">
        <ele>43.4</ele>
        <time>2021-08-07T18:03:37Z</time>
      </trkpt>
      <trkpt lat="50.33378" lon="3.42066">
        <ele>43.4</ele>
        <time>2021-08-07T18:03:38Z</time>
      </trkpt>
      <trkpt lat="50.33374" lon="3.42063">
        <ele>43.4</ele>
        <time>2021-08-07T18:03:39Z</time>
      </trkpt>
      <trkpt lat="50.33361" lon="3.42055">
        <ele>43.4</ele>
        <time>2021-08-07T18:03:42Z</time>
      </trkpt>
      <trkpt lat="50.33324" lon="3.42018">
        <ele>43.4</ele>
        <time>2021-08-07T18:03:51Z</time>
      </trkpt>
      <trkpt lat="50.33292" lon="3.41977">
        <ele>42.92</ele>
        <time>2021-08-07T18:03:59Z</time>
      </trkpt>
      <trkpt lat="50.33247" lon="3.41919">
        <ele>41.47</ele>
        <time>2021-08-07T18:04:10Z</time>
      </trkpt>
      <trkpt lat="50.33207" lon="3.41872">
        <ele>40.03</ele>
        <time>2021-08-07T18:04:19Z</time>
      </trkpt>
      <trkpt lat="50.33162" lon="3.4183">
        <ele>39.55</ele>
        <time>2021-08-07T18:04:29Z</time>
      </trkpt>
      <trkpt lat="50.33115" lon="3.41803">
        <ele>38.59</ele>
        <time>2021-08-07T18:04:38Z</time>
      </trkpt>
      <trkpt lat="50.33104" lon="3.41797">
        <ele>38.59</ele>
        <time>2021-08-07T18:04:40Z</time>
      </trkpt>
      <trkpt lat="50.3309" lon="3.41785">
        <ele>38.11</ele>
        <time>2021-08-07T18:04:43Z</time>
      </trkpt>
      <trkpt lat="50.33086" lon="3.4178">
        <ele>37.63</ele>
        <time>2021-08-07T18:04:44Z</time>
      </trkpt>
      <trkpt lat="50.33068" lon="3.41761">
        <ele>37.15</ele>
        <time>2021-08-07T18:04:50Z</time>
      </trkpt>
      <trkpt lat="50.33066" lon="3.41762">
        <ele>37.15</ele>
        <time>2021-08-07T18:04:51Z</time>
      </trkpt>
      <trkpt lat="50.33063" lon="3.41765">
        <ele>37.15</ele>
        <time>2021-08-07T18:04:52Z</time>
      </trkpt>
      <trkpt lat="50.33062" lon="3.41771">
        <ele>37.15</ele>
        <time>2021-08-07T18:04:53Z</time>
      </trkpt>
      <trkpt lat="50.33061" lon="3.41776">
        <ele>37.15</ele>
        <time>2021-08-07T18:04:54Z</time>
      </trkpt>
      <trkpt lat="50.3306" lon="3.41782">
        <ele>37.15</ele>
        <time>2021-08-07T18:04:55Z</time>
      </trkpt>
      <trkpt lat="50.33053" lon="3.41843">
        <ele>37.15</ele>
        <time>2021-08-07T18:05:03Z</time>
      </trkpt>
      <trkpt lat="50.33051" lon="3.4186">
        <ele>36.67</ele>
        <time>2021-08-07T18:05:05Z</time>
      </trkpt>
      <trkpt lat="50.33051" lon="3.41869">
        <ele>36.67</ele>
        <time>2021-08-07T18:05:06Z</time>
      </trkpt>
      <trkpt lat="50.33037" lon="3.41975">
        <ele>36.19</ele>
        <time>2021-08-07T18:05:18Z</time>
      </trkpt>
      <trkpt lat="50.33024" lon="3.42078">
        <ele>35.23</ele>
        <time>2021-08-07T18:05:29Z</time>
      </trkpt>
      <trkpt lat="50.33008" lon="3.42213">
        <ele>34.26</ele>
        <time>2021-08-07T18:05:43Z</time>
      </trkpt>
      <trkpt lat="50.32998" lon="3.42294">
        <ele>32.34</ele>
        <time>2021-08-07T18:05:51Z</time>
      </trkpt>
      <trkpt lat="50.32997" lon="3.42303">
        <ele>32.34</ele>
        <time>2021-08-07T18:05:52Z</time>
      </trkpt>
      <trkpt lat="50.32997" lon="3.42312">
        <ele>32.34</ele>
        <time>2021-08-07T18:05:53Z</time>
      </trkpt>
      <trkpt lat="50.32997" lon="3.42321">
        <ele>32.34</ele>
        <time>2021-08-07T18:05:54Z</time>
      </trkpt>
      <trkpt lat="50.32987" lon="3.42405">
        <ele>32.34</ele>
        <time>2021-08-07T18:06:03Z</time>
      </trkpt>
      <trkpt lat="50.32985" lon="3.42414">
        <ele>32.34</ele>
        <time>2021-08-07T18:06:04Z</time>
      </trkpt>
      <trkpt lat="50.32966" lon="3.42494">
        <ele>33.3</ele>
        <time>2021-08-07T18:06:13Z</time>
      </trkpt>
      <trkpt lat="50.32946" lon="3.42594">
        <ele>33.3</ele>
        <time>2021-08-07T18:06:24Z</time>
      </trkpt>
      <trkpt lat="50.32927" lon="3.42683">
        <ele>33.3</ele>
        <time>2021-08-07T18:06:34Z</time>
      </trkpt>
      <trkpt lat="50.32904" lon="3.42797">
        <ele>33.3</ele>
        <time>2021-08-07T18:06:47Z</time>
      </trkpt>
      <trkpt lat="50.32883" lon="3.429">
        <ele>33.3</ele>
        <time>2021-08-07T18:06:59Z</time>
      </trkpt>
      <trkpt lat="50.32865" lon="3.42993">
        <ele>33.3</ele>
        <time>2021-08-07T18:07:10Z</time>
      </trkpt>
      <trkpt lat="50.32843" lon="3.43085">
        <ele>33.3</ele>
        <time>2021-08-07T18:07:21Z</time>
      </trkpt>
      <trkpt lat="50.32821" lon="3.43157">
        <ele>33.3</ele>
        <time>2021-08-07T18:07:30Z</time>
      </trkpt>
      <trkpt lat="50.32791" lon="3.43242">
        <ele>33.3</ele>
        <time>2021-08-07T18:07:41Z</time>
      </trkpt>
      <trkpt lat="50.32766" lon="3.43301">
        <ele>33.3</ele>
        <time>2021-08-07T18:07:49Z</time>
      </trkpt>
      <trkpt lat="50.32724" lon="3.43389">
        <ele>33.3</ele>
        <time>2021-08-07T18:08:01Z</time>
      </trkpt>
      <trkpt lat="50.32685" lon="3.43465">
        <ele>33.3</ele>
        <time>2021-08-07T18:08:12Z</time>
      </trkpt>
      <trkpt lat="50.32677" lon="3.43485">
        <ele>33.3</ele>
        <time>2021-08-07T18:08:15Z</time>
      </trkpt>
      <trkpt lat="50.32672" lon="3.43499">
        <ele>33.3</ele>
        <time>2021-08-07T18:08:17Z</time>
      </trkpt>
      <trkpt lat="50.32646" lon="3.43538">
        <ele>33.3</ele>
        <time>2021-08-07T18:08:23Z</time>
      </trkpt>
      <trkpt lat="50.32601" lon="3.43617">
        <ele>33.3</ele>
        <time>2021-08-07T18:08:35Z</time>
      </trkpt>
      <trkpt lat="50.32558" lon="3.43685">
        <ele>33.3</ele>
        <time>2021-08-07T18:08:46Z</time>
      </trkpt>
      <trkpt lat="50.32548" lon="3.43697">
        <ele>33.3</ele>
        <time>2021-08-07T18:08:49Z</time>
      </trkpt>
      <trkpt lat="50.32544" lon="3.437">
        <ele>33.3</ele>
        <time>2021-08-07T18:08:50Z</time>
      </trkpt>
      <trkpt lat="50.32525" lon="3.43708">
        <ele>33.3</ele>
        <time>2021-08-07T18:08:55Z</time>
      </trkpt>
      <trkpt lat="50.32522" lon="3.43705">
        <ele>33.3</ele>
        <time>2021-08-07T18:08:56Z</time>
      </trkpt>
      <trkpt lat="50.32518" lon="3.43699">
        <ele>33.3</ele>
        <time>2021-08-07T18:08:57Z</time>
      </trkpt>
      <trkpt lat="50.32515" lon="3.43693">
        <ele>33.3</ele>
        <time>2021-08-07T18:08:58Z</time>
      </trkpt>
      <trkpt lat="50.32513" lon="3.43685">
        <ele>33.3</ele>
        <time>2021-08-07T18:08:59Z</time>
      </trkpt>
      <trkpt lat="50.3251" lon="3.43679">
        <ele>33.3</ele>
        <time>2021-08-07T18:09:00Z</time>
      </trkpt>
      <trkpt lat="50.32505" lon="3.43673">
        <ele>33.3</ele>
        <time>2021-08-07T18:09:01Z</time>
      </trkpt>
      <trkpt lat="50.32501" lon="3.43672">
        <ele>33.3</ele>
        <time>2021-08-07T18:09:02Z</time>
      </trkpt>
      <trkpt lat="50.32497" lon="3.43672">
        <ele>33.3</ele>
        <time>2021-08-07T18:09:03Z</time>
      </trkpt>
      <trkpt lat="50.32493" lon="3.43675">
        <ele>33.3</ele>
        <time>2021-08-07T18:09:04Z</time>
      </trkpt>
      <trkpt lat="50.3249" lon="3.43679">
        <ele>33.3</ele>
        <time>2021-08-07T18:09:05Z</time>
      </trkpt>
      <trkpt lat="50.32488" lon="3.43686">
        <ele>33.3</ele>
        <time>2021-08-07T18:09:06Z</time>
      </trkpt>
      <trkpt lat="50.32487" lon="3.43694">
        <ele>33.3</ele>
        <time>2021-08-07T18:09:07Z</time>
      </trkpt>
      <trkpt lat="50.32489" lon="3.43702">
        <ele>33.3</ele>
        <time>2021-08-07T18:09:08Z</time>
      </trkpt>
      <trkpt lat="50.32491" lon="3.43707">
        <ele>33.3</ele>
        <time>2021-08-07T18:09:09Z</time>
      </trkpt>
      <trkpt lat="50.32494" lon="3.43713">
        <ele>33.3</ele>
        <time>2021-08-07T18:09:10Z</time>
      </trkpt>
      <trkpt lat="50.32497" lon="3.43719">
        <ele>33.3</ele>
        <time>2021-08-07T18:09:11Z</time>
      </trkpt>
      <trkpt lat="50.32499" lon="3.43724">
        <ele>33.3</ele>
        <time>2021-08-07T18:09:12Z</time>
      </trkpt>
      <trkpt lat="50.32501" lon="3.43732">
        <ele>33.3</ele>
        <time>2021-08-07T18:09:13Z</time>
      </trkpt>
      <trkpt lat="50.325" lon="3.43741">
        <ele>33.3</ele>
        <time>2021-08-07T18:09:14Z</time>
      </trkpt>
      <trkpt lat="50.32498" lon="3.43749">
        <ele>33.3</ele>
        <time>2021-08-07T18:09:15Z</time>
      </trkpt>
      <trkpt lat="50.32496" lon="3.43755">
        <ele>33.3</ele>
        <time>2021-08-07T18:09:16Z</time>
      </trkpt>
      <trkpt lat="50.32493" lon="3.43761">
        <ele>33.3</ele>
        <time>2021-08-07T18:09:17Z</time>
      </trkpt>
      <trkpt lat="50.32489" lon="3.43767">
        <ele>33.3</ele>
        <time>2021-08-07T18:09:18Z</time>
      </trkpt>
      <trkpt lat="50.32486" lon="3.43773">
        <ele>33.3</ele>
        <time>2021-08-07T18:09:19Z</time>
      </trkpt>
      <trkpt lat="50.32447" lon="3.43836">
        <ele>33.3</ele>
        <time>2021-08-07T18:09:29Z</time>
      </trkpt>
      <trkpt lat="50.32441" lon="3.43852">
        <ele>33.3</ele>
        <time>2021-08-07T18:09:31Z</time>
      </trkpt>
      <trkpt lat="50.32439" lon="3.43861">
        <ele>33.3</ele>
        <time>2021-08-07T18:09:32Z</time>
      </trkpt>
      <trkpt lat="50.3243" lon="3.43931">
        <ele>32.34</ele>
        <time>2021-08-07T18:09:40Z</time>
      </trkpt>
      <trkpt lat="50.32424" lon="3.43993">
        <ele>32.34</ele>
        <time>2021-08-07T18:09:47Z</time>
      </trkpt>
      <trkpt lat="50.32408" lon="3.44071">
        <ele>31.86</ele>
        <time>2021-08-07T18:09:56Z</time>
      </trkpt>
      <trkpt lat="50.32381" lon="3.44139">
        <ele>31.38</ele>
        <time>2021-08-07T18:10:05Z</time>
      </trkpt>
      <trkpt lat="50.32359" lon="3.44179">
        <ele>31.38</ele>
        <time>2021-08-07T18:10:11Z</time>
      </trkpt>
      <trkpt lat="50.32318" lon="3.44238">
        <ele>31.38</ele>
        <time>2021-08-07T18:10:21Z</time>
      </trkpt>
      <trkpt lat="50.32271" lon="3.44306">
        <ele>31.38</ele>
        <time>2021-08-07T18:10:32Z</time>
      </trkpt>
      <trkpt lat="50.32231" lon="3.44368">
        <ele>30.42</ele>
        <time>2021-08-07T18:10:42Z</time>
      </trkpt>
      <trkpt lat="50.32189" lon="3.44428">
        <ele>30.42</ele>
        <time>2021-08-07T18:10:52Z</time>
      </trkpt>
      <trkpt lat="50.32147" lon="3.44483">
        <ele>31.86</ele>
        <time>2021-08-07T18:11:02Z</time>
      </trkpt>
      <trkpt lat="50.32103" lon="3.44545">
        <ele>31.86</ele>
        <time>2021-08-07T18:11:13Z</time>
      </trkpt>
      <trkpt lat="50.32084" lon="3.44575">
        <ele>31.86</ele>
        <time>2021-08-07T18:11:18Z</time>
      </trkpt>
      <trkpt lat="50.32042" lon="3.4463">
        <ele>31.86</ele>
        <time>2021-08-07T18:11:28Z</time>
      </trkpt>
      <trkpt lat="50.32009" lon="3.44674">
        <ele>31.86</ele>
        <time>2021-08-07T18:11:36Z</time>
      </trkpt>
      <trkpt lat="50.32004" lon="3.44678">
        <ele>31.86</ele>
        <time>2021-08-07T18:11:37Z</time>
      </trkpt>
      <trkpt lat="50.31953" lon="3.44716">
        <ele>31.86</ele>
        <time>2021-08-07T18:11:47Z</time>
      </trkpt>
      <trkpt lat="50.31911" lon="3.44741">
        <ele>31.38</ele>
        <time>2021-08-07T18:11:55Z</time>
      </trkpt>
      <trkpt lat="50.31873" lon="3.44766">
        <ele>32.82</ele>
        <time>2021-08-07T18:12:03Z</time>
      </trkpt>
      <trkpt lat="50.3187" lon="3.44767">
        <ele>32.82</ele>
        <time>2021-08-07T18:12:04Z</time>
      </trkpt>
      <trkpt lat="50.31855" lon="3.44771">
        <ele>32.82</ele>
        <time>2021-08-07T18:12:07Z</time>
      </trkpt>
      <trkpt lat="50.31809" lon="3.44796">
        <ele>32.82</ele>
        <time>2021-08-07T18:12:16Z</time>
      </trkpt>
      <trkpt lat="50.31762" lon="3.44817">
        <ele>31.86</ele>
        <time>2021-08-07T18:12:25Z</time>
      </trkpt>
      <trkpt lat="50.31746" lon="3.44823">
        <ele>32.82</ele>
        <time>2021-08-07T18:12:29Z</time>
      </trkpt>
      <trkpt lat="50.31715" lon="3.44841">
        <ele>33.3</ele>
        <time>2021-08-07T18:12:37Z</time>
      </trkpt>
      <trkpt lat="50.31707" lon="3.44848">
        <ele>33.78</ele>
        <time>2021-08-07T18:12:40Z</time>
      </trkpt>
      <trkpt lat="50.31707" lon="3.44852">
        <ele>33.78</ele>
        <time>2021-08-07T18:12:41Z</time>
      </trkpt>
      <trkpt lat="50.31707" lon="3.44856">
        <ele>33.78</ele>
        <time>2021-08-07T18:12:42Z</time>
      </trkpt>
      <trkpt lat="50.31708" lon="3.4486">
        <ele>34.26</ele>
        <time>2021-08-07T18:12:43Z</time>
      </trkpt>
      <trkpt lat="50.31709" lon="3.44865">
        <ele>34.26</ele>
        <time>2021-08-07T18:12:44Z</time>
      </trkpt>
      <trkpt lat="50.31715" lon="3.4491">
        <ele>36.67</ele>
        <time>2021-08-07T18:12:53Z</time>
      </trkpt>
      <trkpt lat="50.31727" lon="3.44965">
        <ele>37.15</ele>
        <time>2021-08-07T18:13:02Z</time>
      </trkpt>
      <trkpt lat="50.31729" lon="3.44971">
        <ele>37.15</ele>
        <time>2021-08-07T18:13:03Z</time>
      </trkpt>
      <trkpt lat="50.31732" lon="3.44978">
        <ele>37.15</ele>
        <time>2021-08-07T18:13:04Z</time>
      </trkpt>
      <trkpt lat="50.31735" lon="3.44983">
        <ele>37.15</ele>
        <time>2021-08-07T18:13:05Z</time>
      </trkpt>
      <trkpt lat="50.31738" lon="3.44988">
        <ele>37.15</ele>
        <time>2021-08-07T18:13:06Z</time>
      </trkpt>
      <trkpt lat="50.31748" lon="3.45002">
        <ele>37.15</ele>
        <time>2021-08-07T18:13:09Z</time>
      </trkpt>
      <trkpt lat="50.3175" lon="3.45008">
        <ele>37.15</ele>
        <time>2021-08-07T18:13:10Z</time>
      </trkpt>
      <trkpt lat="50.31751" lon="3.45015">
        <ele>37.15</ele>
        <time>2021-08-07T18:13:11Z</time>
      </trkpt>
      <trkpt lat="50.31752" lon="3.45021">
        <ele>37.15</ele>
        <time>2021-08-07T18:13:12Z</time>
      </trkpt>
      <trkpt lat="50.31752" lon="3.45029">
        <ele>37.15</ele>
        <time>2021-08-07T18:13:13Z</time>
      </trkpt>
      <trkpt lat="50.31754" lon="3.45053">
        <ele>35.71</ele>
        <time>2021-08-07T18:13:16Z</time>
      </trkpt>
      <trkpt lat="50.31755" lon="3.4507">
        <ele>35.71</ele>
        <time>2021-08-07T18:13:18Z</time>
      </trkpt>
      <trkpt lat="50.3176" lon="3.45104">
        <ele>35.23</ele>
        <time>2021-08-07T18:13:22Z</time>
      </trkpt>
      <trkpt lat="50.3177" lon="3.4516">
        <ele>33.78</ele>
        <time>2021-08-07T18:13:28Z</time>
      </trkpt>
      <trkpt lat="50.31773" lon="3.45178">
        <ele>33.78</ele>
        <time>2021-08-07T18:13:30Z</time>
      </trkpt>
      <trkpt lat="50.31773" lon="3.45188">
        <ele>33.78</ele>
        <time>2021-08-07T18:13:31Z</time>
      </trkpt>
      <trkpt lat="50.31771" lon="3.45197">
        <ele>33.78</ele>
        <time>2021-08-07T18:13:32Z</time>
      </trkpt>
      <trkpt lat="50.31769" lon="3.45206">
        <ele>33.3</ele>
        <time>2021-08-07T18:13:33Z</time>
      </trkpt>
      <trkpt lat="50.31765" lon="3.45215">
        <ele>33.3</ele>
        <time>2021-08-07T18:13:34Z</time>
      </trkpt>
      <trkpt lat="50.3176" lon="3.45223">
        <ele>32.82</ele>
        <time>2021-08-07T18:13:35Z</time>
      </trkpt>
      <trkpt lat="50.31755" lon="3.4523">
        <ele>32.82</ele>
        <time>2021-08-07T18:13:36Z</time>
      </trkpt>
      <trkpt lat="50.3171" lon="3.4529">
        <ele>31.38</ele>
        <time>2021-08-07T18:13:45Z</time>
      </trkpt>
      <trkpt lat="50.31661" lon="3.45353">
        <ele>30.42</ele>
        <time>2021-08-07T18:13:55Z</time>
      </trkpt>
      <trkpt lat="50.31612" lon="3.45417">
        <ele>29.46</ele>
        <time>2021-08-07T18:14:05Z</time>
      </trkpt>
      <trkpt lat="50.31564" lon="3.45474">
        <ele>29.46</ele>
        <time>2021-08-07T18:14:15Z</time>
      </trkpt>
      <trkpt lat="50.31532" lon="3.45509">
        <ele>30.9</ele>
        <time>2021-08-07T18:14:23Z</time>
      </trkpt>
      <trkpt lat="50.31504" lon="3.45529">
        <ele>31.38</ele>
        <time>2021-08-07T18:14:31Z</time>
      </trkpt>
      <trkpt lat="50.31494" lon="3.45532">
        <ele>31.86</ele>
        <time>2021-08-07T18:14:34Z</time>
      </trkpt>
      <trkpt lat="50.31491" lon="3.45528">
        <ele>31.86</ele>
        <time>2021-08-07T18:14:35Z</time>
      </trkpt>
      <trkpt lat="50.31489" lon="3.45523">
        <ele>31.86</ele>
        <time>2021-08-07T18:14:36Z</time>
      </trkpt>
      <trkpt lat="50.31488" lon="3.45517">
        <ele>31.86</ele>
        <time>2021-08-07T18:14:37Z</time>
      </trkpt>
      <trkpt lat="50.31486" lon="3.45509">
        <ele>31.86</ele>
        <time>2021-08-07T18:14:38Z</time>
      </trkpt>
      <trkpt lat="50.31484" lon="3.45502">
        <ele>31.86</ele>
        <time>2021-08-07T18:14:39Z</time>
      </trkpt>
      <trkpt lat="50.31476" lon="3.45473">
        <ele>30.42</ele>
        <time>2021-08-07T18:14:43Z</time>
      </trkpt>
      <trkpt lat="50.31446" lon="3.45391">
        <ele>28.98</ele>
        <time>2021-08-07T18:14:54Z</time>
      </trkpt>
      <trkpt lat="50.31422" lon="3.45322">
        <ele>28.98</ele>
        <time>2021-08-07T18:15:04Z</time>
      </trkpt>
      <trkpt lat="50.31415" lon="3.45304">
        <ele>30.42</ele>
        <time>2021-08-07T18:15:07Z</time>
      </trkpt>
      <trkpt lat="50.31397" lon="3.45256">
        <ele>31.86</ele>
        <time>2021-08-07T18:15:15Z</time>
      </trkpt>
      <trkpt lat="50.31394" lon="3.45251">
        <ele>31.86</ele>
        <time>2021-08-07T18:15:16Z</time>
      </trkpt>
      <trkpt lat="50.3139" lon="3.45247">
        <ele>31.86</ele>
        <time>2021-08-07T18:15:17Z</time>
      </trkpt>
      <trkpt lat="50.31386" lon="3.45243">
        <ele>31.86</ele>
        <time>2021-08-07T18:15:18Z</time>
      </trkpt>
      <trkpt lat="50.31382" lon="3.45239">
        <ele>31.86</ele>
        <time>2021-08-07T18:15:19Z</time>
      </trkpt>
      <trkpt lat="50.31341" lon="3.45211">
        <ele>32.82</ele>
        <time>2021-08-07T18:15:29Z</time>
      </trkpt>
      <trkpt lat="50.31283" lon="3.45173">
        <ele>33.78</ele>
        <time>2021-08-07T18:15:42Z</time>
      </trkpt>
      <trkpt lat="50.31265" lon="3.45158">
        <ele>33.78</ele>
        <time>2021-08-07T18:15:46Z</time>
      </trkpt>
      <trkpt lat="50.31261" lon="3.45152">
        <ele>33.78</ele>
        <time>2021-08-07T18:15:47Z</time>
      </trkpt>
      <trkpt lat="50.31257" lon="3.45146">
        <ele>33.78</ele>
        <time>2021-08-07T18:15:48Z</time>
      </trkpt>
      <trkpt lat="50.31223" lon="3.45079">
        <ele>30.9</ele>
        <time>2021-08-07T18:15:57Z</time>
      </trkpt>
      <trkpt lat="50.31195" lon="3.45026">
        <ele>29.46</ele>
        <time>2021-08-07T18:16:04Z</time>
      </trkpt>
      <trkpt lat="50.31157" lon="3.44958">
        <ele>29.46</ele>
        <time>2021-08-07T18:16:14Z</time>
      </trkpt>
      <trkpt lat="50.31115" lon="3.44877">
        <ele>29.46</ele>
        <time>2021-08-07T18:16:26Z</time>
      </trkpt>
      <trkpt lat="50.31107" lon="3.44866">
        <ele>28.98</ele>
        <time>2021-08-07T18:16:28Z</time>
      </trkpt>
      <trkpt lat="50.31102" lon="3.4486">
        <ele>28.98</ele>
        <time>2021-08-07T18:16:29Z</time>
      </trkpt>
      <trkpt lat="50.31098" lon="3.44856">
        <ele>28.98</ele>
        <time>2021-08-07T18:16:30Z</time>
      </trkpt>
      <trkpt lat="50.31093" lon="3.44852">
        <ele>28.98</ele>
        <time>2021-08-07T18:16:31Z</time>
      </trkpt>
      <trkpt lat="50.31088" lon="3.4485">
        <ele>28.98</ele>
        <time>2021-08-07T18:16:32Z</time>
      </trkpt>
      <trkpt lat="50.31083" lon="3.44847">
        <ele>28.98</ele>
        <time>2021-08-07T18:16:33Z</time>
      </trkpt>
      <trkpt lat="50.31078" lon="3.44845">
        <ele>28.98</ele>
        <time>2021-08-07T18:16:34Z</time>
      </trkpt>
      <trkpt lat="50.31067" lon="3.44842">
        <ele>28.98</ele>
        <time>2021-08-07T18:16:36Z</time>
      </trkpt>
      <trkpt lat="50.31062" lon="3.4484">
        <ele>28.98</ele>
        <time>2021-08-07T18:16:37Z</time>
      </trkpt>
      <trkpt lat="50.31013" lon="3.44824">
        <ele>28.98</ele>
        <time>2021-08-07T18:16:47Z</time>
      </trkpt>
      <trkpt lat="50.30958" lon="3.44807">
        <ele>28.98</ele>
        <time>2021-08-07T18:16:58Z</time>
      </trkpt>
      <trkpt lat="50.30919" lon="3.44794">
        <ele>28.98</ele>
        <time>2021-08-07T18:17:06Z</time>
      </trkpt>
      <trkpt lat="50.30876" lon="3.44781">
        <ele>29.94</ele>
        <time>2021-08-07T18:17:15Z</time>
      </trkpt>
      <trkpt lat="50.3084" lon="3.44769">
        <ele>30.9</ele>
        <time>2021-08-07T18:17:24Z</time>
      </trkpt>
      <trkpt lat="50.30799" lon="3.44757">
        <ele>32.34</ele>
        <time>2021-08-07T18:17:35Z</time>
      </trkpt>
      <trkpt lat="50.30756" lon="3.44743">
        <ele>33.78</ele>
        <time>2021-08-07T18:17:46Z</time>
      </trkpt>
      <trkpt lat="50.30715" lon="3.4473">
        <ele>35.23</ele>
        <time>2021-08-07T18:17:57Z</time>
      </trkpt>
      <trkpt lat="50.30702" lon="3.44734">
        <ele>35.23</ele>
        <time>2021-08-07T18:18:01Z</time>
      </trkpt>
      <trkpt lat="50.30701" lon="3.44739">
        <ele>35.23</ele>
        <time>2021-08-07T18:18:02Z</time>
      </trkpt>
      <trkpt lat="50.307" lon="3.44744">
        <ele>35.23</ele>
        <time>2021-08-07T18:18:03Z</time>
      </trkpt>
      <trkpt lat="50.30695" lon="3.44794">
        <ele>35.71</ele>
        <time>2021-08-07T18:18:11Z</time>
      </trkpt>
      <trkpt lat="50.30692" lon="3.44814">
        <ele>35.71</ele>
        <time>2021-08-07T18:18:14Z</time>
      </trkpt>
      <trkpt lat="50.30691" lon="3.44821">
        <ele>35.71</ele>
        <time>2021-08-07T18:18:15Z</time>
      </trkpt>
      <trkpt lat="50.30687" lon="3.4486">
        <ele>35.71</ele>
        <time>2021-08-07T18:18:20Z</time>
      </trkpt>
      <trkpt lat="50.30686" lon="3.44868">
        <ele>35.71</ele>
        <time>2021-08-07T18:18:21Z</time>
      </trkpt>
      <trkpt lat="50.30678" lon="3.44905">
        <ele>34.26</ele>
        <time>2021-08-07T18:18:27Z</time>
      </trkpt>
      <trkpt lat="50.30678" lon="3.44907">
        <ele>34.26</ele>
        <time>2021-08-07T18:18:28Z</time>
      </trkpt>
      <trkpt lat="50.30679" lon="3.44904">
        <ele>34.26</ele>
        <time>2021-08-07T18:18:32Z</time>
      </trkpt>
      <trkpt lat="50.3068" lon="3.44903">
        <ele>34.26</ele>
        <time>2021-08-07T18:18:33Z</time>
      </trkpt>
      <trkpt lat="50.3068" lon="3.44901">
        <ele>34.26</ele>
        <time>2021-08-07T18:18:34Z</time>
      </trkpt>
      <trkpt lat="50.3068" lon="3.44898">
        <ele>34.26</ele>
        <time>2021-08-07T18:18:35Z</time>
      </trkpt>
      <trkpt lat="50.30679" lon="3.44896">
        <ele>34.26</ele>
        <time>2021-08-07T18:18:36Z</time>
      </trkpt>
      <trkpt lat="50.30679" lon="3.44895">
        <ele>34.26</ele>
        <time>2021-08-07T18:18:37Z</time>
      </trkpt>
      <trkpt lat="50.30677" lon="3.44895">
        <ele>34.26</ele>
        <time>2021-08-07T18:18:38Z</time>
      </trkpt>
      <trkpt lat="50.3067" lon="3.44891">
        <ele>34.26</ele>
        <time>2021-08-07T18:18:42Z</time>
      </trkpt>
      <trkpt lat="50.30645" lon="3.44878">
        <ele>35.71</ele>
        <time>2021-08-07T18:18:50Z</time>
      </trkpt>
      <trkpt lat="50.30615" lon="3.44862">
        <ele>36.19</ele>
        <time>2021-08-07T18:18:59Z</time>
      </trkpt>
      <trkpt lat="50.30603" lon="3.44857">
        <ele>36.67</ele>
        <time>2021-08-07T18:19:02Z</time>
      </trkpt>
      <trkpt lat="50.30599" lon="3.44855">
        <ele>37.15</ele>
        <time>2021-08-07T18:19:03Z</time>
      </trkpt>
      <trkpt lat="50.30574" lon="3.4484">
        <ele>38.11</ele>
        <time>2021-08-07T18:19:11Z</time>
      </trkpt>
      <trkpt lat="50.30545" lon="3.44818">
        <ele>38.59</ele>
        <time>2021-08-07T18:19:20Z</time>
      </trkpt>
      <trkpt lat="50.30522" lon="3.44808">
        <ele>39.55</ele>
        <time>2021-08-07T18:19:27Z</time>
      </trkpt>
      <trkpt lat="50.30519" lon="3.4481">
        <ele>39.55</ele>
        <time>2021-08-07T18:19:28Z</time>
      </trkpt>
      <trkpt lat="50.30518" lon="3.44815">
        <ele>39.55</ele>
        <time>2021-08-07T18:19:29Z</time>
      </trkpt>
      <trkpt lat="50.30515" lon="3.44833">
        <ele>39.55</ele>
        <time>2021-08-07T18:19:32Z</time>
      </trkpt>
      <trkpt lat="50.30511" lon="3.44867">
        <ele>39.55</ele>
        <time>2021-08-07T18:19:37Z</time>
      </trkpt>
      <trkpt lat="50.3051" lon="3.44873">
        <ele>39.55</ele>
        <time>2021-08-07T18:19:38Z</time>
      </trkpt>
      <trkpt lat="50.30508" lon="3.4488">
        <ele>39.55</ele>
        <time>2021-08-07T18:19:39Z</time>
      </trkpt>
      <trkpt lat="50.30503" lon="3.44892">
        <ele>38.11</ele>
        <time>2021-08-07T18:19:41Z</time>
      </trkpt>
      <trkpt lat="50.305" lon="3.44897">
        <ele>38.11</ele>
        <time>2021-08-07T18:19:42Z</time>
      </trkpt>
      <trkpt lat="50.3048" lon="3.44936">
        <ele>35.23</ele>
        <time>2021-08-07T18:19:49Z</time>
      </trkpt>
      <trkpt lat="50.30473" lon="3.44944">
        <ele>34.26</ele>
        <time>2021-08-07T18:19:51Z</time>
      </trkpt>
      <trkpt lat="50.3047" lon="3.44946">
        <ele>33.78</ele>
        <time>2021-08-07T18:19:52Z</time>
      </trkpt>
      <trkpt lat="50.30465" lon="3.44948">
        <ele>33.78</ele>
        <time>2021-08-07T18:19:53Z</time>
      </trkpt>
      <trkpt lat="50.30461" lon="3.44951">
        <ele>33.78</ele>
        <time>2021-08-07T18:19:54Z</time>
      </trkpt>
      <trkpt lat="50.30457" lon="3.44955">
        <ele>33.78</ele>
        <time>2021-08-07T18:19:55Z</time>
      </trkpt>
      <trkpt lat="50.30451" lon="3.4497">
        <ele>33.78</ele>
        <time>2021-08-07T18:19:59Z</time>
      </trkpt>
      <trkpt lat="50.30452" lon="3.44975">
        <ele>33.3</ele>
        <time>2021-08-07T18:20:00Z</time>
      </trkpt>
      <trkpt lat="50.30455" lon="3.44981">
        <ele>33.3</ele>
        <time>2021-08-07T18:20:01Z</time>
      </trkpt>
      <trkpt lat="50.30457" lon="3.44987">
        <ele>32.82</ele>
        <time>2021-08-07T18:20:02Z</time>
      </trkpt>
      <trkpt lat="50.30457" lon="3.44994">
        <ele>32.82</ele>
        <time>2021-08-07T18:20:03Z</time>
      </trkpt>
      <trkpt lat="50.30457" lon="3.45002">
        <ele>32.82</ele>
        <time>2021-08-07T18:20:04Z</time>
      </trkpt>
      <trkpt lat="50.30456" lon="3.45009">
        <ele>32.82</ele>
        <time>2021-08-07T18:20:05Z</time>
      </trkpt>
      <trkpt lat="50.30454" lon="3.45035">
        <ele>31.86</ele>
        <time>2021-08-07T18:20:08Z</time>
      </trkpt>
      <trkpt lat="50.30447" lon="3.45127">
        <ele>31.38</ele>
        <time>2021-08-07T18:20:18Z</time>
      </trkpt>
      <trkpt lat="50.30441" lon="3.45211">
        <ele>30.42</ele>
        <time>2021-08-07T18:20:27Z</time>
      </trkpt>
      <trkpt lat="50.30441" lon="3.45242">
        <ele>29.94</ele>
        <time>2021-08-07T18:20:30Z</time>
      </trkpt>
      <trkpt lat="50.30442" lon="3.45252">
        <ele>29.94</ele>
        <time>2021-08-07T18:20:31Z</time>
      </trkpt>
      <trkpt lat="50.30444" lon="3.45262">
        <ele>29.94</ele>
        <time>2021-08-07T18:20:32Z</time>
      </trkpt>
      <trkpt lat="50.30447" lon="3.45271">
        <ele>28.98</ele>
        <time>2021-08-07T18:20:33Z</time>
      </trkpt>
      <trkpt lat="50.30449" lon="3.45279">
        <ele>28.98</ele>
        <time>2021-08-07T18:20:34Z</time>
      </trkpt>
      <trkpt lat="50.30455" lon="3.45304">
        <ele>28.98</ele>
        <time>2021-08-07T18:20:37Z</time>
      </trkpt>
      <trkpt lat="50.30455" lon="3.45312">
        <ele>28.98</ele>
        <time>2021-08-07T18:20:38Z</time>
      </trkpt>
      <trkpt lat="50.30454" lon="3.4532">
        <ele>28.98</ele>
        <time>2021-08-07T18:20:39Z</time>
      </trkpt>
      <trkpt lat="50.30453" lon="3.45328">
        <ele>28.98</ele>
        <time>2021-08-07T18:20:40Z</time>
      </trkpt>
      <trkpt lat="50.30452" lon="3.45335">
        <ele>28.98</ele>
        <time>2021-08-07T18:20:41Z</time>
      </trkpt>
      <trkpt lat="50.3045" lon="3.4535">
        <ele>28.98</ele>
        <time>2021-08-07T18:20:43Z</time>
      </trkpt>
      <trkpt lat="50.30447" lon="3.45357">
        <ele>28.98</ele>
        <time>2021-08-07T18:20:44Z</time>
      </trkpt>
      <trkpt lat="50.30444" lon="3.45361">
        <ele>28.98</ele>
        <time>2021-08-07T18:20:45Z</time>
      </trkpt>
      <trkpt lat="50.30439" lon="3.45363">
        <ele>28.98</ele>
        <time>2021-08-07T18:20:46Z</time>
      </trkpt>
      <trkpt lat="50.30435" lon="3.45362">
        <ele>28.98</ele>
        <time>2021-08-07T18:20:47Z</time>
      </trkpt>
      <trkpt lat="50.30431" lon="3.4536">
        <ele>28.98</ele>
        <time>2021-08-07T18:20:48Z</time>
      </trkpt>
      <trkpt lat="50.30426" lon="3.45358">
        <ele>28.98</ele>
        <time>2021-08-07T18:20:49Z</time>
      </trkpt>
      <trkpt lat="50.30384" lon="3.4534">
        <ele>28.98</ele>
        <time>2021-08-07T18:20:57Z</time>
      </trkpt>
      <trkpt lat="50.30342" lon="3.45323">
        <ele>28.98</ele>
        <time>2021-08-07T18:21:05Z</time>
      </trkpt>
      <trkpt lat="50.30313" lon="3.45308">
        <ele>28.98</ele>
        <time>2021-08-07T18:21:11Z</time>
      </trkpt>
      <trkpt lat="50.30309" lon="3.45303">
        <ele>28.98</ele>
        <time>2021-08-07T18:21:12Z</time>
      </trkpt>
      <trkpt lat="50.30304" lon="3.45298">
        <ele>28.98</ele>
        <time>2021-08-07T18:21:13Z</time>
      </trkpt>
      <trkpt lat="50.30268" lon="3.45254">
        <ele>28.98</ele>
        <time>2021-08-07T18:21:22Z</time>
      </trkpt>
      <trkpt lat="50.30227" lon="3.45228">
        <ele>28.98</ele>
        <time>2021-08-07T18:21:31Z</time>
      </trkpt>
      <trkpt lat="50.30171" lon="3.45197">
        <ele>28.98</ele>
        <time>2021-08-07T18:21:43Z</time>
      </trkpt>
      <trkpt lat="50.30114" lon="3.45171">
        <ele>28.98</ele>
        <time>2021-08-07T18:21:55Z</time>
      </trkpt>
      <trkpt lat="50.3005" lon="3.45157">
        <ele>28.98</ele>
        <time>2021-08-07T18:22:08Z</time>
      </trkpt>
      <trkpt lat="50.30003" lon="3.45152">
        <ele>30.9</ele>
        <time>2021-08-07T18:22:18Z</time>
      </trkpt>
      <trkpt lat="50.2998" lon="3.45157">
        <ele>31.86</ele>
        <time>2021-08-07T18:22:25Z</time>
      </trkpt>
      <trkpt lat="50.29976" lon="3.4516">
        <ele>31.86</ele>
        <time>2021-08-07T18:22:26Z</time>
      </trkpt>
      <trkpt lat="50.29973" lon="3.45164">
        <ele>31.86</ele>
        <time>2021-08-07T18:22:27Z</time>
      </trkpt>
      <trkpt lat="50.29971" lon="3.4517">
        <ele>31.86</ele>
        <time>2021-08-07T18:22:28Z</time>
      </trkpt>
      <trkpt lat="50.2997" lon="3.45177">
        <ele>31.86</ele>
        <time>2021-08-07T18:22:29Z</time>
      </trkpt>
      <trkpt lat="50.2997" lon="3.45185">
        <ele>31.86</ele>
        <time>2021-08-07T18:22:30Z</time>
      </trkpt>
      <trkpt lat="50.2997" lon="3.45193">
        <ele>31.86</ele>
        <time>2021-08-07T18:22:31Z</time>
      </trkpt>
      <trkpt lat="50.2997" lon="3.45202">
        <ele>30.42</ele>
        <time>2021-08-07T18:22:32Z</time>
      </trkpt>
      <trkpt lat="50.2997" lon="3.4521">
        <ele>30.42</ele>
        <time>2021-08-07T18:22:33Z</time>
      </trkpt>
      <trkpt lat="50.29968" lon="3.45219">
        <ele>29.94</ele>
        <time>2021-08-07T18:22:34Z</time>
      </trkpt>
      <trkpt lat="50.29965" lon="3.45227">
        <ele>29.94</ele>
        <time>2021-08-07T18:22:35Z</time>
      </trkpt>
      <trkpt lat="50.29962" lon="3.45234">
        <ele>29.94</ele>
        <time>2021-08-07T18:22:36Z</time>
      </trkpt>
      <trkpt lat="50.29957" lon="3.4524">
        <ele>29.94</ele>
        <time>2021-08-07T18:22:37Z</time>
      </trkpt>
      <trkpt lat="50.29952" lon="3.45244">
        <ele>29.94</ele>
        <time>2021-08-07T18:22:38Z</time>
      </trkpt>
      <trkpt lat="50.29947" lon="3.45247">
        <ele>29.94</ele>
        <time>2021-08-07T18:22:39Z</time>
      </trkpt>
      <trkpt lat="50.29942" lon="3.45248">
        <ele>29.94</ele>
        <time>2021-08-07T18:22:40Z</time>
      </trkpt>
      <trkpt lat="50.29936" lon="3.45249">
        <ele>29.94</ele>
        <time>2021-08-07T18:22:41Z</time>
      </trkpt>
      <trkpt lat="50.29882" lon="3.45252">
        <ele>29.94</ele>
        <time>2021-08-07T18:22:51Z</time>
      </trkpt>
      <trkpt lat="50.2983" lon="3.45247">
        <ele>29.94</ele>
        <time>2021-08-07T18:23:01Z</time>
      </trkpt>
      <trkpt lat="50.29789" lon="3.45238">
        <ele>29.94</ele>
        <time>2021-08-07T18:23:09Z</time>
      </trkpt>
      <trkpt lat="50.29785" lon="3.45236">
        <ele>29.46</ele>
        <time>2021-08-07T18:23:10Z</time>
      </trkpt>
      <trkpt lat="50.29759" lon="3.4523">
        <ele>29.46</ele>
        <time>2021-08-07T18:23:15Z</time>
      </trkpt>
      <trkpt lat="50.29754" lon="3.45229">
        <ele>29.46</ele>
        <time>2021-08-07T18:23:16Z</time>
      </trkpt>
      <trkpt lat="50.29705" lon="3.45223">
        <ele>29.46</ele>
        <time>2021-08-07T18:23:25Z</time>
      </trkpt>
      <trkpt lat="50.29641" lon="3.4523">
        <ele>29.46</ele>
        <time>2021-08-07T18:23:37Z</time>
      </trkpt>
      <trkpt lat="50.29582" lon="3.45239">
        <ele>29.46</ele>
        <time>2021-08-07T18:23:48Z</time>
      </trkpt>
      <trkpt lat="50.29524" lon="3.45242">
        <ele>29.46</ele>
        <time>2021-08-07T18:23:59Z</time>
      </trkpt>
      <trkpt lat="50.29478" lon="3.45245">
        <ele>30.9</ele>
        <time>2021-08-07T18:24:08Z</time>
      </trkpt>
      <trkpt lat="50.29432" lon="3.45254">
        <ele>30.9</ele>
        <time>2021-08-07T18:24:17Z</time>
      </trkpt>
      <trkpt lat="50.29378" lon="3.45264">
        <ele>31.38</ele>
        <time>2021-08-07T18:24:28Z</time>
      </trkpt>
      <trkpt lat="50.29326" lon="3.45276">
        <ele>32.34</ele>
        <time>2021-08-07T18:24:38Z</time>
      </trkpt>
      <trkpt lat="50.29256" lon="3.45298">
        <ele>32.34</ele>
        <time>2021-08-07T18:24:51Z</time>
      </trkpt>
      <trkpt lat="50.29203" lon="3.45316">
        <ele>32.34</ele>
        <time>2021-08-07T18:25:01Z</time>
      </trkpt>
      <trkpt lat="50.29156" lon="3.45332">
        <ele>32.34</ele>
        <time>2021-08-07T18:25:10Z</time>
      </trkpt>
      <trkpt lat="50.29089" lon="3.45356">
        <ele>32.34</ele>
        <time>2021-08-07T18:25:23Z</time>
      </trkpt>
      <trkpt lat="50.29051" lon="3.45381">
        <ele>32.34</ele>
        <time>2021-08-07T18:25:31Z</time>
      </trkpt>
      <trkpt lat="50.29013" lon="3.45408">
        <ele>33.3</ele>
        <time>2021-08-07T18:25:39Z</time>
      </trkpt>
      <trkpt lat="50.28964" lon="3.45448">
        <ele>32.82</ele>
        <time>2021-08-07T18:25:50Z</time>
      </trkpt>
      <trkpt lat="50.28932" lon="3.45476">
        <ele>32.82</ele>
        <time>2021-08-07T18:25:58Z</time>
      </trkpt>
      <trkpt lat="50.28903" lon="3.45498">
        <ele>32.82</ele>
        <time>2021-08-07T18:26:05Z</time>
      </trkpt>
      <trkpt lat="50.28864" lon="3.45518">
        <ele>33.3</ele>
        <time>2021-08-07T18:26:14Z</time>
      </trkpt>
      <trkpt lat="50.28851" lon="3.45528">
        <ele>33.78</ele>
        <time>2021-08-07T18:26:18Z</time>
      </trkpt>
      <trkpt lat="50.2885" lon="3.45533">
        <ele>34.26</ele>
        <time>2021-08-07T18:26:19Z</time>
      </trkpt>
      <trkpt lat="50.28851" lon="3.45535">
        <ele>34.26</ele>
        <time>2021-08-07T18:26:20Z</time>
      </trkpt>
      <trkpt lat="50.28853" lon="3.45538">
        <ele>34.26</ele>
        <time>2021-08-07T18:26:21Z</time>
      </trkpt>
      <trkpt lat="50.28855" lon="3.45539">
        <ele>34.74</ele>
        <time>2021-08-07T18:26:22Z</time>
      </trkpt>
      <trkpt lat="50.28858" lon="3.45539">
        <ele>34.74</ele>
        <time>2021-08-07T18:26:23Z</time>
      </trkpt>
      <trkpt lat="50.28861" lon="3.45539">
        <ele>34.74</ele>
        <time>2021-08-07T18:26:24Z</time>
      </trkpt>
      <trkpt lat="50.2888" lon="3.45542">
        <ele>35.23</ele>
        <time>2021-08-07T18:26:30Z</time>
      </trkpt>
      <trkpt lat="50.28914" lon="3.45548">
        <ele>36.19</ele>
        <time>2021-08-07T18:26:40Z</time>
      </trkpt>
      <trkpt lat="50.28948" lon="3.45563">
        <ele>37.63</ele>
        <time>2021-08-07T18:26:50Z</time>
      </trkpt>
      <trkpt lat="50.28963" lon="3.45574">
        <ele>38.11</ele>
        <time>2021-08-07T18:26:55Z</time>
      </trkpt>
      <trkpt lat="50.28985" lon="3.45594">
        <ele>39.55</ele>
        <time>2021-08-07T18:27:03Z</time>
      </trkpt>
      <trkpt lat="50.29003" lon="3.45612">
        <ele>40.99</ele>
        <time>2021-08-07T18:27:10Z</time>
      </trkpt>
      <trkpt lat="50.29028" lon="3.45633">
        <ele>41.95</ele>
        <time>2021-08-07T18:27:19Z</time>
      </trkpt>
      <trkpt lat="50.29047" lon="3.45651">
        <ele>43.4</ele>
        <time>2021-08-07T18:27:26Z</time>
      </trkpt>
      <trkpt lat="50.2907" lon="3.45672">
        <ele>44.36</ele>
        <time>2021-08-07T18:27:34Z</time>
      </trkpt>
      <trkpt lat="50.291" lon="3.457">
        <ele>45.8</ele>
        <time>2021-08-07T18:27:44Z</time>
      </trkpt>
      <trkpt lat="50.29128" lon="3.45725">
        <ele>46.28</ele>
        <time>2021-08-07T18:27:53Z</time>
      </trkpt>
      <trkpt lat="50.29157" lon="3.45751">
        <ele>47.72</ele>
        <time>2021-08-07T18:28:02Z</time>
      </trkpt>
      <trkpt lat="50.29182" lon="3.45775">
        <ele>47.72</ele>
        <time>2021-08-07T18:28:10Z</time>
      </trkpt>
      <trkpt lat="50.29201" lon="3.4579">
        <ele>48.68</ele>
        <time>2021-08-07T18:28:16Z</time>
      </trkpt>
      <trkpt lat="50.29236" lon="3.4582">
        <ele>48.68</ele>
        <time>2021-08-07T18:28:27Z</time>
      </trkpt>
      <trkpt lat="50.29265" lon="3.4585">
        <ele>49.16</ele>
        <time>2021-08-07T18:28:35Z</time>
      </trkpt>
      <trkpt lat="50.29268" lon="3.45854">
        <ele>49.16</ele>
        <time>2021-08-07T18:28:36Z</time>
      </trkpt>
      <trkpt lat="50.29272" lon="3.45857">
        <ele>49.16</ele>
        <time>2021-08-07T18:28:37Z</time>
      </trkpt>
      <trkpt lat="50.29275" lon="3.4586">
        <ele>49.16</ele>
        <time>2021-08-07T18:28:38Z</time>
      </trkpt>
      <trkpt lat="50.29278" lon="3.45864">
        <ele>49.16</ele>
        <time>2021-08-07T18:28:39Z</time>
      </trkpt>
      <trkpt lat="50.29281" lon="3.45869">
        <ele>49.16</ele>
        <time>2021-08-07T18:28:40Z</time>
      </trkpt>
      <trkpt lat="50.29284" lon="3.45873">
        <ele>49.16</ele>
        <time>2021-08-07T18:28:41Z</time>
      </trkpt>
      <trkpt lat="50.29291" lon="3.45882">
        <ele>49.16</ele>
        <time>2021-08-07T18:28:43Z</time>
      </trkpt>
      <trkpt lat="50.29319" lon="3.45937">
        <ele>49.16</ele>
        <time>2021-08-07T18:28:53Z</time>
      </trkpt>
      <trkpt lat="50.29322" lon="3.45943">
        <ele>49.16</ele>
        <time>2021-08-07T18:28:54Z</time>
      </trkpt>
      <trkpt lat="50.29347" lon="3.45995">
        <ele>49.65</ele>
        <time>2021-08-07T18:29:03Z</time>
      </trkpt>
      <trkpt lat="50.29356" lon="3.46012">
        <ele>49.65</ele>
        <time>2021-08-07T18:29:06Z</time>
      </trkpt>
      <trkpt lat="50.29359" lon="3.46017">
        <ele>50.13</ele>
        <time>2021-08-07T18:29:07Z</time>
      </trkpt>
      <trkpt lat="50.29361" lon="3.46023">
        <ele>50.13</ele>
        <time>2021-08-07T18:29:08Z</time>
      </trkpt>
      <trkpt lat="50.2937" lon="3.46039">
        <ele>50.13</ele>
        <time>2021-08-07T18:29:11Z</time>
      </trkpt>
      <trkpt lat="50.29393" lon="3.46065">
        <ele>50.13</ele>
        <time>2021-08-07T18:29:17Z</time>
      </trkpt>
      <trkpt lat="50.29423" lon="3.46094">
        <ele>50.61</ele>
        <time>2021-08-07T18:29:25Z</time>
      </trkpt>
      <trkpt lat="50.29427" lon="3.46098">
        <ele>50.61</ele>
        <time>2021-08-07T18:29:26Z</time>
      </trkpt>
      <trkpt lat="50.29457" lon="3.4613">
        <ele>51.09</ele>
        <time>2021-08-07T18:29:35Z</time>
      </trkpt>
      <trkpt lat="50.29486" lon="3.46161">
        <ele>51.57</ele>
        <time>2021-08-07T18:29:43Z</time>
      </trkpt>
      <trkpt lat="50.29492" lon="3.46169">
        <ele>52.05</ele>
        <time>2021-08-07T18:29:45Z</time>
      </trkpt>
      <trkpt lat="50.29493" lon="3.46173">
        <ele>52.05</ele>
        <time>2021-08-07T18:29:46Z</time>
      </trkpt>
      <trkpt lat="50.29492" lon="3.46176">
        <ele>52.05</ele>
        <time>2021-08-07T18:29:47Z</time>
      </trkpt>
      <trkpt lat="50.29491" lon="3.46179">
        <ele>52.05</ele>
        <time>2021-08-07T18:29:48Z</time>
      </trkpt>
      <trkpt lat="50.2949" lon="3.46182">
        <ele>52.05</ele>
        <time>2021-08-07T18:29:49Z</time>
      </trkpt>
      <trkpt lat="50.29488" lon="3.46184">
        <ele>52.05</ele>
        <time>2021-08-07T18:29:50Z</time>
      </trkpt>
      <trkpt lat="50.29478" lon="3.46203">
        <ele>53.01</ele>
        <time>2021-08-07T18:29:56Z</time>
      </trkpt>
      <trkpt lat="50.29457" lon="3.46243">
        <ele>53.97</ele>
        <time>2021-08-07T18:30:05Z</time>
      </trkpt>
      <trkpt lat="50.29441" lon="3.46275">
        <ele>54.45</ele>
        <time>2021-08-07T18:30:12Z</time>
      </trkpt>
      <trkpt lat="50.29415" lon="3.46328">
        <ele>54.45</ele>
        <time>2021-08-07T18:30:23Z</time>
      </trkpt>
      <trkpt lat="50.29396" lon="3.46368">
        <ele>55.41</ele>
        <time>2021-08-07T18:30:31Z</time>
      </trkpt>
      <trkpt lat="50.29363" lon="3.46431">
        <ele>56.37</ele>
        <time>2021-08-07T18:30:44Z</time>
      </trkpt>
      <trkpt lat="50.29345" lon="3.46466">
        <ele>56.37</ele>
        <time>2021-08-07T18:30:51Z</time>
      </trkpt>
      <trkpt lat="50.29319" lon="3.46517">
        <ele>56.86</ele>
        <time>2021-08-07T18:31:01Z</time>
      </trkpt>
      <trkpt lat="50.29292" lon="3.46568">
        <ele>57.34</ele>
        <time>2021-08-07T18:31:11Z</time>
      </trkpt>
      <trkpt lat="50.2927" lon="3.46612">
        <ele>57.82</ele>
        <time>2021-08-07T18:31:20Z</time>
      </trkpt>
      <trkpt lat="50.29243" lon="3.46664">
        <ele>58.78</ele>
        <time>2021-08-07T18:31:30Z</time>
      </trkpt>
      <trkpt lat="50.29212" lon="3.46725">
        <ele>59.74</ele>
        <time>2021-08-07T18:31:42Z</time>
      </trkpt>
      <trkpt lat="50.29183" lon="3.46783">
        <ele>60.7</ele>
        <time>2021-08-07T18:31:54Z</time>
      </trkpt>
      <trkpt lat="50.29161" lon="3.46827">
        <ele>62.14</ele>
        <time>2021-08-07T18:32:04Z</time>
      </trkpt>
      <trkpt lat="50.2914" lon="3.46867">
        <ele>62.14</ele>
        <time>2021-08-07T18:32:13Z</time>
      </trkpt>
      <trkpt lat="50.29108" lon="3.46932">
        <ele>64.55</ele>
        <time>2021-08-07T18:32:27Z</time>
      </trkpt>
      <trkpt lat="50.29084" lon="3.46978">
        <ele>65.03</ele>
        <time>2021-08-07T18:32:37Z</time>
      </trkpt>
      <trkpt lat="50.29061" lon="3.47026">
        <ele>65.51</ele>
        <time>2021-08-07T18:32:47Z</time>
      </trkpt>
      <trkpt lat="50.29039" lon="3.47068">
        <ele>65.99</ele>
        <time>2021-08-07T18:32:56Z</time>
      </trkpt>
      <trkpt lat="50.29031" lon="3.47083">
        <ele>65.99</ele>
        <time>2021-08-07T18:32:59Z</time>
      </trkpt>
      <trkpt lat="50.29025" lon="3.47092">
        <ele>65.99</ele>
        <time>2021-08-07T18:33:01Z</time>
      </trkpt>
      <trkpt lat="50.28993" lon="3.47157">
        <ele>65.99</ele>
        <time>2021-08-07T18:33:13Z</time>
      </trkpt>
      <trkpt lat="50.2897" lon="3.47203">
        <ele>66.95</ele>
        <time>2021-08-07T18:33:22Z</time>
      </trkpt>
      <trkpt lat="50.28943" lon="3.47255">
        <ele>67.43</ele>
        <time>2021-08-07T18:33:32Z</time>
      </trkpt>
      <trkpt lat="50.28927" lon="3.47286">
        <ele>68.39</ele>
        <time>2021-08-07T18:33:38Z</time>
      </trkpt>
      <trkpt lat="50.28924" lon="3.47291">
        <ele>68.39</ele>
        <time>2021-08-07T18:33:39Z</time>
      </trkpt>
      <trkpt lat="50.28896" lon="3.47349">
        <ele>68.39</ele>
        <time>2021-08-07T18:33:50Z</time>
      </trkpt>
      <trkpt lat="50.28865" lon="3.47409">
        <ele>69.83</ele>
        <time>2021-08-07T18:34:02Z</time>
      </trkpt>
      <trkpt lat="50.28851" lon="3.47438">
        <ele>70.31</ele>
        <time>2021-08-07T18:34:08Z</time>
      </trkpt>
      <trkpt lat="50.28848" lon="3.47443">
        <ele>70.31</ele>
        <time>2021-08-07T18:34:09Z</time>
      </trkpt>
      <trkpt lat="50.28825" lon="3.47488">
        <ele>71.27</ele>
        <time>2021-08-07T18:34:18Z</time>
      </trkpt>
      <trkpt lat="50.28797" lon="3.47543">
        <ele>72.24</ele>
        <time>2021-08-07T18:34:29Z</time>
      </trkpt>
      <trkpt lat="50.28771" lon="3.47593">
        <ele>72.24</ele>
        <time>2021-08-07T18:34:39Z</time>
      </trkpt>
      <trkpt lat="50.28769" lon="3.47598">
        <ele>72.72</ele>
        <time>2021-08-07T18:34:40Z</time>
      </trkpt>
      <trkpt lat="50.28753" lon="3.47628">
        <ele>72.72</ele>
        <time>2021-08-07T18:34:46Z</time>
      </trkpt>
      <trkpt lat="50.28752" lon="3.47634">
        <ele>72.72</ele>
        <time>2021-08-07T18:34:47Z</time>
      </trkpt>
      <trkpt lat="50.28752" lon="3.4764">
        <ele>72.72</ele>
        <time>2021-08-07T18:34:48Z</time>
      </trkpt>
      <trkpt lat="50.28754" lon="3.47645">
        <ele>72.72</ele>
        <time>2021-08-07T18:34:49Z</time>
      </trkpt>
      <trkpt lat="50.28757" lon="3.47648">
        <ele>72.72</ele>
        <time>2021-08-07T18:34:50Z</time>
      </trkpt>
      <trkpt lat="50.2876" lon="3.47652">
        <ele>72.72</ele>
        <time>2021-08-07T18:34:51Z</time>
      </trkpt>
      <trkpt lat="50.28775" lon="3.47669">
        <ele>72.72</ele>
        <time>2021-08-07T18:34:55Z</time>
      </trkpt>
      <trkpt lat="50.28778" lon="3.47674">
        <ele>72.72</ele>
        <time>2021-08-07T18:34:56Z</time>
      </trkpt>
      <trkpt lat="50.28825" lon="3.47732">
        <ele>72.72</ele>
        <time>2021-08-07T18:35:07Z</time>
      </trkpt>
      <trkpt lat="50.28868" lon="3.47787">
        <ele>71.27</ele>
        <time>2021-08-07T18:35:17Z</time>
      </trkpt>
      <trkpt lat="50.28915" lon="3.47848">
        <ele>71.27</ele>
        <time>2021-08-07T18:35:28Z</time>
      </trkpt>
      <trkpt lat="50.28932" lon="3.47867">
        <ele>70.79</ele>
        <time>2021-08-07T18:35:32Z</time>
      </trkpt>
      <trkpt lat="50.28937" lon="3.47871">
        <ele>70.79</ele>
        <time>2021-08-07T18:35:33Z</time>
      </trkpt>
      <trkpt lat="50.28942" lon="3.47873">
        <ele>70.79</ele>
        <time>2021-08-07T18:35:34Z</time>
      </trkpt>
      <trkpt lat="50.28948" lon="3.47874">
        <ele>70.79</ele>
        <time>2021-08-07T18:35:35Z</time>
      </trkpt>
      <trkpt lat="50.28953" lon="3.47875">
        <ele>70.79</ele>
        <time>2021-08-07T18:35:36Z</time>
      </trkpt>
      <trkpt lat="50.28959" lon="3.47875">
        <ele>70.31</ele>
        <time>2021-08-07T18:35:37Z</time>
      </trkpt>
      <trkpt lat="50.29017" lon="3.47881">
        <ele>67.91</ele>
        <time>2021-08-07T18:35:46Z</time>
      </trkpt>
      <trkpt lat="50.29083" lon="3.47888">
        <ele>65.03</ele>
        <time>2021-08-07T18:35:55Z</time>
      </trkpt>
      <trkpt lat="50.29113" lon="3.47891">
        <ele>63.58</ele>
        <time>2021-08-07T18:36:00Z</time>
      </trkpt>
      <trkpt lat="50.29117" lon="3.47891">
        <ele>63.58</ele>
        <time>2021-08-07T18:36:01Z</time>
      </trkpt>
      <trkpt lat="50.29132" lon="3.47887">
        <ele>63.58</ele>
        <time>2021-08-07T18:36:05Z</time>
      </trkpt>
      <trkpt lat="50.29159" lon="3.47895">
        <ele>63.58</ele>
        <time>2021-08-07T18:36:13Z</time>
      </trkpt>
      <trkpt lat="50.29164" lon="3.47898">
        <ele>64.07</ele>
        <time>2021-08-07T18:36:16Z</time>
      </trkpt>
      <trkpt lat="50.29166" lon="3.479">
        <ele>64.07</ele>
        <time>2021-08-07T18:36:17Z</time>
      </trkpt>
      <trkpt lat="50.29169" lon="3.479">
        <ele>64.07</ele>
        <time>2021-08-07T18:36:18Z</time>
      </trkpt>
      <trkpt lat="50.29171" lon="3.479">
        <ele>64.07</ele>
        <time>2021-08-07T18:36:19Z</time>
      </trkpt>
      <trkpt lat="50.29174" lon="3.479">
        <ele>64.07</ele>
        <time>2021-08-07T18:36:20Z</time>
      </trkpt>
      <trkpt lat="50.29177" lon="3.479">
        <ele>64.07</ele>
        <time>2021-08-07T18:36:21Z</time>
      </trkpt>
      <trkpt lat="50.29205" lon="3.47902">
        <ele>64.07</ele>
        <time>2021-08-07T18:36:29Z</time>
      </trkpt>
      <trkpt lat="50.29247" lon="3.47906">
        <ele>65.99</ele>
        <time>2021-08-07T18:36:39Z</time>
      </trkpt>
      <trkpt lat="50.29277" lon="3.47913">
        <ele>65.99</ele>
        <time>2021-08-07T18:36:47Z</time>
      </trkpt>
      <trkpt lat="50.29304" lon="3.47913">
        <ele>65.99</ele>
        <time>2021-08-07T18:36:54Z</time>
      </trkpt>
      <trkpt lat="50.29336" lon="3.47917">
        <ele>65.99</ele>
        <time>2021-08-07T18:37:01Z</time>
      </trkpt>
      <trkpt lat="50.29381" lon="3.47921">
        <ele>65.99</ele>
        <time>2021-08-07T18:37:10Z</time>
      </trkpt>
      <trkpt lat="50.29439" lon="3.47928">
        <ele>65.99</ele>
        <time>2021-08-07T18:37:21Z</time>
      </trkpt>
      <trkpt lat="50.29455" lon="3.4793">
        <ele>64.55</ele>
        <time>2021-08-07T18:37:24Z</time>
      </trkpt>
      <trkpt lat="50.29517" lon="3.47936">
        <ele>64.07</ele>
        <time>2021-08-07T18:37:35Z</time>
      </trkpt>
      <trkpt lat="50.29568" lon="3.47942">
        <ele>62.62</ele>
        <time>2021-08-07T18:37:44Z</time>
      </trkpt>
      <trkpt lat="50.29634" lon="3.47943">
        <ele>61.18</ele>
        <time>2021-08-07T18:37:55Z</time>
      </trkpt>
      <trkpt lat="50.29681" lon="3.47941">
        <ele>59.26</ele>
        <time>2021-08-07T18:38:02Z</time>
      </trkpt>
      <trkpt lat="50.29742" lon="3.47938">
        <ele>58.78</ele>
        <time>2021-08-07T18:38:11Z</time>
      </trkpt>
      <trkpt lat="50.298" lon="3.4795">
        <ele>57.82</ele>
        <time>2021-08-07T18:38:20Z</time>
      </trkpt>
      <trkpt lat="50.29865" lon="3.47968">
        <ele>56.86</ele>
        <time>2021-08-07T18:38:30Z</time>
      </trkpt>
      <trkpt lat="50.29916" lon="3.47999">
        <ele>54.93</ele>
        <time>2021-08-07T18:38:38Z</time>
      </trkpt>
      <trkpt lat="50.29976" lon="3.48046">
        <ele>53.49</ele>
        <time>2021-08-07T18:38:47Z</time>
      </trkpt>
      <trkpt lat="50.30032" lon="3.48082">
        <ele>51.09</ele>
        <time>2021-08-07T18:38:55Z</time>
      </trkpt>
      <trkpt lat="50.30085" lon="3.48096">
        <ele>49.16</ele>
        <time>2021-08-07T18:39:02Z</time>
      </trkpt>
      <trkpt lat="50.30149" lon="3.48098">
        <ele>46.28</ele>
        <time>2021-08-07T18:39:10Z</time>
      </trkpt>
      <trkpt lat="50.302" lon="3.48085">
        <ele>43.4</ele>
        <time>2021-08-07T18:39:16Z</time>
      </trkpt>
      <trkpt lat="50.30237" lon="3.48077">
        <ele>41.95</ele>
        <time>2021-08-07T18:39:21Z</time>
      </trkpt>
      <trkpt lat="50.30256" lon="3.48077">
        <ele>41.47</ele>
        <time>2021-08-07T18:39:25Z</time>
      </trkpt>
      <trkpt lat="50.30259" lon="3.48082">
        <ele>40.99</ele>
        <time>2021-08-07T18:39:26Z</time>
      </trkpt>
      <trkpt lat="50.30263" lon="3.48087">
        <ele>40.99</ele>
        <time>2021-08-07T18:39:27Z</time>
      </trkpt>
      <trkpt lat="50.30274" lon="3.48104">
        <ele>40.51</ele>
        <time>2021-08-07T18:39:30Z</time>
      </trkpt>
      <trkpt lat="50.30277" lon="3.4811">
        <ele>40.03</ele>
        <time>2021-08-07T18:39:31Z</time>
      </trkpt>
      <trkpt lat="50.30281" lon="3.48117">
        <ele>40.03</ele>
        <time>2021-08-07T18:39:32Z</time>
      </trkpt>
      <trkpt lat="50.30297" lon="3.48144">
        <ele>39.07</ele>
        <time>2021-08-07T18:39:36Z</time>
      </trkpt>
      <trkpt lat="50.303" lon="3.48151">
        <ele>39.07</ele>
        <time>2021-08-07T18:39:37Z</time>
      </trkpt>
      <trkpt lat="50.30302" lon="3.4816">
        <ele>39.07</ele>
        <time>2021-08-07T18:39:38Z</time>
      </trkpt>
      <trkpt lat="50.30304" lon="3.48169">
        <ele>39.07</ele>
        <time>2021-08-07T18:39:39Z</time>
      </trkpt>
      <trkpt lat="50.30304" lon="3.48176">
        <ele>39.07</ele>
        <time>2021-08-07T18:39:40Z</time>
      </trkpt>
      <trkpt lat="50.30303" lon="3.48184">
        <ele>39.07</ele>
        <time>2021-08-07T18:39:41Z</time>
      </trkpt>
      <trkpt lat="50.303" lon="3.48191">
        <ele>39.07</ele>
        <time>2021-08-07T18:39:42Z</time>
      </trkpt>
      <trkpt lat="50.30298" lon="3.48195">
        <ele>39.07</ele>
        <time>2021-08-07T18:39:43Z</time>
      </trkpt>
      <trkpt lat="50.30296" lon="3.482">
        <ele>39.07</ele>
        <time>2021-08-07T18:39:44Z</time>
      </trkpt>
      <trkpt lat="50.30294" lon="3.48205">
        <ele>39.07</ele>
        <time>2021-08-07T18:39:45Z</time>
      </trkpt>
      <trkpt lat="50.30276" lon="3.48231">
        <ele>40.51</ele>
        <time>2021-08-07T18:39:52Z</time>
      </trkpt>
      <trkpt lat="50.30264" lon="3.48248">
        <ele>40.99</ele>
        <time>2021-08-07T18:39:59Z</time>
      </trkpt>
      <trkpt lat="50.30246" lon="3.48272">
        <ele>41.47</ele>
        <time>2021-08-07T18:40:06Z</time>
      </trkpt>
      <trkpt lat="50.30227" lon="3.48294">
        <ele>41.95</ele>
        <time>2021-08-07T18:40:13Z</time>
      </trkpt>
      <trkpt lat="50.30203" lon="3.48322">
        <ele>43.4</ele>
        <time>2021-08-07T18:40:22Z</time>
      </trkpt>
      <trkpt lat="50.30181" lon="3.48344">
        <ele>44.36</ele>
        <time>2021-08-07T18:40:30Z</time>
      </trkpt>
      <trkpt lat="50.30164" lon="3.48358">
        <ele>45.32</ele>
        <time>2021-08-07T18:40:37Z</time>
      </trkpt>
      <trkpt lat="50.3014" lon="3.4838">
        <ele>45.8</ele>
        <time>2021-08-07T18:40:47Z</time>
      </trkpt>
      <trkpt lat="50.30121" lon="3.48396">
        <ele>46.76</ele>
        <time>2021-08-07T18:40:54Z</time>
      </trkpt>
      <trkpt lat="50.30098" lon="3.48417">
        <ele>48.2</ele>
        <time>2021-08-07T18:41:04Z</time>
      </trkpt>
      <trkpt lat="50.30077" lon="3.48434">
        <ele>49.16</ele>
        <time>2021-08-07T18:41:13Z</time>
      </trkpt>
      <trkpt lat="50.30067" lon="3.48441">
        <ele>50.13</ele>
        <time>2021-08-07T18:41:19Z</time>
      </trkpt>
      <trkpt lat="50.30048" lon="3.48454">
        <ele>51.09</ele>
        <time>2021-08-07T18:41:28Z</time>
      </trkpt>
      <trkpt lat="50.30032" lon="3.48467">
        <ele>52.53</ele>
        <time>2021-08-07T18:41:35Z</time>
      </trkpt>
      <trkpt lat="50.30016" lon="3.48484">
        <ele>53.49</ele>
        <time>2021-08-07T18:41:43Z</time>
      </trkpt>
      <trkpt lat="50.30002" lon="3.48505">
        <ele>54.45</ele>
        <time>2021-08-07T18:41:51Z</time>
      </trkpt>
      <trkpt lat="50.29985" lon="3.48533">
        <ele>55.41</ele>
        <time>2021-08-07T18:42:00Z</time>
      </trkpt>
      <trkpt lat="50.29963" lon="3.4857">
        <ele>56.86</ele>
        <time>2021-08-07T18:42:12Z</time>
      </trkpt>
      <trkpt lat="50.29945" lon="3.486">
        <ele>57.34</ele>
        <time>2021-08-07T18:42:21Z</time>
      </trkpt>
      <trkpt lat="50.29931" lon="3.48625">
        <ele>57.82</ele>
        <time>2021-08-07T18:42:29Z</time>
      </trkpt>
      <trkpt lat="50.29916" lon="3.48628">
        <ele>58.78</ele>
        <time>2021-08-07T18:42:35Z</time>
      </trkpt>
      <trkpt lat="50.29894" lon="3.48632">
        <ele>59.26</ele>
        <time>2021-08-07T18:42:43Z</time>
      </trkpt>
      <trkpt lat="50.29873" lon="3.48636">
        <ele>60.22</ele>
        <time>2021-08-07T18:42:50Z</time>
      </trkpt>
      <trkpt lat="50.29854" lon="3.48638">
        <ele>60.22</ele>
        <time>2021-08-07T18:42:56Z</time>
      </trkpt>
      <trkpt lat="50.2983" lon="3.48641">
        <ele>60.7</ele>
        <time>2021-08-07T18:43:03Z</time>
      </trkpt>
      <trkpt lat="50.29827" lon="3.48642">
        <ele>60.7</ele>
        <time>2021-08-07T18:43:04Z</time>
      </trkpt>
      <trkpt lat="50.29809" lon="3.48646">
        <ele>60.7</ele>
        <time>2021-08-07T18:43:10Z</time>
      </trkpt>
      <trkpt lat="50.29783" lon="3.48658">
        <ele>61.66</ele>
        <time>2021-08-07T18:43:19Z</time>
      </trkpt>
      <trkpt lat="50.29758" lon="3.48665">
        <ele>61.66</ele>
        <time>2021-08-07T18:43:28Z</time>
      </trkpt>
      <trkpt lat="50.29735" lon="3.48673">
        <ele>62.62</ele>
        <time>2021-08-07T18:43:36Z</time>
      </trkpt>
      <trkpt lat="50.2971" lon="3.48681">
        <ele>64.55</ele>
        <time>2021-08-07T18:43:45Z</time>
      </trkpt>
      <trkpt lat="50.2969" lon="3.48688">
        <ele>65.99</ele>
        <time>2021-08-07T18:43:53Z</time>
      </trkpt>
      <trkpt lat="50.29668" lon="3.48696">
        <ele>66.47</ele>
        <time>2021-08-07T18:44:02Z</time>
      </trkpt>
      <trkpt lat="50.29645" lon="3.48705">
        <ele>67.43</ele>
        <time>2021-08-07T18:44:11Z</time>
      </trkpt>
      <trkpt lat="50.29625" lon="3.48713">
        <ele>67.91</ele>
        <time>2021-08-07T18:44:19Z</time>
      </trkpt>
      <trkpt lat="50.29608" lon="3.48721">
        <ele>68.87</ele>
        <time>2021-08-07T18:44:26Z</time>
      </trkpt>
      <trkpt lat="50.29587" lon="3.48731">
        <ele>69.83</ele>
        <time>2021-08-07T18:44:35Z</time>
      </trkpt>
      <trkpt lat="50.2957" lon="3.48739">
        <ele>70.31</ele>
        <time>2021-08-07T18:44:42Z</time>
      </trkpt>
      <trkpt lat="50.29551" lon="3.48748">
        <ele>71.76</ele>
        <time>2021-08-07T18:44:50Z</time>
      </trkpt>
      <trkpt lat="50.29535" lon="3.48756">
        <ele>72.24</ele>
        <time>2021-08-07T18:44:57Z</time>
      </trkpt>
      <trkpt lat="50.2951" lon="3.48768">
        <ele>73.68</ele>
        <time>2021-08-07T18:45:06Z</time>
      </trkpt>
      <trkpt lat="50.29482" lon="3.48783">
        <ele>74.64</ele>
        <time>2021-08-07T18:45:16Z</time>
      </trkpt>
      <trkpt lat="50.29456" lon="3.48796">
        <ele>75.6</ele>
        <time>2021-08-07T18:45:25Z</time>
      </trkpt>
      <trkpt lat="50.29434" lon="3.48807">
        <ele>77.04</ele>
        <time>2021-08-07T18:45:32Z</time>
      </trkpt>
      <trkpt lat="50.29403" lon="3.48823">
        <ele>78</ele>
        <time>2021-08-07T18:45:43Z</time>
      </trkpt>
      <trkpt lat="50.29381" lon="3.48836">
        <ele>78</ele>
        <time>2021-08-07T18:45:50Z</time>
      </trkpt>
      <trkpt lat="50.29348" lon="3.48858">
        <ele>78</ele>
        <time>2021-08-07T18:46:00Z</time>
      </trkpt>
      <trkpt lat="50.29323" lon="3.48876">
        <ele>78.48</ele>
        <time>2021-08-07T18:46:08Z</time>
      </trkpt>
      <trkpt lat="50.29312" lon="3.48883">
        <ele>78.48</ele>
        <time>2021-08-07T18:46:13Z</time>
      </trkpt>
      <trkpt lat="50.29294" lon="3.48893">
        <ele>78.48</ele>
        <time>2021-08-07T18:46:19Z</time>
      </trkpt>
      <trkpt lat="50.29281" lon="3.48898">
        <ele>78.48</ele>
        <time>2021-08-07T18:46:24Z</time>
      </trkpt>
      <trkpt lat="50.29255" lon="3.48907">
        <ele>78.48</ele>
        <time>2021-08-07T18:46:31Z</time>
      </trkpt>
      <trkpt lat="50.29254" lon="3.48911">
        <ele>78.48</ele>
        <time>2021-08-07T18:46:32Z</time>
      </trkpt>
      <trkpt lat="50.29255" lon="3.48914">
        <ele>78.48</ele>
        <time>2021-08-07T18:46:33Z</time>
      </trkpt>
      <trkpt lat="50.29256" lon="3.48918">
        <ele>78.48</ele>
        <time>2021-08-07T18:46:34Z</time>
      </trkpt>
      <trkpt lat="50.29257" lon="3.48921">
        <ele>78.48</ele>
        <time>2021-08-07T18:46:35Z</time>
      </trkpt>
      <trkpt lat="50.29262" lon="3.48929">
        <ele>77.52</ele>
        <time>2021-08-07T18:46:37Z</time>
      </trkpt>
      <trkpt lat="50.29274" lon="3.4895">
        <ele>77.52</ele>
        <time>2021-08-07T18:46:42Z</time>
      </trkpt>
      <trkpt lat="50.29301" lon="3.48991">
        <ele>77.04</ele>
        <time>2021-08-07T18:46:50Z</time>
      </trkpt>
      <trkpt lat="50.29344" lon="3.49048">
        <ele>75.6</ele>
        <time>2021-08-07T18:47:00Z</time>
      </trkpt>
      <trkpt lat="50.29399" lon="3.49108">
        <ele>74.16</ele>
        <time>2021-08-07T18:47:10Z</time>
      </trkpt>
      <trkpt lat="50.29468" lon="3.49174">
        <ele>73.68</ele>
        <time>2021-08-07T18:47:22Z</time>
      </trkpt>
      <trkpt lat="50.29526" lon="3.49228">
        <ele>72.72</ele>
        <time>2021-08-07T18:47:32Z</time>
      </trkpt>
      <trkpt lat="50.29569" lon="3.4927">
        <ele>72.24</ele>
        <time>2021-08-07T18:47:40Z</time>
      </trkpt>
      <trkpt lat="50.29628" lon="3.49327">
        <ele>72.24</ele>
        <time>2021-08-07T18:47:51Z</time>
      </trkpt>
      <trkpt lat="50.29677" lon="3.49374">
        <ele>71.76</ele>
        <time>2021-08-07T18:48:00Z</time>
      </trkpt>
      <trkpt lat="50.29711" lon="3.4941">
        <ele>70.31</ele>
        <time>2021-08-07T18:48:06Z</time>
      </trkpt>
      <trkpt lat="50.29762" lon="3.49474">
        <ele>67.91</ele>
        <time>2021-08-07T18:48:15Z</time>
      </trkpt>
      <trkpt lat="50.29827" lon="3.49552">
        <ele>65.99</ele>
        <time>2021-08-07T18:48:25Z</time>
      </trkpt>
      <trkpt lat="50.29897" lon="3.49623">
        <ele>63.1</ele>
        <time>2021-08-07T18:48:35Z</time>
      </trkpt>
      <trkpt lat="50.29964" lon="3.49666">
        <ele>61.18</ele>
        <time>2021-08-07T18:48:44Z</time>
      </trkpt>
      <trkpt lat="50.30025" lon="3.49689">
        <ele>59.74</ele>
        <time>2021-08-07T18:48:52Z</time>
      </trkpt>
      <trkpt lat="50.30087" lon="3.497">
        <ele>57.82</ele>
        <time>2021-08-07T18:49:00Z</time>
      </trkpt>
      <trkpt lat="50.3016" lon="3.49711">
        <ele>56.37</ele>
        <time>2021-08-07T18:49:10Z</time>
      </trkpt>
      <trkpt lat="50.30225" lon="3.49721">
        <ele>55.41</ele>
        <time>2021-08-07T18:49:20Z</time>
      </trkpt>
      <trkpt lat="50.30242" lon="3.49723">
        <ele>55.41</ele>
        <time>2021-08-07T18:49:23Z</time>
      </trkpt>
      <trkpt lat="50.30247" lon="3.49725">
        <ele>55.41</ele>
        <time>2021-08-07T18:49:24Z</time>
      </trkpt>
      <trkpt lat="50.30251" lon="3.49727">
        <ele>54.93</ele>
        <time>2021-08-07T18:49:25Z</time>
      </trkpt>
      <trkpt lat="50.30254" lon="3.49732">
        <ele>54.93</ele>
        <time>2021-08-07T18:49:26Z</time>
      </trkpt>
      <trkpt lat="50.30255" lon="3.49737">
        <ele>54.93</ele>
        <time>2021-08-07T18:49:27Z</time>
      </trkpt>
      <trkpt lat="50.30254" lon="3.49742">
        <ele>54.93</ele>
        <time>2021-08-07T18:49:28Z</time>
      </trkpt>
      <trkpt lat="50.30253" lon="3.49746">
        <ele>54.93</ele>
        <time>2021-08-07T18:49:29Z</time>
      </trkpt>
      <trkpt lat="50.30251" lon="3.49751">
        <ele>54.93</ele>
        <time>2021-08-07T18:49:30Z</time>
      </trkpt>
      <trkpt lat="50.30237" lon="3.49787">
        <ele>54.93</ele>
        <time>2021-08-07T18:49:37Z</time>
      </trkpt>
      <trkpt lat="50.30229" lon="3.49809">
        <ele>56.37</ele>
        <time>2021-08-07T18:49:41Z</time>
      </trkpt>
      <trkpt lat="50.30207" lon="3.49868">
        <ele>57.82</ele>
        <time>2021-08-07T18:49:52Z</time>
      </trkpt>
      <trkpt lat="50.30191" lon="3.49912">
        <ele>59.74</ele>
        <time>2021-08-07T18:50:02Z</time>
      </trkpt>
      <trkpt lat="50.30173" lon="3.49962">
        <ele>61.66</ele>
        <time>2021-08-07T18:50:13Z</time>
      </trkpt>
      <trkpt lat="50.30159" lon="3.50008">
        <ele>63.1</ele>
        <time>2021-08-07T18:50:22Z</time>
      </trkpt>
      <trkpt lat="50.30144" lon="3.50066">
        <ele>64.55</ele>
        <time>2021-08-07T18:50:33Z</time>
      </trkpt>
      <trkpt lat="50.30124" lon="3.50137">
        <ele>65.03</ele>
        <time>2021-08-07T18:50:45Z</time>
      </trkpt>
      <trkpt lat="50.3012" lon="3.50156">
        <ele>62.14</ele>
        <time>2021-08-07T18:50:47Z</time>
      </trkpt>
      <trkpt lat="50.30109" lon="3.5021">
        <ele>58.78</ele>
        <time>2021-08-07T18:50:52Z</time>
      </trkpt>
      <trkpt lat="50.30104" lon="3.50233">
        <ele>57.82</ele>
        <time>2021-08-07T18:50:54Z</time>
      </trkpt>
      <trkpt lat="50.30087" lon="3.5031">
        <ele>56.86</ele>
        <time>2021-08-07T18:51:01Z</time>
      </trkpt>
      <trkpt lat="50.30073" lon="3.50353">
        <ele>57.82</ele>
        <time>2021-08-07T18:51:07Z</time>
      </trkpt>
      <trkpt lat="50.30071" lon="3.50359">
        <ele>57.82</ele>
        <time>2021-08-07T18:51:08Z</time>
      </trkpt>
      <trkpt lat="50.30059" lon="3.50395">
        <ele>60.22</ele>
        <time>2021-08-07T18:51:16Z</time>
      </trkpt>
      <trkpt lat="50.30045" lon="3.50435">
        <ele>62.14</ele>
        <time>2021-08-07T18:51:28Z</time>
      </trkpt>
      <trkpt lat="50.30034" lon="3.50464">
        <ele>63.58</ele>
        <time>2021-08-07T18:51:38Z</time>
      </trkpt>
      <trkpt lat="50.30025" lon="3.50488">
        <ele>64.55</ele>
        <time>2021-08-07T18:51:46Z</time>
      </trkpt>
      <trkpt lat="50.30015" lon="3.5052">
        <ele>65.51</ele>
        <time>2021-08-07T18:51:55Z</time>
      </trkpt>
      <trkpt lat="50.30006" lon="3.50544">
        <ele>66.47</ele>
        <time>2021-08-07T18:52:02Z</time>
      </trkpt>
      <trkpt lat="50.29995" lon="3.50574">
        <ele>66.95</ele>
        <time>2021-08-07T18:52:11Z</time>
      </trkpt>
      <trkpt lat="50.29986" lon="3.50602">
        <ele>67.91</ele>
        <time>2021-08-07T18:52:19Z</time>
      </trkpt>
      <trkpt lat="50.29977" lon="3.50627">
        <ele>68.87</ele>
        <time>2021-08-07T18:52:26Z</time>
      </trkpt>
      <trkpt lat="50.29966" lon="3.50658">
        <ele>69.35</ele>
        <time>2021-08-07T18:52:35Z</time>
      </trkpt>
      <trkpt lat="50.29953" lon="3.50692">
        <ele>70.31</ele>
        <time>2021-08-07T18:52:44Z</time>
      </trkpt>
      <trkpt lat="50.29938" lon="3.50732">
        <ele>70.79</ele>
        <time>2021-08-07T18:52:53Z</time>
      </trkpt>
      <trkpt lat="50.29922" lon="3.5078">
        <ele>71.76</ele>
        <time>2021-08-07T18:53:03Z</time>
      </trkpt>
      <trkpt lat="50.2991" lon="3.50812">
        <ele>73.2</ele>
        <time>2021-08-07T18:53:10Z</time>
      </trkpt>
      <trkpt lat="50.29893" lon="3.50859">
        <ele>73.68</ele>
        <time>2021-08-07T18:53:19Z</time>
      </trkpt>
      <trkpt lat="50.29875" lon="3.50911">
        <ele>74.64</ele>
        <time>2021-08-07T18:53:29Z</time>
      </trkpt>
      <trkpt lat="50.29854" lon="3.5097">
        <ele>75.6</ele>
        <time>2021-08-07T18:53:40Z</time>
      </trkpt>
      <trkpt lat="50.29837" lon="3.5102">
        <ele>76.56</ele>
        <time>2021-08-07T18:53:49Z</time>
      </trkpt>
      <trkpt lat="50.29815" lon="3.51078">
        <ele>76.56</ele>
        <time>2021-08-07T18:53:59Z</time>
      </trkpt>
      <trkpt lat="50.29795" lon="3.51133">
        <ele>77.04</ele>
        <time>2021-08-07T18:54:08Z</time>
      </trkpt>
      <trkpt lat="50.29773" lon="3.51195">
        <ele>77.52</ele>
        <time>2021-08-07T18:54:18Z</time>
      </trkpt>
      <trkpt lat="50.29756" lon="3.51247">
        <ele>77.52</ele>
        <time>2021-08-07T18:54:26Z</time>
      </trkpt>
      <trkpt lat="50.29734" lon="3.51307">
        <ele>76.08</ele>
        <time>2021-08-07T18:54:35Z</time>
      </trkpt>
      <trkpt lat="50.29726" lon="3.51335">
        <ele>75.6</ele>
        <time>2021-08-07T18:54:39Z</time>
      </trkpt>
      <trkpt lat="50.29726" lon="3.51342">
        <ele>75.6</ele>
        <time>2021-08-07T18:54:40Z</time>
      </trkpt>
      <trkpt lat="50.29727" lon="3.51349">
        <ele>75.6</ele>
        <time>2021-08-07T18:54:41Z</time>
      </trkpt>
      <trkpt lat="50.2973" lon="3.51355">
        <ele>75.6</ele>
        <time>2021-08-07T18:54:42Z</time>
      </trkpt>
      <trkpt lat="50.29732" lon="3.51359">
        <ele>75.6</ele>
        <time>2021-08-07T18:54:43Z</time>
      </trkpt>
      <trkpt lat="50.29736" lon="3.51365">
        <ele>75.6</ele>
        <time>2021-08-07T18:54:44Z</time>
      </trkpt>
      <trkpt lat="50.29766" lon="3.51411">
        <ele>73.68</ele>
        <time>2021-08-07T18:54:51Z</time>
      </trkpt>
      <trkpt lat="50.29785" lon="3.51443">
        <ele>71.76</ele>
        <time>2021-08-07T18:54:55Z</time>
      </trkpt>
      <trkpt lat="50.29832" lon="3.5151">
        <ele>70.31</ele>
        <time>2021-08-07T18:55:04Z</time>
      </trkpt>
      <trkpt lat="50.29844" lon="3.51527">
        <ele>69.83</ele>
        <time>2021-08-07T18:55:07Z</time>
      </trkpt>
      <trkpt lat="50.29846" lon="3.51534">
        <ele>69.83</ele>
        <time>2021-08-07T18:55:08Z</time>
      </trkpt>
      <trkpt lat="50.29846" lon="3.51539">
        <ele>70.31</ele>
        <time>2021-08-07T18:55:09Z</time>
      </trkpt>
      <trkpt lat="50.29845" lon="3.51545">
        <ele>69.35</ele>
        <time>2021-08-07T18:55:10Z</time>
      </trkpt>
      <trkpt lat="50.29843" lon="3.5155">
        <ele>69.35</ele>
        <time>2021-08-07T18:55:11Z</time>
      </trkpt>
      <trkpt lat="50.2984" lon="3.51554">
        <ele>68.87</ele>
        <time>2021-08-07T18:55:12Z</time>
      </trkpt>
      <trkpt lat="50.29837" lon="3.51557">
        <ele>68.87</ele>
        <time>2021-08-07T18:55:13Z</time>
      </trkpt>
      <trkpt lat="50.29833" lon="3.5156">
        <ele>68.87</ele>
        <time>2021-08-07T18:55:14Z</time>
      </trkpt>
      <trkpt lat="50.29828" lon="3.51565">
        <ele>68.87</ele>
        <time>2021-08-07T18:55:15Z</time>
      </trkpt>
      <trkpt lat="50.29821" lon="3.51574">
        <ele>68.87</ele>
        <time>2021-08-07T18:55:17Z</time>
      </trkpt>
      <trkpt lat="50.29819" lon="3.51578">
        <ele>68.87</ele>
        <time>2021-08-07T18:55:18Z</time>
      </trkpt>
      <trkpt lat="50.29818" lon="3.51582">
        <ele>68.87</ele>
        <time>2021-08-07T18:55:19Z</time>
      </trkpt>
      <trkpt lat="50.29818" lon="3.51585">
        <ele>68.87</ele>
        <time>2021-08-07T18:55:20Z</time>
      </trkpt>
      <trkpt lat="50.29819" lon="3.51587">
        <ele>68.87</ele>
        <time>2021-08-07T18:55:21Z</time>
      </trkpt>
      <trkpt lat="50.2982" lon="3.51589">
        <ele>68.87</ele>
        <time>2021-08-07T18:55:22Z</time>
      </trkpt>
      <trkpt lat="50.29821" lon="3.51592">
        <ele>68.87</ele>
        <time>2021-08-07T18:55:23Z</time>
      </trkpt>
      <trkpt lat="50.29823" lon="3.51593">
        <ele>67.91</ele>
        <time>2021-08-07T18:55:24Z</time>
      </trkpt>
      <trkpt lat="50.29826" lon="3.51595">
        <ele>67.91</ele>
        <time>2021-08-07T18:55:25Z</time>
      </trkpt>
      <trkpt lat="50.2983" lon="3.51597">
        <ele>67.91</ele>
        <time>2021-08-07T18:55:26Z</time>
      </trkpt>
      <trkpt lat="50.29834" lon="3.51599">
        <ele>67.91</ele>
        <time>2021-08-07T18:55:27Z</time>
      </trkpt>
      <trkpt lat="50.29843" lon="3.51602">
        <ele>69.83</ele>
        <time>2021-08-07T18:55:29Z</time>
      </trkpt>
      <trkpt lat="50.299" lon="3.51619">
        <ele>70.31</ele>
        <time>2021-08-07T18:55:40Z</time>
      </trkpt>
      <trkpt lat="50.29946" lon="3.51641">
        <ele>71.76</ele>
        <time>2021-08-07T18:55:50Z</time>
      </trkpt>
      <trkpt lat="50.29969" lon="3.51664">
        <ele>72.24</ele>
        <time>2021-08-07T18:55:56Z</time>
      </trkpt>
      <trkpt lat="50.29972" lon="3.51669">
        <ele>72.72</ele>
        <time>2021-08-07T18:55:57Z</time>
      </trkpt>
      <trkpt lat="50.29975" lon="3.51675">
        <ele>73.2</ele>
        <time>2021-08-07T18:55:58Z</time>
      </trkpt>
      <trkpt lat="50.29977" lon="3.51681">
        <ele>73.2</ele>
        <time>2021-08-07T18:55:59Z</time>
      </trkpt>
      <trkpt lat="50.29979" lon="3.51688">
        <ele>73.2</ele>
        <time>2021-08-07T18:56:00Z</time>
      </trkpt>
      <trkpt lat="50.29981" lon="3.51694">
        <ele>73.2</ele>
        <time>2021-08-07T18:56:01Z</time>
      </trkpt>
      <trkpt lat="50.29984" lon="3.517">
        <ele>74.16</ele>
        <time>2021-08-07T18:56:02Z</time>
      </trkpt>
      <trkpt lat="50.29989" lon="3.51713">
        <ele>74.16</ele>
        <time>2021-08-07T18:56:04Z</time>
      </trkpt>
      <trkpt lat="50.29991" lon="3.51721">
        <ele>73.68</ele>
        <time>2021-08-07T18:56:05Z</time>
      </trkpt>
      <trkpt lat="50.29992" lon="3.51727">
        <ele>74.16</ele>
        <time>2021-08-07T18:56:06Z</time>
      </trkpt>
      <trkpt lat="50.29994" lon="3.51734">
        <ele>74.16</ele>
        <time>2021-08-07T18:56:07Z</time>
      </trkpt>
      <trkpt lat="50.29995" lon="3.51742">
        <ele>74.64</ele>
        <time>2021-08-07T18:56:08Z</time>
      </trkpt>
      <trkpt lat="50.29998" lon="3.51789">
        <ele>75.12</ele>
        <time>2021-08-07T18:56:14Z</time>
      </trkpt>
      <trkpt lat="50.29995" lon="3.51858">
        <ele>75.12</ele>
        <time>2021-08-07T18:56:23Z</time>
      </trkpt>
      <trkpt lat="50.29991" lon="3.51949">
        <ele>75.6</ele>
        <time>2021-08-07T18:56:33Z</time>
      </trkpt>
      <trkpt lat="50.29988" lon="3.51996">
        <ele>74.16</ele>
        <time>2021-08-07T18:56:38Z</time>
      </trkpt>
      <trkpt lat="50.29984" lon="3.52088">
        <ele>74.16</ele>
        <time>2021-08-07T18:56:48Z</time>
      </trkpt>
      <trkpt lat="50.29983" lon="3.52106">
        <ele>75.6</ele>
        <time>2021-08-07T18:56:50Z</time>
      </trkpt>
      <trkpt lat="50.29978" lon="3.52195">
        <ele>76.56</ele>
        <time>2021-08-07T18:57:01Z</time>
      </trkpt>
      <trkpt lat="50.29974" lon="3.52263">
        <ele>77.52</ele>
        <time>2021-08-07T18:57:10Z</time>
      </trkpt>
      <trkpt lat="50.29969" lon="3.52343">
        <ele>78.97</ele>
        <time>2021-08-07T18:57:21Z</time>
      </trkpt>
      <trkpt lat="50.29959" lon="3.52421">
        <ele>79.45</ele>
        <time>2021-08-07T18:57:31Z</time>
      </trkpt>
      <trkpt lat="50.29948" lon="3.52477">
        <ele>78</ele>
        <time>2021-08-07T18:57:38Z</time>
      </trkpt>
      <trkpt lat="50.29939" lon="3.52503">
        <ele>78</ele>
        <time>2021-08-07T18:57:42Z</time>
      </trkpt>
      <trkpt lat="50.29938" lon="3.52503">
        <ele>78</ele>
        <time>2021-08-07T18:57:43Z</time>
      </trkpt>
      <trkpt lat="50.29937" lon="3.52501">
        <ele>78</ele>
        <time>2021-08-07T18:57:44Z</time>
      </trkpt>
      <trkpt lat="50.29936" lon="3.525">
        <ele>78</ele>
        <time>2021-08-07T18:57:45Z</time>
      </trkpt>
      <trkpt lat="50.29935" lon="3.52498">
        <ele>78</ele>
        <time>2021-08-07T18:57:46Z</time>
      </trkpt>
      <trkpt lat="50.29933" lon="3.52497">
        <ele>78</ele>
        <time>2021-08-07T18:57:47Z</time>
      </trkpt>
      <trkpt lat="50.29931" lon="3.52497">
        <ele>78</ele>
        <time>2021-08-07T18:57:48Z</time>
      </trkpt>
      <trkpt lat="50.29917" lon="3.52502">
        <ele>78</ele>
        <time>2021-08-07T18:57:54Z</time>
      </trkpt>
      <trkpt lat="50.29895" lon="3.52512">
        <ele>78</ele>
        <time>2021-08-07T18:58:02Z</time>
      </trkpt>
      <trkpt lat="50.29858" lon="3.52526">
        <ele>78</ele>
        <time>2021-08-07T18:58:12Z</time>
      </trkpt>
      <trkpt lat="50.29816" lon="3.52542">
        <ele>78</ele>
        <time>2021-08-07T18:58:23Z</time>
      </trkpt>
      <trkpt lat="50.29773" lon="3.5256">
        <ele>78.97</ele>
        <time>2021-08-07T18:58:34Z</time>
      </trkpt>
      <trkpt lat="50.29735" lon="3.52575">
        <ele>79.93</ele>
        <time>2021-08-07T18:58:44Z</time>
      </trkpt>
      <trkpt lat="50.29701" lon="3.52587">
        <ele>80.41</ele>
        <time>2021-08-07T18:58:53Z</time>
      </trkpt>
      <trkpt lat="50.29669" lon="3.526">
        <ele>80.89</ele>
        <time>2021-08-07T18:59:02Z</time>
      </trkpt>
      <trkpt lat="50.2964" lon="3.52611">
        <ele>80.89</ele>
        <time>2021-08-07T18:59:11Z</time>
      </trkpt>
      <trkpt lat="50.29598" lon="3.52627">
        <ele>82.33</ele>
        <time>2021-08-07T18:59:23Z</time>
      </trkpt>
      <trkpt lat="50.29569" lon="3.52638">
        <ele>82.81</ele>
        <time>2021-08-07T18:59:31Z</time>
      </trkpt>
      <trkpt lat="50.29526" lon="3.52655">
        <ele>82.81</ele>
        <time>2021-08-07T18:59:43Z</time>
      </trkpt>
      <trkpt lat="50.29491" lon="3.52668">
        <ele>83.29</ele>
        <time>2021-08-07T18:59:53Z</time>
      </trkpt>
      <trkpt lat="50.29462" lon="3.52682">
        <ele>83.77</ele>
        <time>2021-08-07T19:00:02Z</time>
      </trkpt>
      <trkpt lat="50.29429" lon="3.52694">
        <ele>84.25</ele>
        <time>2021-08-07T19:00:12Z</time>
      </trkpt>
      <trkpt lat="50.294" lon="3.52706">
        <ele>84.73</ele>
        <time>2021-08-07T19:00:21Z</time>
      </trkpt>
      <trkpt lat="50.29364" lon="3.52721">
        <ele>85.21</ele>
        <time>2021-08-07T19:00:32Z</time>
      </trkpt>
      <trkpt lat="50.29341" lon="3.5273">
        <ele>85.69</ele>
        <time>2021-08-07T19:00:39Z</time>
      </trkpt>
      <trkpt lat="50.29304" lon="3.52744">
        <ele>86.66</ele>
        <time>2021-08-07T19:00:50Z</time>
      </trkpt>
      <trkpt lat="50.29271" lon="3.52757">
        <ele>87.14</ele>
        <time>2021-08-07T19:01:00Z</time>
      </trkpt>
      <trkpt lat="50.29246" lon="3.52767">
        <ele>87.14</ele>
        <time>2021-08-07T19:01:08Z</time>
      </trkpt>
      <trkpt lat="50.29225" lon="3.52777">
        <ele>87.62</ele>
        <time>2021-08-07T19:01:15Z</time>
      </trkpt>
      <trkpt lat="50.292" lon="3.52795">
        <ele>88.1</ele>
        <time>2021-08-07T19:01:24Z</time>
      </trkpt>
      <trkpt lat="50.29181" lon="3.52819">
        <ele>88.58</ele>
        <time>2021-08-07T19:01:31Z</time>
      </trkpt>
      <trkpt lat="50.29157" lon="3.5285">
        <ele>89.06</ele>
        <time>2021-08-07T19:01:40Z</time>
      </trkpt>
      <trkpt lat="50.29136" lon="3.52858">
        <ele>89.54</ele>
        <time>2021-08-07T19:01:47Z</time>
      </trkpt>
      <trkpt lat="50.2912" lon="3.52845">
        <ele>90.98</ele>
        <time>2021-08-07T19:01:54Z</time>
      </trkpt>
      <trkpt lat="50.29095" lon="3.52828">
        <ele>90.98</ele>
        <time>2021-08-07T19:02:02Z</time>
      </trkpt>
      <trkpt lat="50.29091" lon="3.52829">
        <ele>90.98</ele>
        <time>2021-08-07T19:02:03Z</time>
      </trkpt>
      <trkpt lat="50.29087" lon="3.52829">
        <ele>90.98</ele>
        <time>2021-08-07T19:02:04Z</time>
      </trkpt>
      <trkpt lat="50.29052" lon="3.52842">
        <ele>89.54</ele>
        <time>2021-08-07T19:02:13Z</time>
      </trkpt>
      <trkpt lat="50.29022" lon="3.52852">
        <ele>89.54</ele>
        <time>2021-08-07T19:02:21Z</time>
      </trkpt>
      <trkpt lat="50.28984" lon="3.52865">
        <ele>89.54</ele>
        <time>2021-08-07T19:02:31Z</time>
      </trkpt>
      <trkpt lat="50.28964" lon="3.52873">
        <ele>90.98</ele>
        <time>2021-08-07T19:02:36Z</time>
      </trkpt>
      <trkpt lat="50.28921" lon="3.5289">
        <ele>90.98</ele>
        <time>2021-08-07T19:02:47Z</time>
      </trkpt>
      <trkpt lat="50.28878" lon="3.52905">
        <ele>90.98</ele>
        <time>2021-08-07T19:02:58Z</time>
      </trkpt>
      <trkpt lat="50.28849" lon="3.52914">
        <ele>91.46</ele>
        <time>2021-08-07T19:03:06Z</time>
      </trkpt>
      <trkpt lat="50.28824" lon="3.52923">
        <ele>91.94</ele>
        <time>2021-08-07T19:03:14Z</time>
      </trkpt>
      <trkpt lat="50.28805" lon="3.52928">
        <ele>90.5</ele>
        <time>2021-08-07T19:03:21Z</time>
      </trkpt>
      <trkpt lat="50.28798" lon="3.52929">
        <ele>91.94</ele>
        <time>2021-08-07T19:03:26Z</time>
      </trkpt>
      <trkpt lat="50.28798" lon="3.52928">
        <ele>90.98</ele>
        <time>2021-08-07T19:03:30Z</time>
      </trkpt>
      <trkpt lat="50.28799" lon="3.52927">
        <ele>90.5</ele>
        <time>2021-08-07T19:03:55Z</time>
      </trkpt>
      <trkpt lat="50.28799" lon="3.52927">
        <ele>90.5</ele>
        <time>2021-08-07T19:04:13Z</time>
      </trkpt>
      <trkpt lat="50.288" lon="3.52926">
        <ele>90.5</ele>
        <time>2021-08-07T19:04:27Z</time>
      </trkpt>
      <trkpt lat="50.28799" lon="3.52926">
        <ele>90.5</ele>
        <time>2021-08-07T19:04:46Z</time>
      </trkpt>
      <trkpt lat="50.28799" lon="3.52927">
        <ele>90.5</ele>
        <time>2021-08-07T19:05:11Z</time>
      </trkpt>
      <trkpt lat="50.28799" lon="3.52926">
        <ele>90.02</ele>
        <time>2021-08-07T19:05:29Z</time>
      </trkpt>
      <trkpt lat="50.28797" lon="3.52926">
        <ele>90.02</ele>
        <time>2021-08-07T19:05:49Z</time>
      </trkpt>
      <trkpt lat="50.28797" lon="3.52926">
        <ele>90.02</ele>
        <time>2021-08-07T19:06:04Z</time>
      </trkpt>
      <trkpt lat="50.28798" lon="3.52927">
        <ele>90.02</ele>
        <time>2021-08-07T19:06:21Z</time>
      </trkpt>
      <trkpt lat="50.28799" lon="3.52927">
        <ele>90.02</ele>
        <time>2021-08-07T19:06:41Z</time>
      </trkpt>
      <trkpt lat="50.288" lon="3.52926">
        <ele>89.54</ele>
        <time>2021-08-07T19:07:03Z</time>
      </trkpt>
      <trkpt lat="50.288" lon="3.52926">
        <ele>90.5</ele>
        <time>2021-08-07T19:07:19Z</time>
      </trkpt>
      <trkpt lat="50.28799" lon="3.52929">
        <ele>90.5</ele>
        <time>2021-08-07T19:07:36Z</time>
      </trkpt>
      <trkpt lat="50.288" lon="3.52929">
        <ele>90.98</ele>
        <time>2021-08-07T19:07:47Z</time>
      </trkpt>
      <trkpt lat="50.28798" lon="3.52931">
        <ele>90.02</ele>
        <time>2021-08-07T19:08:00Z</time>
      </trkpt>
      <trkpt lat="50.28796" lon="3.52933">
        <ele>90.02</ele>
        <time>2021-08-07T19:08:06Z</time>
      </trkpt>
      <trkpt lat="50.28795" lon="3.52932">
        <ele>90.02</ele>
        <time>2021-08-07T19:08:21Z</time>
      </trkpt>
      <trkpt lat="50.28795" lon="3.52932">
        <ele>90.02</ele>
        <time>2021-08-07T19:08:39Z</time>
      </trkpt>
      <trkpt lat="50.28794" lon="3.52932">
        <ele>90.02</ele>
        <time>2021-08-07T19:08:53Z</time>
      </trkpt>
      <trkpt lat="50.28794" lon="3.52932">
        <ele>90.02</ele>
        <time>2021-08-07T19:09:08Z</time>
      </trkpt>
      <trkpt lat="50.28795" lon="3.52933">
        <ele>90.02</ele>
        <time>2021-08-07T19:09:23Z</time>
      </trkpt>
      <trkpt lat="50.28796" lon="3.52932">
        <ele>90.02</ele>
        <time>2021-08-07T19:09:40Z</time>
      </trkpt>
      <trkpt lat="50.28795" lon="3.52931">
        <ele>90.02</ele>
        <time>2021-08-07T19:09:58Z</time>
      </trkpt>
      <trkpt lat="50.28793" lon="3.52931">
        <ele>90.02</ele>
        <time>2021-08-07T19:10:18Z</time>
      </trkpt>
      <trkpt lat="50.28795" lon="3.52931">
        <ele>89.54</ele>
        <time>2021-08-07T19:10:37Z</time>
      </trkpt>
      <trkpt lat="50.28794" lon="3.52931">
        <ele>90.5</ele>
        <time>2021-08-07T19:10:45Z</time>
      </trkpt>
      <trkpt lat="50.28792" lon="3.52932">
        <ele>90.5</ele>
        <time>2021-08-07T19:10:46Z</time>
      </trkpt>
      <trkpt lat="50.28791" lon="3.52933">
        <ele>90.5</ele>
        <time>2021-08-07T19:10:47Z</time>
      </trkpt>
      <trkpt lat="50.28789" lon="3.52934">
        <ele>90.5</ele>
        <time>2021-08-07T19:10:48Z</time>
      </trkpt>
      <trkpt lat="50.28786" lon="3.52935">
        <ele>90.5</ele>
        <time>2021-08-07T19:10:49Z</time>
      </trkpt>
      <trkpt lat="50.28784" lon="3.52937">
        <ele>89.06</ele>
        <time>2021-08-07T19:10:50Z</time>
      </trkpt>
      <trkpt lat="50.2878" lon="3.52938">
        <ele>89.06</ele>
        <time>2021-08-07T19:10:51Z</time>
      </trkpt>
      <trkpt lat="50.28753" lon="3.52948">
        <ele>88.1</ele>
        <time>2021-08-07T19:10:58Z</time>
      </trkpt>
      <trkpt lat="50.28707" lon="3.52965">
        <ele>86.18</ele>
        <time>2021-08-07T19:11:07Z</time>
      </trkpt>
      <trkpt lat="50.28661" lon="3.52984">
        <ele>84.73</ele>
        <time>2021-08-07T19:11:16Z</time>
      </trkpt>
      <trkpt lat="50.28615" lon="3.53007">
        <ele>82.81</ele>
        <time>2021-08-07T19:11:26Z</time>
      </trkpt>
      <trkpt lat="50.28569" lon="3.53027">
        <ele>82.81</ele>
        <time>2021-08-07T19:11:36Z</time>
      </trkpt>
      <trkpt lat="50.2851" lon="3.53055">
        <ele>82.81</ele>
        <time>2021-08-07T19:11:49Z</time>
      </trkpt>
      <trkpt lat="50.28462" lon="3.53076">
        <ele>82.33</ele>
        <time>2021-08-07T19:12:00Z</time>
      </trkpt>
      <trkpt lat="50.28431" lon="3.53088">
        <ele>81.85</ele>
        <time>2021-08-07T19:12:08Z</time>
      </trkpt>
      <trkpt lat="50.28409" lon="3.531">
        <ele>81.85</ele>
        <time>2021-08-07T19:12:14Z</time>
      </trkpt>
      <trkpt lat="50.28391" lon="3.53112">
        <ele>81.85</ele>
        <time>2021-08-07T19:12:21Z</time>
      </trkpt>
      <trkpt lat="50.28372" lon="3.53118">
        <ele>81.85</ele>
        <time>2021-08-07T19:12:28Z</time>
      </trkpt>
      <trkpt lat="50.28338" lon="3.53134">
        <ele>81.37</ele>
        <time>2021-08-07T19:12:38Z</time>
      </trkpt>
      <trkpt lat="50.28302" lon="3.5315">
        <ele>82.81</ele>
        <time>2021-08-07T19:12:49Z</time>
      </trkpt>
      <trkpt lat="50.28284" lon="3.53156">
        <ele>82.81</ele>
        <time>2021-08-07T19:12:54Z</time>
      </trkpt>
      <trkpt lat="50.28263" lon="3.53163">
        <ele>82.81</ele>
        <time>2021-08-07T19:13:00Z</time>
      </trkpt>
      <trkpt lat="50.28238" lon="3.53171">
        <ele>83.29</ele>
        <time>2021-08-07T19:13:07Z</time>
      </trkpt>
      <trkpt lat="50.282" lon="3.53183">
        <ele>83.29</ele>
        <time>2021-08-07T19:13:18Z</time>
      </trkpt>
      <trkpt lat="50.28158" lon="3.53196">
        <ele>83.77</ele>
        <time>2021-08-07T19:13:30Z</time>
      </trkpt>
      <trkpt lat="50.28121" lon="3.53208">
        <ele>85.21</ele>
        <time>2021-08-07T19:13:41Z</time>
      </trkpt>
      <trkpt lat="50.28093" lon="3.53218">
        <ele>85.21</ele>
        <time>2021-08-07T19:13:49Z</time>
      </trkpt>
      <trkpt lat="50.28059" lon="3.53228">
        <ele>85.69</ele>
        <time>2021-08-07T19:13:59Z</time>
      </trkpt>
      <trkpt lat="50.28024" lon="3.5324">
        <ele>86.18</ele>
        <time>2021-08-07T19:14:09Z</time>
      </trkpt>
      <trkpt lat="50.27982" lon="3.53257">
        <ele>87.14</ele>
        <time>2021-08-07T19:14:21Z</time>
      </trkpt>
      <trkpt lat="50.27948" lon="3.5327">
        <ele>87.14</ele>
        <time>2021-08-07T19:14:30Z</time>
      </trkpt>
      <trkpt lat="50.27915" lon="3.53282">
        <ele>85.69</ele>
        <time>2021-08-07T19:14:39Z</time>
      </trkpt>
      <trkpt lat="50.2787" lon="3.53302">
        <ele>85.21</ele>
        <time>2021-08-07T19:14:50Z</time>
      </trkpt>
      <trkpt lat="50.27829" lon="3.53319">
        <ele>85.21</ele>
        <time>2021-08-07T19:15:00Z</time>
      </trkpt>
      <trkpt lat="50.27812" lon="3.53326">
        <ele>85.21</ele>
        <time>2021-08-07T19:15:04Z</time>
      </trkpt>
      <trkpt lat="50.27783" lon="3.53336">
        <ele>85.21</ele>
        <time>2021-08-07T19:15:11Z</time>
      </trkpt>
      <trkpt lat="50.27779" lon="3.53337">
        <ele>85.21</ele>
        <time>2021-08-07T19:15:12Z</time>
      </trkpt>
      <trkpt lat="50.27745" lon="3.53352">
        <ele>86.18</ele>
        <time>2021-08-07T19:15:21Z</time>
      </trkpt>
      <trkpt lat="50.27715" lon="3.53364">
        <ele>86.66</ele>
        <time>2021-08-07T19:15:29Z</time>
      </trkpt>
      <trkpt lat="50.27668" lon="3.53383">
        <ele>88.1</ele>
        <time>2021-08-07T19:15:42Z</time>
      </trkpt>
      <trkpt lat="50.27635" lon="3.534">
        <ele>88.58</ele>
        <time>2021-08-07T19:15:52Z</time>
      </trkpt>
      <trkpt lat="50.27612" lon="3.53406">
        <ele>88.58</ele>
        <time>2021-08-07T19:15:58Z</time>
      </trkpt>
      <trkpt lat="50.27607" lon="3.53407">
        <ele>88.58</ele>
        <time>2021-08-07T19:15:59Z</time>
      </trkpt>
      <trkpt lat="50.27599" lon="3.5341">
        <ele>87.14</ele>
        <time>2021-08-07T19:16:01Z</time>
      </trkpt>
      <trkpt lat="50.27562" lon="3.53424">
        <ele>86.18</ele>
        <time>2021-08-07T19:16:09Z</time>
      </trkpt>
      <trkpt lat="50.27518" lon="3.53442">
        <ele>84.73</ele>
        <time>2021-08-07T19:16:18Z</time>
      </trkpt>
      <trkpt lat="50.27471" lon="3.53466">
        <ele>83.29</ele>
        <time>2021-08-07T19:16:27Z</time>
      </trkpt>
      <trkpt lat="50.27426" lon="3.53488">
        <ele>83.29</ele>
        <time>2021-08-07T19:16:35Z</time>
      </trkpt>
      <trkpt lat="50.27377" lon="3.53515">
        <ele>81.37</ele>
        <time>2021-08-07T19:16:44Z</time>
      </trkpt>
      <trkpt lat="50.27329" lon="3.53535">
        <ele>80.41</ele>
        <time>2021-08-07T19:16:53Z</time>
      </trkpt>
      <trkpt lat="50.27301" lon="3.5354">
        <ele>80.41</ele>
        <time>2021-08-07T19:17:00Z</time>
      </trkpt>
      <trkpt lat="50.27302" lon="3.53546">
        <ele>81.85</ele>
        <time>2021-08-07T19:17:02Z</time>
      </trkpt>
      <trkpt lat="50.27304" lon="3.53548">
        <ele>81.85</ele>
        <time>2021-08-07T19:17:03Z</time>
      </trkpt>
      <trkpt lat="50.27305" lon="3.53548">
        <ele>81.85</ele>
        <time>2021-08-07T19:17:04Z</time>
      </trkpt>
      <trkpt lat="50.27306" lon="3.53548">
        <ele>81.85</ele>
        <time>2021-08-07T19:17:09Z</time>
      </trkpt>
      <trkpt lat="50.27307" lon="3.53547">
        <ele>81.85</ele>
        <time>2021-08-07T19:17:26Z</time>
      </trkpt>
      <trkpt lat="50.27306" lon="3.53548">
        <ele>80.89</ele>
        <time>2021-08-07T19:17:45Z</time>
      </trkpt>
      <trkpt lat="50.27307" lon="3.53547">
        <ele>80.89</ele>
        <time>2021-08-07T19:18:02Z</time>
      </trkpt>
      <trkpt lat="50.27307" lon="3.53547">
        <ele>80.89</ele>
        <time>2021-08-07T19:18:18Z</time>
      </trkpt>
      <trkpt lat="50.27306" lon="3.53548">
        <ele>80.89</ele>
        <time>2021-08-07T19:18:32Z</time>
      </trkpt>
      <trkpt lat="50.27305" lon="3.53549">
        <ele>80.89</ele>
        <time>2021-08-07T19:18:34Z</time>
      </trkpt>
      <trkpt lat="50.27303" lon="3.53548">
        <ele>80.89</ele>
        <time>2021-08-07T19:18:37Z</time>
      </trkpt>
      <trkpt lat="50.27298" lon="3.53548">
        <ele>81.85</ele>
        <time>2021-08-07T19:18:41Z</time>
      </trkpt>
      <trkpt lat="50.27292" lon="3.53546">
        <ele>81.85</ele>
        <time>2021-08-07T19:18:49Z</time>
      </trkpt>
      <trkpt lat="50.27293" lon="3.53546">
        <ele>81.85</ele>
        <time>2021-08-07T19:19:00Z</time>
      </trkpt>
    </trkseg>
  </trk>
</gpx>